<?xml version="1.0" encoding="UTF-8"?>
<gpx version="1.1" creator=" " xmlns="http://www.topografix.com/GPX/1/1" xmlns:xsi="http://www.w3.org/2001/XMLSchema-instance" xsi:schemaLocation="http://www.topografix.com/GPX/1/1 http://www.topografix.com/GPX/1/1/gpx.xsd">
<metadata>
<name>TL Kalmit</name>
<desc></desc>
<link href="">
<text>  </text>
</link>
<time>2023-05-18T09:30:46Z</time>
</metadata>
<trk>
<trkseg>
<trkpt lat="49.28189699538052" lon="8.126399964094162">
<ele>181.39999999999998</ele>
</trkpt>
<trkpt lat="49.28189699538052" lon="8.126399964094162">
<ele>181.39999999999998</ele>
<time>2023-05-18T09:30:48Z</time>
</trkpt>
<trkpt lat="49.28193496540189" lon="8.126299967989326">
<ele>181.60000000000002</ele>
<time>2023-05-18T09:30:50Z</time>
</trkpt>
<trkpt lat="49.28193798288703" lon="8.126274989917874">
<ele>181.60000000000002</ele>
<time>2023-05-18T09:30:51Z</time>
</trkpt>
<trkpt lat="49.28193999454379" lon="8.126259986311197">
<ele>181.60000000000002</ele>
<time>2023-05-18T09:30:52Z</time>
</trkpt>
<trkpt lat="49.28193798288703" lon="8.126252945512533">
<ele>181.60000000000002</ele>
<time>2023-05-18T09:30:53Z</time>
</trkpt>
<trkpt lat="49.28193697705865" lon="8.126249928027391">
<ele>181.60000000000002</ele>
<time>2023-05-18T09:30:54Z</time>
</trkpt>
<trkpt lat="49.28197695873678" lon="8.126151943579316">
<ele>182</ele>
<time>2023-05-18T09:30:54Z</time>
</trkpt>
<trkpt lat="49.28197796456516" lon="8.126129982993007">
<ele>182</ele>
<time>2023-05-18T09:30:55Z</time>
</trkpt>
<trkpt lat="49.28197997622192" lon="8.126104921102524">
<ele>182</ele>
<time>2023-05-18T09:30:56Z</time>
</trkpt>
<trkpt lat="49.28197997622192" lon="8.126081954687834">
<ele>182</ele>
<time>2023-05-18T09:30:57Z</time>
</trkpt>
<trkpt lat="49.28197695873678" lon="8.126041973009706">
<ele>182</ele>
<time>2023-05-18T09:30:58Z</time>
</trkpt>
<trkpt lat="49.28197695873678" lon="8.125996962189674">
<ele>182</ele>
<time>2023-05-18T09:30:59Z</time>
</trkpt>
<trkpt lat="49.28197796456516" lon="8.12594298273325">
<ele>182</ele>
<time>2023-05-18T09:31:00Z</time>
</trkpt>
<trkpt lat="49.28198198787868" lon="8.125884979963303">
<ele>182</ele>
<time>2023-05-18T09:31:01Z</time>
</trkpt>
<trkpt lat="49.28197997622192" lon="8.125822953879833">
<ele>182</ele>
<time>2023-05-18T09:31:02Z</time>
</trkpt>
<trkpt lat="49.28197796456516" lon="8.125762939453125">
<ele>182</ele>
<time>2023-05-18T09:31:03Z</time>
</trkpt>
<trkpt lat="49.281972935423255" lon="8.125704936683178">
<ele>182</ele>
<time>2023-05-18T09:31:04Z</time>
</trkpt>
<trkpt lat="49.281967990100384" lon="8.125646933913231">
<ele>182</ele>
<time>2023-05-18T09:31:05Z</time>
</trkpt>
<trkpt lat="49.281966984272" lon="8.125591948628426">
<ele>182</ele>
<time>2023-05-18T09:31:06Z</time>
</trkpt>
<trkpt lat="49.2819619551301" lon="8.125532940030098">
<ele>182</ele>
<time>2023-05-18T09:31:07Z</time>
</trkpt>
<trkpt lat="49.28195793181658" lon="8.12546999193728">
<ele>181.79999999999995</ele>
<time>2023-05-18T09:31:08Z</time>
</trkpt>
<trkpt lat="49.28195499815047" lon="8.12540696002543">
<ele>181.79999999999995</ele>
<time>2023-05-18T09:31:09Z</time>
</trkpt>
<trkpt lat="49.281951980665326" lon="8.12534493394196">
<ele>181.79999999999995</ele>
<time>2023-05-18T09:31:10Z</time>
</trkpt>
<trkpt lat="49.28194192238152" lon="8.125286931172013">
<ele>181.60000000000002</ele>
<time>2023-05-18T09:31:11Z</time>
</trkpt>
<trkpt lat="49.28192197345197" lon="8.125237980857491">
<ele>181.60000000000002</ele>
<time>2023-05-18T09:31:12Z</time>
</trkpt>
<trkpt lat="49.28189699538052" lon="8.125201938673854">
<ele>181.60000000000002</ele>
<time>2023-05-18T09:31:13Z</time>
</trkpt>
<trkpt lat="49.28187696263194" lon="8.1251719314605">
<ele>181.39999999999998</ele>
<time>2023-05-18T09:31:14Z</time>
</trkpt>
<trkpt lat="49.28186799399555" lon="8.125157933682203">
<ele>181.39999999999998</ele>
<time>2023-05-18T09:31:15Z</time>
</trkpt>
<trkpt lat="49.28186992183328" lon="8.125161956995726">
<ele>181.39999999999998</ele>
<time>2023-05-18T09:31:16Z</time>
</trkpt>
<trkpt lat="49.28185793571174" lon="8.125139996409416">
<ele>180.79999999999995</ele>
<time>2023-05-18T09:31:17Z</time>
</trkpt>
<trkpt lat="49.28185198456049" lon="8.12510697171092">
<ele>180.79999999999995</ele>
<time>2023-05-18T09:31:18Z</time>
</trkpt>
<trkpt lat="49.281839998438954" lon="8.125052992254496">
<ele>180.79999999999995</ele>
<time>2023-05-18T09:31:19Z</time>
</trkpt>
<trkpt lat="49.28182792849839" lon="8.124992977827787">
<ele>180.60000000000002</ele>
<time>2023-05-18T09:31:20Z</time>
</trkpt>
<trkpt lat="49.28181493654847" lon="8.124927934259176">
<ele>180.60000000000002</ele>
<time>2023-05-18T09:31:21Z</time>
</trkpt>
<trkpt lat="49.28179792128503" lon="8.124857945367694">
<ele>180.60000000000002</ele>
<time>2023-05-18T09:31:22Z</time>
</trkpt>
<trkpt lat="49.281779984012246" lon="8.124781921505928">
<ele>180.60000000000002</ele>
<time>2023-05-18T09:31:23Z</time>
</trkpt>
<trkpt lat="49.281757939606905" lon="8.124704975634813">
<ele>180.60000000000002</ele>
<time>2023-05-18T09:31:24Z</time>
</trkpt>
<trkpt lat="49.28173799067736" lon="8.124629957601428">
<ele>180.39999999999998</ele>
<time>2023-05-18T09:31:25Z</time>
</trkpt>
<trkpt lat="49.28172994405031" lon="8.124552927911282">
<ele>180.39999999999998</ele>
<time>2023-05-18T09:31:26Z</time>
</trkpt>
<trkpt lat="49.28173195570707" lon="8.1244829390198">
<ele>180.39999999999998</ele>
<time>2023-05-18T09:31:27Z</time>
</trkpt>
<trkpt lat="49.28174293600023" lon="8.124422924593091">
<ele>180.20000000000005</ele>
<time>2023-05-18T09:31:28Z</time>
</trkpt>
<trkpt lat="49.28176799789071" lon="8.124377997592092">
<ele>180.20000000000005</ele>
<time>2023-05-18T09:31:29Z</time>
</trkpt>
<trkpt lat="49.2818049620837" lon="8.124346984550357">
<ele>180.20000000000005</ele>
<time>2023-05-18T09:31:30Z</time>
</trkpt>
<trkpt lat="49.28184796124697" lon="8.124322928488255">
<ele>180.39999999999998</ele>
<time>2023-05-18T09:31:31Z</time>
</trkpt>
<trkpt lat="49.28189196623862" lon="8.124302979558706">
<ele>180.39999999999998</ele>
<time>2023-05-18T09:31:32Z</time>
</trkpt>
<trkpt lat="49.28193697705865" lon="8.124282946810126">
<ele>180.60000000000002</ele>
<time>2023-05-18T09:31:33Z</time>
</trkpt>
<trkpt lat="49.28198299370706" lon="8.124262997880578">
<ele>180.60000000000002</ele>
<time>2023-05-18T09:31:34Z</time>
</trkpt>
<trkpt lat="49.28203194402158" lon="8.124237935990095">
<ele>180.79999999999995</ele>
<time>2023-05-18T09:31:35Z</time>
</trkpt>
<trkpt lat="49.282077960669994" lon="8.124214969575405">
<ele>180.79999999999995</ele>
<time>2023-05-18T09:31:36Z</time>
</trkpt>
<trkpt lat="49.2821279168129" lon="8.124192925170064">
<ele>181</ele>
<time>2023-05-18T09:31:37Z</time>
</trkpt>
<trkpt lat="49.28217292763293" lon="8.124172976240516">
<ele>181.20000000000005</ele>
<time>2023-05-18T09:31:38Z</time>
</trkpt>
<trkpt lat="49.28221793845296" lon="8.124154955148697">
<ele>181.39999999999998</ele>
<time>2023-05-18T09:31:39Z</time>
</trkpt>
<trkpt lat="49.28226294927299" lon="8.124136934056878">
<ele>181.60000000000002</ele>
<time>2023-05-18T09:31:40Z</time>
</trkpt>
<trkpt lat="49.28230695426464" lon="8.124112961813807">
<ele>182</ele>
<time>2023-05-18T09:31:41Z</time>
</trkpt>
<trkpt lat="49.28234995342791" lon="8.124086977913976">
<ele>182.39999999999998</ele>
<time>2023-05-18T09:31:42Z</time>
</trkpt>
<trkpt lat="49.28239295259118" lon="8.124062921851873">
<ele>182.79999999999995</ele>
<time>2023-05-18T09:31:43Z</time>
</trkpt>
<trkpt lat="49.28243997506797" lon="8.124041967093945">
<ele>183</ele>
<time>2023-05-18T09:31:44Z</time>
</trkpt>
<trkpt lat="49.282486997544765" lon="8.124019922688603">
<ele>183.39999999999998</ele>
<time>2023-05-18T09:31:45Z</time>
</trkpt>
<trkpt lat="49.282531924545765" lon="8.123997962102294">
<ele>183.60000000000002</ele>
<time>2023-05-18T09:31:46Z</time>
</trkpt>
<trkpt lat="49.28257794119418" lon="8.123977929353714">
<ele>183.79999999999995</ele>
<time>2023-05-18T09:31:47Z</time>
</trkpt>
<trkpt lat="49.28262496367097" lon="8.123961919918656">
<ele>184</ele>
<time>2023-05-18T09:31:48Z</time>
</trkpt>
<trkpt lat="49.28267299197614" lon="8.12394792214036">
<ele>184.20000000000005</ele>
<time>2023-05-18T09:31:49Z</time>
</trkpt>
<trkpt lat="49.282721942290664" lon="8.123941970989108">
<ele>184.20000000000005</ele>
<time>2023-05-18T09:31:50Z</time>
</trkpt>
<trkpt lat="49.282767958939075" lon="8.123934930190444">
<ele>184.39999999999998</ele>
<time>2023-05-18T09:31:51Z</time>
</trkpt>
<trkpt lat="49.28281498141587" lon="8.123927973210812">
<ele>184.39999999999998</ele>
<time>2023-05-18T09:31:52Z</time>
</trkpt>
<trkpt lat="49.28286292590201" lon="8.123926967382431">
<ele>184.60000000000002</ele>
<time>2023-05-18T09:31:53Z</time>
</trkpt>
<trkpt lat="49.2829049192369" lon="8.123922944068909">
<ele>184.60000000000002</ele>
<time>2023-05-18T09:31:54Z</time>
</trkpt>
<trkpt lat="49.28294196724892" lon="8.123921938240528">
<ele>184.60000000000002</ele>
<time>2023-05-18T09:31:55Z</time>
</trkpt>
<trkpt lat="49.28297197446227" lon="8.123919926583767">
<ele>184.60000000000002</ele>
<time>2023-05-18T09:31:56Z</time>
</trkpt>
<trkpt lat="49.283001981675625" lon="8.123917998746037">
<ele>184.60000000000002</ele>
<time>2023-05-18T09:31:57Z</time>
</trkpt>
<trkpt lat="49.28303198888898" lon="8.123914981260896">
<ele>184.60000000000002</ele>
<time>2023-05-18T09:31:58Z</time>
</trkpt>
<trkpt lat="49.283067947253585" lon="8.123911963775754">
<ele>184.60000000000002</ele>
<time>2023-05-18T09:31:59Z</time>
</trkpt>
<trkpt lat="49.28310692310333" lon="8.12390492297709">
<ele>184.60000000000002</ele>
<time>2023-05-18T09:32:00Z</time>
</trkpt>
<trkpt lat="49.28314799442887" lon="8.123899977654219">
<ele>184.60000000000002</ele>
<time>2023-05-18T09:32:01Z</time>
</trkpt>
<trkpt lat="49.283191999420524" lon="8.123896960169077">
<ele>184.60000000000002</ele>
<time>2023-05-18T09:32:02Z</time>
</trkpt>
<trkpt lat="49.283234998583794" lon="8.123891931027174">
<ele>184.60000000000002</ele>
<time>2023-05-18T09:32:03Z</time>
</trkpt>
<trkpt lat="49.28327992558479" lon="8.123894948512316">
<ele>184.60000000000002</ele>
<time>2023-05-18T09:32:04Z</time>
</trkpt>
<trkpt lat="49.28332191891968" lon="8.123892936855555">
<ele>184.60000000000002</ele>
<time>2023-05-18T09:32:05Z</time>
</trkpt>
<trkpt lat="49.283366929739714" lon="8.123896960169077">
<ele>184.60000000000002</ele>
<time>2023-05-18T09:32:06Z</time>
</trkpt>
<trkpt lat="49.283411940559745" lon="8.12390492297709">
<ele>184.60000000000002</ele>
<time>2023-05-18T09:32:07Z</time>
</trkpt>
<trkpt lat="49.283456951379776" lon="8.123916992917657">
<ele>184.79999999999995</ele>
<time>2023-05-18T09:32:08Z</time>
</trkpt>
<trkpt lat="49.28350296802819" lon="8.12392495572567">
<ele>184.79999999999995</ele>
<time>2023-05-18T09:32:09Z</time>
</trkpt>
<trkpt lat="49.28354999050498" lon="8.123927973210812">
<ele>184.79999999999995</ele>
<time>2023-05-18T09:32:10Z</time>
</trkpt>
<trkpt lat="49.28359793499112" lon="8.123929984867573">
<ele>185</ele>
<time>2023-05-18T09:32:11Z</time>
</trkpt>
<trkpt lat="49.283644957467914" lon="8.123932918533683">
<ele>185</ele>
<time>2023-05-18T09:32:12Z</time>
</trkpt>
<trkpt lat="49.28369298577309" lon="8.123934930190444">
<ele>185</ele>
<time>2023-05-18T09:32:13Z</time>
</trkpt>
<trkpt lat="49.28373992443085" lon="8.123942976817489">
<ele>185</ele>
<time>2023-05-18T09:32:14Z</time>
</trkpt>
<trkpt lat="49.28378493525088" lon="8.123954962939024">
<ele>185</ele>
<time>2023-05-18T09:32:15Z</time>
</trkpt>
<trkpt lat="49.28383497521281" lon="8.123964937403798">
<ele>185</ele>
<time>2023-05-18T09:32:16Z</time>
</trkpt>
<trkpt lat="49.28388794884086" lon="8.123972984030843">
<ele>185</ele>
<time>2023-05-18T09:32:17Z</time>
</trkpt>
<trkpt lat="49.28393991664052" lon="8.123981952667236">
<ele>185</ele>
<time>2023-05-18T09:32:18Z</time>
</trkpt>
<trkpt lat="49.28399791941047" lon="8.123989999294281">
<ele>185</ele>
<time>2023-05-18T09:32:19Z</time>
</trkpt>
<trkpt lat="49.284056928008795" lon="8.123994944617152">
<ele>185</ele>
<time>2023-05-18T09:32:20Z</time>
</trkpt>
<trkpt lat="49.28411291912198" lon="8.124002991244197">
<ele>185</ele>
<time>2023-05-18T09:32:21Z</time>
</trkpt>
<trkpt lat="49.28417293354869" lon="8.124014977365732">
<ele>184.79999999999995</ele>
<time>2023-05-18T09:32:22Z</time>
</trkpt>
<trkpt lat="49.284229930490255" lon="8.124022940173745">
<ele>184.60000000000002</ele>
<time>2023-05-18T09:32:23Z</time>
</trkpt>
<trkpt lat="49.28428692743182" lon="8.124027969315648">
<ele>184.39999999999998</ele>
<time>2023-05-18T09:32:24Z</time>
</trkpt>
<trkpt lat="49.28434199653566" lon="8.124032998457551">
<ele>184.20000000000005</ele>
<time>2023-05-18T09:32:25Z</time>
</trkpt>
<trkpt lat="49.28439295850694" lon="8.124041967093945">
<ele>183.79999999999995</ele>
<time>2023-05-18T09:32:26Z</time>
</trkpt>
<trkpt lat="49.284441992640495" lon="8.124049929901958">
<ele>183.60000000000002</ele>
<time>2023-05-18T09:32:27Z</time>
</trkpt>
<trkpt lat="49.2844779510051" lon="8.124059988185763">
<ele>183.20000000000005</ele>
<time>2023-05-18T09:32:28Z</time>
</trkpt>
<trkpt lat="49.28450292907655" lon="8.124079937115312">
<ele>182.79999999999995</ele>
<time>2023-05-18T09:32:29Z</time>
</trkpt>
<trkpt lat="49.28451994433999" lon="8.12411991879344">
<ele>182.60000000000002</ele>
<time>2023-05-18T09:32:30Z</time>
</trkpt>
<trkpt lat="49.28452296182513" lon="8.124174987897277">
<ele>182.39999999999998</ele>
<time>2023-05-18T09:32:31Z</time>
</trkpt>
<trkpt lat="49.28452296182513" lon="8.12424497678876">
<ele>182.20000000000005</ele>
<time>2023-05-18T09:32:32Z</time>
</trkpt>
<trkpt lat="49.28451994433999" lon="8.124317983165383">
<ele>182</ele>
<time>2023-05-18T09:32:33Z</time>
</trkpt>
<trkpt lat="49.28451793268323" lon="8.12439694069326">
<ele>181.79999999999995</ele>
<time>2023-05-18T09:32:34Z</time>
</trkpt>
<trkpt lat="49.28451793268323" lon="8.124476987868547">
<ele>181.60000000000002</ele>
<time>2023-05-18T09:32:35Z</time>
</trkpt>
<trkpt lat="49.28451793268323" lon="8.124554939568043">
<ele>181.39999999999998</ele>
<time>2023-05-18T09:32:36Z</time>
</trkpt>
<trkpt lat="49.28451793268323" lon="8.124637920409441">
<ele>181.39999999999998</ele>
<time>2023-05-18T09:32:37Z</time>
</trkpt>
<trkpt lat="49.28451692685485" lon="8.124721990898252">
<ele>181.20000000000005</ele>
<time>2023-05-18T09:32:38Z</time>
</trkpt>
<trkpt lat="49.28451298736036" lon="8.124809917062521">
<ele>181</ele>
<time>2023-05-18T09:32:39Z</time>
</trkpt>
<trkpt lat="49.28451499901712" lon="8.124899938702583">
<ele>181</ele>
<time>2023-05-18T09:32:40Z</time>
</trkpt>
<trkpt lat="49.28451499901712" lon="8.124989960342646">
<ele>180.79999999999995</ele>
<time>2023-05-18T09:32:41Z</time>
</trkpt>
<trkpt lat="49.28451499901712" lon="8.125079981982708">
<ele>180.60000000000002</ele>
<time>2023-05-18T09:32:42Z</time>
</trkpt>
<trkpt lat="49.28451499901712" lon="8.125169919803739">
<ele>180.60000000000002</ele>
<time>2023-05-18T09:32:43Z</time>
</trkpt>
<trkpt lat="49.28451198153198" lon="8.125259941443801">
<ele>180.60000000000002</ele>
<time>2023-05-18T09:32:44Z</time>
</trkpt>
<trkpt lat="49.284506952390075" lon="8.125352980569005">
<ele>180.39999999999998</ele>
<time>2023-05-18T09:32:45Z</time>
</trkpt>
<trkpt lat="49.284506952390075" lon="8.125446941703558">
<ele>180.39999999999998</ele>
<time>2023-05-18T09:32:46Z</time>
</trkpt>
<trkpt lat="49.284507958218455" lon="8.125541992485523">
<ele>180.20000000000005</ele>
<time>2023-05-18T09:32:47Z</time>
</trkpt>
<trkpt lat="49.284507958218455" lon="8.125634947791696">
<ele>180</ele>
<time>2023-05-18T09:32:48Z</time>
</trkpt>
<trkpt lat="49.28450996987522" lon="8.1257279869169">
<ele>179.79999999999995</ele>
<time>2023-05-18T09:32:49Z</time>
</trkpt>
<trkpt lat="49.28451198153198" lon="8.125819936394691">
<ele>179.79999999999995</ele>
<time>2023-05-18T09:32:50Z</time>
</trkpt>
<trkpt lat="49.28450996987522" lon="8.125909958034754">
<ele>179.60000000000002</ele>
<time>2023-05-18T09:32:51Z</time>
</trkpt>
<trkpt lat="49.284507958218455" lon="8.125999979674816">
<ele>179.60000000000002</ele>
<time>2023-05-18T09:32:52Z</time>
</trkpt>
<trkpt lat="49.284507958218455" lon="8.126086983829737">
<ele>179.39999999999998</ele>
<time>2023-05-18T09:32:53Z</time>
</trkpt>
<trkpt lat="49.284507958218455" lon="8.126169964671135">
<ele>179.39999999999998</ele>
<time>2023-05-18T09:32:54Z</time>
</trkpt>
<trkpt lat="49.28450996987522" lon="8.126251939684153">
<ele>179.20000000000005</ele>
<time>2023-05-18T09:32:55Z</time>
</trkpt>
<trkpt lat="49.28450996987522" lon="8.12632997520268">
<ele>179</ele>
<time>2023-05-18T09:32:56Z</time>
</trkpt>
<trkpt lat="49.28451198153198" lon="8.126402981579304">
<ele>179</ele>
<time>2023-05-18T09:32:57Z</time>
</trkpt>
<trkpt lat="49.28451298736036" lon="8.126479927450418">
<ele>178.79999999999995</ele>
<time>2023-05-18T09:32:58Z</time>
</trkpt>
<trkpt lat="49.28451499901712" lon="8.126552933827043">
<ele>178.79999999999995</ele>
<time>2023-05-18T09:32:59Z</time>
</trkpt>
<trkpt lat="49.28451692685485" lon="8.126622922718525">
<ele>178.60000000000002</ele>
<time>2023-05-18T09:33:00Z</time>
</trkpt>
<trkpt lat="49.28451692685485" lon="8.126687966287136">
<ele>178.39999999999998</ele>
<time>2023-05-18T09:33:01Z</time>
</trkpt>
<trkpt lat="49.28451692685485" lon="8.126746974885464">
<ele>178.39999999999998</ele>
<time>2023-05-18T09:33:02Z</time>
</trkpt>
<trkpt lat="49.28451793268323" lon="8.126796931028366">
<ele>178.20000000000005</ele>
<time>2023-05-18T09:33:03Z</time>
</trkpt>
<trkpt lat="49.28451994433999" lon="8.126841941848397">
<ele>178</ele>
<time>2023-05-18T09:33:04Z</time>
</trkpt>
<trkpt lat="49.28452195599675" lon="8.126876978203654">
<ele>178</ele>
<time>2023-05-18T09:33:05Z</time>
</trkpt>
<trkpt lat="49.28452296182513" lon="8.126906985417008">
<ele>177.79999999999995</ele>
<time>2023-05-18T09:33:06Z</time>
</trkpt>
<trkpt lat="49.28452497348189" lon="8.12693296931684">
<ele>177.79999999999995</ele>
<time>2023-05-18T09:33:07Z</time>
</trkpt>
<trkpt lat="49.28452497348189" lon="8.126962976530194">
<ele>177.60000000000002</ele>
<time>2023-05-18T09:33:08Z</time>
</trkpt>
<trkpt lat="49.284529918804765" lon="8.12699499540031">
<ele>177.60000000000002</ele>
<time>2023-05-18T09:33:09Z</time>
</trkpt>
<trkpt lat="49.28454492241144" lon="8.127031959593296">
<ele>177.60000000000002</ele>
<time>2023-05-18T09:33:10Z</time>
</trkpt>
<trkpt lat="49.28455296903849" lon="8.12706297263503">
<ele>177.60000000000002</ele>
<time>2023-05-18T09:33:11Z</time>
</trkpt>
<trkpt lat="49.28456797264516" lon="8.127097925171256">
<ele>177.39999999999998</ele>
<time>2023-05-18T09:33:12Z</time>
</trkpt>
<trkpt lat="49.284574929624796" lon="8.12712793238461">
<ele>177.39999999999998</ele>
<time>2023-05-18T09:33:13Z</time>
</trkpt>
<trkpt lat="49.28458197042346" lon="8.127157939597964">
<ele>177.39999999999998</ele>
<time>2023-05-18T09:33:14Z</time>
</trkpt>
<trkpt lat="49.28459797985852" lon="8.127184929326177">
<ele>177.39999999999998</ele>
<time>2023-05-18T09:33:15Z</time>
</trkpt>
<trkpt lat="49.284611977636814" lon="8.127201944589615">
<ele>177.39999999999998</ele>
<time>2023-05-18T09:33:16Z</time>
</trkpt>
<trkpt lat="49.28463293239474" lon="8.12721292488277">
<ele>177.60000000000002</ele>
<time>2023-05-18T09:33:17Z</time>
</trkpt>
<trkpt lat="49.284657994285226" lon="8.127216948196292">
<ele>177.60000000000002</ele>
<time>2023-05-18T09:33:18Z</time>
</trkpt>
<trkpt lat="49.28468297235668" lon="8.127211919054389">
<ele>177.60000000000002</ele>
<time>2023-05-18T09:33:19Z</time>
</trkpt>
<trkpt lat="49.28471297957003" lon="8.127196999266744">
<ele>177.60000000000002</ele>
<time>2023-05-18T09:33:20Z</time>
</trkpt>
<trkpt lat="49.28473996929824" lon="8.12716699205339">
<ele>177.60000000000002</ele>
<time>2023-05-18T09:33:21Z</time>
</trkpt>
<trkpt lat="49.2847699765116" lon="8.127154922112823">
<ele>177.60000000000002</ele>
<time>2023-05-18T09:33:22Z</time>
</trkpt>
<trkpt lat="49.28480291739106" lon="8.127151988446712">
<ele>177.60000000000002</ele>
<time>2023-05-18T09:33:23Z</time>
</trkpt>
<trkpt lat="49.28484499454498" lon="8.12714695930481">
<ele>177.60000000000002</ele>
<time>2023-05-18T09:33:24Z</time>
</trkpt>
<trkpt lat="49.28488992154598" lon="8.127139918506145">
<ele>177.60000000000002</ele>
<time>2023-05-18T09:33:25Z</time>
</trkpt>
<trkpt lat="49.28494197316468" lon="8.127132961526513">
<ele>177.60000000000002</ele>
<time>2023-05-18T09:33:26Z</time>
</trkpt>
<trkpt lat="49.28499192930758" lon="8.12712793238461">
<ele>177.79999999999995</ele>
<time>2023-05-18T09:33:27Z</time>
</trkpt>
<trkpt lat="49.285041969269514" lon="8.1271249987185">
<ele>177.79999999999995</ele>
<time>2023-05-18T09:33:28Z</time>
</trkpt>
<trkpt lat="49.28509192541242" lon="8.127129944041371">
<ele>177.60000000000002</ele>
<time>2023-05-18T09:33:29Z</time>
</trkpt>
<trkpt lat="49.28514196537435" lon="8.127131955698133">
<ele>177.60000000000002</ele>
<time>2023-05-18T09:33:30Z</time>
</trkpt>
<trkpt lat="49.28519192151725" lon="8.127131955698133">
<ele>177.60000000000002</ele>
<time>2023-05-18T09:33:31Z</time>
</trkpt>
<trkpt lat="49.285239949822426" lon="8.127134973183274">
<ele>177.60000000000002</ele>
<time>2023-05-18T09:33:32Z</time>
</trkpt>
<trkpt lat="49.285282948985696" lon="8.12714695930481">
<ele>177.60000000000002</ele>
<time>2023-05-18T09:33:33Z</time>
</trkpt>
<trkpt lat="49.28532997146249" lon="8.127161962911487">
<ele>177.60000000000002</ele>
<time>2023-05-18T09:33:34Z</time>
</trkpt>
<trkpt lat="49.28537799976766" lon="8.127179984003305">
<ele>177.60000000000002</ele>
<time>2023-05-18T09:33:35Z</time>
</trkpt>
<trkpt lat="49.28542292676866" lon="8.127204962074757">
<ele>177.60000000000002</ele>
<time>2023-05-18T09:33:36Z</time>
</trkpt>
<trkpt lat="49.28546793758869" lon="8.127226922661066">
<ele>177.60000000000002</ele>
<time>2023-05-18T09:33:37Z</time>
</trkpt>
<trkpt lat="49.28551294840872" lon="8.127244943752885">
<ele>177.60000000000002</ele>
<time>2023-05-18T09:33:38Z</time>
</trkpt>
<trkpt lat="49.28555192425847" lon="8.12725692987442">
<ele>177.60000000000002</ele>
<time>2023-05-18T09:33:39Z</time>
</trkpt>
<trkpt lat="49.28558696061373" lon="8.12725692987442">
<ele>177.79999999999995</ele>
<time>2023-05-18T09:33:40Z</time>
</trkpt>
<trkpt lat="49.28561797365546" lon="8.127249972894788">
<ele>177.79999999999995</ele>
<time>2023-05-18T09:33:41Z</time>
</trkpt>
<trkpt lat="49.28565292619169" lon="8.127242932096124">
<ele>177.79999999999995</ele>
<time>2023-05-18T09:33:42Z</time>
</trkpt>
<trkpt lat="49.285689974203706" lon="8.127237986773252">
<ele>177.79999999999995</ele>
<time>2023-05-18T09:33:43Z</time>
</trkpt>
<trkpt lat="49.2857229989022" lon="8.127231951802969">
<ele>177.79999999999995</ele>
<time>2023-05-18T09:33:44Z</time>
</trkpt>
<trkpt lat="49.28575996309519" lon="8.127222983166575">
<ele>178</ele>
<time>2023-05-18T09:33:45Z</time>
</trkpt>
<trkpt lat="49.285792987793684" lon="8.12721493653953">
<ele>178.20000000000005</ele>
<time>2023-05-18T09:33:46Z</time>
</trkpt>
<trkpt lat="49.28582299500704" lon="8.12720999121666">
<ele>178.39999999999998</ele>
<time>2023-05-18T09:33:47Z</time>
</trkpt>
<trkpt lat="49.28585794754326" lon="8.127216948196292">
<ele>178.60000000000002</ele>
<time>2023-05-18T09:33:48Z</time>
</trkpt>
<trkpt lat="49.285901952534914" lon="8.127217954024673">
<ele>178.79999999999995</ele>
<time>2023-05-18T09:33:49Z</time>
</trkpt>
<trkpt lat="49.285944951698184" lon="8.127216948196292">
<ele>179</ele>
<time>2023-05-18T09:33:50Z</time>
</trkpt>
<trkpt lat="49.28598694503307" lon="8.12720999121666">
<ele>179.20000000000005</ele>
<time>2023-05-18T09:33:51Z</time>
</trkpt>
<trkpt lat="49.2860269267112" lon="8.127196999266744">
<ele>179.39999999999998</ele>
<time>2023-05-18T09:33:52Z</time>
</trkpt>
<trkpt lat="49.286076966673136" lon="8.127181995660067">
<ele>179.60000000000002</ele>
<time>2023-05-18T09:33:53Z</time>
</trkpt>
<trkpt lat="49.286116948351264" lon="8.12716799788177">
<ele>179.79999999999995</ele>
<time>2023-05-18T09:33:54Z</time>
</trkpt>
<trkpt lat="49.28614997304976" lon="8.127151988446712">
<ele>180</ele>
<time>2023-05-18T09:33:55Z</time>
</trkpt>
<trkpt lat="49.286179980263114" lon="8.1271249987185">
<ele>180.20000000000005</ele>
<time>2023-05-18T09:33:56Z</time>
</trkpt>
<trkpt lat="49.28621292114258" lon="8.127112928777933">
<ele>180.39999999999998</ele>
<time>2023-05-18T09:33:57Z</time>
</trkpt>
<trkpt lat="49.28624494001269" lon="8.127102954313159">
<ele>180.60000000000002</ele>
<time>2023-05-18T09:33:58Z</time>
</trkpt>
<trkpt lat="49.28627494722605" lon="8.127102954313159">
<ele>180.79999999999995</ele>
<time>2023-05-18T09:33:59Z</time>
</trkpt>
<trkpt lat="49.28630696609616" lon="8.127107983455062">
<ele>181</ele>
<time>2023-05-18T09:34:00Z</time>
</trkpt>
<trkpt lat="49.286334961652756" lon="8.127102954313159">
<ele>181.20000000000005</ele>
<time>2023-05-18T09:34:01Z</time>
</trkpt>
<trkpt lat="49.28636698052287" lon="8.127099936828017">
<ele>181.39999999999998</ele>
<time>2023-05-18T09:34:02Z</time>
</trkpt>
<trkpt lat="49.286397993564606" lon="8.127094991505146">
<ele>181.39999999999998</ele>
<time>2023-05-18T09:34:03Z</time>
</trkpt>
<trkpt lat="49.28643194027245" lon="8.127092979848385">
<ele>181.60000000000002</ele>
<time>2023-05-18T09:34:04Z</time>
</trkpt>
<trkpt lat="49.28646697662771" lon="8.127091974020004">
<ele>181.79999999999995</ele>
<time>2023-05-18T09:34:05Z</time>
</trkpt>
<trkpt lat="49.286507964134216" lon="8.127114940434694">
<ele>182</ele>
<time>2023-05-18T09:34:06Z</time>
</trkpt>
<trkpt lat="49.28654291667044" lon="8.127114940434694">
<ele>182.20000000000005</ele>
<time>2023-05-18T09:34:07Z</time>
</trkpt>
<trkpt lat="49.2865779530257" lon="8.127117957919836">
<ele>182.39999999999998</ele>
<time>2023-05-18T09:34:08Z</time>
</trkpt>
<trkpt lat="49.286612989380956" lon="8.127122987061739">
<ele>182.60000000000002</ele>
<time>2023-05-18T09:34:09Z</time>
</trkpt>
<trkpt lat="49.28664995357394" lon="8.12712793238461">
<ele>182.79999999999995</ele>
<time>2023-05-18T09:34:10Z</time>
</trkpt>
<trkpt lat="49.28668691776693" lon="8.127139918506145">
<ele>183</ele>
<time>2023-05-18T09:34:11Z</time>
</trkpt>
<trkpt lat="49.286721954122186" lon="8.127152994275093">
<ele>183.20000000000005</ele>
<time>2023-05-18T09:34:12Z</time>
</trkpt>
<trkpt lat="49.28675196133554" lon="8.127159951254725">
<ele>183.39999999999998</ele>
<time>2023-05-18T09:34:13Z</time>
</trkpt>
<trkpt lat="49.286784986034036" lon="8.1271699257195">
<ele>183.60000000000002</ele>
<time>2023-05-18T09:34:14Z</time>
</trkpt>
<trkpt lat="49.28681298159063" lon="8.127177972346544">
<ele>183.79999999999995</ele>
<time>2023-05-18T09:34:15Z</time>
</trkpt>
<trkpt lat="49.2868369538337" lon="8.12718995846808">
<ele>184</ele>
<time>2023-05-18T09:34:16Z</time>
</trkpt>
<trkpt lat="49.28686193190515" lon="8.127196999266744">
<ele>184</ele>
<time>2023-05-18T09:34:17Z</time>
</trkpt>
<trkpt lat="49.286887999624014" lon="8.127204962074757">
<ele>184.20000000000005</ele>
<time>2023-05-18T09:34:18Z</time>
</trkpt>
<trkpt lat="49.286916917189956" lon="8.127211919054389">
<ele>184.39999999999998</ele>
<time>2023-05-18T09:34:19Z</time>
</trkpt>
<trkpt lat="49.28694298490882" lon="8.127219965681434">
<ele>184.60000000000002</ele>
<time>2023-05-18T09:34:20Z</time>
</trkpt>
<trkpt lat="49.2869749199599" lon="8.12723496928811">
<ele>184.79999999999995</ele>
<time>2023-05-18T09:34:21Z</time>
</trkpt>
<trkpt lat="49.28700199350715" lon="8.127242932096124">
<ele>184.79999999999995</ele>
<time>2023-05-18T09:34:22Z</time>
</trkpt>
<trkpt lat="49.2870269715786" lon="8.127249972894788">
<ele>185</ele>
<time>2023-05-18T09:34:23Z</time>
</trkpt>
<trkpt lat="49.28705496713519" lon="8.1272579357028">
<ele>185.20000000000005</ele>
<time>2023-05-18T09:34:24Z</time>
</trkpt>
<trkpt lat="49.2870819568634" lon="8.127267993986607">
<ele>185.39999999999998</ele>
<time>2023-05-18T09:34:25Z</time>
</trkpt>
<trkpt lat="49.287109952419996" lon="8.127276962623">
<ele>185.60000000000002</ele>
<time>2023-05-18T09:34:26Z</time>
</trkpt>
<trkpt lat="49.28713794797659" lon="8.127284925431013">
<ele>185.60000000000002</ele>
<time>2023-05-18T09:34:27Z</time>
</trkpt>
<trkpt lat="49.2871649377048" lon="8.127291966229677">
<ele>185.79999999999995</ele>
<time>2023-05-18T09:34:28Z</time>
</trkpt>
<trkpt lat="49.287192933261395" lon="8.12729992903769">
<ele>186</ele>
<time>2023-05-18T09:34:29Z</time>
</trkpt>
<trkpt lat="49.28721992298961" lon="8.127316944301128">
<ele>186</ele>
<time>2023-05-18T09:34:30Z</time>
</trkpt>
<trkpt lat="49.2872479185462" lon="8.127329936251044">
<ele>186.20000000000005</ele>
<time>2023-05-18T09:34:31Z</time>
</trkpt>
<trkpt lat="49.287279937416315" lon="8.127337982878089">
<ele>186.39999999999998</ele>
<time>2023-05-18T09:34:32Z</time>
</trkpt>
<trkpt lat="49.28731195628643" lon="8.127349968999624">
<ele>186.60000000000002</ele>
<time>2023-05-18T09:34:33Z</time>
</trkpt>
<trkpt lat="49.287344980984926" lon="8.127364972606301">
<ele>186.79999999999995</ele>
<time>2023-05-18T09:34:34Z</time>
</trkpt>
<trkpt lat="49.28737297654152" lon="8.12738198786974">
<ele>187</ele>
<time>2023-05-18T09:34:35Z</time>
</trkpt>
<trkpt lat="49.28740197792649" lon="8.127397997304797">
<ele>187.20000000000005</ele>
<time>2023-05-18T09:34:36Z</time>
</trkpt>
<trkpt lat="49.287427961826324" lon="8.127414928749204">
<ele>187.39999999999998</ele>
<time>2023-05-18T09:34:37Z</time>
</trkpt>
<trkpt lat="49.28745796903968" lon="8.127434961497784">
<ele>187.39999999999998</ele>
<time>2023-05-18T09:34:38Z</time>
</trkpt>
<trkpt lat="49.28748797625303" lon="8.127451976761222">
<ele>187.60000000000002</ele>
<time>2023-05-18T09:34:39Z</time>
</trkpt>
<trkpt lat="49.28751798346639" lon="8.127466980367899">
<ele>187.79999999999995</ele>
<time>2023-05-18T09:34:40Z</time>
</trkpt>
<trkpt lat="49.28754991851747" lon="8.127482989802957">
<ele>187.79999999999995</ele>
<time>2023-05-18T09:34:41Z</time>
</trkpt>
<trkpt lat="49.287579925730824" lon="8.127502938732505">
<ele>188</ele>
<time>2023-05-18T09:34:42Z</time>
</trkpt>
<trkpt lat="49.28760792128742" lon="8.127522971481085">
<ele>188</ele>
<time>2023-05-18T09:34:43Z</time>
</trkpt>
<trkpt lat="49.28763499483466" lon="8.127539986744523">
<ele>188.20000000000005</ele>
<time>2023-05-18T09:34:44Z</time>
</trkpt>
<trkpt lat="49.287661984562874" lon="8.12755691818893">
<ele>188.39999999999998</ele>
<time>2023-05-18T09:34:45Z</time>
</trkpt>
<trkpt lat="49.287686962634325" lon="8.127574939280748">
<ele>188.39999999999998</ele>
<time>2023-05-18T09:34:46Z</time>
</trkpt>
<trkpt lat="49.287709929049015" lon="8.127592960372567">
<ele>188.60000000000002</ele>
<time>2023-05-18T09:34:47Z</time>
</trkpt>
<trkpt lat="49.2877349909395" lon="8.127609975636005">
<ele>188.79999999999995</ele>
<time>2023-05-18T09:34:48Z</time>
</trkpt>
<trkpt lat="49.28776298649609" lon="8.127627996727824">
<ele>189</ele>
<time>2023-05-18T09:34:49Z</time>
</trkpt>
<trkpt lat="49.2877899762243" lon="8.127646939828992">
<ele>189</ele>
<time>2023-05-18T09:34:50Z</time>
</trkpt>
<trkpt lat="49.287816965952516" lon="8.127667978405952">
<ele>189.20000000000005</ele>
<time>2023-05-18T09:34:51Z</time>
</trkpt>
<trkpt lat="49.28784294985235" lon="8.12768692150712">
<ele>189.20000000000005</ele>
<time>2023-05-18T09:34:52Z</time>
</trkpt>
<trkpt lat="49.2878679279238" lon="8.1277069542557">
<ele>189.39999999999998</ele>
<time>2023-05-18T09:34:53Z</time>
</trkpt>
<trkpt lat="49.28789298981428" lon="8.12772992067039">
<ele>189.39999999999998</ele>
<time>2023-05-18T09:34:54Z</time>
</trkpt>
<trkpt lat="49.28791696205735" lon="8.127754982560873">
<ele>189.60000000000002</ele>
<time>2023-05-18T09:34:55Z</time>
</trkpt>
<trkpt lat="49.287942945957184" lon="8.127774931490421">
<ele>189.79999999999995</ele>
<time>2023-05-18T09:34:56Z</time>
</trkpt>
<trkpt lat="49.2879749648273" lon="8.12779295258224">
<ele>189.79999999999995</ele>
<time>2023-05-18T09:34:57Z</time>
</trkpt>
<trkpt lat="49.288006983697414" lon="8.127814996987581">
<ele>190</ele>
<time>2023-05-18T09:34:58Z</time>
</trkpt>
<trkpt lat="49.28803799673915" lon="8.127837963402271">
<ele>190</ele>
<time>2023-05-18T09:34:59Z</time>
</trkpt>
<trkpt lat="49.28806792013347" lon="8.127857996150851">
<ele>190.20000000000005</ele>
<time>2023-05-18T09:35:00Z</time>
</trkpt>
<trkpt lat="49.28809993900359" lon="8.127881968393922">
<ele>190.20000000000005</ele>
<time>2023-05-18T09:35:01Z</time>
</trkpt>
<trkpt lat="49.28812793456018" lon="8.12790292315185">
<ele>190.39999999999998</ele>
<time>2023-05-18T09:35:02Z</time>
</trkpt>
<trkpt lat="49.28815693594515" lon="8.12792295590043">
<ele>190.39999999999998</ele>
<time>2023-05-18T09:35:03Z</time>
</trkpt>
<trkpt lat="49.28818794898689" lon="8.12794298864901">
<ele>190.60000000000002</ele>
<time>2023-05-18T09:35:04Z</time>
</trkpt>
<trkpt lat="49.288219967857" lon="8.127962937578559">
<ele>190.60000000000002</ele>
<time>2023-05-18T09:35:05Z</time>
</trkpt>
<trkpt lat="49.2882529925555" lon="8.127986993640661">
<ele>190.79999999999995</ele>
<time>2023-05-18T09:35:06Z</time>
</trkpt>
<trkpt lat="49.28828492760658" lon="8.128012977540493">
<ele>190.79999999999995</ele>
<time>2023-05-18T09:35:07Z</time>
</trkpt>
<trkpt lat="49.28831795230508" lon="8.128036949783564">
<ele>191</ele>
<time>2023-05-18T09:35:08Z</time>
</trkpt>
<trkpt lat="49.288351982831955" lon="8.128061927855015">
<ele>191</ele>
<time>2023-05-18T09:35:09Z</time>
</trkpt>
<trkpt lat="49.28838299587369" lon="8.128081960603595">
<ele>191.20000000000005</ele>
<time>2023-05-18T09:35:10Z</time>
</trkpt>
<trkpt lat="49.288417948409915" lon="8.128101993352175">
<ele>191.20000000000005</ele>
<time>2023-05-18T09:35:11Z</time>
</trkpt>
<trkpt lat="49.28845197893679" lon="8.128122948110104">
<ele>191.20000000000005</ele>
<time>2023-05-18T09:35:12Z</time>
</trkpt>
<trkpt lat="49.288484919816256" lon="8.128146920353174">
<ele>191.39999999999998</ele>
<time>2023-05-18T09:35:13Z</time>
</trkpt>
<trkpt lat="49.28851693868637" lon="8.128172988072038">
<ele>191.39999999999998</ele>
<time>2023-05-18T09:35:14Z</time>
</trkpt>
<trkpt lat="49.288547951728106" lon="8.12819997780025">
<ele>191.39999999999998</ele>
<time>2023-05-18T09:35:15Z</time>
</trkpt>
<trkpt lat="49.28857795894146" lon="8.12822294421494">
<ele>191.60000000000002</ele>
<time>2023-05-18T09:35:16Z</time>
</trkpt>
<trkpt lat="49.288607966154814" lon="8.12824197113514">
<ele>191.79999999999995</ele>
<time>2023-05-18T09:35:17Z</time>
</trkpt>
<trkpt lat="49.28863998502493" lon="8.128261920064688">
<ele>191.79999999999995</ele>
<time>2023-05-18T09:35:18Z</time>
</trkpt>
<trkpt lat="49.28866999223828" lon="8.128282958641648">
<ele>192</ele>
<time>2023-05-18T09:35:19Z</time>
</trkpt>
<trkpt lat="49.28870192728937" lon="8.128304919227958">
<ele>192</ele>
<time>2023-05-18T09:35:20Z</time>
</trkpt>
<trkpt lat="49.28873193450272" lon="8.128326963633299">
<ele>192.20000000000005</ele>
<time>2023-05-18T09:35:21Z</time>
</trkpt>
<trkpt lat="49.288762947544456" lon="8.128347918391228">
<ele>192.20000000000005</ele>
<time>2023-05-18T09:35:22Z</time>
</trkpt>
<trkpt lat="49.28879496641457" lon="8.128367951139808">
<ele>192.39999999999998</ele>
<time>2023-05-18T09:35:23Z</time>
</trkpt>
<trkpt lat="49.288824973627925" lon="8.128387983888388">
<ele>192.39999999999998</ele>
<time>2023-05-18T09:35:24Z</time>
</trkpt>
<trkpt lat="49.28885699249804" lon="8.128406926989555">
<ele>192.60000000000002</ele>
<time>2023-05-18T09:35:25Z</time>
</trkpt>
<trkpt lat="49.288889933377504" lon="8.128421930596232">
<ele>192.60000000000002</ele>
<time>2023-05-18T09:35:26Z</time>
</trkpt>
<trkpt lat="49.28892195224762" lon="8.12843794003129">
<ele>192.60000000000002</ele>
<time>2023-05-18T09:35:27Z</time>
</trkpt>
<trkpt lat="49.288952965289354" lon="8.128451937809587">
<ele>192.79999999999995</ele>
<time>2023-05-18T09:35:28Z</time>
</trkpt>
<trkpt lat="49.28898791782558" lon="8.128462918102741">
<ele>192.79999999999995</ele>
<time>2023-05-18T09:35:29Z</time>
</trkpt>
<trkpt lat="49.289019936695695" lon="8.12847699970007">
<ele>193</ele>
<time>2023-05-18T09:35:30Z</time>
</trkpt>
<trkpt lat="49.28904994390905" lon="8.128489991649985">
<ele>193.20000000000005</ele>
<time>2023-05-18T09:35:31Z</time>
</trkpt>
<trkpt lat="49.2890799511224" lon="8.12850197777152">
<ele>193.20000000000005</ele>
<time>2023-05-18T09:35:32Z</time>
</trkpt>
<trkpt lat="49.289104929193854" lon="8.128511952236295">
<ele>193.39999999999998</ele>
<time>2023-05-18T09:35:33Z</time>
</trkpt>
<trkpt lat="49.28913292475045" lon="8.128517987206578">
<ele>193.39999999999998</ele>
<time>2023-05-18T09:35:34Z</time>
</trkpt>
<trkpt lat="49.2891629319638" lon="8.12852494418621">
<ele>193.60000000000002</ele>
<time>2023-05-18T09:35:35Z</time>
</trkpt>
<trkpt lat="49.289192939177155" lon="8.128534918650985">
<ele>193.60000000000002</ele>
<time>2023-05-18T09:35:36Z</time>
</trkpt>
<trkpt lat="49.28922294639051" lon="8.128537936136127">
<ele>193.79999999999995</ele>
<time>2023-05-18T09:35:37Z</time>
</trkpt>
<trkpt lat="49.289254965260625" lon="8.128537936136127">
<ele>194</ele>
<time>2023-05-18T09:35:38Z</time>
</trkpt>
<trkpt lat="49.28928497247398" lon="8.128537936136127">
<ele>194</ele>
<time>2023-05-18T09:35:39Z</time>
</trkpt>
<trkpt lat="49.289317997172475" lon="8.128532990813255">
<ele>194.20000000000005</ele>
<time>2023-05-18T09:35:40Z</time>
</trkpt>
<trkpt lat="49.2893529497087" lon="8.12851999886334">
<ele>194.20000000000005</ele>
<time>2023-05-18T09:35:41Z</time>
</trkpt>
<trkpt lat="49.28938698023558" lon="8.128504995256662">
<ele>194.20000000000005</ele>
<time>2023-05-18T09:35:42Z</time>
</trkpt>
<trkpt lat="49.2894219327718" lon="8.128487979993224">
<ele>194.20000000000005</ele>
<time>2023-05-18T09:35:43Z</time>
</trkpt>
<trkpt lat="49.28945797495544" lon="8.128469958901405">
<ele>194.39999999999998</ele>
<time>2023-05-18T09:35:44Z</time>
</trkpt>
<trkpt lat="49.289492927491665" lon="8.128452943637967">
<ele>194.39999999999998</ele>
<time>2023-05-18T09:35:45Z</time>
</trkpt>
<trkpt lat="49.28952796384692" lon="8.12843693420291">
<ele>194.39999999999998</ele>
<time>2023-05-18T09:35:46Z</time>
</trkpt>
<trkpt lat="49.289557971060276" lon="8.128417991101742">
<ele>194.60000000000002</ele>
<time>2023-05-18T09:35:47Z</time>
</trkpt>
<trkpt lat="49.28958797827363" lon="8.128399970009923">
<ele>194.60000000000002</ele>
<time>2023-05-18T09:35:48Z</time>
</trkpt>
<trkpt lat="49.289617985486984" lon="8.128384966403246">
<ele>194.79999999999995</ele>
<time>2023-05-18T09:35:49Z</time>
</trkpt>
<trkpt lat="49.28964698687196" lon="8.128369962796569">
<ele>194.79999999999995</ele>
<time>2023-05-18T09:35:50Z</time>
</trkpt>
<trkpt lat="49.28967699408531" lon="8.128356970846653">
<ele>195</ele>
<time>2023-05-18T09:35:51Z</time>
</trkpt>
<trkpt lat="49.289709934964776" lon="8.128341967239976">
<ele>195</ele>
<time>2023-05-18T09:35:52Z</time>
</trkpt>
<trkpt lat="49.28974295966327" lon="8.128324951976538">
<ele>195.20000000000005</ele>
<time>2023-05-18T09:35:53Z</time>
</trkpt>
<trkpt lat="49.28977699019015" lon="8.128306930884719">
<ele>195.39999999999998</ele>
<time>2023-05-18T09:35:54Z</time>
</trkpt>
<trkpt lat="49.289811942726374" lon="8.128289999440312">
<ele>195.39999999999998</ele>
<time>2023-05-18T09:35:55Z</time>
</trkpt>
<trkpt lat="49.28984697908163" lon="8.128276923671365">
<ele>195.60000000000002</ele>
<time>2023-05-18T09:35:56Z</time>
</trkpt>
<trkpt lat="49.289881931617856" lon="8.12826493754983">
<ele>195.60000000000002</ele>
<time>2023-05-18T09:35:57Z</time>
</trkpt>
<trkpt lat="49.28991696797311" lon="8.128252951428294">
<ele>195.79999999999995</ele>
<time>2023-05-18T09:35:58Z</time>
</trkpt>
<trkpt lat="49.28995292633772" lon="8.12824197113514">
<ele>196</ele>
<time>2023-05-18T09:35:59Z</time>
</trkpt>
<trkpt lat="49.28998997434974" lon="8.128229985013604">
<ele>196</ele>
<time>2023-05-18T09:36:00Z</time>
</trkpt>
<trkpt lat="49.290026938542724" lon="8.12822294421494">
<ele>196.20000000000005</ele>
<time>2023-05-18T09:36:01Z</time>
</trkpt>
<trkpt lat="49.29006499238312" lon="8.128216993063688">
<ele>196.20000000000005</ele>
<time>2023-05-18T09:36:02Z</time>
</trkpt>
<trkpt lat="49.29010195657611" lon="8.128209952265024">
<ele>196.39999999999998</ele>
<time>2023-05-18T09:36:03Z</time>
</trkpt>
<trkpt lat="49.29013799875975" lon="8.128207940608263">
<ele>196.39999999999998</ele>
<time>2023-05-18T09:36:04Z</time>
</trkpt>
<trkpt lat="49.29017295129597" lon="8.128206934779882">
<ele>196.39999999999998</ele>
<time>2023-05-18T09:36:05Z</time>
</trkpt>
<trkpt lat="49.29021192714572" lon="8.128207940608263">
<ele>196.60000000000002</ele>
<time>2023-05-18T09:36:06Z</time>
</trkpt>
<trkpt lat="49.29024998098612" lon="8.128212969750166">
<ele>196.60000000000002</ele>
<time>2023-05-18T09:36:07Z</time>
</trkpt>
<trkpt lat="49.29028996266425" lon="8.12822193838656">
<ele>196.60000000000002</ele>
<time>2023-05-18T09:36:08Z</time>
</trkpt>
<trkpt lat="49.290329944342375" lon="8.128227973356843">
<ele>196.79999999999995</ele>
<time>2023-05-18T09:36:09Z</time>
</trkpt>
<trkpt lat="49.290367998182774" lon="8.128234930336475">
<ele>196.79999999999995</ele>
<time>2023-05-18T09:36:10Z</time>
</trkpt>
<trkpt lat="49.29040697403252" lon="8.12824197113514">
<ele>197</ele>
<time>2023-05-18T09:36:11Z</time>
</trkpt>
<trkpt lat="49.29044695571065" lon="8.128252951428294">
<ele>197</ele>
<time>2023-05-18T09:36:12Z</time>
</trkpt>
<trkpt lat="49.29048299789429" lon="8.128262925893068">
<ele>197</ele>
<time>2023-05-18T09:36:13Z</time>
</trkpt>
<trkpt lat="49.29051795043051" lon="8.128274995833635">
<ele>197</ele>
<time>2023-05-18T09:36:14Z</time>
</trkpt>
<trkpt lat="49.29055298678577" lon="8.12828497029841">
<ele>197</ele>
<time>2023-05-18T09:36:15Z</time>
</trkpt>
<trkpt lat="49.290587939321995" lon="8.128296956419945">
<ele>197</ele>
<time>2023-05-18T09:36:16Z</time>
</trkpt>
<trkpt lat="49.29062196984887" lon="8.128304919227958">
<ele>197.20000000000005</ele>
<time>2023-05-18T09:36:17Z</time>
</trkpt>
<trkpt lat="49.290652982890606" lon="8.128311960026622">
<ele>197.20000000000005</ele>
<time>2023-05-18T09:36:18Z</time>
</trkpt>
<trkpt lat="49.29068299010396" lon="8.128319922834635">
<ele>197.20000000000005</ele>
<time>2023-05-18T09:36:19Z</time>
</trkpt>
<trkpt lat="49.29070997983217" lon="8.12832796946168">
<ele>197.20000000000005</ele>
<time>2023-05-18T09:36:20Z</time>
</trkpt>
<trkpt lat="49.290734957903624" lon="8.128337943926454">
<ele>197.20000000000005</ele>
<time>2023-05-18T09:36:21Z</time>
</trkpt>
<trkpt lat="49.290759935975075" lon="8.128344984725118">
<ele>197.20000000000005</ele>
<time>2023-05-18T09:36:22Z</time>
</trkpt>
<trkpt lat="49.290781980380416" lon="8.128354959189892">
<ele>197.20000000000005</ele>
<time>2023-05-18T09:36:23Z</time>
</trkpt>
<trkpt lat="49.290802935138345" lon="8.128366945311427">
<ele>197.20000000000005</ele>
<time>2023-05-18T09:36:24Z</time>
</trkpt>
<trkpt lat="49.29082699120045" lon="8.128379937261343">
<ele>197.20000000000005</ele>
<time>2023-05-18T09:36:25Z</time>
</trkpt>
<trkpt lat="49.2908519692719" lon="8.128396952524781">
<ele>197.39999999999998</ele>
<time>2023-05-18T09:36:26Z</time>
</trkpt>
<trkpt lat="49.29087996482849" lon="8.128411956131458">
<ele>197.39999999999998</ele>
<time>2023-05-18T09:36:27Z</time>
</trkpt>
<trkpt lat="49.290909972041845" lon="8.128422936424613">
<ele>197.39999999999998</ele>
<time>2023-05-18T09:36:28Z</time>
</trkpt>
<trkpt lat="49.29093796759844" lon="8.128432994708419">
<ele>197.39999999999998</ele>
<time>2023-05-18T09:36:29Z</time>
</trkpt>
<trkpt lat="49.29096797481179" lon="8.128444980829954">
<ele>197.60000000000002</ele>
<time>2023-05-18T09:36:30Z</time>
</trkpt>
<trkpt lat="49.29100192151964" lon="8.128454955294728">
<ele>197.60000000000002</ele>
<time>2023-05-18T09:36:31Z</time>
</trkpt>
<trkpt lat="49.29103494621813" lon="8.128462918102741">
<ele>197.60000000000002</ele>
<time>2023-05-18T09:36:32Z</time>
</trkpt>
<trkpt lat="49.29106797091663" lon="8.128472976386547">
<ele>197.60000000000002</ele>
<time>2023-05-18T09:36:33Z</time>
</trkpt>
<trkpt lat="49.291101917624474" lon="8.12848194502294">
<ele>197.60000000000002</ele>
<time>2023-05-18T09:36:34Z</time>
</trkpt>
<trkpt lat="49.29113494232297" lon="8.128492925316095">
<ele>197.79999999999995</ele>
<time>2023-05-18T09:36:35Z</time>
</trkpt>
<trkpt lat="49.29116997867823" lon="8.128506923094392">
<ele>197.79999999999995</ele>
<time>2023-05-18T09:36:36Z</time>
</trkpt>
<trkpt lat="49.29120291955769" lon="8.12852293252945">
<ele>197.79999999999995</ele>
<time>2023-05-18T09:36:37Z</time>
</trkpt>
<trkpt lat="49.29123795591295" lon="8.128541959449649">
<ele>197.79999999999995</ele>
<time>2023-05-18T09:36:38Z</time>
</trkpt>
<trkpt lat="49.291272992268205" lon="8.128552939742804">
<ele>197.79999999999995</ele>
<time>2023-05-18T09:36:39Z</time>
</trkpt>
<trkpt lat="49.29130794480443" lon="8.128557968884706">
<ele>198</ele>
<time>2023-05-18T09:36:40Z</time>
</trkpt>
<trkpt lat="49.29134298115969" lon="8.128564925864339">
<ele>198</ele>
<time>2023-05-18T09:36:41Z</time>
</trkpt>
<trkpt lat="49.29137692786753" lon="8.128574984148145">
<ele>198</ele>
<time>2023-05-18T09:36:42Z</time>
</trkpt>
<trkpt lat="49.29141196422279" lon="8.12858797609806">
<ele>198.20000000000005</ele>
<time>2023-05-18T09:36:43Z</time>
</trkpt>
<trkpt lat="49.291444988921285" lon="8.128601973876357">
<ele>198.20000000000005</ele>
<time>2023-05-18T09:36:44Z</time>
</trkpt>
<trkpt lat="49.29147994145751" lon="8.128612954169512">
<ele>198.20000000000005</ele>
<time>2023-05-18T09:36:45Z</time>
</trkpt>
<trkpt lat="49.29151497781277" lon="8.128621922805905">
<ele>198.20000000000005</ele>
<time>2023-05-18T09:36:46Z</time>
</trkpt>
<trkpt lat="49.29154993034899" lon="8.128631981089711">
<ele>198.39999999999998</ele>
<time>2023-05-18T09:36:47Z</time>
</trkpt>
<trkpt lat="49.29158496670425" lon="8.128641955554485">
<ele>198.39999999999998</ele>
<time>2023-05-18T09:36:48Z</time>
</trkpt>
<trkpt lat="49.291621930897236" lon="8.12865193001926">
<ele>198.39999999999998</ele>
<time>2023-05-18T09:36:49Z</time>
</trkpt>
<trkpt lat="49.29165797308087" lon="8.128662994131446">
<ele>198.39999999999998</ele>
<time>2023-05-18T09:36:50Z</time>
</trkpt>
<trkpt lat="49.29169493727386" lon="8.12867296859622">
<ele>198.39999999999998</ele>
<time>2023-05-18T09:36:51Z</time>
</trkpt>
<trkpt lat="49.29172997362912" lon="8.128686966374516">
<ele>198.60000000000002</ele>
<time>2023-05-18T09:36:52Z</time>
</trkpt>
<trkpt lat="49.29176492616534" lon="8.128697946667671">
<ele>198.60000000000002</ele>
<time>2023-05-18T09:36:53Z</time>
</trkpt>
<trkpt lat="49.2917999625206" lon="8.128704987466335">
<ele>198.60000000000002</ele>
<time>2023-05-18T09:36:54Z</time>
</trkpt>
<trkpt lat="49.291836926713586" lon="8.128711944445968">
<ele>198.79999999999995</ele>
<time>2023-05-18T09:36:55Z</time>
</trkpt>
<trkpt lat="49.29187296889722" lon="8.128717979416251">
<ele>198.79999999999995</ele>
<time>2023-05-18T09:36:56Z</time>
</trkpt>
<trkpt lat="49.29190993309021" lon="8.128727953881025">
<ele>198.79999999999995</ele>
<time>2023-05-18T09:36:57Z</time>
</trkpt>
<trkpt lat="49.29194698110223" lon="8.12873994000256">
<ele>198.79999999999995</ele>
<time>2023-05-18T09:36:58Z</time>
</trkpt>
<trkpt lat="49.291984951123595" lon="8.128747986629605">
<ele>198.79999999999995</ele>
<time>2023-05-18T09:36:59Z</time>
</trkpt>
<trkpt lat="49.29202199913561" lon="8.128752931952477">
<ele>198.79999999999995</ele>
<time>2023-05-18T09:37:00Z</time>
</trkpt>
<trkpt lat="49.29205795750022" lon="8.12875997275114">
<ele>198.79999999999995</ele>
<time>2023-05-18T09:37:01Z</time>
</trkpt>
<trkpt lat="49.292094921693206" lon="8.128767935559154">
<ele>198.79999999999995</ele>
<time>2023-05-18T09:37:02Z</time>
</trkpt>
<trkpt lat="49.29212995804846" lon="8.128779921680689">
<ele>199</ele>
<time>2023-05-18T09:37:03Z</time>
</trkpt>
<trkpt lat="49.29216499440372" lon="8.128791991621256">
<ele>199</ele>
<time>2023-05-18T09:37:04Z</time>
</trkpt>
<trkpt lat="49.292199946939945" lon="8.12880196608603">
<ele>199</ele>
<time>2023-05-18T09:37:05Z</time>
</trkpt>
<trkpt lat="49.29223699495196" lon="8.128809928894043">
<ele>199.20000000000005</ele>
<time>2023-05-18T09:37:06Z</time>
</trkpt>
<trkpt lat="49.29227295331657" lon="8.128817975521088">
<ele>199.20000000000005</ele>
<time>2023-05-18T09:37:07Z</time>
</trkpt>
<trkpt lat="49.292309917509556" lon="8.12882493250072">
<ele>199.20000000000005</ele>
<time>2023-05-18T09:37:08Z</time>
</trkpt>
<trkpt lat="49.292346965521574" lon="8.128832979127765">
<ele>199.20000000000005</ele>
<time>2023-05-18T09:37:09Z</time>
</trkpt>
<trkpt lat="49.29238493554294" lon="8.128839936107397">
<ele>199.20000000000005</ele>
<time>2023-05-18T09:37:10Z</time>
</trkpt>
<trkpt lat="49.29242198355496" lon="8.128846976906061">
<ele>199.20000000000005</ele>
<time>2023-05-18T09:37:11Z</time>
</trkpt>
<trkpt lat="49.292457941919565" lon="8.128851922228932">
<ele>199.20000000000005</ele>
<time>2023-05-18T09:37:12Z</time>
</trkpt>
<trkpt lat="49.29249498993158" lon="8.128856951370835">
<ele>199.39999999999998</ele>
<time>2023-05-18T09:37:13Z</time>
</trkpt>
<trkpt lat="49.29253195412457" lon="8.128862986341119">
<ele>199.39999999999998</ele>
<time>2023-05-18T09:37:14Z</time>
</trkpt>
<trkpt lat="49.29256799630821" lon="8.128871954977512">
<ele>199.39999999999998</ele>
<time>2023-05-18T09:37:15Z</time>
</trkpt>
<trkpt lat="49.292604960501194" lon="8.128877989947796">
<ele>199.60000000000002</ele>
<time>2023-05-18T09:37:16Z</time>
</trkpt>
<trkpt lat="49.29264192469418" lon="8.128881929442286">
<ele>199.60000000000002</ele>
<time>2023-05-18T09:37:17Z</time>
</trkpt>
<trkpt lat="49.29267796687782" lon="8.128874972462654">
<ele>199.60000000000002</ele>
<time>2023-05-18T09:37:18Z</time>
</trkpt>
<trkpt lat="49.292714931070805" lon="8.12886793166399">
<ele>199.60000000000002</ele>
<time>2023-05-18T09:37:19Z</time>
</trkpt>
<trkpt lat="49.29275197908282" lon="8.12886692583561">
<ele>199.79999999999995</ele>
<time>2023-05-18T09:37:20Z</time>
</trkpt>
<trkpt lat="49.29278793744743" lon="8.12886692583561">
<ele>199.79999999999995</ele>
<time>2023-05-18T09:37:21Z</time>
</trkpt>
<trkpt lat="49.29282498545945" lon="8.12886499799788">
<ele>199.79999999999995</ele>
<time>2023-05-18T09:37:22Z</time>
</trkpt>
<trkpt lat="49.29286194965243" lon="8.12886499799788">
<ele>199.79999999999995</ele>
<time>2023-05-18T09:37:23Z</time>
</trkpt>
<trkpt lat="49.29289698600769" lon="8.128862986341119">
<ele>200</ele>
<time>2023-05-18T09:37:24Z</time>
</trkpt>
<trkpt lat="49.292932944372296" lon="8.128859968855977">
<ele>200</ele>
<time>2023-05-18T09:37:25Z</time>
</trkpt>
<trkpt lat="49.29296798072755" lon="8.128854939714074">
<ele>200</ele>
<time>2023-05-18T09:37:26Z</time>
</trkpt>
<trkpt lat="49.29300494492054" lon="8.128849994391203">
<ele>200.20000000000005</ele>
<time>2023-05-18T09:37:27Z</time>
</trkpt>
<trkpt lat="49.29304199293256" lon="8.128842953592539">
<ele>200.20000000000005</ele>
<time>2023-05-18T09:37:28Z</time>
</trkpt>
<trkpt lat="49.293077951297164" lon="8.128837924450636">
<ele>200.20000000000005</ele>
<time>2023-05-18T09:37:29Z</time>
</trkpt>
<trkpt lat="49.29311499930918" lon="8.128832979127765">
<ele>200.20000000000005</ele>
<time>2023-05-18T09:37:30Z</time>
</trkpt>
<trkpt lat="49.29315296933055" lon="8.128831973299384">
<ele>200.20000000000005</ele>
<time>2023-05-18T09:37:31Z</time>
</trkpt>
<trkpt lat="49.2931919451803" lon="8.128829961642623">
<ele>200.20000000000005</ele>
<time>2023-05-18T09:37:32Z</time>
</trkpt>
<trkpt lat="49.293231926858425" lon="8.12882493250072">
<ele>200.20000000000005</ele>
<time>2023-05-18T09:37:33Z</time>
</trkpt>
<trkpt lat="49.293274926021695" lon="8.128819987177849">
<ele>200.20000000000005</ele>
<time>2023-05-18T09:37:34Z</time>
</trkpt>
<trkpt lat="49.293317925184965" lon="8.128814958035946">
<ele>200.20000000000005</ele>
<time>2023-05-18T09:37:35Z</time>
</trkpt>
<trkpt lat="49.293361930176616" lon="8.128811940550804">
<ele>200</ele>
<time>2023-05-18T09:37:36Z</time>
</trkpt>
<trkpt lat="49.293404929339886" lon="8.128807917237282">
<ele>200</ele>
<time>2023-05-18T09:37:37Z</time>
</trkpt>
<trkpt lat="49.29344994015992" lon="8.12880297191441">
<ele>200</ele>
<time>2023-05-18T09:37:38Z</time>
</trkpt>
<trkpt lat="49.29349495097995" lon="8.128794925287366">
<ele>199.79999999999995</ele>
<time>2023-05-18T09:37:39Z</time>
</trkpt>
<trkpt lat="49.29353996179998" lon="8.128786962479353">
<ele>199.79999999999995</ele>
<time>2023-05-18T09:37:40Z</time>
</trkpt>
<trkpt lat="49.29358698427677" lon="8.12877799384296">
<ele>199.60000000000002</ele>
<time>2023-05-18T09:37:41Z</time>
</trkpt>
<trkpt lat="49.29363492876291" lon="8.128769947215915">
<ele>199.60000000000002</ele>
<time>2023-05-18T09:37:42Z</time>
</trkpt>
<trkpt lat="49.293682957068086" lon="8.12875997275114">
<ele>199.39999999999998</ele>
<time>2023-05-18T09:37:43Z</time>
</trkpt>
<trkpt lat="49.29373199120164" lon="8.128751926124096">
<ele>199.39999999999998</ele>
<time>2023-05-18T09:37:44Z</time>
</trkpt>
<trkpt lat="49.29377993568778" lon="8.128742957487702">
<ele>199.20000000000005</ele>
<time>2023-05-18T09:37:45Z</time>
</trkpt>
<trkpt lat="49.29382796399295" lon="8.128732983022928">
<ele>199.20000000000005</ele>
<time>2023-05-18T09:37:46Z</time>
</trkpt>
<trkpt lat="49.29387699812651" lon="8.128722924739122">
<ele>199.20000000000005</ele>
<time>2023-05-18T09:37:47Z</time>
</trkpt>
<trkpt lat="49.29392796009779" lon="8.128707921132445">
<ele>199</ele>
<time>2023-05-18T09:37:48Z</time>
</trkpt>
<trkpt lat="49.29397992789745" lon="8.128684954717755">
<ele>199</ele>
<time>2023-05-18T09:37:49Z</time>
</trkpt>
<trkpt lat="49.29403197951615" lon="8.12865193001926">
<ele>198.79999999999995</ele>
<time>2023-05-18T09:37:50Z</time>
</trkpt>
<trkpt lat="49.29407799616456" lon="8.128607925027609">
<ele>198.79999999999995</ele>
<time>2023-05-18T09:37:51Z</time>
</trkpt>
<trkpt lat="49.29412191733718" lon="8.128557968884706">
<ele>198.79999999999995</ele>
<time>2023-05-18T09:37:52Z</time>
</trkpt>
<trkpt lat="49.29415997117758" lon="8.128507928922772">
<ele>198.79999999999995</ele>
<time>2023-05-18T09:37:53Z</time>
</trkpt>
<trkpt lat="49.2941949237138" lon="8.12845696695149">
<ele>198.79999999999995</ele>
<time>2023-05-18T09:37:54Z</time>
</trkpt>
<trkpt lat="49.29422694258392" lon="8.128407932817936">
<ele>198.79999999999995</ele>
<time>2023-05-18T09:37:55Z</time>
</trkpt>
<trkpt lat="49.294259967282414" lon="8.128364933654666">
<ele>198.79999999999995</ele>
<time>2023-05-18T09:37:56Z</time>
</trkpt>
<trkpt lat="49.29429198615253" lon="8.128322940319777">
<ele>198.79999999999995</ele>
<time>2023-05-18T09:37:57Z</time>
</trkpt>
<trkpt lat="49.294324927031994" lon="8.128279941156507">
<ele>198.79999999999995</ele>
<time>2023-05-18T09:37:58Z</time>
</trkpt>
<trkpt lat="49.29435795173049" lon="8.128236941993237">
<ele>198.79999999999995</ele>
<time>2023-05-18T09:37:59Z</time>
</trkpt>
<trkpt lat="49.29439298808575" lon="8.128192937001586">
<ele>198.79999999999995</ele>
<time>2023-05-18T09:38:00Z</time>
</trkpt>
<trkpt lat="49.29442995227873" lon="8.128146920353174">
<ele>198.79999999999995</ele>
<time>2023-05-18T09:38:01Z</time>
</trkpt>
<trkpt lat="49.2944679223001" lon="8.128099981695414">
<ele>198.79999999999995</ele>
<time>2023-05-18T09:38:02Z</time>
</trkpt>
<trkpt lat="49.29450798779726" lon="8.128056982532144">
<ele>199</ele>
<time>2023-05-18T09:38:03Z</time>
</trkpt>
<trkpt lat="49.29454998113215" lon="8.128017922863364">
<ele>199</ele>
<time>2023-05-18T09:38:04Z</time>
</trkpt>
<trkpt lat="49.29459499195218" lon="8.1279849819839">
<ele>199</ele>
<time>2023-05-18T09:38:05Z</time>
</trkpt>
<trkpt lat="49.29463799111545" lon="8.127954974770546">
<ele>199</ele>
<time>2023-05-18T09:38:06Z</time>
</trkpt>
<trkpt lat="49.29468291811645" lon="8.127931924536824">
<ele>199</ele>
<time>2023-05-18T09:38:07Z</time>
</trkpt>
<trkpt lat="49.29472792893648" lon="8.127912981435657">
<ele>199</ele>
<time>2023-05-18T09:38:08Z</time>
</trkpt>
<trkpt lat="49.29477293975651" lon="8.12789797782898">
<ele>199</ele>
<time>2023-05-18T09:38:09Z</time>
</trkpt>
<trkpt lat="49.294817950576544" lon="8.127881968393922">
<ele>199.20000000000005</ele>
<time>2023-05-18T09:38:10Z</time>
</trkpt>
<trkpt lat="49.294861955568194" lon="8.127862941473722">
<ele>199.20000000000005</ele>
<time>2023-05-18T09:38:11Z</time>
</trkpt>
<trkpt lat="49.294904954731464" lon="8.127844920381904">
<ele>199.20000000000005</ele>
<time>2023-05-18T09:38:12Z</time>
</trkpt>
<trkpt lat="49.294947953894734" lon="8.127826983109117">
<ele>199.20000000000005</ele>
<time>2023-05-18T09:38:13Z</time>
</trkpt>
<trkpt lat="49.294992964714766" lon="8.127809967845678">
<ele>199.20000000000005</ele>
<time>2023-05-18T09:38:14Z</time>
</trkpt>
<trkpt lat="49.2950379755348" lon="8.12779295258224">
<ele>199.20000000000005</ele>
<time>2023-05-18T09:38:15Z</time>
</trkpt>
<trkpt lat="49.29508298635483" lon="8.127781972289085">
<ele>199.20000000000005</ele>
<time>2023-05-18T09:38:16Z</time>
</trkpt>
<trkpt lat="49.29512799717486" lon="8.12776998616755">
<ele>199.20000000000005</ele>
<time>2023-05-18T09:38:17Z</time>
</trkpt>
<trkpt lat="49.29517191834748" lon="8.127756994217634">
<ele>199.20000000000005</ele>
<time>2023-05-18T09:38:18Z</time>
</trkpt>
<trkpt lat="49.29521692916751" lon="8.127737967297435">
<ele>199.20000000000005</ele>
<time>2023-05-18T09:38:19Z</time>
</trkpt>
<trkpt lat="49.29526193998754" lon="8.127719946205616">
<ele>199.20000000000005</ele>
<time>2023-05-18T09:38:20Z</time>
</trkpt>
<trkpt lat="49.29530695080757" lon="8.127702930942178">
<ele>199.20000000000005</ele>
<time>2023-05-18T09:38:21Z</time>
</trkpt>
<trkpt lat="49.29534994997084" lon="8.12768692150712">
<ele>199</ele>
<time>2023-05-18T09:38:22Z</time>
</trkpt>
<trkpt lat="49.29539294913411" lon="8.127672923728824">
<ele>199</ele>
<time>2023-05-18T09:38:23Z</time>
</trkpt>
<trkpt lat="49.29543695412576" lon="8.127657920122147">
<ele>198.79999999999995</ele>
<time>2023-05-18T09:38:24Z</time>
</trkpt>
<trkpt lat="49.29547693580389" lon="8.12764291651547">
<ele>198.79999999999995</ele>
<time>2023-05-18T09:38:25Z</time>
</trkpt>
<trkpt lat="49.29551498964429" lon="8.127626990899444">
<ele>198.60000000000002</ele>
<time>2023-05-18T09:38:26Z</time>
</trkpt>
<trkpt lat="49.295552959665656" lon="8.127602934837341">
<ele>198.39999999999998</ele>
<time>2023-05-18T09:38:27Z</time>
</trkpt>
<trkpt lat="49.29558992385864" lon="8.127569993957877">
<ele>198.39999999999998</ele>
<time>2023-05-18T09:38:28Z</time>
</trkpt>
<trkpt lat="49.295619931072" lon="8.127524983137846">
<ele>198.39999999999998</ele>
<time>2023-05-18T09:38:29Z</time>
</trkpt>
<trkpt lat="49.29564499296248" lon="8.12747293151915">
<ele>198.39999999999998</ele>
<time>2023-05-18T09:38:30Z</time>
</trkpt>
<trkpt lat="49.29566997103393" lon="8.127419957891107">
<ele>198.39999999999998</ele>
<time>2023-05-18T09:38:31Z</time>
</trkpt>
<trkpt lat="49.29569494910538" lon="8.127366984263062">
<ele>198.39999999999998</ele>
<time>2023-05-18T09:38:32Z</time>
</trkpt>
<trkpt lat="49.29571699351072" lon="8.127317950129509">
<ele>198.39999999999998</ele>
<time>2023-05-18T09:38:33Z</time>
</trkpt>
<trkpt lat="49.29573995992541" lon="8.127269921824336">
<ele>198.39999999999998</ele>
<time>2023-05-18T09:38:34Z</time>
</trkpt>
<trkpt lat="49.29575999267399" lon="8.127221977338195">
<ele>198.39999999999998</ele>
<time>2023-05-18T09:38:35Z</time>
</trkpt>
<trkpt lat="49.29577298462391" lon="8.1271699257195">
<ele>198.39999999999998</ele>
<time>2023-05-18T09:38:36Z</time>
</trkpt>
<trkpt lat="49.2957819532603" lon="8.127116952091455">
<ele>198.60000000000002</ele>
<time>2023-05-18T09:38:37Z</time>
</trkpt>
<trkpt lat="49.295784970745444" lon="8.127059955149889">
<ele>198.60000000000002</ele>
<time>2023-05-18T09:38:38Z</time>
</trkpt>
<trkpt lat="49.29578999988735" lon="8.127007987350225">
<ele>198.60000000000002</ele>
<time>2023-05-18T09:38:39Z</time>
</trkpt>
<trkpt lat="49.29580198600888" lon="8.126957947388291">
<ele>198.79999999999995</ele>
<time>2023-05-18T09:38:40Z</time>
</trkpt>
<trkpt lat="49.29582193493843" lon="8.126907991245389">
<ele>198.79999999999995</ele>
<time>2023-05-18T09:38:41Z</time>
</trkpt>
<trkpt lat="49.29584498517215" lon="8.126859962940216">
<ele>199</ele>
<time>2023-05-18T09:38:42Z</time>
</trkpt>
<trkpt lat="49.29586795158684" lon="8.126811934635043">
<ele>199</ele>
<time>2023-05-18T09:38:43Z</time>
</trkpt>
<trkpt lat="49.29588697850704" lon="8.126752926036716">
<ele>199.20000000000005</ele>
<time>2023-05-18T09:38:44Z</time>
</trkpt>
<trkpt lat="49.295896952971816" lon="8.126689977943897">
<ele>199.20000000000005</ele>
<time>2023-05-18T09:38:45Z</time>
</trkpt>
<trkpt lat="49.29589997045696" lon="8.126626946032047">
<ele>199.39999999999998</ele>
<time>2023-05-18T09:38:46Z</time>
</trkpt>
<trkpt lat="49.2958979588002" lon="8.126562992110848">
<ele>199.60000000000002</ele>
<time>2023-05-18T09:38:47Z</time>
</trkpt>
<trkpt lat="49.295892929658294" lon="8.126499960198998">
<ele>199.60000000000002</ele>
<time>2023-05-18T09:38:48Z</time>
</trkpt>
<trkpt lat="49.295889995992184" lon="8.126434916630387">
<ele>199.79999999999995</ele>
<time>2023-05-18T09:38:49Z</time>
</trkpt>
<trkpt lat="49.29588496685028" lon="8.126367945224047">
<ele>200</ele>
<time>2023-05-18T09:38:50Z</time>
</trkpt>
<trkpt lat="49.29587792605162" lon="8.126304997131228">
<ele>200</ele>
<time>2023-05-18T09:38:51Z</time>
</trkpt>
<trkpt lat="49.295872980728745" lon="8.126242971047759">
<ele>200.20000000000005</ele>
<time>2023-05-18T09:38:52Z</time>
</trkpt>
<trkpt lat="49.29586795158684" lon="8.12618195079267">
<ele>200.39999999999998</ele>
<time>2023-05-18T09:38:53Z</time>
</trkpt>
<trkpt lat="49.2958649341017" lon="8.126117996871471">
<ele>200.39999999999998</ele>
<time>2023-05-18T09:38:54Z</time>
</trkpt>
<trkpt lat="49.29585998877883" lon="8.126054964959621">
<ele>200.60000000000002</ele>
<time>2023-05-18T09:38:55Z</time>
</trkpt>
<trkpt lat="49.29585797712207" lon="8.12598992139101">
<ele>200.60000000000002</ele>
<time>2023-05-18T09:38:56Z</time>
</trkpt>
<trkpt lat="49.29585495963693" lon="8.12592496164143">
<ele>200.79999999999995</ele>
<time>2023-05-18T09:38:57Z</time>
</trkpt>
<trkpt lat="49.295851942151785" lon="8.125864947214723">
<ele>200.79999999999995</ele>
<time>2023-05-18T09:38:58Z</time>
</trkpt>
<trkpt lat="49.295849930495024" lon="8.125802921131253">
<ele>200.79999999999995</ele>
<time>2023-05-18T09:38:59Z</time>
</trkpt>
<trkpt lat="49.295852947980165" lon="8.125737961381674">
<ele>200.79999999999995</ele>
<time>2023-05-18T09:39:00Z</time>
</trkpt>
<trkpt lat="49.29585697129369" lon="8.125676941126585">
<ele>200.79999999999995</ele>
<time>2023-05-18T09:39:01Z</time>
</trkpt>
<trkpt lat="49.29585998877883" lon="8.125614998862147">
<ele>201</ele>
<time>2023-05-18T09:39:02Z</time>
</trkpt>
<trkpt lat="49.29586694575846" lon="8.125554984435439">
<ele>201</ele>
<time>2023-05-18T09:39:03Z</time>
</trkpt>
<trkpt lat="49.295869963243604" lon="8.12549295835197">
<ele>201</ele>
<time>2023-05-18T09:39:04Z</time>
</trkpt>
<trkpt lat="49.295871974900365" lon="8.125431938096881">
<ele>201.20000000000005</ele>
<time>2023-05-18T09:39:05Z</time>
</trkpt>
<trkpt lat="49.29587499238551" lon="8.125369995832443">
<ele>201.20000000000005</ele>
<time>2023-05-18T09:39:06Z</time>
</trkpt>
<trkpt lat="49.295876920223236" lon="8.125307969748974">
<ele>201.39999999999998</ele>
<time>2023-05-18T09:39:07Z</time>
</trkpt>
<trkpt lat="49.29587993770838" lon="8.125246949493885">
<ele>201.39999999999998</ele>
<time>2023-05-18T09:39:08Z</time>
</trkpt>
<trkpt lat="49.29588295519352" lon="8.125184923410416">
<ele>201.60000000000002</ele>
<time>2023-05-18T09:39:09Z</time>
</trkpt>
<trkpt lat="49.29588496685028" lon="8.12512499280274">
<ele>201.60000000000002</ele>
<time>2023-05-18T09:39:10Z</time>
</trkpt>
<trkpt lat="49.29588798433542" lon="8.125067995861173">
<ele>201.79999999999995</ele>
<time>2023-05-18T09:39:11Z</time>
</trkpt>
<trkpt lat="49.295889995992184" lon="8.125009993091226">
<ele>201.79999999999995</ele>
<time>2023-05-18T09:39:12Z</time>
</trkpt>
<trkpt lat="49.29589192382991" lon="8.124951990321279">
<ele>201.79999999999995</ele>
<time>2023-05-18T09:39:13Z</time>
</trkpt>
<trkpt lat="49.295894941315055" lon="8.124896921217442">
<ele>202</ele>
<time>2023-05-18T09:39:14Z</time>
</trkpt>
<trkpt lat="49.295894941315055" lon="8.124837996438146">
<ele>202.20000000000005</ele>
<time>2023-05-18T09:39:15Z</time>
</trkpt>
<trkpt lat="49.295896952971816" lon="8.124779993668199">
<ele>202.20000000000005</ele>
<time>2023-05-18T09:39:16Z</time>
</trkpt>
<trkpt lat="49.295896952971816" lon="8.124721990898252">
<ele>202.39999999999998</ele>
<time>2023-05-18T09:39:17Z</time>
</trkpt>
<trkpt lat="49.2958979588002" lon="8.124662982299924">
<ele>202.39999999999998</ele>
<time>2023-05-18T09:39:18Z</time>
</trkpt>
<trkpt lat="49.29590198211372" lon="8.124604979529977">
<ele>202.60000000000002</ele>
<time>2023-05-18T09:39:19Z</time>
</trkpt>
<trkpt lat="49.2959029879421" lon="8.12454798258841">
<ele>202.60000000000002</ele>
<time>2023-05-18T09:39:20Z</time>
</trkpt>
<trkpt lat="49.29590994492173" lon="8.124491991475224">
<ele>202.79999999999995</ele>
<time>2023-05-18T09:39:21Z</time>
</trkpt>
<trkpt lat="49.295912962406874" lon="8.124436922371387">
<ele>202.79999999999995</ele>
<time>2023-05-18T09:39:22Z</time>
</trkpt>
<trkpt lat="49.295916985720396" lon="8.124384954571724">
<ele>202.79999999999995</ele>
<time>2023-05-18T09:39:23Z</time>
</trkpt>
<trkpt lat="49.29591799154878" lon="8.124336926266551">
<ele>203</ele>
<time>2023-05-18T09:39:24Z</time>
</trkpt>
<trkpt lat="49.29591799154878" lon="8.12428797595203">
<ele>203</ele>
<time>2023-05-18T09:39:25Z</time>
</trkpt>
<trkpt lat="49.29592293687165" lon="8.124241959303617">
<ele>203</ele>
<time>2023-05-18T09:39:26Z</time>
</trkpt>
<trkpt lat="49.29592696018517" lon="8.124194936826825">
<ele>203.20000000000005</ele>
<time>2023-05-18T09:39:27Z</time>
</trkpt>
<trkpt lat="49.29592796601355" lon="8.124147998169065">
<ele>203.20000000000005</ele>
<time>2023-05-18T09:39:28Z</time>
</trkpt>
<trkpt lat="49.29592796601355" lon="8.12409795820713">
<ele>203.20000000000005</ele>
<time>2023-05-18T09:39:29Z</time>
</trkpt>
<trkpt lat="49.29592796601355" lon="8.124044984579086">
<ele>203.39999999999998</ele>
<time>2023-05-18T09:39:30Z</time>
</trkpt>
<trkpt lat="49.29592796601355" lon="8.12399192713201">
<ele>203.39999999999998</ele>
<time>2023-05-18T09:39:31Z</time>
</trkpt>
<trkpt lat="49.29592796601355" lon="8.123937947675586">
<ele>203.60000000000002</ele>
<time>2023-05-18T09:39:32Z</time>
</trkpt>
<trkpt lat="49.29592997767031" lon="8.123887991532683">
<ele>203.60000000000002</ele>
<time>2023-05-18T09:39:33Z</time>
</trkpt>
<trkpt lat="49.295932995155454" lon="8.123842980712652">
<ele>203.79999999999995</ele>
<time>2023-05-18T09:39:34Z</time>
</trkpt>
<trkpt lat="49.29594296962023" lon="8.123804926872253">
<ele>204</ele>
<time>2023-05-18T09:39:35Z</time>
</trkpt>
<trkpt lat="49.29596199654043" lon="8.123766956850886">
<ele>204</ele>
<time>2023-05-18T09:39:36Z</time>
</trkpt>
<trkpt lat="49.29598496295512" lon="8.123737955465913">
<ele>204</ele>
<time>2023-05-18T09:39:37Z</time>
</trkpt>
<trkpt lat="49.29601698182523" lon="8.123727981001139">
<ele>204</ele>
<time>2023-05-18T09:39:38Z</time>
</trkpt>
<trkpt lat="49.2960549518466" lon="8.123727981001139">
<ele>204</ele>
<time>2023-05-18T09:39:39Z</time>
</trkpt>
<trkpt lat="49.29609694518149" lon="8.123727981001139">
<ele>204</ele>
<time>2023-05-18T09:39:40Z</time>
</trkpt>
<trkpt lat="49.296137932688" lon="8.123726975172758">
<ele>204</ele>
<time>2023-05-18T09:39:41Z</time>
</trkpt>
<trkpt lat="49.29618193767965" lon="8.123722951859236">
<ele>203.79999999999995</ele>
<time>2023-05-18T09:39:42Z</time>
</trkpt>
<trkpt lat="49.29622694849968" lon="8.123721946030855">
<ele>203.79999999999995</ele>
<time>2023-05-18T09:39:43Z</time>
</trkpt>
<trkpt lat="49.29627195931971" lon="8.123719934374094">
<ele>203.79999999999995</ele>
<time>2023-05-18T09:39:44Z</time>
</trkpt>
<trkpt lat="49.29631797596812" lon="8.123716916888952">
<ele>203.60000000000002</ele>
<time>2023-05-18T09:39:45Z</time>
</trkpt>
<trkpt lat="49.296366926282644" lon="8.12370995990932">
<ele>203.60000000000002</ele>
<time>2023-05-18T09:39:46Z</time>
</trkpt>
<trkpt lat="49.29641495458782" lon="8.123701997101307">
<ele>203.60000000000002</ele>
<time>2023-05-18T09:39:47Z</time>
</trkpt>
<trkpt lat="49.29646499454975" lon="8.123694956302643">
<ele>203.39999999999998</ele>
<time>2023-05-18T09:39:48Z</time>
</trkpt>
<trkpt lat="49.296516962349415" lon="8.123692944645882">
<ele>203.20000000000005</ele>
<time>2023-05-18T09:39:49Z</time>
</trkpt>
<trkpt lat="49.29656691849232" lon="8.123694956302643">
<ele>203</ele>
<time>2023-05-18T09:39:50Z</time>
</trkpt>
<trkpt lat="49.29661997593939" lon="8.123696967959404">
<ele>202.79999999999995</ele>
<time>2023-05-18T09:39:51Z</time>
</trkpt>
<trkpt lat="49.29667194373906" lon="8.123697973787785">
<ele>202.60000000000002</ele>
<time>2023-05-18T09:39:52Z</time>
</trkpt>
<trkpt lat="49.29672298952937" lon="8.123696967959404">
<ele>202.39999999999998</ele>
<time>2023-05-18T09:39:53Z</time>
</trkpt>
<trkpt lat="49.296776968985796" lon="8.123696967959404">
<ele>202</ele>
<time>2023-05-18T09:39:54Z</time>
</trkpt>
<trkpt lat="49.29683296009898" lon="8.123694956302643">
<ele>201.79999999999995</ele>
<time>2023-05-18T09:39:55Z</time>
</trkpt>
<trkpt lat="49.29689196869731" lon="8.123691938817501">
<ele>201.60000000000002</ele>
<time>2023-05-18T09:39:56Z</time>
</trkpt>
<trkpt lat="49.29694997146726" lon="8.12368992716074">
<ele>201.39999999999998</ele>
<time>2023-05-18T09:39:57Z</time>
</trkpt>
<trkpt lat="49.297011997550726" lon="8.12368699349463">
<ele>201.20000000000005</ele>
<time>2023-05-18T09:39:58Z</time>
</trkpt>
<trkpt lat="49.29707293398678" lon="8.12368992716074">
<ele>201</ele>
<time>2023-05-18T09:39:59Z</time>
</trkpt>
<trkpt lat="49.29713496007025" lon="8.123702919110656">
<ele>200.79999999999995</ele>
<time>2023-05-18T09:40:00Z</time>
</trkpt>
<trkpt lat="49.29719698615372" lon="8.123721946030855">
<ele>200.60000000000002</ele>
<time>2023-05-18T09:40:01Z</time>
</trkpt>
<trkpt lat="49.2972569167614" lon="8.123734937980771">
<ele>200.39999999999998</ele>
<time>2023-05-18T09:40:02Z</time>
</trkpt>
<trkpt lat="49.29731693118811" lon="8.123744996264577">
<ele>200.20000000000005</ele>
<time>2023-05-18T09:40:03Z</time>
</trkpt>
<trkpt lat="49.29737996309996" lon="8.123756982386112">
<ele>199.79999999999995</ele>
<time>2023-05-18T09:40:04Z</time>
</trkpt>
<trkpt lat="49.29744794033468" lon="8.123762933537364">
<ele>199.60000000000002</ele>
<time>2023-05-18T09:40:05Z</time>
</trkpt>
<trkpt lat="49.29751792922616" lon="8.123767962679267">
<ele>199.20000000000005</ele>
<time>2023-05-18T09:40:06Z</time>
</trkpt>
<trkpt lat="49.297591941431165" lon="8.123769974336028">
<ele>198.60000000000002</ele>
<time>2023-05-18T09:40:07Z</time>
</trkpt>
<trkpt lat="49.29766494780779" lon="8.123769974336028">
<ele>198.20000000000005</ele>
<time>2023-05-18T09:40:08Z</time>
</trkpt>
<trkpt lat="49.297739965841174" lon="8.123767962679267">
<ele>197.79999999999995</ele>
<time>2023-05-18T09:40:09Z</time>
</trkpt>
<trkpt lat="49.2978129722178" lon="8.123757988214493">
<ele>197.60000000000002</ele>
<time>2023-05-18T09:40:10Z</time>
</trkpt>
<trkpt lat="49.29788497276604" lon="8.123734937980771">
<ele>197.20000000000005</ele>
<time>2023-05-18T09:40:11Z</time>
</trkpt>
<trkpt lat="49.297954961657524" lon="8.123694956302643">
<ele>196.79999999999995</ele>
<time>2023-05-18T09:40:12Z</time>
</trkpt>
<trkpt lat="49.29802495054901" lon="8.12364692799747">
<ele>196.39999999999998</ele>
<time>2023-05-18T09:40:13Z</time>
</trkpt>
<trkpt lat="49.29809695109725" lon="8.123607952147722">
<ele>196</ele>
<time>2023-05-18T09:40:14Z</time>
</trkpt>
<trkpt lat="49.29817498661578" lon="8.123582974076271">
<ele>195.60000000000002</ele>
<time>2023-05-18T09:40:15Z</time>
</trkpt>
<trkpt lat="49.29825494997203" lon="8.123566964641213">
<ele>195.20000000000005</ele>
<time>2023-05-18T09:40:16Z</time>
</trkpt>
<trkpt lat="49.29833692498505" lon="8.123549949377775">
<ele>194.79999999999995</ele>
<time>2023-05-18T09:40:17Z</time>
</trkpt>
<trkpt lat="49.29841697216034" lon="8.123531928285956">
<ele>194.20000000000005</ele>
<time>2023-05-18T09:40:18Z</time>
</trkpt>
<trkpt lat="49.298497941344976" lon="8.123511979356408">
<ele>193.79999999999995</ele>
<time>2023-05-18T09:40:19Z</time>
</trkpt>
<trkpt lat="49.29858695715666" lon="8.123489934951067">
<ele>193.20000000000005</ele>
<time>2023-05-18T09:40:20Z</time>
</trkpt>
<trkpt lat="49.29868494160473" lon="8.123454982414842">
<ele>192.79999999999995</ele>
<time>2023-05-18T09:40:21Z</time>
</trkpt>
<trkpt lat="49.29877697490156" lon="8.123412989079952">
<ele>192.20000000000005</ele>
<time>2023-05-18T09:40:22Z</time>
</trkpt>
<trkpt lat="49.2988629732281" lon="8.123381976038218">
<ele>191.60000000000002</ele>
<time>2023-05-18T09:40:23Z</time>
</trkpt>
<trkpt lat="49.29895299486816" lon="8.123339982703328">
<ele>191</ele>
<time>2023-05-18T09:40:24Z</time>
</trkpt>
<trkpt lat="49.29902792908251" lon="8.123299917206168">
<ele>190.39999999999998</ele>
<time>2023-05-18T09:40:25Z</time>
</trkpt>
<trkpt lat="49.29910697042942" lon="8.123281979933381">
<ele>190.20000000000005</ele>
<time>2023-05-18T09:40:26Z</time>
</trkpt>
<trkpt lat="49.29916799068451" lon="8.123262953013182">
<ele>189.79999999999995</ele>
<time>2023-05-18T09:40:27Z</time>
</trkpt>
<trkpt lat="49.299222975969315" lon="8.123246943578124">
<ele>189.60000000000002</ele>
<time>2023-05-18T09:40:28Z</time>
</trkpt>
<trkpt lat="49.29927494376898" lon="8.123232945799828">
<ele>189.60000000000002</ele>
<time>2023-05-18T09:40:29Z</time>
</trkpt>
<trkpt lat="49.29931299760938" lon="8.123226994648576">
<ele>189.39999999999998</ele>
<time>2023-05-18T09:40:30Z</time>
</trkpt>
<trkpt lat="49.299351973459125" lon="8.123219953849912">
<ele>189.60000000000002</ele>
<time>2023-05-18T09:40:31Z</time>
</trkpt>
<trkpt lat="49.29938692599535" lon="8.12321693636477">
<ele>189.60000000000002</ele>
<time>2023-05-18T09:40:32Z</time>
</trkpt>
<trkpt lat="49.299419950693846" lon="8.123211991041899">
<ele>189.60000000000002</ele>
<time>2023-05-18T09:40:33Z</time>
</trkpt>
<trkpt lat="49.29945297539234" lon="8.123202938586473">
<ele>189.79999999999995</ele>
<time>2023-05-18T09:40:34Z</time>
</trkpt>
<trkpt lat="49.29948499426246" lon="8.1231929641217">
<ele>189.79999999999995</ele>
<time>2023-05-18T09:40:35Z</time>
</trkpt>
<trkpt lat="49.29951994679868" lon="8.123181983828545">
<ele>190</ele>
<time>2023-05-18T09:40:36Z</time>
</trkpt>
<trkpt lat="49.2995569948107" lon="8.12316999770701">
<ele>190</ele>
<time>2023-05-18T09:40:37Z</time>
</trkpt>
<trkpt lat="49.299592953175306" lon="8.123161951079965">
<ele>190.20000000000005</ele>
<time>2023-05-18T09:40:38Z</time>
</trkpt>
<trkpt lat="49.29962798953056" lon="8.123154994100332">
<ele>190.39999999999998</ele>
<time>2023-05-18T09:40:39Z</time>
</trkpt>
<trkpt lat="49.29966294206679" lon="8.123144935816526">
<ele>190.60000000000002</ele>
<time>2023-05-18T09:40:40Z</time>
</trkpt>
<trkpt lat="49.299696972593665" lon="8.123136973008513">
<ele>190.79999999999995</ele>
<time>2023-05-18T09:40:41Z</time>
</trkpt>
<trkpt lat="49.29973192512989" lon="8.123127920553088">
<ele>191.20000000000005</ele>
<time>2023-05-18T09:40:42Z</time>
</trkpt>
<trkpt lat="49.299762938171625" lon="8.123121969401836">
<ele>191.39999999999998</ele>
<time>2023-05-18T09:40:43Z</time>
</trkpt>
<trkpt lat="49.29979294538498" lon="8.123117946088314">
<ele>191.79999999999995</ele>
<time>2023-05-18T09:40:44Z</time>
</trkpt>
<trkpt lat="49.29982295259833" lon="8.123111994937062">
<ele>192.20000000000005</ele>
<time>2023-05-18T09:40:45Z</time>
</trkpt>
<trkpt lat="49.29985497146845" lon="8.123102942481637">
<ele>192.39999999999998</ele>
<time>2023-05-18T09:40:46Z</time>
</trkpt>
<trkpt lat="49.2998849786818" lon="8.123096991330385">
<ele>192.79999999999995</ele>
<time>2023-05-18T09:40:47Z</time>
</trkpt>
<trkpt lat="49.29991699755192" lon="8.12308793887496">
<ele>193.20000000000005</ele>
<time>2023-05-18T09:40:48Z</time>
</trkpt>
<trkpt lat="49.29994792677462" lon="8.123079976066947">
<ele>193.39999999999998</ele>
<time>2023-05-18T09:40:49Z</time>
</trkpt>
<trkpt lat="49.299979945644736" lon="8.123069917783141">
<ele>193.60000000000002</ele>
<time>2023-05-18T09:40:50Z</time>
</trkpt>
<trkpt lat="49.30000995285809" lon="8.123062960803509">
<ele>194</ele>
<time>2023-05-18T09:40:51Z</time>
</trkpt>
<trkpt lat="49.300039960071445" lon="8.123054997995496">
<ele>194.20000000000005</ele>
<time>2023-05-18T09:40:52Z</time>
</trkpt>
<trkpt lat="49.30007197894156" lon="8.123047957196832">
<ele>194.39999999999998</ele>
<time>2023-05-18T09:40:53Z</time>
</trkpt>
<trkpt lat="49.300101986154914" lon="8.123041922226548">
<ele>194.79999999999995</ele>
<time>2023-05-18T09:40:54Z</time>
</trkpt>
<trkpt lat="49.30013299919665" lon="8.123034965246916">
<ele>195</ele>
<time>2023-05-18T09:40:55Z</time>
</trkpt>
<trkpt lat="49.30016191676259" lon="8.123027924448252">
<ele>195.20000000000005</ele>
<time>2023-05-18T09:40:56Z</time>
</trkpt>
<trkpt lat="49.300189996138215" lon="8.12302297912538">
<ele>195.60000000000002</ele>
<time>2023-05-18T09:40:57Z</time>
</trkpt>
<trkpt lat="49.30021698586643" lon="8.123012920841575">
<ele>195.79999999999995</ele>
<time>2023-05-18T09:40:58Z</time>
</trkpt>
<trkpt lat="49.30024498142302" lon="8.123004958033562">
<ele>196</ele>
<time>2023-05-18T09:40:59Z</time>
</trkpt>
<trkpt lat="49.30027297697961" lon="8.122997917234898">
<ele>196.20000000000005</ele>
<time>2023-05-18T09:41:00Z</time>
</trkpt>
<trkpt lat="49.30030197836459" lon="8.122994983568788">
<ele>196.39999999999998</ele>
<time>2023-05-18T09:41:01Z</time>
</trkpt>
<trkpt lat="49.30032997392118" lon="8.122991966083646">
<ele>196.60000000000002</ele>
<time>2023-05-18T09:41:02Z</time>
</trkpt>
<trkpt lat="49.30035796947777" lon="8.122986936941743">
<ele>197</ele>
<time>2023-05-18T09:41:03Z</time>
</trkpt>
<trkpt lat="49.30038797669113" lon="8.12297997996211">
<ele>197.20000000000005</ele>
<time>2023-05-18T09:41:04Z</time>
</trkpt>
<trkpt lat="49.30041798390448" lon="8.122974950820208">
<ele>197.39999999999998</ele>
<time>2023-05-18T09:41:05Z</time>
</trkpt>
<trkpt lat="49.300449918955564" lon="8.122971933335066">
<ele>197.60000000000002</ele>
<time>2023-05-18T09:41:06Z</time>
</trkpt>
<trkpt lat="49.30048193782568" lon="8.122972939163446">
<ele>197.79999999999995</ele>
<time>2023-05-18T09:41:07Z</time>
</trkpt>
<trkpt lat="49.300511945039034" lon="8.12297796830535">
<ele>198.20000000000005</ele>
<time>2023-05-18T09:41:08Z</time>
</trkpt>
<trkpt lat="49.30054195225239" lon="8.122986936941743">
<ele>198.39999999999998</ele>
<time>2023-05-18T09:41:09Z</time>
</trkpt>
<trkpt lat="49.300574976950884" lon="8.122994983568788">
<ele>198.60000000000002</ele>
<time>2023-05-18T09:41:10Z</time>
</trkpt>
<trkpt lat="49.30060791783035" lon="8.1230029463768">
<ele>198.79999999999995</ele>
<time>2023-05-18T09:41:11Z</time>
</trkpt>
<trkpt lat="49.30063993670046" lon="8.123011998832226">
<ele>199</ele>
<time>2023-05-18T09:41:12Z</time>
</trkpt>
<trkpt lat="49.30067195557058" lon="8.12302297912538">
<ele>199</ele>
<time>2023-05-18T09:41:13Z</time>
</trkpt>
<trkpt lat="49.30070196278393" lon="8.123036976903677">
<ele>199.20000000000005</ele>
<time>2023-05-18T09:41:14Z</time>
</trkpt>
<trkpt lat="49.30073196999729" lon="8.123049968853593">
<ele>199.39999999999998</ele>
<time>2023-05-18T09:41:15Z</time>
</trkpt>
<trkpt lat="49.30075996555388" lon="8.123059943318367">
<ele>199.60000000000002</ele>
<time>2023-05-18T09:41:16Z</time>
</trkpt>
<trkpt lat="49.30078796111047" lon="8.123067989945412">
<ele>199.60000000000002</ele>
<time>2023-05-18T09:41:17Z</time>
</trkpt>
<trkpt lat="49.300816962495446" lon="8.123076958581805">
<ele>199.79999999999995</ele>
<time>2023-05-18T09:41:18Z</time>
</trkpt>
<trkpt lat="49.3008469697088" lon="8.123082993552089">
<ele>200</ele>
<time>2023-05-18T09:41:19Z</time>
</trkpt>
<trkpt lat="49.300879994407296" lon="8.12308793887496">
<ele>200</ele>
<time>2023-05-18T09:41:20Z</time>
</trkpt>
<trkpt lat="49.30091293528676" lon="8.123091962188482">
<ele>200.20000000000005</ele>
<time>2023-05-18T09:41:21Z</time>
</trkpt>
<trkpt lat="49.300942942500114" lon="8.123094979673624">
<ele>200.39999999999998</ele>
<time>2023-05-18T09:41:22Z</time>
</trkpt>
<trkpt lat="49.30097194388509" lon="8.123099924996495">
<ele>200.39999999999998</ele>
<time>2023-05-18T09:41:23Z</time>
</trkpt>
<trkpt lat="49.30100195109844" lon="8.123102942481637">
<ele>200.60000000000002</ele>
<time>2023-05-18T09:41:24Z</time>
</trkpt>
<trkpt lat="49.30103296414018" lon="8.123104954138398">
<ele>200.79999999999995</ele>
<time>2023-05-18T09:41:25Z</time>
</trkpt>
<trkpt lat="49.30106498301029" lon="8.12310696579516">
<ele>200.79999999999995</ele>
<time>2023-05-18T09:41:26Z</time>
</trkpt>
<trkpt lat="49.301097923889756" lon="8.123111994937062">
<ele>201</ele>
<time>2023-05-18T09:41:27Z</time>
</trkpt>
<trkpt lat="49.30112793110311" lon="8.123112916946411">
<ele>201.20000000000005</ele>
<time>2023-05-18T09:41:28Z</time>
</trkpt>
<trkpt lat="49.301159949973226" lon="8.123112916946411">
<ele>201.20000000000005</ele>
<time>2023-05-18T09:41:29Z</time>
</trkpt>
<trkpt lat="49.30119196884334" lon="8.123111994937062">
<ele>201.39999999999998</ele>
<time>2023-05-18T09:41:30Z</time>
</trkpt>
<trkpt lat="49.301222981885076" lon="8.123109983280301">
<ele>201.60000000000002</ele>
<time>2023-05-18T09:41:31Z</time>
</trkpt>
<trkpt lat="49.30125491693616" lon="8.123104954138398">
<ele>201.60000000000002</ele>
<time>2023-05-18T09:41:32Z</time>
</trkpt>
<trkpt lat="49.301286935806274" lon="8.123102942481637">
<ele>201.79999999999995</ele>
<time>2023-05-18T09:41:33Z</time>
</trkpt>
<trkpt lat="49.30131794884801" lon="8.123101936653256">
<ele>201.79999999999995</ele>
<time>2023-05-18T09:41:34Z</time>
</trkpt>
<trkpt lat="49.301349967718124" lon="8.123099924996495">
<ele>202</ele>
<time>2023-05-18T09:41:35Z</time>
</trkpt>
<trkpt lat="49.30138198658824" lon="8.123096991330385">
<ele>202</ele>
<time>2023-05-18T09:41:36Z</time>
</trkpt>
<trkpt lat="49.301411993801594" lon="8.123096991330385">
<ele>202.20000000000005</ele>
<time>2023-05-18T09:41:37Z</time>
</trkpt>
<trkpt lat="49.301441917195916" lon="8.123092968016863">
<ele>202.20000000000005</ele>
<time>2023-05-18T09:41:38Z</time>
</trkpt>
<trkpt lat="49.30147192440927" lon="8.123089950531721">
<ele>202.39999999999998</ele>
<time>2023-05-18T09:41:39Z</time>
</trkpt>
<trkpt lat="49.301497992128134" lon="8.12308793887496">
<ele>202.39999999999998</ele>
<time>2023-05-18T09:41:40Z</time>
</trkpt>
<trkpt lat="49.301521964371204" lon="8.12308793887496">
<ele>202.60000000000002</ele>
<time>2023-05-18T09:41:41Z</time>
</trkpt>
<trkpt lat="49.30154291912913" lon="8.12308693304658">
<ele>202.60000000000002</ele>
<time>2023-05-18T09:41:42Z</time>
</trkpt>
<trkpt lat="49.30156295187771" lon="8.12308693304658">
<ele>202.79999999999995</ele>
<time>2023-05-18T09:41:43Z</time>
</trkpt>
<trkpt lat="49.30158298462629" lon="8.123084921389818">
<ele>202.79999999999995</ele>
<time>2023-05-18T09:41:44Z</time>
</trkpt>
<trkpt lat="49.30159999988973" lon="8.123079976066947">
<ele>203</ele>
<time>2023-05-18T09:41:45Z</time>
</trkpt>
<trkpt lat="49.30161198601127" lon="8.123077964410186">
<ele>203</ele>
<time>2023-05-18T09:41:46Z</time>
</trkpt>
<trkpt lat="49.30161793716252" lon="8.123077964410186">
<ele>203.20000000000005</ele>
<time>2023-05-18T09:41:47Z</time>
</trkpt>
<trkpt lat="49.301626989617944" lon="8.123074946925044">
<ele>203.20000000000005</ele>
<time>2023-05-18T09:41:48Z</time>
</trkpt>
<trkpt lat="49.301632940769196" lon="8.123074946925044">
<ele>203.20000000000005</ele>
<time>2023-05-18T09:41:49Z</time>
</trkpt>
<trkpt lat="49.301642999053" lon="8.123072935268283">
<ele>203.39999999999998</ele>
<time>2023-05-18T09:41:50Z</time>
</trkpt>
<trkpt lat="49.30165498517454" lon="8.123072935268283">
<ele>203.39999999999998</ele>
<time>2023-05-18T09:41:51Z</time>
</trkpt>
<trkpt lat="49.30166697129607" lon="8.123074946925044">
<ele>203.39999999999998</ele>
<time>2023-05-18T09:41:52Z</time>
</trkpt>
<trkpt lat="49.301676945760846" lon="8.123074946925044">
<ele>203.60000000000002</ele>
<time>2023-05-18T09:41:53Z</time>
</trkpt>
<trkpt lat="49.30168692022562" lon="8.123072935268283">
<ele>203.60000000000002</ele>
<time>2023-05-18T09:41:54Z</time>
</trkpt>
<trkpt lat="49.301692955195904" lon="8.123071929439902">
<ele>203.60000000000002</ele>
<time>2023-05-18T09:41:55Z</time>
</trkpt>
<trkpt lat="49.30169999599457" lon="8.123069917783141">
<ele>203.60000000000002</ele>
<time>2023-05-18T09:41:56Z</time>
</trkpt>
<trkpt lat="49.3017069529742" lon="8.12306497246027">
<ele>203.60000000000002</ele>
<time>2023-05-18T09:41:57Z</time>
</trkpt>
<trkpt lat="49.301714999601245" lon="8.123061954975128">
<ele>203.79999999999995</ele>
<time>2023-05-18T09:41:58Z</time>
</trkpt>
<trkpt lat="49.30172497406602" lon="8.123049968853593">
<ele>203.79999999999995</ele>
<time>2023-05-18T09:41:59Z</time>
</trkpt>
<trkpt lat="49.30173293687403" lon="8.123042928054929">
<ele>203.79999999999995</ele>
<time>2023-05-18T09:42:00Z</time>
</trkpt>
<trkpt lat="49.301737966015935" lon="8.123041922226548">
<ele>203.79999999999995</ele>
<time>2023-05-18T09:42:01Z</time>
</trkpt>
<trkpt lat="49.30174198932946" lon="8.123039994388819">
<ele>203.79999999999995</ele>
<time>2023-05-18T09:42:02Z</time>
</trkpt>
<trkpt lat="49.30174794048071" lon="8.123039994388819">
<ele>204</ele>
<time>2023-05-18T09:42:03Z</time>
</trkpt>
<trkpt lat="49.301756992936134" lon="8.123037982732058">
<ele>204</ele>
<time>2023-05-18T09:42:04Z</time>
</trkpt>
<trkpt lat="49.30176495574415" lon="8.123037982732058">
<ele>204</ele>
<time>2023-05-18T09:42:05Z</time>
</trkpt>
<trkpt lat="49.30177493020892" lon="8.123031947761774">
<ele>204</ele>
<time>2023-05-18T09:42:06Z</time>
</trkpt>
<trkpt lat="49.301782976835966" lon="8.123024990782142">
<ele>204</ele>
<time>2023-05-18T09:42:07Z</time>
</trkpt>
<trkpt lat="49.30178691633046" lon="8.12302297912538">
<ele>204.20000000000005</ele>
<time>2023-05-18T09:42:08Z</time>
</trkpt>
<trkpt lat="49.301846930757165" lon="8.123004958033562">
<ele>204.39999999999998</ele>
<time>2023-05-18T09:42:08Z</time>
</trkpt>
<trkpt lat="49.30185799486935" lon="8.123004958033562">
<ele>204.39999999999998</ele>
<time>2023-05-18T09:42:09Z</time>
</trkpt>
<trkpt lat="49.30187199264765" lon="8.1230029463768">
<ele>204.60000000000002</ele>
<time>2023-05-18T09:42:10Z</time>
</trkpt>
<trkpt lat="49.301884984597564" lon="8.122994983568788">
<ele>204.79999999999995</ele>
<time>2023-05-18T09:42:11Z</time>
</trkpt>
<trkpt lat="49.30190292187035" lon="8.122974950820208">
<ele>205</ele>
<time>2023-05-18T09:42:12Z</time>
</trkpt>
<trkpt lat="49.30192194879055" lon="8.122944943606853">
<ele>205.20000000000005</ele>
<time>2023-05-18T09:42:13Z</time>
</trkpt>
<trkpt lat="49.30194793269038" lon="8.122917953878641">
<ele>205.39999999999998</ele>
<time>2023-05-18T09:42:14Z</time>
</trkpt>
<trkpt lat="49.30198196321726" lon="8.122897921130061">
<ele>205.60000000000002</ele>
<time>2023-05-18T09:42:15Z</time>
</trkpt>
<trkpt lat="49.302016999572515" lon="8.122889958322048">
<ele>205.79999999999995</ele>
<time>2023-05-18T09:42:16Z</time>
</trkpt>
<trkpt lat="49.30205496959388" lon="8.122887946665287">
<ele>206</ele>
<time>2023-05-18T09:42:17Z</time>
</trkpt>
<trkpt lat="49.30209293961525" lon="8.122889958322048">
<ele>206</ele>
<time>2023-05-18T09:42:18Z</time>
</trkpt>
<trkpt lat="49.30213292129338" lon="8.12289297580719">
<ele>206.20000000000005</ele>
<time>2023-05-18T09:42:19Z</time>
</trkpt>
<trkpt lat="49.30217692628503" lon="8.122897921130061">
<ele>206.39999999999998</ele>
<time>2023-05-18T09:42:20Z</time>
</trkpt>
<trkpt lat="49.30222193710506" lon="8.122901944443583">
<ele>206.60000000000002</ele>
<time>2023-05-18T09:42:21Z</time>
</trkpt>
<trkpt lat="49.30226493626833" lon="8.122906973585486">
<ele>206.79999999999995</ele>
<time>2023-05-18T09:42:22Z</time>
</trkpt>
<trkpt lat="49.3023079354316" lon="8.122911918908358">
<ele>206.79999999999995</ele>
<time>2023-05-18T09:42:23Z</time>
</trkpt>
<trkpt lat="49.30235194042325" lon="8.1229149363935">
<ele>207</ele>
<time>2023-05-18T09:42:24Z</time>
</trkpt>
<trkpt lat="49.30239292792976" lon="8.122917953878641">
<ele>207</ele>
<time>2023-05-18T09:42:25Z</time>
</trkpt>
<trkpt lat="49.30243492126465" lon="8.122922983020544">
<ele>207</ele>
<time>2023-05-18T09:42:26Z</time>
</trkpt>
<trkpt lat="49.30247792042792" lon="8.122931951656938">
<ele>207.20000000000005</ele>
<time>2023-05-18T09:42:27Z</time>
</trkpt>
<trkpt lat="49.30252192541957" lon="8.122941926121712">
<ele>207.20000000000005</ele>
<time>2023-05-18T09:42:28Z</time>
</trkpt>
<trkpt lat="49.30256492458284" lon="8.122952990233898">
<ele>207.20000000000005</ele>
<time>2023-05-18T09:42:29Z</time>
</trkpt>
<trkpt lat="49.30260792374611" lon="8.122964976355433">
<ele>207.20000000000005</ele>
<time>2023-05-18T09:42:30Z</time>
</trkpt>
<trkpt lat="49.30265192873776" lon="8.12297997996211">
<ele>207.20000000000005</ele>
<time>2023-05-18T09:42:31Z</time>
</trkpt>
<trkpt lat="49.30269693955779" lon="8.122994983568788">
<ele>207.39999999999998</ele>
<time>2023-05-18T09:42:32Z</time>
</trkpt>
<trkpt lat="49.30274195037782" lon="8.123006969690323">
<ele>207.39999999999998</ele>
<time>2023-05-18T09:42:33Z</time>
</trkpt>
<trkpt lat="49.30278696119785" lon="8.123017949983478">
<ele>207.39999999999998</ele>
<time>2023-05-18T09:42:34Z</time>
</trkpt>
<trkpt lat="49.302831972017884" lon="8.123026918619871">
<ele>207.39999999999998</ele>
<time>2023-05-18T09:42:35Z</time>
</trkpt>
<trkpt lat="49.302877988666296" lon="8.123031947761774">
<ele>207.39999999999998</ele>
<time>2023-05-18T09:42:36Z</time>
</trkpt>
<trkpt lat="49.30292492732406" lon="8.123032953590155">
<ele>207.39999999999998</ele>
<time>2023-05-18T09:42:37Z</time>
</trkpt>
<trkpt lat="49.30297194980085" lon="8.123029936105013">
<ele>207.39999999999998</ele>
<time>2023-05-18T09:42:38Z</time>
</trkpt>
<trkpt lat="49.30301696062088" lon="8.123024990782142">
<ele>207.39999999999998</ele>
<time>2023-05-18T09:42:39Z</time>
</trkpt>
<trkpt lat="49.30305995978415" lon="8.12302297912538">
<ele>207.60000000000002</ele>
<time>2023-05-18T09:42:40Z</time>
</trkpt>
<trkpt lat="49.30310295894742" lon="8.123019961640239">
<ele>207.79999999999995</ele>
<time>2023-05-18T09:42:41Z</time>
</trkpt>
<trkpt lat="49.30314696393907" lon="8.123019961640239">
<ele>208</ele>
<time>2023-05-18T09:42:42Z</time>
</trkpt>
<trkpt lat="49.30318996310234" lon="8.123017949983478">
<ele>208</ele>
<time>2023-05-18T09:42:43Z</time>
</trkpt>
<trkpt lat="49.30323497392237" lon="8.123012920841575">
<ele>208.20000000000005</ele>
<time>2023-05-18T09:42:44Z</time>
</trkpt>
<trkpt lat="49.30327797308564" lon="8.123009987175465">
<ele>208.39999999999998</ele>
<time>2023-05-18T09:42:45Z</time>
</trkpt>
<trkpt lat="49.30331996642053" lon="8.123006969690323">
<ele>208.60000000000002</ele>
<time>2023-05-18T09:42:46Z</time>
</trkpt>
<trkpt lat="49.3033579364419" lon="8.12300194054842">
<ele>208.79999999999995</ele>
<time>2023-05-18T09:42:47Z</time>
</trkpt>
<trkpt lat="49.30339699611068" lon="8.122996995225549">
<ele>209</ele>
<time>2023-05-18T09:42:48Z</time>
</trkpt>
<trkpt lat="49.303432954475284" lon="8.122991966083646">
<ele>209.20000000000005</ele>
<time>2023-05-18T09:42:49Z</time>
</trkpt>
<trkpt lat="49.30346799083054" lon="8.122986936941743">
<ele>209.39999999999998</ele>
<time>2023-05-18T09:42:50Z</time>
</trkpt>
<trkpt lat="49.303502943366766" lon="8.122981991618872">
<ele>209.39999999999998</ele>
<time>2023-05-18T09:42:51Z</time>
</trkpt>
<trkpt lat="49.30353697389364" lon="8.122976962476969">
<ele>209.60000000000002</ele>
<time>2023-05-18T09:42:52Z</time>
</trkpt>
<trkpt lat="49.30357192642987" lon="8.122972939163446">
<ele>209.79999999999995</ele>
<time>2023-05-18T09:42:53Z</time>
</trkpt>
<trkpt lat="49.303604951128364" lon="8.122969921678305">
<ele>210</ele>
<time>2023-05-18T09:42:54Z</time>
</trkpt>
<trkpt lat="49.30363696999848" lon="8.122964976355433">
<ele>210.20000000000005</ele>
<time>2023-05-18T09:42:55Z</time>
</trkpt>
<trkpt lat="49.30366496555507" lon="8.12295994721353">
<ele>210.20000000000005</ele>
<time>2023-05-18T09:42:56Z</time>
</trkpt>
<trkpt lat="49.303692961111665" lon="8.122954918071628">
<ele>210.20000000000005</ele>
<time>2023-05-18T09:42:57Z</time>
</trkpt>
<trkpt lat="49.30372196249664" lon="8.122947961091995">
<ele>210.39999999999998</ele>
<time>2023-05-18T09:42:58Z</time>
</trkpt>
<trkpt lat="49.30375196970999" lon="8.122942931950092">
<ele>210.39999999999998</ele>
<time>2023-05-18T09:42:59Z</time>
</trkpt>
<trkpt lat="49.30378298275173" lon="8.122939998283982">
<ele>210.39999999999998</ele>
<time>2023-05-18T09:43:00Z</time>
</trkpt>
<trkpt lat="49.30381692945957" lon="8.12293496914208">
<ele>210.60000000000002</ele>
<time>2023-05-18T09:43:01Z</time>
</trkpt>
<trkpt lat="49.30384995415807" lon="8.122931951656938">
<ele>210.60000000000002</ele>
<time>2023-05-18T09:43:02Z</time>
</trkpt>
<trkpt lat="49.303882978856564" lon="8.122927928343415">
<ele>210.60000000000002</ele>
<time>2023-05-18T09:43:03Z</time>
</trkpt>
<trkpt lat="49.30391793139279" lon="8.122922983020544">
<ele>210.79999999999995</ele>
<time>2023-05-18T09:43:04Z</time>
</trkpt>
<trkpt lat="49.303949950262904" lon="8.122921977192163">
<ele>210.79999999999995</ele>
<time>2023-05-18T09:43:05Z</time>
</trkpt>
<trkpt lat="49.30398196913302" lon="8.122917953878641">
<ele>211</ele>
<time>2023-05-18T09:43:06Z</time>
</trkpt>
<trkpt lat="49.304014993831515" lon="8.12291694805026">
<ele>211</ele>
<time>2023-05-18T09:43:07Z</time>
</trkpt>
<trkpt lat="49.30404793471098" lon="8.122912924736738">
<ele>211.20000000000005</ele>
<time>2023-05-18T09:43:08Z</time>
</trkpt>
<trkpt lat="49.30408297106624" lon="8.122909991070628">
<ele>211.39999999999998</ele>
<time>2023-05-18T09:43:09Z</time>
</trkpt>
<trkpt lat="49.30411691777408" lon="8.122906973585486">
<ele>211.39999999999998</ele>
<time>2023-05-18T09:43:10Z</time>
</trkpt>
<trkpt lat="49.304147930815816" lon="8.122902950271964">
<ele>211.60000000000002</ele>
<time>2023-05-18T09:43:11Z</time>
</trkpt>
<trkpt lat="49.30418196134269" lon="8.122897921130061">
<ele>211.60000000000002</ele>
<time>2023-05-18T09:43:12Z</time>
</trkpt>
<trkpt lat="49.30421297438443" lon="8.122894987463951">
<ele>211.79999999999995</ele>
<time>2023-05-18T09:43:13Z</time>
</trkpt>
<trkpt lat="49.30424692109227" lon="8.122889958322048">
<ele>212</ele>
<time>2023-05-18T09:43:14Z</time>
</trkpt>
<trkpt lat="49.30427994579077" lon="8.122882917523384">
<ele>212</ele>
<time>2023-05-18T09:43:15Z</time>
</trkpt>
<trkpt lat="49.30431297048926" lon="8.122877972200513">
<ele>212.20000000000005</ele>
<time>2023-05-18T09:43:16Z</time>
</trkpt>
<trkpt lat="49.30434993468225" lon="8.122874954715371">
<ele>212.20000000000005</ele>
<time>2023-05-18T09:43:17Z</time>
</trkpt>
<trkpt lat="49.30438991636038" lon="8.122869925573468">
<ele>212.39999999999998</ele>
<time>2023-05-18T09:43:18Z</time>
</trkpt>
<trkpt lat="49.30442797020078" lon="8.122864980250597">
<ele>212.39999999999998</ele>
<time>2023-05-18T09:43:19Z</time>
</trkpt>
<trkpt lat="49.30446493439376" lon="8.122861962765455">
<ele>212.60000000000002</ele>
<time>2023-05-18T09:43:20Z</time>
</trkpt>
<trkpt lat="49.30450298823416" lon="8.122856933623552">
<ele>212.60000000000002</ele>
<time>2023-05-18T09:43:21Z</time>
</trkpt>
<trkpt lat="49.30453794077039" lon="8.122852994129062">
<ele>212.79999999999995</ele>
<time>2023-05-18T09:43:22Z</time>
</trkpt>
<trkpt lat="49.304574988782406" lon="8.122842935845256">
<ele>212.79999999999995</ele>
<time>2023-05-18T09:43:23Z</time>
</trkpt>
<trkpt lat="49.30461195297539" lon="8.122832961380482">
<ele>212.79999999999995</ele>
<time>2023-05-18T09:43:24Z</time>
</trkpt>
<trkpt lat="49.30464799515903" lon="8.122822986915708">
<ele>213</ele>
<time>2023-05-18T09:43:25Z</time>
</trkpt>
<trkpt lat="49.30468495935202" lon="8.122811922803521">
<ele>213</ele>
<time>2023-05-18T09:43:26Z</time>
</trkpt>
<trkpt lat="49.304721923545" lon="8.122799936681986">
<ele>213</ele>
<time>2023-05-18T09:43:27Z</time>
</trkpt>
<trkpt lat="49.30475796572864" lon="8.122779987752438">
<ele>213.20000000000005</ele>
<time>2023-05-18T09:43:28Z</time>
</trkpt>
<trkpt lat="49.30479694157839" lon="8.122759955003858">
<ele>213.20000000000005</ele>
<time>2023-05-18T09:43:29Z</time>
</trkpt>
<trkpt lat="49.304832983762026" lon="8.122741933912039">
<ele>213.20000000000005</ele>
<time>2023-05-18T09:43:30Z</time>
</trkpt>
<trkpt lat="49.30486994795501" lon="8.1227249186486">
<ele>213.20000000000005</ele>
<time>2023-05-18T09:43:31Z</time>
</trkpt>
<trkpt lat="49.30490992963314" lon="8.122709998860955">
<ele>213.20000000000005</ele>
<time>2023-05-18T09:43:32Z</time>
</trkpt>
<trkpt lat="49.3049499951303" lon="8.122691977769136">
<ele>213.20000000000005</ele>
<time>2023-05-18T09:43:33Z</time>
</trkpt>
<trkpt lat="49.30498796515167" lon="8.122672950848937">
<ele>213.39999999999998</ele>
<time>2023-05-18T09:43:34Z</time>
</trkpt>
<trkpt lat="49.305026941001415" lon="8.122654929757118">
<ele>213.39999999999998</ele>
<time>2023-05-18T09:43:35Z</time>
</trkpt>
<trkpt lat="49.30506298318505" lon="8.12263498082757">
<ele>213.39999999999998</ele>
<time>2023-05-18T09:43:36Z</time>
</trkpt>
<trkpt lat="49.3051019590348" lon="8.122617965564132">
<ele>213.39999999999998</ele>
<time>2023-05-18T09:43:37Z</time>
</trkpt>
<trkpt lat="49.305137917399406" lon="8.122602961957455">
<ele>213.39999999999998</ele>
<time>2023-05-18T09:43:38Z</time>
</trkpt>
<trkpt lat="49.305174965411425" lon="8.122589970007539">
<ele>213.39999999999998</ele>
<time>2023-05-18T09:43:39Z</time>
</trkpt>
<trkpt lat="49.30521293543279" lon="8.12257194891572">
<ele>213.39999999999998</ele>
<time>2023-05-18T09:43:40Z</time>
</trkpt>
<trkpt lat="49.30525199510157" lon="8.12255292199552">
<ele>213.20000000000005</ele>
<time>2023-05-18T09:43:41Z</time>
</trkpt>
<trkpt lat="49.3052919767797" lon="8.122534984722733">
<ele>213.20000000000005</ele>
<time>2023-05-18T09:43:42Z</time>
</trkpt>
<trkpt lat="49.30533195845783" lon="8.122526938095689">
<ele>213.20000000000005</ele>
<time>2023-05-18T09:43:43Z</time>
</trkpt>
<trkpt lat="49.305369928479195" lon="8.122522998601198">
<ele>213.20000000000005</ele>
<time>2023-05-18T09:43:44Z</time>
</trkpt>
<trkpt lat="49.30540798231959" lon="8.122519981116056">
<ele>213.20000000000005</ele>
<time>2023-05-18T09:43:45Z</time>
</trkpt>
<trkpt lat="49.30544695816934" lon="8.122522998601198">
<ele>213.20000000000005</ele>
<time>2023-05-18T09:43:46Z</time>
</trkpt>
<trkpt lat="49.30548492819071" lon="8.122524926438928">
<ele>213.20000000000005</ele>
<time>2023-05-18T09:43:47Z</time>
</trkpt>
<trkpt lat="49.30552298203111" lon="8.122531967237592">
<ele>213.39999999999998</ele>
<time>2023-05-18T09:43:48Z</time>
</trkpt>
<trkpt lat="49.305561957880855" lon="8.122534984722733">
<ele>213.39999999999998</ele>
<time>2023-05-18T09:43:49Z</time>
</trkpt>
<trkpt lat="49.30559992790222" lon="8.122534984722733">
<ele>213.20000000000005</ele>
<time>2023-05-18T09:43:50Z</time>
</trkpt>
<trkpt lat="49.30563798174262" lon="8.122536996379495">
<ele>213.20000000000005</ele>
<time>2023-05-18T09:43:51Z</time>
</trkpt>
<trkpt lat="49.30567695759237" lon="8.122542947530746">
<ele>213.20000000000005</ele>
<time>2023-05-18T09:43:52Z</time>
</trkpt>
<trkpt lat="49.305716939270496" lon="8.12255292199552">
<ele>213.20000000000005</ele>
<time>2023-05-18T09:43:53Z</time>
</trkpt>
<trkpt lat="49.30575197562575" lon="8.122561974450946">
<ele>213.20000000000005</ele>
<time>2023-05-18T09:43:54Z</time>
</trkpt>
<trkpt lat="49.30578994564712" lon="8.122567925602198">
<ele>213.39999999999998</ele>
<time>2023-05-18T09:43:55Z</time>
</trkpt>
<trkpt lat="49.30582992732525" lon="8.122581923380494">
<ele>213.39999999999998</ele>
<time>2023-05-18T09:43:56Z</time>
</trkpt>
<trkpt lat="49.30586697533727" lon="8.1225919816643">
<ele>213.39999999999998</ele>
<time>2023-05-18T09:43:57Z</time>
</trkpt>
<trkpt lat="49.30590293370187" lon="8.122599944472313">
<ele>213.60000000000002</ele>
<time>2023-05-18T09:43:58Z</time>
</trkpt>
<trkpt lat="49.30593797005713" lon="8.122607991099358">
<ele>213.60000000000002</ele>
<time>2023-05-18T09:43:59Z</time>
</trkpt>
<trkpt lat="49.30597996339202" lon="8.122619977220893">
<ele>213.60000000000002</ele>
<time>2023-05-18T09:44:00Z</time>
</trkpt>
<trkpt lat="49.306016927585006" lon="8.122629951685667">
<ele>213.60000000000002</ele>
<time>2023-05-18T09:44:01Z</time>
</trkpt>
<trkpt lat="49.30605296976864" lon="8.122639926150441">
<ele>213.79999999999995</ele>
<time>2023-05-18T09:44:02Z</time>
</trkpt>
<trkpt lat="49.30609295144677" lon="8.122647972777486">
<ele>213.79999999999995</ele>
<time>2023-05-18T09:44:03Z</time>
</trkpt>
<trkpt lat="49.30613192729652" lon="8.12265794724226">
<ele>213.79999999999995</ele>
<time>2023-05-18T09:44:04Z</time>
</trkpt>
<trkpt lat="49.30617199279368" lon="8.122664988040924">
<ele>213.79999999999995</ele>
<time>2023-05-18T09:44:05Z</time>
</trkpt>
<trkpt lat="49.30621197447181" lon="8.122669933363795">
<ele>213.79999999999995</ele>
<time>2023-05-18T09:44:06Z</time>
</trkpt>
<trkpt lat="49.306249944493175" lon="8.12267797999084">
<ele>213.79999999999995</ele>
<time>2023-05-18T09:44:07Z</time>
</trkpt>
<trkpt lat="49.30628699250519" lon="8.122686948627234">
<ele>213.79999999999995</ele>
<time>2023-05-18T09:44:08Z</time>
</trkpt>
<trkpt lat="49.30631993338466" lon="8.122687954455614">
<ele>214</ele>
<time>2023-05-18T09:44:09Z</time>
</trkpt>
<trkpt lat="49.306354969739914" lon="8.122692983597517">
<ele>214</ele>
<time>2023-05-18T09:44:10Z</time>
</trkpt>
<trkpt lat="49.30639293976128" lon="8.122697928920388">
<ele>214</ele>
<time>2023-05-18T09:44:11Z</time>
</trkpt>
<trkpt lat="49.30642797611654" lon="8.12269994057715">
<ele>214</ele>
<time>2023-05-18T09:44:12Z</time>
</trkpt>
<trkpt lat="49.306464940309525" lon="8.122702958062291">
<ele>214</ele>
<time>2023-05-18T09:44:13Z</time>
</trkpt>
<trkpt lat="49.30650198832154" lon="8.122704969719052">
<ele>214</ele>
<time>2023-05-18T09:44:14Z</time>
</trkpt>
<trkpt lat="49.30653694085777" lon="8.122712932527065">
<ele>213.79999999999995</ele>
<time>2023-05-18T09:44:15Z</time>
</trkpt>
<trkpt lat="49.306576922535896" lon="8.12272198498249">
<ele>213.79999999999995</ele>
<time>2023-05-18T09:44:16Z</time>
</trkpt>
<trkpt lat="49.306616988033056" lon="8.122731959447265">
<ele>213.60000000000002</ele>
<time>2023-05-18T09:44:17Z</time>
</trkpt>
<trkpt lat="49.306659987196326" lon="8.122737994417548">
<ele>213.60000000000002</ele>
<time>2023-05-18T09:44:18Z</time>
</trkpt>
<trkpt lat="49.306702986359596" lon="8.122741933912039">
<ele>213.39999999999998</ele>
<time>2023-05-18T09:44:19Z</time>
</trkpt>
<trkpt lat="49.30674699135125" lon="8.12274293974042">
<ele>213.20000000000005</ele>
<time>2023-05-18T09:44:20Z</time>
</trkpt>
<trkpt lat="49.30679694749415" lon="8.122741933912039">
<ele>213.20000000000005</ele>
<time>2023-05-18T09:44:21Z</time>
</trkpt>
<trkpt lat="49.30684296414256" lon="8.122746963053942">
<ele>213</ele>
<time>2023-05-18T09:44:22Z</time>
</trkpt>
<trkpt lat="49.30688998661935" lon="8.122751992195845">
<ele>213</ele>
<time>2023-05-18T09:44:23Z</time>
</trkpt>
<trkpt lat="49.306934997439384" lon="8.122757943347096">
<ele>212.79999999999995</ele>
<time>2023-05-18T09:44:24Z</time>
</trkpt>
<trkpt lat="49.30698495358229" lon="8.122766995802522">
<ele>212.79999999999995</ele>
<time>2023-05-18T09:44:25Z</time>
</trkpt>
<trkpt lat="49.30703197605908" lon="8.122776970267296">
<ele>212.60000000000002</ele>
<time>2023-05-18T09:44:26Z</time>
</trkpt>
<trkpt lat="49.30707799270749" lon="8.122777976095676">
<ele>212.39999999999998</ele>
<time>2023-05-18T09:44:27Z</time>
</trkpt>
<trkpt lat="49.30712493136525" lon="8.122779987752438">
<ele>212.20000000000005</ele>
<time>2023-05-18T09:44:28Z</time>
</trkpt>
<trkpt lat="49.30716994218528" lon="8.122791973873973">
<ele>212</ele>
<time>2023-05-18T09:44:29Z</time>
</trkpt>
<trkpt lat="49.307216964662075" lon="8.122801948338747">
<ele>211.79999999999995</ele>
<time>2023-05-18T09:44:30Z</time>
</trkpt>
<trkpt lat="49.307259963825345" lon="8.12280798330903">
<ele>211.60000000000002</ele>
<time>2023-05-18T09:44:31Z</time>
</trkpt>
<trkpt lat="49.307302962988615" lon="8.122812928631902">
<ele>211.60000000000002</ele>
<time>2023-05-18T09:44:32Z</time>
</trkpt>
<trkpt lat="49.30734998546541" lon="8.122819969430566">
<ele>211.39999999999998</ele>
<time>2023-05-18T09:44:33Z</time>
</trkpt>
<trkpt lat="49.307387955486774" lon="8.122831955552101">
<ele>211.39999999999998</ele>
<time>2023-05-18T09:44:34Z</time>
</trkpt>
<trkpt lat="49.3074279371649" lon="8.122847964987159">
<ele>211.20000000000005</ele>
<time>2023-05-18T09:44:35Z</time>
</trkpt>
<trkpt lat="49.30746297352016" lon="8.122864980250597">
<ele>211.20000000000005</ele>
<time>2023-05-18T09:44:36Z</time>
</trkpt>
<trkpt lat="49.30750295519829" lon="8.122877972200513">
<ele>211</ele>
<time>2023-05-18T09:44:37Z</time>
</trkpt>
<trkpt lat="49.30754696018994" lon="8.122886940836906">
<ele>210.79999999999995</ele>
<time>2023-05-18T09:44:38Z</time>
</trkpt>
<trkpt lat="49.30759197100997" lon="8.122896999120712">
<ele>210.79999999999995</ele>
<time>2023-05-18T09:44:39Z</time>
</trkpt>
<trkpt lat="49.307646956294775" lon="8.122907979413867">
<ele>210.60000000000002</ele>
<time>2023-05-18T09:44:40Z</time>
</trkpt>
<trkpt lat="49.307691967114806" lon="8.1229149363935">
<ele>210.39999999999998</ele>
<time>2023-05-18T09:44:41Z</time>
</trkpt>
<trkpt lat="49.30773697793484" lon="8.122926922515035">
<ele>210.39999999999998</ele>
<time>2023-05-18T09:44:42Z</time>
</trkpt>
<trkpt lat="49.30778492242098" lon="8.12293496914208">
<ele>210.20000000000005</ele>
<time>2023-05-18T09:44:43Z</time>
</trkpt>
<trkpt lat="49.307837979868054" lon="8.122946955263615">
<ele>210.20000000000005</ele>
<time>2023-05-18T09:44:44Z</time>
</trkpt>
<trkpt lat="49.30788793601096" lon="8.12295793555677">
<ele>210</ele>
<time>2023-05-18T09:44:45Z</time>
</trkpt>
<trkpt lat="49.30793797597289" lon="8.122967993840575">
<ele>210</ele>
<time>2023-05-18T09:44:46Z</time>
</trkpt>
<trkpt lat="49.307989943772554" lon="8.122976962476969">
<ele>210</ele>
<time>2023-05-18T09:44:47Z</time>
</trkpt>
<trkpt lat="49.308031937107444" lon="8.122982997447252">
<ele>209.79999999999995</ele>
<time>2023-05-18T09:44:48Z</time>
</trkpt>
<trkpt lat="49.308074936270714" lon="8.122994983568788">
<ele>209.79999999999995</ele>
<time>2023-05-18T09:44:49Z</time>
</trkpt>
<trkpt lat="49.30811491794884" lon="8.123009987175465">
<ele>209.60000000000002</ele>
<time>2023-05-18T09:44:50Z</time>
</trkpt>
<trkpt lat="49.30814794264734" lon="8.123021973297">
<ele>209.60000000000002</ele>
<time>2023-05-18T09:44:51Z</time>
</trkpt>
<trkpt lat="49.30816998705268" lon="8.123029936105013">
<ele>209.39999999999998</ele>
<time>2023-05-18T09:44:52Z</time>
</trkpt>
<trkpt lat="49.308184990659356" lon="8.123034965246916">
<ele>209.39999999999998</ele>
<time>2023-05-18T09:44:53Z</time>
</trkpt>
<trkpt lat="49.30819798260927" lon="8.123036976903677">
<ele>209.20000000000005</ele>
<time>2023-05-18T09:44:54Z</time>
</trkpt>
<trkpt lat="49.30821499787271" lon="8.123037982732058">
<ele>209.20000000000005</ele>
<time>2023-05-18T09:44:55Z</time>
</trkpt>
<trkpt lat="49.30823494680226" lon="8.123034965246916">
<ele>209.20000000000005</ele>
<time>2023-05-18T09:44:56Z</time>
</trkpt>
<trkpt lat="49.308246932923794" lon="8.123039994388819">
<ele>209</ele>
<time>2023-05-18T09:44:57Z</time>
</trkpt>
<trkpt lat="49.30826193653047" lon="8.123039994388819">
<ele>209</ele>
<time>2023-05-18T09:44:58Z</time>
</trkpt>
<trkpt lat="49.30827794596553" lon="8.123046951368451">
<ele>209</ele>
<time>2023-05-18T09:44:59Z</time>
</trkpt>
<trkpt lat="49.308289932087064" lon="8.12306497246027">
<ele>208.79999999999995</ele>
<time>2023-05-18T09:45:00Z</time>
</trkpt>
<trkpt lat="49.3083019182086" lon="8.123092968016863">
<ele>208.79999999999995</ele>
<time>2023-05-18T09:45:01Z</time>
</trkpt>
<trkpt lat="49.308309964835644" lon="8.123104954138398">
<ele>208.79999999999995</ele>
<time>2023-05-18T09:45:02Z</time>
</trkpt>
<trkpt lat="49.308311976492405" lon="8.123116940259933">
<ele>208.79999999999995</ele>
<time>2023-05-18T09:45:03Z</time>
</trkpt>
<trkpt lat="49.30831993930042" lon="8.123127920553088">
<ele>208.60000000000002</ele>
<time>2023-05-18T09:45:04Z</time>
</trkpt>
<trkpt lat="49.30833796039224" lon="8.123132949694991">
<ele>208.60000000000002</ele>
<time>2023-05-18T09:45:05Z</time>
</trkpt>
<trkpt lat="49.308352963998914" lon="8.123114928603172">
<ele>208.60000000000002</ele>
<time>2023-05-18T09:45:06Z</time>
</trkpt>
<trkpt lat="49.30836796760559" lon="8.12308693304658">
<ele>208.60000000000002</ele>
<time>2023-05-18T09:45:07Z</time>
</trkpt>
<trkpt lat="49.30838699452579" lon="8.12304493971169">
<ele>208.60000000000002</ele>
<time>2023-05-18T09:45:08Z</time>
</trkpt>
<trkpt lat="49.30841792374849" lon="8.122999928891659">
<ele>208.79999999999995</ele>
<time>2023-05-18T09:45:09Z</time>
</trkpt>
<trkpt lat="49.30844793096185" lon="8.122947961091995">
<ele>208.79999999999995</ele>
<time>2023-05-18T09:45:10Z</time>
</trkpt>
<trkpt lat="49.30847299285233" lon="8.12289297580719">
<ele>208.79999999999995</ele>
<time>2023-05-18T09:45:11Z</time>
</trkpt>
<trkpt lat="49.3084969650954" lon="8.122852994129062">
<ele>208.79999999999995</ele>
<time>2023-05-18T09:45:12Z</time>
</trkpt>
<trkpt lat="49.30851699784398" lon="8.122814940288663">
<ele>208.79999999999995</ele>
<time>2023-05-18T09:45:13Z</time>
</trkpt>
<trkpt lat="49.30853493511677" lon="8.122771941125393">
<ele>209</ele>
<time>2023-05-18T09:45:14Z</time>
</trkpt>
<trkpt lat="49.30855295620859" lon="8.122731959447265">
<ele>209</ele>
<time>2023-05-18T09:45:15Z</time>
</trkpt>
<trkpt lat="49.308571983128786" lon="8.122696923092008">
<ele>209.20000000000005</ele>
<time>2023-05-18T09:45:16Z</time>
</trkpt>
<trkpt lat="49.30858992040157" lon="8.12265794724226">
<ele>209.20000000000005</ele>
<time>2023-05-18T09:45:17Z</time>
</trkpt>
<trkpt lat="49.30860995315015" lon="8.122621988877654">
<ele>209.39999999999998</ele>
<time>2023-05-18T09:45:18Z</time>
</trkpt>
<trkpt lat="49.30862998589873" lon="8.122594999149442">
<ele>209.39999999999998</ele>
<time>2023-05-18T09:45:19Z</time>
</trkpt>
<trkpt lat="49.308654963970184" lon="8.122587958350778">
<ele>209.60000000000002</ele>
<time>2023-05-18T09:45:20Z</time>
</trkpt>
<trkpt lat="49.308679942041636" lon="8.122599944472313">
<ele>209.60000000000002</ele>
<time>2023-05-18T09:45:21Z</time>
</trkpt>
<trkpt lat="49.30870793759823" lon="8.122622994706035">
<ele>209.60000000000002</ele>
<time>2023-05-18T09:45:22Z</time>
</trkpt>
<trkpt lat="49.30873299948871" lon="8.122659958899021">
<ele>209.79999999999995</ele>
<time>2023-05-18T09:45:23Z</time>
</trkpt>
<trkpt lat="49.30875194258988" lon="8.122706981375813">
<ele>209.79999999999995</ele>
<time>2023-05-18T09:45:24Z</time>
</trkpt>
<trkpt lat="49.3087749928236" lon="8.122766995802522">
<ele>209.79999999999995</ele>
<time>2023-05-18T09:45:25Z</time>
</trkpt>
<trkpt lat="49.30879695340991" lon="8.122831955552101">
<ele>209.79999999999995</ele>
<time>2023-05-18T09:45:26Z</time>
</trkpt>
<trkpt lat="49.30882193148136" lon="8.122889958322048">
<ele>209.79999999999995</ele>
<time>2023-05-18T09:45:27Z</time>
</trkpt>
<trkpt lat="49.30884498171508" lon="8.122947961091995">
<ele>209.79999999999995</ele>
<time>2023-05-18T09:45:28Z</time>
</trkpt>
<trkpt lat="49.308869959786534" lon="8.1230029463768">
<ele>209.79999999999995</ele>
<time>2023-05-18T09:45:29Z</time>
</trkpt>
<trkpt lat="49.30889694951475" lon="8.123057931661606">
<ele>209.79999999999995</ele>
<time>2023-05-18T09:45:30Z</time>
</trkpt>
<trkpt lat="49.30891798809171" lon="8.123116940259933">
<ele>209.60000000000002</ele>
<time>2023-05-18T09:45:31Z</time>
</trkpt>
<trkpt lat="49.30894196033478" lon="8.123179972171783">
<ele>209.60000000000002</ele>
<time>2023-05-18T09:45:32Z</time>
</trkpt>
<trkpt lat="49.30896794423461" lon="8.12323797494173">
<ele>209.60000000000002</ele>
<time>2023-05-18T09:45:33Z</time>
</trkpt>
<trkpt lat="49.308997951447964" lon="8.123289942741394">
<ele>209.60000000000002</ele>
<time>2023-05-18T09:45:34Z</time>
</trkpt>
<trkpt lat="49.309021923691034" lon="8.12334693968296">
<ele>209.39999999999998</ele>
<time>2023-05-18T09:45:35Z</time>
</trkpt>
<trkpt lat="49.309044973924756" lon="8.12340997159481">
<ele>209.20000000000005</ele>
<time>2023-05-18T09:45:36Z</time>
</trkpt>
<trkpt lat="49.30907296948135" lon="8.12347493134439">
<ele>209.20000000000005</ele>
<time>2023-05-18T09:45:37Z</time>
</trkpt>
<trkpt lat="49.30909995920956" lon="8.123527988791466">
<ele>208.79999999999995</ele>
<time>2023-05-18T09:45:38Z</time>
</trkpt>
<trkpt lat="49.309127954766154" lon="8.123601917177439">
<ele>208.60000000000002</ele>
<time>2023-05-18T09:45:39Z</time>
</trkpt>
<trkpt lat="49.30915494449437" lon="8.123677941039205">
<ele>208.60000000000002</ele>
<time>2023-05-18T09:45:40Z</time>
</trkpt>
<trkpt lat="49.30917992256582" lon="8.123747929930687">
<ele>208.39999999999998</ele>
<time>2023-05-18T09:45:41Z</time>
</trkpt>
<trkpt lat="49.30920699611306" lon="8.123811967670918">
<ele>208.20000000000005</ele>
<time>2023-05-18T09:45:42Z</time>
</trkpt>
<trkpt lat="49.309236919507384" lon="8.123876927420497">
<ele>208</ele>
<time>2023-05-18T09:45:43Z</time>
</trkpt>
<trkpt lat="49.30926692672074" lon="8.123941970989108">
<ele>208</ele>
<time>2023-05-18T09:45:44Z</time>
</trkpt>
<trkpt lat="49.309299951419234" lon="8.124002991244197">
<ele>207.79999999999995</ele>
<time>2023-05-18T09:45:45Z</time>
</trkpt>
<trkpt lat="49.30933498777449" lon="8.124062921851873">
<ele>207.60000000000002</ele>
<time>2023-05-18T09:45:46Z</time>
</trkpt>
<trkpt lat="49.309367928653955" lon="8.12411991879344">
<ele>207.39999999999998</ele>
<time>2023-05-18T09:45:47Z</time>
</trkpt>
<trkpt lat="49.30939994752407" lon="8.124179933220148">
<ele>207.20000000000005</ele>
<time>2023-05-18T09:45:48Z</time>
</trkpt>
<trkpt lat="49.30943297222257" lon="8.124242965131998">
<ele>207.20000000000005</ele>
<time>2023-05-18T09:45:49Z</time>
</trkpt>
<trkpt lat="49.30946297943592" lon="8.124307924881577">
<ele>207</ele>
<time>2023-05-18T09:45:50Z</time>
</trkpt>
<trkpt lat="49.309494998306036" lon="8.124376991763711">
<ele>207</ele>
<time>2023-05-18T09:45:51Z</time>
</trkpt>
<trkpt lat="49.30952492170036" lon="8.124446980655193">
<ele>206.79999999999995</ele>
<time>2023-05-18T09:45:52Z</time>
</trkpt>
<trkpt lat="49.309559958055615" lon="8.124521998688579">
<ele>206.60000000000002</ele>
<time>2023-05-18T09:45:53Z</time>
</trkpt>
<trkpt lat="49.30959298275411" lon="8.124581929296255">
<ele>206.60000000000002</ele>
<time>2023-05-18T09:45:54Z</time>
</trkpt>
<trkpt lat="49.3096299469471" lon="8.124642949551344">
<ele>206.60000000000002</ele>
<time>2023-05-18T09:45:55Z</time>
</trkpt>
<trkpt lat="49.30966196581721" lon="8.124707993119955">
<ele>206.39999999999998</ele>
<time>2023-05-18T09:45:56Z</time>
</trkpt>
<trkpt lat="49.30969297885895" lon="8.124771947041154">
<ele>206.39999999999998</ele>
<time>2023-05-18T09:45:57Z</time>
</trkpt>
<trkpt lat="49.3097229860723" lon="8.124844953417778">
<ele>206.39999999999998</ele>
<time>2023-05-18T09:45:58Z</time>
</trkpt>
<trkpt lat="49.30975693278015" lon="8.124919971451163">
<ele>206.20000000000005</ele>
<time>2023-05-18T09:45:59Z</time>
</trkpt>
<trkpt lat="49.309791969135404" lon="8.124992977827787">
<ele>206.20000000000005</ele>
<time>2023-05-18T09:46:00Z</time>
</trkpt>
<trkpt lat="49.30982692167163" lon="8.125067995861173">
<ele>206</ele>
<time>2023-05-18T09:46:01Z</time>
</trkpt>
<trkpt lat="49.309861958026886" lon="8.125141924247146">
<ele>206</ele>
<time>2023-05-18T09:46:02Z</time>
</trkpt>
<trkpt lat="49.30989791639149" lon="8.125216942280531">
<ele>205.79999999999995</ele>
<time>2023-05-18T09:46:03Z</time>
</trkpt>
<trkpt lat="49.30993496440351" lon="8.125294977799058">
<ele>205.79999999999995</ele>
<time>2023-05-18T09:46:04Z</time>
</trkpt>
<trkpt lat="49.3099769577384" lon="8.125367984175682">
<ele>205.60000000000002</ele>
<time>2023-05-18T09:46:05Z</time>
</trkpt>
<trkpt lat="49.31001794524491" lon="8.125441996380687">
<ele>205.39999999999998</ele>
<time>2023-05-18T09:46:06Z</time>
</trkpt>
<trkpt lat="49.31006195023656" lon="8.125509973615408">
<ele>205.39999999999998</ele>
<time>2023-05-18T09:46:07Z</time>
</trkpt>
<trkpt lat="49.31010494939983" lon="8.12557795085013">
<ele>205.20000000000005</ele>
<time>2023-05-18T09:46:08Z</time>
</trkpt>
<trkpt lat="49.31014694273472" lon="8.125646933913231">
<ele>205</ele>
<time>2023-05-18T09:46:09Z</time>
</trkpt>
<trkpt lat="49.31018793024123" lon="8.125712983310223">
<ele>205</ele>
<time>2023-05-18T09:46:10Z</time>
</trkpt>
<trkpt lat="49.31023193523288" lon="8.125777943059802">
<ele>204.79999999999995</ele>
<time>2023-05-18T09:46:11Z</time>
</trkpt>
<trkpt lat="49.31027493439615" lon="8.12583795748651">
<ele>204.60000000000002</ele>
<time>2023-05-18T09:46:12Z</time>
</trkpt>
<trkpt lat="49.31031499989331" lon="8.125891936942935">
<ele>204.60000000000002</ele>
<time>2023-05-18T09:46:13Z</time>
</trkpt>
<trkpt lat="49.31034995242953" lon="8.125937953591347">
<ele>204.39999999999998</ele>
<time>2023-05-18T09:46:14Z</time>
</trkpt>
<trkpt lat="49.31038297712803" lon="8.125976929441094">
<ele>204.20000000000005</ele>
<time>2023-05-18T09:46:15Z</time>
</trkpt>
<trkpt lat="49.31041298434138" lon="8.126014983281493">
<ele>204</ele>
<time>2023-05-18T09:46:16Z</time>
</trkpt>
<trkpt lat="49.31044693104923" lon="8.126049935817719">
<ele>204</ele>
<time>2023-05-18T09:46:17Z</time>
</trkpt>
<trkpt lat="49.310481967404485" lon="8.126082960516214">
<ele>203.79999999999995</ele>
<time>2023-05-18T09:46:18Z</time>
</trkpt>
<trkpt lat="49.31051691994071" lon="8.126109950244427">
<ele>203.79999999999995</ele>
<time>2023-05-18T09:46:19Z</time>
</trkpt>
<trkpt lat="49.31055195629597" lon="8.126127971336246">
<ele>203.79999999999995</ele>
<time>2023-05-18T09:46:20Z</time>
</trkpt>
<trkpt lat="49.310589926317334" lon="8.126142974942923">
<ele>203.60000000000002</ele>
<time>2023-05-18T09:46:21Z</time>
</trkpt>
<trkpt lat="49.31062697432935" lon="8.126156972721219">
<ele>203.60000000000002</ele>
<time>2023-05-18T09:46:22Z</time>
</trkpt>
<trkpt lat="49.31065798737109" lon="8.12616191804409">
<ele>203.60000000000002</ele>
<time>2023-05-18T09:46:23Z</time>
</trkpt>
<trkpt lat="49.31068799458444" lon="8.12616191804409">
<ele>203.60000000000002</ele>
<time>2023-05-18T09:46:24Z</time>
</trkpt>
<trkpt lat="49.310716995969415" lon="8.126166947185993">
<ele>203.60000000000002</ele>
<time>2023-05-18T09:46:25Z</time>
</trkpt>
<trkpt lat="49.31074691936374" lon="8.126171976327896">
<ele>203.60000000000002</ele>
<time>2023-05-18T09:46:26Z</time>
</trkpt>
<trkpt lat="49.31077499873936" lon="8.126177927479148">
<ele>203.60000000000002</ele>
<time>2023-05-18T09:46:27Z</time>
</trkpt>
<trkpt lat="49.310801988467574" lon="8.12618295662105">
<ele>203.60000000000002</ele>
<time>2023-05-18T09:46:28Z</time>
</trkpt>
<trkpt lat="49.31082998402417" lon="8.126187985762954">
<ele>203.60000000000002</ele>
<time>2023-05-18T09:46:29Z</time>
</trkpt>
<trkpt lat="49.31085697375238" lon="8.126197960227728">
<ele>203.60000000000002</ele>
<time>2023-05-18T09:46:30Z</time>
</trkpt>
<trkpt lat="49.31088295765221" lon="8.126214975491166">
<ele>203.60000000000002</ele>
<time>2023-05-18T09:46:31Z</time>
</trkpt>
<trkpt lat="49.31090692989528" lon="8.126236936077476">
<ele>203.60000000000002</ele>
<time>2023-05-18T09:46:32Z</time>
</trkpt>
<trkpt lat="49.31092293933034" lon="8.12626694329083">
<ele>203.39999999999998</ele>
<time>2023-05-18T09:46:33Z</time>
</trkpt>
<trkpt lat="49.31093794293702" lon="8.126306924968958">
<ele>203.39999999999998</ele>
<time>2023-05-18T09:46:34Z</time>
</trkpt>
<trkpt lat="49.31094297207892" lon="8.12635294161737">
<ele>203.39999999999998</ele>
<time>2023-05-18T09:46:35Z</time>
</trkpt>
<trkpt lat="49.310936937108636" lon="8.126402981579304">
<ele>203.20000000000005</ele>
<time>2023-05-18T09:46:36Z</time>
</trkpt>
<trkpt lat="49.31092696264386" lon="8.126454949378967">
<ele>203.20000000000005</ele>
<time>2023-05-18T09:46:37Z</time>
</trkpt>
<trkpt lat="49.31091497652233" lon="8.126507923007011">
<ele>203</ele>
<time>2023-05-18T09:46:38Z</time>
</trkpt>
<trkpt lat="49.31090994738042" lon="8.126564919948578">
<ele>203</ele>
<time>2023-05-18T09:46:39Z</time>
</trkpt>
<trkpt lat="49.31091799400747" lon="8.12661294825375">
<ele>202.79999999999995</ele>
<time>2023-05-18T09:46:40Z</time>
</trkpt>
<trkpt lat="49.310936937108636" lon="8.126652929931879">
<ele>202.79999999999995</ele>
<time>2023-05-18T09:46:41Z</time>
</trkpt>
<trkpt lat="49.31096493266523" lon="8.126681931316853">
<ele>202.60000000000002</ele>
<time>2023-05-18T09:46:42Z</time>
</trkpt>
<trkpt lat="49.310996951535344" lon="8.126701964065433">
<ele>202.60000000000002</ele>
<time>2023-05-18T09:46:43Z</time>
</trkpt>
<trkpt lat="49.3110319878906" lon="8.126719985157251">
<ele>202.60000000000002</ele>
<time>2023-05-18T09:46:44Z</time>
</trkpt>
<trkpt lat="49.31106794625521" lon="8.126734988763928">
<ele>202.60000000000002</ele>
<time>2023-05-18T09:46:45Z</time>
</trkpt>
<trkpt lat="49.311104994267225" lon="8.126749992370605">
<ele>202.60000000000002</ele>
<time>2023-05-18T09:46:46Z</time>
</trkpt>
<trkpt lat="49.31114497594535" lon="8.126764995977283">
<ele>202.60000000000002</ele>
<time>2023-05-18T09:46:47Z</time>
</trkpt>
<trkpt lat="49.31118495762348" lon="8.126781927421689">
<ele>202.79999999999995</ele>
<time>2023-05-18T09:46:48Z</time>
</trkpt>
<trkpt lat="49.31122493930161" lon="8.126799948513508">
<ele>202.79999999999995</ele>
<time>2023-05-18T09:46:49Z</time>
</trkpt>
<trkpt lat="49.3112669326365" lon="8.126817969605327">
<ele>202.79999999999995</ele>
<time>2023-05-18T09:46:50Z</time>
</trkpt>
<trkpt lat="49.31130792014301" lon="8.126836996525526">
<ele>203</ele>
<time>2023-05-18T09:46:51Z</time>
</trkpt>
<trkpt lat="49.31134999729693" lon="8.126849988475442">
<ele>203</ele>
<time>2023-05-18T09:46:52Z</time>
</trkpt>
<trkpt lat="49.31139199063182" lon="8.126864992082119">
<ele>203</ele>
<time>2023-05-18T09:46:53Z</time>
</trkpt>
<trkpt lat="49.31143498979509" lon="8.126876978203654">
<ele>203</ele>
<time>2023-05-18T09:46:54Z</time>
</trkpt>
<trkpt lat="49.31147798895836" lon="8.126887958496809">
<ele>203.20000000000005</ele>
<time>2023-05-18T09:46:55Z</time>
</trkpt>
<trkpt lat="49.31151998229325" lon="8.126899944618344">
<ele>203.20000000000005</ele>
<time>2023-05-18T09:46:56Z</time>
</trkpt>
<trkpt lat="49.31156197562814" lon="8.126914948225021">
<ele>203.39999999999998</ele>
<time>2023-05-18T09:46:57Z</time>
</trkpt>
<trkpt lat="49.311599945649505" lon="8.126926934346557">
<ele>203.39999999999998</ele>
<time>2023-05-18T09:46:58Z</time>
</trkpt>
<trkpt lat="49.31163992732763" lon="8.126936992630363">
<ele>203.60000000000002</ele>
<time>2023-05-18T09:46:59Z</time>
</trkpt>
<trkpt lat="49.31167798116803" lon="8.126946967095137">
<ele>203.60000000000002</ele>
<time>2023-05-18T09:47:00Z</time>
</trkpt>
<trkpt lat="49.31171695701778" lon="8.126957947388291">
<ele>203.79999999999995</ele>
<time>2023-05-18T09:47:01Z</time>
</trkpt>
<trkpt lat="49.31175693869591" lon="8.126969933509827">
<ele>204</ele>
<time>2023-05-18T09:47:02Z</time>
</trkpt>
<trkpt lat="49.311794992536306" lon="8.126981919631362">
<ele>204.20000000000005</ele>
<time>2023-05-18T09:47:03Z</time>
</trkpt>
<trkpt lat="49.31182994507253" lon="8.12699499540031">
<ele>204.39999999999998</ele>
<time>2023-05-18T09:47:04Z</time>
</trkpt>
<trkpt lat="49.31186498142779" lon="8.127007987350225">
<ele>204.60000000000002</ele>
<time>2023-05-18T09:47:05Z</time>
</trkpt>
<trkpt lat="49.311901945620775" lon="8.127022990956903">
<ele>204.60000000000002</ele>
<time>2023-05-18T09:47:06Z</time>
</trkpt>
<trkpt lat="49.311939999461174" lon="8.127039922401309">
<ele>204.79999999999995</ele>
<time>2023-05-18T09:47:07Z</time>
</trkpt>
<trkpt lat="49.31197696365416" lon="8.127056937664747">
<ele>204.79999999999995</ele>
<time>2023-05-18T09:47:08Z</time>
</trkpt>
<trkpt lat="49.31201493367553" lon="8.127074958756566">
<ele>205</ele>
<time>2023-05-18T09:47:09Z</time>
</trkpt>
<trkpt lat="49.31204795837402" lon="8.127087950706482">
<ele>205.20000000000005</ele>
<time>2023-05-18T09:47:10Z</time>
</trkpt>
<trkpt lat="49.312074948102236" lon="8.127097925171256">
<ele>205.20000000000005</ele>
<time>2023-05-18T09:47:11Z</time>
</trkpt>
<trkpt lat="49.31209699250758" lon="8.127106977626681">
<ele>205.39999999999998</ele>
<time>2023-05-18T09:47:12Z</time>
</trkpt>
<trkpt lat="49.312117947265506" lon="8.127112928777933">
<ele>205.39999999999998</ele>
<time>2023-05-18T09:47:13Z</time>
</trkpt>
<trkpt lat="49.312134962528944" lon="8.127116952091455">
<ele>205.60000000000002</ele>
<time>2023-05-18T09:47:14Z</time>
</trkpt>
<trkpt lat="49.31214996613562" lon="8.127119969576597">
<ele>205.60000000000002</ele>
<time>2023-05-18T09:47:15Z</time>
</trkpt>
<trkpt lat="49.31216295808554" lon="8.127122987061739">
<ele>205.79999999999995</ele>
<time>2023-05-18T09:47:16Z</time>
</trkpt>
<trkpt lat="49.31217293255031" lon="8.1271249987185">
<ele>205.79999999999995</ele>
<time>2023-05-18T09:47:17Z</time>
</trkpt>
<trkpt lat="49.312181985005736" lon="8.12712793238461">
<ele>205.79999999999995</ele>
<time>2023-05-18T09:47:18Z</time>
</trkpt>
<trkpt lat="49.31218693032861" lon="8.127129944041371">
<ele>205.79999999999995</ele>
<time>2023-05-18T09:47:19Z</time>
</trkpt>
<trkpt lat="49.31218793615699" lon="8.127131955698133">
<ele>206</ele>
<time>2023-05-18T09:47:20Z</time>
</trkpt>
<trkpt lat="49.31218994781375" lon="8.127131955698133">
<ele>206</ele>
<time>2023-05-18T09:47:21Z</time>
</trkpt>
<trkpt lat="49.31223797611892" lon="8.127181995660067">
<ele>206</ele>
<time>2023-05-18T09:47:21Z</time>
</trkpt>
<trkpt lat="49.31225499138236" lon="8.12718995846808">
<ele>206</ele>
<time>2023-05-18T09:47:22Z</time>
</trkpt>
<trkpt lat="49.31227795779705" lon="8.127197921276093">
<ele>206</ele>
<time>2023-05-18T09:47:23Z</time>
</trkpt>
<trkpt lat="49.312306959182024" lon="8.127204962074757">
<ele>206</ele>
<time>2023-05-18T09:47:24Z</time>
</trkpt>
<trkpt lat="49.31233696639538" lon="8.12721292488277">
<ele>206</ele>
<time>2023-05-18T09:47:25Z</time>
</trkpt>
<trkpt lat="49.3123719189316" lon="8.127227928489447">
<ele>206.20000000000005</ele>
<time>2023-05-18T09:47:26Z</time>
</trkpt>
<trkpt lat="49.31240796111524" lon="8.127244943752885">
<ele>206.20000000000005</ele>
<time>2023-05-18T09:47:27Z</time>
</trkpt>
<trkpt lat="49.31244794279337" lon="8.127266988158226">
<ele>206.39999999999998</ele>
<time>2023-05-18T09:47:28Z</time>
</trkpt>
<trkpt lat="49.31249194778502" lon="8.127284925431013">
<ele>206.39999999999998</ele>
<time>2023-05-18T09:47:29Z</time>
</trkpt>
<trkpt lat="49.31253494694829" lon="8.127302946522832">
<ele>206.39999999999998</ele>
<time>2023-05-18T09:47:30Z</time>
</trkpt>
<trkpt lat="49.31257995776832" lon="8.12731996178627">
<ele>206.60000000000002</ele>
<time>2023-05-18T09:47:31Z</time>
</trkpt>
<trkpt lat="49.312627986073494" lon="8.127336977049708">
<ele>206.60000000000002</ele>
<time>2023-05-18T09:47:32Z</time>
</trkpt>
<trkpt lat="49.31267995387316" lon="8.127352986484766">
<ele>206.60000000000002</ele>
<time>2023-05-18T09:47:33Z</time>
</trkpt>
<trkpt lat="49.31272999383509" lon="8.127371929585934">
<ele>206.60000000000002</ele>
<time>2023-05-18T09:47:34Z</time>
</trkpt>
<trkpt lat="49.312779949977994" lon="8.127391962334514">
<ele>206.79999999999995</ele>
<time>2023-05-18T09:47:35Z</time>
</trkpt>
<trkpt lat="49.31282797828317" lon="8.127417946234345">
<ele>206.79999999999995</ele>
<time>2023-05-18T09:47:36Z</time>
</trkpt>
<trkpt lat="49.31287491694093" lon="8.1274479534477">
<ele>206.79999999999995</ele>
<time>2023-05-18T09:47:37Z</time>
</trkpt>
<trkpt lat="49.31292193941772" lon="8.127486929297447">
<ele>206.79999999999995</ele>
<time>2023-05-18T09:47:38Z</time>
</trkpt>
<trkpt lat="49.31296996772289" lon="8.127517942339182">
<ele>206.79999999999995</ele>
<time>2023-05-18T09:47:39Z</time>
</trkpt>
<trkpt lat="49.313019923865795" lon="8.127551972866058">
<ele>206.60000000000002</ele>
<time>2023-05-18T09:47:40Z</time>
</trkpt>
<trkpt lat="49.31306996382773" lon="8.127584997564554">
<ele>206.60000000000002</ele>
<time>2023-05-18T09:47:41Z</time>
</trkpt>
<trkpt lat="49.31311991997063" lon="8.12761995010078">
<ele>206.60000000000002</ele>
<time>2023-05-18T09:47:42Z</time>
</trkpt>
<trkpt lat="49.313167948275805" lon="8.127656998112798">
<ele>206.60000000000002</ele>
<time>2023-05-18T09:47:43Z</time>
</trkpt>
<trkpt lat="49.31321798823774" lon="8.1276879273355">
<ele>206.39999999999998</ele>
<time>2023-05-18T09:47:44Z</time>
</trkpt>
<trkpt lat="49.31326693855226" lon="8.127717934548855">
<ele>206.39999999999998</ele>
<time>2023-05-18T09:47:45Z</time>
</trkpt>
<trkpt lat="49.31331496685743" lon="8.127747941762209">
<ele>206.20000000000005</ele>
<time>2023-05-18T09:47:46Z</time>
</trkpt>
<trkpt lat="49.313361989334226" lon="8.127779960632324">
<ele>206</ele>
<time>2023-05-18T09:47:47Z</time>
</trkpt>
<trkpt lat="49.31340993382037" lon="8.12781197950244">
<ele>205.79999999999995</ele>
<time>2023-05-18T09:47:48Z</time>
</trkpt>
<trkpt lat="49.3134599737823" lon="8.127841986715794">
<ele>205.79999999999995</ele>
<time>2023-05-18T09:47:49Z</time>
</trkpt>
<trkpt lat="49.313511941581964" lon="8.127872999757528">
<ele>205.60000000000002</ele>
<time>2023-05-18T09:47:50Z</time>
</trkpt>
<trkpt lat="49.31356499902904" lon="8.12790292315185">
<ele>205.39999999999998</ele>
<time>2023-05-18T09:47:51Z</time>
</trkpt>
<trkpt lat="49.313616966828704" lon="8.127934942021966">
<ele>205.20000000000005</ele>
<time>2023-05-18T09:47:52Z</time>
</trkpt>
<trkpt lat="49.313662983477116" lon="8.12796494923532">
<ele>205</ele>
<time>2023-05-18T09:47:53Z</time>
</trkpt>
<trkpt lat="49.313709922134876" lon="8.127994956448674">
<ele>205</ele>
<time>2023-05-18T09:47:54Z</time>
</trkpt>
<trkpt lat="49.31375694461167" lon="8.128024963662028">
<ele>205</ele>
<time>2023-05-18T09:47:55Z</time>
</trkpt>
<trkpt lat="49.3138069845736" lon="8.128052959218621">
<ele>204.79999999999995</ele>
<time>2023-05-18T09:47:56Z</time>
</trkpt>
<trkpt lat="49.31385995820165" lon="8.12807491980493">
<ele>204.79999999999995</ele>
<time>2023-05-18T09:47:57Z</time>
</trkpt>
<trkpt lat="49.31391293182969" lon="8.128096964210272">
<ele>204.79999999999995</ele>
<time>2023-05-18T09:47:58Z</time>
</trkpt>
<trkpt lat="49.313964983448386" lon="8.128116996958852">
<ele>204.79999999999995</ele>
<time>2023-05-18T09:47:59Z</time>
</trkpt>
<trkpt lat="49.31401695124805" lon="8.1281369458884">
<ele>204.79999999999995</ele>
<time>2023-05-18T09:48:00Z</time>
</trkpt>
<trkpt lat="49.314067997038364" lon="8.12815697863698">
<ele>204.79999999999995</ele>
<time>2023-05-18T09:48:01Z</time>
</trkpt>
<trkpt lat="49.314116947352886" lon="8.128176927566528">
<ele>205</ele>
<time>2023-05-18T09:48:02Z</time>
</trkpt>
<trkpt lat="49.3141629640013" lon="8.128196960315108">
<ele>205</ele>
<time>2023-05-18T09:48:03Z</time>
</trkpt>
<trkpt lat="49.31420696899295" lon="8.128212969750166">
<ele>205</ele>
<time>2023-05-18T09:48:04Z</time>
</trkpt>
<trkpt lat="49.31424795649946" lon="8.128229985013604">
<ele>205</ele>
<time>2023-05-18T09:48:05Z</time>
</trkpt>
<trkpt lat="49.31429196149111" lon="8.12824691645801">
<ele>205</ele>
<time>2023-05-18T09:48:06Z</time>
</trkpt>
<trkpt lat="49.31433294899762" lon="8.128261920064688">
<ele>205.20000000000005</ele>
<time>2023-05-18T09:48:07Z</time>
</trkpt>
<trkpt lat="49.31437695398927" lon="8.128274995833635">
<ele>205.20000000000005</ele>
<time>2023-05-18T09:48:08Z</time>
</trkpt>
<trkpt lat="49.3144219648093" lon="8.12828698195517">
<ele>205.20000000000005</ele>
<time>2023-05-18T09:48:09Z</time>
</trkpt>
<trkpt lat="49.31446697562933" lon="8.128301985561848">
<ele>205.39999999999998</ele>
<time>2023-05-18T09:48:10Z</time>
</trkpt>
<trkpt lat="49.31451299227774" lon="8.128319922834635">
<ele>205.39999999999998</ele>
<time>2023-05-18T09:48:11Z</time>
</trkpt>
<trkpt lat="49.31456194259226" lon="8.128337943926454">
<ele>205.60000000000002</ele>
<time>2023-05-18T09:48:12Z</time>
</trkpt>
<trkpt lat="49.314607959240675" lon="8.128356970846653">
<ele>205.79999999999995</ele>
<time>2023-05-18T09:48:13Z</time>
</trkpt>
<trkpt lat="49.31465699337423" lon="8.12837197445333">
<ele>205.79999999999995</ele>
<time>2023-05-18T09:48:14Z</time>
</trkpt>
<trkpt lat="49.31470292620361" lon="8.128384966403246">
<ele>206</ele>
<time>2023-05-18T09:48:15Z</time>
</trkpt>
<trkpt lat="49.31474793702364" lon="8.12839494086802">
<ele>206</ele>
<time>2023-05-18T09:48:16Z</time>
</trkpt>
<trkpt lat="49.31479294784367" lon="8.128406926989555">
<ele>206.20000000000005</ele>
<time>2023-05-18T09:48:17Z</time>
</trkpt>
<trkpt lat="49.31483997032046" lon="8.128417991101742">
<ele>206.20000000000005</ele>
<time>2023-05-18T09:48:18Z</time>
</trkpt>
<trkpt lat="49.314886992797256" lon="8.128431988880038">
<ele>206.20000000000005</ele>
<time>2023-05-18T09:48:19Z</time>
</trkpt>
<trkpt lat="49.3149349372834" lon="8.128441963344812">
<ele>206.20000000000005</ele>
<time>2023-05-18T09:48:20Z</time>
</trkpt>
<trkpt lat="49.31498195976019" lon="8.128452943637967">
<ele>206.20000000000005</ele>
<time>2023-05-18T09:48:21Z</time>
</trkpt>
<trkpt lat="49.31502998806536" lon="8.128464929759502">
<ele>206.20000000000005</ele>
<time>2023-05-18T09:48:22Z</time>
</trkpt>
<trkpt lat="49.315081955865026" lon="8.12847699970007">
<ele>206.20000000000005</ele>
<time>2023-05-18T09:48:23Z</time>
</trkpt>
<trkpt lat="49.31513199582696" lon="8.128487979993224">
<ele>206.20000000000005</ele>
<time>2023-05-18T09:48:24Z</time>
</trkpt>
<trkpt lat="49.31518295779824" lon="8.128497954457998">
<ele>206.20000000000005</ele>
<time>2023-05-18T09:48:25Z</time>
</trkpt>
<trkpt lat="49.315234925597906" lon="8.128507928922772">
<ele>206.20000000000005</ele>
<time>2023-05-18T09:48:26Z</time>
</trkpt>
<trkpt lat="49.31528496555984" lon="8.128516981378198">
<ele>206.20000000000005</ele>
<time>2023-05-18T09:48:27Z</time>
</trkpt>
<trkpt lat="49.31533492170274" lon="8.12852293252945">
<ele>206.20000000000005</ele>
<time>2023-05-18T09:48:28Z</time>
</trkpt>
<trkpt lat="49.31538496166468" lon="8.128532990813255">
<ele>206.20000000000005</ele>
<time>2023-05-18T09:48:29Z</time>
</trkpt>
<trkpt lat="49.31543491780758" lon="8.128541959449649">
<ele>206</ele>
<time>2023-05-18T09:48:30Z</time>
</trkpt>
<trkpt lat="49.315486969426274" lon="8.128547994419932">
<ele>206</ele>
<time>2023-05-18T09:48:31Z</time>
</trkpt>
<trkpt lat="49.31553692556918" lon="8.128547994419932">
<ele>206</ele>
<time>2023-05-18T09:48:32Z</time>
</trkpt>
<trkpt lat="49.31558696553111" lon="8.128547994419932">
<ele>206</ele>
<time>2023-05-18T09:48:33Z</time>
</trkpt>
<trkpt lat="49.315634993836284" lon="8.128547994419932">
<ele>206</ele>
<time>2023-05-18T09:48:34Z</time>
</trkpt>
<trkpt lat="49.315684949979186" lon="8.128549922257662">
<ele>206</ele>
<time>2023-05-18T09:48:35Z</time>
</trkpt>
<trkpt lat="49.31573993526399" lon="8.128546988591552">
<ele>206</ele>
<time>2023-05-18T09:48:36Z</time>
</trkpt>
<trkpt lat="49.31579198688269" lon="8.128537936136127">
<ele>205.79999999999995</ele>
<time>2023-05-18T09:48:37Z</time>
</trkpt>
<trkpt lat="49.31584697216749" lon="8.128527961671352">
<ele>205.79999999999995</ele>
<time>2023-05-18T09:48:38Z</time>
</trkpt>
<trkpt lat="49.315899945795536" lon="8.128514969721437">
<ele>205.60000000000002</ele>
<time>2023-05-18T09:48:39Z</time>
</trkpt>
<trkpt lat="49.31595493108034" lon="8.128506923094392">
<ele>205.39999999999998</ele>
<time>2023-05-18T09:48:40Z</time>
</trkpt>
<trkpt lat="49.31600798852742" lon="8.128506923094392">
<ele>205.20000000000005</ele>
<time>2023-05-18T09:48:41Z</time>
</trkpt>
<trkpt lat="49.31605995632708" lon="8.128514969721437">
<ele>205</ele>
<time>2023-05-18T09:48:42Z</time>
</trkpt>
<trkpt lat="49.316111924126744" lon="8.128534918650985">
<ele>204.79999999999995</ele>
<time>2023-05-18T09:48:43Z</time>
</trkpt>
<trkpt lat="49.31615995243192" lon="8.128557968884706">
<ele>204.60000000000002</ele>
<time>2023-05-18T09:48:44Z</time>
</trkpt>
<trkpt lat="49.31620999239385" lon="8.128582946956158">
<ele>204.39999999999998</ele>
<time>2023-05-18T09:48:45Z</time>
</trkpt>
<trkpt lat="49.31625793687999" lon="8.128607925027609">
<ele>204.20000000000005</ele>
<time>2023-05-18T09:48:46Z</time>
</trkpt>
<trkpt lat="49.316306971013546" lon="8.12862996943295">
<ele>204</ele>
<time>2023-05-18T09:48:47Z</time>
</trkpt>
<trkpt lat="49.31635298766196" lon="8.128649918362498">
<ele>204</ele>
<time>2023-05-18T09:48:48Z</time>
</trkpt>
<trkpt lat="49.31639992631972" lon="8.128669951111078">
<ele>203.79999999999995</ele>
<time>2023-05-18T09:48:49Z</time>
</trkpt>
<trkpt lat="49.31644493713975" lon="8.12869199551642">
<ele>203.79999999999995</ele>
<time>2023-05-18T09:48:50Z</time>
</trkpt>
<trkpt lat="49.31648994795978" lon="8.128712950274348">
<ele>203.60000000000002</ele>
<time>2023-05-18T09:48:51Z</time>
</trkpt>
<trkpt lat="49.31653697043657" lon="8.12873499467969">
<ele>203.60000000000002</ele>
<time>2023-05-18T09:48:52Z</time>
</trkpt>
<trkpt lat="49.316584998741746" lon="8.128754943609238">
<ele>203.39999999999998</ele>
<time>2023-05-18T09:48:53Z</time>
</trkpt>
<trkpt lat="49.31663495488465" lon="8.128774976357818">
<ele>203.39999999999998</ele>
<time>2023-05-18T09:48:54Z</time>
</trkpt>
<trkpt lat="49.31668692268431" lon="8.128791991621256">
<ele>203.20000000000005</ele>
<time>2023-05-18T09:48:55Z</time>
</trkpt>
<trkpt lat="49.31673796847463" lon="8.128804983571172">
<ele>203.20000000000005</ele>
<time>2023-05-18T09:48:56Z</time>
</trkpt>
<trkpt lat="49.31679194793105" lon="8.128812946379185">
<ele>203.20000000000005</ele>
<time>2023-05-18T09:48:57Z</time>
</trkpt>
<trkpt lat="49.316842993721366" lon="8.12882199883461">
<ele>203.20000000000005</ele>
<time>2023-05-18T09:48:58Z</time>
</trkpt>
<trkpt lat="49.31689294986427" lon="8.128827949985862">
<ele>203.20000000000005</ele>
<time>2023-05-18T09:48:59Z</time>
</trkpt>
<trkpt lat="49.31694198399782" lon="8.128834990784526">
<ele>203.20000000000005</ele>
<time>2023-05-18T09:49:00Z</time>
</trkpt>
<trkpt lat="49.316991940140724" lon="8.128839936107397">
<ele>203.20000000000005</ele>
<time>2023-05-18T09:49:01Z</time>
</trkpt>
<trkpt lat="49.31704298593104" lon="8.128849994391203">
<ele>203.20000000000005</ele>
<time>2023-05-18T09:49:02Z</time>
</trkpt>
<trkpt lat="49.31709193624556" lon="8.128862986341119">
<ele>203.20000000000005</ele>
<time>2023-05-18T09:49:03Z</time>
</trkpt>
<trkpt lat="49.317141976207495" lon="8.128877989947796">
<ele>203.20000000000005</ele>
<time>2023-05-18T09:49:04Z</time>
</trkpt>
<trkpt lat="49.317189920693636" lon="8.128897938877344">
<ele>203.20000000000005</ele>
<time>2023-05-18T09:49:05Z</time>
</trkpt>
<trkpt lat="49.31723493151367" lon="8.128921994939446">
<ele>203.20000000000005</ele>
<time>2023-05-18T09:49:06Z</time>
</trkpt>
<trkpt lat="49.31728195399046" lon="8.128944961354136">
<ele>203.20000000000005</ele>
<time>2023-05-18T09:49:07Z</time>
</trkpt>
<trkpt lat="49.31732495315373" lon="8.128969939425588">
<ele>203.20000000000005</ele>
<time>2023-05-18T09:49:08Z</time>
</trkpt>
<trkpt lat="49.31736694648862" lon="8.12899298965931">
<ele>203.20000000000005</ele>
<time>2023-05-18T09:49:09Z</time>
</trkpt>
<trkpt lat="49.31740692816675" lon="8.12901696190238">
<ele>203.39999999999998</ele>
<time>2023-05-18T09:49:10Z</time>
</trkpt>
<trkpt lat="49.31744699366391" lon="8.129044957458973">
<ele>203.39999999999998</ele>
<time>2023-05-18T09:49:11Z</time>
</trkpt>
<trkpt lat="49.317487981170416" lon="8.129074964672327">
<ele>203.39999999999998</ele>
<time>2023-05-18T09:49:12Z</time>
</trkpt>
<trkpt lat="49.317529974505305" lon="8.12910296022892">
<ele>203.39999999999998</ele>
<time>2023-05-18T09:49:13Z</time>
</trkpt>
<trkpt lat="49.31756693869829" lon="8.129132967442274">
<ele>203.60000000000002</ele>
<time>2023-05-18T09:49:14Z</time>
</trkpt>
<trkpt lat="49.31760499253869" lon="8.12916498631239">
<ele>203.60000000000002</ele>
<time>2023-05-18T09:49:15Z</time>
</trkpt>
<trkpt lat="49.31764195673168" lon="8.129194993525743">
<ele>203.60000000000002</ele>
<time>2023-05-18T09:49:16Z</time>
</trkpt>
<trkpt lat="49.317679926753044" lon="8.129222989082336">
<ele>203.79999999999995</ele>
<time>2023-05-18T09:49:17Z</time>
</trkpt>
<trkpt lat="49.31771697476506" lon="8.129249978810549">
<ele>203.79999999999995</ele>
<time>2023-05-18T09:49:18Z</time>
</trkpt>
<trkpt lat="49.31775293312967" lon="8.129276968538761">
<ele>204</ele>
<time>2023-05-18T09:49:19Z</time>
</trkpt>
<trkpt lat="49.317787969484925" lon="8.129302952438593">
<ele>204</ele>
<time>2023-05-18T09:49:20Z</time>
</trkpt>
<trkpt lat="49.31782493367791" lon="8.129327930510044">
<ele>204.20000000000005</ele>
<time>2023-05-18T09:49:21Z</time>
</trkpt>
<trkpt lat="49.31785997003317" lon="8.129351986572146">
<ele>204.39999999999998</ele>
<time>2023-05-18T09:49:22Z</time>
</trkpt>
<trkpt lat="49.317894922569394" lon="8.129374952986836">
<ele>204.39999999999998</ele>
<time>2023-05-18T09:49:23Z</time>
</trkpt>
<trkpt lat="49.31792995892465" lon="8.129399931058288">
<ele>204.60000000000002</ele>
<time>2023-05-18T09:49:24Z</time>
</trkpt>
<trkpt lat="49.31796499527991" lon="8.129421975463629">
<ele>204.79999999999995</ele>
<time>2023-05-18T09:49:25Z</time>
</trkpt>
<trkpt lat="49.31799994781613" lon="8.12944695353508">
<ele>204.79999999999995</ele>
<time>2023-05-18T09:49:26Z</time>
</trkpt>
<trkpt lat="49.31803498417139" lon="8.12946991994977">
<ele>205</ele>
<time>2023-05-18T09:49:27Z</time>
</trkpt>
<trkpt lat="49.31807194836438" lon="8.129492970183492">
<ele>205.20000000000005</ele>
<time>2023-05-18T09:49:28Z</time>
</trkpt>
<trkpt lat="49.318109918385744" lon="8.129516942426562">
<ele>205.20000000000005</ele>
<time>2023-05-18T09:49:29Z</time>
</trkpt>
<trkpt lat="49.31814696639776" lon="8.129539992660284">
<ele>205.20000000000005</ele>
<time>2023-05-18T09:49:30Z</time>
</trkpt>
<trkpt lat="49.31818292476237" lon="8.129557929933071">
<ele>205.20000000000005</ele>
<time>2023-05-18T09:49:31Z</time>
</trkpt>
<trkpt lat="49.31822198443115" lon="8.12957494519651">
<ele>205.39999999999998</ele>
<time>2023-05-18T09:49:32Z</time>
</trkpt>
<trkpt lat="49.318259954452515" lon="8.129591960459948">
<ele>205.39999999999998</ele>
<time>2023-05-18T09:49:33Z</time>
</trkpt>
<trkpt lat="49.3182969186455" lon="8.129611993208528">
<ele>205.39999999999998</ele>
<time>2023-05-18T09:49:34Z</time>
</trkpt>
<trkpt lat="49.31833296082914" lon="8.129632947966456">
<ele>205.60000000000002</ele>
<time>2023-05-18T09:49:35Z</time>
</trkpt>
<trkpt lat="49.318371936678886" lon="8.129651974886656">
<ele>205.60000000000002</ele>
<time>2023-05-18T09:49:36Z</time>
</trkpt>
<trkpt lat="49.318411918357015" lon="8.129666978493333">
<ele>205.60000000000002</ele>
<time>2023-05-18T09:49:37Z</time>
</trkpt>
<trkpt lat="49.318451983854175" lon="8.12968198210001">
<ele>205.60000000000002</ele>
<time>2023-05-18T09:49:38Z</time>
</trkpt>
<trkpt lat="49.31848995387554" lon="8.129697991535068">
<ele>205.60000000000002</ele>
<time>2023-05-18T09:49:39Z</time>
</trkpt>
<trkpt lat="49.31852691806853" lon="8.129716934636235">
<ele>205.60000000000002</ele>
<time>2023-05-18T09:49:40Z</time>
</trkpt>
<trkpt lat="49.318562960252166" lon="8.129732944071293">
<ele>205.60000000000002</ele>
<time>2023-05-18T09:49:41Z</time>
</trkpt>
<trkpt lat="49.31860193610191" lon="8.12974794767797">
<ele>205.60000000000002</ele>
<time>2023-05-18T09:49:42Z</time>
</trkpt>
<trkpt lat="49.31863998994231" lon="8.129762951284647">
<ele>205.60000000000002</ele>
<time>2023-05-18T09:49:43Z</time>
</trkpt>
<trkpt lat="49.31867997162044" lon="8.129777954891324">
<ele>205.60000000000002</ele>
<time>2023-05-18T09:49:44Z</time>
</trkpt>
<trkpt lat="49.31871794164181" lon="8.129794970154762">
<ele>205.60000000000002</ele>
<time>2023-05-18T09:49:45Z</time>
</trkpt>
<trkpt lat="49.318757923319936" lon="8.129816930741072">
<ele>205.60000000000002</ele>
<time>2023-05-18T09:49:46Z</time>
</trkpt>
<trkpt lat="49.318797988817096" lon="8.129839980974793">
<ele>205.60000000000002</ele>
<time>2023-05-18T09:49:47Z</time>
</trkpt>
<trkpt lat="49.31883696466684" lon="8.129867976531386">
<ele>205.39999999999998</ele>
<time>2023-05-18T09:49:48Z</time>
</trkpt>
<trkpt lat="49.31887694634497" lon="8.129901923239231">
<ele>205.39999999999998</ele>
<time>2023-05-18T09:49:49Z</time>
</trkpt>
<trkpt lat="49.3189169280231" lon="8.12993997707963">
<ele>205.39999999999998</ele>
<time>2023-05-18T09:49:50Z</time>
</trkpt>
<trkpt lat="49.31895799934864" lon="8.129979958757758">
<ele>205.39999999999998</ele>
<time>2023-05-18T09:49:51Z</time>
</trkpt>
<trkpt lat="49.31899798102677" lon="8.130022957921028">
<ele>205.20000000000005</ele>
<time>2023-05-18T09:49:52Z</time>
</trkpt>
<trkpt lat="49.3190429918468" lon="8.130064951255918">
<ele>205.20000000000005</ele>
<time>2023-05-18T09:49:53Z</time>
</trkpt>
<trkpt lat="49.3190879188478" lon="8.130107950419188">
<ele>205</ele>
<time>2023-05-18T09:49:54Z</time>
</trkpt>
<trkpt lat="49.31913292966783" lon="8.130149943754077">
<ele>205</ele>
<time>2023-05-18T09:49:55Z</time>
</trkpt>
<trkpt lat="49.31917794048786" lon="8.130186991766095">
<ele>205</ele>
<time>2023-05-18T09:49:56Z</time>
</trkpt>
<trkpt lat="49.31922295130789" lon="8.13021993264556">
<ele>204.79999999999995</ele>
<time>2023-05-18T09:49:57Z</time>
</trkpt>
<trkpt lat="49.319267962127924" lon="8.130249939858913">
<ele>204.79999999999995</ele>
<time>2023-05-18T09:49:58Z</time>
</trkpt>
<trkpt lat="49.319312972947955" lon="8.130277935415506">
<ele>204.79999999999995</ele>
<time>2023-05-18T09:49:59Z</time>
</trkpt>
<trkpt lat="49.319357983767986" lon="8.13030693680048">
<ele>204.60000000000002</ele>
<time>2023-05-18T09:50:00Z</time>
</trkpt>
<trkpt lat="49.31940492242575" lon="8.130337949842215">
<ele>204.60000000000002</ele>
<time>2023-05-18T09:50:01Z</time>
</trkpt>
<trkpt lat="49.31945194490254" lon="8.13036996871233">
<ele>204.60000000000002</ele>
<time>2023-05-18T09:50:02Z</time>
</trkpt>
<trkpt lat="49.31949796155095" lon="8.130401987582445">
<ele>204.39999999999998</ele>
<time>2023-05-18T09:50:03Z</time>
</trkpt>
<trkpt lat="49.31954498402774" lon="8.1304319947958">
<ele>204.39999999999998</ele>
<time>2023-05-18T09:50:04Z</time>
</trkpt>
<trkpt lat="49.319591922685504" lon="8.13045697286725">
<ele>204.20000000000005</ele>
<time>2023-05-18T09:50:05Z</time>
</trkpt>
<trkpt lat="49.31963995099068" lon="8.13047993928194">
<ele>204.20000000000005</ele>
<time>2023-05-18T09:50:06Z</time>
</trkpt>
<trkpt lat="49.31968999095261" lon="8.130502989515662">
<ele>204</ele>
<time>2023-05-18T09:50:07Z</time>
</trkpt>
<trkpt lat="49.31973994709551" lon="8.130524950101972">
<ele>204</ele>
<time>2023-05-18T09:50:08Z</time>
</trkpt>
<trkpt lat="49.31979199871421" lon="8.13054297119379">
<ele>203.79999999999995</ele>
<time>2023-05-18T09:50:09Z</time>
</trkpt>
<trkpt lat="49.31984497234225" lon="8.130559986457229">
<ele>203.79999999999995</ele>
<time>2023-05-18T09:50:10Z</time>
</trkpt>
<trkpt lat="49.31989995762706" lon="8.130576917901635">
<ele>203.79999999999995</ele>
<time>2023-05-18T09:50:11Z</time>
</trkpt>
<trkpt lat="49.3199529312551" lon="8.130589993670583">
<ele>203.60000000000002</ele>
<time>2023-05-18T09:50:12Z</time>
</trkpt>
<trkpt lat="49.32000791653991" lon="8.130597956478596">
<ele>203.60000000000002</ele>
<time>2023-05-18T09:50:13Z</time>
</trkpt>
<trkpt lat="49.320061979815364" lon="8.130599968135357">
<ele>203.39999999999998</ele>
<time>2023-05-18T09:50:14Z</time>
</trkpt>
<trkpt lat="49.32011294178665" lon="8.130597956478596">
<ele>203.39999999999998</ele>
<time>2023-05-18T09:50:15Z</time>
</trkpt>
<trkpt lat="49.3201619759202" lon="8.130592927336693">
<ele>203.20000000000005</ele>
<time>2023-05-18T09:50:16Z</time>
</trkpt>
<trkpt lat="49.3202119320631" lon="8.130586976185441">
<ele>203.20000000000005</ele>
<time>2023-05-18T09:50:17Z</time>
</trkpt>
<trkpt lat="49.320259960368276" lon="8.130582952871919">
<ele>203.20000000000005</ele>
<time>2023-05-18T09:50:18Z</time>
</trkpt>
<trkpt lat="49.32030798867345" lon="8.130579935386777">
<ele>203.20000000000005</ele>
<time>2023-05-18T09:50:19Z</time>
</trkpt>
<trkpt lat="49.32035693898797" lon="8.130576917901635">
<ele>203.20000000000005</ele>
<time>2023-05-18T09:50:20Z</time>
</trkpt>
<trkpt lat="49.320406978949904" lon="8.130572978407145">
<ele>203.20000000000005</ele>
<time>2023-05-18T09:50:21Z</time>
</trkpt>
<trkpt lat="49.32045693509281" lon="8.130569960922003">
<ele>203.20000000000005</ele>
<time>2023-05-18T09:50:22Z</time>
</trkpt>
<trkpt lat="49.32050697505474" lon="8.1305649317801">
<ele>203.20000000000005</ele>
<time>2023-05-18T09:50:23Z</time>
</trkpt>
<trkpt lat="49.32055299170315" lon="8.130559986457229">
<ele>203.20000000000005</ele>
<time>2023-05-18T09:50:24Z</time>
</trkpt>
<trkpt lat="49.320601942017674" lon="8.130554957315326">
<ele>203.20000000000005</ele>
<time>2023-05-18T09:50:25Z</time>
</trkpt>
<trkpt lat="49.320647958666086" lon="8.130546994507313">
<ele>203.20000000000005</ele>
<time>2023-05-18T09:50:26Z</time>
</trkpt>
<trkpt lat="49.32069699279964" lon="8.130532996729016">
<ele>203.20000000000005</ele>
<time>2023-05-18T09:50:27Z</time>
</trkpt>
<trkpt lat="49.32074191980064" lon="8.130519920960069">
<ele>203.20000000000005</ele>
<time>2023-05-18T09:50:28Z</time>
</trkpt>
<trkpt lat="49.32078994810581" lon="8.130504917353392">
<ele>203.20000000000005</ele>
<time>2023-05-18T09:50:29Z</time>
</trkpt>
<trkpt lat="49.32083294726908" lon="8.130489997565746">
<ele>203.20000000000005</ele>
<time>2023-05-18T09:50:30Z</time>
</trkpt>
<trkpt lat="49.32087494060397" lon="8.13047499395907">
<ele>203.39999999999998</ele>
<time>2023-05-18T09:50:31Z</time>
</trkpt>
<trkpt lat="49.32091793976724" lon="8.130459990352392">
<ele>203.39999999999998</ele>
<time>2023-05-18T09:50:32Z</time>
</trkpt>
<trkpt lat="49.32096194475889" lon="8.130444986745715">
<ele>203.39999999999998</ele>
<time>2023-05-18T09:50:33Z</time>
</trkpt>
<trkpt lat="49.3210029322654" lon="8.130429983139038">
<ele>203.39999999999998</ele>
<time>2023-05-18T09:50:34Z</time>
</trkpt>
<trkpt lat="49.32104299776256" lon="8.1304129678756">
<ele>203.39999999999998</ele>
<time>2023-05-18T09:50:35Z</time>
</trkpt>
<trkpt lat="49.32108297944069" lon="8.130396958440542">
<ele>203.39999999999998</ele>
<time>2023-05-18T09:50:36Z</time>
</trkpt>
<trkpt lat="49.32112296111882" lon="8.130381954833865">
<ele>203.39999999999998</ele>
<time>2023-05-18T09:50:37Z</time>
</trkpt>
<trkpt lat="49.321161936968565" lon="8.130364939570427">
<ele>203.39999999999998</ele>
<time>2023-05-18T09:50:38Z</time>
</trkpt>
<trkpt lat="49.321202924475074" lon="8.130351947620511">
<ele>203.39999999999998</ele>
<time>2023-05-18T09:50:39Z</time>
</trkpt>
<trkpt lat="49.32124491780996" lon="8.130336944013834">
<ele>203.39999999999998</ele>
<time>2023-05-18T09:50:40Z</time>
</trkpt>
<trkpt lat="49.321286994963884" lon="8.130319928750396">
<ele>203.39999999999998</ele>
<time>2023-05-18T09:50:41Z</time>
</trkpt>
<trkpt lat="49.32132798247039" lon="8.13030299730599">
<ele>203.39999999999998</ele>
<time>2023-05-18T09:50:42Z</time>
</trkpt>
<trkpt lat="49.32136997580528" lon="8.130287993699312">
<ele>203.39999999999998</ele>
<time>2023-05-18T09:50:43Z</time>
</trkpt>
<trkpt lat="49.32140995748341" lon="8.130272990092635">
<ele>203.39999999999998</ele>
<time>2023-05-18T09:50:44Z</time>
</trkpt>
<trkpt lat="49.3214519508183" lon="8.13025999814272">
<ele>203.39999999999998</ele>
<time>2023-05-18T09:50:45Z</time>
</trkpt>
<trkpt lat="49.32149494998157" lon="8.130244994536042">
<ele>203.39999999999998</ele>
<time>2023-05-18T09:50:46Z</time>
</trkpt>
<trkpt lat="49.32153794914484" lon="8.130231918767095">
<ele>203.39999999999998</ele>
<time>2023-05-18T09:50:47Z</time>
</trkpt>
<trkpt lat="49.32158295996487" lon="8.130217920988798">
<ele>203.39999999999998</ele>
<time>2023-05-18T09:50:48Z</time>
</trkpt>
<trkpt lat="49.3216279707849" lon="8.130204929038882">
<ele>203.39999999999998</ele>
<time>2023-05-18T09:50:49Z</time>
</trkpt>
<trkpt lat="49.321676921099424" lon="8.130194954574108">
<ele>203.39999999999998</ele>
<time>2023-05-18T09:50:50Z</time>
</trkpt>
<trkpt lat="49.3217249494046" lon="8.130186991766095">
<ele>203.39999999999998</ele>
<time>2023-05-18T09:50:51Z</time>
</trkpt>
<trkpt lat="49.32177297770977" lon="8.130174921825528">
<ele>203.39999999999998</ele>
<time>2023-05-18T09:50:52Z</time>
</trkpt>
<trkpt lat="49.321824945509434" lon="8.130157990381122">
<ele>203.20000000000005</ele>
<time>2023-05-18T09:50:53Z</time>
</trkpt>
<trkpt lat="49.32187498547137" lon="8.130137957632542">
<ele>203.20000000000005</ele>
<time>2023-05-18T09:50:54Z</time>
</trkpt>
<trkpt lat="49.32192494161427" lon="8.130117924883962">
<ele>203.20000000000005</ele>
<time>2023-05-18T09:50:55Z</time>
</trkpt>
<trkpt lat="49.32197296991944" lon="8.130101999267936">
<ele>203</ele>
<time>2023-05-18T09:50:56Z</time>
</trkpt>
<trkpt lat="49.322019992396235" lon="8.130082972347736">
<ele>203</ele>
<time>2023-05-18T09:50:57Z</time>
</trkpt>
<trkpt lat="49.322066931053996" lon="8.13006998039782">
<ele>202.79999999999995</ele>
<time>2023-05-18T09:50:58Z</time>
</trkpt>
<trkpt lat="49.32211194187403" lon="8.130054976791143">
<ele>202.79999999999995</ele>
<time>2023-05-18T09:50:59Z</time>
</trkpt>
<trkpt lat="49.32215795852244" lon="8.130036955699325">
<ele>202.79999999999995</ele>
<time>2023-05-18T09:51:00Z</time>
</trkpt>
<trkpt lat="49.32220196351409" lon="8.130017928779125">
<ele>202.60000000000002</ele>
<time>2023-05-18T09:51:01Z</time>
</trkpt>
<trkpt lat="49.3222429510206" lon="8.130002925172448">
<ele>202.60000000000002</ele>
<time>2023-05-18T09:51:02Z</time>
</trkpt>
<trkpt lat="49.32228796184063" lon="8.129996974021196">
<ele>202.60000000000002</ele>
<time>2023-05-18T09:51:03Z</time>
</trkpt>
<trkpt lat="49.32233196683228" lon="8.129997979849577">
<ele>202.60000000000002</ele>
<time>2023-05-18T09:51:04Z</time>
</trkpt>
<trkpt lat="49.32237295433879" lon="8.129996974021196">
<ele>202.60000000000002</ele>
<time>2023-05-18T09:51:05Z</time>
</trkpt>
<trkpt lat="49.32241193018854" lon="8.129989933222532">
<ele>202.60000000000002</ele>
<time>2023-05-18T09:51:06Z</time>
</trkpt>
<trkpt lat="49.322449984028935" lon="8.129986999556422">
<ele>202.60000000000002</ele>
<time>2023-05-18T09:51:07Z</time>
</trkpt>
<trkpt lat="49.32248694822192" lon="8.12998197041452">
<ele>202.60000000000002</ele>
<time>2023-05-18T09:51:08Z</time>
</trkpt>
<trkpt lat="49.32252299040556" lon="8.129972917959094">
<ele>202.60000000000002</ele>
<time>2023-05-18T09:51:09Z</time>
</trkpt>
<trkpt lat="49.32256196625531" lon="8.129964955151081">
<ele>202.60000000000002</ele>
<time>2023-05-18T09:51:10Z</time>
</trkpt>
<trkpt lat="49.32259691879153" lon="8.129957998171449">
<ele>202.60000000000002</ele>
<time>2023-05-18T09:51:11Z</time>
</trkpt>
<trkpt lat="49.32263296097517" lon="8.129954980686307">
<ele>202.60000000000002</ele>
<time>2023-05-18T09:51:12Z</time>
</trkpt>
<trkpt lat="49.32266699150205" lon="8.129947939887643">
<ele>202.60000000000002</ele>
<time>2023-05-18T09:51:13Z</time>
</trkpt>
<trkpt lat="49.32269993238151" lon="8.129941988736391">
<ele>202.60000000000002</ele>
<time>2023-05-18T09:51:14Z</time>
</trkpt>
<trkpt lat="49.32273295708001" lon="8.129934947937727">
<ele>202.79999999999995</ele>
<time>2023-05-18T09:51:15Z</time>
</trkpt>
<trkpt lat="49.32276296429336" lon="8.129927990958095">
<ele>202.79999999999995</ele>
<time>2023-05-18T09:51:16Z</time>
</trkpt>
<trkpt lat="49.322791965678334" lon="8.129922961816192">
<ele>203</ele>
<time>2023-05-18T09:51:17Z</time>
</trkpt>
<trkpt lat="49.32282499037683" lon="8.129921955987811">
<ele>203.20000000000005</ele>
<time>2023-05-18T09:51:18Z</time>
</trkpt>
<trkpt lat="49.322856925427914" lon="8.129916926845908">
<ele>203.39999999999998</ele>
<time>2023-05-18T09:51:19Z</time>
</trkpt>
<trkpt lat="49.32289296761155" lon="8.129912987351418">
<ele>203.60000000000002</ele>
<time>2023-05-18T09:51:20Z</time>
</trkpt>
<trkpt lat="49.32292699813843" lon="8.129904940724373">
<ele>203.60000000000002</ele>
<time>2023-05-18T09:51:21Z</time>
</trkpt>
<trkpt lat="49.32295993901789" lon="8.12989798374474">
<ele>203.79999999999995</ele>
<time>2023-05-18T09:51:22Z</time>
</trkpt>
<trkpt lat="49.32299296371639" lon="8.129891948774457">
<ele>203.79999999999995</ele>
<time>2023-05-18T09:51:23Z</time>
</trkpt>
<trkpt lat="49.323026994243264" lon="8.129887925460935">
<ele>204</ele>
<time>2023-05-18T09:51:24Z</time>
</trkpt>
<trkpt lat="49.32305993512273" lon="8.129879962652922">
<ele>204</ele>
<time>2023-05-18T09:51:25Z</time>
</trkpt>
<trkpt lat="49.32309698313475" lon="8.129872921854258">
<ele>204</ele>
<time>2023-05-18T09:51:26Z</time>
</trkpt>
<trkpt lat="49.323137970641255" lon="8.129862947389483">
<ele>204</ele>
<time>2023-05-18T09:51:27Z</time>
</trkpt>
<trkpt lat="49.323176946491" lon="8.12985498458147">
<ele>204</ele>
<time>2023-05-18T09:51:28Z</time>
</trkpt>
<trkpt lat="49.32321692816913" lon="8.129844926297665">
<ele>204</ele>
<time>2023-05-18T09:51:29Z</time>
</trkpt>
<trkpt lat="49.32325799949467" lon="8.129836963489652">
<ele>204</ele>
<time>2023-05-18T09:51:30Z</time>
</trkpt>
<trkpt lat="49.32330192066729" lon="8.129827994853258">
<ele>203.79999999999995</ele>
<time>2023-05-18T09:51:31Z</time>
</trkpt>
<trkpt lat="49.32334693148732" lon="8.129822965711355">
<ele>203.79999999999995</ele>
<time>2023-05-18T09:51:32Z</time>
</trkpt>
<trkpt lat="49.323392948135734" lon="8.129816930741072">
<ele>203.79999999999995</ele>
<time>2023-05-18T09:51:33Z</time>
</trkpt>
<trkpt lat="49.32344298809767" lon="8.129806956276298">
<ele>203.79999999999995</ele>
<time>2023-05-18T09:51:34Z</time>
</trkpt>
<trkpt lat="49.32349294424057" lon="8.129796981811523">
<ele>203.79999999999995</ele>
<time>2023-05-18T09:51:35Z</time>
</trkpt>
<trkpt lat="49.323541978374124" lon="8.129782984033227">
<ele>203.79999999999995</ele>
<time>2023-05-18T09:51:36Z</time>
</trkpt>
<trkpt lat="49.323589922860265" lon="8.129769992083311">
<ele>203.60000000000002</ele>
<time>2023-05-18T09:51:37Z</time>
</trkpt>
<trkpt lat="49.32364197447896" lon="8.129754988476634">
<ele>203.60000000000002</ele>
<time>2023-05-18T09:51:38Z</time>
</trkpt>
<trkpt lat="49.32369293645024" lon="8.129749959334731">
<ele>203.39999999999998</ele>
<time>2023-05-18T09:51:39Z</time>
</trkpt>
<trkpt lat="49.323737947270274" lon="8.129744930192828">
<ele>203.20000000000005</ele>
<time>2023-05-18T09:51:40Z</time>
</trkpt>
<trkpt lat="49.323782958090305" lon="8.129744930192828">
<ele>203.20000000000005</ele>
<time>2023-05-18T09:51:41Z</time>
</trkpt>
<trkpt lat="49.32383299805224" lon="8.129749959334731">
<ele>203</ele>
<time>2023-05-18T09:51:42Z</time>
</trkpt>
<trkpt lat="49.32388194836676" lon="8.129756916314363">
<ele>202.79999999999995</ele>
<time>2023-05-18T09:51:43Z</time>
</trkpt>
<trkpt lat="49.323929976671934" lon="8.12976697459817">
<ele>202.79999999999995</ele>
<time>2023-05-18T09:51:44Z</time>
</trkpt>
<trkpt lat="49.32397699914873" lon="8.129782984033227">
<ele>202.60000000000002</ele>
<time>2023-05-18T09:51:45Z</time>
</trkpt>
<trkpt lat="49.324021926149726" lon="8.129807962104678">
<ele>202.60000000000002</ele>
<time>2023-05-18T09:51:46Z</time>
</trkpt>
<trkpt lat="49.32406299747527" lon="8.129842998459935">
<ele>202.39999999999998</ele>
<time>2023-05-18T09:51:47Z</time>
</trkpt>
<trkpt lat="49.32409795001149" lon="8.129886919632554">
<ele>202.39999999999998</ele>
<time>2023-05-18T09:51:48Z</time>
</trkpt>
<trkpt lat="49.32413298636675" lon="8.129929918795824">
<ele>202.20000000000005</ele>
<time>2023-05-18T09:51:49Z</time>
</trkpt>
<trkpt lat="49.324169950559735" lon="8.129971995949745">
<ele>202.20000000000005</ele>
<time>2023-05-18T09:51:50Z</time>
</trkpt>
<trkpt lat="49.32420993223786" lon="8.130012983456254">
<ele>202</ele>
<time>2023-05-18T09:51:51Z</time>
</trkpt>
<trkpt lat="49.32424999773502" lon="8.130056988447905">
<ele>201.79999999999995</ele>
<time>2023-05-18T09:51:52Z</time>
</trkpt>
<trkpt lat="49.32428997941315" lon="8.130102921277285">
<ele>201.60000000000002</ele>
<time>2023-05-18T09:51:53Z</time>
</trkpt>
<trkpt lat="49.32433297857642" lon="8.13015497289598">
<ele>201.39999999999998</ele>
<time>2023-05-18T09:51:54Z</time>
</trkpt>
<trkpt lat="49.32437698356807" lon="8.13019696623087">
<ele>201.39999999999998</ele>
<time>2023-05-18T09:51:55Z</time>
</trkpt>
<trkpt lat="49.32442291639745" lon="8.130229990929365">
<ele>201.20000000000005</ele>
<time>2023-05-18T09:51:56Z</time>
</trkpt>
<trkpt lat="49.324469938874245" lon="8.13025999814272">
<ele>201.20000000000005</ele>
<time>2023-05-18T09:51:57Z</time>
</trkpt>
<trkpt lat="49.324512938037515" lon="8.130281958729029">
<ele>201</ele>
<time>2023-05-18T09:51:58Z</time>
</trkpt>
<trkpt lat="49.324556943029165" lon="8.13030693680048">
<ele>201</ele>
<time>2023-05-18T09:51:59Z</time>
</trkpt>
<trkpt lat="49.324599942192435" lon="8.13032696954906">
<ele>200.79999999999995</ele>
<time>2023-05-18T09:52:00Z</time>
</trkpt>
<trkpt lat="49.324642941355705" lon="8.130352953448892">
<ele>200.79999999999995</ele>
<time>2023-05-18T09:52:01Z</time>
</trkpt>
<trkpt lat="49.324684934690595" lon="8.130376925691962">
<ele>200.79999999999995</ele>
<time>2023-05-18T09:52:02Z</time>
</trkpt>
<trkpt lat="49.32473698630929" lon="8.130397964268923">
<ele>200.79999999999995</ele>
<time>2023-05-18T09:52:03Z</time>
</trkpt>
<trkpt lat="49.32478493079543" lon="8.130424953997135">
<ele>200.79999999999995</ele>
<time>2023-05-18T09:52:04Z</time>
</trkpt>
<trkpt lat="49.324836982414126" lon="8.130446998402476">
<ele>200.79999999999995</ele>
<time>2023-05-18T09:52:05Z</time>
</trkpt>
<trkpt lat="49.32488299906254" lon="8.130467953160405">
<ele>200.79999999999995</ele>
<time>2023-05-18T09:52:06Z</time>
</trkpt>
<trkpt lat="49.32493194937706" lon="8.130482956767082">
<ele>200.79999999999995</ele>
<time>2023-05-18T09:52:07Z</time>
</trkpt>
<trkpt lat="49.32497997768223" lon="8.130496954545379">
<ele>200.79999999999995</ele>
<time>2023-05-18T09:52:08Z</time>
</trkpt>
<trkpt lat="49.32502691633999" lon="8.130506929010153">
<ele>200.79999999999995</ele>
<time>2023-05-18T09:52:09Z</time>
</trkpt>
<trkpt lat="49.325069999322295" lon="8.130514975637197">
<ele>200.79999999999995</ele>
<time>2023-05-18T09:52:10Z</time>
</trkpt>
<trkpt lat="49.32510998100042" lon="8.13052293844521">
<ele>200.79999999999995</ele>
<time>2023-05-18T09:52:11Z</time>
</trkpt>
<trkpt lat="49.32514795102179" lon="8.130532996729016">
<ele>200.79999999999995</ele>
<time>2023-05-18T09:52:12Z</time>
</trkpt>
<trkpt lat="49.32518499903381" lon="8.130549928173423">
<ele>200.79999999999995</ele>
<time>2023-05-18T09:52:13Z</time>
</trkpt>
<trkpt lat="49.325221963226795" lon="8.130571972578764">
<ele>200.79999999999995</ele>
<time>2023-05-18T09:52:14Z</time>
</trkpt>
<trkpt lat="49.325262950733304" lon="8.130592927336693">
<ele>201</ele>
<time>2023-05-18T09:52:15Z</time>
</trkpt>
<trkpt lat="49.325307961553335" lon="8.130609942600131">
<ele>201</ele>
<time>2023-05-18T09:52:16Z</time>
</trkpt>
<trkpt lat="49.325351966544986" lon="8.130622934550047">
<ele>201</ele>
<time>2023-05-18T09:52:17Z</time>
</trkpt>
<trkpt lat="49.32539697736502" lon="8.130634920671582">
<ele>201.20000000000005</ele>
<time>2023-05-18T09:52:18Z</time>
</trkpt>
<trkpt lat="49.32544299401343" lon="8.13064799644053">
<ele>201.20000000000005</ele>
<time>2023-05-18T09:52:19Z</time>
</trkpt>
<trkpt lat="49.32548699900508" lon="8.130661994218826">
<ele>201.20000000000005</ele>
<time>2023-05-18T09:52:20Z</time>
</trkpt>
<trkpt lat="49.32552999816835" lon="8.130672974511981">
<ele>201.39999999999998</ele>
<time>2023-05-18T09:52:21Z</time>
</trkpt>
<trkpt lat="49.32557199150324" lon="8.130682948976755">
<ele>201.39999999999998</ele>
<time>2023-05-18T09:52:22Z</time>
</trkpt>
<trkpt lat="49.32561499066651" lon="8.13068998977542">
<ele>201.39999999999998</ele>
<time>2023-05-18T09:52:23Z</time>
</trkpt>
<trkpt lat="49.32565798982978" lon="8.13069493509829">
<ele>201.60000000000002</ele>
<time>2023-05-18T09:52:24Z</time>
</trkpt>
<trkpt lat="49.32569998316467" lon="8.130699964240193">
<ele>201.60000000000002</ele>
<time>2023-05-18T09:52:25Z</time>
</trkpt>
<trkpt lat="49.32574197649956" lon="8.130702981725335">
<ele>201.79999999999995</ele>
<time>2023-05-18T09:52:26Z</time>
</trkpt>
<trkpt lat="49.325781958177686" lon="8.130707927048206">
<ele>202</ele>
<time>2023-05-18T09:52:27Z</time>
</trkpt>
<trkpt lat="49.325821939855814" lon="8.13071295619011">
<ele>202</ele>
<time>2023-05-18T09:52:28Z</time>
</trkpt>
<trkpt lat="49.32586192153394" lon="8.13071496784687">
<ele>202.20000000000005</ele>
<time>2023-05-18T09:52:29Z</time>
</trkpt>
<trkpt lat="49.3259019870311" lon="8.130717985332012">
<ele>202.39999999999998</ele>
<time>2023-05-18T09:52:30Z</time>
</trkpt>
<trkpt lat="49.32593995705247" lon="8.130721924826503">
<ele>202.60000000000002</ele>
<time>2023-05-18T09:52:31Z</time>
</trkpt>
<trkpt lat="49.325976921245456" lon="8.130722930654883">
<ele>202.60000000000002</ele>
<time>2023-05-18T09:52:32Z</time>
</trkpt>
<trkpt lat="49.326014975085855" lon="8.130722930654883">
<ele>202.79999999999995</ele>
<time>2023-05-18T09:52:33Z</time>
</trkpt>
<trkpt lat="49.326056968420744" lon="8.130721924826503">
<ele>202.79999999999995</ele>
<time>2023-05-18T09:52:34Z</time>
</trkpt>
<trkpt lat="49.32609795592725" lon="8.130716979503632">
<ele>202.79999999999995</ele>
<time>2023-05-18T09:52:35Z</time>
</trkpt>
<trkpt lat="49.3261419609189" lon="8.130709938704967">
<ele>202.79999999999995</ele>
<time>2023-05-18T09:52:36Z</time>
</trkpt>
<trkpt lat="49.32618496008217" lon="8.130706921219826">
<ele>203</ele>
<time>2023-05-18T09:52:37Z</time>
</trkpt>
<trkpt lat="49.32622695341706" lon="8.130701975896955">
<ele>203</ele>
<time>2023-05-18T09:52:38Z</time>
</trkpt>
<trkpt lat="49.32626693509519" lon="8.13069493509829">
<ele>203</ele>
<time>2023-05-18T09:52:39Z</time>
</trkpt>
<trkpt lat="49.32630498893559" lon="8.13068998977542">
<ele>203</ele>
<time>2023-05-18T09:52:40Z</time>
</trkpt>
<trkpt lat="49.32634295895696" lon="8.130679931491613">
<ele>203</ele>
<time>2023-05-18T09:52:41Z</time>
</trkpt>
<trkpt lat="49.32637992314994" lon="8.130672974511981">
<ele>203</ele>
<time>2023-05-18T09:52:42Z</time>
</trkpt>
<trkpt lat="49.3264199886471" lon="8.13066995702684">
<ele>203</ele>
<time>2023-05-18T09:52:43Z</time>
</trkpt>
<trkpt lat="49.32645997032523" lon="8.13066995702684">
<ele>203</ele>
<time>2023-05-18T09:52:44Z</time>
</trkpt>
<trkpt lat="49.32649995200336" lon="8.130664927884936">
<ele>203</ele>
<time>2023-05-18T09:52:45Z</time>
</trkpt>
<trkpt lat="49.32654295116663" lon="8.130661994218826">
<ele>203</ele>
<time>2023-05-18T09:52:46Z</time>
</trkpt>
<trkpt lat="49.32658695615828" lon="8.13064992427826">
<ele>203</ele>
<time>2023-05-18T09:52:47Z</time>
</trkpt>
<trkpt lat="49.32663196697831" lon="8.130634920671582">
<ele>202.79999999999995</ele>
<time>2023-05-18T09:52:48Z</time>
</trkpt>
<trkpt lat="49.32667496614158" lon="8.130622934550047">
<ele>202.79999999999995</ele>
<time>2023-05-18T09:52:49Z</time>
</trkpt>
<trkpt lat="49.326722994446754" lon="8.130602985620499">
<ele>202.60000000000002</ele>
<time>2023-05-18T09:52:50Z</time>
</trkpt>
<trkpt lat="49.326767921447754" lon="8.13058496452868">
<ele>202.60000000000002</ele>
<time>2023-05-18T09:52:51Z</time>
</trkpt>
<trkpt lat="49.32681695558131" lon="8.130566943436861">
<ele>202.60000000000002</ele>
<time>2023-05-18T09:52:52Z</time>
</trkpt>
<trkpt lat="49.32685995474458" lon="8.130544982850552">
<ele>202.39999999999998</ele>
<time>2023-05-18T09:52:53Z</time>
</trkpt>
<trkpt lat="49.32690194807947" lon="8.13052293844521">
<ele>202.39999999999998</ele>
<time>2023-05-18T09:52:54Z</time>
</trkpt>
<trkpt lat="49.326942935585976" lon="8.13049997203052">
<ele>202.20000000000005</ele>
<time>2023-05-18T09:52:55Z</time>
</trkpt>
<trkpt lat="49.326986940577626" lon="8.13047499395907">
<ele>202.20000000000005</ele>
<time>2023-05-18T09:52:56Z</time>
</trkpt>
<trkpt lat="49.327029939740896" lon="8.130447920411825">
<ele>202</ele>
<time>2023-05-18T09:52:57Z</time>
</trkpt>
<trkpt lat="49.327071933075786" lon="8.130422942340374">
<ele>201.79999999999995</ele>
<time>2023-05-18T09:52:58Z</time>
</trkpt>
<trkpt lat="49.327114932239056" lon="8.130399975925684">
<ele>201.60000000000002</ele>
<time>2023-05-18T09:52:59Z</time>
</trkpt>
<trkpt lat="49.32715994305909" lon="8.130377931520343">
<ele>201.39999999999998</ele>
<time>2023-05-18T09:53:00Z</time>
</trkpt>
<trkpt lat="49.327201936393976" lon="8.130356976762414">
<ele>201.39999999999998</ele>
<time>2023-05-18T09:53:01Z</time>
</trkpt>
<trkpt lat="49.327244935557246" lon="8.130337949842215">
<ele>201.20000000000005</ele>
<time>2023-05-18T09:53:02Z</time>
</trkpt>
<trkpt lat="49.327287934720516" lon="8.130317917093635">
<ele>201.20000000000005</ele>
<time>2023-05-18T09:53:03Z</time>
</trkpt>
<trkpt lat="49.327329928055406" lon="8.130296962335706">
<ele>201.20000000000005</ele>
<time>2023-05-18T09:53:04Z</time>
</trkpt>
<trkpt lat="49.327371921390295" lon="8.130267960950732">
<ele>201</ele>
<time>2023-05-18T09:53:05Z</time>
</trkpt>
<trkpt lat="49.32740695774555" lon="8.13023996539414">
<ele>201</ele>
<time>2023-05-18T09:53:06Z</time>
</trkpt>
<trkpt lat="49.32744299992919" lon="8.130207946524024">
<ele>200.79999999999995</ele>
<time>2023-05-18T09:53:07Z</time>
</trkpt>
<trkpt lat="49.32748197577894" lon="8.130179950967431">
<ele>200.79999999999995</ele>
<time>2023-05-18T09:53:08Z</time>
</trkpt>
<trkpt lat="49.327519945800304" lon="8.130149943754077">
<ele>200.79999999999995</ele>
<time>2023-05-18T09:53:09Z</time>
</trkpt>
<trkpt lat="49.3275579996407" lon="8.130121948197484">
<ele>200.60000000000002</ele>
<time>2023-05-18T09:53:10Z</time>
</trkpt>
<trkpt lat="49.32759798131883" lon="8.130094958469272">
<ele>200.60000000000002</ele>
<time>2023-05-18T09:53:11Z</time>
</trkpt>
<trkpt lat="49.32763695716858" lon="8.130064951255918">
<ele>200.60000000000002</ele>
<time>2023-05-18T09:53:12Z</time>
</trkpt>
<trkpt lat="49.327674927189946" lon="8.130036955699325">
<ele>200.60000000000002</ele>
<time>2023-05-18T09:53:13Z</time>
</trkpt>
<trkpt lat="49.3277049344033" lon="8.130011977627873">
<ele>200.60000000000002</ele>
<time>2023-05-18T09:53:14Z</time>
</trkpt>
<trkpt lat="49.327734941616654" lon="8.129987921565771">
<ele>200.60000000000002</ele>
<time>2023-05-18T09:53:15Z</time>
</trkpt>
<trkpt lat="49.32776193134487" lon="8.129966966807842">
<ele>200.39999999999998</ele>
<time>2023-05-18T09:53:16Z</time>
</trkpt>
<trkpt lat="49.32779193855822" lon="8.129941988736391">
<ele>200.39999999999998</ele>
<time>2023-05-18T09:53:17Z</time>
</trkpt>
<trkpt lat="49.327822951599956" lon="8.129916926845908">
<ele>200.39999999999998</ele>
<time>2023-05-18T09:53:18Z</time>
</trkpt>
<trkpt lat="49.32785798795521" lon="8.129892954602838">
<ele>200.20000000000005</ele>
<time>2023-05-18T09:53:19Z</time>
</trkpt>
<trkpt lat="49.327889923006296" lon="8.129869988188148">
<ele>200</ele>
<time>2023-05-18T09:53:20Z</time>
</trkpt>
<trkpt lat="49.32792495936155" lon="8.129846937954426">
<ele>200</ele>
<time>2023-05-18T09:53:21Z</time>
</trkpt>
<trkpt lat="49.32795999571681" lon="8.129822965711355">
<ele>199.79999999999995</ele>
<time>2023-05-18T09:53:22Z</time>
</trkpt>
<trkpt lat="49.32799997739494" lon="8.129792958498001">
<ele>199.60000000000002</ele>
<time>2023-05-18T09:53:23Z</time>
</trkpt>
<trkpt lat="49.32804297655821" lon="8.129764962941408">
<ele>199.39999999999998</ele>
<time>2023-05-18T09:53:24Z</time>
</trkpt>
<trkpt lat="49.328081952407956" lon="8.129737973213196">
<ele>199.20000000000005</ele>
<time>2023-05-18T09:53:25Z</time>
</trkpt>
<trkpt lat="49.328122939914465" lon="8.129709977656603">
<ele>198.79999999999995</ele>
<time>2023-05-18T09:53:26Z</time>
</trkpt>
<trkpt lat="49.32815998792648" lon="8.129686927422881">
<ele>198.39999999999998</ele>
<time>2023-05-18T09:53:27Z</time>
</trkpt>
<trkpt lat="49.328187983483076" lon="8.129659937694669">
<ele>198.20000000000005</ele>
<time>2023-05-18T09:53:28Z</time>
</trkpt>
<trkpt lat="49.328207932412624" lon="8.129634959623218">
<ele>197.79999999999995</ele>
<time>2023-05-18T09:53:29Z</time>
</trkpt>
<trkpt lat="49.32822494767606" lon="8.129616938531399">
<ele>197.39999999999998</ele>
<time>2023-05-18T09:53:30Z</time>
</trkpt>
<trkpt lat="49.32824498042464" lon="8.129589948803186">
<ele>197</ele>
<time>2023-05-18T09:53:31Z</time>
</trkpt>
<trkpt lat="49.328271970152855" lon="8.129567988216877">
<ele>196.79999999999995</ele>
<time>2023-05-18T09:53:32Z</time>
</trkpt>
<trkpt lat="49.32829996570945" lon="8.129547955468297">
<ele>196.39999999999998</ele>
<time>2023-05-18T09:53:33Z</time>
</trkpt>
<trkpt lat="49.32832695543766" lon="8.129527922719717">
<ele>196</ele>
<time>2023-05-18T09:53:34Z</time>
</trkpt>
<trkpt lat="49.3283629976213" lon="8.129521971568465">
<ele>195.60000000000002</ele>
<time>2023-05-18T09:53:35Z</time>
</trkpt>
<trkpt lat="49.32839199900627" lon="8.129529934376478">
<ele>195.39999999999998</ele>
<time>2023-05-18T09:53:36Z</time>
</trkpt>
<trkpt lat="49.328422928228974" lon="8.129561953246593">
<ele>195</ele>
<time>2023-05-18T09:53:37Z</time>
</trkpt>
<trkpt lat="49.32845695875585" lon="8.12959992326796">
<ele>194.60000000000002</ele>
<time>2023-05-18T09:53:38Z</time>
</trkpt>
<trkpt lat="49.32849291712046" lon="8.12964191660285">
<ele>194.20000000000005</ele>
<time>2023-05-18T09:53:39Z</time>
</trkpt>
<trkpt lat="49.32852493599057" lon="8.12968298792839">
<ele>194</ele>
<time>2023-05-18T09:53:40Z</time>
</trkpt>
<trkpt lat="49.328552931547165" lon="8.129727998748422">
<ele>193.60000000000002</ele>
<time>2023-05-18T09:53:41Z</time>
</trkpt>
<trkpt lat="49.32858293876052" lon="8.12977191992104">
<ele>193.20000000000005</ele>
<time>2023-05-18T09:53:42Z</time>
</trkpt>
<trkpt lat="49.32861194014549" lon="8.129821959882975">
<ele>193</ele>
<time>2023-05-18T09:53:43Z</time>
</trkpt>
<trkpt lat="49.32863297872245" lon="8.12987694516778">
<ele>192.60000000000002</ele>
<time>2023-05-18T09:53:44Z</time>
</trkpt>
<trkpt lat="49.328657956793904" lon="8.129931930452585">
<ele>192.39999999999998</ele>
<time>2023-05-18T09:53:45Z</time>
</trkpt>
<trkpt lat="49.328679917380214" lon="8.1299829762429">
<ele>192.20000000000005</ele>
<time>2023-05-18T09:53:46Z</time>
</trkpt>
<trkpt lat="49.32869492098689" lon="8.130029998719692">
<ele>191.79999999999995</ele>
<time>2023-05-18T09:53:47Z</time>
</trkpt>
<trkpt lat="49.32870699092746" lon="8.13006998039782">
<ele>191.60000000000002</ele>
<time>2023-05-18T09:53:48Z</time>
</trkpt>
<trkpt lat="49.328719982877374" lon="8.130107950419188">
<ele>191.39999999999998</ele>
<time>2023-05-18T09:53:49Z</time>
</trkpt>
<trkpt lat="49.32873498648405" lon="8.130146926268935">
<ele>191.20000000000005</ele>
<time>2023-05-18T09:53:50Z</time>
</trkpt>
<trkpt lat="49.32875191792846" lon="8.130189925432205">
<ele>191</ele>
<time>2023-05-18T09:53:51Z</time>
</trkpt>
<trkpt lat="49.328766921535134" lon="8.130231918767095">
<ele>190.79999999999995</ele>
<time>2023-05-18T09:53:52Z</time>
</trkpt>
<trkpt lat="49.32878293097019" lon="8.130267960950732">
<ele>190.60000000000002</ele>
<time>2023-05-18T09:53:53Z</time>
</trkpt>
<trkpt lat="49.32880195789039" lon="8.130299979820848">
<ele>190.39999999999998</ele>
<time>2023-05-18T09:53:54Z</time>
</trkpt>
<trkpt lat="49.32881696149707" lon="8.13032797537744">
<ele>190.20000000000005</ele>
<time>2023-05-18T09:53:55Z</time>
</trkpt>
<trkpt lat="49.328852919861674" lon="8.130346918478608">
<ele>190.20000000000005</ele>
<time>2023-05-18T09:53:56Z</time>
</trkpt>
<trkpt lat="49.32888192124665" lon="8.130351947620511">
<ele>190</ele>
<time>2023-05-18T09:53:57Z</time>
</trkpt>
<trkpt lat="49.328914945945144" lon="8.130347924306989">
<ele>189.79999999999995</ele>
<time>2023-05-18T09:53:58Z</time>
</trkpt>
<trkpt lat="49.3289449531585" lon="8.130339961498976">
<ele>189.79999999999995</ele>
<time>2023-05-18T09:53:59Z</time>
</trkpt>
<trkpt lat="49.32897496037185" lon="8.130314983427525">
<ele>189.60000000000002</ele>
<time>2023-05-18T09:54:00Z</time>
</trkpt>
<trkpt lat="49.329001950100064" lon="8.13028296455741">
<ele>189.39999999999998</ele>
<time>2023-05-18T09:54:01Z</time>
</trkpt>
<trkpt lat="49.329021982848644" lon="8.130246922373772">
<ele>189.39999999999998</ele>
<time>2023-05-18T09:54:02Z</time>
</trkpt>
<trkpt lat="49.329046960920095" lon="8.130212975665927">
<ele>189.20000000000005</ele>
<time>2023-05-18T09:54:03Z</time>
</trkpt>
<trkpt lat="49.32907495647669" lon="8.130174921825528">
<ele>189</ele>
<time>2023-05-18T09:54:04Z</time>
</trkpt>
<trkpt lat="49.32909993454814" lon="8.130136951804161">
<ele>188.79999999999995</ele>
<time>2023-05-18T09:54:05Z</time>
</trkpt>
<trkpt lat="49.32912692427635" lon="8.130101999267936">
<ele>188.60000000000002</ele>
<time>2023-05-18T09:54:06Z</time>
</trkpt>
<trkpt lat="49.32915793731809" lon="8.130064951255918">
<ele>188.60000000000002</ele>
<time>2023-05-18T09:54:07Z</time>
</trkpt>
<trkpt lat="49.32917998172343" lon="8.130014995113015">
<ele>188.39999999999998</ele>
<time>2023-05-18T09:54:08Z</time>
</trkpt>
<trkpt lat="49.32920294813812" lon="8.129967972636223">
<ele>188.20000000000005</ele>
<time>2023-05-18T09:54:09Z</time>
</trkpt>
<trkpt lat="49.32922197505832" lon="8.129921955987811">
<ele>188.20000000000005</ele>
<time>2023-05-18T09:54:10Z</time>
</trkpt>
<trkpt lat="49.329242929816246" lon="8.12987795099616">
<ele>188</ele>
<time>2023-05-18T09:54:11Z</time>
</trkpt>
<trkpt lat="49.329259945079684" lon="8.129842998459935">
<ele>188</ele>
<time>2023-05-18T09:54:12Z</time>
</trkpt>
<trkpt lat="49.3292779661715" lon="8.12980997376144">
<ele>188</ele>
<time>2023-05-18T09:54:13Z</time>
</trkpt>
<trkpt lat="49.32929799892008" lon="8.129777954891324">
<ele>188</ele>
<time>2023-05-18T09:54:14Z</time>
</trkpt>
<trkpt lat="49.329322976991534" lon="8.129764962941408">
<ele>188</ele>
<time>2023-05-18T09:54:15Z</time>
</trkpt>
<trkpt lat="49.329344937577844" lon="8.129752976819873">
<ele>188</ele>
<time>2023-05-18T09:54:16Z</time>
</trkpt>
<trkpt lat="49.329366981983185" lon="8.129736967384815">
<ele>188</ele>
<time>2023-05-18T09:54:17Z</time>
</trkpt>
<trkpt lat="49.32939799502492" lon="8.129721963778138">
<ele>188.20000000000005</ele>
<time>2023-05-18T09:54:18Z</time>
</trkpt>
<trkpt lat="49.329431941732764" lon="8.129716934636235">
<ele>188.20000000000005</ele>
<time>2023-05-18T09:54:19Z</time>
</trkpt>
<trkpt lat="49.32946697808802" lon="8.129721963778138">
<ele>188</ele>
<time>2023-05-18T09:54:20Z</time>
</trkpt>
<trkpt lat="49.32950695976615" lon="8.129732944071293">
<ele>188</ele>
<time>2023-05-18T09:54:21Z</time>
</trkpt>
<trkpt lat="49.32954794727266" lon="8.129749959334731">
<ele>188</ele>
<time>2023-05-18T09:54:22Z</time>
</trkpt>
<trkpt lat="49.32959195226431" lon="8.129761945456266">
<ele>188</ele>
<time>2023-05-18T09:54:23Z</time>
</trkpt>
<trkpt lat="49.32963293977082" lon="8.129772925749421">
<ele>188</ele>
<time>2023-05-18T09:54:24Z</time>
</trkpt>
<trkpt lat="49.329669987782836" lon="8.129782984033227">
<ele>188</ele>
<time>2023-05-18T09:54:25Z</time>
</trkpt>
<trkpt lat="49.3297029286623" lon="8.129794970154762">
<ele>188</ele>
<time>2023-05-18T09:54:26Z</time>
</trkpt>
<trkpt lat="49.32973796501756" lon="8.129802932962775">
<ele>188</ele>
<time>2023-05-18T09:54:27Z</time>
</trkpt>
<trkpt lat="49.329777946695685" lon="8.129812991246581">
<ele>188</ele>
<time>2023-05-18T09:54:28Z</time>
</trkpt>
<trkpt lat="49.329819940030575" lon="8.129824977368116">
<ele>188</ele>
<time>2023-05-18T09:54:29Z</time>
</trkpt>
<trkpt lat="49.32985296472907" lon="8.129837969318032">
<ele>188</ele>
<time>2023-05-18T09:54:30Z</time>
</trkpt>
<trkpt lat="49.329887917265296" lon="8.129846937954426">
<ele>188</ele>
<time>2023-05-18T09:54:31Z</time>
</trkpt>
<trkpt lat="49.32992194779217" lon="8.129856996238232">
<ele>188</ele>
<time>2023-05-18T09:54:32Z</time>
</trkpt>
<trkpt lat="49.32995991781354" lon="8.129869988188148">
<ele>188</ele>
<time>2023-05-18T09:54:33Z</time>
</trkpt>
<trkpt lat="49.329989925026894" lon="8.12987795099616">
<ele>188.20000000000005</ele>
<time>2023-05-18T09:54:34Z</time>
</trkpt>
<trkpt lat="49.33002294972539" lon="8.12989697791636">
<ele>188.20000000000005</ele>
<time>2023-05-18T09:54:35Z</time>
</trkpt>
<trkpt lat="49.33004792779684" lon="8.129902929067612">
<ele>188.20000000000005</ele>
<time>2023-05-18T09:54:36Z</time>
</trkpt>
<trkpt lat="49.330077935010195" lon="8.129906952381134">
<ele>188.20000000000005</ele>
<time>2023-05-18T09:54:37Z</time>
</trkpt>
<trkpt lat="49.33011196553707" lon="8.129911981523037">
<ele>188.39999999999998</ele>
<time>2023-05-18T09:54:38Z</time>
</trkpt>
<trkpt lat="49.3301569763571" lon="8.129917932674289">
<ele>188.60000000000002</ele>
<time>2023-05-18T09:54:39Z</time>
</trkpt>
<trkpt lat="49.33019695803523" lon="8.129924973472953">
<ele>188.60000000000002</ele>
<time>2023-05-18T09:54:40Z</time>
</trkpt>
<trkpt lat="49.33022998273373" lon="8.129929918795824">
<ele>188.79999999999995</ele>
<time>2023-05-18T09:54:41Z</time>
</trkpt>
<trkpt lat="49.33026694692671" lon="8.129931930452585">
<ele>189</ele>
<time>2023-05-18T09:54:42Z</time>
</trkpt>
<trkpt lat="49.33030692860484" lon="8.129931930452585">
<ele>189.20000000000005</ele>
<time>2023-05-18T09:54:43Z</time>
</trkpt>
<trkpt lat="49.33034297078848" lon="8.129936959594488">
<ele>189.39999999999998</ele>
<time>2023-05-18T09:54:44Z</time>
</trkpt>
<trkpt lat="49.330376917496324" lon="8.129936959594488">
<ele>189.60000000000002</ele>
<time>2023-05-18T09:54:45Z</time>
</trkpt>
<trkpt lat="49.33040692470968" lon="8.129936959594488">
<ele>189.60000000000002</ele>
<time>2023-05-18T09:54:46Z</time>
</trkpt>
<trkpt lat="49.33043693192303" lon="8.12993997707963">
<ele>189.79999999999995</ele>
<time>2023-05-18T09:54:47Z</time>
</trkpt>
<trkpt lat="49.33046794496477" lon="8.12993997707963">
<ele>190</ele>
<time>2023-05-18T09:54:48Z</time>
</trkpt>
<trkpt lat="49.330507926642895" lon="8.12993997707963">
<ele>190.20000000000005</ele>
<time>2023-05-18T09:54:49Z</time>
</trkpt>
<trkpt lat="49.33054296299815" lon="8.129949951544404">
<ele>190.39999999999998</ele>
<time>2023-05-18T09:54:50Z</time>
</trkpt>
<trkpt lat="49.33057699352503" lon="8.129959926009178">
<ele>190.60000000000002</ele>
<time>2023-05-18T09:54:51Z</time>
</trkpt>
<trkpt lat="49.33062292635441" lon="8.129971995949745">
<ele>190.79999999999995</ele>
<time>2023-05-18T09:54:52Z</time>
</trkpt>
<trkpt lat="49.33066198602319" lon="8.129977947100997">
<ele>191</ele>
<time>2023-05-18T09:54:53Z</time>
</trkpt>
<trkpt lat="49.33069199323654" lon="8.129986999556422">
<ele>191.39999999999998</ele>
<time>2023-05-18T09:54:54Z</time>
</trkpt>
<trkpt lat="49.330722922459245" lon="8.129989933222532">
<ele>191.60000000000002</ele>
<time>2023-05-18T09:54:55Z</time>
</trkpt>
<trkpt lat="49.33075695298612" lon="8.129987921565771">
<ele>191.79999999999995</ele>
<time>2023-05-18T09:54:56Z</time>
</trkpt>
<trkpt lat="49.330784948542714" lon="8.129994962364435">
<ele>192</ele>
<time>2023-05-18T09:54:57Z</time>
</trkpt>
<trkpt lat="49.33081495575607" lon="8.130002925172448">
<ele>192.20000000000005</ele>
<time>2023-05-18T09:54:58Z</time>
</trkpt>
<trkpt lat="49.330851919949055" lon="8.130014995113015">
<ele>192.39999999999998</ele>
<time>2023-05-18T09:54:59Z</time>
</trkpt>
<trkpt lat="49.33088997378945" lon="8.130017928779125">
<ele>192.60000000000002</ele>
<time>2023-05-18T09:55:00Z</time>
</trkpt>
<trkpt lat="49.33093196712434" lon="8.130022957921028">
<ele>192.60000000000002</ele>
<time>2023-05-18T09:55:01Z</time>
</trkpt>
<trkpt lat="49.33097194880247" lon="8.130032932385802">
<ele>192.79999999999995</ele>
<time>2023-05-18T09:55:02Z</time>
</trkpt>
<trkpt lat="49.33100799098611" lon="8.130042990669608">
<ele>193</ele>
<time>2023-05-18T09:55:03Z</time>
</trkpt>
<trkpt lat="49.33103992603719" lon="8.130044918507338">
<ele>193.20000000000005</ele>
<time>2023-05-18T09:55:04Z</time>
</trkpt>
<trkpt lat="49.33107194490731" lon="8.130051959306002">
<ele>193.20000000000005</ele>
<time>2023-05-18T09:55:05Z</time>
</trkpt>
<trkpt lat="49.331106981262565" lon="8.130071992054582">
<ele>193.39999999999998</ele>
<time>2023-05-18T09:55:06Z</time>
</trkpt>
<trkpt lat="49.331154925748706" lon="8.130114991217852">
<ele>193.39999999999998</ele>
<time>2023-05-18T09:55:07Z</time>
</trkpt>
<trkpt lat="49.33119993656874" lon="8.130131922662258">
<ele>193.60000000000002</ele>
<time>2023-05-18T09:55:08Z</time>
</trkpt>
<trkpt lat="49.33124293573201" lon="8.130164947360754">
<ele>193.60000000000002</ele>
<time>2023-05-18T09:55:09Z</time>
</trkpt>
<trkpt lat="49.331279983744025" lon="8.130194954574108">
<ele>193.79999999999995</ele>
<time>2023-05-18T09:55:10Z</time>
</trkpt>
<trkpt lat="49.33131694793701" lon="8.13021699897945">
<ele>193.79999999999995</ele>
<time>2023-05-18T09:55:11Z</time>
</trkpt>
<trkpt lat="49.33135692961514" lon="8.130234936252236">
<ele>194</ele>
<time>2023-05-18T09:55:12Z</time>
</trkpt>
<trkpt lat="49.33139297179878" lon="8.130249939858913">
<ele>194.20000000000005</ele>
<time>2023-05-18T09:55:13Z</time>
</trkpt>
<trkpt lat="49.331431947648525" lon="8.13026494346559">
<ele>194.20000000000005</ele>
<time>2023-05-18T09:55:14Z</time>
</trkpt>
<trkpt lat="49.331474946811795" lon="8.130281958729029">
<ele>194.39999999999998</ele>
<time>2023-05-18T09:55:15Z</time>
</trkpt>
<trkpt lat="49.331517945975065" lon="8.130292939022183">
<ele>194.60000000000002</ele>
<time>2023-05-18T09:55:16Z</time>
</trkpt>
<trkpt lat="49.33155692182481" lon="8.13030794262886">
<ele>194.60000000000002</ele>
<time>2023-05-18T09:55:17Z</time>
</trkpt>
<trkpt lat="49.33159698732197" lon="8.130319928750396">
<ele>194.79999999999995</ele>
<time>2023-05-18T09:55:18Z</time>
</trkpt>
<trkpt lat="49.3316369690001" lon="8.130332920700312">
<ele>194.79999999999995</ele>
<time>2023-05-18T09:55:19Z</time>
</trkpt>
<trkpt lat="49.3316699936986" lon="8.130342978984118">
<ele>194.79999999999995</ele>
<time>2023-05-18T09:55:20Z</time>
</trkpt>
<trkpt lat="49.33170494623482" lon="8.130354965105653">
<ele>195</ele>
<time>2023-05-18T09:55:21Z</time>
</trkpt>
<trkpt lat="49.33174199424684" lon="8.130367957055569">
<ele>195</ele>
<time>2023-05-18T09:55:22Z</time>
</trkpt>
<trkpt lat="49.331777952611446" lon="8.130379943177104">
<ele>195.20000000000005</ele>
<time>2023-05-18T09:55:23Z</time>
</trkpt>
<trkpt lat="49.331816928461194" lon="8.130389917641878">
<ele>195.20000000000005</ele>
<time>2023-05-18T09:55:24Z</time>
</trkpt>
<trkpt lat="49.331856993958354" lon="8.130401987582445">
<ele>195.39999999999998</ele>
<time>2023-05-18T09:55:25Z</time>
</trkpt>
<trkpt lat="49.33189697563648" lon="8.130407938733697">
<ele>195.39999999999998</ele>
<time>2023-05-18T09:55:26Z</time>
</trkpt>
<trkpt lat="49.33193997479975" lon="8.1304129678756">
<ele>195.60000000000002</ele>
<time>2023-05-18T09:55:27Z</time>
</trkpt>
<trkpt lat="49.33198196813464" lon="8.130414979532361">
<ele>195.60000000000002</ele>
<time>2023-05-18T09:55:28Z</time>
</trkpt>
<trkpt lat="49.33202295564115" lon="8.130419924855232">
<ele>195.79999999999995</ele>
<time>2023-05-18T09:55:29Z</time>
</trkpt>
<trkpt lat="49.33206293731928" lon="8.130426965653896">
<ele>195.79999999999995</ele>
<time>2023-05-18T09:55:30Z</time>
</trkpt>
<trkpt lat="49.33210291899741" lon="8.1304319947958">
<ele>196</ele>
<time>2023-05-18T09:55:31Z</time>
</trkpt>
<trkpt lat="49.33214298449457" lon="8.13043694011867">
<ele>196</ele>
<time>2023-05-18T09:55:32Z</time>
</trkpt>
<trkpt lat="49.332181960344315" lon="8.130439957603812">
<ele>196</ele>
<time>2023-05-18T09:55:33Z</time>
</trkpt>
<trkpt lat="49.33221791870892" lon="8.130439957603812">
<ele>196.20000000000005</ele>
<time>2023-05-18T09:55:34Z</time>
</trkpt>
<trkpt lat="49.3322519492358" lon="8.130437945947051">
<ele>196.20000000000005</ele>
<time>2023-05-18T09:55:35Z</time>
</trkpt>
<trkpt lat="49.332286985591054" lon="8.13043694011867">
<ele>196.20000000000005</ele>
<time>2023-05-18T09:55:36Z</time>
</trkpt>
<trkpt lat="49.33232294395566" lon="8.1304319947958">
<ele>196.39999999999998</ele>
<time>2023-05-18T09:55:37Z</time>
</trkpt>
<trkpt lat="49.33235999196768" lon="8.130426965653896">
<ele>196.39999999999998</ele>
<time>2023-05-18T09:55:38Z</time>
</trkpt>
<trkpt lat="49.33239293284714" lon="8.130421936511993">
<ele>196.60000000000002</ele>
<time>2023-05-18T09:55:39Z</time>
</trkpt>
<trkpt lat="49.3324279692024" lon="8.130416991189122">
<ele>196.79999999999995</ele>
<time>2023-05-18T09:55:40Z</time>
</trkpt>
<trkpt lat="49.332461999729276" lon="8.130409950390458">
<ele>196.79999999999995</ele>
<time>2023-05-18T09:55:41Z</time>
</trkpt>
<trkpt lat="49.33249494060874" lon="8.130399975925684">
<ele>197</ele>
<time>2023-05-18T09:55:42Z</time>
</trkpt>
<trkpt lat="49.33252193033695" lon="8.130389917641878">
<ele>197</ele>
<time>2023-05-18T09:55:43Z</time>
</trkpt>
<trkpt lat="49.332549925893545" lon="8.130379943177104">
<ele>197.20000000000005</ele>
<time>2023-05-18T09:55:44Z</time>
</trkpt>
<trkpt lat="49.33258295059204" lon="8.130376925691962">
<ele>197.39999999999998</ele>
<time>2023-05-18T09:55:45Z</time>
</trkpt>
<trkpt lat="49.332614969462156" lon="8.130367957055569">
<ele>197.60000000000002</ele>
<time>2023-05-18T09:55:46Z</time>
</trkpt>
<trkpt lat="49.33264992199838" lon="8.130356976762414">
<ele>197.79999999999995</ele>
<time>2023-05-18T09:55:47Z</time>
</trkpt>
<trkpt lat="49.33268797583878" lon="8.130346918478608">
<ele>197.79999999999995</ele>
<time>2023-05-18T09:55:48Z</time>
</trkpt>
<trkpt lat="49.33272494003177" lon="8.130337949842215">
<ele>198</ele>
<time>2023-05-18T09:55:49Z</time>
</trkpt>
<trkpt lat="49.33275695890188" lon="8.130314983427525">
<ele>198.20000000000005</ele>
<time>2023-05-18T09:55:50Z</time>
</trkpt>
<trkpt lat="49.33278998360038" lon="8.130301991477609">
<ele>198.20000000000005</ele>
<time>2023-05-18T09:55:51Z</time>
</trkpt>
<trkpt lat="49.33281999081373" lon="8.130286987870932">
<ele>198.39999999999998</ele>
<time>2023-05-18T09:55:52Z</time>
</trkpt>
<trkpt lat="49.33285494334996" lon="8.13028296455741">
<ele>198.60000000000002</ele>
<time>2023-05-18T09:55:53Z</time>
</trkpt>
<trkpt lat="49.332889979705215" lon="8.130279947072268">
<ele>198.79999999999995</ele>
<time>2023-05-18T09:55:54Z</time>
</trkpt>
<trkpt lat="49.33292199857533" lon="8.130281958729029">
<ele>198.79999999999995</ele>
<time>2023-05-18T09:55:55Z</time>
</trkpt>
<trkpt lat="49.33294798247516" lon="8.130286987870932">
<ele>199</ele>
<time>2023-05-18T09:55:56Z</time>
</trkpt>
<trkpt lat="49.33297296054661" lon="8.130294950678945">
<ele>199.20000000000005</ele>
<time>2023-05-18T09:55:57Z</time>
</trkpt>
<trkpt lat="49.332999950274825" lon="8.130309954285622">
<ele>199.20000000000005</ele>
<time>2023-05-18T09:55:58Z</time>
</trkpt>
<trkpt lat="49.33302694000304" lon="8.130331998690963">
<ele>199.39999999999998</ele>
<time>2023-05-18T09:55:59Z</time>
</trkpt>
<trkpt lat="49.33304797858" lon="8.130361922085285">
<ele>199.60000000000002</ele>
<time>2023-05-18T09:56:00Z</time>
</trkpt>
<trkpt lat="49.333067927509546" lon="8.130397964268923">
<ele>199.60000000000002</ele>
<time>2023-05-18T09:56:01Z</time>
</trkpt>
<trkpt lat="49.333086954429746" lon="8.13043694011867">
<ele>199.60000000000002</ele>
<time>2023-05-18T09:56:02Z</time>
</trkpt>
<trkpt lat="49.3331029638648" lon="8.13047499395907">
<ele>199.79999999999995</ele>
<time>2023-05-18T09:56:03Z</time>
</trkpt>
<trkpt lat="49.33311796747148" lon="8.130516987293959">
<ele>199.79999999999995</ele>
<time>2023-05-18T09:56:04Z</time>
</trkpt>
<trkpt lat="49.33313498273492" lon="8.1305649317801">
<ele>199.79999999999995</ele>
<time>2023-05-18T09:56:05Z</time>
</trkpt>
<trkpt lat="49.33315199799836" lon="8.130616983398795">
<ele>199.79999999999995</ele>
<time>2023-05-18T09:56:06Z</time>
</trkpt>
<trkpt lat="49.33316792361438" lon="8.13066995702684">
<ele>199.79999999999995</ele>
<time>2023-05-18T09:56:07Z</time>
</trkpt>
<trkpt lat="49.33318192139268" lon="8.130724942311645">
<ele>199.60000000000002</ele>
<time>2023-05-18T09:56:08Z</time>
</trkpt>
<trkpt lat="49.33319793082774" lon="8.130797948688269">
<ele>199.60000000000002</ele>
<time>2023-05-18T09:56:09Z</time>
</trkpt>
<trkpt lat="49.33320698328316" lon="8.13086299225688">
<ele>199.39999999999998</ele>
<time>2023-05-18T09:56:10Z</time>
</trkpt>
<trkpt lat="49.333212934434414" lon="8.130921917036176">
<ele>199.39999999999998</ele>
<time>2023-05-18T09:56:11Z</time>
</trkpt>
<trkpt lat="49.33322693221271" lon="8.13099299557507">
<ele>199.20000000000005</ele>
<time>2023-05-18T09:56:12Z</time>
</trkpt>
<trkpt lat="49.3332379963249" lon="8.131062984466553">
<ele>199.20000000000005</ele>
<time>2023-05-18T09:56:13Z</time>
</trkpt>
<trkpt lat="49.33325199410319" lon="8.131137918680906">
<ele>199</ele>
<time>2023-05-18T09:56:14Z</time>
</trkpt>
<trkpt lat="49.33326297439635" lon="8.131214948371053">
<ele>199</ele>
<time>2023-05-18T09:56:15Z</time>
</trkpt>
<trkpt lat="49.33327294886112" lon="8.131289966404438">
<ele>198.79999999999995</ele>
<time>2023-05-18T09:56:16Z</time>
</trkpt>
<trkpt lat="49.333281917497516" lon="8.131351992487907">
<ele>198.60000000000002</ele>
<time>2023-05-18T09:56:17Z</time>
</trkpt>
<trkpt lat="49.33328694663942" lon="8.131399936974049">
<ele>198.60000000000002</ele>
<time>2023-05-18T09:56:18Z</time>
</trkpt>
<trkpt lat="49.3332929816097" lon="8.131442936137319">
<ele>198.39999999999998</ele>
<time>2023-05-18T09:56:19Z</time>
</trkpt>
<trkpt lat="49.333299938589334" lon="8.131482917815447">
<ele>198.20000000000005</ele>
<time>2023-05-18T09:56:20Z</time>
</trkpt>
<trkpt lat="49.333299938589334" lon="8.131521977484226">
<ele>198</ele>
<time>2023-05-18T09:56:21Z</time>
</trkpt>
<trkpt lat="49.333301950246096" lon="8.131559947505593">
<ele>198</ele>
<time>2023-05-18T09:56:22Z</time>
</trkpt>
<trkpt lat="49.333306979388" lon="8.131599929183722">
<ele>197.79999999999995</ele>
<time>2023-05-18T09:56:23Z</time>
</trkpt>
<trkpt lat="49.33331192471087" lon="8.13163798302412">
<ele>197.60000000000002</ele>
<time>2023-05-18T09:56:24Z</time>
</trkpt>
<trkpt lat="49.33331293053925" lon="8.131676958873868">
<ele>197.60000000000002</ele>
<time>2023-05-18T09:56:25Z</time>
</trkpt>
<trkpt lat="49.33331293053925" lon="8.131716940551996">
<ele>197.39999999999998</ele>
<time>2023-05-18T09:56:26Z</time>
</trkpt>
<trkpt lat="49.33331695385277" lon="8.131757928058505">
<ele>197.20000000000005</ele>
<time>2023-05-18T09:56:27Z</time>
</trkpt>
<trkpt lat="49.33331795968115" lon="8.131801933050156">
<ele>197.20000000000005</ele>
<time>2023-05-18T09:56:28Z</time>
</trkpt>
<trkpt lat="49.333321982994676" lon="8.131844932213426">
<ele>197</ele>
<time>2023-05-18T09:56:29Z</time>
</trkpt>
<trkpt lat="49.33332793414593" lon="8.131884997710586">
<ele>197</ele>
<time>2023-05-18T09:56:30Z</time>
</trkpt>
<trkpt lat="49.33333296328783" lon="8.131926991045475">
<ele>197</ele>
<time>2023-05-18T09:56:31Z</time>
</trkpt>
<trkpt lat="49.33333992026746" lon="8.131972923874855">
<ele>197</ele>
<time>2023-05-18T09:56:32Z</time>
</trkpt>
<trkpt lat="49.33334696106613" lon="8.132029920816422">
<ele>196.79999999999995</ele>
<time>2023-05-18T09:56:33Z</time>
</trkpt>
<trkpt lat="49.33335299603641" lon="8.132092952728271">
<ele>196.79999999999995</ele>
<time>2023-05-18T09:56:34Z</time>
</trkpt>
<trkpt lat="49.33335794135928" lon="8.132156990468502">
<ele>196.79999999999995</ele>
<time>2023-05-18T09:56:35Z</time>
</trkpt>
<trkpt lat="49.33335794135928" lon="8.13221993856132">
<ele>196.79999999999995</ele>
<time>2023-05-18T09:56:36Z</time>
</trkpt>
<trkpt lat="49.33335199020803" lon="8.132292944937944">
<ele>196.60000000000002</ele>
<time>2023-05-18T09:56:37Z</time>
</trkpt>
<trkpt lat="49.33333698660135" lon="8.132366957142949">
<ele>196.39999999999998</ele>
<time>2023-05-18T09:56:38Z</time>
</trkpt>
<trkpt lat="49.33331293053925" lon="8.132437951862812">
<ele>196.39999999999998</ele>
<time>2023-05-18T09:56:39Z</time>
</trkpt>
<trkpt lat="49.333282923325896" lon="8.132509952411056">
<ele>196.20000000000005</ele>
<time>2023-05-18T09:56:40Z</time>
</trkpt>
<trkpt lat="49.333252999931574" lon="8.132586982101202">
<ele>196</ele>
<time>2023-05-18T09:56:41Z</time>
</trkpt>
<trkpt lat="49.33321997523308" lon="8.132659988477826">
<ele>195.79999999999995</ele>
<time>2023-05-18T09:56:42Z</time>
</trkpt>
<trkpt lat="49.333189968019724" lon="8.132741963490844">
<ele>195.60000000000002</ele>
<time>2023-05-18T09:56:43Z</time>
</trkpt>
<trkpt lat="49.33315996080637" lon="8.132824944332242">
<ele>195.39999999999998</ele>
<time>2023-05-18T09:56:44Z</time>
</trkpt>
<trkpt lat="49.333126936107874" lon="8.13290691934526">
<ele>195.20000000000005</ele>
<time>2023-05-18T09:56:45Z</time>
</trkpt>
<trkpt lat="49.33308997191489" lon="8.13299199566245">
<ele>194.79999999999995</ele>
<time>2023-05-18T09:56:46Z</time>
</trkpt>
<trkpt lat="49.33305493555963" lon="8.13307698816061">
<ele>194.60000000000002</ele>
<time>2023-05-18T09:56:47Z</time>
</trkpt>
<trkpt lat="49.333019983023405" lon="8.133167931810021">
<ele>194.39999999999998</ele>
<time>2023-05-18T09:56:48Z</time>
</trkpt>
<trkpt lat="49.33298695832491" lon="8.133262982591987">
<ele>194</ele>
<time>2023-05-18T09:56:49Z</time>
</trkpt>
<trkpt lat="49.332954939454794" lon="8.13335694372654">
<ele>193.79999999999995</ele>
<time>2023-05-18T09:56:50Z</time>
</trkpt>
<trkpt lat="49.3329269438982" lon="8.13344495370984">
<ele>193.60000000000002</ele>
<time>2023-05-18T09:56:51Z</time>
</trkpt>
<trkpt lat="49.33289995416999" lon="8.133527934551239">
<ele>193.20000000000005</ele>
<time>2023-05-18T09:56:52Z</time>
</trkpt>
<trkpt lat="49.33287799358368" lon="8.133604964241385">
<ele>192.79999999999995</ele>
<time>2023-05-18T09:56:53Z</time>
</trkpt>
<trkpt lat="49.33285997249186" lon="8.133682999759912">
<ele>192.60000000000002</ele>
<time>2023-05-18T09:56:54Z</time>
</trkpt>
<trkpt lat="49.33284295722842" lon="8.133762963116169">
<ele>192.20000000000005</ele>
<time>2023-05-18T09:56:55Z</time>
</trkpt>
<trkpt lat="49.332827953621745" lon="8.133844938129187">
<ele>192</ele>
<time>2023-05-18T09:56:56Z</time>
</trkpt>
<trkpt lat="49.33281797915697" lon="8.133927918970585">
<ele>191.60000000000002</ele>
<time>2023-05-18T09:56:57Z</time>
</trkpt>
<trkpt lat="49.332809932529926" lon="8.134004948660731">
<ele>191.39999999999998</ele>
<time>2023-05-18T09:56:58Z</time>
</trkpt>
<trkpt lat="49.33280196972191" lon="8.134081978350878">
<ele>191.20000000000005</ele>
<time>2023-05-18T09:56:59Z</time>
</trkpt>
<trkpt lat="49.33279492892325" lon="8.134159930050373">
<ele>190.79999999999995</ele>
<time>2023-05-18T09:57:00Z</time>
</trkpt>
<trkpt lat="49.33278998360038" lon="8.134234948083758">
<ele>190.60000000000002</ele>
<time>2023-05-18T09:57:01Z</time>
</trkpt>
<trkpt lat="49.33279694058001" lon="8.134306948632002">
<ele>190.39999999999998</ele>
<time>2023-05-18T09:57:02Z</time>
</trkpt>
<trkpt lat="49.33281797915697" lon="8.134361933916807">
<ele>190.20000000000005</ele>
<time>2023-05-18T09:57:03Z</time>
</trkpt>
<trkpt lat="49.33284496888518" lon="8.134394958615303">
<ele>190</ele>
<time>2023-05-18T09:57:04Z</time>
</trkpt>
<trkpt lat="49.33287992142141" lon="8.134411973878741">
<ele>189.79999999999995</ele>
<time>2023-05-18T09:57:05Z</time>
</trkpt>
<trkpt lat="49.33291998691857" lon="8.134417925029993">
<ele>189.60000000000002</ele>
<time>2023-05-18T09:57:06Z</time>
</trkpt>
<trkpt lat="49.3329599685967" lon="8.134421948343515">
<ele>189.60000000000002</ele>
<time>2023-05-18T09:57:07Z</time>
</trkpt>
<trkpt lat="49.332999950274825" lon="8.13443292863667">
<ele>189.39999999999998</ele>
<time>2023-05-18T09:57:08Z</time>
</trkpt>
<trkpt lat="49.33303792029619" lon="8.134446926414967">
<ele>189.39999999999998</ele>
<time>2023-05-18T09:57:09Z</time>
</trkpt>
<trkpt lat="49.33307697996497" lon="8.134459918364882">
<ele>189.39999999999998</ele>
<time>2023-05-18T09:57:10Z</time>
</trkpt>
<trkpt lat="49.3331119325012" lon="8.134469976648688">
<ele>189.39999999999998</ele>
<time>2023-05-18T09:57:11Z</time>
</trkpt>
<trkpt lat="49.333147974684834" lon="8.13447492197156">
<ele>189.39999999999998</ele>
<time>2023-05-18T09:57:12Z</time>
</trkpt>
<trkpt lat="49.33318493887782" lon="8.134482968598604">
<ele>189.60000000000002</ele>
<time>2023-05-18T09:57:13Z</time>
</trkpt>
<trkpt lat="49.33322492055595" lon="8.134492943063378">
<ele>189.60000000000002</ele>
<time>2023-05-18T09:57:14Z</time>
</trkpt>
<trkpt lat="49.33326297439635" lon="8.134506940841675">
<ele>189.60000000000002</ele>
<time>2023-05-18T09:57:15Z</time>
</trkpt>
<trkpt lat="49.333299938589334" lon="8.13451498746872">
<ele>189.79999999999995</ele>
<time>2023-05-18T09:57:16Z</time>
</trkpt>
<trkpt lat="49.33333698660135" lon="8.134521944448352">
<ele>189.79999999999995</ele>
<time>2023-05-18T09:57:17Z</time>
</trkpt>
<trkpt lat="49.33337696827948" lon="8.134527979418635">
<ele>189.79999999999995</ele>
<time>2023-05-18T09:57:18Z</time>
</trkpt>
<trkpt lat="49.33341694995761" lon="8.134534936398268">
<ele>189.79999999999995</ele>
<time>2023-05-18T09:57:19Z</time>
</trkpt>
<trkpt lat="49.33345793746412" lon="8.134544994682074">
<ele>189.79999999999995</ele>
<time>2023-05-18T09:57:20Z</time>
</trkpt>
<trkpt lat="49.333497919142246" lon="8.134552957490087">
<ele>190</ele>
<time>2023-05-18T09:57:21Z</time>
</trkpt>
<trkpt lat="49.3335419241339" lon="8.13456192612648">
<ele>190</ele>
<time>2023-05-18T09:57:22Z</time>
</trkpt>
<trkpt lat="49.333579977974296" lon="8.134566955268383">
<ele>190.20000000000005</ele>
<time>2023-05-18T09:57:23Z</time>
</trkpt>
<trkpt lat="49.333619959652424" lon="8.134571984410286">
<ele>190.20000000000005</ele>
<time>2023-05-18T09:57:24Z</time>
</trkpt>
<trkpt lat="49.333664970472455" lon="8.134576929733157">
<ele>190.20000000000005</ele>
<time>2023-05-18T09:57:25Z</time>
</trkpt>
<trkpt lat="49.333709981292486" lon="8.13458296470344">
<ele>190.20000000000005</ele>
<time>2023-05-18T09:57:26Z</time>
</trkpt>
<trkpt lat="49.33375691995025" lon="8.134589921683073">
<ele>190.20000000000005</ele>
<time>2023-05-18T09:57:27Z</time>
</trkpt>
<trkpt lat="49.33380293659866" lon="8.134599979966879">
<ele>190.20000000000005</ele>
<time>2023-05-18T09:57:28Z</time>
</trkpt>
<trkpt lat="49.33385197073221" lon="8.134609954431653">
<ele>190.20000000000005</ele>
<time>2023-05-18T09:57:29Z</time>
</trkpt>
<trkpt lat="49.333897987380624" lon="8.134619928896427">
<ele>190.20000000000005</ele>
<time>2023-05-18T09:57:30Z</time>
</trkpt>
<trkpt lat="49.333946937695146" lon="8.134627975523472">
<ele>190.20000000000005</ele>
<time>2023-05-18T09:57:31Z</time>
</trkpt>
<trkpt lat="49.33399798348546" lon="8.134641973301768">
<ele>190.20000000000005</ele>
<time>2023-05-18T09:57:32Z</time>
</trkpt>
<trkpt lat="49.334049951285124" lon="8.134659994393587">
<ele>190.20000000000005</ele>
<time>2023-05-18T09:57:33Z</time>
</trkpt>
<trkpt lat="49.33410292491317" lon="8.134679943323135">
<ele>190.20000000000005</ele>
<time>2023-05-18T09:57:34Z</time>
</trkpt>
<trkpt lat="49.334156988188624" lon="8.134701987728477">
<ele>190.20000000000005</ele>
<time>2023-05-18T09:57:35Z</time>
</trkpt>
<trkpt lat="49.33420795015991" lon="8.13472998328507">
<ele>190</ele>
<time>2023-05-18T09:57:36Z</time>
</trkpt>
<trkpt lat="49.33426192961633" lon="8.134767953306437">
<ele>190</ele>
<time>2023-05-18T09:57:37Z</time>
</trkpt>
<trkpt lat="49.334311969578266" lon="8.134802989661694">
<ele>190</ele>
<time>2023-05-18T09:57:38Z</time>
</trkpt>
<trkpt lat="49.33436192572117" lon="8.134836936369538">
<ele>189.79999999999995</ele>
<time>2023-05-18T09:57:39Z</time>
</trkpt>
<trkpt lat="49.33441297151148" lon="8.134864931926131">
<ele>189.60000000000002</ele>
<time>2023-05-18T09:57:40Z</time>
</trkpt>
<trkpt lat="49.334462927654386" lon="8.134889993816614">
<ele>189.60000000000002</ele>
<time>2023-05-18T09:57:41Z</time>
</trkpt>
<trkpt lat="49.33451196178794" lon="8.134914971888065">
<ele>189.39999999999998</ele>
<time>2023-05-18T09:57:42Z</time>
</trkpt>
<trkpt lat="49.33456493541598" lon="8.134936932474375">
<ele>189.20000000000005</ele>
<time>2023-05-18T09:57:43Z</time>
</trkpt>
<trkpt lat="49.33461497537792" lon="8.134957971051335">
<ele>189</ele>
<time>2023-05-18T09:57:44Z</time>
</trkpt>
<trkpt lat="49.33466794900596" lon="8.134976997971535">
<ele>189</ele>
<time>2023-05-18T09:57:45Z</time>
</trkpt>
<trkpt lat="49.33472293429077" lon="8.134994935244322">
<ele>188.79999999999995</ele>
<time>2023-05-18T09:57:46Z</time>
</trkpt>
<trkpt lat="49.33477699756622" lon="8.13501295633614">
<ele>188.79999999999995</ele>
<time>2023-05-18T09:57:47Z</time>
</trkpt>
<trkpt lat="49.33482997119427" lon="8.135029971599579">
<ele>188.60000000000002</ele>
<time>2023-05-18T09:57:48Z</time>
</trkpt>
<trkpt lat="49.33488495647907" lon="8.135049920529127">
<ele>188.60000000000002</ele>
<time>2023-05-18T09:57:49Z</time>
</trkpt>
<trkpt lat="49.33493994176388" lon="8.135067941620946">
<ele>188.60000000000002</ele>
<time>2023-05-18T09:57:50Z</time>
</trkpt>
<trkpt lat="49.33499199338257" lon="8.135087974369526">
<ele>188.60000000000002</ele>
<time>2023-05-18T09:57:51Z</time>
</trkpt>
<trkpt lat="49.335042955353856" lon="8.135104989632964">
<ele>188.39999999999998</ele>
<time>2023-05-18T09:57:52Z</time>
</trkpt>
<trkpt lat="49.33509693481028" lon="8.135119993239641">
<ele>188.39999999999998</ele>
<time>2023-05-18T09:57:53Z</time>
</trkpt>
<trkpt lat="49.335147980600595" lon="8.13513994216919">
<ele>188.39999999999998</ele>
<time>2023-05-18T09:57:54Z</time>
</trkpt>
<trkpt lat="49.3352029658854" lon="8.13516198657453">
<ele>188.20000000000005</ele>
<time>2023-05-18T09:57:55Z</time>
</trkpt>
<trkpt lat="49.335257951170206" lon="8.135177996009588">
<ele>188</ele>
<time>2023-05-18T09:57:56Z</time>
</trkpt>
<trkpt lat="49.33531494811177" lon="8.135197944939137">
<ele>187.79999999999995</ele>
<time>2023-05-18T09:57:57Z</time>
</trkpt>
<trkpt lat="49.33536792173982" lon="8.135216971859336">
<ele>187.79999999999995</ele>
<time>2023-05-18T09:57:58Z</time>
</trkpt>
<trkpt lat="49.335422990843654" lon="8.135236920788884">
<ele>187.60000000000002</ele>
<time>2023-05-18T09:57:59Z</time>
</trkpt>
<trkpt lat="49.33547697030008" lon="8.135257959365845">
<ele>187.39999999999998</ele>
<time>2023-05-18T09:58:00Z</time>
</trkpt>
<trkpt lat="49.33552793227136" lon="8.135274974629283">
<ele>187.20000000000005</ele>
<time>2023-05-18T09:58:01Z</time>
</trkpt>
<trkpt lat="49.33557998389006" lon="8.135287966579199">
<ele>187</ele>
<time>2023-05-18T09:58:02Z</time>
</trkpt>
<trkpt lat="49.33562994003296" lon="8.135301964357495">
<ele>187</ele>
<time>2023-05-18T09:58:03Z</time>
</trkpt>
<trkpt lat="49.33567796833813" lon="8.135314956307411">
<ele>186.79999999999995</ele>
<time>2023-05-18T09:58:04Z</time>
</trkpt>
<trkpt lat="49.335726918652654" lon="8.135326942428946">
<ele>186.79999999999995</ele>
<time>2023-05-18T09:58:05Z</time>
</trkpt>
<trkpt lat="49.335769917815924" lon="8.135341946035624">
<ele>186.79999999999995</ele>
<time>2023-05-18T09:58:06Z</time>
</trkpt>
<trkpt lat="49.335812916979194" lon="8.135359967127442">
<ele>186.79999999999995</ele>
<time>2023-05-18T09:58:07Z</time>
</trkpt>
<trkpt lat="49.335857927799225" lon="8.13537497073412">
<ele>186.79999999999995</ele>
<time>2023-05-18T09:58:08Z</time>
</trkpt>
<trkpt lat="49.335902938619256" lon="8.135391985997558">
<ele>186.79999999999995</ele>
<time>2023-05-18T09:58:09Z</time>
</trkpt>
<trkpt lat="49.33594794943929" lon="8.135406989604235">
<ele>186.79999999999995</ele>
<time>2023-05-18T09:58:10Z</time>
</trkpt>
<trkpt lat="49.335987931117415" lon="8.135416964069009">
<ele>187</ele>
<time>2023-05-18T09:58:11Z</time>
</trkpt>
<trkpt lat="49.336027996614575" lon="8.135422999039292">
<ele>187</ele>
<time>2023-05-18T09:58:12Z</time>
</trkpt>
<trkpt lat="49.33606697246432" lon="8.135432973504066">
<ele>187</ele>
<time>2023-05-18T09:58:13Z</time>
</trkpt>
<trkpt lat="49.33610293082893" lon="8.13544294796884">
<ele>187</ele>
<time>2023-05-18T09:58:14Z</time>
</trkpt>
<trkpt lat="49.33614199049771" lon="8.135451916605234">
<ele>187</ele>
<time>2023-05-18T09:58:15Z</time>
</trkpt>
<trkpt lat="49.33618197217584" lon="8.135459963232279">
<ele>187</ele>
<time>2023-05-18T09:58:16Z</time>
</trkpt>
<trkpt lat="49.336219942197204" lon="8.135464992374182">
<ele>187.20000000000005</ele>
<time>2023-05-18T09:58:17Z</time>
</trkpt>
<trkpt lat="49.3362579960376" lon="8.135466920211911">
<ele>187.20000000000005</ele>
<time>2023-05-18T09:58:18Z</time>
</trkpt>
<trkpt lat="49.33629496023059" lon="8.135466920211911">
<ele>187.39999999999998</ele>
<time>2023-05-18T09:58:19Z</time>
</trkpt>
<trkpt lat="49.336331924423575" lon="8.13546197488904">
<ele>187.60000000000002</ele>
<time>2023-05-18T09:58:20Z</time>
</trkpt>
<trkpt lat="49.336371989920735" lon="8.135454934090376">
<ele>187.79999999999995</ele>
<time>2023-05-18T09:58:21Z</time>
</trkpt>
<trkpt lat="49.3364099599421" lon="8.135444959625602">
<ele>187.79999999999995</ele>
<time>2023-05-18T09:58:22Z</time>
</trkpt>
<trkpt lat="49.33644792996347" lon="8.135434985160828">
<ele>188</ele>
<time>2023-05-18T09:58:23Z</time>
</trkpt>
<trkpt lat="49.33648799546063" lon="8.13541998155415">
<ele>188.20000000000005</ele>
<time>2023-05-18T09:58:24Z</time>
</trkpt>
<trkpt lat="49.336524959653616" lon="8.135406989604235">
<ele>188.39999999999998</ele>
<time>2023-05-18T09:58:25Z</time>
</trkpt>
<trkpt lat="49.33655999600887" lon="8.135389974340796">
<ele>188.39999999999998</ele>
<time>2023-05-18T09:58:26Z</time>
</trkpt>
<trkpt lat="49.33659796603024" lon="8.135372959077358">
<ele>188.60000000000002</ele>
<time>2023-05-18T09:58:27Z</time>
</trkpt>
<trkpt lat="49.33663493022323" lon="8.1353569496423">
<ele>188.60000000000002</ele>
<time>2023-05-18T09:58:28Z</time>
</trkpt>
<trkpt lat="49.336671978235245" lon="8.135342951864004">
<ele>188.79999999999995</ele>
<time>2023-05-18T09:58:29Z</time>
</trkpt>
<trkpt lat="49.33670793659985" lon="8.135329959914088">
<ele>188.79999999999995</ele>
<time>2023-05-18T09:58:30Z</time>
</trkpt>
<trkpt lat="49.33674498461187" lon="8.13531193882227">
<ele>188.79999999999995</ele>
<time>2023-05-18T09:58:31Z</time>
</trkpt>
<trkpt lat="49.336782954633236" lon="8.13528997823596">
<ele>188.79999999999995</ele>
<time>2023-05-18T09:58:32Z</time>
</trkpt>
<trkpt lat="49.336821930482984" lon="8.135262988507748">
<ele>188.79999999999995</ele>
<time>2023-05-18T09:58:33Z</time>
</trkpt>
<trkpt lat="49.33685797266662" lon="8.135237926617265">
<ele>188.79999999999995</ele>
<time>2023-05-18T09:58:34Z</time>
</trkpt>
<trkpt lat="49.33689493685961" lon="8.135214960202575">
<ele>188.79999999999995</ele>
<time>2023-05-18T09:58:35Z</time>
</trkpt>
<trkpt lat="49.336929973214865" lon="8.135186964645982">
<ele>188.79999999999995</ele>
<time>2023-05-18T09:58:36Z</time>
</trkpt>
<trkpt lat="49.33696199208498" lon="8.135156957432628">
<ele>188.79999999999995</ele>
<time>2023-05-18T09:58:37Z</time>
</trkpt>
<trkpt lat="49.33699292130768" lon="8.135127956047654">
<ele>188.79999999999995</ele>
<time>2023-05-18T09:58:38Z</time>
</trkpt>
<trkpt lat="49.33702795766294" lon="8.135099960491061">
<ele>188.79999999999995</ele>
<time>2023-05-18T09:58:39Z</time>
</trkpt>
<trkpt lat="49.3370629940182" lon="8.135067941620946">
<ele>188.79999999999995</ele>
<time>2023-05-18T09:58:40Z</time>
</trkpt>
<trkpt lat="49.33709995821118" lon="8.13503491692245">
<ele>188.79999999999995</ele>
<time>2023-05-18T09:58:41Z</time>
</trkpt>
<trkpt lat="49.33713993988931" lon="8.134999964386225">
<ele>188.79999999999995</ele>
<time>2023-05-18T09:58:42Z</time>
</trkpt>
<trkpt lat="49.3371819332242" lon="8.134964928030968">
<ele>188.79999999999995</ele>
<time>2023-05-18T09:58:43Z</time>
</trkpt>
<trkpt lat="49.33722292073071" lon="8.134934920817614">
<ele>188.79999999999995</ele>
<time>2023-05-18T09:58:44Z</time>
</trkpt>
<trkpt lat="49.33726692572236" lon="8.134912960231304">
<ele>188.79999999999995</ele>
<time>2023-05-18T09:58:45Z</time>
</trkpt>
<trkpt lat="49.33731193654239" lon="8.134899968281388">
<ele>188.79999999999995</ele>
<time>2023-05-18T09:58:46Z</time>
</trkpt>
<trkpt lat="49.337359964847565" lon="8.134887982159853">
<ele>188.79999999999995</ele>
<time>2023-05-18T09:58:47Z</time>
</trkpt>
<trkpt lat="49.33740799315274" lon="8.134877923876047">
<ele>188.60000000000002</ele>
<time>2023-05-18T09:58:48Z</time>
</trkpt>
<trkpt lat="49.33745694346726" lon="8.134867949411273">
<ele>188.60000000000002</ele>
<time>2023-05-18T09:58:49Z</time>
</trkpt>
<trkpt lat="49.337507989257574" lon="8.134856969118118">
<ele>188.60000000000002</ele>
<time>2023-05-18T09:58:50Z</time>
</trkpt>
<trkpt lat="49.33755794540048" lon="8.134844982996583">
<ele>188.39999999999998</ele>
<time>2023-05-18T09:58:51Z</time>
</trkpt>
<trkpt lat="49.33760697953403" lon="8.134832996875048">
<ele>188.39999999999998</ele>
<time>2023-05-18T09:58:52Z</time>
</trkpt>
<trkpt lat="49.33765693567693" lon="8.134822938591242">
<ele>188.20000000000005</ele>
<time>2023-05-18T09:58:53Z</time>
</trkpt>
<trkpt lat="49.337704963982105" lon="8.134821932762861">
<ele>188.20000000000005</ele>
<time>2023-05-18T09:58:54Z</time>
</trkpt>
<trkpt lat="49.3377519864589" lon="8.1348199211061">
<ele>188.20000000000005</ele>
<time>2023-05-18T09:58:55Z</time>
</trkpt>
<trkpt lat="49.33779993094504" lon="8.1348199211061">
<ele>188</ele>
<time>2023-05-18T09:58:56Z</time>
</trkpt>
<trkpt lat="49.33784795925021" lon="8.134822938591242">
<ele>188</ele>
<time>2023-05-18T09:58:57Z</time>
</trkpt>
<trkpt lat="49.337899927049875" lon="8.1348199211061">
<ele>188</ele>
<time>2023-05-18T09:58:58Z</time>
</trkpt>
<trkpt lat="49.33794795535505" lon="8.13481698743999">
<ele>188</ele>
<time>2023-05-18T09:58:59Z</time>
</trkpt>
<trkpt lat="49.33799497783184" lon="8.13481799326837">
<ele>188</ele>
<time>2023-05-18T09:59:00Z</time>
</trkpt>
<trkpt lat="49.3380419164896" lon="8.134821932762861">
<ele>188</ele>
<time>2023-05-18T09:59:01Z</time>
</trkpt>
<trkpt lat="49.338089944794774" lon="8.134824950248003">
<ele>188.20000000000005</ele>
<time>2023-05-18T09:59:02Z</time>
</trkpt>
<trkpt lat="49.338136967271566" lon="8.134822938591242">
<ele>188.20000000000005</ele>
<time>2023-05-18T09:59:03Z</time>
</trkpt>
<trkpt lat="49.3381819780916" lon="8.1348199211061">
<ele>188.20000000000005</ele>
<time>2023-05-18T09:59:04Z</time>
</trkpt>
<trkpt lat="49.33822698891163" lon="8.1348199211061">
<ele>188.20000000000005</ele>
<time>2023-05-18T09:59:05Z</time>
</trkpt>
<trkpt lat="49.33826797641814" lon="8.1348199211061">
<ele>188.20000000000005</ele>
<time>2023-05-18T09:59:06Z</time>
</trkpt>
<trkpt lat="49.33831298723817" lon="8.13481799326837">
<ele>188.20000000000005</ele>
<time>2023-05-18T09:59:07Z</time>
</trkpt>
<trkpt lat="49.3383529689163" lon="8.134814975783229">
<ele>188.20000000000005</ele>
<time>2023-05-18T09:59:08Z</time>
</trkpt>
<trkpt lat="49.338394962251186" lon="8.134812964126468">
<ele>188.20000000000005</ele>
<time>2023-05-18T09:59:09Z</time>
</trkpt>
<trkpt lat="49.338434943929315" lon="8.134806929156184">
<ele>188.20000000000005</ele>
<time>2023-05-18T09:59:10Z</time>
</trkpt>
<trkpt lat="49.33847199194133" lon="8.13479796051979">
<ele>188.39999999999998</ele>
<time>2023-05-18T09:59:11Z</time>
</trkpt>
<trkpt lat="49.3385099619627" lon="8.134794943034649">
<ele>188.39999999999998</ele>
<time>2023-05-18T09:59:12Z</time>
</trkpt>
<trkpt lat="49.33854793198407" lon="8.134786980226636">
<ele>188.60000000000002</ele>
<time>2023-05-18T09:59:13Z</time>
</trkpt>
<trkpt lat="49.338586991652846" lon="8.13477692194283">
<ele>188.79999999999995</ele>
<time>2023-05-18T09:59:14Z</time>
</trkpt>
<trkpt lat="49.33862496167421" lon="8.134761918336153">
<ele>188.79999999999995</ele>
<time>2023-05-18T09:59:15Z</time>
</trkpt>
<trkpt lat="49.33866293169558" lon="8.134746998548508">
<ele>189</ele>
<time>2023-05-18T09:59:16Z</time>
</trkpt>
<trkpt lat="49.33870199136436" lon="8.134727971628308">
<ele>189</ele>
<time>2023-05-18T09:59:17Z</time>
</trkpt>
<trkpt lat="49.33874197304249" lon="8.134702993556857">
<ele>189.20000000000005</ele>
<time>2023-05-18T09:59:18Z</time>
</trkpt>
<trkpt lat="49.338779943063855" lon="8.134676925837994">
<ele>189.20000000000005</ele>
<time>2023-05-18T09:59:19Z</time>
</trkpt>
<trkpt lat="49.338817996904254" lon="8.13464792445302">
<ele>189.20000000000005</ele>
<time>2023-05-18T09:59:20Z</time>
</trkpt>
<trkpt lat="49.33885496109724" lon="8.134621940553188">
<ele>189.20000000000005</ele>
<time>2023-05-18T09:59:21Z</time>
</trkpt>
<trkpt lat="49.3388899974525" lon="8.134589921683073">
<ele>189.39999999999998</ele>
<time>2023-05-18T09:59:22Z</time>
</trkpt>
<trkpt lat="49.33892193250358" lon="8.134554969146848">
<ele>189.39999999999998</ele>
<time>2023-05-18T09:59:23Z</time>
</trkpt>
<trkpt lat="49.338951939716935" lon="8.134521944448352">
<ele>189.39999999999998</ele>
<time>2023-05-18T09:59:24Z</time>
</trkpt>
<trkpt lat="49.33898496441543" lon="8.134487997740507">
<ele>189.60000000000002</ele>
<time>2023-05-18T09:59:25Z</time>
</trkpt>
<trkpt lat="49.339016983285546" lon="8.134449943900108">
<ele>189.60000000000002</ele>
<time>2023-05-18T09:59:26Z</time>
</trkpt>
<trkpt lat="49.33904992416501" lon="8.134407950565219">
<ele>189.79999999999995</ele>
<time>2023-05-18T09:59:27Z</time>
</trkpt>
<trkpt lat="49.33908496052027" lon="8.134369980543852">
<ele>189.79999999999995</ele>
<time>2023-05-18T09:59:28Z</time>
</trkpt>
<trkpt lat="49.339119996875525" lon="8.134334944188595">
<ele>189.79999999999995</ele>
<time>2023-05-18T09:59:29Z</time>
</trkpt>
<trkpt lat="49.33915494941175" lon="8.13429999165237">
<ele>189.79999999999995</ele>
<time>2023-05-18T09:59:30Z</time>
</trkpt>
<trkpt lat="49.33918998576701" lon="8.13426193781197">
<ele>189.79999999999995</ele>
<time>2023-05-18T09:59:31Z</time>
</trkpt>
<trkpt lat="49.33922694995999" lon="8.134224973618984">
<ele>189.79999999999995</ele>
<time>2023-05-18T09:59:32Z</time>
</trkpt>
<trkpt lat="49.33925997465849" lon="8.134187925606966">
<ele>189.79999999999995</ele>
<time>2023-05-18T09:59:33Z</time>
</trkpt>
<trkpt lat="49.339292999356985" lon="8.134157918393612">
<ele>190</ele>
<time>2023-05-18T09:59:34Z</time>
</trkpt>
<trkpt lat="49.33932996354997" lon="8.13413193449378">
<ele>190</ele>
<time>2023-05-18T09:59:35Z</time>
</trkpt>
<trkpt lat="49.33936499990523" lon="8.134102933108807">
<ele>190</ele>
<time>2023-05-18T09:59:36Z</time>
</trkpt>
<trkpt lat="49.339399952441454" lon="8.134071920067072">
<ele>190</ele>
<time>2023-05-18T09:59:37Z</time>
</trkpt>
<trkpt lat="49.33943691663444" lon="8.134039985015988">
<ele>190</ele>
<time>2023-05-18T09:59:38Z</time>
</trkpt>
<trkpt lat="49.3394719529897" lon="8.134009977802634">
<ele>190.20000000000005</ele>
<time>2023-05-18T09:59:39Z</time>
</trkpt>
<trkpt lat="49.339506989344954" lon="8.133977958932519">
<ele>190.20000000000005</ele>
<time>2023-05-18T09:59:40Z</time>
</trkpt>
<trkpt lat="49.33954194188118" lon="8.133947951719165">
<ele>190.20000000000005</ele>
<time>2023-05-18T09:59:41Z</time>
</trkpt>
<trkpt lat="49.33957798406482" lon="8.133919956162572">
<ele>190.39999999999998</ele>
<time>2023-05-18T09:59:42Z</time>
</trkpt>
<trkpt lat="49.339614948257804" lon="8.13389296643436">
<ele>190.39999999999998</ele>
<time>2023-05-18T09:59:43Z</time>
</trkpt>
<trkpt lat="49.33964696712792" lon="8.133862959221005">
<ele>190.60000000000002</ele>
<time>2023-05-18T09:59:44Z</time>
</trkpt>
<trkpt lat="49.339681919664145" lon="8.133836975321174">
<ele>190.60000000000002</ele>
<time>2023-05-18T09:59:45Z</time>
</trkpt>
<trkpt lat="49.33971796184778" lon="8.133811997249722">
<ele>190.60000000000002</ele>
<time>2023-05-18T09:59:46Z</time>
</trkpt>
<trkpt lat="49.33975299820304" lon="8.133784923702478">
<ele>190.79999999999995</ele>
<time>2023-05-18T09:59:47Z</time>
</trkpt>
<trkpt lat="49.339786944910884" lon="8.133756928145885">
<ele>190.79999999999995</ele>
<time>2023-05-18T09:59:48Z</time>
</trkpt>
<trkpt lat="49.33981695212424" lon="8.133729938417673">
<ele>191</ele>
<time>2023-05-18T09:59:49Z</time>
</trkpt>
<trkpt lat="49.33984695933759" lon="8.133707977831364">
<ele>191</ele>
<time>2023-05-18T09:59:50Z</time>
</trkpt>
<trkpt lat="49.33986992575228" lon="8.133691968396306">
<ele>191.20000000000005</ele>
<time>2023-05-18T09:59:51Z</time>
</trkpt>
<trkpt lat="49.339894987642765" lon="8.133676964789629">
<ele>191.39999999999998</ele>
<time>2023-05-18T09:59:52Z</time>
</trkpt>
<trkpt lat="49.339917954057455" lon="8.133664978668094">
<ele>191.39999999999998</ele>
<time>2023-05-18T09:59:53Z</time>
</trkpt>
<trkpt lat="49.339939998462796" lon="8.133651986718178">
<ele>191.60000000000002</ele>
<time>2023-05-18T09:59:54Z</time>
</trkpt>
<trkpt lat="49.339962964877486" lon="8.133637988939881">
<ele>191.60000000000002</ele>
<time>2023-05-18T09:59:55Z</time>
</trkpt>
<trkpt lat="49.339981991797686" lon="8.133621979504824">
<ele>191.79999999999995</ele>
<time>2023-05-18T09:59:56Z</time>
</trkpt>
<trkpt lat="49.340004958212376" lon="8.133612927049398">
<ele>192</ele>
<time>2023-05-18T09:59:57Z</time>
</trkpt>
<trkpt lat="49.340027924627066" lon="8.133604964241385">
<ele>192</ele>
<time>2023-05-18T09:59:58Z</time>
</trkpt>
<trkpt lat="49.340046951547265" lon="8.13359297811985">
<ele>192.20000000000005</ele>
<time>2023-05-18T09:59:59Z</time>
</trkpt>
<trkpt lat="49.34006195515394" lon="8.133582919836044">
<ele>192.39999999999998</ele>
<time>2023-05-18T10:00:00Z</time>
</trkpt>
<trkpt lat="49.3400729354471" lon="8.133574957028031">
<ele>192.60000000000002</ele>
<time>2023-05-18T10:00:01Z</time>
</trkpt>
<trkpt lat="49.34008693322539" lon="8.133569927886128">
<ele>193</ele>
<time>2023-05-18T10:00:02Z</time>
</trkpt>
<trkpt lat="49.340109983459115" lon="8.133557941764593">
<ele>193.20000000000005</ele>
<time>2023-05-18T10:00:03Z</time>
</trkpt>
<trkpt lat="49.340134961530566" lon="8.133547967299819">
<ele>193.39999999999998</ele>
<time>2023-05-18T10:00:04Z</time>
</trkpt>
<trkpt lat="49.340157927945256" lon="8.133534975349903">
<ele>193.60000000000002</ele>
<time>2023-05-18T10:00:05Z</time>
</trkpt>
<trkpt lat="49.34018793515861" lon="8.133522989228368">
<ele>193.79999999999995</ele>
<time>2023-05-18T10:00:06Z</time>
</trkpt>
<trkpt lat="49.340217942371964" lon="8.133522989228368">
<ele>194</ele>
<time>2023-05-18T10:00:07Z</time>
</trkpt>
<trkpt lat="49.34024694375694" lon="8.133539920672774">
<ele>194.20000000000005</ele>
<time>2023-05-18T10:00:08Z</time>
</trkpt>
<trkpt lat="49.34027795679867" lon="8.133561965078115">
<ele>194.20000000000005</ele>
<time>2023-05-18T10:00:09Z</time>
</trkpt>
<trkpt lat="49.340306958183646" lon="8.133586943149567">
<ele>194.39999999999998</ele>
<time>2023-05-18T10:00:10Z</time>
</trkpt>
<trkpt lat="49.34033797122538" lon="8.13361695036292">
<ele>194.39999999999998</ele>
<time>2023-05-18T10:00:11Z</time>
</trkpt>
<trkpt lat="49.34037493541837" lon="8.133647963404655">
<ele>194.60000000000002</ele>
<time>2023-05-18T10:00:12Z</time>
</trkpt>
<trkpt lat="49.340409971773624" lon="8.133676964789629">
<ele>194.60000000000002</ele>
<time>2023-05-18T10:00:13Z</time>
</trkpt>
<trkpt lat="49.34044693596661" lon="8.133704960346222">
<ele>194.60000000000002</ele>
<time>2023-05-18T10:00:14Z</time>
</trkpt>
<trkpt lat="49.34048498980701" lon="8.133736979216337">
<ele>194.60000000000002</ele>
<time>2023-05-18T10:00:15Z</time>
</trkpt>
<trkpt lat="49.34052295982838" lon="8.133769920095801">
<ele>194.60000000000002</ele>
<time>2023-05-18T10:00:16Z</time>
</trkpt>
<trkpt lat="49.340562941506505" lon="8.133802944794297">
<ele>194.60000000000002</ele>
<time>2023-05-18T10:00:17Z</time>
</trkpt>
<trkpt lat="49.340606946498156" lon="8.133839992806315">
<ele>194.60000000000002</ele>
<time>2023-05-18T10:00:18Z</time>
</trkpt>
<trkpt lat="49.34065296314657" lon="8.133877962827682">
<ele>194.60000000000002</ele>
<time>2023-05-18T10:00:19Z</time>
</trkpt>
<trkpt lat="49.34069495648146" lon="8.133921967819333">
<ele>194.60000000000002</ele>
<time>2023-05-18T10:00:20Z</time>
</trkpt>
<trkpt lat="49.34073996730149" lon="8.133966978639364">
<ele>194.60000000000002</ele>
<time>2023-05-18T10:00:21Z</time>
</trkpt>
<trkpt lat="49.34078992344439" lon="8.134011989459395">
<ele>194.60000000000002</ele>
<time>2023-05-18T10:00:22Z</time>
</trkpt>
<trkpt lat="49.34083694592118" lon="8.134052976965904">
<ele>194.60000000000002</ele>
<time>2023-05-18T10:00:23Z</time>
</trkpt>
<trkpt lat="49.340884974226356" lon="8.134092958644032">
<ele>194.39999999999998</ele>
<time>2023-05-18T10:00:24Z</time>
</trkpt>
<trkpt lat="49.34092998504639" lon="8.13412799499929">
<ele>194.39999999999998</ele>
<time>2023-05-18T10:00:25Z</time>
</trkpt>
<trkpt lat="49.34097499586642" lon="8.13417493365705">
<ele>194.39999999999998</ele>
<time>2023-05-18T10:00:26Z</time>
</trkpt>
<trkpt lat="49.34101992286742" lon="8.134211981669068">
<ele>194.39999999999998</ele>
<time>2023-05-18T10:00:27Z</time>
</trkpt>
<trkpt lat="49.34106493368745" lon="8.134246934205294">
<ele>194.20000000000005</ele>
<time>2023-05-18T10:00:28Z</time>
</trkpt>
<trkpt lat="49.34110994450748" lon="8.134286999702454">
<ele>194.20000000000005</ele>
<time>2023-05-18T10:00:29Z</time>
</trkpt>
<trkpt lat="49.34115193784237" lon="8.134326981380582">
<ele>194</ele>
<time>2023-05-18T10:00:30Z</time>
</trkpt>
<trkpt lat="49.34119292534888" lon="8.134371992200613">
<ele>194</ele>
<time>2023-05-18T10:00:31Z</time>
</trkpt>
<trkpt lat="49.34123491868377" lon="8.134416919201612">
<ele>193.79999999999995</ele>
<time>2023-05-18T10:00:32Z</time>
</trkpt>
<trkpt lat="49.3412799295038" lon="8.134456984698772">
<ele>193.79999999999995</ele>
<time>2023-05-18T10:00:33Z</time>
</trkpt>
<trkpt lat="49.34132494032383" lon="8.134501995518804">
<ele>193.60000000000002</ele>
<time>2023-05-18T10:00:34Z</time>
</trkpt>
<trkpt lat="49.3413679394871" lon="8.134547928348184">
<ele>193.60000000000002</ele>
<time>2023-05-18T10:00:35Z</time>
</trkpt>
<trkpt lat="49.34141496196389" lon="8.134591933339834">
<ele>193.39999999999998</ele>
<time>2023-05-18T10:00:36Z</time>
</trkpt>
<trkpt lat="49.341464918106794" lon="8.134629987180233">
<ele>193.39999999999998</ele>
<time>2023-05-18T10:00:37Z</time>
</trkpt>
<trkpt lat="49.341509928926826" lon="8.134669968858361">
<ele>193.20000000000005</ele>
<time>2023-05-18T10:00:38Z</time>
</trkpt>
<trkpt lat="49.34155695140362" lon="8.13470995053649">
<ele>193.20000000000005</ele>
<time>2023-05-18T10:00:39Z</time>
</trkpt>
<trkpt lat="49.34160799719393" lon="8.134751943871379">
<ele>193.20000000000005</ele>
<time>2023-05-18T10:00:40Z</time>
</trkpt>
<trkpt lat="49.341657953336835" lon="8.13479695469141">
<ele>193</ele>
<time>2023-05-18T10:00:41Z</time>
</trkpt>
<trkpt lat="49.34171193279326" lon="8.134842971339822">
<ele>193</ele>
<time>2023-05-18T10:00:42Z</time>
</trkpt>
<trkpt lat="49.34177194721997" lon="8.134891921654344">
<ele>193</ele>
<time>2023-05-18T10:00:43Z</time>
</trkpt>
<trkpt lat="49.3418219871819" lon="8.134931987151504">
<ele>192.79999999999995</ele>
<time>2023-05-18T10:00:44Z</time>
</trkpt>
<trkpt lat="49.341871943324804" lon="8.134972974658012">
<ele>192.60000000000002</ele>
<time>2023-05-18T10:00:45Z</time>
</trkpt>
<trkpt lat="49.34191997162998" lon="8.135021924972534">
<ele>192.60000000000002</ele>
<time>2023-05-18T10:00:46Z</time>
</trkpt>
<trkpt lat="49.34196699410677" lon="8.135071964934468">
<ele>192.39999999999998</ele>
<time>2023-05-18T10:00:47Z</time>
</trkpt>
<trkpt lat="49.34201292693615" lon="8.1351169757545">
<ele>192.39999999999998</ele>
<time>2023-05-18T10:00:48Z</time>
</trkpt>
<trkpt lat="49.342062966898084" lon="8.13515997491777">
<ele>192.20000000000005</ele>
<time>2023-05-18T10:00:49Z</time>
</trkpt>
<trkpt lat="49.34211493469775" lon="8.1352049857378">
<ele>192</ele>
<time>2023-05-18T10:00:50Z</time>
</trkpt>
<trkpt lat="49.34215994551778" lon="8.135239938274026">
<ele>191.79999999999995</ele>
<time>2023-05-18T10:00:51Z</time>
</trkpt>
<trkpt lat="49.342194981873035" lon="8.13526994548738">
<ele>191.79999999999995</ele>
<time>2023-05-18T10:00:52Z</time>
</trkpt>
<trkpt lat="49.34223194606602" lon="8.135297941043973">
<ele>191.79999999999995</ele>
<time>2023-05-18T10:00:53Z</time>
</trkpt>
<trkpt lat="49.34227192774415" lon="8.135326942428946">
<ele>191.60000000000002</ele>
<time>2023-05-18T10:00:54Z</time>
</trkpt>
<trkpt lat="49.34231299906969" lon="8.1353569496423">
<ele>191.60000000000002</ele>
<time>2023-05-18T10:00:55Z</time>
</trkpt>
<trkpt lat="49.34235692024231" lon="8.135389974340796">
<ele>191.79999999999995</ele>
<time>2023-05-18T10:00:56Z</time>
</trkpt>
<trkpt lat="49.34239497408271" lon="8.135429956018925">
<ele>191.79999999999995</ele>
<time>2023-05-18T10:00:57Z</time>
</trkpt>
<trkpt lat="49.3424419965595" lon="8.135457951575518">
<ele>191.79999999999995</ele>
<time>2023-05-18T10:00:58Z</time>
</trkpt>
<trkpt lat="49.34248792938888" lon="8.135479995980859">
<ele>191.79999999999995</ele>
<time>2023-05-18T10:00:59Z</time>
</trkpt>
<trkpt lat="49.34252992272377" lon="8.135506985709071">
<ele>191.79999999999995</ele>
<time>2023-05-18T10:01:00Z</time>
</trkpt>
<trkpt lat="49.34256998822093" lon="8.135532969608903">
<ele>191.79999999999995</ele>
<time>2023-05-18T10:01:01Z</time>
</trkpt>
<trkpt lat="49.342601923272014" lon="8.135561970993876">
<ele>191.79999999999995</ele>
<time>2023-05-18T10:01:02Z</time>
</trkpt>
<trkpt lat="49.342641988769174" lon="8.135587954893708">
<ele>191.79999999999995</ele>
<time>2023-05-18T10:01:03Z</time>
</trkpt>
<trkpt lat="49.342684987932444" lon="8.13561494462192">
<ele>191.79999999999995</ele>
<time>2023-05-18T10:01:04Z</time>
</trkpt>
<trkpt lat="49.342729998752475" lon="8.135637994855642">
<ele>192</ele>
<time>2023-05-18T10:01:05Z</time>
</trkpt>
<trkpt lat="49.342774925753474" lon="8.135666996240616">
<ele>192</ele>
<time>2023-05-18T10:01:06Z</time>
</trkpt>
<trkpt lat="49.342817924916744" lon="8.135696919634938">
<ele>192</ele>
<time>2023-05-18T10:01:07Z</time>
</trkpt>
<trkpt lat="49.34286494739354" lon="8.135724999010563">
<ele>192</ele>
<time>2023-05-18T10:01:08Z</time>
</trkpt>
<trkpt lat="49.34291196987033" lon="8.135756934061646">
<ele>192</ele>
<time>2023-05-18T10:01:09Z</time>
</trkpt>
<trkpt lat="49.34295698069036" lon="8.13578492961824">
<ele>192.20000000000005</ele>
<time>2023-05-18T10:01:10Z</time>
</trkpt>
<trkpt lat="49.34299796819687" lon="8.135816948488355">
<ele>192.20000000000005</ele>
<time>2023-05-18T10:01:11Z</time>
</trkpt>
<trkpt lat="49.34303996153176" lon="8.13584796153009">
<ele>192.20000000000005</ele>
<time>2023-05-18T10:01:12Z</time>
</trkpt>
<trkpt lat="49.343076925724745" lon="8.135879980400205">
<ele>192.20000000000005</ele>
<time>2023-05-18T10:01:13Z</time>
</trkpt>
<trkpt lat="49.343116991221905" lon="8.135909987613559">
<ele>192.20000000000005</ele>
<time>2023-05-18T10:01:14Z</time>
</trkpt>
<trkpt lat="49.343159990385175" lon="8.135932954028249">
<ele>192.20000000000005</ele>
<time>2023-05-18T10:01:15Z</time>
</trkpt>
<trkpt lat="49.343206929042935" lon="8.13595692627132">
<ele>192.20000000000005</ele>
<time>2023-05-18T10:01:16Z</time>
</trkpt>
<trkpt lat="49.343247916549444" lon="8.135987939313054">
<ele>192.20000000000005</ele>
<time>2023-05-18T10:01:17Z</time>
</trkpt>
<trkpt lat="49.343289993703365" lon="8.136022975668311">
<ele>192.20000000000005</ele>
<time>2023-05-18T10:01:18Z</time>
</trkpt>
<trkpt lat="49.343331987038255" lon="8.136059939861298">
<ele>192.39999999999998</ele>
<time>2023-05-18T10:01:19Z</time>
</trkpt>
<trkpt lat="49.34336995705962" lon="8.136099921539426">
<ele>192.39999999999998</ele>
<time>2023-05-18T10:01:20Z</time>
</trkpt>
<trkpt lat="49.34340993873775" lon="8.136152978986502">
<ele>192.39999999999998</ele>
<time>2023-05-18T10:01:21Z</time>
</trkpt>
<trkpt lat="49.34344992041588" lon="8.136221962049603">
<ele>192.39999999999998</ele>
<time>2023-05-18T10:01:22Z</time>
</trkpt>
<trkpt lat="49.3434869684279" lon="8.136272924020886">
<ele>192.39999999999998</ele>
<time>2023-05-18T10:01:23Z</time>
</trkpt>
<trkpt lat="49.34351798146963" lon="8.136327993124723">
<ele>192.39999999999998</ele>
<time>2023-05-18T10:01:24Z</time>
</trkpt>
<trkpt lat="49.343549916520715" lon="8.13638691790402">
<ele>192.39999999999998</ele>
<time>2023-05-18T10:01:25Z</time>
</trkpt>
<trkpt lat="49.34358193539083" lon="8.136446932330728">
<ele>192.39999999999998</ele>
<time>2023-05-18T10:01:26Z</time>
</trkpt>
<trkpt lat="49.34361697174609" lon="8.136511975899339">
<ele>192.39999999999998</ele>
<time>2023-05-18T10:01:27Z</time>
</trkpt>
<trkpt lat="49.34364999644458" lon="8.136572996154428">
<ele>192.20000000000005</ele>
<time>2023-05-18T10:01:28Z</time>
</trkpt>
<trkpt lat="49.34368494898081" lon="8.136636950075626">
<ele>192.20000000000005</ele>
<time>2023-05-18T10:01:29Z</time>
</trkpt>
<trkpt lat="49.34372199699283" lon="8.136704927310348">
<ele>192.20000000000005</ele>
<time>2023-05-18T10:01:30Z</time>
</trkpt>
<trkpt lat="49.34375996701419" lon="8.13677198253572">
<ele>192.20000000000005</ele>
<time>2023-05-18T10:01:31Z</time>
</trkpt>
<trkpt lat="49.34379198588431" lon="8.136831996962428">
<ele>192.20000000000005</ele>
<time>2023-05-18T10:01:32Z</time>
</trkpt>
<trkpt lat="49.343827944248915" lon="8.136897962540388">
<ele>192.20000000000005</ele>
<time>2023-05-18T10:01:33Z</time>
</trkpt>
<trkpt lat="49.34386499226093" lon="8.136964933946729">
<ele>192</ele>
<time>2023-05-18T10:01:34Z</time>
</trkpt>
<trkpt lat="49.34390195645392" lon="8.137022936716676">
<ele>192</ele>
<time>2023-05-18T10:01:35Z</time>
</trkpt>
<trkpt lat="49.343934981152415" lon="8.137084962800145">
<ele>192</ele>
<time>2023-05-18T10:01:36Z</time>
</trkpt>
<trkpt lat="49.34396498836577" lon="8.137144977226853">
<ele>191.79999999999995</ele>
<time>2023-05-18T10:01:37Z</time>
</trkpt>
<trkpt lat="49.34399499557912" lon="8.137206919491291">
<ele>191.60000000000002</ele>
<time>2023-05-18T10:01:38Z</time>
</trkpt>
<trkpt lat="49.34402693063021" lon="8.137271963059902">
<ele>191.60000000000002</ele>
<time>2023-05-18T10:01:39Z</time>
</trkpt>
<trkpt lat="49.3440599553287" lon="8.13733197748661">
<ele>191.39999999999998</ele>
<time>2023-05-18T10:01:40Z</time>
</trkpt>
<trkpt lat="49.34409197419882" lon="8.1373929977417">
<ele>191.39999999999998</ele>
<time>2023-05-18T10:01:41Z</time>
</trkpt>
<trkpt lat="49.34412198141217" lon="8.137451922520995">
<ele>191.39999999999998</ele>
<time>2023-05-18T10:01:42Z</time>
</trkpt>
<trkpt lat="49.344147965312004" lon="8.137511936947703">
<ele>191.39999999999998</ele>
<time>2023-05-18T10:01:43Z</time>
</trkpt>
<trkpt lat="49.34418199583888" lon="8.137571951374412">
<ele>191.20000000000005</ele>
<time>2023-05-18T10:01:44Z</time>
</trkpt>
<trkpt lat="49.34421292506158" lon="8.137627942487597">
<ele>191.20000000000005</ele>
<time>2023-05-18T10:01:45Z</time>
</trkpt>
<trkpt lat="49.34424293227494" lon="8.137686951085925">
<ele>191.20000000000005</ele>
<time>2023-05-18T10:01:46Z</time>
</trkpt>
<trkpt lat="49.34427193365991" lon="8.13774193637073">
<ele>191</ele>
<time>2023-05-18T10:01:47Z</time>
</trkpt>
<trkpt lat="49.344302946701646" lon="8.137797927483916">
<ele>190.79999999999995</ele>
<time>2023-05-18T10:01:48Z</time>
</trkpt>
<trkpt lat="49.34433496557176" lon="8.137856936082244">
<ele>190.79999999999995</ele>
<time>2023-05-18T10:01:49Z</time>
</trkpt>
<trkpt lat="49.344366984441876" lon="8.13791292719543">
<ele>190.79999999999995</ele>
<time>2023-05-18T10:01:50Z</time>
</trkpt>
<trkpt lat="49.34439497999847" lon="8.137977970764041">
<ele>190.60000000000002</ele>
<time>2023-05-18T10:01:51Z</time>
</trkpt>
<trkpt lat="49.34442498721182" lon="8.13803798519075">
<ele>190.60000000000002</ele>
<time>2023-05-18T10:01:52Z</time>
</trkpt>
<trkpt lat="49.34445993974805" lon="8.138094982132316">
<ele>190.60000000000002</ele>
<time>2023-05-18T10:01:53Z</time>
</trkpt>
<trkpt lat="49.34450193308294" lon="8.13814795576036">
<ele>190.60000000000002</ele>
<time>2023-05-18T10:01:54Z</time>
</trkpt>
<trkpt lat="49.34454493224621" lon="8.138197995722294">
<ele>190.60000000000002</ele>
<time>2023-05-18T10:01:55Z</time>
</trkpt>
<trkpt lat="49.344591954723" lon="8.138242922723293">
<ele>190.60000000000002</ele>
<time>2023-05-18T10:01:56Z</time>
</trkpt>
<trkpt lat="49.344641994684935" lon="8.138287933543324">
<ele>190.79999999999995</ele>
<time>2023-05-18T10:01:57Z</time>
</trkpt>
<trkpt lat="49.34469195082784" lon="8.138327999040484">
<ele>190.79999999999995</ele>
<time>2023-05-18T10:01:58Z</time>
</trkpt>
<trkpt lat="49.34474299661815" lon="8.138364963233471">
<ele>190.79999999999995</ele>
<time>2023-05-18T10:01:59Z</time>
</trkpt>
<trkpt lat="49.344796976074576" lon="8.138396982103586">
<ele>190.79999999999995</ele>
<time>2023-05-18T10:02:00Z</time>
</trkpt>
<trkpt lat="49.34485296718776" lon="8.13842497766018">
<ele>190.79999999999995</ele>
<time>2023-05-18T10:02:01Z</time>
</trkpt>
<trkpt lat="49.34491197578609" lon="8.13844995573163">
<ele>190.79999999999995</ele>
<time>2023-05-18T10:02:02Z</time>
</trkpt>
<trkpt lat="49.344967966899276" lon="8.13847191631794">
<ele>190.79999999999995</ele>
<time>2023-05-18T10:02:03Z</time>
</trkpt>
<trkpt lat="49.3450269754976" lon="8.1384929548949">
<ele>190.79999999999995</ele>
<time>2023-05-18T10:02:04Z</time>
</trkpt>
<trkpt lat="49.34508296661079" lon="8.138514999300241">
<ele>190.79999999999995</ele>
<time>2023-05-18T10:02:05Z</time>
</trkpt>
<trkpt lat="49.34514197520912" lon="8.13853494822979">
<ele>190.79999999999995</ele>
<time>2023-05-18T10:02:06Z</time>
</trkpt>
<trkpt lat="49.34519696049392" lon="8.13855699263513">
<ele>190.79999999999995</ele>
<time>2023-05-18T10:02:07Z</time>
</trkpt>
<trkpt lat="49.345249934121966" lon="8.138581970706582">
<ele>190.60000000000002</ele>
<time>2023-05-18T10:02:08Z</time>
</trkpt>
<trkpt lat="49.3452999740839" lon="8.138602925464511">
<ele>190.60000000000002</ele>
<time>2023-05-18T10:02:09Z</time>
</trkpt>
<trkpt lat="49.3453499302268" lon="8.138626981526613">
<ele>190.39999999999998</ele>
<time>2023-05-18T10:02:10Z</time>
</trkpt>
<trkpt lat="49.345397958531976" lon="8.138646930456161">
<ele>190.20000000000005</ele>
<time>2023-05-18T10:02:11Z</time>
</trkpt>
<trkpt lat="49.34544498100877" lon="8.138661934062839">
<ele>190</ele>
<time>2023-05-18T10:02:12Z</time>
</trkpt>
<trkpt lat="49.34549191966653" lon="8.138681966811419">
<ele>189.79999999999995</ele>
<time>2023-05-18T10:02:13Z</time>
</trkpt>
<trkpt lat="49.34553693048656" lon="8.138702921569347">
<ele>189.79999999999995</ele>
<time>2023-05-18T10:02:14Z</time>
</trkpt>
<trkpt lat="49.34557992964983" lon="8.138722954317927">
<ele>189.79999999999995</ele>
<time>2023-05-18T10:02:15Z</time>
</trkpt>
<trkpt lat="49.34562695212662" lon="8.138739969581366">
<ele>189.60000000000002</ele>
<time>2023-05-18T10:02:16Z</time>
</trkpt>
<trkpt lat="49.345672968775034" lon="8.138754973188043">
<ele>189.60000000000002</ele>
<time>2023-05-18T10:02:17Z</time>
</trkpt>
<trkpt lat="49.345721919089556" lon="8.138766959309578">
<ele>189.60000000000002</ele>
<time>2023-05-18T10:02:18Z</time>
</trkpt>
<trkpt lat="49.34576994739473" lon="8.138776933774352">
<ele>189.60000000000002</ele>
<time>2023-05-18T10:02:19Z</time>
</trkpt>
<trkpt lat="49.34581495821476" lon="8.138784980401397">
<ele>189.60000000000002</ele>
<time>2023-05-18T10:02:20Z</time>
</trkpt>
<trkpt lat="49.34586298651993" lon="8.13879495486617">
<ele>189.60000000000002</ele>
<time>2023-05-18T10:02:21Z</time>
</trkpt>
<trkpt lat="49.34590992517769" lon="8.138807946816087">
<ele>189.60000000000002</ele>
<time>2023-05-18T10:02:22Z</time>
</trkpt>
<trkpt lat="49.345956947654486" lon="8.138819932937622">
<ele>189.60000000000002</ele>
<time>2023-05-18T10:02:23Z</time>
</trkpt>
<trkpt lat="49.34600195847452" lon="8.138832924887538">
<ele>189.60000000000002</ele>
<time>2023-05-18T10:02:24Z</time>
</trkpt>
<trkpt lat="49.34604998677969" lon="8.138841977342963">
<ele>189.60000000000002</ele>
<time>2023-05-18T10:02:25Z</time>
</trkpt>
<trkpt lat="49.34609793126583" lon="8.138851951807737">
<ele>189.60000000000002</ele>
<time>2023-05-18T10:02:26Z</time>
</trkpt>
<trkpt lat="49.34614294208586" lon="8.138861926272511">
<ele>189.60000000000002</ele>
<time>2023-05-18T10:02:27Z</time>
</trkpt>
<trkpt lat="49.34618795290589" lon="8.138872990384698">
<ele>189.60000000000002</ele>
<time>2023-05-18T10:02:28Z</time>
</trkpt>
<trkpt lat="49.346231957897544" lon="8.138881959021091">
<ele>189.60000000000002</ele>
<time>2023-05-18T10:02:29Z</time>
</trkpt>
<trkpt lat="49.34627294540405" lon="8.138891933485866">
<ele>189.60000000000002</ele>
<time>2023-05-18T10:02:30Z</time>
</trkpt>
<trkpt lat="49.34631493873894" lon="8.13889998011291">
<ele>189.60000000000002</ele>
<time>2023-05-18T10:02:31Z</time>
</trkpt>
<trkpt lat="49.34635492041707" lon="8.138907942920923">
<ele>189.60000000000002</ele>
<time>2023-05-18T10:02:32Z</time>
</trkpt>
<trkpt lat="49.34639699757099" lon="8.13892194069922">
<ele>189.60000000000002</ele>
<time>2023-05-18T10:02:33Z</time>
</trkpt>
<trkpt lat="49.34644192457199" lon="8.138932920992374">
<ele>189.60000000000002</ele>
<time>2023-05-18T10:02:34Z</time>
</trkpt>
<trkpt lat="49.34648299589753" lon="8.13894297927618">
<ele>189.60000000000002</ele>
<time>2023-05-18T10:02:35Z</time>
</trkpt>
<trkpt lat="49.34652691707015" lon="8.138951947912574">
<ele>189.60000000000002</ele>
<time>2023-05-18T10:02:36Z</time>
</trkpt>
<trkpt lat="49.34657293371856" lon="8.138957982882857">
<ele>189.60000000000002</ele>
<time>2023-05-18T10:02:37Z</time>
</trkpt>
<trkpt lat="49.346619956195354" lon="8.13896695151925">
<ele>189.60000000000002</ele>
<time>2023-05-18T10:02:38Z</time>
</trkpt>
<trkpt lat="49.34666697867215" lon="8.138969969004393">
<ele>189.60000000000002</ele>
<time>2023-05-18T10:02:39Z</time>
</trkpt>
<trkpt lat="49.34671198949218" lon="8.138974998146296">
<ele>189.60000000000002</ele>
<time>2023-05-18T10:02:40Z</time>
</trkpt>
<trkpt lat="49.34676295146346" lon="8.138976925984025">
<ele>189.60000000000002</ele>
<time>2023-05-18T10:02:41Z</time>
</trkpt>
<trkpt lat="49.346814919263124" lon="8.138982960954309">
<ele>189.60000000000002</ele>
<time>2023-05-18T10:02:42Z</time>
</trkpt>
<trkpt lat="49.3468629475683" lon="8.138991929590702">
<ele>189.60000000000002</ele>
<time>2023-05-18T10:02:43Z</time>
</trkpt>
<trkpt lat="49.346897983923554" lon="8.138997964560986">
<ele>189.60000000000002</ele>
<time>2023-05-18T10:02:44Z</time>
</trkpt>
<trkpt lat="49.346944922581315" lon="8.139012968167663">
<ele>189.60000000000002</ele>
<time>2023-05-18T10:02:45Z</time>
</trkpt>
<trkpt lat="49.34699496254325" lon="8.139026965945959">
<ele>189.60000000000002</ele>
<time>2023-05-18T10:02:46Z</time>
</trkpt>
<trkpt lat="49.34704693034291" lon="8.139039957895875">
<ele>189.60000000000002</ele>
<time>2023-05-18T10:02:47Z</time>
</trkpt>
<trkpt lat="49.347092946991324" lon="8.13905294984579">
<ele>189.60000000000002</ele>
<time>2023-05-18T10:02:48Z</time>
</trkpt>
<trkpt lat="49.34713996946812" lon="8.139069965109229">
<ele>189.39999999999998</ele>
<time>2023-05-18T10:02:49Z</time>
</trkpt>
<trkpt lat="49.34718699194491" lon="8.139086980372667">
<ele>189.39999999999998</ele>
<time>2023-05-18T10:02:50Z</time>
</trkpt>
<trkpt lat="49.34723292477429" lon="8.139101983979344">
<ele>189.39999999999998</ele>
<time>2023-05-18T10:02:51Z</time>
</trkpt>
<trkpt lat="49.34728195890784" lon="8.139117993414402">
<ele>189.39999999999998</ele>
<time>2023-05-18T10:02:52Z</time>
</trkpt>
<trkpt lat="49.34732294641435" lon="8.139144983142614">
<ele>189.39999999999998</ele>
<time>2023-05-18T10:02:53Z</time>
</trkpt>
<trkpt lat="49.34736493974924" lon="8.139177924022079">
<ele>189.20000000000005</ele>
<time>2023-05-18T10:02:54Z</time>
</trkpt>
<trkpt lat="49.34740693308413" lon="8.13922293484211">
<ele>189.20000000000005</ele>
<time>2023-05-18T10:02:55Z</time>
</trkpt>
<trkpt lat="49.34744498692453" lon="8.139274986460805">
<ele>189.20000000000005</ele>
<time>2023-05-18T10:02:56Z</time>
</trkpt>
<trkpt lat="49.347481951117516" lon="8.13932997174561">
<ele>189</ele>
<time>2023-05-18T10:02:57Z</time>
</trkpt>
<trkpt lat="49.34751799330115" lon="8.13939199782908">
<ele>189</ele>
<time>2023-05-18T10:02:58Z</time>
</trkpt>
<trkpt lat="49.34755294583738" lon="8.139454945921898">
<ele>188.79999999999995</ele>
<time>2023-05-18T10:02:59Z</time>
</trkpt>
<trkpt lat="49.347586976364255" lon="8.13952493481338">
<ele>188.79999999999995</ele>
<time>2023-05-18T10:03:00Z</time>
</trkpt>
<trkpt lat="49.34761296026409" lon="8.139599952846766">
<ele>188.79999999999995</ele>
<time>2023-05-18T10:03:01Z</time>
</trkpt>
<trkpt lat="49.34763793833554" lon="8.139676982536912">
<ele>188.79999999999995</ele>
<time>2023-05-18T10:03:02Z</time>
</trkpt>
<trkpt lat="49.34765696525574" lon="8.139752922579646">
<ele>188.79999999999995</ele>
<time>2023-05-18T10:03:03Z</time>
</trkpt>
<trkpt lat="49.347674986347556" lon="8.139832969754934">
<ele>188.60000000000002</ele>
<time>2023-05-18T10:03:04Z</time>
</trkpt>
<trkpt lat="49.34769191779196" lon="8.139916956424713">
<ele>188.60000000000002</ele>
<time>2023-05-18T10:03:05Z</time>
</trkpt>
<trkpt lat="49.34770499356091" lon="8.13999792560935">
<ele>188.60000000000002</ele>
<time>2023-05-18T10:03:06Z</time>
</trkpt>
<trkpt lat="49.347716979682446" lon="8.140077972784638">
<ele>188.39999999999998</ele>
<time>2023-05-18T10:03:07Z</time>
</trkpt>
<trkpt lat="49.34772695414722" lon="8.140157936140895">
<ele>188.39999999999998</ele>
<time>2023-05-18T10:03:08Z</time>
</trkpt>
<trkpt lat="49.347736928611994" lon="8.140237983316183">
<ele>188.20000000000005</ele>
<time>2023-05-18T10:03:09Z</time>
</trkpt>
<trkpt lat="49.3477469868958" lon="8.140316940844059">
<ele>188.20000000000005</ele>
<time>2023-05-18T10:03:10Z</time>
</trkpt>
<trkpt lat="49.34775293804705" lon="8.140391958877444">
<ele>188.20000000000005</ele>
<time>2023-05-18T10:03:11Z</time>
</trkpt>
<trkpt lat="49.347757967188954" lon="8.140464965254068">
<ele>188.20000000000005</ele>
<time>2023-05-18T10:03:12Z</time>
</trkpt>
<trkpt lat="49.34776794165373" lon="8.14053495414555">
<ele>188.20000000000005</ele>
<time>2023-05-18T10:03:13Z</time>
</trkpt>
<trkpt lat="49.347776994109154" lon="8.140602931380272">
<ele>188</ele>
<time>2023-05-18T10:03:14Z</time>
</trkpt>
<trkpt lat="49.347782945260406" lon="8.140671998262405">
<ele>188</ele>
<time>2023-05-18T10:03:15Z</time>
</trkpt>
<trkpt lat="49.34778998605907" lon="8.140741987153888">
<ele>188</ele>
<time>2023-05-18T10:03:16Z</time>
</trkpt>
<trkpt lat="49.34779493138194" lon="8.14081197604537">
<ele>187.79999999999995</ele>
<time>2023-05-18T10:03:17Z</time>
</trkpt>
<trkpt lat="49.34779493138194" lon="8.140886994078755">
<ele>187.79999999999995</ele>
<time>2023-05-18T10:03:18Z</time>
</trkpt>
<trkpt lat="49.34779794886708" lon="8.140959916636348">
<ele>187.60000000000002</ele>
<time>2023-05-18T10:03:19Z</time>
</trkpt>
<trkpt lat="49.34780498966575" lon="8.141034934669733">
<ele>187.60000000000002</ele>
<time>2023-05-18T10:03:20Z</time>
</trkpt>
<trkpt lat="49.347799960523844" lon="8.141104923561215">
<ele>187.39999999999998</ele>
<time>2023-05-18T10:03:21Z</time>
</trkpt>
<trkpt lat="49.34779291972518" lon="8.14117499627173">
<ele>187.39999999999998</ele>
<time>2023-05-18T10:03:22Z</time>
</trkpt>
<trkpt lat="49.34778998605907" lon="8.141247918829322">
<ele>187.20000000000005</ele>
<time>2023-05-18T10:03:23Z</time>
</trkpt>
<trkpt lat="49.34778696857393" lon="8.141322936862707">
<ele>187.20000000000005</ele>
<time>2023-05-18T10:03:24Z</time>
</trkpt>
<trkpt lat="49.347781939432025" lon="8.141396949067712">
<ele>187</ele>
<time>2023-05-18T10:03:25Z</time>
</trkpt>
<trkpt lat="49.347777999937534" lon="8.141471967101097">
<ele>186.79999999999995</ele>
<time>2023-05-18T10:03:26Z</time>
</trkpt>
<trkpt lat="49.34776794165373" lon="8.141547990962863">
<ele>186.79999999999995</ele>
<time>2023-05-18T10:03:27Z</time>
</trkpt>
<trkpt lat="49.34775494970381" lon="8.141621919348836">
<ele>186.60000000000002</ele>
<time>2023-05-18T10:03:28Z</time>
</trkpt>
<trkpt lat="49.347737934440374" lon="8.14169492572546">
<ele>186.39999999999998</ele>
<time>2023-05-18T10:03:29Z</time>
</trkpt>
<trkpt lat="49.347714968025684" lon="8.141766926273704">
<ele>186.39999999999998</ele>
<time>2023-05-18T10:03:30Z</time>
</trkpt>
<trkpt lat="49.34768998995423" lon="8.141837920993567">
<ele>186.20000000000005</ele>
<time>2023-05-18T10:03:31Z</time>
</trkpt>
<trkpt lat="49.34766693972051" lon="8.141911933198571">
<ele>186.20000000000005</ele>
<time>2023-05-18T10:03:32Z</time>
</trkpt>
<trkpt lat="49.3476399499923" lon="8.141986951231956">
<ele>186.20000000000005</ele>
<time>2023-05-18T10:03:33Z</time>
</trkpt>
<trkpt lat="49.34761497192085" lon="8.142062975093722">
<ele>186</ele>
<time>2023-05-18T10:03:34Z</time>
</trkpt>
<trkpt lat="49.3475899938494" lon="8.142137993127108">
<ele>186</ele>
<time>2023-05-18T10:03:35Z</time>
</trkpt>
<trkpt lat="49.347567949444056" lon="8.142209993675351">
<ele>185.79999999999995</ele>
<time>2023-05-18T10:03:36Z</time>
</trkpt>
<trkpt lat="49.34754699468613" lon="8.142284927889705">
<ele>185.60000000000002</ele>
<time>2023-05-18T10:03:37Z</time>
</trkpt>
<trkpt lat="49.347522938624024" lon="8.142361957579851">
<ele>185.39999999999998</ele>
<time>2023-05-18T10:03:38Z</time>
</trkpt>
<trkpt lat="49.347501983866096" lon="8.142436975613236">
<ele>185.20000000000005</ele>
<time>2023-05-18T10:03:39Z</time>
</trkpt>
<trkpt lat="49.34748698025942" lon="8.14250998198986">
<ele>185</ele>
<time>2023-05-18T10:03:40Z</time>
</trkpt>
<trkpt lat="49.34747197665274" lon="8.142586927860975">
<ele>184.79999999999995</ele>
<time>2023-05-18T10:03:41Z</time>
</trkpt>
<trkpt lat="49.347456973046064" lon="8.14266194589436">
<ele>184.60000000000002</ele>
<time>2023-05-18T10:03:42Z</time>
</trkpt>
<trkpt lat="49.347439957782626" lon="8.14274299889803">
<ele>184.39999999999998</ele>
<time>2023-05-18T10:03:43Z</time>
</trkpt>
<trkpt lat="49.347419925034046" lon="8.142819944769144">
<ele>184.20000000000005</ele>
<time>2023-05-18T10:03:44Z</time>
</trkpt>
<trkpt lat="49.347396958619356" lon="8.14289697445929">
<ele>184</ele>
<time>2023-05-18T10:03:45Z</time>
</trkpt>
<trkpt lat="49.34737499803305" lon="8.142977943643928">
<ele>183.79999999999995</ele>
<time>2023-05-18T10:03:46Z</time>
</trkpt>
<trkpt lat="49.34735496528447" lon="8.143064947798848">
<ele>183.60000000000002</ele>
<time>2023-05-18T10:03:47Z</time>
</trkpt>
<trkpt lat="49.34733493253589" lon="8.143151951953769">
<ele>183.39999999999998</ele>
<time>2023-05-18T10:03:48Z</time>
</trkpt>
<trkpt lat="49.34731992892921" lon="8.143242979422212">
<ele>183.20000000000005</ele>
<time>2023-05-18T10:03:49Z</time>
</trkpt>
<trkpt lat="49.34730199165642" lon="8.143342975527048">
<ele>183.20000000000005</ele>
<time>2023-05-18T10:03:50Z</time>
</trkpt>
<trkpt lat="49.347284976392984" lon="8.143439954146743">
<ele>183</ele>
<time>2023-05-18T10:03:51Z</time>
</trkpt>
<trkpt lat="49.347267961129546" lon="8.14354196190834">
<ele>182.79999999999995</ele>
<time>2023-05-18T10:03:52Z</time>
</trkpt>
<trkpt lat="49.347247928380966" lon="8.143642963841558">
<ele>182.39999999999998</ele>
<time>2023-05-18T10:03:53Z</time>
</trkpt>
<trkpt lat="49.34722697362304" lon="8.143742959946394">
<ele>182.20000000000005</ele>
<time>2023-05-18T10:03:54Z</time>
</trkpt>
<trkpt lat="49.347204929217696" lon="8.14384195022285">
<ele>182</ele>
<time>2023-05-18T10:03:55Z</time>
</trkpt>
<trkpt lat="49.34718699194491" lon="8.143937923014164">
<ele>181.79999999999995</ele>
<time>2023-05-18T10:03:56Z</time>
</trkpt>
<trkpt lat="49.34717299416661" lon="8.144039930775762">
<ele>181.39999999999998</ele>
<time>2023-05-18T10:03:57Z</time>
</trkpt>
<trkpt lat="49.347157990559936" lon="8.144136993214488">
<ele>181.20000000000005</ele>
<time>2023-05-18T10:03:58Z</time>
</trkpt>
<trkpt lat="49.347137957811356" lon="8.1442279368639">
<ele>180.79999999999995</ele>
<time>2023-05-18T10:03:59Z</time>
</trkpt>
<trkpt lat="49.3471219483763" lon="8.144317958503962">
<ele>180.39999999999998</ele>
<time>2023-05-18T10:04:00Z</time>
</trkpt>
<trkpt lat="49.347111973911524" lon="8.144406974315643">
<ele>180</ele>
<time>2023-05-18T10:04:01Z</time>
</trkpt>
<trkpt lat="49.3471029214561" lon="8.144492972642183">
<ele>179.79999999999995</ele>
<time>2023-05-18T10:04:02Z</time>
</trkpt>
<trkpt lat="49.34709697030485" lon="8.14457193017006">
<ele>179.39999999999998</ele>
<time>2023-05-18T10:04:03Z</time>
</trkpt>
<trkpt lat="49.34709697030485" lon="8.144647954031825">
<ele>179</ele>
<time>2023-05-18T10:04:04Z</time>
</trkpt>
<trkpt lat="49.34709797613323" lon="8.144719954580069">
<ele>178.79999999999995</ele>
<time>2023-05-18T10:04:05Z</time>
</trkpt>
<trkpt lat="49.34710493311286" lon="8.14478793181479">
<ele>178.39999999999998</ele>
<time>2023-05-18T10:04:06Z</time>
</trkpt>
<trkpt lat="49.347111973911524" lon="8.144846940413117">
<ele>178</ele>
<time>2023-05-18T10:04:07Z</time>
</trkpt>
<trkpt lat="49.3471219483763" lon="8.14489496871829">
<ele>177.79999999999995</ele>
<time>2023-05-18T10:04:08Z</time>
</trkpt>
<trkpt lat="49.34713192284107" lon="8.144934950396419">
<ele>177.39999999999998</ele>
<time>2023-05-18T10:04:09Z</time>
</trkpt>
<trkpt lat="49.347137957811356" lon="8.144964957609773">
<ele>177.20000000000005</ele>
<time>2023-05-18T10:04:10Z</time>
</trkpt>
<trkpt lat="49.34714298695326" lon="8.144992953166366">
<ele>177</ele>
<time>2023-05-18T10:04:11Z</time>
</trkpt>
<trkpt lat="49.34714793227613" lon="8.14502195455134">
<ele>176.79999999999995</ele>
<time>2023-05-18T10:04:12Z</time>
</trkpt>
<trkpt lat="49.347154973074794" lon="8.145051961764693">
<ele>176.60000000000002</ele>
<time>2023-05-18T10:04:13Z</time>
</trkpt>
<trkpt lat="49.34716695919633" lon="8.145082974806428">
<ele>176.39999999999998</ele>
<time>2023-05-18T10:04:14Z</time>
</trkpt>
<trkpt lat="49.347179951146245" lon="8.145116921514273">
<ele>176.20000000000005</ele>
<time>2023-05-18T10:04:15Z</time>
</trkpt>
<trkpt lat="49.34719495475292" lon="8.145149946212769">
<ele>176</ele>
<time>2023-05-18T10:04:16Z</time>
</trkpt>
<trkpt lat="49.3472149875015" lon="8.145186994224787">
<ele>176</ele>
<time>2023-05-18T10:04:17Z</time>
</trkpt>
<trkpt lat="49.347242983058095" lon="8.145222952589393">
<ele>175.79999999999995</ele>
<time>2023-05-18T10:04:18Z</time>
</trkpt>
<trkpt lat="49.34727793559432" lon="8.145254971459508">
<ele>175.60000000000002</ele>
<time>2023-05-18T10:04:19Z</time>
</trkpt>
<trkpt lat="49.34731992892921" lon="8.145277937874198">
<ele>175.60000000000002</ele>
<time>2023-05-18T10:04:20Z</time>
</trkpt>
<trkpt lat="49.34736292809248" lon="8.145296964794397">
<ele>175.39999999999998</ele>
<time>2023-05-18T10:04:21Z</time>
</trkpt>
<trkpt lat="49.34740793891251" lon="8.145309956744313">
<ele>175.20000000000005</ele>
<time>2023-05-18T10:04:22Z</time>
</trkpt>
<trkpt lat="49.3474549613893" lon="8.145319931209087">
<ele>175.20000000000005</ele>
<time>2023-05-18T10:04:23Z</time>
</trkpt>
<trkpt lat="49.347499972209334" lon="8.145329989492893">
<ele>175</ele>
<time>2023-05-18T10:04:24Z</time>
</trkpt>
<trkpt lat="49.347547916695476" lon="8.145337952300906">
<ele>174.79999999999995</ele>
<time>2023-05-18T10:04:25Z</time>
</trkpt>
<trkpt lat="49.34759996831417" lon="8.14534499309957">
<ele>174.79999999999995</ele>
<time>2023-05-18T10:04:26Z</time>
</trkpt>
<trkpt lat="49.347651936113834" lon="8.145352955907583">
<ele>174.60000000000002</ele>
<time>2023-05-18T10:04:27Z</time>
</trkpt>
<trkpt lat="49.34770499356091" lon="8.145357985049486">
<ele>174.39999999999998</ele>
<time>2023-05-18T10:04:28Z</time>
</trkpt>
<trkpt lat="49.34775494970381" lon="8.145359996706247">
<ele>174.20000000000005</ele>
<time>2023-05-18T10:04:29Z</time>
</trkpt>
<trkpt lat="49.347806917503476" lon="8.145359996706247">
<ele>174</ele>
<time>2023-05-18T10:04:30Z</time>
</trkpt>
<trkpt lat="49.34785796329379" lon="8.145354967564344">
<ele>173.79999999999995</ele>
<time>2023-05-18T10:04:31Z</time>
</trkpt>
<trkpt lat="49.347911942750216" lon="8.145341975614429">
<ele>173.60000000000002</ele>
<time>2023-05-18T10:04:32Z</time>
</trkpt>
<trkpt lat="49.34796198271215" lon="8.14532294869423">
<ele>173.39999999999998</ele>
<time>2023-05-18T10:04:33Z</time>
</trkpt>
<trkpt lat="49.34801193885505" lon="8.145299982279539">
<ele>173</ele>
<time>2023-05-18T10:04:34Z</time>
</trkpt>
<trkpt lat="49.348061978816986" lon="8.145274920389056">
<ele>172.79999999999995</ele>
<time>2023-05-18T10:04:35Z</time>
</trkpt>
<trkpt lat="49.34811193495989" lon="8.145246924832463">
<ele>172.60000000000002</ele>
<time>2023-05-18T10:04:36Z</time>
</trkpt>
<trkpt lat="49.3481629807502" lon="8.14521691761911">
<ele>172.39999999999998</ele>
<time>2023-05-18T10:04:37Z</time>
</trkpt>
<trkpt lat="49.348212936893106" lon="8.145186994224787">
<ele>172</ele>
<time>2023-05-18T10:04:38Z</time>
</trkpt>
<trkpt lat="49.34826297685504" lon="8.145154975354671">
<ele>171.79999999999995</ele>
<time>2023-05-18T10:04:39Z</time>
</trkpt>
<trkpt lat="49.3483149446547" lon="8.145126979798079">
<ele>171.60000000000002</ele>
<time>2023-05-18T10:04:40Z</time>
</trkpt>
<trkpt lat="49.348359955474734" lon="8.1450879201293">
<ele>171.39999999999998</ele>
<time>2023-05-18T10:04:41Z</time>
</trkpt>
<trkpt lat="49.348404966294765" lon="8.1450429931283">
<ele>171.20000000000005</ele>
<time>2023-05-18T10:04:42Z</time>
</trkpt>
<trkpt lat="49.348447965458035" lon="8.144987924024463">
<ele>171</ele>
<time>2023-05-18T10:04:43Z</time>
</trkpt>
<trkpt lat="49.34848694130778" lon="8.144922964274883">
<ele>170.79999999999995</ele>
<time>2023-05-18T10:04:44Z</time>
</trkpt>
<trkpt lat="49.34851694852114" lon="8.144847946241498">
<ele>170.60000000000002</ele>
<time>2023-05-18T10:04:45Z</time>
</trkpt>
<trkpt lat="49.34853999875486" lon="8.144767982885242">
<ele>170.39999999999998</ele>
<time>2023-05-18T10:04:46Z</time>
</trkpt>
<trkpt lat="49.34856195934117" lon="8.144684918224812">
<ele>170.20000000000005</ele>
<time>2023-05-18T10:04:47Z</time>
</trkpt>
<trkpt lat="49.348577968776226" lon="8.144601937383413">
<ele>170</ele>
<time>2023-05-18T10:04:48Z</time>
</trkpt>
<trkpt lat="49.3485929723829" lon="8.144516944885254">
<ele>169.79999999999995</ele>
<time>2023-05-18T10:04:49Z</time>
</trkpt>
<trkpt lat="49.3486119993031" lon="8.144434969872236">
<ele>169.60000000000002</ele>
<time>2023-05-18T10:04:50Z</time>
</trkpt>
<trkpt lat="49.34863194823265" lon="8.144351989030838">
<ele>169.39999999999998</ele>
<time>2023-05-18T10:04:51Z</time>
</trkpt>
<trkpt lat="49.34865198098123" lon="8.144264984875917">
<ele>169.20000000000005</ele>
<time>2023-05-18T10:04:52Z</time>
</trkpt>
<trkpt lat="49.34867695905268" lon="8.144182926043868">
<ele>169</ele>
<time>2023-05-18T10:04:53Z</time>
</trkpt>
<trkpt lat="49.34869699180126" lon="8.144102962687612">
<ele>168.60000000000002</ele>
<time>2023-05-18T10:04:54Z</time>
</trkpt>
<trkpt lat="49.34871794655919" lon="8.144017970189452">
<ele>168.39999999999998</ele>
<time>2023-05-18T10:04:55Z</time>
</trkpt>
<trkpt lat="49.34873697347939" lon="8.143931971862912">
<ele>168.20000000000005</ele>
<time>2023-05-18T10:04:56Z</time>
</trkpt>
<trkpt lat="49.34875692240894" lon="8.143846979364753">
<ele>168</ele>
<time>2023-05-18T10:04:57Z</time>
</trkpt>
<trkpt lat="49.348771926015615" lon="8.143757963553071">
<ele>167.79999999999995</ele>
<time>2023-05-18T10:04:58Z</time>
</trkpt>
<trkpt lat="49.34878793545067" lon="8.143671965226531">
<ele>167.60000000000002</ele>
<time>2023-05-18T10:04:59Z</time>
</trkpt>
<trkpt lat="49.34880796819925" lon="8.14358496107161">
<ele>167.39999999999998</ele>
<time>2023-05-18T10:05:00Z</time>
</trkpt>
<trkpt lat="49.34882498346269" lon="8.14349795691669">
<ele>167.20000000000005</ele>
<time>2023-05-18T10:05:01Z</time>
</trkpt>
<trkpt lat="49.34884292073548" lon="8.143409946933389">
<ele>167</ele>
<time>2023-05-18T10:05:02Z</time>
</trkpt>
<trkpt lat="49.34885993599892" lon="8.14332495443523">
<ele>167</ele>
<time>2023-05-18T10:05:03Z</time>
</trkpt>
<trkpt lat="49.34887192212045" lon="8.143234932795167">
<ele>166.79999999999995</ele>
<time>2023-05-18T10:05:04Z</time>
</trkpt>
<trkpt lat="49.34888793155551" lon="8.143146922811866">
<ele>166.60000000000002</ele>
<time>2023-05-18T10:05:05Z</time>
</trkpt>
<trkpt lat="49.34890695847571" lon="8.143059918656945">
<ele>166.39999999999998</ele>
<time>2023-05-18T10:05:06Z</time>
</trkpt>
<trkpt lat="49.34892799705267" lon="8.142971992492676">
<ele>166</ele>
<time>2023-05-18T10:05:07Z</time>
</trkpt>
<trkpt lat="49.348942916840315" lon="8.14287694171071">
<ele>165.79999999999995</ele>
<time>2023-05-18T10:05:08Z</time>
</trkpt>
<trkpt lat="49.348962949588895" lon="8.142782980576158">
<ele>165.60000000000002</ele>
<time>2023-05-18T10:05:09Z</time>
</trkpt>
<trkpt lat="49.348986921831965" lon="8.142689941450953">
<ele>165.39999999999998</ele>
<time>2023-05-18T10:05:10Z</time>
</trkpt>
<trkpt lat="49.349007960408926" lon="8.142592962831259">
<ele>165</ele>
<time>2023-05-18T10:05:11Z</time>
</trkpt>
<trkpt lat="49.349026987329125" lon="8.142497995868325">
<ele>164.79999999999995</ele>
<time>2023-05-18T10:05:12Z</time>
</trkpt>
<trkpt lat="49.34905498288572" lon="8.142397999763489">
<ele>164.60000000000002</ele>
<time>2023-05-18T10:05:13Z</time>
</trkpt>
<trkpt lat="49.349089935421944" lon="8.14229791983962">
<ele>164.39999999999998</ele>
<time>2023-05-18T10:05:14Z</time>
</trkpt>
<trkpt lat="49.34912798926234" lon="8.142202952876687">
<ele>164.20000000000005</ele>
<time>2023-05-18T10:05:15Z</time>
</trkpt>
<trkpt lat="49.34917291626334" lon="8.14210195094347">
<ele>164</ele>
<time>2023-05-18T10:05:16Z</time>
</trkpt>
<trkpt lat="49.34921499341726" lon="8.141999943181872">
<ele>163.79999999999995</ele>
<time>2023-05-18T10:05:17Z</time>
</trkpt>
<trkpt lat="49.34924793429673" lon="8.141889972612262">
<ele>163.60000000000002</ele>
<time>2023-05-18T10:05:18Z</time>
</trkpt>
<trkpt lat="49.34927299618721" lon="8.14177991822362">
<ele>163.20000000000005</ele>
<time>2023-05-18T10:05:19Z</time>
</trkpt>
<trkpt lat="49.34929294511676" lon="8.141666930168867">
<ele>163</ele>
<time>2023-05-18T10:05:20Z</time>
</trkpt>
<trkpt lat="49.34930291958153" lon="8.141554947942495">
<ele>162.79999999999995</ele>
<time>2023-05-18T10:05:21Z</time>
</trkpt>
<trkpt lat="49.349301997572184" lon="8.141441959887743">
<ele>162.39999999999998</ele>
<time>2023-05-18T10:05:22Z</time>
</trkpt>
<trkpt lat="49.34929495677352" lon="8.141329977661371">
<ele>162.20000000000005</ele>
<time>2023-05-18T10:05:23Z</time>
</trkpt>
<trkpt lat="49.349284982308745" lon="8.141217995435">
<ele>162</ele>
<time>2023-05-18T10:05:24Z</time>
</trkpt>
<trkpt lat="49.34927492402494" lon="8.141104923561215">
<ele>161.79999999999995</ele>
<time>2023-05-18T10:05:25Z</time>
</trkpt>
<trkpt lat="49.349264949560165" lon="8.140991935506463">
<ele>161.79999999999995</ele>
<time>2023-05-18T10:05:26Z</time>
</trkpt>
<trkpt lat="49.34925296343863" lon="8.14087693579495">
<ele>161.60000000000002</ele>
<time>2023-05-18T10:05:27Z</time>
</trkpt>
<trkpt lat="49.349242988973856" lon="8.140762941911817">
<ele>161.60000000000002</ele>
<time>2023-05-18T10:05:28Z</time>
</trkpt>
<trkpt lat="49.34923192486167" lon="8.140649953857064">
<ele>161.39999999999998</ele>
<time>2023-05-18T10:05:29Z</time>
</trkpt>
<trkpt lat="49.349219938740134" lon="8.140536965802312">
<ele>161.20000000000005</ele>
<time>2023-05-18T10:05:30Z</time>
</trkpt>
<trkpt lat="49.34920996427536" lon="8.14042498357594">
<ele>161.20000000000005</ele>
<time>2023-05-18T10:05:31Z</time>
</trkpt>
<trkpt lat="49.349199989810586" lon="8.140312917530537">
<ele>161.20000000000005</ele>
<time>2023-05-18T10:05:32Z</time>
</trkpt>
<trkpt lat="49.34918791987002" lon="8.140204958617687">
<ele>161</ele>
<time>2023-05-18T10:05:33Z</time>
</trkpt>
<trkpt lat="49.349176939576864" lon="8.140097921714187">
<ele>160.79999999999995</ele>
<time>2023-05-18T10:05:34Z</time>
</trkpt>
<trkpt lat="49.34916696511209" lon="8.139991974458098">
<ele>160.79999999999995</ele>
<time>2023-05-18T10:05:35Z</time>
</trkpt>
<trkpt lat="49.34916294179857" lon="8.13988795503974">
<ele>160.60000000000002</ele>
<time>2023-05-18T10:05:36Z</time>
</trkpt>
<trkpt lat="49.34916495345533" lon="8.139789970591664">
<ele>160.60000000000002</ele>
<time>2023-05-18T10:05:37Z</time>
</trkpt>
<trkpt lat="49.34916294179857" lon="8.139701960608363">
<ele>160.39999999999998</ele>
<time>2023-05-18T10:05:38Z</time>
</trkpt>
<trkpt lat="49.34916294179857" lon="8.139621997252107">
<ele>160.39999999999998</ele>
<time>2023-05-18T10:05:39Z</time>
</trkpt>
<trkpt lat="49.349159924313426" lon="8.139546979218721">
<ele>160.20000000000005</ele>
<time>2023-05-18T10:05:40Z</time>
</trkpt>
<trkpt lat="49.349159924313426" lon="8.139469949528575">
<ele>160.20000000000005</ele>
<time>2023-05-18T10:05:41Z</time>
</trkpt>
<trkpt lat="49.34916193597019" lon="8.13939199782908">
<ele>160.20000000000005</ele>
<time>2023-05-18T10:05:42Z</time>
</trkpt>
<trkpt lat="49.34916797094047" lon="8.139311950653791">
<ele>160.20000000000005</ele>
<time>2023-05-18T10:05:43Z</time>
</trkpt>
<trkpt lat="49.34917291626334" lon="8.13922494649887">
<ele>160</ele>
<time>2023-05-18T10:05:44Z</time>
</trkpt>
<trkpt lat="49.349176939576864" lon="8.13913693651557">
<ele>160</ele>
<time>2023-05-18T10:05:45Z</time>
</trkpt>
<trkpt lat="49.34918196871877" lon="8.139049932360649">
<ele>160</ele>
<time>2023-05-18T10:05:46Z</time>
</trkpt>
<trkpt lat="49.34918699786067" lon="8.138962928205729">
<ele>159.79999999999995</ele>
<time>2023-05-18T10:05:47Z</time>
</trkpt>
<trkpt lat="49.34919496066868" lon="8.13887793570757">
<ele>159.79999999999995</ele>
<time>2023-05-18T10:05:48Z</time>
</trkpt>
<trkpt lat="49.349202923476696" lon="8.138796966522932">
<ele>159.79999999999995</ele>
<time>2023-05-18T10:05:49Z</time>
</trkpt>
<trkpt lat="49.34921197593212" lon="8.138711974024773">
<ele>159.60000000000002</ele>
<time>2023-05-18T10:05:50Z</time>
</trkpt>
<trkpt lat="49.349222956225276" lon="8.138629999011755">
<ele>159.60000000000002</ele>
<time>2023-05-18T10:05:51Z</time>
</trkpt>
<trkpt lat="49.349239971488714" lon="8.138544922694564">
<ele>159.60000000000002</ele>
<time>2023-05-18T10:05:52Z</time>
</trkpt>
<trkpt lat="49.34925698675215" lon="8.138457918539643">
<ele>159.39999999999998</ele>
<time>2023-05-18T10:05:53Z</time>
</trkpt>
<trkpt lat="49.34927299618721" lon="8.138372926041484">
<ele>159.39999999999998</ele>
<time>2023-05-18T10:05:54Z</time>
</trkpt>
<trkpt lat="49.34929193928838" lon="8.138286927714944">
<ele>159.39999999999998</ele>
<time>2023-05-18T10:05:55Z</time>
</trkpt>
<trkpt lat="49.3493099603802" lon="8.138202941045165">
<ele>159.20000000000005</ele>
<time>2023-05-18T10:05:56Z</time>
</trkpt>
<trkpt lat="49.34932999312878" lon="8.138121971860528">
<ele>159.20000000000005</ele>
<time>2023-05-18T10:05:57Z</time>
</trkpt>
<trkpt lat="49.34935295954347" lon="8.138049971312284">
<ele>159</ele>
<time>2023-05-18T10:05:58Z</time>
</trkpt>
<trkpt lat="49.349374920129776" lon="8.137979982420802">
<ele>158.79999999999995</ele>
<time>2023-05-18T10:05:59Z</time>
</trkpt>
<trkpt lat="49.3494029995054" lon="8.13791192136705">
<ele>158.60000000000002</ele>
<time>2023-05-18T10:06:00Z</time>
</trkpt>
<trkpt lat="49.34943996369839" lon="8.137849979102612">
<ele>158.39999999999998</ele>
<time>2023-05-18T10:06:01Z</time>
</trkpt>
<trkpt lat="49.34948296286166" lon="8.137799939140677">
<ele>158</ele>
<time>2023-05-18T10:06:02Z</time>
</trkpt>
<trkpt lat="49.34953199699521" lon="8.137764986604452">
<ele>157.79999999999995</ele>
<time>2023-05-18T10:06:03Z</time>
</trkpt>
<trkpt lat="49.349582958966494" lon="8.137742942199111">
<ele>157.39999999999998</ele>
<time>2023-05-18T10:06:04Z</time>
</trkpt>
<trkpt lat="49.34963693842292" lon="8.13774193637073">
<ele>157.20000000000005</ele>
<time>2023-05-18T10:06:05Z</time>
</trkpt>
<trkpt lat="49.34968295507133" lon="8.137764986604452">
<ele>156.79999999999995</ele>
<time>2023-05-18T10:06:06Z</time>
</trkpt>
<trkpt lat="49.34972796589136" lon="8.137784935534">
<ele>156.60000000000002</ele>
<time>2023-05-18T10:06:07Z</time>
</trkpt>
<trkpt lat="49.34976694174111" lon="8.137807985767722">
<ele>156.39999999999998</ele>
<time>2023-05-18T10:06:08Z</time>
</trkpt>
<trkpt lat="49.349799966439605" lon="8.137836987152696">
<ele>156.20000000000005</ele>
<time>2023-05-18T10:06:09Z</time>
</trkpt>
<trkpt lat="49.34982695616782" lon="8.13786699436605">
<ele>155.79999999999995</ele>
<time>2023-05-18T10:06:10Z</time>
</trkpt>
<trkpt lat="49.34985294006765" lon="8.137897923588753">
<ele>155.60000000000002</ele>
<time>2023-05-18T10:06:11Z</time>
</trkpt>
<trkpt lat="49.3498779181391" lon="8.137926924973726">
<ele>155.39999999999998</ele>
<time>2023-05-18T10:06:12Z</time>
</trkpt>
<trkpt lat="49.34989996254444" lon="8.13795299269259">
<ele>155</ele>
<time>2023-05-18T10:06:13Z</time>
</trkpt>
<trkpt lat="49.34991999529302" lon="8.137977970764041">
<ele>154.60000000000002</ele>
<time>2023-05-18T10:06:14Z</time>
</trkpt>
<trkpt lat="49.3499349988997" lon="8.138002948835492">
<ele>154.39999999999998</ele>
<time>2023-05-18T10:06:15Z</time>
</trkpt>
<trkpt lat="49.349949918687344" lon="8.138026921078563">
<ele>154</ele>
<time>2023-05-18T10:06:16Z</time>
</trkpt>
<trkpt lat="49.34996492229402" lon="8.138046953827143">
<ele>153.79999999999995</ele>
<time>2023-05-18T10:06:17Z</time>
</trkpt>
<trkpt lat="49.3499799259007" lon="8.138066986575723">
<ele>153.60000000000002</ele>
<time>2023-05-18T10:06:18Z</time>
</trkpt>
<trkpt lat="49.349991995841265" lon="8.138086935505271">
<ele>153.39999999999998</ele>
<time>2023-05-18T10:06:19Z</time>
</trkpt>
<trkpt lat="49.35000297613442" lon="8.138101939111948">
<ele>153.20000000000005</ele>
<time>2023-05-18T10:06:20Z</time>
</trkpt>
<trkpt lat="49.350016973912716" lon="8.138112919405103">
<ele>153</ele>
<time>2023-05-18T10:06:21Z</time>
</trkpt>
<trkpt lat="49.35003298334777" lon="8.1381269171834">
<ele>152.79999999999995</ele>
<time>2023-05-18T10:06:22Z</time>
</trkpt>
<trkpt lat="49.35004496946931" lon="8.138136975467205">
<ele>152.60000000000002</ele>
<time>2023-05-18T10:06:23Z</time>
</trkpt>
<trkpt lat="49.350056955590844" lon="8.13814795576036">
<ele>152.60000000000002</ele>
<time>2023-05-18T10:06:24Z</time>
</trkpt>
<trkpt lat="49.35007195919752" lon="8.138156924396753">
<ele>152.39999999999998</ele>
<time>2023-05-18T10:06:25Z</time>
</trkpt>
<trkpt lat="49.35008495114744" lon="8.138161953538656">
<ele>152.20000000000005</ele>
<time>2023-05-18T10:06:26Z</time>
</trkpt>
<trkpt lat="49.35009693726897" lon="8.13816991634667">
<ele>152</ele>
<time>2023-05-18T10:06:27Z</time>
</trkpt>
<trkpt lat="49.35010791756213" lon="8.138172933831811">
<ele>152</ele>
<time>2023-05-18T10:06:28Z</time>
</trkpt>
<trkpt lat="49.350121999159455" lon="8.138177962973714">
<ele>151.79999999999995</ele>
<time>2023-05-18T10:06:29Z</time>
</trkpt>
<trkpt lat="49.3501369189471" lon="8.138181986287236">
<ele>151.60000000000002</ele>
<time>2023-05-18T10:06:30Z</time>
</trkpt>
<trkpt lat="49.35015695169568" lon="8.138182992115617">
<ele>151.60000000000002</ele>
<time>2023-05-18T10:06:31Z</time>
</trkpt>
<trkpt lat="49.35018293559551" lon="8.138184919953346">
<ele>151.39999999999998</ele>
<time>2023-05-18T10:06:32Z</time>
</trkpt>
<trkpt lat="49.350211936980486" lon="8.138187937438488">
<ele>151.20000000000005</ele>
<time>2023-05-18T10:06:33Z</time>
</trkpt>
<trkpt lat="49.35023699887097" lon="8.13819196075201">
<ele>151</ele>
<time>2023-05-18T10:06:34Z</time>
</trkpt>
<trkpt lat="49.3502579536289" lon="8.13819196075201">
<ele>150.79999999999995</ele>
<time>2023-05-18T10:06:35Z</time>
</trkpt>
<trkpt lat="49.35028494335711" lon="8.138194978237152">
<ele>150.60000000000002</ele>
<time>2023-05-18T10:06:36Z</time>
</trkpt>
<trkpt lat="49.350314950570464" lon="8.138199923560023">
<ele>150.60000000000002</ele>
<time>2023-05-18T10:06:37Z</time>
</trkpt>
<trkpt lat="49.35034294612706" lon="8.138204952701926">
<ele>150.39999999999998</ele>
<time>2023-05-18T10:06:38Z</time>
</trkpt>
<trkpt lat="49.35037697665393" lon="8.138216938823462">
<ele>150.20000000000005</ele>
<time>2023-05-18T10:06:39Z</time>
</trkpt>
<trkpt lat="49.3504099175334" lon="8.13823294825852">
<ele>150</ele>
<time>2023-05-18T10:06:40Z</time>
</trkpt>
<trkpt lat="49.35043992474675" lon="8.13825499266386">
<ele>149.79999999999995</ele>
<time>2023-05-18T10:06:41Z</time>
</trkpt>
<trkpt lat="49.35046297498047" lon="8.138281982392073">
<ele>149.60000000000002</ele>
<time>2023-05-18T10:06:42Z</time>
</trkpt>
<trkpt lat="49.35047999024391" lon="8.13829698599875">
<ele>149.39999999999998</ele>
<time>2023-05-18T10:06:43Z</time>
</trkpt>
<trkpt lat="49.350487953051925" lon="8.138314923271537">
<ele>149.20000000000005</ele>
<time>2023-05-18T10:06:44Z</time>
</trkpt>
<trkpt lat="49.350506979972124" lon="8.138336967676878">
<ele>149</ele>
<time>2023-05-18T10:06:45Z</time>
</trkpt>
<trkpt lat="49.350532963871956" lon="8.138366974890232">
<ele>148.79999999999995</ele>
<time>2023-05-18T10:06:46Z</time>
</trkpt>
<trkpt lat="49.350572945550084" lon="8.138397987931967">
<ele>148.60000000000002</ele>
<time>2023-05-18T10:06:47Z</time>
</trkpt>
<trkpt lat="49.35061996802688" lon="8.138437969610095">
<ele>148.39999999999998</ele>
<time>2023-05-18T10:06:48Z</time>
</trkpt>
<trkpt lat="49.35066992416978" lon="8.138487925752997">
<ele>148.20000000000005</ele>
<time>2023-05-18T10:06:49Z</time>
</trkpt>
<trkpt lat="49.35071694664657" lon="8.138541989028454">
<ele>148</ele>
<time>2023-05-18T10:06:50Z</time>
</trkpt>
<trkpt lat="49.3507619574666" lon="8.138606948778033">
<ele>147.79999999999995</ele>
<time>2023-05-18T10:06:51Z</time>
</trkpt>
<trkpt lat="49.350812919437885" lon="8.138672998175025">
<ele>147.60000000000002</ele>
<time>2023-05-18T10:06:52Z</time>
</trkpt>
<trkpt lat="49.35086195357144" lon="8.138739969581366">
<ele>147.39999999999998</ele>
<time>2023-05-18T10:06:53Z</time>
</trkpt>
<trkpt lat="49.35090797021985" lon="8.138807946816087">
<ele>147.20000000000005</ele>
<time>2023-05-18T10:06:54Z</time>
</trkpt>
<trkpt lat="49.35095692053437" lon="8.138876929879189">
<ele>147</ele>
<time>2023-05-18T10:06:55Z</time>
</trkpt>
<trkpt lat="49.351006960496306" lon="8.138946918770671">
<ele>146.79999999999995</ele>
<time>2023-05-18T10:06:56Z</time>
</trkpt>
<trkpt lat="49.35105792246759" lon="8.139012968167663">
<ele>146.60000000000002</ele>
<time>2023-05-18T10:06:57Z</time>
</trkpt>
<trkpt lat="49.35110293328762" lon="8.13907298259437">
<ele>146.20000000000005</ele>
<time>2023-05-18T10:06:58Z</time>
</trkpt>
<trkpt lat="49.35114693827927" lon="8.139131991192698">
<ele>146</ele>
<time>2023-05-18T10:06:59Z</time>
</trkpt>
<trkpt lat="49.35118499211967" lon="8.139187982305884">
<ele>145.79999999999995</ele>
<time>2023-05-18T10:07:00Z</time>
</trkpt>
<trkpt lat="49.351219944655895" lon="8.139246990904212">
<ele>145.60000000000002</ele>
<time>2023-05-18T10:07:01Z</time>
</trkpt>
<trkpt lat="49.35124693438411" lon="8.139304993674159">
<ele>145.39999999999998</ele>
<time>2023-05-18T10:07:02Z</time>
</trkpt>
<trkpt lat="49.3512799590826" lon="8.139362996444106">
<ele>145.39999999999998</ele>
<time>2023-05-18T10:07:03Z</time>
</trkpt>
<trkpt lat="49.35131499543786" lon="8.139407923445106">
<ele>145.20000000000005</ele>
<time>2023-05-18T10:07:04Z</time>
</trkpt>
<trkpt lat="49.35135296545923" lon="8.139431979507208">
<ele>145.20000000000005</ele>
<time>2023-05-18T10:07:05Z</time>
</trkpt>
<trkpt lat="49.35139495879412" lon="8.139432985335588">
<ele>145.20000000000005</ele>
<time>2023-05-18T10:07:06Z</time>
</trkpt>
<trkpt lat="49.3514319229871" lon="8.139427956193686">
<ele>145</ele>
<time>2023-05-18T10:07:07Z</time>
</trkpt>
<trkpt lat="49.351456984877586" lon="8.139412952587008">
<ele>145</ele>
<time>2023-05-18T10:07:08Z</time>
</trkpt>
<trkpt lat="49.351477939635515" lon="8.13939694315195">
<ele>145</ele>
<time>2023-05-18T10:07:09Z</time>
</trkpt>
<trkpt lat="49.351502917706966" lon="8.139374982565641">
<ele>145</ele>
<time>2023-05-18T10:07:10Z</time>
</trkpt>
<trkpt lat="49.35152697376907" lon="8.139361990615726">
<ele>144.79999999999995</ele>
<time>2023-05-18T10:07:11Z</time>
</trkpt>
<trkpt lat="49.35154994018376" lon="8.1393529381603">
<ele>144.79999999999995</ele>
<time>2023-05-18T10:07:12Z</time>
</trkpt>
<trkpt lat="49.3515719845891" lon="8.139339946210384">
<ele>144.79999999999995</ele>
<time>2023-05-18T10:07:13Z</time>
</trkpt>
<trkpt lat="49.351606937125325" lon="8.139316979795694">
<ele>144.79999999999995</ele>
<time>2023-05-18T10:07:14Z</time>
</trkpt>
<trkpt lat="49.35164297930896" lon="8.139289990067482">
<ele>144.79999999999995</ele>
<time>2023-05-18T10:07:15Z</time>
</trkpt>
<trkpt lat="49.35168296098709" lon="8.13926693983376">
<ele>144.79999999999995</ele>
<time>2023-05-18T10:07:16Z</time>
</trkpt>
<trkpt lat="49.351731995120645" lon="8.139227963984013">
<ele>144.79999999999995</ele>
<time>2023-05-18T10:07:17Z</time>
</trkpt>
<trkpt lat="49.351774994283915" lon="8.13920198008418">
<ele>144.60000000000002</ele>
<time>2023-05-18T10:07:18Z</time>
</trkpt>
<trkpt lat="49.35181296430528" lon="8.139174990355968">
<ele>144.60000000000002</ele>
<time>2023-05-18T10:07:19Z</time>
</trkpt>
<trkpt lat="49.35184791684151" lon="8.13915696926415">
<ele>144.60000000000002</ele>
<time>2023-05-18T10:07:20Z</time>
</trkpt>
<trkpt lat="49.35187993571162" lon="8.13913794234395">
<ele>144.60000000000002</ele>
<time>2023-05-18T10:07:21Z</time>
</trkpt>
<trkpt lat="49.35192494653165" lon="8.139117993414402">
<ele>144.60000000000002</ele>
<time>2023-05-18T10:07:22Z</time>
</trkpt>
<trkpt lat="49.35196199454367" lon="8.139099972322583">
<ele>144.60000000000002</ele>
<time>2023-05-18T10:07:23Z</time>
</trkpt>
<trkpt lat="49.351989990100265" lon="8.139084968715906">
<ele>144.39999999999998</ele>
<time>2023-05-18T10:07:24Z</time>
</trkpt>
<trkpt lat="49.352011950686574" lon="8.13907298259437">
<ele>144.39999999999998</ele>
<time>2023-05-18T10:07:25Z</time>
</trkpt>
<trkpt lat="49.352031983435154" lon="8.139059990644455">
<ele>144.39999999999998</ele>
<time>2023-05-18T10:07:26Z</time>
</trkpt>
<trkpt lat="49.35204195789993" lon="8.13905194401741">
<ele>144.39999999999998</ele>
<time>2023-05-18T10:07:27Z</time>
</trkpt>
<trkpt lat="49.35204992070794" lon="8.139044987037778">
<ele>144.39999999999998</ele>
<time>2023-05-18T10:07:28Z</time>
</trkpt>
<trkpt lat="49.352056961506605" lon="8.139036940410733">
<ele>144.39999999999998</ele>
<time>2023-05-18T10:07:29Z</time>
</trkpt>
<trkpt lat="49.35206299647689" lon="8.1390299834311">
<ele>144.39999999999998</ele>
<time>2023-05-18T10:07:30Z</time>
</trkpt>
<trkpt lat="49.35206299647689" lon="8.13900693319738">
<ele>144.39999999999998</ele>
<time>2023-05-18T10:07:31Z</time>
</trkpt>
<trkpt lat="49.35206299647689" lon="8.138971980661154">
<ele>144.39999999999998</ele>
<time>2023-05-18T10:07:32Z</time>
</trkpt>
<trkpt lat="49.35205997899175" lon="8.138937950134277">
<ele>144.39999999999998</ele>
<time>2023-05-18T10:07:33Z</time>
</trkpt>
<trkpt lat="49.35205293819308" lon="8.138894950971007">
<ele>144.39999999999998</ele>
<time>2023-05-18T10:07:34Z</time>
</trkpt>
<trkpt lat="49.35204799287021" lon="8.138851951807737">
<ele>144.39999999999998</ele>
<time>2023-05-18T10:07:35Z</time>
</trkpt>
<trkpt lat="49.352036928758025" lon="8.138816999271512">
<ele>144.39999999999998</ele>
<time>2023-05-18T10:07:36Z</time>
</trkpt>
<trkpt lat="49.352032989263535" lon="8.13879193738103">
<ele>144.39999999999998</ele>
<time>2023-05-18T10:07:37Z</time>
</trkpt>
<trkpt lat="49.35202796012163" lon="8.138762935996056">
<ele>144.39999999999998</ele>
<time>2023-05-18T10:07:38Z</time>
</trkpt>
<trkpt lat="49.35202997177839" lon="8.13872697763145">
<ele>144.39999999999998</ele>
<time>2023-05-18T10:07:39Z</time>
</trkpt>
<trkpt lat="49.35202997177839" lon="8.138696970418096">
<ele>144.39999999999998</ele>
<time>2023-05-18T10:07:40Z</time>
</trkpt>
<trkpt lat="49.35202695429325" lon="8.138651959598064">
<ele>144.39999999999998</ele>
<time>2023-05-18T10:07:41Z</time>
</trkpt>
<trkpt lat="49.35202695429325" lon="8.138612983748317">
<ele>144.39999999999998</ele>
<time>2023-05-18T10:07:42Z</time>
</trkpt>
<trkpt lat="49.35202494263649" lon="8.138566967099905">
<ele>144.39999999999998</ele>
<time>2023-05-18T10:07:43Z</time>
</trkpt>
<trkpt lat="49.35202796012163" lon="8.138509970158339">
<ele>144.39999999999998</ele>
<time>2023-05-18T10:07:44Z</time>
</trkpt>
<trkpt lat="49.35202997177839" lon="8.138441992923617">
<ele>144.39999999999998</ele>
<time>2023-05-18T10:07:45Z</time>
</trkpt>
<trkpt lat="49.352036928758025" lon="8.138391952961683">
<ele>144.60000000000002</ele>
<time>2023-05-18T10:07:46Z</time>
</trkpt>
<trkpt lat="49.35206199064851" lon="8.13836295157671">
<ele>144.60000000000002</ele>
<time>2023-05-18T10:07:47Z</time>
</trkpt>
<trkpt lat="49.352079927921295" lon="8.138344930484891">
<ele>144.60000000000002</ele>
<time>2023-05-18T10:07:48Z</time>
</trkpt>
<trkpt lat="49.35209199786186" lon="8.138332944363356">
<ele>144.60000000000002</ele>
<time>2023-05-18T10:07:49Z</time>
</trkpt>
<trkpt lat="49.35210498981178" lon="8.13831995241344">
<ele>144.60000000000002</ele>
<time>2023-05-18T10:07:50Z</time>
</trkpt>
<trkpt lat="49.35210792347789" lon="8.13829991966486">
<ele>144.60000000000002</ele>
<time>2023-05-18T10:07:51Z</time>
</trkpt>
<trkpt lat="49.35211295261979" lon="8.13829799182713">
<ele>144.60000000000002</ele>
<time>2023-05-18T10:07:52Z</time>
</trkpt>
<trkpt lat="49.35210691764951" lon="8.138292962685227">
<ele>144.60000000000002</ele>
<time>2023-05-18T10:07:53Z</time>
</trkpt>
<trkpt lat="49.35210792347789" lon="8.138282988220453">
<ele>144.60000000000002</ele>
<time>2023-05-18T10:07:54Z</time>
</trkpt>
<trkpt lat="49.35210792347789" lon="8.138266978785396">
<ele>144.60000000000002</ele>
<time>2023-05-18T10:07:55Z</time>
</trkpt>
<trkpt lat="49.352099960669875" lon="8.1382529810071">
<ele>144.39999999999998</ele>
<time>2023-05-18T10:07:56Z</time>
</trkpt>
<trkpt lat="49.35208696871996" lon="8.13823495991528">
<ele>144.39999999999998</ele>
<time>2023-05-18T10:07:57Z</time>
</trkpt>
<trkpt lat="49.35206299647689" lon="8.138192966580391">
<ele>144.39999999999998</ele>
<time>2023-05-18T10:07:58Z</time>
</trkpt>
<trkpt lat="49.352119993418455" lon="8.137992974370718">
<ele>144.39999999999998</ele>
<time>2023-05-18T10:07:59Z</time>
</trkpt>
<trkpt lat="49.352162992581725" lon="8.137841932475567">
<ele>144.20000000000005</ele>
<time>2023-05-18T10:08:00Z</time>
</trkpt>
<trkpt lat="49.3521919939667" lon="8.137772949412465">
<ele>144.20000000000005</ele>
<time>2023-05-18T10:08:01Z</time>
</trkpt>
<trkpt lat="49.35225997120142" lon="8.13773992471397">
<ele>144</ele>
<time>2023-05-18T10:08:02Z</time>
</trkpt>
<trkpt lat="49.35227992013097" lon="8.13773699104786">
<ele>144</ele>
<time>2023-05-18T10:08:03Z</time>
</trkpt>
<trkpt lat="49.35228696092963" lon="8.13774193637073">
<ele>144</ele>
<time>2023-05-18T10:08:04Z</time>
</trkpt>
<trkpt lat="49.35232291929424" lon="8.137797927483916">
<ele>143.79999999999995</ele>
<time>2023-05-18T10:08:05Z</time>
</trkpt>
<trkpt lat="49.3524269387126" lon="8.1379749532789">
<ele>143.79999999999995</ele>
<time>2023-05-18T10:08:06Z</time>
</trkpt>
<trkpt lat="49.352464992552996" lon="8.138059945777059">
<ele>143.79999999999995</ele>
<time>2023-05-18T10:08:07Z</time>
</trkpt>
<trkpt lat="49.35248997062445" lon="8.13812792301178">
<ele>143.60000000000002</ele>
<time>2023-05-18T10:08:08Z</time>
</trkpt>
<trkpt lat="49.35251293703914" lon="8.138174945488572">
<ele>143.60000000000002</ele>
<time>2023-05-18T10:08:09Z</time>
</trkpt>
<trkpt lat="49.35254495590925" lon="8.138236971572042">
<ele>143.60000000000002</ele>
<time>2023-05-18T10:08:10Z</time>
</trkpt>
<trkpt lat="49.35256691649556" lon="8.138274941593409">
<ele>143.60000000000002</ele>
<time>2023-05-18T10:08:11Z</time>
</trkpt>
<trkpt lat="49.35258292593062" lon="8.138307966291904">
<ele>143.39999999999998</ele>
<time>2023-05-18T10:08:12Z</time>
</trkpt>
<trkpt lat="49.352596923708916" lon="8.13834291882813">
<ele>143.39999999999998</ele>
<time>2023-05-18T10:08:13Z</time>
</trkpt>
<trkpt lat="49.35260999947786" lon="8.138377955183387">
<ele>143.39999999999998</ele>
<time>2023-05-18T10:08:14Z</time>
</trkpt>
<trkpt lat="49.35261997394264" lon="8.138416931033134">
<ele>143.39999999999998</ele>
<time>2023-05-18T10:08:15Z</time>
</trkpt>
<trkpt lat="49.35263296589255" lon="8.138451967388391">
<ele>143.39999999999998</ele>
<time>2023-05-18T10:08:16Z</time>
</trkpt>
<trkpt lat="49.352639922872186" lon="8.138481974601746">
<ele>143.39999999999998</ele>
<time>2023-05-18T10:08:17Z</time>
</trkpt>
<trkpt lat="49.35265199281275" lon="8.138514999300241">
<ele>143.39999999999998</ele>
<time>2023-05-18T10:08:18Z</time>
</trkpt>
<trkpt lat="49.35266297310591" lon="8.138541989028454">
<ele>143.20000000000005</ele>
<time>2023-05-18T10:08:19Z</time>
</trkpt>
<trkpt lat="49.352676970884204" lon="8.138564955443144">
<ele>143.20000000000005</ele>
<time>2023-05-18T10:08:20Z</time>
</trkpt>
<trkpt lat="49.35273195616901" lon="8.13859798014164">
<ele>143.20000000000005</ele>
<time>2023-05-18T10:08:21Z</time>
</trkpt>
<trkpt lat="49.352764980867505" lon="8.13862195238471">
<ele>143.20000000000005</ele>
<time>2023-05-18T10:08:22Z</time>
</trkpt>
<trkpt lat="49.35279993340373" lon="8.138629999011755">
<ele>143</ele>
<time>2023-05-18T10:08:23Z</time>
</trkpt>
<trkpt lat="49.35282499529421" lon="8.13863997347653">
<ele>143</ele>
<time>2023-05-18T10:08:24Z</time>
</trkpt>
<trkpt lat="49.35283798724413" lon="8.138654977083206">
<ele>143</ele>
<time>2023-05-18T10:08:25Z</time>
</trkpt>
<trkpt lat="49.35285994783044" lon="8.138669980689883">
<ele>143</ele>
<time>2023-05-18T10:08:26Z</time>
</trkpt>
<trkpt lat="49.352872939780354" lon="8.138672998175025">
<ele>143</ele>
<time>2023-05-18T10:08:27Z</time>
</trkpt>
<trkpt lat="49.35288492590189" lon="8.138679955154657">
<ele>142.79999999999995</ele>
<time>2023-05-18T10:08:28Z</time>
</trkpt>
<trkpt lat="49.35289699584246" lon="8.138667969033122">
<ele>142.79999999999995</ele>
<time>2023-05-18T10:08:29Z</time>
</trkpt>
<trkpt lat="49.35290294699371" lon="8.138652965426445">
<ele>142.79999999999995</ele>
<time>2023-05-18T10:08:30Z</time>
</trkpt>
<trkpt lat="49.35290797613561" lon="8.138629999011755">
<ele>142.79999999999995</ele>
<time>2023-05-18T10:08:31Z</time>
</trkpt>
<trkpt lat="49.35292297974229" lon="8.138604937121272">
<ele>142.79999999999995</ele>
<time>2023-05-18T10:08:32Z</time>
</trkpt>
<trkpt lat="49.35294695198536" lon="8.13857694156468">
<ele>142.79999999999995</ele>
<time>2023-05-18T10:08:33Z</time>
</trkpt>
<trkpt lat="49.352957932278514" lon="8.138547940179706">
<ele>142.79999999999995</ele>
<time>2023-05-18T10:08:34Z</time>
</trkpt>
<trkpt lat="49.35296698473394" lon="8.138519944623113">
<ele>142.79999999999995</ele>
<time>2023-05-18T10:08:35Z</time>
</trkpt>
<trkpt lat="49.35296799056232" lon="8.138487925752997">
<ele>142.79999999999995</ele>
<time>2023-05-18T10:08:36Z</time>
</trkpt>
<trkpt lat="49.352961955592036" lon="8.13844995573163">
<ele>142.79999999999995</ele>
<time>2023-05-18T10:08:37Z</time>
</trkpt>
<trkpt lat="49.35295692645013" lon="8.138411985710263">
<ele>142.79999999999995</ele>
<time>2023-05-18T10:08:38Z</time>
</trkpt>
<trkpt lat="49.352954998612404" lon="8.138374937698245">
<ele>142.79999999999995</ele>
<time>2023-05-18T10:08:39Z</time>
</trkpt>
<trkpt lat="49.3529499694705" lon="8.138336967676878">
<ele>142.79999999999995</ele>
<time>2023-05-18T10:08:40Z</time>
</trkpt>
<trkpt lat="49.3529499694705" lon="8.138301931321621">
<ele>142.79999999999995</ele>
<time>2023-05-18T10:08:41Z</time>
</trkpt>
<trkpt lat="49.35295198112726" lon="8.138264967128634">
<ele>142.79999999999995</ele>
<time>2023-05-18T10:08:42Z</time>
</trkpt>
<trkpt lat="49.3529499694705" lon="8.138227919116616">
<ele>143</ele>
<time>2023-05-18T10:08:43Z</time>
</trkpt>
<trkpt lat="49.35294795781374" lon="8.13819196075201">
<ele>143</ele>
<time>2023-05-18T10:08:44Z</time>
</trkpt>
<trkpt lat="49.35294695198536" lon="8.138154996559024">
<ele>143</ele>
<time>2023-05-18T10:08:45Z</time>
</trkpt>
<trkpt lat="49.35294795781374" lon="8.13812498934567">
<ele>143</ele>
<time>2023-05-18T10:08:46Z</time>
</trkpt>
<trkpt lat="49.35294795781374" lon="8.138092970475554">
<ele>143</ele>
<time>2023-05-18T10:08:47Z</time>
</trkpt>
<trkpt lat="49.35294795781374" lon="8.13806195743382">
<ele>143</ele>
<time>2023-05-18T10:08:48Z</time>
</trkpt>
<trkpt lat="49.35294292867184" lon="8.138021975755692">
<ele>143</ele>
<time>2023-05-18T10:08:49Z</time>
</trkpt>
<trkpt lat="49.3529449403286" lon="8.137977970764041">
<ele>143</ele>
<time>2023-05-18T10:08:50Z</time>
</trkpt>
<trkpt lat="49.35294695198536" lon="8.13793195411563">
<ele>142.79999999999995</ele>
<time>2023-05-18T10:08:51Z</time>
</trkpt>
<trkpt lat="49.3529449403286" lon="8.137887949123979">
<ele>142.79999999999995</ele>
<time>2023-05-18T10:08:52Z</time>
</trkpt>
<trkpt lat="49.35294795781374" lon="8.137839920818806">
<ele>143</ele>
<time>2023-05-18T10:08:53Z</time>
</trkpt>
<trkpt lat="49.35294695198536" lon="8.137794993817806">
<ele>143</ele>
<time>2023-05-18T10:08:54Z</time>
</trkpt>
<trkpt lat="49.3529499694705" lon="8.137749982997775">
<ele>143</ele>
<time>2023-05-18T10:08:55Z</time>
</trkpt>
<trkpt lat="49.35295298695564" lon="8.137712934985757">
<ele>143</ele>
<time>2023-05-18T10:08:56Z</time>
</trkpt>
<trkpt lat="49.35295198112726" lon="8.13767496496439">
<ele>143</ele>
<time>2023-05-18T10:08:57Z</time>
</trkpt>
<trkpt lat="49.352954998612404" lon="8.1376329716295">
<ele>143</ele>
<time>2023-05-18T10:08:58Z</time>
</trkpt>
<trkpt lat="49.35296497307718" lon="8.13758796080947">
<ele>143</ele>
<time>2023-05-18T10:08:59Z</time>
</trkpt>
<trkpt lat="49.35297293588519" lon="8.137549990788102">
<ele>143</ele>
<time>2023-05-18T10:09:00Z</time>
</trkpt>
<trkpt lat="49.35296698473394" lon="8.137506991624832">
<ele>143</ele>
<time>2023-05-18T10:09:01Z</time>
</trkpt>
<trkpt lat="49.35296991840005" lon="8.137467931956053">
<ele>143</ele>
<time>2023-05-18T10:09:02Z</time>
</trkpt>
<trkpt lat="49.352981988340616" lon="8.137427950277925">
<ele>143</ele>
<time>2023-05-18T10:09:03Z</time>
</trkpt>
<trkpt lat="49.35299296863377" lon="8.137387968599796">
<ele>143</ele>
<time>2023-05-18T10:09:04Z</time>
</trkpt>
<trkpt lat="49.35300797224045" lon="8.137351926416159">
<ele>143</ele>
<time>2023-05-18T10:09:05Z</time>
</trkpt>
<trkpt lat="49.353021970018744" lon="8.137312950566411">
<ele>143</ele>
<time>2023-05-18T10:09:06Z</time>
</trkpt>
<trkpt lat="49.35303194448352" lon="8.137272968888283">
<ele>143</ele>
<time>2023-05-18T10:09:07Z</time>
</trkpt>
<trkpt lat="49.35304191894829" lon="8.137236926704645">
<ele>143</ele>
<time>2023-05-18T10:09:08Z</time>
</trkpt>
<trkpt lat="49.353047953918576" lon="8.137199962511659">
<ele>143</ele>
<time>2023-05-18T10:09:09Z</time>
</trkpt>
<trkpt lat="49.35305499471724" lon="8.137161992490292">
<ele>143</ele>
<time>2023-05-18T10:09:10Z</time>
</trkpt>
<trkpt lat="49.35305298306048" lon="8.137121926993132">
<ele>143</ele>
<time>2023-05-18T10:09:11Z</time>
</trkpt>
<trkpt lat="49.35304996557534" lon="8.137084962800145">
<ele>143</ele>
<time>2023-05-18T10:09:12Z</time>
</trkpt>
<trkpt lat="49.3530519772321" lon="8.137041963636875">
<ele>143</ele>
<time>2023-05-18T10:09:13Z</time>
</trkpt>
<trkpt lat="49.35305298306048" lon="8.137001981958747">
<ele>143</ele>
<time>2023-05-18T10:09:14Z</time>
</trkpt>
<trkpt lat="49.35306195169687" lon="8.136959988623857">
<ele>143</ele>
<time>2023-05-18T10:09:15Z</time>
</trkpt>
<trkpt lat="49.353067986667156" lon="8.136917995288968">
<ele>143</ele>
<time>2023-05-18T10:09:16Z</time>
</trkpt>
<trkpt lat="49.35307997278869" lon="8.136884970590472">
<ele>143</ele>
<time>2023-05-18T10:09:17Z</time>
</trkpt>
<trkpt lat="49.353087935596704" lon="8.136851945891976">
<ele>143</ele>
<time>2023-05-18T10:09:18Z</time>
</trkpt>
<trkpt lat="49.35309992171824" lon="8.136819927021861">
<ele>143</ele>
<time>2023-05-18T10:09:19Z</time>
</trkpt>
<trkpt lat="49.35311199165881" lon="8.136787991970778">
<ele>143</ele>
<time>2023-05-18T10:09:20Z</time>
</trkpt>
<trkpt lat="49.35312196612358" lon="8.13675295561552">
<ele>143</ele>
<time>2023-05-18T10:09:21Z</time>
</trkpt>
<trkpt lat="49.353126995265484" lon="8.136722948402166">
<ele>143</ele>
<time>2023-05-18T10:09:22Z</time>
</trkpt>
<trkpt lat="49.3531399872154" lon="8.13668992370367">
<ele>143</ele>
<time>2023-05-18T10:09:23Z</time>
</trkpt>
<trkpt lat="49.353152979165316" lon="8.136656982824206">
<ele>143</ele>
<time>2023-05-18T10:09:24Z</time>
</trkpt>
<trkpt lat="49.35316496528685" lon="8.13662194646895">
<ele>143.20000000000005</ele>
<time>2023-05-18T10:09:25Z</time>
</trkpt>
<trkpt lat="49.35317192226648" lon="8.136584982275963">
<ele>143.20000000000005</ele>
<time>2023-05-18T10:09:26Z</time>
</trkpt>
<trkpt lat="49.35318692587316" lon="8.136549945920706">
<ele>143.20000000000005</ele>
<time>2023-05-18T10:09:27Z</time>
</trkpt>
<trkpt lat="49.35320997610688" lon="8.136521950364113">
<ele>143.20000000000005</ele>
<time>2023-05-18T10:09:28Z</time>
</trkpt>
<trkpt lat="49.35322196222842" lon="8.136486997827888">
<ele>143.20000000000005</ele>
<time>2023-05-18T10:09:29Z</time>
</trkpt>
<trkpt lat="49.35325498692691" lon="8.136464953422546">
<ele>143.20000000000005</ele>
<time>2023-05-18T10:09:30Z</time>
</trkpt>
<trkpt lat="49.35327493585646" lon="8.136434946209192">
<ele>143.20000000000005</ele>
<time>2023-05-18T10:09:31Z</time>
</trkpt>
<trkpt lat="49.3532919511199" lon="8.136402927339077">
<ele>143.20000000000005</ele>
<time>2023-05-18T10:09:32Z</time>
</trkpt>
<trkpt lat="49.35328792780638" lon="8.136369986459613">
<ele>143.20000000000005</ele>
<time>2023-05-18T10:09:33Z</time>
</trkpt>
<trkpt lat="49.35329295694828" lon="8.136337967589498">
<ele>143.20000000000005</ele>
<time>2023-05-18T10:09:34Z</time>
</trkpt>
<trkpt lat="49.353301925584674" lon="8.136307960376143">
<ele>143.20000000000005</ele>
<time>2023-05-18T10:09:35Z</time>
</trkpt>
<trkpt lat="49.35331198386848" lon="8.136281976476312">
<ele>143.20000000000005</ele>
<time>2023-05-18T10:09:36Z</time>
</trkpt>
<trkpt lat="49.35332698747516" lon="8.13625792041421">
<ele>143.20000000000005</ele>
<time>2023-05-18T10:09:37Z</time>
</trkpt>
<trkpt lat="49.35334995388985" lon="8.136241994798183">
<ele>143.20000000000005</ele>
<time>2023-05-18T10:09:38Z</time>
</trkpt>
<trkpt lat="49.35335992835462" lon="8.136217938736081">
<ele>143.20000000000005</ele>
<time>2023-05-18T10:09:39Z</time>
</trkpt>
<trkpt lat="49.353366969153285" lon="8.136206958442926">
<ele>143.20000000000005</ele>
<time>2023-05-18T10:09:40Z</time>
</trkpt>
<trkpt lat="49.3533799611032" lon="8.136201929301023">
<ele>143.20000000000005</ele>
<time>2023-05-18T10:09:41Z</time>
</trkpt>
<trkpt lat="49.353387923911214" lon="8.13619296066463">
<ele>143.20000000000005</ele>
<time>2023-05-18T10:09:42Z</time>
</trkpt>
<trkpt lat="49.35339999385178" lon="8.13619195483625">
<ele>143.20000000000005</ele>
<time>2023-05-18T10:09:43Z</time>
</trkpt>
<trkpt lat="49.353411979973316" lon="8.13619195483625">
<ele>143.20000000000005</ele>
<time>2023-05-18T10:09:44Z</time>
</trkpt>
<trkpt lat="49.35343695804477" lon="8.136197989806533">
<ele>143.20000000000005</ele>
<time>2023-05-18T10:09:45Z</time>
</trkpt>
<trkpt lat="49.3534629419446" lon="8.136201929301023">
<ele>143.20000000000005</ele>
<time>2023-05-18T10:09:46Z</time>
</trkpt>
<trkpt lat="49.35348993167281" lon="8.136199917644262">
<ele>143.20000000000005</ele>
<time>2023-05-18T10:09:47Z</time>
</trkpt>
<trkpt lat="49.353514993563294" lon="8.136196983978152">
<ele>143.20000000000005</ele>
<time>2023-05-18T10:09:48Z</time>
</trkpt>
<trkpt lat="49.35354198329151" lon="8.136194972321391">
<ele>143.20000000000005</ele>
<time>2023-05-18T10:09:49Z</time>
</trkpt>
<trkpt lat="49.353562938049436" lon="8.13619195483625">
<ele>143.39999999999998</ele>
<time>2023-05-18T10:09:50Z</time>
</trkpt>
<trkpt lat="49.353579953312874" lon="8.136184997856617">
<ele>143.39999999999998</ele>
<time>2023-05-18T10:09:51Z</time>
</trkpt>
<trkpt lat="49.35359294526279" lon="8.136176951229572">
<ele>143.39999999999998</ele>
<time>2023-05-18T10:09:52Z</time>
</trkpt>
<trkpt lat="49.353606943041086" lon="8.136164965108037">
<ele>143.39999999999998</ele>
<time>2023-05-18T10:09:53Z</time>
</trkpt>
<trkpt lat="49.35361792333424" lon="8.136147949844599">
<ele>143.39999999999998</ele>
<time>2023-05-18T10:09:54Z</time>
</trkpt>
<trkpt lat="49.35362999327481" lon="8.136131940409541">
<ele>143.60000000000002</ele>
<time>2023-05-18T10:09:55Z</time>
</trkpt>
<trkpt lat="49.35363795608282" lon="8.136109979823232">
<ele>143.60000000000002</ele>
<time>2023-05-18T10:09:56Z</time>
</trkpt>
<trkpt lat="49.35364197939634" lon="8.13608793541789">
<ele>143.60000000000002</ele>
<time>2023-05-18T10:09:57Z</time>
</trkpt>
<trkpt lat="49.353646924719214" lon="8.13606295734644">
<ele>143.60000000000002</ele>
<time>2023-05-18T10:09:58Z</time>
</trkpt>
<trkpt lat="49.35365195386112" lon="8.13603999093175">
<ele>143.60000000000002</ele>
<time>2023-05-18T10:09:59Z</time>
</trkpt>
<trkpt lat="49.3536529596895" lon="8.13601995818317">
<ele>143.60000000000002</ele>
<time>2023-05-18T10:10:00Z</time>
</trkpt>
<trkpt lat="49.35365195386112" lon="8.136004954576492">
<ele>143.60000000000002</ele>
<time>2023-05-18T10:10:01Z</time>
</trkpt>
<trkpt lat="49.35365195386112" lon="8.13599992543459">
<ele>143.60000000000002</ele>
<time>2023-05-18T10:10:02Z</time>
</trkpt>
<trkpt lat="49.35365991666913" lon="8.13600193709135">
<ele>143.60000000000002</ele>
<time>2023-05-18T10:10:04Z</time>
</trkpt>
<trkpt lat="49.35366192832589" lon="8.13599699176848">
<ele>143.60000000000002</ele>
<time>2023-05-18T10:10:05Z</time>
</trkpt>
<trkpt lat="49.35369696468115" lon="8.13608692958951">
<ele>144</ele>
<time>2023-05-18T10:10:06Z</time>
</trkpt>
<trkpt lat="49.353692941367626" lon="8.136096987873316">
<ele>144</ele>
<time>2023-05-18T10:10:07Z</time>
</trkpt>
<trkpt lat="49.353689923882484" lon="8.136104950681329">
<ele>144</ele>
<time>2023-05-18T10:10:08Z</time>
</trkpt>
<trkpt lat="49.35368497855961" lon="8.136114925146103">
<ele>144</ele>
<time>2023-05-18T10:10:09Z</time>
</trkpt>
<trkpt lat="49.35367693193257" lon="8.136117942631245">
<ele>144</ele>
<time>2023-05-18T10:10:10Z</time>
</trkpt>
<trkpt lat="49.35366494581103" lon="8.136122971773148">
<ele>144</ele>
<time>2023-05-18T10:10:11Z</time>
</trkpt>
<trkpt lat="49.35365991666913" lon="8.13612992875278">
<ele>144</ele>
<time>2023-05-18T10:10:12Z</time>
</trkpt>
<trkpt lat="49.3536529596895" lon="8.136131940409541">
<ele>144</ele>
<time>2023-05-18T10:10:13Z</time>
</trkpt>
<trkpt lat="49.353644996881485" lon="8.13612992875278">
<ele>144</ele>
<time>2023-05-18T10:10:14Z</time>
</trkpt>
<trkpt lat="49.35363795608282" lon="8.136131940409541">
<ele>144.20000000000005</ele>
<time>2023-05-18T10:10:15Z</time>
</trkpt>
<trkpt lat="49.35363192111254" lon="8.136132946237922">
<ele>144.20000000000005</ele>
<time>2023-05-18T10:10:16Z</time>
</trkpt>
<trkpt lat="49.353624964132905" lon="8.136136969551444">
<ele>144.20000000000005</ele>
<time>2023-05-18T10:10:17Z</time>
</trkpt>
<trkpt lat="49.353619934991" lon="8.136137975379825">
<ele>144.20000000000005</ele>
<time>2023-05-18T10:10:18Z</time>
</trkpt>
<trkpt lat="49.353626975789666" lon="8.136217938736081">
<ele>143.79999999999995</ele>
<time>2023-05-18T10:10:18Z</time>
</trkpt>
<trkpt lat="49.35362798161805" lon="8.136241994798183">
<ele>143.79999999999995</ele>
<time>2023-05-18T10:10:19Z</time>
</trkpt>
<trkpt lat="49.35363192111254" lon="8.136269990354776">
<ele>143.79999999999995</ele>
<time>2023-05-18T10:10:20Z</time>
</trkpt>
<trkpt lat="49.35363192111254" lon="8.13630192540586">
<ele>143.79999999999995</ele>
<time>2023-05-18T10:10:21Z</time>
</trkpt>
<trkpt lat="49.35362798161805" lon="8.136332938447595">
<ele>143.79999999999995</ele>
<time>2023-05-18T10:10:22Z</time>
</trkpt>
<trkpt lat="49.353622952476144" lon="8.136354982852936">
<ele>143.79999999999995</ele>
<time>2023-05-18T10:10:23Z</time>
</trkpt>
<trkpt lat="49.353619934991" lon="8.136379960924387">
<ele>144</ele>
<time>2023-05-18T10:10:24Z</time>
</trkpt>
<trkpt lat="49.35361498966813" lon="8.13640795648098">
<ele>144</ele>
<time>2023-05-18T10:10:25Z</time>
</trkpt>
<trkpt lat="49.35361197218299" lon="8.136437963694334">
<ele>144</ele>
<time>2023-05-18T10:10:26Z</time>
</trkpt>
<trkpt lat="49.35361498966813" lon="8.136479957029223">
<ele>144</ele>
<time>2023-05-18T10:10:27Z</time>
</trkpt>
<trkpt lat="49.35361297801137" lon="8.136497978121042">
<ele>144</ele>
<time>2023-05-18T10:10:28Z</time>
</trkpt>
<trkpt lat="49.35361691750586" lon="8.136527985334396">
<ele>144</ele>
<time>2023-05-18T10:10:29Z</time>
</trkpt>
<trkpt lat="49.35361792333424" lon="8.136572996154428">
<ele>144</ele>
<time>2023-05-18T10:10:30Z</time>
</trkpt>
<trkpt lat="49.353622952476144" lon="8.136612977832556">
<ele>144</ele>
<time>2023-05-18T10:10:31Z</time>
</trkpt>
<trkpt lat="49.353624964132905" lon="8.136662933975458">
<ele>144</ele>
<time>2023-05-18T10:10:32Z</time>
</trkpt>
<trkpt lat="49.35361792333424" lon="8.136716997250915">
<ele>144</ele>
<time>2023-05-18T10:10:33Z</time>
</trkpt>
<trkpt lat="49.35361197218299" lon="8.136776927858591">
<ele>144</ele>
<time>2023-05-18T10:10:34Z</time>
</trkpt>
<trkpt lat="49.353604931384325" lon="8.136821938678622">
<ele>144</ele>
<time>2023-05-18T10:10:35Z</time>
</trkpt>
<trkpt lat="49.353582970798016" lon="8.136869966983795">
<ele>144</ele>
<time>2023-05-18T10:10:36Z</time>
</trkpt>
<trkpt lat="49.3535699788481" lon="8.13690198585391">
<ele>144</ele>
<time>2023-05-18T10:10:37Z</time>
</trkpt>
<trkpt lat="49.353556986898184" lon="8.136949930340052">
<ele>144</ele>
<time>2023-05-18T10:10:38Z</time>
</trkpt>
<trkpt lat="49.35354793444276" lon="8.136996952816844">
<ele>144</ele>
<time>2023-05-18T10:10:39Z</time>
</trkpt>
<trkpt lat="49.35354491695762" lon="8.137041963636875">
<ele>144</ele>
<time>2023-05-18T10:10:40Z</time>
</trkpt>
<trkpt lat="49.35353494249284" lon="8.137091919779778">
<ele>144</ele>
<time>2023-05-18T10:10:41Z</time>
</trkpt>
<trkpt lat="49.35352697968483" lon="8.137146988883615">
<ele>144</ele>
<time>2023-05-18T10:10:42Z</time>
</trkpt>
<trkpt lat="49.35352295637131" lon="8.137196945026517">
<ele>144</ele>
<time>2023-05-18T10:10:43Z</time>
</trkpt>
<trkpt lat="49.35352697968483" lon="8.13724497333169">
<ele>144</ele>
<time>2023-05-18T10:10:44Z</time>
</trkpt>
<trkpt lat="49.35353494249284" lon="8.137294929474592">
<ele>144</ele>
<time>2023-05-18T10:10:45Z</time>
</trkpt>
<trkpt lat="49.353536954149604" lon="8.137344969436526">
<ele>143.79999999999995</ele>
<time>2023-05-18T10:10:46Z</time>
</trkpt>
<trkpt lat="49.35352999716997" lon="8.137394925579429">
<ele>143.79999999999995</ele>
<time>2023-05-18T10:10:47Z</time>
</trkpt>
<trkpt lat="49.353519938886166" lon="8.137441948056221">
<ele>143.79999999999995</ele>
<time>2023-05-18T10:10:48Z</time>
</trkpt>
<trkpt lat="49.35350996442139" lon="8.13748192973435">
<ele>143.60000000000002</ele>
<time>2023-05-18T10:10:49Z</time>
</trkpt>
<trkpt lat="49.353497978299856" lon="8.137517971917987">
<ele>143.60000000000002</ele>
<time>2023-05-18T10:10:50Z</time>
</trkpt>
<trkpt lat="49.35349294915795" lon="8.13756792806089">
<ele>143.39999999999998</ele>
<time>2023-05-18T10:10:51Z</time>
</trkpt>
<trkpt lat="49.35348792001605" lon="8.137617968022823">
<ele>143.39999999999998</ele>
<time>2023-05-18T10:10:52Z</time>
</trkpt>
<trkpt lat="49.35347291640937" lon="8.137667924165726">
<ele>143.39999999999998</ele>
<time>2023-05-18T10:10:53Z</time>
</trkpt>
<trkpt lat="49.35347291640937" lon="8.137712934985757">
<ele>143.39999999999998</ele>
<time>2023-05-18T10:10:54Z</time>
</trkpt>
<trkpt lat="49.35346696525812" lon="8.13775995746255">
<ele>143.20000000000005</ele>
<time>2023-05-18T10:10:55Z</time>
</trkpt>
<trkpt lat="49.35344793833792" lon="8.13780496828258">
<ele>143.20000000000005</ele>
<time>2023-05-18T10:10:56Z</time>
</trkpt>
<trkpt lat="49.353434946388006" lon="8.137859953567386">
<ele>143.20000000000005</ele>
<time>2023-05-18T10:10:57Z</time>
</trkpt>
<trkpt lat="49.353427989408374" lon="8.137906976044178">
<ele>143.20000000000005</ele>
<time>2023-05-18T10:10:58Z</time>
</trkpt>
<trkpt lat="49.35342296026647" lon="8.13795299269259">
<ele>143.20000000000005</ele>
<time>2023-05-18T10:10:59Z</time>
</trkpt>
<trkpt lat="49.35341793112457" lon="8.137989956885576">
<ele>143</ele>
<time>2023-05-18T10:11:00Z</time>
</trkpt>
<trkpt lat="49.35340695083141" lon="8.138026921078563">
<ele>143</ele>
<time>2023-05-18T10:11:01Z</time>
</trkpt>
<trkpt lat="49.35339496470988" lon="8.138074949383736">
<ele>143</ele>
<time>2023-05-18T10:11:02Z</time>
</trkpt>
<trkpt lat="49.35338691808283" lon="8.138112919405103">
<ele>143</ele>
<time>2023-05-18T10:11:03Z</time>
</trkpt>
<trkpt lat="49.35337794944644" lon="8.138151979073882">
<ele>143</ele>
<time>2023-05-18T10:11:04Z</time>
</trkpt>
<trkpt lat="49.353366969153285" lon="8.138199923560023">
<ele>143</ele>
<time>2023-05-18T10:11:05Z</time>
</trkpt>
<trkpt lat="49.353347942233086" lon="8.138242922723293">
<ele>143</ele>
<time>2023-05-18T10:11:06Z</time>
</trkpt>
<trkpt lat="49.35333495028317" lon="8.138291956856847">
<ele>143</ele>
<time>2023-05-18T10:11:07Z</time>
</trkpt>
<trkpt lat="49.35333193279803" lon="8.138346942141652">
<ele>143</ele>
<time>2023-05-18T10:11:08Z</time>
</trkpt>
<trkpt lat="49.35332698747516" lon="8.1384049449116">
<ele>143</ele>
<time>2023-05-18T10:11:09Z</time>
</trkpt>
<trkpt lat="49.35332799330354" lon="8.138456996530294">
<ele>143</ele>
<time>2023-05-18T10:11:10Z</time>
</trkpt>
<trkpt lat="49.35333495028317" lon="8.138504941016436">
<ele>143</ele>
<time>2023-05-18T10:11:11Z</time>
</trkpt>
<trkpt lat="49.35333193279803" lon="8.138546934351325">
<ele>143</ele>
<time>2023-05-18T10:11:12Z</time>
</trkpt>
<trkpt lat="49.35332992114127" lon="8.138584988191724">
<ele>143</ele>
<time>2023-05-18T10:11:13Z</time>
</trkpt>
<trkpt lat="49.35331793501973" lon="8.138609966263175">
<ele>143.20000000000005</ele>
<time>2023-05-18T10:11:14Z</time>
</trkpt>
<trkpt lat="49.35331298969686" lon="8.138637961819768">
<ele>143.20000000000005</ele>
<time>2023-05-18T10:11:15Z</time>
</trkpt>
<trkpt lat="49.353299997746944" lon="8.13866495154798">
<ele>143.39999999999998</ele>
<time>2023-05-18T10:11:16Z</time>
</trkpt>
<trkpt lat="49.35329496860504" lon="8.138702921569347">
<ele>143.60000000000002</ele>
<time>2023-05-18T10:11:17Z</time>
</trkpt>
<trkpt lat="49.353302931413054" lon="8.138741981238127">
<ele>143.60000000000002</ele>
<time>2023-05-18T10:11:18Z</time>
</trkpt>
<trkpt lat="49.35331491753459" lon="8.138787997886539">
<ele>143.79999999999995</ele>
<time>2023-05-18T10:11:19Z</time>
</trkpt>
<trkpt lat="49.35333997942507" lon="8.138821944594383">
<ele>143.79999999999995</ele>
<time>2023-05-18T10:11:20Z</time>
</trkpt>
<trkpt lat="49.35335992835462" lon="8.138847928494215">
<ele>143.79999999999995</ele>
<time>2023-05-18T10:11:21Z</time>
</trkpt>
<trkpt lat="49.3533799611032" lon="8.138886988162994">
<ele>143.79999999999995</ele>
<time>2023-05-18T10:11:22Z</time>
</trkpt>
<trkpt lat="49.35340695083141" lon="8.138926969841123">
<ele>143.79999999999995</ele>
<time>2023-05-18T10:11:23Z</time>
</trkpt>
<trkpt lat="49.35343695804477" lon="8.138969969004393">
<ele>143.79999999999995</ele>
<time>2023-05-18T10:11:24Z</time>
</trkpt>
<trkpt lat="49.3534629419446" lon="8.139012968167663">
<ele>143.79999999999995</ele>
<time>2023-05-18T10:11:25Z</time>
</trkpt>
<trkpt lat="49.353474928066134" lon="8.139061918482184">
<ele>143.79999999999995</ele>
<time>2023-05-18T10:11:26Z</time>
</trkpt>
<trkpt lat="49.3534869980067" lon="8.139111958444118">
<ele>143.79999999999995</ele>
<time>2023-05-18T10:11:27Z</time>
</trkpt>
<trkpt lat="49.35348792001605" lon="8.139166943728924">
<ele>143.79999999999995</ele>
<time>2023-05-18T10:11:28Z</time>
</trkpt>
<trkpt lat="49.353497978299856" lon="8.139217989519238">
<ele>143.79999999999995</ele>
<time>2023-05-18T10:11:29Z</time>
</trkpt>
<trkpt lat="49.35350996442139" lon="8.13926693983376">
<ele>143.79999999999995</ele>
<time>2023-05-18T10:11:30Z</time>
</trkpt>
<trkpt lat="49.353519938886166" lon="8.139311950653791">
<ele>143.79999999999995</ele>
<time>2023-05-18T10:11:31Z</time>
</trkpt>
<trkpt lat="49.35352798551321" lon="8.139357967302203">
<ele>144</ele>
<time>2023-05-18T10:11:32Z</time>
</trkpt>
<trkpt lat="49.3535319250077" lon="8.139409935101867">
<ele>144</ele>
<time>2023-05-18T10:11:33Z</time>
</trkpt>
<trkpt lat="49.3535319250077" lon="8.139466932043433">
<ele>144</ele>
<time>2023-05-18T10:11:34Z</time>
</trkpt>
<trkpt lat="49.35353494249284" lon="8.139517977833748">
<ele>144</ele>
<time>2023-05-18T10:11:35Z</time>
</trkpt>
<trkpt lat="49.3535319250077" lon="8.13956793397665">
<ele>144</ele>
<time>2023-05-18T10:11:36Z</time>
</trkpt>
<trkpt lat="49.3535319250077" lon="8.139617973938584">
<ele>144.20000000000005</ele>
<time>2023-05-18T10:11:37Z</time>
</trkpt>
<trkpt lat="49.35353293083608" lon="8.139664996415377">
<ele>144.20000000000005</ele>
<time>2023-05-18T10:11:38Z</time>
</trkpt>
<trkpt lat="49.353536954149604" lon="8.139711935073137">
<ele>144.20000000000005</ele>
<time>2023-05-18T10:11:39Z</time>
</trkpt>
<trkpt lat="49.35354198329151" lon="8.139754934236407">
<ele>144.20000000000005</ele>
<time>2023-05-18T10:11:40Z</time>
</trkpt>
<trkpt lat="49.35354793444276" lon="8.139794999733567">
<ele>144.20000000000005</ele>
<time>2023-05-18T10:11:41Z</time>
</trkpt>
<trkpt lat="49.35355296358466" lon="8.139832969754934">
<ele>144.20000000000005</ele>
<time>2023-05-18T10:11:42Z</time>
</trkpt>
<trkpt lat="49.353559920564294" lon="8.139872951433063">
<ele>144.20000000000005</ele>
<time>2023-05-18T10:11:43Z</time>
</trkpt>
<trkpt lat="49.3535699788481" lon="8.13991293311119">
<ele>144.20000000000005</ele>
<time>2023-05-18T10:11:44Z</time>
</trkpt>
<trkpt lat="49.353581964969635" lon="8.13995199277997">
<ele>144.20000000000005</ele>
<time>2023-05-18T10:11:45Z</time>
</trkpt>
<trkpt lat="49.35358699411154" lon="8.139986945316195">
<ele>144.20000000000005</ele>
<time>2023-05-18T10:11:46Z</time>
</trkpt>
<trkpt lat="49.35359294526279" lon="8.140021981671453">
<ele>144.20000000000005</ele>
<time>2023-05-18T10:11:47Z</time>
</trkpt>
<trkpt lat="49.35358498245478" lon="8.140049977228045">
<ele>144.20000000000005</ele>
<time>2023-05-18T10:11:48Z</time>
</trkpt>
<trkpt lat="49.35358498245478" lon="8.14008291810751">
<ele>144.20000000000005</ele>
<time>2023-05-18T10:11:49Z</time>
</trkpt>
<trkpt lat="49.353579953312874" lon="8.140109991654754">
<ele>144.20000000000005</ele>
<time>2023-05-18T10:11:50Z</time>
</trkpt>
<trkpt lat="49.3535699788481" lon="8.140131952241063">
<ele>144.20000000000005</ele>
<time>2023-05-18T10:11:51Z</time>
</trkpt>
<trkpt lat="49.35356696136296" lon="8.140162965282798">
<ele>144.20000000000005</ele>
<time>2023-05-18T10:11:52Z</time>
</trkpt>
<trkpt lat="49.35355497524142" lon="8.140186937525868">
<ele>144.20000000000005</ele>
<time>2023-05-18T10:11:53Z</time>
</trkpt>
<trkpt lat="49.35354994609952" lon="8.140207976102829">
<ele>144.20000000000005</ele>
<time>2023-05-18T10:11:54Z</time>
</trkpt>
<trkpt lat="49.35354692861438" lon="8.140224991366267">
<ele>144.20000000000005</ele>
<time>2023-05-18T10:11:55Z</time>
</trkpt>
<trkpt lat="49.35354692861438" lon="8.1402319483459">
<ele>144.20000000000005</ele>
<time>2023-05-18T10:11:56Z</time>
</trkpt>
<trkpt lat="49.35354491695762" lon="8.1402319483459">
<ele>144.20000000000005</ele>
<time>2023-05-18T10:11:57Z</time>
</trkpt>
<trkpt lat="49.35354298911989" lon="8.140227925032377">
<ele>144.20000000000005</ele>
<time>2023-05-18T10:11:58Z</time>
</trkpt>
<trkpt lat="49.353536954149604" lon="8.140297997742891">
<ele>144.20000000000005</ele>
<time>2023-05-18T10:11:58Z</time>
</trkpt>
<trkpt lat="49.353537959977984" lon="8.1403199583292">
<ele>144.20000000000005</ele>
<time>2023-05-18T10:11:59Z</time>
</trkpt>
<trkpt lat="49.353537959977984" lon="8.14034191891551">
<ele>144.20000000000005</ele>
<time>2023-05-18T10:12:00Z</time>
</trkpt>
<trkpt lat="49.353536954149604" lon="8.140369998291135">
<ele>144.20000000000005</ele>
<time>2023-05-18T10:12:01Z</time>
</trkpt>
<trkpt lat="49.3535319250077" lon="8.140409979969263">
<ele>144.20000000000005</ele>
<time>2023-05-18T10:12:02Z</time>
</trkpt>
<trkpt lat="49.35352999716997" lon="8.140449961647391">
<ele>144.20000000000005</ele>
<time>2023-05-18T10:12:03Z</time>
</trkpt>
<trkpt lat="49.35352798551321" lon="8.14048994332552">
<ele>144.20000000000005</ele>
<time>2023-05-18T10:12:04Z</time>
</trkpt>
<trkpt lat="49.35353293083608" lon="8.140529925003648">
<ele>144.20000000000005</ele>
<time>2023-05-18T10:12:05Z</time>
</trkpt>
<trkpt lat="49.35354298911989" lon="8.140564961358905">
<ele>144.20000000000005</ele>
<time>2023-05-18T10:12:06Z</time>
</trkpt>
<trkpt lat="49.353557992726564" lon="8.14059698022902">
<ele>144.20000000000005</ele>
<time>2023-05-18T10:12:07Z</time>
</trkpt>
<trkpt lat="49.35357299633324" lon="8.140617934986949">
<ele>144.20000000000005</ele>
<time>2023-05-18T10:12:08Z</time>
</trkpt>
<trkpt lat="49.35358992777765" lon="8.140631932765245">
<ele>144.20000000000005</ele>
<time>2023-05-18T10:12:09Z</time>
</trkpt>
<trkpt lat="49.35360794886947" lon="8.140641991049051">
<ele>144.20000000000005</ele>
<time>2023-05-18T10:12:10Z</time>
</trkpt>
<trkpt lat="49.35362999327481" lon="8.140651965513825">
<ele>144.20000000000005</ele>
<time>2023-05-18T10:12:11Z</time>
</trkpt>
<trkpt lat="49.3536579888314" lon="8.140659928321838">
<ele>144.20000000000005</ele>
<time>2023-05-18T10:12:12Z</time>
</trkpt>
<trkpt lat="49.353689923882484" lon="8.140667974948883">
<ele>144.20000000000005</ele>
<time>2023-05-18T10:12:13Z</time>
</trkpt>
<trkpt lat="49.3537219427526" lon="8.140674931928515">
<ele>144.20000000000005</ele>
<time>2023-05-18T10:12:14Z</time>
</trkpt>
<trkpt lat="49.353752955794334" lon="8.140676943585277">
<ele>144.20000000000005</ele>
<time>2023-05-18T10:12:15Z</time>
</trkpt>
<trkpt lat="49.35378497466445" lon="8.140677949413657">
<ele>144.20000000000005</ele>
<time>2023-05-18T10:12:16Z</time>
</trkpt>
<trkpt lat="49.353817999362946" lon="8.14068297855556">
<ele>144.20000000000005</ele>
<time>2023-05-18T10:12:17Z</time>
</trkpt>
<trkpt lat="49.35384993441403" lon="8.140687923878431">
<ele>144.20000000000005</ele>
<time>2023-05-18T10:12:18Z</time>
</trkpt>
<trkpt lat="49.353882959112525" lon="8.140692953020334">
<ele>144.39999999999998</ele>
<time>2023-05-18T10:12:19Z</time>
</trkpt>
<trkpt lat="49.3539169896394" lon="8.140701921656728">
<ele>144.39999999999998</ele>
<time>2023-05-18T10:12:20Z</time>
</trkpt>
<trkpt lat="49.353947918862104" lon="8.14070695079863">
<ele>144.39999999999998</ele>
<time>2023-05-18T10:12:21Z</time>
</trkpt>
<trkpt lat="49.35398295521736" lon="8.140714997425675">
<ele>144.39999999999998</ele>
<time>2023-05-18T10:12:22Z</time>
</trkpt>
<trkpt lat="49.35401698574424" lon="8.140721954405308">
<ele>144.39999999999998</ele>
<time>2023-05-18T10:12:23Z</time>
</trkpt>
<trkpt lat="49.35404799878597" lon="8.14072698354721">
<ele>144.39999999999998</ele>
<time>2023-05-18T10:12:24Z</time>
</trkpt>
<trkpt lat="49.35408194549382" lon="8.140734946355224">
<ele>144.39999999999998</ele>
<time>2023-05-18T10:12:25Z</time>
</trkpt>
<trkpt lat="49.354116981849074" lon="8.140739975497127">
<ele>144.39999999999998</ele>
<time>2023-05-18T10:12:26Z</time>
</trkpt>
<trkpt lat="49.3541519343853" lon="8.14074793830514">
<ele>144.60000000000002</ele>
<time>2023-05-18T10:12:27Z</time>
</trkpt>
<trkpt lat="49.35418697074056" lon="8.140756990760565">
<ele>144.60000000000002</ele>
<time>2023-05-18T10:12:28Z</time>
</trkpt>
<trkpt lat="49.354224940761924" lon="8.140766965225339">
<ele>144.60000000000002</ele>
<time>2023-05-18T10:12:29Z</time>
</trkpt>
<trkpt lat="49.35425997711718" lon="8.140776939690113">
<ele>144.60000000000002</ele>
<time>2023-05-18T10:12:30Z</time>
</trkpt>
<trkpt lat="49.354294929653406" lon="8.140786997973919">
<ele>144.60000000000002</ele>
<time>2023-05-18T10:12:31Z</time>
</trkpt>
<trkpt lat="49.354334995150566" lon="8.140797978267074">
<ele>144.60000000000002</ele>
<time>2023-05-18T10:12:32Z</time>
</trkpt>
<trkpt lat="49.35436994768679" lon="8.140807952731848">
<ele>144.60000000000002</ele>
<time>2023-05-18T10:12:33Z</time>
</trkpt>
<trkpt lat="49.35440297238529" lon="8.140821950510144">
<ele>144.60000000000002</ele>
<time>2023-05-18T10:12:34Z</time>
</trkpt>
<trkpt lat="49.35443792492151" lon="8.140832930803299">
<ele>144.60000000000002</ele>
<time>2023-05-18T10:12:35Z</time>
</trkpt>
<trkpt lat="49.3544799182564" lon="8.140842989087105">
<ele>144.60000000000002</ele>
<time>2023-05-18T10:12:36Z</time>
</trkpt>
<trkpt lat="49.35451696626842" lon="8.140856986865401">
<ele>144.60000000000002</ele>
<time>2023-05-18T10:12:37Z</time>
</trkpt>
<trkpt lat="49.35455493628979" lon="8.140867967158556">
<ele>144.60000000000002</ele>
<time>2023-05-18T10:12:38Z</time>
</trkpt>
<trkpt lat="49.354594917967916" lon="8.14087794162333">
<ele>144.60000000000002</ele>
<time>2023-05-18T10:12:39Z</time>
</trkpt>
<trkpt lat="49.354634983465075" lon="8.140881964936852">
<ele>144.60000000000002</ele>
<time>2023-05-18T10:12:40Z</time>
</trkpt>
<trkpt lat="49.354676976799965" lon="8.140886994078755">
<ele>144.60000000000002</ele>
<time>2023-05-18T10:12:41Z</time>
</trkpt>
<trkpt lat="49.35471494682133" lon="8.140904931351542">
<ele>144.79999999999995</ele>
<time>2023-05-18T10:12:42Z</time>
</trkpt>
<trkpt lat="49.35474998317659" lon="8.14091993495822">
<ele>144.79999999999995</ele>
<time>2023-05-18T10:12:43Z</time>
</trkpt>
<trkpt lat="49.35478292405605" lon="8.140934938564897">
<ele>145</ele>
<time>2023-05-18T10:12:44Z</time>
</trkpt>
<trkpt lat="49.35481695458293" lon="8.140946924686432">
<ele>145</ele>
<time>2023-05-18T10:12:45Z</time>
</trkpt>
<trkpt lat="49.354847967624664" lon="8.140956982970238">
<ele>145.20000000000005</ele>
<time>2023-05-18T10:12:46Z</time>
</trkpt>
<trkpt lat="49.35488292016089" lon="8.140959916636348">
<ele>145.20000000000005</ele>
<time>2023-05-18T10:12:47Z</time>
</trkpt>
<trkpt lat="49.354914939031005" lon="8.140971986576915">
<ele>145.20000000000005</ele>
<time>2023-05-18T10:12:48Z</time>
</trkpt>
<trkpt lat="49.35495198704302" lon="8.140981961041689">
<ele>145.39999999999998</ele>
<time>2023-05-18T10:12:49Z</time>
</trkpt>
<trkpt lat="49.35498693957925" lon="8.140987996011972">
<ele>145.39999999999998</ele>
<time>2023-05-18T10:12:50Z</time>
</trkpt>
<trkpt lat="49.355022981762886" lon="8.140992941334844">
<ele>145.60000000000002</ele>
<time>2023-05-18T10:12:51Z</time>
</trkpt>
<trkpt lat="49.35505994595587" lon="8.140997970476747">
<ele>145.60000000000002</ele>
<time>2023-05-18T10:12:52Z</time>
</trkpt>
<trkpt lat="49.35509799979627" lon="8.141001993790269">
<ele>145.79999999999995</ele>
<time>2023-05-18T10:12:53Z</time>
</trkpt>
<trkpt lat="49.3551379814744" lon="8.14100299961865">
<ele>145.79999999999995</ele>
<time>2023-05-18T10:12:54Z</time>
</trkpt>
<trkpt lat="49.35517997480929" lon="8.141004927456379">
<ele>146</ele>
<time>2023-05-18T10:12:55Z</time>
</trkpt>
<trkpt lat="49.35522297397256" lon="8.14100693911314">
<ele>146</ele>
<time>2023-05-18T10:12:56Z</time>
</trkpt>
<trkpt lat="49.35526798479259" lon="8.141009956598282">
<ele>146.20000000000005</ele>
<time>2023-05-18T10:12:57Z</time>
</trkpt>
<trkpt lat="49.35531794093549" lon="8.141011968255043">
<ele>146.39999999999998</ele>
<time>2023-05-18T10:12:58Z</time>
</trkpt>
<trkpt lat="49.35536999255419" lon="8.14100794494152">
<ele>146.39999999999998</ele>
<time>2023-05-18T10:12:59Z</time>
</trkpt>
<trkpt lat="49.35541491955519" lon="8.140991935506463">
<ele>146.60000000000002</ele>
<time>2023-05-18T10:13:00Z</time>
</trkpt>
<trkpt lat="49.355449955910444" lon="8.140954971313477">
<ele>146.60000000000002</ele>
<time>2023-05-18T10:13:01Z</time>
</trkpt>
<trkpt lat="49.355469988659024" lon="8.140902919694781">
<ele>146.79999999999995</ele>
<time>2023-05-18T10:13:02Z</time>
</trkpt>
<trkpt lat="49.35548692010343" lon="8.140837959945202">
<ele>146.79999999999995</ele>
<time>2023-05-18T10:13:03Z</time>
</trkpt>
<trkpt lat="49.35549697838724" lon="8.14076998271048">
<ele>147</ele>
<time>2023-05-18T10:13:04Z</time>
</trkpt>
<trkpt lat="49.35550997033715" lon="8.140696976333857">
<ele>147</ele>
<time>2023-05-18T10:13:05Z</time>
</trkpt>
<trkpt lat="49.35552296228707" lon="8.140617934986949">
<ele>147.20000000000005</ele>
<time>2023-05-18T10:13:06Z</time>
</trkpt>
<trkpt lat="49.35553193092346" lon="8.140544928610325">
<ele>147.20000000000005</ele>
<time>2023-05-18T10:13:07Z</time>
</trkpt>
<trkpt lat="49.355536960065365" lon="8.140469994395971">
<ele>147.20000000000005</ele>
<time>2023-05-18T10:13:08Z</time>
</trkpt>
<trkpt lat="49.35554492287338" lon="8.140396988019347">
<ele>147.20000000000005</ele>
<time>2023-05-18T10:13:09Z</time>
</trkpt>
<trkpt lat="49.35554995201528" lon="8.140322975814342">
<ele>147</ele>
<time>2023-05-18T10:13:10Z</time>
</trkpt>
<trkpt lat="49.355556992813945" lon="8.140244940295815">
<ele>147</ele>
<time>2023-05-18T10:13:11Z</time>
</trkpt>
<trkpt lat="49.3555629439652" lon="8.14016698859632">
<ele>147</ele>
<time>2023-05-18T10:13:12Z</time>
</trkpt>
<trkpt lat="49.35556696727872" lon="8.140089958906174">
<ele>147</ele>
<time>2023-05-18T10:13:13Z</time>
</trkpt>
<trkpt lat="49.35557199642062" lon="8.140012929216027">
<ele>147</ele>
<time>2023-05-18T10:13:14Z</time>
</trkpt>
<trkpt lat="49.35557694174349" lon="8.139934977516532">
<ele>147</ele>
<time>2023-05-18T10:13:15Z</time>
</trkpt>
<trkpt lat="49.355581970885396" lon="8.139859959483147">
<ele>147</ele>
<time>2023-05-18T10:13:16Z</time>
</trkpt>
<trkpt lat="49.35558297671378" lon="8.13977999612689">
<ele>146.79999999999995</ele>
<time>2023-05-18T10:13:17Z</time>
</trkpt>
<trkpt lat="49.35558691620827" lon="8.139701960608363">
<ele>146.79999999999995</ele>
<time>2023-05-18T10:13:18Z</time>
</trkpt>
<trkpt lat="49.35558993369341" lon="8.139624930918217">
<ele>146.79999999999995</ele>
<time>2023-05-18T10:13:19Z</time>
</trkpt>
<trkpt lat="49.355599991977215" lon="8.139551924541593">
<ele>146.79999999999995</ele>
<time>2023-05-18T10:13:20Z</time>
</trkpt>
<trkpt lat="49.355604937300086" lon="8.139474978670478">
<ele>146.79999999999995</ele>
<time>2023-05-18T10:13:21Z</time>
</trkpt>
<trkpt lat="49.35561197809875" lon="8.139401972293854">
<ele>146.60000000000002</ele>
<time>2023-05-18T10:13:22Z</time>
</trkpt>
<trkpt lat="49.35561499558389" lon="8.139324942603707">
<ele>146.60000000000002</ele>
<time>2023-05-18T10:13:23Z</time>
</trkpt>
<trkpt lat="49.35561692342162" lon="8.139249924570322">
<ele>146.60000000000002</ele>
<time>2023-05-18T10:13:24Z</time>
</trkpt>
<trkpt lat="49.35561499558389" lon="8.139174990355968">
<ele>146.60000000000002</ele>
<time>2023-05-18T10:13:25Z</time>
</trkpt>
<trkpt lat="49.355621952563524" lon="8.13909494318068">
<ele>146.60000000000002</ele>
<time>2023-05-18T10:13:26Z</time>
</trkpt>
<trkpt lat="49.355624970048666" lon="8.139016991481185">
<ele>146.39999999999998</ele>
<time>2023-05-18T10:13:27Z</time>
</trkpt>
<trkpt lat="49.3556319270283" lon="8.1389419734478">
<ele>146.39999999999998</ele>
<time>2023-05-18T10:13:28Z</time>
</trkpt>
<trkpt lat="49.35563796199858" lon="8.138866955414414">
<ele>146.39999999999998</ele>
<time>2023-05-18T10:13:29Z</time>
</trkpt>
<trkpt lat="49.35563997365534" lon="8.13879193738103">
<ele>146.39999999999998</ele>
<time>2023-05-18T10:13:30Z</time>
</trkpt>
<trkpt lat="49.355644918978214" lon="8.138716919347644">
<ele>146.20000000000005</ele>
<time>2023-05-18T10:13:31Z</time>
</trkpt>
<trkpt lat="49.35564994812012" lon="8.1386449187994">
<ele>146.20000000000005</ele>
<time>2023-05-18T10:13:32Z</time>
</trkpt>
<trkpt lat="49.35565497726202" lon="8.138572918251157">
<ele>146.20000000000005</ele>
<time>2023-05-18T10:13:33Z</time>
</trkpt>
<trkpt lat="49.35565799474716" lon="8.138502929359674">
<ele>146.20000000000005</ele>
<time>2023-05-18T10:13:34Z</time>
</trkpt>
<trkpt lat="49.35565799474716" lon="8.13842992298305">
<ele>146.20000000000005</ele>
<time>2023-05-18T10:13:35Z</time>
</trkpt>
<trkpt lat="49.35565497726202" lon="8.138351971283555">
<ele>146</ele>
<time>2023-05-18T10:13:36Z</time>
</trkpt>
<trkpt lat="49.35565698891878" lon="8.138272929936647">
<ele>146</ele>
<time>2023-05-18T10:13:37Z</time>
</trkpt>
<trkpt lat="49.35565698891878" lon="8.138194978237152">
<ele>146</ele>
<time>2023-05-18T10:13:38Z</time>
</trkpt>
<trkpt lat="49.35565799474716" lon="8.138114931061864">
<ele>146</ele>
<time>2023-05-18T10:13:39Z</time>
</trkpt>
<trkpt lat="49.35565799474716" lon="8.138034967705607">
<ele>146</ele>
<time>2023-05-18T10:13:40Z</time>
</trkpt>
<trkpt lat="49.35565992258489" lon="8.137966990470886">
<ele>146</ele>
<time>2023-05-18T10:13:41Z</time>
</trkpt>
<trkpt lat="49.35565799474716" lon="8.137897923588753">
<ele>146</ele>
<time>2023-05-18T10:13:42Z</time>
</trkpt>
<trkpt lat="49.35565195977688" lon="8.13782793469727">
<ele>145.79999999999995</ele>
<time>2023-05-18T10:13:43Z</time>
</trkpt>
<trkpt lat="49.355641985312104" lon="8.137752916663885">
<ele>145.79999999999995</ele>
<time>2023-05-18T10:13:44Z</time>
</trkpt>
<trkpt lat="49.35562798753381" lon="8.137671947479248">
<ele>145.79999999999995</ele>
<time>2023-05-18T10:13:45Z</time>
</trkpt>
<trkpt lat="49.35561298392713" lon="8.137592989951372">
<ele>145.79999999999995</ele>
<time>2023-05-18T10:13:46Z</time>
</trkpt>
<trkpt lat="49.355597980320454" lon="8.137514954432845">
<ele>145.79999999999995</ele>
<time>2023-05-18T10:13:47Z</time>
</trkpt>
<trkpt lat="49.35559194535017" lon="8.137432979419827">
<ele>145.79999999999995</ele>
<time>2023-05-18T10:13:48Z</time>
</trkpt>
<trkpt lat="49.355581970885396" lon="8.137347986921668">
<ele>145.79999999999995</ele>
<time>2023-05-18T10:13:49Z</time>
</trkpt>
<trkpt lat="49.35557493008673" lon="8.137262994423509">
<ele>145.79999999999995</ele>
<time>2023-05-18T10:13:50Z</time>
</trkpt>
<trkpt lat="49.35557493008673" lon="8.137177918106318">
<ele>145.79999999999995</ele>
<time>2023-05-18T10:13:51Z</time>
</trkpt>
<trkpt lat="49.35557694174349" lon="8.13709694892168">
<ele>145.79999999999995</ele>
<time>2023-05-18T10:13:52Z</time>
</trkpt>
<trkpt lat="49.355577947571874" lon="8.137011956423521">
<ele>145.79999999999995</ele>
<time>2023-05-18T10:13:53Z</time>
</trkpt>
<trkpt lat="49.355577947571874" lon="8.136929981410503">
<ele>145.79999999999995</ele>
<time>2023-05-18T10:13:54Z</time>
</trkpt>
<trkpt lat="49.355577947571874" lon="8.136847922578454">
<ele>145.79999999999995</ele>
<time>2023-05-18T10:13:55Z</time>
</trkpt>
<trkpt lat="49.355581970885396" lon="8.136766953393817">
<ele>145.79999999999995</ele>
<time>2023-05-18T10:13:56Z</time>
</trkpt>
<trkpt lat="49.355581970885396" lon="8.136681960895658">
<ele>145.60000000000002</ele>
<time>2023-05-18T10:13:57Z</time>
</trkpt>
<trkpt lat="49.355579959228635" lon="8.136596968397498">
<ele>145.60000000000002</ele>
<time>2023-05-18T10:13:58Z</time>
</trkpt>
<trkpt lat="49.355581970885396" lon="8.13651298172772">
<ele>145.60000000000002</ele>
<time>2023-05-18T10:13:59Z</time>
</trkpt>
<trkpt lat="49.35558297671378" lon="8.13642991706729">
<ele>145.60000000000002</ele>
<time>2023-05-18T10:14:00Z</time>
</trkpt>
<trkpt lat="49.35556998476386" lon="8.136361939832568">
<ele>145.60000000000002</ele>
<time>2023-05-18T10:14:01Z</time>
</trkpt>
<trkpt lat="49.3555629439652" lon="8.136294968426228">
<ele>145.60000000000002</ele>
<time>2023-05-18T10:14:02Z</time>
</trkpt>
<trkpt lat="49.355559926480055" lon="8.136227997019887">
<ele>145.60000000000002</ele>
<time>2023-05-18T10:14:03Z</time>
</trkpt>
<trkpt lat="49.355556992813945" lon="8.13614996150136">
<ele>145.60000000000002</ele>
<time>2023-05-18T10:14:04Z</time>
</trkpt>
<trkpt lat="49.35555196367204" lon="8.136067986488342">
<ele>145.60000000000002</ele>
<time>2023-05-18T10:14:05Z</time>
</trkpt>
<trkpt lat="49.35555296950042" lon="8.135984921827912">
<ele>145.60000000000002</ele>
<time>2023-05-18T10:14:06Z</time>
</trkpt>
<trkpt lat="49.35555296950042" lon="8.135899929329753">
<ele>145.60000000000002</ele>
<time>2023-05-18T10:14:07Z</time>
</trkpt>
<trkpt lat="49.355557998642325" lon="8.135822983458638">
<ele>145.60000000000002</ele>
<time>2023-05-18T10:14:08Z</time>
</trkpt>
<trkpt lat="49.355556992813945" lon="8.135747965425253">
<ele>145.60000000000002</ele>
<time>2023-05-18T10:14:09Z</time>
</trkpt>
<trkpt lat="49.35554995201528" lon="8.135679988190532">
<ele>145.60000000000002</ele>
<time>2023-05-18T10:14:10Z</time>
</trkpt>
<trkpt lat="49.35553997755051" lon="8.135621985420585">
<ele>145.60000000000002</ele>
<time>2023-05-18T10:14:11Z</time>
</trkpt>
<trkpt lat="49.355517933145165" lon="8.135567922145128">
<ele>145.60000000000002</ele>
<time>2023-05-18T10:14:12Z</time>
</trkpt>
<trkpt lat="49.355491949245334" lon="8.135507991537452">
<ele>145.60000000000002</ele>
<time>2023-05-18T10:14:13Z</time>
</trkpt>
<trkpt lat="49.35546194203198" lon="8.135452922433615">
<ele>145.60000000000002</ele>
<time>2023-05-18T10:14:14Z</time>
</trkpt>
<trkpt lat="49.355426989495754" lon="8.135401960462332">
<ele>145.60000000000002</ele>
<time>2023-05-18T10:14:15Z</time>
</trkpt>
<trkpt lat="49.3553919531405" lon="8.135359967127442">
<ele>145.60000000000002</ele>
<time>2023-05-18T10:14:16Z</time>
</trkpt>
<trkpt lat="49.35535498894751" lon="8.135321997106075">
<ele>145.60000000000002</ele>
<time>2023-05-18T10:14:17Z</time>
</trkpt>
<trkpt lat="49.35531693510711" lon="8.135286960750818">
<ele>145.60000000000002</ele>
<time>2023-05-18T10:14:18Z</time>
</trkpt>
<trkpt lat="49.355276953428984" lon="8.135256953537464">
<ele>145.60000000000002</ele>
<time>2023-05-18T10:14:19Z</time>
</trkpt>
<trkpt lat="49.355234960094094" lon="8.13522795215249">
<ele>145.60000000000002</ele>
<time>2023-05-18T10:14:20Z</time>
</trkpt>
<trkpt lat="49.355191960930824" lon="8.135206997394562">
<ele>145.60000000000002</ele>
<time>2023-05-18T10:14:21Z</time>
</trkpt>
<trkpt lat="49.355147955939174" lon="8.135186964645982">
<ele>145.60000000000002</ele>
<time>2023-05-18T10:14:22Z</time>
</trkpt>
<trkpt lat="49.355104956775904" lon="8.135167937725782">
<ele>145.60000000000002</ele>
<time>2023-05-18T10:14:23Z</time>
</trkpt>
<trkpt lat="49.35505793429911" lon="8.135154945775867">
<ele>145.60000000000002</ele>
<time>2023-05-18T10:14:24Z</time>
</trkpt>
<trkpt lat="49.35500998981297" lon="8.135142959654331">
<ele>145.60000000000002</ele>
<time>2023-05-18T10:14:25Z</time>
</trkpt>
<trkpt lat="49.35496296733618" lon="8.135131979361176">
<ele>145.60000000000002</ele>
<time>2023-05-18T10:14:26Z</time>
</trkpt>
<trkpt lat="49.354912927374244" lon="8.135122926905751">
<ele>145.60000000000002</ele>
<time>2023-05-18T10:14:27Z</time>
</trkpt>
<trkpt lat="49.3548649828881" lon="8.13511798158288">
<ele>145.60000000000002</ele>
<time>2023-05-18T10:14:28Z</time>
</trkpt>
<trkpt lat="49.35481796041131" lon="8.135114964097738">
<ele>145.60000000000002</ele>
<time>2023-05-18T10:14:29Z</time>
</trkpt>
<trkpt lat="49.3547719437629" lon="8.135109934955835">
<ele>145.60000000000002</ele>
<time>2023-05-18T10:14:30Z</time>
</trkpt>
<trkpt lat="49.35472793877125" lon="8.135104989632964">
<ele>145.60000000000002</ele>
<time>2023-05-18T10:14:31Z</time>
</trkpt>
<trkpt lat="49.35468493960798" lon="8.135101972147822">
<ele>145.60000000000002</ele>
<time>2023-05-18T10:14:32Z</time>
</trkpt>
<trkpt lat="49.35464194044471" lon="8.1350979488343">
<ele>145.60000000000002</ele>
<time>2023-05-18T10:14:33Z</time>
</trkpt>
<trkpt lat="49.354594917967916" lon="8.13509694300592">
<ele>145.60000000000002</ele>
<time>2023-05-18T10:14:34Z</time>
</trkpt>
<trkpt lat="49.35454194433987" lon="8.135099960491061">
<ele>145.60000000000002</ele>
<time>2023-05-18T10:14:35Z</time>
</trkpt>
<trkpt lat="49.35449693351984" lon="8.135091997683048">
<ele>145.60000000000002</ele>
<time>2023-05-18T10:14:36Z</time>
</trkpt>
<trkpt lat="49.35445192269981" lon="8.135077999904752">
<ele>145.60000000000002</ele>
<time>2023-05-18T10:14:37Z</time>
</trkpt>
<trkpt lat="49.35440297238529" lon="8.135061990469694">
<ele>145.60000000000002</ele>
<time>2023-05-18T10:14:38Z</time>
</trkpt>
<trkpt lat="49.35435997322202" lon="8.135037934407592">
<ele>145.60000000000002</ele>
<time>2023-05-18T10:14:39Z</time>
</trkpt>
<trkpt lat="49.35430993326008" lon="8.13501295633614">
<ele>145.60000000000002</ele>
<time>2023-05-18T10:14:40Z</time>
</trkpt>
<trkpt lat="49.35426299460232" lon="8.13499292358756">
<ele>145.60000000000002</ele>
<time>2023-05-18T10:14:41Z</time>
</trkpt>
<trkpt lat="49.35422292910516" lon="8.13496794551611">
<ele>145.60000000000002</ele>
<time>2023-05-18T10:14:42Z</time>
</trkpt>
<trkpt lat="49.354182947427034" lon="8.134934920817614">
<ele>145.60000000000002</ele>
<time>2023-05-18T10:14:43Z</time>
</trkpt>
<trkpt lat="49.35414799489081" lon="8.13490197993815">
<ele>145.60000000000002</ele>
<time>2023-05-18T10:14:44Z</time>
</trkpt>
<trkpt lat="49.35410994105041" lon="8.134866943582892">
<ele>145.60000000000002</ele>
<time>2023-05-18T10:14:45Z</time>
</trkpt>
<trkpt lat="49.354074988514185" lon="8.134829979389906">
<ele>145.60000000000002</ele>
<time>2023-05-18T10:14:46Z</time>
</trkpt>
<trkpt lat="49.35404699295759" lon="8.134787986055017">
<ele>145.60000000000002</ele>
<time>2023-05-18T10:14:47Z</time>
</trkpt>
<trkpt lat="49.35401698574424" lon="8.134746998548508">
<ele>145.60000000000002</ele>
<time>2023-05-18T10:14:48Z</time>
</trkpt>
<trkpt lat="49.35398194938898" lon="8.134696958586574">
<ele>145.60000000000002</ele>
<time>2023-05-18T10:14:49Z</time>
</trkpt>
<trkpt lat="49.353946996852756" lon="8.134632920846343">
<ele>145.60000000000002</ele>
<time>2023-05-18T10:14:50Z</time>
</trkpt>
<trkpt lat="49.35391296632588" lon="8.13455798663199">
<ele>145.60000000000002</ele>
<time>2023-05-18T10:14:51Z</time>
</trkpt>
<trkpt lat="49.35387792997062" lon="8.134482968598604">
<ele>145.60000000000002</ele>
<time>2023-05-18T10:14:52Z</time>
</trkpt>
<trkpt lat="49.35384691692889" lon="8.134412979707122">
<ele>145.60000000000002</ele>
<time>2023-05-18T10:14:53Z</time>
</trkpt>
<trkpt lat="49.353819927200675" lon="8.134339973330498">
<ele>145.60000000000002</ele>
<time>2023-05-18T10:14:54Z</time>
</trkpt>
<trkpt lat="49.353794949129224" lon="8.134262943640351">
<ele>145.60000000000002</ele>
<time>2023-05-18T10:14:55Z</time>
</trkpt>
<trkpt lat="49.353774916380644" lon="8.134186919778585">
<ele>145.60000000000002</ele>
<time>2023-05-18T10:14:56Z</time>
</trkpt>
<trkpt lat="49.353754967451096" lon="8.134117936715484">
<ele>145.60000000000002</ele>
<time>2023-05-18T10:14:57Z</time>
</trkpt>
<trkpt lat="49.35374298132956" lon="8.13404493033886">
<ele>145.60000000000002</ele>
<time>2023-05-18T10:14:58Z</time>
</trkpt>
<trkpt lat="49.353732923045754" lon="8.133972929790616">
<ele>145.60000000000002</ele>
<time>2023-05-18T10:14:59Z</time>
</trkpt>
<trkpt lat="49.35372294858098" lon="8.133901935070753">
<ele>145.60000000000002</ele>
<time>2023-05-18T10:15:00Z</time>
</trkpt>
<trkpt lat="49.3537079449743" lon="8.13382993452251">
<ele>145.60000000000002</ele>
<time>2023-05-18T10:15:01Z</time>
</trkpt>
<trkpt lat="49.353692941367626" lon="8.133757933974266">
<ele>145.60000000000002</ele>
<time>2023-05-18T10:15:02Z</time>
</trkpt>
<trkpt lat="49.35367793776095" lon="8.133687945082784">
<ele>145.60000000000002</ele>
<time>2023-05-18T10:15:03Z</time>
</trkpt>
<trkpt lat="49.35366293415427" lon="8.13361493870616">
<ele>145.60000000000002</ele>
<time>2023-05-18T10:15:04Z</time>
</trkpt>
<trkpt lat="49.353649942204356" lon="8.133539920672774">
<ele>145.60000000000002</ele>
<time>2023-05-18T10:15:05Z</time>
</trkpt>
<trkpt lat="49.35363695025444" lon="8.133461968973279">
<ele>145.60000000000002</ele>
<time>2023-05-18T10:15:06Z</time>
</trkpt>
<trkpt lat="49.35361691750586" lon="8.133382927626371">
<ele>145.60000000000002</ele>
<time>2023-05-18T10:15:07Z</time>
</trkpt>
<trkpt lat="49.35359797440469" lon="8.133309921249747">
<ele>145.60000000000002</ele>
<time>2023-05-18T10:15:08Z</time>
</trkpt>
<trkpt lat="49.35357794165611" lon="8.133242949843407">
<ele>145.60000000000002</ele>
<time>2023-05-18T10:15:09Z</time>
</trkpt>
<trkpt lat="49.353561932221055" lon="8.133169943466783">
<ele>145.60000000000002</ele>
<time>2023-05-18T10:15:10Z</time>
</trkpt>
<trkpt lat="49.353539971634746" lon="8.133096937090158">
<ele>145.60000000000002</ele>
<time>2023-05-18T10:15:11Z</time>
</trkpt>
<trkpt lat="49.353517927229404" lon="8.133024936541915">
<ele>145.60000000000002</ele>
<time>2023-05-18T10:15:12Z</time>
</trkpt>
<trkpt lat="49.35349294915795" lon="8.132956959307194">
<ele>145.60000000000002</ele>
<time>2023-05-18T10:15:13Z</time>
</trkpt>
<trkpt lat="49.353471994400024" lon="8.132886970415711">
<ele>145.60000000000002</ele>
<time>2023-05-18T10:15:14Z</time>
</trkpt>
<trkpt lat="49.35343997552991" lon="8.132827961817384">
<ele>145.79999999999995</ele>
<time>2023-05-18T10:15:15Z</time>
</trkpt>
<trkpt lat="49.35340292751789" lon="8.132772976532578">
<ele>145.79999999999995</ele>
<time>2023-05-18T10:15:16Z</time>
</trkpt>
<trkpt lat="49.35337794944644" lon="8.132709944620728">
<ele>145.79999999999995</ele>
<time>2023-05-18T10:15:17Z</time>
</trkpt>
<trkpt lat="49.35335791669786" lon="8.132641967386007">
<ele>145.79999999999995</ele>
<time>2023-05-18T10:15:18Z</time>
</trkpt>
<trkpt lat="49.35333293862641" lon="8.132572984322906">
<ele>145.79999999999995</ele>
<time>2023-05-18T10:15:19Z</time>
</trkpt>
<trkpt lat="49.35330997221172" lon="8.132504923269153">
<ele>145.79999999999995</ele>
<time>2023-05-18T10:15:20Z</time>
</trkpt>
<trkpt lat="49.353286921978" lon="8.132436946034431">
<ele>145.79999999999995</ele>
<time>2023-05-18T10:15:21Z</time>
</trkpt>
<trkpt lat="49.353261943906546" lon="8.132364945486188">
<ele>145.79999999999995</ele>
<time>2023-05-18T10:15:22Z</time>
</trkpt>
<trkpt lat="49.35323495417833" lon="8.13230199739337">
<ele>145.79999999999995</ele>
<time>2023-05-18T10:15:23Z</time>
</trkpt>
<trkpt lat="49.35320997610688" lon="8.132232930511236">
<ele>145.79999999999995</ele>
<time>2023-05-18T10:15:24Z</time>
</trkpt>
<trkpt lat="49.35318692587316" lon="8.132166964933276">
<ele>145.79999999999995</ele>
<time>2023-05-18T10:15:25Z</time>
</trkpt>
<trkpt lat="49.35316496528685" lon="8.132099993526936">
<ele>145.79999999999995</ele>
<time>2023-05-18T10:15:26Z</time>
</trkpt>
<trkpt lat="49.35314199887216" lon="8.132034949958324">
<ele>145.79999999999995</ele>
<time>2023-05-18T10:15:27Z</time>
</trkpt>
<trkpt lat="49.35311693698168" lon="8.131967978551984">
<ele>145.79999999999995</ele>
<time>2023-05-18T10:15:28Z</time>
</trkpt>
<trkpt lat="49.35309195891023" lon="8.131899917498231">
<ele>145.79999999999995</ele>
<time>2023-05-18T10:15:29Z</time>
</trkpt>
<trkpt lat="49.35307293199003" lon="8.13183294609189">
<ele>145.79999999999995</ele>
<time>2023-05-18T10:15:30Z</time>
</trkpt>
<trkpt lat="49.35305994004011" lon="8.131757928058505">
<ele>145.79999999999995</ele>
<time>2023-05-18T10:15:31Z</time>
</trkpt>
<trkpt lat="49.35303999111056" lon="8.131682993844151">
<ele>145.79999999999995</ele>
<time>2023-05-18T10:15:32Z</time>
</trkpt>
<trkpt lat="49.35301694087684" lon="8.131607975810766">
<ele>146</ele>
<time>2023-05-18T10:15:33Z</time>
</trkpt>
<trkpt lat="49.35298995114863" lon="8.131532957777381">
<ele>146</ele>
<time>2023-05-18T10:15:34Z</time>
</trkpt>
<trkpt lat="49.352959943935275" lon="8.131461963057518">
<ele>146</ele>
<time>2023-05-18T10:15:35Z</time>
</trkpt>
<trkpt lat="49.35292993672192" lon="8.131389962509274">
<ele>146</ele>
<time>2023-05-18T10:15:36Z</time>
</trkpt>
<trkpt lat="49.35290998779237" lon="8.131317961961031">
<ele>146.20000000000005</ele>
<time>2023-05-18T10:15:37Z</time>
</trkpt>
<trkpt lat="49.352891966700554" lon="8.13124998472631">
<ele>146.20000000000005</ele>
<time>2023-05-18T10:15:38Z</time>
</trkpt>
<trkpt lat="49.35286799445748" lon="8.131179995834827">
<ele>146.20000000000005</ele>
<time>2023-05-18T10:15:39Z</time>
</trkpt>
<trkpt lat="49.3528479617089" lon="8.131117969751358">
<ele>146.20000000000005</ele>
<time>2023-05-18T10:15:40Z</time>
</trkpt>
<trkpt lat="49.35282792896032" lon="8.131052926182747">
<ele>146.20000000000005</ele>
<time>2023-05-18T10:15:41Z</time>
</trkpt>
<trkpt lat="49.352807980030775" lon="8.130982937291265">
<ele>146.20000000000005</ele>
<time>2023-05-18T10:15:42Z</time>
</trkpt>
<trkpt lat="49.352787947282195" lon="8.130916971713305">
<ele>146.39999999999998</ele>
<time>2023-05-18T10:15:43Z</time>
</trkpt>
<trkpt lat="49.352766992524266" lon="8.130852933973074">
<ele>146.39999999999998</ele>
<time>2023-05-18T10:15:44Z</time>
</trkpt>
<trkpt lat="49.352742936462164" lon="8.130784956738353">
<ele>146.39999999999998</ele>
<time>2023-05-18T10:15:45Z</time>
</trkpt>
<trkpt lat="49.352719970047474" lon="8.130724942311645">
<ele>146.39999999999998</ele>
<time>2023-05-18T10:15:46Z</time>
</trkpt>
<trkpt lat="49.35269298031926" lon="8.130659982562065">
<ele>146.39999999999998</ele>
<time>2023-05-18T10:15:47Z</time>
</trkpt>
<trkpt lat="49.352681916207075" lon="8.130597956478596">
<ele>146.39999999999998</ele>
<time>2023-05-18T10:15:48Z</time>
</trkpt>
<trkpt lat="49.352676970884204" lon="8.130534924566746">
<ele>146.39999999999998</ele>
<time>2023-05-18T10:15:49Z</time>
</trkpt>
<trkpt lat="49.35266993008554" lon="8.130471976473927">
<ele>146.39999999999998</ele>
<time>2023-05-18T10:15:50Z</time>
</trkpt>
<trkpt lat="49.35267495922744" lon="8.130421936511993">
<ele>146.39999999999998</ele>
<time>2023-05-18T10:15:51Z</time>
</trkpt>
<trkpt lat="49.35268795117736" lon="8.130381954833865">
<ele>146.39999999999998</ele>
<time>2023-05-18T10:15:52Z</time>
</trkpt>
<trkpt lat="49.35271292924881" lon="8.130347924306989">
<ele>146.39999999999998</ele>
<time>2023-05-18T10:15:53Z</time>
</trkpt>
<trkpt lat="49.352742936462164" lon="8.130317917093635">
<ele>146.39999999999998</ele>
<time>2023-05-18T10:15:54Z</time>
</trkpt>
<trkpt lat="49.35277193784714" lon="8.130289921537042">
<ele>146.39999999999998</ele>
<time>2023-05-18T10:15:55Z</time>
</trkpt>
<trkpt lat="49.35280295088887" lon="8.130256980657578">
<ele>146.39999999999998</ele>
<time>2023-05-18T10:15:56Z</time>
</trkpt>
<trkpt lat="49.35283798724413" lon="8.130227979272604">
<ele>146.60000000000002</ele>
<time>2023-05-18T10:15:57Z</time>
</trkpt>
<trkpt lat="49.352872939780354" lon="8.130201995372772">
<ele>146.60000000000002</ele>
<time>2023-05-18T10:15:58Z</time>
</trkpt>
<trkpt lat="49.35290697030723" lon="8.13017693348229">
<ele>146.60000000000002</ele>
<time>2023-05-18T10:15:59Z</time>
</trkpt>
<trkpt lat="49.352936977520585" lon="8.130152961239219">
<ele>146.60000000000002</ele>
<time>2023-05-18T10:16:00Z</time>
</trkpt>
<trkpt lat="49.352959943935275" lon="8.130116919055581">
<ele>146.60000000000002</ele>
<time>2023-05-18T10:16:01Z</time>
</trkpt>
<trkpt lat="49.35298995114863" lon="8.130087917670608">
<ele>146.60000000000002</ele>
<time>2023-05-18T10:16:02Z</time>
</trkpt>
<trkpt lat="49.35301199555397" lon="8.130071992054582">
<ele>146.60000000000002</ele>
<time>2023-05-18T10:16:03Z</time>
</trkpt>
<trkpt lat="49.35303194448352" lon="8.130056988447905">
<ele>146.60000000000002</ele>
<time>2023-05-18T10:16:04Z</time>
</trkpt>
<trkpt lat="49.3530519772321" lon="8.130032932385802">
<ele>146.60000000000002</ele>
<time>2023-05-18T10:16:05Z</time>
</trkpt>
<trkpt lat="49.353066980838776" lon="8.129994962364435">
<ele>146.60000000000002</ele>
<time>2023-05-18T10:16:06Z</time>
</trkpt>
<trkpt lat="49.35308299027383" lon="8.129947939887643">
<ele>146.60000000000002</ele>
<time>2023-05-18T10:16:07Z</time>
</trkpt>
<trkpt lat="49.353087935596704" lon="8.12989798374474">
<ele>146.39999999999998</ele>
<time>2023-05-18T10:16:08Z</time>
</trkpt>
<trkpt lat="49.35307695530355" lon="8.129841992631555">
<ele>146.39999999999998</ele>
<time>2023-05-18T10:16:09Z</time>
</trkpt>
<trkpt lat="49.35307192616165" lon="8.129787929356098">
<ele>146.39999999999998</ele>
<time>2023-05-18T10:16:10Z</time>
</trkpt>
<trkpt lat="49.35305994004011" lon="8.129726992920041">
<ele>146.39999999999998</ele>
<time>2023-05-18T10:16:11Z</time>
</trkpt>
<trkpt lat="49.35305298306048" lon="8.129659937694669">
<ele>146.39999999999998</ele>
<time>2023-05-18T10:16:12Z</time>
</trkpt>
<trkpt lat="49.35304292477667" lon="8.12959698960185">
<ele>146.39999999999998</ele>
<time>2023-05-18T10:16:13Z</time>
</trkpt>
<trkpt lat="49.35303496196866" lon="8.12953194603324">
<ele>146.39999999999998</ele>
<time>2023-05-18T10:16:14Z</time>
</trkpt>
<trkpt lat="49.35302699916065" lon="8.12946799211204">
<ele>146.39999999999998</ele>
<time>2023-05-18T10:16:15Z</time>
</trkpt>
<trkpt lat="49.35301995836198" lon="8.12940294854343">
<ele>146.39999999999998</ele>
<time>2023-05-18T10:16:16Z</time>
</trkpt>
<trkpt lat="49.35301199555397" lon="8.129334971308708">
<ele>146.60000000000002</ele>
<time>2023-05-18T10:16:17Z</time>
</trkpt>
<trkpt lat="49.353002943098545" lon="8.129269927740097">
<ele>146.60000000000002</ele>
<time>2023-05-18T10:16:18Z</time>
</trkpt>
<trkpt lat="49.35299296863377" lon="8.12921192497015">
<ele>146.60000000000002</ele>
<time>2023-05-18T10:16:19Z</time>
</trkpt>
<trkpt lat="49.352977965027094" lon="8.129147971048951">
<ele>146.60000000000002</ele>
<time>2023-05-18T10:16:20Z</time>
</trkpt>
<trkpt lat="49.35297695919871" lon="8.129091979935765">
<ele>146.60000000000002</ele>
<time>2023-05-18T10:16:21Z</time>
</trkpt>
<trkpt lat="49.35296698473394" lon="8.129037916660309">
<ele>146.60000000000002</ele>
<time>2023-05-18T10:16:22Z</time>
</trkpt>
<trkpt lat="49.35296698473394" lon="8.128984943032265">
<ele>146.60000000000002</ele>
<time>2023-05-18T10:16:23Z</time>
</trkpt>
<trkpt lat="49.352961955592036" lon="8.128927946090698">
<ele>146.60000000000002</ele>
<time>2023-05-18T10:16:24Z</time>
</trkpt>
<trkpt lat="49.35295692645013" lon="8.128877989947796">
<ele>146.79999999999995</ele>
<time>2023-05-18T10:16:25Z</time>
</trkpt>
<trkpt lat="49.35294695198536" lon="8.128832979127765">
<ele>146.79999999999995</ele>
<time>2023-05-18T10:16:26Z</time>
</trkpt>
<trkpt lat="49.35293999500573" lon="8.12878293916583">
<ele>146.79999999999995</ele>
<time>2023-05-18T10:16:27Z</time>
</trkpt>
<trkpt lat="49.35293194837868" lon="8.128731977194548">
<ele>146.79999999999995</ele>
<time>2023-05-18T10:16:28Z</time>
</trkpt>
<trkpt lat="49.35292691923678" lon="8.128681937232614">
<ele>146.79999999999995</ele>
<time>2023-05-18T10:16:29Z</time>
</trkpt>
<trkpt lat="49.35292197391391" lon="8.128627957776189">
<ele>146.79999999999995</ele>
<time>2023-05-18T10:16:30Z</time>
</trkpt>
<trkpt lat="49.352916944772005" lon="8.128571966663003">
<ele>146.79999999999995</ele>
<time>2023-05-18T10:16:31Z</time>
</trkpt>
<trkpt lat="49.35290998779237" lon="8.128514969721437">
<ele>146.79999999999995</ele>
<time>2023-05-18T10:16:32Z</time>
</trkpt>
<trkpt lat="49.35290194116533" lon="8.12845797277987">
<ele>146.79999999999995</ele>
<time>2023-05-18T10:16:33Z</time>
</trkpt>
<trkpt lat="49.35290294699371" lon="8.128402987495065">
<ele>146.79999999999995</ele>
<time>2023-05-18T10:16:34Z</time>
</trkpt>
<trkpt lat="49.352911999449134" lon="8.12835294753313">
<ele>146.79999999999995</ele>
<time>2023-05-18T10:16:35Z</time>
</trkpt>
<trkpt lat="49.35292297974229" lon="8.12830994836986">
<ele>147</ele>
<time>2023-05-18T10:16:36Z</time>
</trkpt>
<trkpt lat="49.352941922843456" lon="8.128271978348494">
<ele>147</ele>
<time>2023-05-18T10:16:37Z</time>
</trkpt>
<trkpt lat="49.35296497307718" lon="8.128239959478378">
<ele>147</ele>
<time>2023-05-18T10:16:38Z</time>
</trkpt>
<trkpt lat="49.35298995114863" lon="8.12822193838656">
<ele>147</ele>
<time>2023-05-18T10:16:39Z</time>
</trkpt>
<trkpt lat="49.35301694087684" lon="8.128211963921785">
<ele>147</ele>
<time>2023-05-18T10:16:40Z</time>
</trkpt>
<trkpt lat="49.353047953918576" lon="8.128186985850334">
<ele>147.20000000000005</ele>
<time>2023-05-18T10:16:41Z</time>
</trkpt>
<trkpt lat="49.35308198444545" lon="8.128159996122122">
<ele>147.39999999999998</ele>
<time>2023-05-18T10:16:42Z</time>
</trkpt>
<trkpt lat="49.353106962516904" lon="8.128121942281723">
<ele>147.39999999999998</ele>
<time>2023-05-18T10:16:43Z</time>
</trkpt>
<trkpt lat="49.35312791727483" lon="8.128077937290072">
<ele>147.60000000000002</ele>
<time>2023-05-18T10:16:44Z</time>
</trkpt>
<trkpt lat="49.35314694419503" lon="8.128034938126802">
<ele>147.79999999999995</ele>
<time>2023-05-18T10:16:45Z</time>
</trkpt>
<trkpt lat="49.35315499082208" lon="8.127986993640661">
<ele>148</ele>
<time>2023-05-18T10:16:46Z</time>
</trkpt>
<trkpt lat="49.35315499082208" lon="8.127931924536824">
<ele>148.20000000000005</ele>
<time>2023-05-18T10:16:47Z</time>
</trkpt>
<trkpt lat="49.353149961680174" lon="8.127871993929148">
<ele>148.39999999999998</ele>
<time>2023-05-18T10:16:48Z</time>
</trkpt>
<trkpt lat="49.35314694419503" lon="8.12781298533082">
<ele>148.60000000000002</ele>
<time>2023-05-18T10:16:49Z</time>
</trkpt>
<trkpt lat="49.3531399872154" lon="8.127757916226983">
<ele>148.79999999999995</ele>
<time>2023-05-18T10:16:50Z</time>
</trkpt>
<trkpt lat="49.35313797555864" lon="8.127702930942178">
<ele>149</ele>
<time>2023-05-18T10:16:51Z</time>
</trkpt>
<trkpt lat="49.35313696973026" lon="8.127647945657372">
<ele>149</ele>
<time>2023-05-18T10:16:52Z</time>
</trkpt>
<trkpt lat="49.353129928931594" lon="8.127584997564554">
<ele>149.20000000000005</ele>
<time>2023-05-18T10:16:53Z</time>
</trkpt>
<trkpt lat="49.35312498360872" lon="8.127527916803956">
<ele>149.39999999999998</ele>
<time>2023-05-18T10:16:54Z</time>
</trkpt>
<trkpt lat="49.35312196612358" lon="8.127464968711138">
<ele>149.39999999999998</ele>
<time>2023-05-18T10:16:55Z</time>
</trkpt>
<trkpt lat="49.35311693698168" lon="8.127401936799288">
<ele>149.60000000000002</ele>
<time>2023-05-18T10:16:56Z</time>
</trkpt>
<trkpt lat="49.35311995446682" lon="8.127337982878089">
<ele>149.79999999999995</ele>
<time>2023-05-18T10:16:57Z</time>
</trkpt>
<trkpt lat="49.353131940588355" lon="8.127271933481097">
<ele>149.79999999999995</ele>
<time>2023-05-18T10:16:58Z</time>
</trkpt>
<trkpt lat="49.353129928931594" lon="8.127201944589615">
<ele>150</ele>
<time>2023-05-18T10:16:59Z</time>
</trkpt>
<trkpt lat="49.35312791727483" lon="8.127129944041371">
<ele>150</ele>
<time>2023-05-18T10:17:00Z</time>
</trkpt>
<trkpt lat="49.353129928931594" lon="8.127057943493128">
<ele>150.20000000000005</ele>
<time>2023-05-18T10:17:01Z</time>
</trkpt>
<trkpt lat="49.353129928931594" lon="8.126984937116504">
<ele>150.20000000000005</ele>
<time>2023-05-18T10:17:02Z</time>
</trkpt>
<trkpt lat="49.353129928931594" lon="8.126909919083118">
<ele>150.39999999999998</ele>
<time>2023-05-18T10:17:03Z</time>
</trkpt>
<trkpt lat="49.353131940588355" lon="8.126834984868765">
<ele>150.39999999999998</ele>
<time>2023-05-18T10:17:04Z</time>
</trkpt>
<trkpt lat="49.35313696973026" lon="8.126756949350238">
<ele>150.39999999999998</ele>
<time>2023-05-18T10:17:05Z</time>
</trkpt>
<trkpt lat="49.35313696973026" lon="8.126677991822362">
<ele>150.60000000000002</ele>
<time>2023-05-18T10:17:06Z</time>
</trkpt>
<trkpt lat="49.35313696973026" lon="8.126601967960596">
<ele>150.60000000000002</ele>
<time>2023-05-18T10:17:07Z</time>
</trkpt>
<trkpt lat="49.3531399872154" lon="8.126521920785308">
<ele>150.60000000000002</ele>
<time>2023-05-18T10:17:08Z</time>
</trkpt>
<trkpt lat="49.35314199887216" lon="8.126442963257432">
<ele>150.79999999999995</ele>
<time>2023-05-18T10:17:09Z</time>
</trkpt>
<trkpt lat="49.3531399872154" lon="8.126364927738905">
<ele>150.79999999999995</ele>
<time>2023-05-18T10:17:10Z</time>
</trkpt>
<trkpt lat="49.35313797555864" lon="8.12628697603941">
<ele>150.79999999999995</ele>
<time>2023-05-18T10:17:11Z</time>
</trkpt>
<trkpt lat="49.35313797555864" lon="8.126207934692502">
<ele>151</ele>
<time>2023-05-18T10:17:12Z</time>
</trkpt>
<trkpt lat="49.35313797555864" lon="8.126129982993007">
<ele>151</ele>
<time>2023-05-18T10:17:13Z</time>
</trkpt>
<trkpt lat="49.3531399872154" lon="8.12605194747448">
<ele>151</ele>
<time>2023-05-18T10:17:14Z</time>
</trkpt>
<trkpt lat="49.353149961680174" lon="8.125976929441094">
<ele>151.20000000000005</ele>
<time>2023-05-18T10:17:15Z</time>
</trkpt>
<trkpt lat="49.35315993614495" lon="8.12590199522674">
<ele>151.20000000000005</ele>
<time>2023-05-18T10:17:16Z</time>
</trkpt>
<trkpt lat="49.35316798277199" lon="8.125831922516227">
<ele>151.39999999999998</ele>
<time>2023-05-18T10:17:17Z</time>
</trkpt>
<trkpt lat="49.35317192226648" lon="8.125764951109886">
<ele>151.39999999999998</ele>
<time>2023-05-18T10:17:18Z</time>
</trkpt>
<trkpt lat="49.353172928094864" lon="8.125694962218404">
<ele>151.60000000000002</ele>
<time>2023-05-18T10:17:19Z</time>
</trkpt>
<trkpt lat="49.353174939751625" lon="8.12562195584178">
<ele>151.60000000000002</ele>
<time>2023-05-18T10:17:20Z</time>
</trkpt>
<trkpt lat="49.35318198055029" lon="8.125546937808394">
<ele>151.60000000000002</ele>
<time>2023-05-18T10:17:21Z</time>
</trkpt>
<trkpt lat="49.35318298637867" lon="8.125476948916912">
<ele>151.79999999999995</ele>
<time>2023-05-18T10:17:22Z</time>
</trkpt>
<trkpt lat="49.35318793170154" lon="8.125402936711907">
<ele>151.79999999999995</ele>
<time>2023-05-18T10:17:23Z</time>
</trkpt>
<trkpt lat="49.353192960843444" lon="8.125322973355651">
<ele>151.79999999999995</ele>
<time>2023-05-18T10:17:24Z</time>
</trkpt>
<trkpt lat="49.353196984156966" lon="8.125244937837124">
<ele>151.79999999999995</ele>
<time>2023-05-18T10:17:25Z</time>
</trkpt>
<trkpt lat="49.353199917823076" lon="8.125164974480867">
<ele>151.79999999999995</ele>
<time>2023-05-18T10:17:26Z</time>
</trkpt>
<trkpt lat="49.35320494696498" lon="8.12508693896234">
<ele>151.79999999999995</ele>
<time>2023-05-18T10:17:27Z</time>
</trkpt>
<trkpt lat="49.35320796445012" lon="8.125009993091226">
<ele>151.79999999999995</ele>
<time>2023-05-18T10:17:28Z</time>
</trkpt>
<trkpt lat="49.35320796445012" lon="8.12493497505784">
<ele>151.79999999999995</ele>
<time>2023-05-18T10:17:29Z</time>
</trkpt>
<trkpt lat="49.35320796445012" lon="8.124859957024455">
<ele>151.79999999999995</ele>
<time>2023-05-18T10:17:30Z</time>
</trkpt>
<trkpt lat="49.35320695862174" lon="8.124782927334309">
<ele>151.79999999999995</ele>
<time>2023-05-18T10:17:31Z</time>
</trkpt>
<trkpt lat="49.35320494696498" lon="8.124709920957685">
<ele>151.79999999999995</ele>
<time>2023-05-18T10:17:32Z</time>
</trkpt>
<trkpt lat="49.35320494696498" lon="8.124636998400092">
<ele>151.79999999999995</ele>
<time>2023-05-18T10:17:33Z</time>
</trkpt>
<trkpt lat="49.35320695862174" lon="8.124559968709946">
<ele>151.79999999999995</ele>
<time>2023-05-18T10:17:34Z</time>
</trkpt>
<trkpt lat="49.35320796445012" lon="8.12448495067656">
<ele>151.79999999999995</ele>
<time>2023-05-18T10:17:35Z</time>
</trkpt>
<trkpt lat="49.35320695862174" lon="8.124406998977065">
<ele>151.79999999999995</ele>
<time>2023-05-18T10:17:36Z</time>
</trkpt>
<trkpt lat="49.35320293530822" lon="8.12433298677206">
<ele>151.79999999999995</ele>
<time>2023-05-18T10:17:37Z</time>
</trkpt>
<trkpt lat="49.35320192947984" lon="8.124262997880578">
<ele>151.79999999999995</ele>
<time>2023-05-18T10:17:38Z</time>
</trkpt>
<trkpt lat="49.35320494696498" lon="8.124189991503954">
<ele>151.79999999999995</ele>
<time>2023-05-18T10:17:39Z</time>
</trkpt>
<trkpt lat="49.35320695862174" lon="8.124112961813807">
<ele>151.79999999999995</ele>
<time>2023-05-18T10:17:40Z</time>
</trkpt>
<trkpt lat="49.35320293530822" lon="8.124042972922325">
<ele>151.79999999999995</ele>
<time>2023-05-18T10:17:41Z</time>
</trkpt>
<trkpt lat="49.353199917823076" lon="8.123971978202462">
<ele>151.79999999999995</ele>
<time>2023-05-18T10:17:42Z</time>
</trkpt>
<trkpt lat="49.35320293530822" lon="8.123897965997458">
<ele>151.79999999999995</ele>
<time>2023-05-18T10:17:43Z</time>
</trkpt>
<trkpt lat="49.35320796445012" lon="8.123832922428846">
<ele>151.79999999999995</ele>
<time>2023-05-18T10:17:44Z</time>
</trkpt>
<trkpt lat="49.35320796445012" lon="8.12377299182117">
<ele>151.79999999999995</ele>
<time>2023-05-18T10:17:45Z</time>
</trkpt>
<trkpt lat="49.353212993592024" lon="8.123704930767417">
<ele>151.79999999999995</ele>
<time>2023-05-18T10:17:46Z</time>
</trkpt>
<trkpt lat="49.35321198776364" lon="8.123644916340709">
<ele>151.79999999999995</ele>
<time>2023-05-18T10:17:47Z</time>
</trkpt>
<trkpt lat="49.35321198776364" lon="8.123576939105988">
<ele>151.79999999999995</ele>
<time>2023-05-18T10:17:48Z</time>
</trkpt>
<trkpt lat="49.35320192947984" lon="8.123504938557744">
<ele>151.79999999999995</ele>
<time>2023-05-18T10:17:49Z</time>
</trkpt>
<trkpt lat="49.353192960843444" lon="8.123439978808165">
<ele>151.79999999999995</ele>
<time>2023-05-18T10:17:50Z</time>
</trkpt>
<trkpt lat="49.35318793170154" lon="8.12336697243154">
<ele>151.79999999999995</ele>
<time>2023-05-18T10:17:51Z</time>
</trkpt>
<trkpt lat="49.35317996889353" lon="8.123296983540058">
<ele>151.79999999999995</ele>
<time>2023-05-18T10:17:52Z</time>
</trkpt>
<trkpt lat="49.353174939751625" lon="8.123219953849912">
<ele>151.79999999999995</ele>
<time>2023-05-18T10:17:53Z</time>
</trkpt>
<trkpt lat="49.35317192226648" lon="8.123141918331385">
<ele>151.79999999999995</ele>
<time>2023-05-18T10:17:54Z</time>
</trkpt>
<trkpt lat="49.35317192226648" lon="8.123061954975128">
<ele>151.60000000000002</ele>
<time>2023-05-18T10:17:55Z</time>
</trkpt>
<trkpt lat="49.35317996889353" lon="8.12297997996211">
<ele>151.60000000000002</ele>
<time>2023-05-18T10:17:56Z</time>
</trkpt>
<trkpt lat="49.35318692587316" lon="8.122899932786822">
<ele>151.60000000000002</ele>
<time>2023-05-18T10:17:57Z</time>
</trkpt>
<trkpt lat="49.353196984156966" lon="8.122816951945424">
<ele>151.60000000000002</ele>
<time>2023-05-18T10:17:58Z</time>
</trkpt>
<trkpt lat="49.35320695862174" lon="8.122734976932406">
<ele>151.60000000000002</ele>
<time>2023-05-18T10:17:59Z</time>
</trkpt>
<trkpt lat="49.35321492142975" lon="8.122654929757118">
<ele>151.60000000000002</ele>
<time>2023-05-18T10:18:00Z</time>
</trkpt>
<trkpt lat="49.35322992503643" lon="8.122576978057623">
<ele>151.39999999999998</ele>
<time>2023-05-18T10:18:01Z</time>
</trkpt>
<trkpt lat="49.353241994977" lon="8.122497936710715">
<ele>151.39999999999998</ele>
<time>2023-05-18T10:18:02Z</time>
</trkpt>
<trkpt lat="49.35324995778501" lon="8.12242291867733">
<ele>151.39999999999998</ele>
<time>2023-05-18T10:18:03Z</time>
</trkpt>
<trkpt lat="49.353256998583674" lon="8.122351923957467">
<ele>151.39999999999998</ele>
<time>2023-05-18T10:18:04Z</time>
</trkpt>
<trkpt lat="49.3532729241997" lon="8.122284952551126">
<ele>151.39999999999998</ele>
<time>2023-05-18T10:18:05Z</time>
</trkpt>
<trkpt lat="49.35328499414027" lon="8.122219992801547">
<ele>151.20000000000005</ele>
<time>2023-05-18T10:18:06Z</time>
</trkpt>
<trkpt lat="49.353299997746944" lon="8.122152937576175">
<ele>151.20000000000005</ele>
<time>2023-05-18T10:18:07Z</time>
</trkpt>
<trkpt lat="49.35330997221172" lon="8.122089989483356">
<ele>151.20000000000005</ele>
<time>2023-05-18T10:18:08Z</time>
</trkpt>
<trkpt lat="49.35331298969686" lon="8.122027963399887">
<ele>151.20000000000005</ele>
<time>2023-05-18T10:18:09Z</time>
</trkpt>
<trkpt lat="49.35331198386848" lon="8.121967948973179">
<ele>151.20000000000005</ele>
<time>2023-05-18T10:18:10Z</time>
</trkpt>
<trkpt lat="49.35331298969686" lon="8.12190793454647">
<ele>151.20000000000005</ele>
<time>2023-05-18T10:18:11Z</time>
</trkpt>
<trkpt lat="49.35331692919135" lon="8.121836939826608">
<ele>151</ele>
<time>2023-05-18T10:18:12Z</time>
</trkpt>
<trkpt lat="49.35331994667649" lon="8.12177793122828">
<ele>151</ele>
<time>2023-05-18T10:18:13Z</time>
</trkpt>
<trkpt lat="49.35332698747516" lon="8.121707942336798">
<ele>151</ele>
<time>2023-05-18T10:18:14Z</time>
</trkpt>
<trkpt lat="49.35333193279803" lon="8.121627978980541">
<ele>151</ele>
<time>2023-05-18T10:18:15Z</time>
</trkpt>
<trkpt lat="49.353346936404705" lon="8.121552960947156">
<ele>151</ele>
<time>2023-05-18T10:18:16Z</time>
</trkpt>
<trkpt lat="49.353367974981666" lon="8.121484983712435">
<ele>151</ele>
<time>2023-05-18T10:18:17Z</time>
</trkpt>
<trkpt lat="49.35339496470988" lon="8.121417928487062">
<ele>151</ele>
<time>2023-05-18T10:18:18Z</time>
</trkpt>
<trkpt lat="49.35341692529619" lon="8.12134793959558">
<ele>151</ele>
<time>2023-05-18T10:18:19Z</time>
</trkpt>
<trkpt lat="49.35343695804477" lon="8.121272921562195">
<ele>151</ele>
<time>2023-05-18T10:18:20Z</time>
</trkpt>
<trkpt lat="49.35345699079335" lon="8.121204944327474">
<ele>151</ele>
<time>2023-05-18T10:18:21Z</time>
</trkpt>
<trkpt lat="49.353476939722896" lon="8.121142918244004">
<ele>151</ele>
<time>2023-05-18T10:18:22Z</time>
</trkpt>
<trkpt lat="49.353497978299856" lon="8.121081981807947">
<ele>151</ele>
<time>2023-05-18T10:18:23Z</time>
</trkpt>
<trkpt lat="49.35352496802807" lon="8.121016938239336">
<ele>151</ele>
<time>2023-05-18T10:18:24Z</time>
</trkpt>
<trkpt lat="49.35355296358466" lon="8.120946949347854">
<ele>151</ele>
<time>2023-05-18T10:18:25Z</time>
</trkpt>
<trkpt lat="49.353582970798016" lon="8.120884923264384">
<ele>151</ele>
<time>2023-05-18T10:18:26Z</time>
</trkpt>
<trkpt lat="49.35360794886947" lon="8.120817951858044">
<ele>151.20000000000005</ele>
<time>2023-05-18T10:18:27Z</time>
</trkpt>
<trkpt lat="49.35363996773958" lon="8.120742933824658">
<ele>151.20000000000005</ele>
<time>2023-05-18T10:18:28Z</time>
</trkpt>
<trkpt lat="49.3536719866097" lon="8.120669927448034">
<ele>151.20000000000005</ele>
<time>2023-05-18T10:18:29Z</time>
</trkpt>
<trkpt lat="49.35370299965143" lon="8.120604967698455">
<ele>151.20000000000005</ele>
<time>2023-05-18T10:18:30Z</time>
</trkpt>
<trkpt lat="49.353732923045754" lon="8.120534978806973">
<ele>151.39999999999998</ele>
<time>2023-05-18T10:18:31Z</time>
</trkpt>
<trkpt lat="49.35376695357263" lon="8.120471946895123">
<ele>151.39999999999998</ele>
<time>2023-05-18T10:18:32Z</time>
</trkpt>
<trkpt lat="49.35379293747246" lon="8.12040195800364">
<ele>151.39999999999998</ele>
<time>2023-05-18T10:18:33Z</time>
</trkpt>
<trkpt lat="49.35382294468582" lon="8.120331969112158">
<ele>151.60000000000002</ele>
<time>2023-05-18T10:18:34Z</time>
</trkpt>
<trkpt lat="49.35385295189917" lon="8.120259968563914">
<ele>151.60000000000002</ele>
<time>2023-05-18T10:18:35Z</time>
</trkpt>
<trkpt lat="49.353882959112525" lon="8.12018796801567">
<ele>151.60000000000002</ele>
<time>2023-05-18T10:18:36Z</time>
</trkpt>
<trkpt lat="49.35391296632588" lon="8.120121918618679">
<ele>151.60000000000002</ele>
<time>2023-05-18T10:18:37Z</time>
</trkpt>
<trkpt lat="49.35393995605409" lon="8.1200569588691">
<ele>151.79999999999995</ele>
<time>2023-05-18T10:18:38Z</time>
</trkpt>
<trkpt lat="49.353966945782304" lon="8.119986969977617">
<ele>151.79999999999995</ele>
<time>2023-05-18T10:18:39Z</time>
</trkpt>
<trkpt lat="49.353989996016026" lon="8.119919998571277">
<ele>151.79999999999995</ele>
<time>2023-05-18T10:18:40Z</time>
</trkpt>
<trkpt lat="49.35401497408748" lon="8.119849925860763">
<ele>152</ele>
<time>2023-05-18T10:18:41Z</time>
</trkpt>
<trkpt lat="49.35403995215893" lon="8.119772979989648">
<ele>152</ele>
<time>2023-05-18T10:18:42Z</time>
</trkpt>
<trkpt lat="49.35406694188714" lon="8.119706930592656">
<ele>152</ele>
<time>2023-05-18T10:18:43Z</time>
</trkpt>
<trkpt lat="49.35409493744373" lon="8.119632918387651">
<ele>152</ele>
<time>2023-05-18T10:18:44Z</time>
</trkpt>
<trkpt lat="49.354121927171946" lon="8.119561923667789">
<ele>152.20000000000005</ele>
<time>2023-05-18T10:18:45Z</time>
</trkpt>
<trkpt lat="49.35414992272854" lon="8.119494952261448">
<ele>152.20000000000005</ele>
<time>2023-05-18T10:18:46Z</time>
</trkpt>
<trkpt lat="49.35417699627578" lon="8.119424963369966">
<ele>152.20000000000005</ele>
<time>2023-05-18T10:18:47Z</time>
</trkpt>
<trkpt lat="49.354202980175614" lon="8.119352962821722">
<ele>152.20000000000005</ele>
<time>2023-05-18T10:18:48Z</time>
</trkpt>
<trkpt lat="49.35423298738897" lon="8.119281968101859">
<ele>152.39999999999998</ele>
<time>2023-05-18T10:18:49Z</time>
</trkpt>
<trkpt lat="49.35426198877394" lon="8.119212985038757">
<ele>152.39999999999998</ele>
<time>2023-05-18T10:18:50Z</time>
</trkpt>
<trkpt lat="49.354287972673774" lon="8.119142996147275">
<ele>152.39999999999998</ele>
<time>2023-05-18T10:18:51Z</time>
</trkpt>
<trkpt lat="49.35431697405875" lon="8.11907191760838">
<ele>152.39999999999998</ele>
<time>2023-05-18T10:18:52Z</time>
</trkpt>
<trkpt lat="49.35433994047344" lon="8.118997989222407">
<ele>152.39999999999998</ele>
<time>2023-05-18T10:18:53Z</time>
</trkpt>
<trkpt lat="49.354356955736876" lon="8.118911990895867">
<ele>152.39999999999998</ele>
<time>2023-05-18T10:18:54Z</time>
</trkpt>
<trkpt lat="49.354379922151566" lon="8.118836972862482">
<ele>152.39999999999998</ele>
<time>2023-05-18T10:18:55Z</time>
</trkpt>
<trkpt lat="49.35440498404205" lon="8.11876798979938">
<ele>152.39999999999998</ele>
<time>2023-05-18T10:18:56Z</time>
</trkpt>
<trkpt lat="49.35442694462836" lon="8.118699928745627">
<ele>152.39999999999998</ele>
<time>2023-05-18T10:18:57Z</time>
</trkpt>
<trkpt lat="49.35445192269981" lon="8.118629939854145">
<ele>152.39999999999998</ele>
<time>2023-05-18T10:18:58Z</time>
</trkpt>
<trkpt lat="49.35447799041867" lon="8.118561962619424">
<ele>152.39999999999998</ele>
<time>2023-05-18T10:18:59Z</time>
</trkpt>
<trkpt lat="49.35450196266174" lon="8.118492979556322">
<ele>152.39999999999998</ele>
<time>2023-05-18T10:19:00Z</time>
</trkpt>
<trkpt lat="49.354527946561575" lon="8.118419973179698">
<ele>152.39999999999998</ele>
<time>2023-05-18T10:19:01Z</time>
</trkpt>
<trkpt lat="49.354551918804646" lon="8.118346966803074">
<ele>152.39999999999998</ele>
<time>2023-05-18T10:19:02Z</time>
</trkpt>
<trkpt lat="49.35457496903837" lon="8.118276977911592">
<ele>152.39999999999998</ele>
<time>2023-05-18T10:19:03Z</time>
</trkpt>
<trkpt lat="49.35460296459496" lon="8.118204977363348">
<ele>152.39999999999998</ele>
<time>2023-05-18T10:19:04Z</time>
</trkpt>
<trkpt lat="49.354637917131186" lon="8.118136916309595">
<ele>152.39999999999998</ele>
<time>2023-05-18T10:19:05Z</time>
</trkpt>
<trkpt lat="49.354674965143204" lon="8.118072962388396">
<ele>152.39999999999998</ele>
<time>2023-05-18T10:19:06Z</time>
</trkpt>
<trkpt lat="49.35471293516457" lon="8.11801495961845">
<ele>152.39999999999998</ele>
<time>2023-05-18T10:19:07Z</time>
</trkpt>
<trkpt lat="49.35475199483335" lon="8.117959974333644">
<ele>152.39999999999998</ele>
<time>2023-05-18T10:19:08Z</time>
</trkpt>
<trkpt lat="49.35478996485472" lon="8.117911946028471">
<ele>152.39999999999998</ele>
<time>2023-05-18T10:19:09Z</time>
</trkpt>
<trkpt lat="49.35483296401799" lon="8.117854949086905">
<ele>152.39999999999998</ele>
<time>2023-05-18T10:19:10Z</time>
</trkpt>
<trkpt lat="49.35487696900964" lon="8.1177999638021">
<ele>152.39999999999998</ele>
<time>2023-05-18T10:19:11Z</time>
</trkpt>
<trkpt lat="49.35492197982967" lon="8.117751935496926">
<ele>152.39999999999998</ele>
<time>2023-05-18T10:19:12Z</time>
</trkpt>
<trkpt lat="49.35496296733618" lon="8.117702985182405">
<ele>152.39999999999998</ele>
<time>2023-05-18T10:19:13Z</time>
</trkpt>
<trkpt lat="49.355001943185925" lon="8.117656968533993">
<ele>152.39999999999998</ele>
<time>2023-05-18T10:19:14Z</time>
</trkpt>
<trkpt lat="49.355041924864054" lon="8.11760793440044">
<ele>152.39999999999998</ele>
<time>2023-05-18T10:19:15Z</time>
</trkpt>
<trkpt lat="49.35507997870445" lon="8.117552949115634">
<ele>152.39999999999998</ele>
<time>2023-05-18T10:19:16Z</time>
</trkpt>
<trkpt lat="49.35511996038258" lon="8.117502992972732">
<ele>152.39999999999998</ele>
<time>2023-05-18T10:19:17Z</time>
</trkpt>
<trkpt lat="49.35516295954585" lon="8.1174579821527">
<ele>152.39999999999998</ele>
<time>2023-05-18T10:19:18Z</time>
</trkpt>
<trkpt lat="49.3552019353956" lon="8.117409953847528">
<ele>152.39999999999998</ele>
<time>2023-05-18T10:19:19Z</time>
</trkpt>
<trkpt lat="49.35524493455887" lon="8.117362931370735">
<ele>152.39999999999998</ele>
<time>2023-05-18T10:19:20Z</time>
</trkpt>
<trkpt lat="49.35528692789376" lon="8.117311969399452">
<ele>152.20000000000005</ele>
<time>2023-05-18T10:19:21Z</time>
</trkpt>
<trkpt lat="49.3553279992193" lon="8.117254972457886">
<ele>152.20000000000005</ele>
<time>2023-05-18T10:19:22Z</time>
</trkpt>
<trkpt lat="49.35536999255419" lon="8.11719998717308">
<ele>152.20000000000005</ele>
<time>2023-05-18T10:19:23Z</time>
</trkpt>
<trkpt lat="49.35541198588908" lon="8.117141984403133">
<ele>152.20000000000005</ele>
<time>2023-05-18T10:19:24Z</time>
</trkpt>
<trkpt lat="49.35544794425368" lon="8.117079958319664">
<ele>152.20000000000005</ele>
<time>2023-05-18T10:19:25Z</time>
</trkpt>
<trkpt lat="49.35548197478056" lon="8.117012986913323">
<ele>152.20000000000005</ele>
<time>2023-05-18T10:19:26Z</time>
</trkpt>
<trkpt lat="49.355511981993914" lon="8.116947943344712">
<ele>152.20000000000005</ele>
<time>2023-05-18T10:19:27Z</time>
</trkpt>
<trkpt lat="49.355536960065365" lon="8.116886923089623">
<ele>152.39999999999998</ele>
<time>2023-05-18T10:19:28Z</time>
</trkpt>
<trkpt lat="49.35554995201528" lon="8.116819951683283">
<ele>152.39999999999998</ele>
<time>2023-05-18T10:19:29Z</time>
</trkpt>
<trkpt lat="49.355554981157184" lon="8.116736970841885">
<ele>152.39999999999998</ele>
<time>2023-05-18T10:19:30Z</time>
</trkpt>
<trkpt lat="49.355554981157184" lon="8.116649966686964">
<ele>152.39999999999998</ele>
<time>2023-05-18T10:19:31Z</time>
</trkpt>
<trkpt lat="49.355554981157184" lon="8.116567991673946">
<ele>152.39999999999998</ele>
<time>2023-05-18T10:19:32Z</time>
</trkpt>
<trkpt lat="49.355556992813945" lon="8.116484927013516">
<ele>152.39999999999998</ele>
<time>2023-05-18T10:19:33Z</time>
</trkpt>
<trkpt lat="49.3555629439652" lon="8.116399934515357">
<ele>152.60000000000002</ele>
<time>2023-05-18T10:19:34Z</time>
</trkpt>
<trkpt lat="49.355577947571874" lon="8.116321982815862">
<ele>152.60000000000002</ele>
<time>2023-05-18T10:19:35Z</time>
</trkpt>
<trkpt lat="49.35559697449207" lon="8.116241935640574">
<ele>152.79999999999995</ele>
<time>2023-05-18T10:19:36Z</time>
</trkpt>
<trkpt lat="49.35561298392713" lon="8.116161972284317">
<ele>152.79999999999995</ele>
<time>2023-05-18T10:19:37Z</time>
</trkpt>
<trkpt lat="49.35563293285668" lon="8.116094917058945">
<ele>152.79999999999995</ele>
<time>2023-05-18T10:19:38Z</time>
</trkpt>
<trkpt lat="49.35565698891878" lon="8.116031968966126">
<ele>153</ele>
<time>2023-05-18T10:19:39Z</time>
</trkpt>
<trkpt lat="49.35567995533347" lon="8.115966925397515">
<ele>153</ele>
<time>2023-05-18T10:19:40Z</time>
</trkpt>
<trkpt lat="49.35570493340492" lon="8.115904983133078">
<ele>153</ele>
<time>2023-05-18T10:19:41Z</time>
</trkpt>
<trkpt lat="49.355732928961515" lon="8.115849997848272">
<ele>153.20000000000005</ele>
<time>2023-05-18T10:19:42Z</time>
</trkpt>
<trkpt lat="49.35576494783163" lon="8.115794928744435">
<ele>153.20000000000005</ele>
<time>2023-05-18T10:19:43Z</time>
</trkpt>
<trkpt lat="49.35579797253013" lon="8.115741955116391">
<ele>153.20000000000005</ele>
<time>2023-05-18T10:19:44Z</time>
</trkpt>
<trkpt lat="49.35583292506635" lon="8.115686969831586">
<ele>153.39999999999998</ele>
<time>2023-05-18T10:19:45Z</time>
</trkpt>
<trkpt lat="49.35586997307837" lon="8.11563198454678">
<ele>153.39999999999998</ele>
<time>2023-05-18T10:19:46Z</time>
</trkpt>
<trkpt lat="49.355904925614595" lon="8.115574987605214">
<ele>153.39999999999998</ele>
<time>2023-05-18T10:19:47Z</time>
</trkpt>
<trkpt lat="49.355941973626614" lon="8.115517990663648">
<ele>153.60000000000002</ele>
<time>2023-05-18T10:19:48Z</time>
</trkpt>
<trkpt lat="49.35597793199122" lon="8.115461999550462">
<ele>153.60000000000002</ele>
<time>2023-05-18T10:19:49Z</time>
</trkpt>
<trkpt lat="49.35601296834648" lon="8.115399973466992">
<ele>153.79999999999995</ele>
<time>2023-05-18T10:19:50Z</time>
</trkpt>
<trkpt lat="49.3560479208827" lon="8.115336941555142">
<ele>153.79999999999995</ele>
<time>2023-05-18T10:19:51Z</time>
</trkpt>
<trkpt lat="49.35608195140958" lon="8.115269970148802">
<ele>154</ele>
<time>2023-05-18T10:19:52Z</time>
</trkpt>
<trkpt lat="49.356114976108074" lon="8.11520199291408">
<ele>154</ele>
<time>2023-05-18T10:19:53Z</time>
</trkpt>
<trkpt lat="49.3561499286443" lon="8.115131920203567">
<ele>154</ele>
<time>2023-05-18T10:19:54Z</time>
</trkpt>
<trkpt lat="49.356181947514415" lon="8.115062937140465">
<ele>154.20000000000005</ele>
<time>2023-05-18T10:19:55Z</time>
</trkpt>
<trkpt lat="49.35621195472777" lon="8.114992948248982">
<ele>154.20000000000005</ele>
<time>2023-05-18T10:19:56Z</time>
</trkpt>
<trkpt lat="49.35624196194112" lon="8.1149229593575">
<ele>154.20000000000005</ele>
<time>2023-05-18T10:19:57Z</time>
</trkpt>
<trkpt lat="49.35627196915448" lon="8.114854982122779">
<ele>154.20000000000005</ele>
<time>2023-05-18T10:19:58Z</time>
</trkpt>
<trkpt lat="49.35630298219621" lon="8.114786921069026">
<ele>154.20000000000005</ele>
<time>2023-05-18T10:19:59Z</time>
</trkpt>
<trkpt lat="49.35633692890406" lon="8.114716932177544">
<ele>154.20000000000005</ele>
<time>2023-05-18T10:20:00Z</time>
</trkpt>
<trkpt lat="49.35636995360255" lon="8.114651972427964">
<ele>154.39999999999998</ele>
<time>2023-05-18T10:20:01Z</time>
</trkpt>
<trkpt lat="49.35640297830105" lon="8.114581983536482">
<ele>154.39999999999998</ele>
<time>2023-05-18T10:20:02Z</time>
</trkpt>
<trkpt lat="49.356434997171164" lon="8.114511994645">
<ele>154.39999999999998</ele>
<time>2023-05-18T10:20:03Z</time>
</trkpt>
<trkpt lat="49.356464920565486" lon="8.114441921934485">
<ele>154.60000000000002</ele>
<time>2023-05-18T10:20:04Z</time>
</trkpt>
<trkpt lat="49.35649492777884" lon="8.114369921386242">
<ele>154.60000000000002</ele>
<time>2023-05-18T10:20:05Z</time>
</trkpt>
<trkpt lat="49.35652292333543" lon="8.11430194415152">
<ele>154.60000000000002</ele>
<time>2023-05-18T10:20:06Z</time>
</trkpt>
<trkpt lat="49.35655293054879" lon="8.114231955260038">
<ele>154.79999999999995</ele>
<time>2023-05-18T10:20:07Z</time>
</trkpt>
<trkpt lat="49.3565849494189" lon="8.114164983853698">
<ele>155</ele>
<time>2023-05-18T10:20:08Z</time>
</trkpt>
<trkpt lat="49.35661495663226" lon="8.114097928628325">
<ele>155</ele>
<time>2023-05-18T10:20:09Z</time>
</trkpt>
<trkpt lat="49.35664295218885" lon="8.114031963050365">
<ele>155.20000000000005</ele>
<time>2023-05-18T10:20:10Z</time>
</trkpt>
<trkpt lat="49.35667195357382" lon="8.113966919481754">
<ele>155.20000000000005</ele>
<time>2023-05-18T10:20:11Z</time>
</trkpt>
<trkpt lat="49.356696931645274" lon="8.113901959732175">
<ele>155.39999999999998</ele>
<time>2023-05-18T10:20:12Z</time>
</trkpt>
<trkpt lat="49.356719981878996" lon="8.113839933648705">
<ele>155.39999999999998</ele>
<time>2023-05-18T10:20:13Z</time>
</trkpt>
<trkpt lat="49.356741942465305" lon="8.113779919221997">
<ele>155.60000000000002</ele>
<time>2023-05-18T10:20:14Z</time>
</trkpt>
<trkpt lat="49.35676792636514" lon="8.113727951422334">
<ele>155.79999999999995</ele>
<time>2023-05-18T10:20:15Z</time>
</trkpt>
<trkpt lat="49.35679499991238" lon="8.11367992311716">
<ele>156</ele>
<time>2023-05-18T10:20:16Z</time>
</trkpt>
<trkpt lat="49.35682198964059" lon="8.113629966974258">
<ele>156</ele>
<time>2023-05-18T10:20:17Z</time>
</trkpt>
<trkpt lat="49.356846967712045" lon="8.113576993346214">
<ele>156.20000000000005</ele>
<time>2023-05-18T10:20:18Z</time>
</trkpt>
<trkpt lat="49.356867922469974" lon="8.113521924242377">
<ele>156.39999999999998</ele>
<time>2023-05-18T10:20:19Z</time>
</trkpt>
<trkpt lat="49.35689298436046" lon="8.113462999463081">
<ele>156.39999999999998</ele>
<time>2023-05-18T10:20:20Z</time>
</trkpt>
<trkpt lat="49.356914944946766" lon="8.113402985036373">
<ele>156.60000000000002</ele>
<time>2023-05-18T10:20:21Z</time>
</trkpt>
<trkpt lat="49.35693698935211" lon="8.113337941467762">
<ele>156.79999999999995</ele>
<time>2023-05-18T10:20:22Z</time>
</trkpt>
<trkpt lat="49.356957944110036" lon="8.113272981718183">
<ele>156.79999999999995</ele>
<time>2023-05-18T10:20:23Z</time>
</trkpt>
<trkpt lat="49.356977976858616" lon="8.11320693232119">
<ele>157</ele>
<time>2023-05-18T10:20:24Z</time>
</trkpt>
<trkpt lat="49.356997925788164" lon="8.113137949258089">
<ele>157</ele>
<time>2023-05-18T10:20:25Z</time>
</trkpt>
<trkpt lat="49.35701695270836" lon="8.113066954538226">
<ele>157.20000000000005</ele>
<time>2023-05-18T10:20:26Z</time>
</trkpt>
<trkpt lat="49.357037991285324" lon="8.112999983131886">
<ele>157.20000000000005</ele>
<time>2023-05-18T10:20:27Z</time>
</trkpt>
<trkpt lat="49.35705995187163" lon="8.112932927906513">
<ele>157.20000000000005</ele>
<time>2023-05-18T10:20:28Z</time>
</trkpt>
<trkpt lat="49.357081996276975" lon="8.112867968156934">
<ele>157.39999999999998</ele>
<time>2023-05-18T10:20:29Z</time>
</trkpt>
<trkpt lat="49.3571029510349" lon="8.112804936245084">
<ele>157.39999999999998</ele>
<time>2023-05-18T10:20:30Z</time>
</trkpt>
<trkpt lat="49.35712298378348" lon="8.112744921818376">
<ele>157.39999999999998</ele>
<time>2023-05-18T10:20:31Z</time>
</trkpt>
<trkpt lat="49.357147961854935" lon="8.112686919048429">
<ele>157.39999999999998</ele>
<time>2023-05-18T10:20:32Z</time>
</trkpt>
<trkpt lat="49.357169922441244" lon="8.11262296512723">
<ele>157.39999999999998</ele>
<time>2023-05-18T10:20:33Z</time>
</trkpt>
<trkpt lat="49.357192972674966" lon="8.11255993321538">
<ele>157.60000000000002</ele>
<time>2023-05-18T10:20:34Z</time>
</trkpt>
<trkpt lat="49.35721795074642" lon="8.112499918788671">
<ele>157.60000000000002</ele>
<time>2023-05-18T10:20:35Z</time>
</trkpt>
<trkpt lat="49.35724292881787" lon="8.112442921847105">
<ele>157.60000000000002</ele>
<time>2023-05-18T10:20:36Z</time>
</trkpt>
<trkpt lat="49.35726991854608" lon="8.1123879365623">
<ele>157.79999999999995</ele>
<time>2023-05-18T10:20:37Z</time>
</trkpt>
<trkpt lat="49.35729498043656" lon="8.112332951277494">
<ele>157.79999999999995</ele>
<time>2023-05-18T10:20:38Z</time>
</trkpt>
<trkpt lat="49.357319958508015" lon="8.11227997764945">
<ele>157.79999999999995</ele>
<time>2023-05-18T10:20:39Z</time>
</trkpt>
<trkpt lat="49.357342924922705" lon="8.112224992364645">
<ele>158</ele>
<time>2023-05-18T10:20:40Z</time>
</trkpt>
<trkpt lat="49.357364969328046" lon="8.112169923260808">
<ele>158</ele>
<time>2023-05-18T10:20:41Z</time>
</trkpt>
<trkpt lat="49.357387935742736" lon="8.112119967117906">
<ele>158.20000000000005</ele>
<time>2023-05-18T10:20:42Z</time>
</trkpt>
<trkpt lat="49.35741299763322" lon="8.112069927155972">
<ele>158.20000000000005</ele>
<time>2023-05-18T10:20:43Z</time>
</trkpt>
<trkpt lat="49.35743797570467" lon="8.11202198266983">
<ele>158.39999999999998</ele>
<time>2023-05-18T10:20:44Z</time>
</trkpt>
<trkpt lat="49.35746295377612" lon="8.111971942707896">
<ele>158.39999999999998</ele>
<time>2023-05-18T10:20:45Z</time>
</trkpt>
<trkpt lat="49.35748994350433" lon="8.111921986564994">
<ele>158.60000000000002</ele>
<time>2023-05-18T10:20:46Z</time>
</trkpt>
<trkpt lat="49.357516933232546" lon="8.11187295243144">
<ele>158.60000000000002</ele>
<time>2023-05-18T10:20:47Z</time>
</trkpt>
<trkpt lat="49.35754199512303" lon="8.111824924126267">
<ele>158.60000000000002</ele>
<time>2023-05-18T10:20:48Z</time>
</trkpt>
<trkpt lat="49.35756496153772" lon="8.111774967983365">
<ele>158.79999999999995</ele>
<time>2023-05-18T10:20:49Z</time>
</trkpt>
<trkpt lat="49.357577953487635" lon="8.111724928021431">
<ele>158.79999999999995</ele>
<time>2023-05-18T10:20:50Z</time>
</trkpt>
<trkpt lat="49.357579965144396" lon="8.111674971878529">
<ele>159</ele>
<time>2023-05-18T10:20:51Z</time>
</trkpt>
<trkpt lat="49.35756797902286" lon="8.111626943573356">
<ele>159</ele>
<time>2023-05-18T10:20:52Z</time>
</trkpt>
<trkpt lat="49.35754492878914" lon="8.111586961895227">
<ele>159.20000000000005</ele>
<time>2023-05-18T10:20:53Z</time>
</trkpt>
<trkpt lat="49.357516933232546" lon="8.11154798604548">
<ele>159.20000000000005</ele>
<time>2023-05-18T10:20:54Z</time>
</trkpt>
<trkpt lat="49.35748499818146" lon="8.111516973003745">
<ele>159.20000000000005</ele>
<time>2023-05-18T10:20:55Z</time>
</trkpt>
<trkpt lat="49.35745297931135" lon="8.111487971618772">
<ele>159.39999999999998</ele>
<time>2023-05-18T10:20:56Z</time>
</trkpt>
<trkpt lat="49.35741995461285" lon="8.11146299354732">
<ele>159.60000000000002</ele>
<time>2023-05-18T10:20:57Z</time>
</trkpt>
<trkpt lat="49.3573899473995" lon="8.111436925828457">
<ele>159.60000000000002</ele>
<time>2023-05-18T10:20:58Z</time>
</trkpt>
<trkpt lat="49.35735499486327" lon="8.111404990777373">
<ele>159.79999999999995</ele>
<time>2023-05-18T10:20:59Z</time>
</trkpt>
<trkpt lat="49.357319958508015" lon="8.11137791723013">
<ele>160</ele>
<time>2023-05-18T10:21:00Z</time>
</trkpt>
<trkpt lat="49.35728693380952" lon="8.11135495081544">
<ele>160.20000000000005</ele>
<time>2023-05-18T10:21:01Z</time>
</trkpt>
<trkpt lat="49.357252987101674" lon="8.111329972743988">
<ele>160.39999999999998</ele>
<time>2023-05-18T10:21:02Z</time>
</trkpt>
<trkpt lat="49.35722499154508" lon="8.111302983015776">
<ele>160.39999999999998</ele>
<time>2023-05-18T10:21:03Z</time>
</trkpt>
<trkpt lat="49.35719699598849" lon="8.111276999115944">
<ele>160.60000000000002</ele>
<time>2023-05-18T10:21:04Z</time>
</trkpt>
<trkpt lat="49.357169922441244" lon="8.1112499255687">
<ele>160.79999999999995</ele>
<time>2023-05-18T10:21:05Z</time>
</trkpt>
<trkpt lat="49.35714494436979" lon="8.111222935840487">
<ele>161</ele>
<time>2023-05-18T10:21:06Z</time>
</trkpt>
<trkpt lat="49.35711292549968" lon="8.11120298691094">
<ele>161.20000000000005</ele>
<time>2023-05-18T10:21:07Z</time>
</trkpt>
<trkpt lat="49.35707797296345" lon="8.111179936677217">
<ele>161.39999999999998</ele>
<time>2023-05-18T10:21:08Z</time>
</trkpt>
<trkpt lat="49.357042936608195" lon="8.111152946949005">
<ele>161.39999999999998</ele>
<time>2023-05-18T10:21:09Z</time>
</trkpt>
<trkpt lat="49.35700697824359" lon="8.111126963049173">
<ele>161.60000000000002</ele>
<time>2023-05-18T10:21:10Z</time>
</trkpt>
<trkpt lat="49.35696993023157" lon="8.111099973320961">
<ele>161.60000000000002</ele>
<time>2023-05-18T10:21:11Z</time>
</trkpt>
<trkpt lat="49.356932966038585" lon="8.111069966107607">
<ele>161.79999999999995</ele>
<time>2023-05-18T10:21:12Z</time>
</trkpt>
<trkpt lat="49.35689792968333" lon="8.111037947237492">
<ele>162</ele>
<time>2023-05-18T10:21:13Z</time>
</trkpt>
<trkpt lat="49.35686691664159" lon="8.111009951680899">
<ele>162</ele>
<time>2023-05-18T10:21:14Z</time>
</trkpt>
<trkpt lat="49.35683799907565" lon="8.11098799109459">
<ele>162.20000000000005</ele>
<time>2023-05-18T10:21:15Z</time>
</trkpt>
<trkpt lat="49.35680698603392" lon="8.110964940860868">
<ele>162.20000000000005</ele>
<time>2023-05-18T10:21:16Z</time>
</trkpt>
<trkpt lat="49.35677697882056" lon="8.110937951132655">
<ele>162.39999999999998</ele>
<time>2023-05-18T10:21:17Z</time>
</trkpt>
<trkpt lat="49.356742948293686" lon="8.110914984717965">
<ele>162.60000000000002</ele>
<time>2023-05-18T10:21:18Z</time>
</trkpt>
<trkpt lat="49.35670799575746" lon="8.110887994989753">
<ele>162.79999999999995</ele>
<time>2023-05-18T10:21:19Z</time>
</trkpt>
<trkpt lat="49.356676982715726" lon="8.11086192727089">
<ele>163</ele>
<time>2023-05-18T10:21:20Z</time>
</trkpt>
<trkpt lat="49.35663993470371" lon="8.110834937542677">
<ele>163.20000000000005</ele>
<time>2023-05-18T10:21:21Z</time>
</trkpt>
<trkpt lat="49.356607999652624" lon="8.110807947814465">
<ele>163.39999999999998</ele>
<time>2023-05-18T10:21:22Z</time>
</trkpt>
<trkpt lat="49.35657497495413" lon="8.110782969743013">
<ele>163.39999999999998</ele>
<time>2023-05-18T10:21:23Z</time>
</trkpt>
<trkpt lat="49.356547985225916" lon="8.11075497418642">
<ele>163.60000000000002</ele>
<time>2023-05-18T10:21:24Z</time>
</trkpt>
<trkpt lat="49.35652191750705" lon="8.110727984458208">
<ele>163.79999999999995</ele>
<time>2023-05-18T10:21:25Z</time>
</trkpt>
<trkpt lat="49.35649492777884" lon="8.110694959759712">
<ele>164</ele>
<time>2023-05-18T10:21:26Z</time>
</trkpt>
<trkpt lat="49.35646793805063" lon="8.110657995566726">
<ele>164</ele>
<time>2023-05-18T10:21:27Z</time>
</trkpt>
<trkpt lat="49.35644798912108" lon="8.110622959211469">
<ele>164.20000000000005</ele>
<time>2023-05-18T10:21:28Z</time>
</trkpt>
<trkpt lat="49.3564279563725" lon="8.11058197170496">
<ele>164.20000000000005</ele>
<time>2023-05-18T10:21:29Z</time>
</trkpt>
<trkpt lat="49.35641295276582" lon="8.110536960884929">
<ele>164.39999999999998</ele>
<time>2023-05-18T10:21:30Z</time>
</trkpt>
<trkpt lat="49.35640197247267" lon="8.110484993085265">
<ele>164.39999999999998</ele>
<time>2023-05-18T10:21:31Z</time>
</trkpt>
<trkpt lat="49.356397949159145" lon="8.110427996143699">
<ele>164.60000000000002</ele>
<time>2023-05-18T10:21:32Z</time>
</trkpt>
<trkpt lat="49.35640498995781" lon="8.110371921211481">
<ele>164.60000000000002</ele>
<time>2023-05-18T10:21:33Z</time>
</trkpt>
<trkpt lat="49.356421921402216" lon="8.110319953411818">
<ele>164.60000000000002</ele>
<time>2023-05-18T10:21:34Z</time>
</trkpt>
<trkpt lat="49.356434997171164" lon="8.110267985612154">
<ele>164.60000000000002</ele>
<time>2023-05-18T10:21:35Z</time>
</trkpt>
<trkpt lat="49.35645192861557" lon="8.110211994498968">
<ele>164.60000000000002</ele>
<time>2023-05-18T10:21:36Z</time>
</trkpt>
<trkpt lat="49.35646994970739" lon="8.11015298590064">
<ele>164.39999999999998</ele>
<time>2023-05-18T10:21:37Z</time>
</trkpt>
<trkpt lat="49.35649299994111" lon="8.110094983130693">
<ele>164.39999999999998</ele>
<time>2023-05-18T10:21:38Z</time>
</trkpt>
<trkpt lat="49.35651998966932" lon="8.110034968703985">
<ele>164.20000000000005</ele>
<time>2023-05-18T10:21:39Z</time>
</trkpt>
<trkpt lat="49.356547985225916" lon="8.109974954277277">
<ele>164.20000000000005</ele>
<time>2023-05-18T10:21:40Z</time>
</trkpt>
<trkpt lat="49.356579920277" lon="8.10991795733571">
<ele>164</ele>
<time>2023-05-18T10:21:41Z</time>
</trkpt>
<trkpt lat="49.356609927490354" lon="8.109862972050905">
<ele>164</ele>
<time>2023-05-18T10:21:42Z</time>
</trkpt>
<trkpt lat="49.35664295218885" lon="8.109809998422861">
<ele>163.79999999999995</ele>
<time>2023-05-18T10:21:43Z</time>
</trkpt>
<trkpt lat="49.356672959402204" lon="8.109749983996153">
<ele>163.79999999999995</ele>
<time>2023-05-18T10:21:44Z</time>
</trkpt>
<trkpt lat="49.356697937473655" lon="8.109687957912683">
<ele>163.60000000000002</ele>
<time>2023-05-18T10:21:45Z</time>
</trkpt>
<trkpt lat="49.35671193525195" lon="8.109617969021201">
<ele>163.60000000000002</ele>
<time>2023-05-18T10:21:46Z</time>
</trkpt>
<trkpt lat="49.35671294108033" lon="8.10955191962421">
<ele>163.39999999999998</ele>
<time>2023-05-18T10:21:47Z</time>
</trkpt>
<trkpt lat="49.35670296661556" lon="8.109479919075966">
<ele>163.20000000000005</ele>
<time>2023-05-18T10:21:48Z</time>
</trkpt>
<trkpt lat="49.356674971058965" lon="8.109417976811528">
<ele>163</ele>
<time>2023-05-18T10:21:49Z</time>
</trkpt>
<trkpt lat="49.35663792304695" lon="8.109366931021214">
<ele>162.79999999999995</ele>
<time>2023-05-18T10:21:50Z</time>
</trkpt>
<trkpt lat="49.35659693554044" lon="8.109322926029563">
<ele>162.60000000000002</ele>
<time>2023-05-18T10:21:51Z</time>
</trkpt>
<trkpt lat="49.35656298883259" lon="8.109279926866293">
<ele>162.39999999999998</ele>
<time>2023-05-18T10:21:52Z</time>
</trkpt>
<trkpt lat="49.35654195025563" lon="8.109249919652939">
<ele>162.39999999999998</ele>
<time>2023-05-18T10:21:53Z</time>
</trkpt>
<trkpt lat="49.356526946648955" lon="8.109192922711372">
<ele>162.20000000000005</ele>
<time>2023-05-18T10:21:54Z</time>
</trkpt>
<trkpt lat="49.35647296719253" lon="8.109172973781824">
<ele>162.20000000000005</ele>
<time>2023-05-18T10:21:55Z</time>
</trkpt>
<trkpt lat="49.356416976079345" lon="8.109117988497019">
<ele>162.20000000000005</ele>
<time>2023-05-18T10:21:56Z</time>
</trkpt>
<trkpt lat="49.35637992806733" lon="8.109054956585169">
<ele>162.20000000000005</ele>
<time>2023-05-18T10:21:57Z</time>
</trkpt>
<trkpt lat="49.35636299662292" lon="8.108984967693686">
<ele>162.20000000000005</ele>
<time>2023-05-18T10:21:58Z</time>
</trkpt>
<trkpt lat="49.35635997913778" lon="8.108901986852288">
<ele>162.39999999999998</ele>
<time>2023-05-18T10:21:59Z</time>
</trkpt>
<trkpt lat="49.35636693611741" lon="8.108816994354129">
<ele>162.39999999999998</ele>
<time>2023-05-18T10:22:00Z</time>
</trkpt>
<trkpt lat="49.35638193972409" lon="8.108732923865318">
<ele>162.39999999999998</ele>
<time>2023-05-18T10:22:01Z</time>
</trkpt>
<trkpt lat="49.356396943330765" lon="8.108659917488694">
<ele>162.39999999999998</ele>
<time>2023-05-18T10:22:02Z</time>
</trkpt>
<trkpt lat="49.35640792362392" lon="8.108596969395876">
<ele>162.60000000000002</ele>
<time>2023-05-18T10:22:03Z</time>
</trkpt>
<trkpt lat="49.356417981907725" lon="8.10854491777718">
<ele>162.60000000000002</ele>
<time>2023-05-18T10:22:04Z</time>
</trkpt>
<trkpt lat="49.35642493888736" lon="8.10849797911942">
<ele>162.79999999999995</ele>
<time>2023-05-18T10:22:05Z</time>
</trkpt>
<trkpt lat="49.35642493888736" lon="8.108467971906066">
<ele>163</ele>
<time>2023-05-18T10:22:06Z</time>
</trkpt>
<trkpt lat="49.35641999356449" lon="8.108442993834615">
<ele>163.20000000000005</ele>
<time>2023-05-18T10:22:07Z</time>
</trkpt>
<trkpt lat="49.356414964422584" lon="8.108421955257654">
<ele>163.39999999999998</ele>
<time>2023-05-18T10:22:08Z</time>
</trkpt>
<trkpt lat="49.35640498995781" lon="8.108406951650977">
<ele>163.60000000000002</ele>
<time>2023-05-18T10:22:09Z</time>
</trkpt>
<trkpt lat="49.356396943330765" lon="8.108396977186203">
<ele>163.79999999999995</ele>
<time>2023-05-18T10:22:10Z</time>
</trkpt>
<trkpt lat="49.35638495720923" lon="8.108384991064668">
<ele>164</ele>
<time>2023-05-18T10:22:11Z</time>
</trkpt>
<trkpt lat="49.356371965259314" lon="8.108371999114752">
<ele>164.39999999999998</ele>
<time>2023-05-18T10:22:12Z</time>
</trkpt>
<trkpt lat="49.35635997913778" lon="8.108356995508075">
<ele>164.60000000000002</ele>
<time>2023-05-18T10:22:13Z</time>
</trkpt>
<trkpt lat="49.35634992085397" lon="8.108342997729778">
<ele>164.60000000000002</ele>
<time>2023-05-18T10:22:14Z</time>
</trkpt>
<trkpt lat="49.35633793473244" lon="8.108336962759495">
<ele>164.79999999999995</ele>
<time>2023-05-18T10:22:15Z</time>
</trkpt>
<trkpt lat="49.356331983581185" lon="8.108331933617592">
<ele>165</ele>
<time>2023-05-18T10:22:16Z</time>
</trkpt>
<trkpt lat="49.356331983581185" lon="8.10832992196083">
<ele>165</ele>
<time>2023-05-18T10:22:17Z</time>
</trkpt>
<trkpt lat="49.356331983581185" lon="8.108327994123101">
<ele>165.20000000000005</ele>
<time>2023-05-18T10:22:18Z</time>
</trkpt>
<trkpt lat="49.356331983581185" lon="8.10832497663796">
<ele>165.20000000000005</ele>
<time>2023-05-18T10:22:19Z</time>
</trkpt>
<trkpt lat="49.35630792751908" lon="8.108266973868012">
<ele>165.39999999999998</ele>
<time>2023-05-18T10:22:19Z</time>
</trkpt>
<trkpt lat="49.3563069216907" lon="8.10824291780591">
<ele>165.39999999999998</ele>
<time>2023-05-18T10:22:20Z</time>
</trkpt>
<trkpt lat="49.3563069216907" lon="8.108207965269685">
<ele>165.60000000000002</ele>
<time>2023-05-18T10:22:21Z</time>
</trkpt>
<trkpt lat="49.356309939175844" lon="8.108164966106415">
<ele>165.60000000000002</ele>
<time>2023-05-18T10:22:22Z</time>
</trkpt>
<trkpt lat="49.35631496831775" lon="8.108121966943145">
<ele>165.60000000000002</ele>
<time>2023-05-18T10:22:23Z</time>
</trkpt>
<trkpt lat="49.35631496831775" lon="8.108069999143481">
<ele>165.60000000000002</ele>
<time>2023-05-18T10:22:24Z</time>
</trkpt>
<trkpt lat="49.35632494278252" lon="8.108014930039644">
<ele>165.60000000000002</ele>
<time>2023-05-18T10:22:25Z</time>
</trkpt>
<trkpt lat="49.356332989409566" lon="8.107956927269697">
<ele>165.60000000000002</ele>
<time>2023-05-18T10:22:26Z</time>
</trkpt>
<trkpt lat="49.3563399463892" lon="8.10789498500526">
<ele>165.60000000000002</ele>
<time>2023-05-18T10:22:27Z</time>
</trkpt>
<trkpt lat="49.35634698718786" lon="8.10783295892179">
<ele>165.60000000000002</ele>
<time>2023-05-18T10:22:28Z</time>
</trkpt>
<trkpt lat="49.35635796748102" lon="8.107772944495082">
<ele>165.79999999999995</ele>
<time>2023-05-18T10:22:29Z</time>
</trkpt>
<trkpt lat="49.356374982744455" lon="8.107712930068374">
<ele>165.79999999999995</ele>
<time>2023-05-18T10:22:30Z</time>
</trkpt>
<trkpt lat="49.35639292001724" lon="8.107647970318794">
<ele>165.79999999999995</ele>
<time>2023-05-18T10:22:31Z</time>
</trkpt>
<trkpt lat="49.35640993528068" lon="8.107582926750183">
<ele>165.79999999999995</ele>
<time>2023-05-18T10:22:32Z</time>
</trkpt>
<trkpt lat="49.35642695054412" lon="8.107516961172223">
<ele>165.79999999999995</ele>
<time>2023-05-18T10:22:33Z</time>
</trkpt>
<trkpt lat="49.35644295997918" lon="8.10744496062398">
<ele>165.79999999999995</ele>
<time>2023-05-18T10:22:34Z</time>
</trkpt>
<trkpt lat="49.356464920565486" lon="8.107372960075736">
<ele>165.79999999999995</ele>
<time>2023-05-18T10:22:35Z</time>
</trkpt>
<trkpt lat="49.356482941657305" lon="8.107299953699112">
<ele>165.79999999999995</ele>
<time>2023-05-18T10:22:36Z</time>
</trkpt>
<trkpt lat="49.356502974405885" lon="8.107232982292771">
<ele>165.79999999999995</ele>
<time>2023-05-18T10:22:37Z</time>
</trkpt>
<trkpt lat="49.35652191750705" lon="8.10716693289578">
<ele>165.79999999999995</ele>
<time>2023-05-18T10:22:38Z</time>
</trkpt>
<trkpt lat="49.35654295608401" lon="8.1071019731462">
<ele>165.79999999999995</ele>
<time>2023-05-18T10:22:39Z</time>
</trkpt>
<trkpt lat="49.35656298883259" lon="8.107036929577589">
<ele>165.79999999999995</ele>
<time>2023-05-18T10:22:40Z</time>
</trkpt>
<trkpt lat="49.356579920277" lon="8.10697297565639">
<ele>165.79999999999995</ele>
<time>2023-05-18T10:22:41Z</time>
</trkpt>
<trkpt lat="49.35659794136882" lon="8.106907932087779">
<ele>165.79999999999995</ele>
<time>2023-05-18T10:22:42Z</time>
</trkpt>
<trkpt lat="49.35661495663226" lon="8.106846995651722">
<ele>165.79999999999995</ele>
<time>2023-05-18T10:22:43Z</time>
</trkpt>
<trkpt lat="49.356632977724075" lon="8.106784969568253">
<ele>165.79999999999995</ele>
<time>2023-05-18T10:22:44Z</time>
</trkpt>
<trkpt lat="49.356656949967146" lon="8.106724955141544">
<ele>165.79999999999995</ele>
<time>2023-05-18T10:22:45Z</time>
</trkpt>
<trkpt lat="49.35667798854411" lon="8.106666952371597">
<ele>165.79999999999995</ele>
<time>2023-05-18T10:22:46Z</time>
</trkpt>
<trkpt lat="49.35670296661556" lon="8.106602998450398">
<ele>165.79999999999995</ele>
<time>2023-05-18T10:22:47Z</time>
</trkpt>
<trkpt lat="49.35672299936414" lon="8.10654197819531">
<ele>165.79999999999995</ele>
<time>2023-05-18T10:22:48Z</time>
</trkpt>
<trkpt lat="49.35674697160721" lon="8.106477940455079">
<ele>165.79999999999995</ele>
<time>2023-05-18T10:22:49Z</time>
</trkpt>
<trkpt lat="49.3567699380219" lon="8.10641499236226">
<ele>165.79999999999995</ele>
<time>2023-05-18T10:22:50Z</time>
</trkpt>
<trkpt lat="49.35679499991238" lon="8.10635196045041">
<ele>165.79999999999995</ele>
<time>2023-05-18T10:22:51Z</time>
</trkpt>
<trkpt lat="49.35682198964059" lon="8.106289934366941">
<ele>165.79999999999995</ele>
<time>2023-05-18T10:22:52Z</time>
</trkpt>
<trkpt lat="49.356847973540425" lon="8.106231931596994">
<ele>165.79999999999995</ele>
<time>2023-05-18T10:22:53Z</time>
</trkpt>
<trkpt lat="49.356871945783496" lon="8.106172922998667">
<ele>165.60000000000002</ele>
<time>2023-05-18T10:22:54Z</time>
</trkpt>
<trkpt lat="49.35689499601722" lon="8.10611693188548">
<ele>165.60000000000002</ele>
<time>2023-05-18T10:22:55Z</time>
</trkpt>
<trkpt lat="49.35691695660353" lon="8.106051972135901">
<ele>165.60000000000002</ele>
<time>2023-05-18T10:22:56Z</time>
</trkpt>
<trkpt lat="49.35694193467498" lon="8.105989946052432">
<ele>165.60000000000002</ele>
<time>2023-05-18T10:22:57Z</time>
</trkpt>
<trkpt lat="49.35696993023157" lon="8.105931943282485">
<ele>165.60000000000002</ele>
<time>2023-05-18T10:22:58Z</time>
</trkpt>
<trkpt lat="49.356999937444925" lon="8.105866983532906">
<ele>165.60000000000002</ele>
<time>2023-05-18T10:22:59Z</time>
</trkpt>
<trkpt lat="49.35703296214342" lon="8.105801939964294">
<ele>165.60000000000002</ele>
<time>2023-05-18T10:23:00Z</time>
</trkpt>
<trkpt lat="49.35706992633641" lon="8.105736980214715">
<ele>165.60000000000002</ele>
<time>2023-05-18T10:23:01Z</time>
</trkpt>
<trkpt lat="49.35710798017681" lon="8.105669924989343">
<ele>165.39999999999998</ele>
<time>2023-05-18T10:23:02Z</time>
</trkpt>
<trkpt lat="49.35715491883457" lon="8.105606976896524">
<ele>165.39999999999998</ele>
<time>2023-05-18T10:23:03Z</time>
</trkpt>
<trkpt lat="49.35720194131136" lon="8.105546962469816">
<ele>165.39999999999998</ele>
<time>2023-05-18T10:23:04Z</time>
</trkpt>
<trkpt lat="49.35724795795977" lon="8.105487953871489">
<ele>165.20000000000005</ele>
<time>2023-05-18T10:23:05Z</time>
</trkpt>
<trkpt lat="49.3572929687798" lon="8.10542793944478">
<ele>165.20000000000005</ele>
<time>2023-05-18T10:23:06Z</time>
</trkpt>
<trkpt lat="49.357341919094324" lon="8.105367925018072">
<ele>165.20000000000005</ele>
<time>2023-05-18T10:23:07Z</time>
</trkpt>
<trkpt lat="49.3573899473995" lon="8.105307994410396">
<ele>165</ele>
<time>2023-05-18T10:23:08Z</time>
</trkpt>
<trkpt lat="49.35744199901819" lon="8.105249991640449">
<ele>165</ele>
<time>2023-05-18T10:23:09Z</time>
</trkpt>
<trkpt lat="49.357492960989475" lon="8.105191988870502">
<ele>165</ele>
<time>2023-05-18T10:23:10Z</time>
</trkpt>
<trkpt lat="49.35754492878914" lon="8.105136919766665">
<ele>164.79999999999995</ele>
<time>2023-05-18T10:23:11Z</time>
</trkpt>
<trkpt lat="49.35759496875107" lon="8.10508193448186">
<ele>164.79999999999995</ele>
<time>2023-05-18T10:23:12Z</time>
</trkpt>
<trkpt lat="49.357642997056246" lon="8.105021920055151">
<ele>164.60000000000002</ele>
<time>2023-05-18T10:23:13Z</time>
</trkpt>
<trkpt lat="49.35769194737077" lon="8.104961989447474">
<ele>164.60000000000002</ele>
<time>2023-05-18T10:23:14Z</time>
</trkpt>
<trkpt lat="49.35774299316108" lon="8.104906920343637">
<ele>164.39999999999998</ele>
<time>2023-05-18T10:23:15Z</time>
</trkpt>
<trkpt lat="49.35778993181884" lon="8.104841960594058">
<ele>164.39999999999998</ele>
<time>2023-05-18T10:23:16Z</time>
</trkpt>
<trkpt lat="49.357836954295635" lon="8.10478194616735">
<ele>164.39999999999998</ele>
<time>2023-05-18T10:23:17Z</time>
</trkpt>
<trkpt lat="49.35788498260081" lon="8.104731990024447">
<ele>164.20000000000005</ele>
<time>2023-05-18T10:23:18Z</time>
</trkpt>
<trkpt lat="49.35793192125857" lon="8.10467692092061">
<ele>164.20000000000005</ele>
<time>2023-05-18T10:23:19Z</time>
</trkpt>
<trkpt lat="49.3579819612205" lon="8.104617996141315">
<ele>164</ele>
<time>2023-05-18T10:23:20Z</time>
</trkpt>
<trkpt lat="49.358032923191786" lon="8.104561921209097">
<ele>164</ele>
<time>2023-05-18T10:23:21Z</time>
</trkpt>
<trkpt lat="49.35808497481048" lon="8.10450492426753">
<ele>164</ele>
<time>2023-05-18T10:23:22Z</time>
</trkpt>
<trkpt lat="49.35813493095338" lon="8.104446921497583">
<ele>163.79999999999995</ele>
<time>2023-05-18T10:23:23Z</time>
</trkpt>
<trkpt lat="49.358182959258556" lon="8.104387996718287">
<ele>163.79999999999995</ele>
<time>2023-05-18T10:23:24Z</time>
</trkpt>
<trkpt lat="49.35823199339211" lon="8.10433192178607">
<ele>163.60000000000002</ele>
<time>2023-05-18T10:23:25Z</time>
</trkpt>
<trkpt lat="49.35827993787825" lon="8.104272997006774">
<ele>163.60000000000002</ele>
<time>2023-05-18T10:23:26Z</time>
</trkpt>
<trkpt lat="49.358329977840185" lon="8.104214994236827">
<ele>163.39999999999998</ele>
<time>2023-05-18T10:23:27Z</time>
</trkpt>
<trkpt lat="49.358376916497946" lon="8.10415799729526">
<ele>163.39999999999998</ele>
<time>2023-05-18T10:23:28Z</time>
</trkpt>
<trkpt lat="49.35842695645988" lon="8.104101922363043">
<ele>163.39999999999998</ele>
<time>2023-05-18T10:23:29Z</time>
</trkpt>
<trkpt lat="49.35847498476505" lon="8.104046937078238">
<ele>163.20000000000005</ele>
<time>2023-05-18T10:23:30Z</time>
</trkpt>
<trkpt lat="49.358519995585084" lon="8.103989940136671">
<ele>163.20000000000005</ele>
<time>2023-05-18T10:23:31Z</time>
</trkpt>
<trkpt lat="49.358566934242845" lon="8.103931937366724">
<ele>163.20000000000005</ele>
<time>2023-05-18T10:23:32Z</time>
</trkpt>
<trkpt lat="49.358612950891256" lon="8.103874940425158">
<ele>163</ele>
<time>2023-05-18T10:23:33Z</time>
</trkpt>
<trkpt lat="49.35865997336805" lon="8.10381693765521">
<ele>163</ele>
<time>2023-05-18T10:23:34Z</time>
</trkpt>
<trkpt lat="49.35870992951095" lon="8.103759940713644">
<ele>162.79999999999995</ele>
<time>2023-05-18T10:23:35Z</time>
</trkpt>
<trkpt lat="49.358757957816124" lon="8.103704955428839">
<ele>162.79999999999995</ele>
<time>2023-05-18T10:23:36Z</time>
</trkpt>
<trkpt lat="49.358804980292916" lon="8.103651981800795">
<ele>162.60000000000002</ele>
<time>2023-05-18T10:23:37Z</time>
</trkpt>
<trkpt lat="49.35884999111295" lon="8.103602947667241">
<ele>162.60000000000002</ele>
<time>2023-05-18T10:23:38Z</time>
</trkpt>
<trkpt lat="49.35889491811395" lon="8.10355693101883">
<ele>162.60000000000002</ele>
<time>2023-05-18T10:23:39Z</time>
</trkpt>
<trkpt lat="49.35893699526787" lon="8.103509992361069">
<ele>162.60000000000002</ele>
<time>2023-05-18T10:23:40Z</time>
</trkpt>
<trkpt lat="49.35897798277438" lon="8.103457940742373">
<ele>162.60000000000002</ele>
<time>2023-05-18T10:23:41Z</time>
</trkpt>
<trkpt lat="49.35901494696736" lon="8.10340697877109">
<ele>162.39999999999998</ele>
<time>2023-05-18T10:23:42Z</time>
</trkpt>
<trkpt lat="49.359059957787395" lon="8.103352999314666">
<ele>162.39999999999998</ele>
<time>2023-05-18T10:23:43Z</time>
</trkpt>
<trkpt lat="49.35910698026419" lon="8.103301953524351">
<ele>162.39999999999998</ele>
<time>2023-05-18T10:23:44Z</time>
</trkpt>
<trkpt lat="49.35914293862879" lon="8.103242944926023">
<ele>162.39999999999998</ele>
<time>2023-05-18T10:23:45Z</time>
</trkpt>
<trkpt lat="49.35918694362044" lon="8.103192988783121">
<ele>162.39999999999998</ele>
<time>2023-05-18T10:23:46Z</time>
</trkpt>
<trkpt lat="49.359231954440475" lon="8.103144960477948">
<ele>162.20000000000005</ele>
<time>2023-05-18T10:23:47Z</time>
</trkpt>
<trkpt lat="49.35927998274565" lon="8.103101961314678">
<ele>162.20000000000005</ele>
<time>2023-05-18T10:23:48Z</time>
</trkpt>
<trkpt lat="49.35932792723179" lon="8.10306197963655">
<ele>162.20000000000005</ele>
<time>2023-05-18T10:23:49Z</time>
</trkpt>
<trkpt lat="49.35937796719372" lon="8.103024931624532">
<ele>162</ele>
<time>2023-05-18T10:23:50Z</time>
</trkpt>
<trkpt lat="49.359426917508245" lon="8.102982938289642">
<ele>162</ele>
<time>2023-05-18T10:23:51Z</time>
</trkpt>
<trkpt lat="49.35947796329856" lon="8.102946979925036">
<ele>162</ele>
<time>2023-05-18T10:23:52Z</time>
</trkpt>
<trkpt lat="49.35953797772527" lon="8.102922923862934">
<ele>161.79999999999995</ele>
<time>2023-05-18T10:23:53Z</time>
</trkpt>
<trkpt lat="49.359597992151976" lon="8.102906998246908">
<ele>161.79999999999995</ele>
<time>2023-05-18T10:23:54Z</time>
</trkpt>
<trkpt lat="49.35965297743678" lon="8.10289291664958">
<ele>161.79999999999995</ele>
<time>2023-05-18T10:23:55Z</time>
</trkpt>
<trkpt lat="49.35971693135798" lon="8.102887971326709">
<ele>161.79999999999995</ele>
<time>2023-05-18T10:23:56Z</time>
</trkpt>
<trkpt lat="49.35978197492659" lon="8.102884953841567">
<ele>161.60000000000002</ele>
<time>2023-05-18T10:23:57Z</time>
</trkpt>
<trkpt lat="49.35984995216131" lon="8.102899957448244">
<ele>161.60000000000002</ele>
<time>2023-05-18T10:23:58Z</time>
</trkpt>
<trkpt lat="49.35991298407316" lon="8.10291194356978">
<ele>161.60000000000002</ele>
<time>2023-05-18T10:23:59Z</time>
</trkpt>
<trkpt lat="49.35997693799436" lon="8.102917978540063">
<ele>161.60000000000002</ele>
<time>2023-05-18T10:24:00Z</time>
</trkpt>
<trkpt lat="49.36004198156297" lon="8.102939939126372">
<ele>161.39999999999998</ele>
<time>2023-05-18T10:24:01Z</time>
</trkpt>
<trkpt lat="49.360094955191016" lon="8.10295494273305">
<ele>161.39999999999998</ele>
<time>2023-05-18T10:24:02Z</time>
</trkpt>
<trkpt lat="49.36015295796096" lon="8.102982938289642">
<ele>161.39999999999998</ele>
<time>2023-05-18T10:24:03Z</time>
</trkpt>
<trkpt lat="49.36020693741739" lon="8.1030179746449">
<ele>161.39999999999998</ele>
<time>2023-05-18T10:24:04Z</time>
</trkpt>
<trkpt lat="49.360262928530574" lon="8.103067930787802">
<ele>161.39999999999998</ele>
<time>2023-05-18T10:24:05Z</time>
</trkpt>
<trkpt lat="49.36031699180603" lon="8.103117970749736">
<ele>161.39999999999998</ele>
<time>2023-05-18T10:24:06Z</time>
</trkpt>
<trkpt lat="49.360369965434074" lon="8.103176979348063">
<ele>161.39999999999998</ele>
<time>2023-05-18T10:24:07Z</time>
</trkpt>
<trkpt lat="49.36041698791087" lon="8.103237999603152">
<ele>161.20000000000005</ele>
<time>2023-05-18T10:24:08Z</time>
</trkpt>
<trkpt lat="49.3604619987309" lon="8.103301953524351">
<ele>161.39999999999998</ele>
<time>2023-05-18T10:24:09Z</time>
</trkpt>
<trkpt lat="49.36050298623741" lon="8.103366997092962">
<ele>161.39999999999998</ele>
<time>2023-05-18T10:24:10Z</time>
</trkpt>
<trkpt lat="49.360542967915535" lon="8.103432962670922">
<ele>161.39999999999998</ele>
<time>2023-05-18T10:24:11Z</time>
</trkpt>
<trkpt lat="49.36058194376528" lon="8.103499934077263">
<ele>161.39999999999998</ele>
<time>2023-05-18T10:24:12Z</time>
</trkpt>
<trkpt lat="49.36061798594892" lon="8.103567995131016">
<ele>161.39999999999998</ele>
<time>2023-05-18T10:24:13Z</time>
</trkpt>
<trkpt lat="49.36065495014191" lon="8.103637984022498">
<ele>161.39999999999998</ele>
<time>2023-05-18T10:24:14Z</time>
</trkpt>
<trkpt lat="49.360692920163274" lon="8.103711996227503">
<ele>161.39999999999998</ele>
<time>2023-05-18T10:24:15Z</time>
</trkpt>
<trkpt lat="49.36072795651853" lon="8.103784918785095">
<ele>161.39999999999998</ele>
<time>2023-05-18T10:24:16Z</time>
</trkpt>
<trkpt lat="49.36076198704541" lon="8.103856919333339">
<ele>161.39999999999998</ele>
<time>2023-05-18T10:24:17Z</time>
</trkpt>
<trkpt lat="49.360799957066774" lon="8.103929925709963">
<ele>161.60000000000002</ele>
<time>2023-05-18T10:24:18Z</time>
</trkpt>
<trkpt lat="49.36083692125976" lon="8.103999998420477">
<ele>161.60000000000002</ele>
<time>2023-05-18T10:24:19Z</time>
</trkpt>
<trkpt lat="49.36087497510016" lon="8.10407199896872">
<ele>161.60000000000002</ele>
<time>2023-05-18T10:24:20Z</time>
</trkpt>
<trkpt lat="49.36091294512153" lon="8.104146933183074">
<ele>161.60000000000002</ele>
<time>2023-05-18T10:24:21Z</time>
</trkpt>
<trkpt lat="49.360951920971274" lon="8.104217927902937">
<ele>161.60000000000002</ele>
<time>2023-05-18T10:24:22Z</time>
</trkpt>
<trkpt lat="49.36098997481167" lon="8.10428791679442">
<ele>161.60000000000002</ele>
<time>2023-05-18T10:24:23Z</time>
</trkpt>
<trkpt lat="49.36102693900466" lon="8.104356983676553">
<ele>161.60000000000002</ele>
<time>2023-05-18T10:24:24Z</time>
</trkpt>
<trkpt lat="49.36106499284506" lon="8.104426972568035">
<ele>161.60000000000002</ele>
<time>2023-05-18T10:24:25Z</time>
</trkpt>
<trkpt lat="49.361101957038045" lon="8.10450199060142">
<ele>161.60000000000002</ele>
<time>2023-05-18T10:24:26Z</time>
</trkpt>
<trkpt lat="49.36114193871617" lon="8.104569967836142">
<ele>161.60000000000002</ele>
<time>2023-05-18T10:24:27Z</time>
</trkpt>
<trkpt lat="49.36117999255657" lon="8.104641968384385">
<ele>161.60000000000002</ele>
<time>2023-05-18T10:24:28Z</time>
</trkpt>
<trkpt lat="49.3612149450928" lon="8.104712963104248">
<ele>161.60000000000002</ele>
<time>2023-05-18T10:24:29Z</time>
</trkpt>
<trkpt lat="49.361252998933196" lon="8.10478295199573">
<ele>161.60000000000002</ele>
<time>2023-05-18T10:24:30Z</time>
</trkpt>
<trkpt lat="49.361291974782944" lon="8.104854952543974">
<ele>161.60000000000002</ele>
<time>2023-05-18T10:24:31Z</time>
</trkpt>
<trkpt lat="49.36132994480431" lon="8.104922929778695">
<ele>161.79999999999995</ele>
<time>2023-05-18T10:24:32Z</time>
</trkpt>
<trkpt lat="49.36136799864471" lon="8.104994930326939">
<ele>161.79999999999995</ele>
<time>2023-05-18T10:24:33Z</time>
</trkpt>
<trkpt lat="49.36140697449446" lon="8.105062991380692">
<ele>161.79999999999995</ele>
<time>2023-05-18T10:24:34Z</time>
</trkpt>
<trkpt lat="49.361446956172585" lon="8.105131974443793">
<ele>161.79999999999995</ele>
<time>2023-05-18T10:24:35Z</time>
</trkpt>
<trkpt lat="49.36148492619395" lon="8.105199951678514">
<ele>162</ele>
<time>2023-05-18T10:24:36Z</time>
</trkpt>
<trkpt lat="49.36152197420597" lon="8.105257954448462">
<ele>162</ele>
<time>2023-05-18T10:24:37Z</time>
</trkpt>
<trkpt lat="49.36155994422734" lon="8.105321992188692">
<ele>162.20000000000005</ele>
<time>2023-05-18T10:24:38Z</time>
</trkpt>
<trkpt lat="49.361599925905466" lon="8.105381922796369">
<ele>162.20000000000005</ele>
<time>2023-05-18T10:24:39Z</time>
</trkpt>
<trkpt lat="49.361642925068736" lon="8.105439925566316">
<ele>162.20000000000005</ele>
<time>2023-05-18T10:24:40Z</time>
</trkpt>
<trkpt lat="49.36168693006039" lon="8.105494994670153">
<ele>162.20000000000005</ele>
<time>2023-05-18T10:24:41Z</time>
</trkpt>
<trkpt lat="49.36173194088042" lon="8.10555693693459">
<ele>162.39999999999998</ele>
<time>2023-05-18T10:24:42Z</time>
</trkpt>
<trkpt lat="49.36178198084235" lon="8.105611922219396">
<ele>162.39999999999998</ele>
<time>2023-05-18T10:24:43Z</time>
</trkpt>
<trkpt lat="49.361827997490764" lon="8.105666991323233">
<ele>162.39999999999998</ele>
<time>2023-05-18T10:24:44Z</time>
</trkpt>
<trkpt lat="49.36187292449176" lon="8.105714935809374">
<ele>162.39999999999998</ele>
<time>2023-05-18T10:24:45Z</time>
</trkpt>
<trkpt lat="49.361917935311794" lon="8.105761958286166">
<ele>162.60000000000002</ele>
<time>2023-05-18T10:24:46Z</time>
</trkpt>
<trkpt lat="49.361962946131825" lon="8.105809986591339">
<ele>162.60000000000002</ele>
<time>2023-05-18T10:24:47Z</time>
</trkpt>
<trkpt lat="49.36200996860862" lon="8.105851979926229">
<ele>162.79999999999995</ele>
<time>2023-05-18T10:24:48Z</time>
</trkpt>
<trkpt lat="49.36205699108541" lon="8.105889949947596">
<ele>162.79999999999995</ele>
<time>2023-05-18T10:24:49Z</time>
</trkpt>
<trkpt lat="49.36210694722831" lon="8.105926997959614">
<ele>162.79999999999995</ele>
<time>2023-05-18T10:24:50Z</time>
</trkpt>
<trkpt lat="49.362152963876724" lon="8.105957927182317">
<ele>162.79999999999995</ele>
<time>2023-05-18T10:24:51Z</time>
</trkpt>
<trkpt lat="49.362197974696755" lon="8.105996986851096">
<ele>163</ele>
<time>2023-05-18T10:24:52Z</time>
</trkpt>
<trkpt lat="49.36224692501128" lon="8.10602992773056">
<ele>163</ele>
<time>2023-05-18T10:24:53Z</time>
</trkpt>
<trkpt lat="49.36228799633682" lon="8.106061946600676">
<ele>163</ele>
<time>2023-05-18T10:24:54Z</time>
</trkpt>
<trkpt lat="49.362327978014946" lon="8.10609295964241">
<ele>163.20000000000005</ele>
<time>2023-05-18T10:24:55Z</time>
</trkpt>
<trkpt lat="49.362369971349835" lon="8.106121961027384">
<ele>163.20000000000005</ele>
<time>2023-05-18T10:24:56Z</time>
</trkpt>
<trkpt lat="49.36240693554282" lon="8.106146939098835">
<ele>163.20000000000005</ele>
<time>2023-05-18T10:24:57Z</time>
</trkpt>
<trkpt lat="49.36244197189808" lon="8.106171917170286">
<ele>163.20000000000005</ele>
<time>2023-05-18T10:24:58Z</time>
</trkpt>
<trkpt lat="49.36247197911143" lon="8.106187926605344">
<ele>163.20000000000005</ele>
<time>2023-05-18T10:24:59Z</time>
</trkpt>
<trkpt lat="49.3625049199909" lon="8.106204941868782">
<ele>163.39999999999998</ele>
<time>2023-05-18T10:25:00Z</time>
</trkpt>
<trkpt lat="49.36253693886101" lon="8.106211982667446">
<ele>163.39999999999998</ele>
<time>2023-05-18T10:25:01Z</time>
</trkpt>
<trkpt lat="49.36256694607437" lon="8.106204941868782">
<ele>163.39999999999998</ele>
<time>2023-05-18T10:25:02Z</time>
</trkpt>
<trkpt lat="49.36259494163096" lon="8.106194967404008">
<ele>163.39999999999998</ele>
<time>2023-05-18T10:25:03Z</time>
</trkpt>
<trkpt lat="49.36261799186468" lon="8.106189938262105">
<ele>163.60000000000002</ele>
<time>2023-05-18T10:25:04Z</time>
</trkpt>
<trkpt lat="49.36263693496585" lon="8.106186920776963">
<ele>163.60000000000002</ele>
<time>2023-05-18T10:25:05Z</time>
</trkpt>
<trkpt lat="49.36265797354281" lon="8.106181975454092">
<ele>163.60000000000002</ele>
<time>2023-05-18T10:25:06Z</time>
</trkpt>
<trkpt lat="49.36268295161426" lon="8.106174934655428">
<ele>163.79999999999995</ele>
<time>2023-05-18T10:25:07Z</time>
</trkpt>
<trkpt lat="49.362712958827615" lon="8.106172922998667">
<ele>163.79999999999995</ele>
<time>2023-05-18T10:25:08Z</time>
</trkpt>
<trkpt lat="49.36274497769773" lon="8.106169989332557">
<ele>163.79999999999995</ele>
<time>2023-05-18T10:25:09Z</time>
</trkpt>
<trkpt lat="49.36278194189072" lon="8.106166971847415">
<ele>164</ele>
<time>2023-05-18T10:25:10Z</time>
</trkpt>
<trkpt lat="49.36282795853913" lon="8.106169989332557">
<ele>164</ele>
<time>2023-05-18T10:25:11Z</time>
</trkpt>
<trkpt lat="49.36287296935916" lon="8.10615699738264">
<ele>164.20000000000005</ele>
<time>2023-05-18T10:25:12Z</time>
</trkpt>
<trkpt lat="49.36292292550206" lon="8.106192955747247">
<ele>164.20000000000005</ele>
<time>2023-05-18T10:25:13Z</time>
</trkpt>
<trkpt lat="49.362971959635615" lon="8.106229919940233">
<ele>164.20000000000005</ele>
<time>2023-05-18T10:25:14Z</time>
</trkpt>
<trkpt lat="49.36302199959755" lon="8.106266967952251">
<ele>164.20000000000005</ele>
<time>2023-05-18T10:25:15Z</time>
</trkpt>
<trkpt lat="49.36306793242693" lon="8.10630694963038">
<ele>164.39999999999998</ele>
<time>2023-05-18T10:25:16Z</time>
</trkpt>
<trkpt lat="49.36311696656048" lon="8.106339974328876">
<ele>164.39999999999998</ele>
<time>2023-05-18T10:25:17Z</time>
</trkpt>
<trkpt lat="49.363161977380514" lon="8.106366964057088">
<ele>164.39999999999998</ele>
<time>2023-05-18T10:25:18Z</time>
</trkpt>
<trkpt lat="49.363204976543784" lon="8.106387918815017">
<ele>164.39999999999998</ele>
<time>2023-05-18T10:25:19Z</time>
</trkpt>
<trkpt lat="49.36324495822191" lon="8.106407951563597">
<ele>164.39999999999998</ele>
<time>2023-05-18T10:25:20Z</time>
</trkpt>
<trkpt lat="49.36328292824328" lon="8.106424966827035">
<ele>164.39999999999998</ele>
<time>2023-05-18T10:25:21Z</time>
</trkpt>
<trkpt lat="49.363316958770156" lon="8.106439970433712">
<ele>164.39999999999998</ele>
<time>2023-05-18T10:25:22Z</time>
</trkpt>
<trkpt lat="49.36335492879152" lon="8.106449944898486">
<ele>164.39999999999998</ele>
<time>2023-05-18T10:25:23Z</time>
</trkpt>
<trkpt lat="49.36339197680354" lon="8.106461931020021">
<ele>164.39999999999998</ele>
<time>2023-05-18T10:25:24Z</time>
</trkpt>
<trkpt lat="49.363422989845276" lon="8.10647995211184">
<ele>164.60000000000002</ele>
<time>2023-05-18T10:25:25Z</time>
</trkpt>
<trkpt lat="49.36345693655312" lon="8.106484981253743">
<ele>164.60000000000002</ele>
<time>2023-05-18T10:25:26Z</time>
</trkpt>
<trkpt lat="49.363487949594855" lon="8.106486992910504">
<ele>164.60000000000002</ele>
<time>2023-05-18T10:25:27Z</time>
</trkpt>
<trkpt lat="49.36351695097983" lon="8.106492944061756">
<ele>164.60000000000002</ele>
<time>2023-05-18T10:25:28Z</time>
</trkpt>
<trkpt lat="49.36354695819318" lon="8.106481963768601">
<ele>164.60000000000002</ele>
<time>2023-05-18T10:25:29Z</time>
</trkpt>
<trkpt lat="49.363572942093015" lon="8.106452962383628">
<ele>164.60000000000002</ele>
<time>2023-05-18T10:25:30Z</time>
</trkpt>
<trkpt lat="49.36358291655779" lon="8.106432929635048">
<ele>164.60000000000002</ele>
<time>2023-05-18T10:25:31Z</time>
</trkpt>
<trkpt lat="49.36358199454844" lon="8.106404934078455">
<ele>164.79999999999995</ele>
<time>2023-05-18T10:25:32Z</time>
</trkpt>
<trkpt lat="49.36357797123492" lon="8.106381967663765">
<ele>164.79999999999995</ele>
<time>2023-05-18T10:25:33Z</time>
</trkpt>
<trkpt lat="49.36358291655779" lon="8.106356989592314">
<ele>164.79999999999995</ele>
<time>2023-05-18T10:25:34Z</time>
</trkpt>
<trkpt lat="49.36358794569969" lon="8.10633192770183">
<ele>164.79999999999995</ele>
<time>2023-05-18T10:25:35Z</time>
</trkpt>
<trkpt lat="49.36359699815512" lon="8.106324970722198">
<ele>164.79999999999995</ele>
<time>2023-05-18T10:25:36Z</time>
</trkpt>
<trkpt lat="49.36360496096313" lon="8.10632698237896">
<ele>165</ele>
<time>2023-05-18T10:25:37Z</time>
</trkpt>
<trkpt lat="49.363614935427904" lon="8.106332933530211">
<ele>165</ele>
<time>2023-05-18T10:25:38Z</time>
</trkpt>
<trkpt lat="49.363634968176484" lon="8.106346931308508">
<ele>165</ele>
<time>2023-05-18T10:25:39Z</time>
</trkpt>
<trkpt lat="49.36365692876279" lon="8.106391942128539">
<ele>165</ele>
<time>2023-05-18T10:25:40Z</time>
</trkpt>
<trkpt lat="49.36369196511805" lon="8.106441982090473">
<ele>165</ele>
<time>2023-05-18T10:25:41Z</time>
</trkpt>
<trkpt lat="49.36371794901788" lon="8.106471989303827">
<ele>165.20000000000005</ele>
<time>2023-05-18T10:25:42Z</time>
</trkpt>
<trkpt lat="49.363744938746095" lon="8.106501996517181">
<ele>165.20000000000005</ele>
<time>2023-05-18T10:25:43Z</time>
</trkpt>
<trkpt lat="49.36378198675811" lon="8.10652295127511">
<ele>165.20000000000005</ele>
<time>2023-05-18T10:25:44Z</time>
</trkpt>
<trkpt lat="49.36382297426462" lon="8.10654197819531">
<ele>165.20000000000005</ele>
<time>2023-05-18T10:25:45Z</time>
</trkpt>
<trkpt lat="49.36386496759951" lon="8.10656695626676">
<ele>165.39999999999998</ele>
<time>2023-05-18T10:25:46Z</time>
</trkpt>
<trkpt lat="49.36391492374241" lon="8.106592940166593">
<ele>165.39999999999998</ele>
<time>2023-05-18T10:25:47Z</time>
</trkpt>
<trkpt lat="49.36395792290568" lon="8.106616996228695">
<ele>165.39999999999998</ele>
<time>2023-05-18T10:25:48Z</time>
</trkpt>
<trkpt lat="49.364004945382476" lon="8.106642980128527">
<ele>165.39999999999998</ele>
<time>2023-05-18T10:25:49Z</time>
</trkpt>
<trkpt lat="49.36404995620251" lon="8.106669969856739">
<ele>165.39999999999998</ele>
<time>2023-05-18T10:25:50Z</time>
</trkpt>
<trkpt lat="49.36409496702254" lon="8.106699977070093">
<ele>165.60000000000002</ele>
<time>2023-05-18T10:25:51Z</time>
</trkpt>
<trkpt lat="49.364151963964105" lon="8.106719925999641">
<ele>165.60000000000002</ele>
<time>2023-05-18T10:25:52Z</time>
</trkpt>
<trkpt lat="49.364196974784136" lon="8.106739958748221">
<ele>165.60000000000002</ele>
<time>2023-05-18T10:25:53Z</time>
</trkpt>
<trkpt lat="49.36424693092704" lon="8.10675697401166">
<ele>165.60000000000002</ele>
<time>2023-05-18T10:25:54Z</time>
</trkpt>
<trkpt lat="49.36428993009031" lon="8.106774995103478">
<ele>165.79999999999995</ele>
<time>2023-05-18T10:25:55Z</time>
</trkpt>
<trkpt lat="49.36433494091034" lon="8.10679997317493">
<ele>165.79999999999995</ele>
<time>2023-05-18T10:25:56Z</time>
</trkpt>
<trkpt lat="49.36437995173037" lon="8.106817994266748">
<ele>165.79999999999995</ele>
<time>2023-05-18T10:25:57Z</time>
</trkpt>
<trkpt lat="49.36442697420716" lon="8.106832997873425">
<ele>165.79999999999995</ele>
<time>2023-05-18T10:25:58Z</time>
</trkpt>
<trkpt lat="49.36446695588529" lon="8.106839954853058">
<ele>165.79999999999995</ele>
<time>2023-05-18T10:25:59Z</time>
</trkpt>
<trkpt lat="49.36450995504856" lon="8.106861999258399">
<ele>166</ele>
<time>2023-05-18T10:26:00Z</time>
</trkpt>
<trkpt lat="49.36455697752535" lon="8.106876919046044">
<ele>166</ele>
<time>2023-05-18T10:26:01Z</time>
</trkpt>
<trkpt lat="49.364602994173765" lon="8.106891922652721">
<ele>166</ele>
<time>2023-05-18T10:26:02Z</time>
</trkpt>
<trkpt lat="49.364644987508655" lon="8.106901980936527">
<ele>166.20000000000005</ele>
<time>2023-05-18T10:26:03Z</time>
</trkpt>
<trkpt lat="49.364687986671925" lon="8.106911955401301">
<ele>166.20000000000005</ele>
<time>2023-05-18T10:26:04Z</time>
</trkpt>
<trkpt lat="49.36472495086491" lon="8.106924947351217">
<ele>166.20000000000005</ele>
<time>2023-05-18T10:26:05Z</time>
</trkpt>
<trkpt lat="49.36475998722017" lon="8.106947997584939">
<ele>166.39999999999998</ele>
<time>2023-05-18T10:26:06Z</time>
</trkpt>
<trkpt lat="49.364797957241535" lon="8.106957972049713">
<ele>166.39999999999998</ele>
<time>2023-05-18T10:26:07Z</time>
</trkpt>
<trkpt lat="49.36483693309128" lon="8.106966940686107">
<ele>166.39999999999998</ele>
<time>2023-05-18T10:26:08Z</time>
</trkpt>
<trkpt lat="49.36487297527492" lon="8.106969958171248">
<ele>166.39999999999998</ele>
<time>2023-05-18T10:26:09Z</time>
</trkpt>
<trkpt lat="49.36491798609495" lon="8.106984961777925">
<ele>166.60000000000002</ele>
<time>2023-05-18T10:26:10Z</time>
</trkpt>
<trkpt lat="49.36496693640947" lon="8.10699694789946">
<ele>166.60000000000002</ele>
<time>2023-05-18T10:26:11Z</time>
</trkpt>
<trkpt lat="49.36501798219979" lon="8.107002982869744">
<ele>166.60000000000002</ele>
<time>2023-05-18T10:26:12Z</time>
</trkpt>
<trkpt lat="49.36507296748459" lon="8.107017986476421">
<ele>166.60000000000002</ele>
<time>2023-05-18T10:26:13Z</time>
</trkpt>
<trkpt lat="49.36512493528426" lon="8.10703793540597">
<ele>166.79999999999995</ele>
<time>2023-05-18T10:26:14Z</time>
</trkpt>
<trkpt lat="49.36517195776105" lon="8.107049921527505">
<ele>166.79999999999995</ele>
<time>2023-05-18T10:26:15Z</time>
</trkpt>
<trkpt lat="49.36522493138909" lon="8.10705796815455">
<ele>166.79999999999995</ele>
<time>2023-05-18T10:26:16Z</time>
</trkpt>
<trkpt lat="49.36527698300779" lon="8.107051933184266">
<ele>167</ele>
<time>2023-05-18T10:26:17Z</time>
</trkpt>
<trkpt lat="49.36532995663583" lon="8.10703793540597">
<ele>167</ele>
<time>2023-05-18T10:26:18Z</time>
</trkpt>
<trkpt lat="49.36538293026388" lon="8.107026955112815">
<ele>167</ele>
<time>2023-05-18T10:26:19Z</time>
</trkpt>
<trkpt lat="49.36543498188257" lon="8.107024943456054">
<ele>167.20000000000005</ele>
<time>2023-05-18T10:26:20Z</time>
</trkpt>
<trkpt lat="49.3654799927026" lon="8.107024943456054">
<ele>167.20000000000005</ele>
<time>2023-05-18T10:26:21Z</time>
</trkpt>
<trkpt lat="49.3655249197036" lon="8.107029972597957">
<ele>167.20000000000005</ele>
<time>2023-05-18T10:26:22Z</time>
</trkpt>
<trkpt lat="49.365566996857524" lon="8.107021925970912">
<ele>167.39999999999998</ele>
<time>2023-05-18T10:26:23Z</time>
</trkpt>
<trkpt lat="49.36560697853565" lon="8.107022931799293">
<ele>167.39999999999998</ele>
<time>2023-05-18T10:26:24Z</time>
</trkpt>
<trkpt lat="49.36564494855702" lon="8.107022931799293">
<ele>167.39999999999998</ele>
<time>2023-05-18T10:26:25Z</time>
</trkpt>
<trkpt lat="49.36568493023515" lon="8.107019998133183">
<ele>167.39999999999998</ele>
<time>2023-05-18T10:26:26Z</time>
</trkpt>
<trkpt lat="49.36572792939842" lon="8.10701496899128">
<ele>167.39999999999998</ele>
<time>2023-05-18T10:26:27Z</time>
</trkpt>
<trkpt lat="49.36577193439007" lon="8.107007928192616">
<ele>167.39999999999998</ele>
<time>2023-05-18T10:26:28Z</time>
</trkpt>
<trkpt lat="49.36581493355334" lon="8.107001977041364">
<ele>167.39999999999998</ele>
<time>2023-05-18T10:26:29Z</time>
</trkpt>
<trkpt lat="49.3658549990505" lon="8.106997953727841">
<ele>167.39999999999998</ele>
<time>2023-05-18T10:26:30Z</time>
</trkpt>
<trkpt lat="49.365894980728626" lon="8.106991918757558">
<ele>167.39999999999998</ele>
<time>2023-05-18T10:26:31Z</time>
</trkpt>
<trkpt lat="49.365936974063516" lon="8.106984961777925">
<ele>167.20000000000005</ele>
<time>2023-05-18T10:26:32Z</time>
</trkpt>
<trkpt lat="49.36596798710525" lon="8.106979932636023">
<ele>167.20000000000005</ele>
<time>2023-05-18T10:26:33Z</time>
</trkpt>
<trkpt lat="49.365996988490224" lon="8.106969958171248">
<ele>167.20000000000005</ele>
<time>2023-05-18T10:26:34Z</time>
</trkpt>
<trkpt lat="49.36602498404682" lon="8.106947997584939">
<ele>167.20000000000005</ele>
<time>2023-05-18T10:26:35Z</time>
</trkpt>
<trkpt lat="49.36605297960341" lon="8.106917990371585">
<ele>167.20000000000005</ele>
<time>2023-05-18T10:26:36Z</time>
</trkpt>
<trkpt lat="49.36608198098838" lon="8.10688798315823">
<ele>167.20000000000005</ele>
<time>2023-05-18T10:26:37Z</time>
</trkpt>
<trkpt lat="49.36611198820174" lon="8.106854958459735">
<ele>167.20000000000005</ele>
<time>2023-05-18T10:26:38Z</time>
</trkpt>
<trkpt lat="49.36614694073796" lon="8.106829980388284">
<ele>167.20000000000005</ele>
<time>2023-05-18T10:26:39Z</time>
</trkpt>
<trkpt lat="49.3661779537797" lon="8.106809947639704">
<ele>167.20000000000005</ele>
<time>2023-05-18T10:26:40Z</time>
</trkpt>
<trkpt lat="49.36620997264981" lon="8.106774995103478">
<ele>167.20000000000005</ele>
<time>2023-05-18T10:26:41Z</time>
</trkpt>
<trkpt lat="49.36622992157936" lon="8.106724955141544">
<ele>167.20000000000005</ele>
<time>2023-05-18T10:26:42Z</time>
</trkpt>
<trkpt lat="49.366261940449476" lon="8.106669969856739">
<ele>167.20000000000005</ele>
<time>2023-05-18T10:26:43Z</time>
</trkpt>
<trkpt lat="49.36629194766283" lon="8.106619929894805">
<ele>167.20000000000005</ele>
<time>2023-05-18T10:26:44Z</time>
</trkpt>
<trkpt lat="49.366324972361326" lon="8.10656494461">
<ele>167.20000000000005</ele>
<time>2023-05-18T10:26:45Z</time>
</trkpt>
<trkpt lat="49.36635699123144" lon="8.106511970981956">
<ele>167.20000000000005</ele>
<time>2023-05-18T10:26:46Z</time>
</trkpt>
<trkpt lat="49.366384986788034" lon="8.106472995132208">
<ele>167.20000000000005</ele>
<time>2023-05-18T10:26:47Z</time>
</trkpt>
<trkpt lat="49.3664179276675" lon="8.106407951563597">
<ele>167.20000000000005</ele>
<time>2023-05-18T10:26:48Z</time>
</trkpt>
<trkpt lat="49.36645497567952" lon="8.10634994879365">
<ele>167.20000000000005</ele>
<time>2023-05-18T10:26:49Z</time>
</trkpt>
<trkpt lat="49.366494957357645" lon="8.106289934366941">
<ele>167.39999999999998</ele>
<time>2023-05-18T10:26:50Z</time>
</trkpt>
<trkpt lat="49.366524964571" lon="8.106234949082136">
<ele>167.39999999999998</ele>
<time>2023-05-18T10:26:51Z</time>
</trkpt>
<trkpt lat="49.36655296012759" lon="8.106181975454092">
<ele>167.39999999999998</ele>
<time>2023-05-18T10:26:52Z</time>
</trkpt>
<trkpt lat="49.366582967340946" lon="8.10613696463406">
<ele>167.60000000000002</ele>
<time>2023-05-18T10:26:53Z</time>
</trkpt>
<trkpt lat="49.36660995706916" lon="8.106084996834397">
<ele>167.60000000000002</ele>
<time>2023-05-18T10:26:54Z</time>
</trkpt>
<trkpt lat="49.36663996428251" lon="8.106037974357605">
<ele>167.79999999999995</ele>
<time>2023-05-18T10:26:55Z</time>
</trkpt>
<trkpt lat="49.36666192486882" lon="8.105996986851096">
<ele>167.79999999999995</ele>
<time>2023-05-18T10:26:56Z</time>
</trkpt>
<trkpt lat="49.3666819576174" lon="8.105957927182317">
<ele>168</ele>
<time>2023-05-18T10:26:57Z</time>
</trkpt>
<trkpt lat="49.36670199036598" lon="8.105922974646091">
<ele>168</ele>
<time>2023-05-18T10:26:58Z</time>
</trkpt>
<trkpt lat="49.36672696843743" lon="8.105894979089499">
<ele>168.20000000000005</ele>
<time>2023-05-18T10:26:59Z</time>
</trkpt>
<trkpt lat="49.36675697565079" lon="8.105851979926229">
<ele>168.20000000000005</ele>
<time>2023-05-18T10:27:00Z</time>
</trkpt>
<trkpt lat="49.36678798869252" lon="8.105807974934578">
<ele>168.20000000000005</ele>
<time>2023-05-18T10:27:01Z</time>
</trkpt>
<trkpt lat="49.36682495288551" lon="8.105756929144263">
<ele>168.20000000000005</ele>
<time>2023-05-18T10:27:02Z</time>
</trkpt>
<trkpt lat="49.36686493456364" lon="8.105692975223064">
<ele>168.20000000000005</ele>
<time>2023-05-18T10:27:03Z</time>
</trkpt>
<trkpt lat="49.366904916241765" lon="8.105634972453117">
<ele>168.20000000000005</ele>
<time>2023-05-18T10:27:04Z</time>
</trkpt>
<trkpt lat="49.366944981738925" lon="8.105579987168312">
<ele>168.20000000000005</ele>
<time>2023-05-18T10:27:05Z</time>
</trkpt>
<trkpt lat="49.36698194593191" lon="8.105516955256462">
<ele>168.20000000000005</ele>
<time>2023-05-18T10:27:06Z</time>
</trkpt>
<trkpt lat="49.36702494509518" lon="8.105449983850121">
<ele>168.20000000000005</ele>
<time>2023-05-18T10:27:07Z</time>
</trkpt>
<trkpt lat="49.36706794425845" lon="8.105387957766652">
<ele>168.20000000000005</ele>
<time>2023-05-18T10:27:08Z</time>
</trkpt>
<trkpt lat="49.367116978392005" lon="8.10531796887517">
<ele>168</ele>
<time>2023-05-18T10:27:09Z</time>
</trkpt>
<trkpt lat="49.367164922878146" lon="8.105261977761984">
<ele>168</ele>
<time>2023-05-18T10:27:10Z</time>
</trkpt>
<trkpt lat="49.367224937304854" lon="8.105194922536612">
<ele>167.79999999999995</ele>
<time>2023-05-18T10:27:11Z</time>
</trkpt>
<trkpt lat="49.36727992258966" lon="8.105134991928935">
<ele>167.79999999999995</ele>
<time>2023-05-18T10:27:12Z</time>
</trkpt>
<trkpt lat="49.36732493340969" lon="8.105072965845466">
<ele>167.60000000000002</ele>
<time>2023-05-18T10:27:13Z</time>
</trkpt>
<trkpt lat="49.36736692674458" lon="8.10501697473228">
<ele>167.39999999999998</ele>
<time>2023-05-18T10:27:14Z</time>
</trkpt>
<trkpt lat="49.36740498058498" lon="8.104964923113585">
<ele>167.20000000000005</ele>
<time>2023-05-18T10:27:15Z</time>
</trkpt>
<trkpt lat="49.367441944777966" lon="8.104874985292554">
<ele>167</ele>
<time>2023-05-18T10:27:16Z</time>
</trkpt>
<trkpt lat="49.367479998618364" lon="8.104789992794394">
<ele>167</ele>
<time>2023-05-18T10:27:17Z</time>
</trkpt>
<trkpt lat="49.36751495115459" lon="8.104717992246151">
<ele>166.79999999999995</ele>
<time>2023-05-18T10:27:18Z</time>
</trkpt>
<trkpt lat="49.36755199916661" lon="8.104659989476204">
<ele>166.79999999999995</ele>
<time>2023-05-18T10:27:19Z</time>
</trkpt>
<trkpt lat="49.367587957531214" lon="8.104601986706257">
<ele>166.60000000000002</ele>
<time>2023-05-18T10:27:20Z</time>
</trkpt>
<trkpt lat="49.3676249217242" lon="8.104537948966026">
<ele>166.60000000000002</ele>
<time>2023-05-18T10:27:21Z</time>
</trkpt>
<trkpt lat="49.36765291728079" lon="8.104474917054176">
<ele>166.39999999999998</ele>
<time>2023-05-18T10:27:22Z</time>
</trkpt>
<trkpt lat="49.367677979171276" lon="8.104409957304597">
<ele>166.39999999999998</ele>
<time>2023-05-18T10:27:23Z</time>
</trkpt>
<trkpt lat="49.36770295724273" lon="8.104337956756353">
<ele>166.20000000000005</ele>
<time>2023-05-18T10:27:24Z</time>
</trkpt>
<trkpt lat="49.367716955021024" lon="8.104271991178393">
<ele>166.20000000000005</ele>
<time>2023-05-18T10:27:25Z</time>
</trkpt>
<trkpt lat="49.36772298999131" lon="8.104204935953021">
<ele>166.20000000000005</ele>
<time>2023-05-18T10:27:26Z</time>
</trkpt>
<trkpt lat="49.36772491782904" lon="8.104141987860203">
<ele>166.20000000000005</ele>
<time>2023-05-18T10:27:27Z</time>
</trkpt>
<trkpt lat="49.36772298999131" lon="8.104081973433495">
<ele>166.20000000000005</ele>
<time>2023-05-18T10:27:28Z</time>
</trkpt>
<trkpt lat="49.36772298999131" lon="8.104004943743348">
<ele>166.20000000000005</ele>
<time>2023-05-18T10:27:29Z</time>
</trkpt>
<trkpt lat="49.367717960849404" lon="8.103924980387092">
<ele>166.20000000000005</ele>
<time>2023-05-18T10:27:30Z</time>
</trkpt>
<trkpt lat="49.367717960849404" lon="8.103842921555042">
<ele>166.20000000000005</ele>
<time>2023-05-18T10:27:31Z</time>
</trkpt>
<trkpt lat="49.36772198416293" lon="8.103767987340689">
<ele>166.20000000000005</ele>
<time>2023-05-18T10:27:32Z</time>
</trkpt>
<trkpt lat="49.36772994697094" lon="8.103684922680259">
<ele>166.20000000000005</ele>
<time>2023-05-18T10:27:33Z</time>
</trkpt>
<trkpt lat="49.367741933092475" lon="8.103602947667241">
<ele>166.20000000000005</ele>
<time>2023-05-18T10:27:34Z</time>
</trkpt>
<trkpt lat="49.367742938920856" lon="8.10353497043252">
<ele>166.39999999999998</ele>
<time>2023-05-18T10:27:35Z</time>
</trkpt>
<trkpt lat="49.367737993597984" lon="8.103457940742373">
<ele>166.39999999999998</ele>
<time>2023-05-18T10:27:36Z</time>
</trkpt>
<trkpt lat="49.36773296445608" lon="8.103387951850891">
<ele>166.60000000000002</ele>
<time>2023-05-18T10:27:37Z</time>
</trkpt>
<trkpt lat="49.36772793531418" lon="8.103306982666254">
<ele>166.79999999999995</ele>
<time>2023-05-18T10:27:38Z</time>
</trkpt>
<trkpt lat="49.36773296445608" lon="8.103227941319346">
<ele>166.79999999999995</ele>
<time>2023-05-18T10:27:39Z</time>
</trkpt>
<trkpt lat="49.367736987769604" lon="8.103156946599483">
<ele>167</ele>
<time>2023-05-18T10:27:40Z</time>
</trkpt>
<trkpt lat="49.367739921435714" lon="8.103086957708001">
<ele>167.20000000000005</ele>
<time>2023-05-18T10:27:41Z</time>
</trkpt>
<trkpt lat="49.36774495057762" lon="8.10301998630166">
<ele>167.39999999999998</ele>
<time>2023-05-18T10:27:42Z</time>
</trkpt>
<trkpt lat="49.36774696223438" lon="8.102962989360094">
<ele>167.60000000000002</ele>
<time>2023-05-18T10:27:43Z</time>
</trkpt>
<trkpt lat="49.36774997971952" lon="8.102902974933386">
<ele>167.79999999999995</ele>
<time>2023-05-18T10:27:44Z</time>
</trkpt>
<trkpt lat="49.36775299720466" lon="8.102851929143071">
<ele>168</ele>
<time>2023-05-18T10:27:45Z</time>
</trkpt>
<trkpt lat="49.36775199137628" lon="8.102789986878633">
<ele>168.20000000000005</ele>
<time>2023-05-18T10:27:46Z</time>
</trkpt>
<trkpt lat="49.36774796806276" lon="8.102727960795164">
<ele>168.39999999999998</ele>
<time>2023-05-18T10:27:47Z</time>
</trkpt>
<trkpt lat="49.36775492504239" lon="8.102669958025217">
<ele>168.60000000000002</ele>
<time>2023-05-18T10:27:48Z</time>
</trkpt>
<trkpt lat="49.367759954184294" lon="8.102609943598509">
<ele>168.79999999999995</ele>
<time>2023-05-18T10:27:49Z</time>
</trkpt>
<trkpt lat="49.367762971669436" lon="8.102536937221885">
<ele>168.79999999999995</ele>
<time>2023-05-18T10:27:50Z</time>
</trkpt>
<trkpt lat="49.36777495779097" lon="8.102452950552106">
<ele>169</ele>
<time>2023-05-18T10:27:51Z</time>
</trkpt>
<trkpt lat="49.36778996139765" lon="8.10237499885261">
<ele>169.20000000000005</ele>
<time>2023-05-18T10:27:52Z</time>
</trkpt>
<trkpt lat="49.36779993586242" lon="8.102307943627238">
<ele>169.20000000000005</ele>
<time>2023-05-18T10:27:53Z</time>
</trkpt>
<trkpt lat="49.36780999414623" lon="8.10224792920053">
<ele>169.39999999999998</ele>
<time>2023-05-18T10:27:54Z</time>
</trkpt>
<trkpt lat="49.367822986096144" lon="8.102184981107712">
<ele>169.39999999999998</ele>
<time>2023-05-18T10:27:55Z</time>
</trkpt>
<trkpt lat="49.36783497221768" lon="8.102126978337765">
<ele>169.39999999999998</ele>
<time>2023-05-18T10:27:56Z</time>
</trkpt>
<trkpt lat="49.3678529933095" lon="8.102057995274663">
<ele>169.60000000000002</ele>
<time>2023-05-18T10:27:57Z</time>
</trkpt>
<trkpt lat="49.36786196194589" lon="8.101999992504716">
<ele>169.60000000000002</ele>
<time>2023-05-18T10:27:58Z</time>
</trkpt>
<trkpt lat="49.367871936410666" lon="8.101926986128092">
<ele>169.60000000000002</ele>
<time>2023-05-18T10:27:59Z</time>
</trkpt>
<trkpt lat="49.367891969159245" lon="8.101832941174507">
<ele>169.60000000000002</ele>
<time>2023-05-18T10:28:00Z</time>
</trkpt>
<trkpt lat="49.36790697276592" lon="8.101749960333109">
<ele>169.60000000000002</ele>
<time>2023-05-18T10:28:01Z</time>
</trkpt>
<trkpt lat="49.36792499385774" lon="8.10166697949171">
<ele>169.39999999999998</ele>
<time>2023-05-18T10:28:02Z</time>
</trkpt>
<trkpt lat="49.36793999746442" lon="8.101584920659661">
<ele>169.39999999999998</ele>
<time>2023-05-18T10:28:03Z</time>
</trkpt>
<trkpt lat="49.367957934737206" lon="8.10149498283863">
<ele>169.39999999999998</ele>
<time>2023-05-18T10:28:04Z</time>
</trkpt>
<trkpt lat="49.367976961657405" lon="8.10140697285533">
<ele>169.39999999999998</ele>
<time>2023-05-18T10:28:05Z</time>
</trkpt>
<trkpt lat="49.367997916415334" lon="8.101316951215267">
<ele>169.39999999999998</ele>
<time>2023-05-18T10:28:06Z</time>
</trkpt>
<trkpt lat="49.36801292002201" lon="8.101224917918444">
<ele>169.20000000000005</ele>
<time>2023-05-18T10:28:07Z</time>
</trkpt>
<trkpt lat="49.36803697608411" lon="8.101132968440652">
<ele>169.20000000000005</ele>
<time>2023-05-18T10:28:08Z</time>
</trkpt>
<trkpt lat="49.36805793084204" lon="8.101039929315448">
<ele>169.20000000000005</ele>
<time>2023-05-18T10:28:09Z</time>
</trkpt>
<trkpt lat="49.368082992732525" lon="8.10095795430243">
<ele>169</ele>
<time>2023-05-18T10:28:10Z</time>
</trkpt>
<trkpt lat="49.36810998246074" lon="8.100887965410948">
<ele>169</ele>
<time>2023-05-18T10:28:11Z</time>
</trkpt>
<trkpt lat="49.36813998967409" lon="8.100821999832988">
<ele>168.79999999999995</ele>
<time>2023-05-18T10:28:12Z</time>
</trkpt>
<trkpt lat="49.36817695386708" lon="8.100754944607615">
<ele>168.60000000000002</ele>
<time>2023-05-18T10:28:13Z</time>
</trkpt>
<trkpt lat="49.368212996050715" lon="8.100691996514797">
<ele>168.60000000000002</ele>
<time>2023-05-18T10:28:14Z</time>
</trkpt>
<trkpt lat="49.368252977728844" lon="8.100624941289425">
<ele>168.39999999999998</ele>
<time>2023-05-18T10:28:15Z</time>
</trkpt>
<trkpt lat="49.36829195357859" lon="8.100564926862717">
<ele>168.20000000000005</ele>
<time>2023-05-18T10:28:16Z</time>
</trkpt>
<trkpt lat="49.36833495274186" lon="8.10050692409277">
<ele>168.20000000000005</ele>
<time>2023-05-18T10:28:17Z</time>
</trkpt>
<trkpt lat="49.36838993802667" lon="8.100444981828332">
<ele>168</ele>
<time>2023-05-18T10:28:18Z</time>
</trkpt>
<trkpt lat="49.3684399779886" lon="8.100394941866398">
<ele>167.79999999999995</ele>
<time>2023-05-18T10:28:19Z</time>
</trkpt>
<trkpt lat="49.3684899341315" lon="8.100344985723495">
<ele>167.79999999999995</ele>
<time>2023-05-18T10:28:20Z</time>
</trkpt>
<trkpt lat="49.36854299157858" lon="8.100286982953548">
<ele>167.79999999999995</ele>
<time>2023-05-18T10:28:21Z</time>
</trkpt>
<trkpt lat="49.36859495937824" lon="8.100222945213318">
<ele>167.60000000000002</ele>
<time>2023-05-18T10:28:22Z</time>
</trkpt>
<trkpt lat="49.36865195631981" lon="8.100156979635358">
<ele>167.60000000000002</ele>
<time>2023-05-18T10:28:23Z</time>
</trkpt>
<trkpt lat="49.36870291829109" lon="8.100089924409986">
<ele>167.39999999999998</ele>
<time>2023-05-18T10:28:24Z</time>
</trkpt>
<trkpt lat="49.368749940767884" lon="8.100016918033361">
<ele>167.39999999999998</ele>
<time>2023-05-18T10:28:25Z</time>
</trkpt>
<trkpt lat="49.368792939931154" lon="8.099927986040711">
<ele>167.20000000000005</ele>
<time>2023-05-18T10:28:26Z</time>
</trkpt>
<trkpt lat="49.36882998794317" lon="8.099829917773604">
<ele>167.20000000000005</ele>
<time>2023-05-18T10:28:27Z</time>
</trkpt>
<trkpt lat="49.36886795796454" lon="8.099737968295813">
<ele>167</ele>
<time>2023-05-18T10:28:28Z</time>
</trkpt>
<trkpt lat="49.368901988491416" lon="8.099656999111176">
<ele>167</ele>
<time>2023-05-18T10:28:29Z</time>
</trkpt>
<trkpt lat="49.36893291771412" lon="8.099574940279126">
<ele>167</ele>
<time>2023-05-18T10:28:30Z</time>
</trkpt>
<trkpt lat="49.368966948240995" lon="8.099497994408011">
<ele>167</ele>
<time>2023-05-18T10:28:31Z</time>
</trkpt>
<trkpt lat="49.36899695545435" lon="8.099421970546246">
<ele>166.79999999999995</ele>
<time>2023-05-18T10:28:32Z</time>
</trkpt>
<trkpt lat="49.36901992186904" lon="8.099354999139905">
<ele>166.79999999999995</ele>
<time>2023-05-18T10:28:33Z</time>
</trkpt>
<trkpt lat="49.369052946567535" lon="8.099296996369958">
<ele>166.79999999999995</ele>
<time>2023-05-18T10:28:34Z</time>
</trkpt>
<trkpt lat="49.36908697709441" lon="8.099256930872798">
<ele>167</ele>
<time>2023-05-18T10:28:35Z</time>
</trkpt>
<trkpt lat="49.369116984307766" lon="8.099214937537909">
<ele>167</ele>
<time>2023-05-18T10:28:36Z</time>
</trkpt>
<trkpt lat="49.3691479973495" lon="8.099161963909864">
<ele>167</ele>
<time>2023-05-18T10:28:37Z</time>
</trkpt>
<trkpt lat="49.36918797902763" lon="8.09911192394793">
<ele>167</ele>
<time>2023-05-18T10:28:38Z</time>
</trkpt>
<trkpt lat="49.36922695487738" lon="8.099057944491506">
<ele>167</ele>
<time>2023-05-18T10:28:39Z</time>
</trkpt>
<trkpt lat="49.36925495043397" lon="8.099006982520223">
<ele>167</ele>
<time>2023-05-18T10:28:40Z</time>
</trkpt>
<trkpt lat="49.36928998678923" lon="8.098956942558289">
<ele>167</ele>
<time>2023-05-18T10:28:41Z</time>
</trkpt>
<trkpt lat="49.36931697651744" lon="8.098886953666806">
<ele>167</ele>
<time>2023-05-18T10:28:42Z</time>
</trkpt>
<trkpt lat="49.36934296041727" lon="8.098819982260466">
<ele>167.20000000000005</ele>
<time>2023-05-18T10:28:43Z</time>
</trkpt>
<trkpt lat="49.369372967630625" lon="8.098749993368983">
<ele>167.20000000000005</ele>
<time>2023-05-18T10:28:44Z</time>
</trkpt>
<trkpt lat="49.3694019690156" lon="8.09867698699236">
<ele>167.39999999999998</ele>
<time>2023-05-18T10:28:45Z</time>
</trkpt>
<trkpt lat="49.36942493543029" lon="8.098611943423748">
<ele>167.39999999999998</ele>
<time>2023-05-18T10:28:46Z</time>
</trkpt>
<trkpt lat="49.3694519251585" lon="8.098536925390363">
<ele>167.60000000000002</ele>
<time>2023-05-18T10:28:47Z</time>
</trkpt>
<trkpt lat="49.36947195790708" lon="8.09846492484212">
<ele>167.79999999999995</ele>
<time>2023-05-18T10:28:48Z</time>
</trkpt>
<trkpt lat="49.36949299648404" lon="8.098394935950637">
<ele>167.79999999999995</ele>
<time>2023-05-18T10:28:49Z</time>
</trkpt>
<trkpt lat="49.36951294541359" lon="8.098324947059155">
<ele>168</ele>
<time>2023-05-18T10:28:50Z</time>
</trkpt>
<trkpt lat="49.36953691765666" lon="8.098256969824433">
<ele>168.20000000000005</ele>
<time>2023-05-18T10:28:51Z</time>
</trkpt>
<trkpt lat="49.36955292709172" lon="8.098181951791048">
<ele>168.20000000000005</ele>
<time>2023-05-18T10:28:52Z</time>
</trkpt>
<trkpt lat="49.36957195401192" lon="8.098107939586043">
<ele>168.39999999999998</ele>
<time>2023-05-18T10:28:53Z</time>
</trkpt>
<trkpt lat="49.3695919867605" lon="8.098037950694561">
<ele>168.39999999999998</ele>
<time>2023-05-18T10:28:54Z</time>
</trkpt>
<trkpt lat="49.369609924033284" lon="8.09796997345984">
<ele>168.60000000000002</ele>
<time>2023-05-18T10:28:55Z</time>
</trkpt>
<trkpt lat="49.36962492763996" lon="8.097899984568357">
<ele>168.79999999999995</ele>
<time>2023-05-18T10:28:56Z</time>
</trkpt>
<trkpt lat="49.36963791958988" lon="8.097834940999746">
<ele>168.79999999999995</ele>
<time>2023-05-18T10:28:57Z</time>
</trkpt>
<trkpt lat="49.369651917368174" lon="8.0977769382298">
<ele>168.79999999999995</ele>
<time>2023-05-18T10:28:58Z</time>
</trkpt>
<trkpt lat="49.36966499313712" lon="8.097716923803091">
<ele>169</ele>
<time>2023-05-18T10:28:59Z</time>
</trkpt>
<trkpt lat="49.36966993845999" lon="8.097661938518286">
<ele>169</ele>
<time>2023-05-18T10:29:00Z</time>
</trkpt>
<trkpt lat="49.36968192458153" lon="8.097597984597087">
<ele>169.20000000000005</ele>
<time>2023-05-18T10:29:01Z</time>
</trkpt>
<trkpt lat="49.36968293040991" lon="8.097546938806772">
<ele>169.20000000000005</ele>
<time>2023-05-18T10:29:02Z</time>
</trkpt>
<trkpt lat="49.36968293040991" lon="8.097501927986741">
<ele>169.20000000000005</ele>
<time>2023-05-18T10:29:03Z</time>
</trkpt>
<trkpt lat="49.369692988693714" lon="8.09745297767222">
<ele>169.39999999999998</ele>
<time>2023-05-18T10:29:04Z</time>
</trkpt>
<trkpt lat="49.36970195733011" lon="8.097397992387414">
<ele>169.39999999999998</ele>
<time>2023-05-18T10:29:05Z</time>
</trkpt>
<trkpt lat="49.369717966765165" lon="8.097341917455196">
<ele>169.39999999999998</ele>
<time>2023-05-18T10:29:06Z</time>
</trkpt>
<trkpt lat="49.36974797397852" lon="8.097296990454197">
<ele>169.39999999999998</ele>
<time>2023-05-18T10:29:07Z</time>
</trkpt>
<trkpt lat="49.369779992848635" lon="8.097259942442179">
<ele>169.39999999999998</ele>
<time>2023-05-18T10:29:08Z</time>
</trkpt>
<trkpt lat="49.369821986183524" lon="8.09721794910729">
<ele>169.39999999999998</ele>
<time>2023-05-18T10:29:09Z</time>
</trkpt>
<trkpt lat="49.36984193511307" lon="8.0971949826926">
<ele>169.39999999999998</ele>
<time>2023-05-18T10:29:10Z</time>
</trkpt>
<trkpt lat="49.36985995620489" lon="8.0971569288522">
<ele>169.20000000000005</ele>
<time>2023-05-18T10:29:11Z</time>
</trkpt>
<trkpt lat="49.36987797729671" lon="8.097102949395776">
<ele>169.20000000000005</ele>
<time>2023-05-18T10:29:12Z</time>
</trkpt>
<trkpt lat="49.36989197507501" lon="8.097034972161055">
<ele>169.20000000000005</ele>
<time>2023-05-18T10:29:13Z</time>
</trkpt>
<trkpt lat="49.36990697868168" lon="8.096966994926333">
<ele>169.20000000000005</ele>
<time>2023-05-18T10:29:14Z</time>
</trkpt>
<trkpt lat="49.36992198228836" lon="8.0968979280442">
<ele>169.20000000000005</ele>
<time>2023-05-18T10:29:15Z</time>
</trkpt>
<trkpt lat="49.36993698589504" lon="8.096824921667576">
<ele>169.20000000000005</ele>
<time>2023-05-18T10:29:16Z</time>
</trkpt>
<trkpt lat="49.369951989501715" lon="8.096756944432855">
<ele>169</ele>
<time>2023-05-18T10:29:17Z</time>
</trkpt>
<trkpt lat="49.36996699310839" lon="8.096689973026514">
<ele>169</ele>
<time>2023-05-18T10:29:18Z</time>
</trkpt>
<trkpt lat="49.36998291872442" lon="8.09661797247827">
<ele>169</ele>
<time>2023-05-18T10:29:19Z</time>
</trkpt>
<trkpt lat="49.369999933987856" lon="8.096551923081279">
<ele>169</ele>
<time>2023-05-18T10:29:20Z</time>
</trkpt>
<trkpt lat="49.37001493759453" lon="8.096482940018177">
<ele>169</ele>
<time>2023-05-18T10:29:21Z</time>
</trkpt>
<trkpt lat="49.37002994120121" lon="8.096411945298314">
<ele>169</ele>
<time>2023-05-18T10:29:22Z</time>
</trkpt>
<trkpt lat="49.37004494480789" lon="8.096342962235212">
<ele>169</ele>
<time>2023-05-18T10:29:23Z</time>
</trkpt>
<trkpt lat="49.370059948414564" lon="8.096276996657252">
<ele>169</ele>
<time>2023-05-18T10:29:24Z</time>
</trkpt>
<trkpt lat="49.37007495202124" lon="8.09620994143188">
<ele>169</ele>
<time>2023-05-18T10:29:25Z</time>
</trkpt>
<trkpt lat="49.37008794397116" lon="8.09614297002554">
<ele>169</ele>
<time>2023-05-18T10:29:26Z</time>
</trkpt>
<trkpt lat="49.37009993009269" lon="8.096076920628548">
<ele>169</ele>
<time>2023-05-18T10:29:27Z</time>
</trkpt>
<trkpt lat="49.37011191621423" lon="8.096011960878968">
<ele>169</ele>
<time>2023-05-18T10:29:28Z</time>
</trkpt>
<trkpt lat="49.370124991983175" lon="8.095946917310357">
<ele>169</ele>
<time>2023-05-18T10:29:29Z</time>
</trkpt>
<trkpt lat="49.37013295479119" lon="8.095882963389158">
<ele>169</ele>
<time>2023-05-18T10:29:30Z</time>
</trkpt>
<trkpt lat="49.37014192342758" lon="8.09582194313407">
<ele>169.20000000000005</ele>
<time>2023-05-18T10:29:31Z</time>
</trkpt>
<trkpt lat="49.37014997005463" lon="8.09575798921287">
<ele>169.20000000000005</ele>
<time>2023-05-18T10:29:32Z</time>
</trkpt>
<trkpt lat="49.37015692703426" lon="8.09569294564426">
<ele>169.20000000000005</ele>
<time>2023-05-18T10:29:33Z</time>
</trkpt>
<trkpt lat="49.3701649736613" lon="8.09562798589468">
<ele>169.20000000000005</ele>
<time>2023-05-18T10:29:34Z</time>
</trkpt>
<trkpt lat="49.370171930640936" lon="8.095566965639591">
<ele>169.39999999999998</ele>
<time>2023-05-18T10:29:35Z</time>
</trkpt>
<trkpt lat="49.37017796561122" lon="8.095511980354786">
<ele>169.39999999999998</ele>
<time>2023-05-18T10:29:36Z</time>
</trkpt>
<trkpt lat="49.37018492259085" lon="8.09545992873609">
<ele>169.39999999999998</ele>
<time>2023-05-18T10:29:37Z</time>
</trkpt>
<trkpt lat="49.370189951732755" lon="8.095417935401201">
<ele>169.39999999999998</ele>
<time>2023-05-18T10:29:38Z</time>
</trkpt>
<trkpt lat="49.3701929692179" lon="8.095384994521737">
<ele>169.60000000000002</ele>
<time>2023-05-18T10:29:39Z</time>
</trkpt>
<trkpt lat="49.3701979983598" lon="8.095356998965144">
<ele>169.60000000000002</ele>
<time>2023-05-18T10:29:40Z</time>
</trkpt>
<trkpt lat="49.37020193785429" lon="8.09532799758017">
<ele>169.60000000000002</ele>
<time>2023-05-18T10:29:41Z</time>
</trkpt>
<trkpt lat="49.37020495533943" lon="8.095297990366817">
<ele>169.60000000000002</ele>
<time>2023-05-18T10:29:42Z</time>
</trkpt>
<trkpt lat="49.37020797282457" lon="8.095271922647953">
<ele>169.79999999999995</ele>
<time>2023-05-18T10:29:43Z</time>
</trkpt>
<trkpt lat="49.370209984481335" lon="8.095249962061644">
<ele>169.79999999999995</ele>
<time>2023-05-18T10:29:44Z</time>
</trkpt>
<trkpt lat="49.370211996138096" lon="8.095227917656302">
<ele>169.79999999999995</ele>
<time>2023-05-18T10:29:45Z</time>
</trkpt>
<trkpt lat="49.370211996138096" lon="8.095207968726754">
<ele>169.79999999999995</ele>
<time>2023-05-18T10:29:46Z</time>
</trkpt>
<trkpt lat="49.370211996138096" lon="8.095189947634935">
<ele>169.79999999999995</ele>
<time>2023-05-18T10:29:47Z</time>
</trkpt>
<trkpt lat="49.37020797282457" lon="8.095171926543117">
<ele>169.79999999999995</ele>
<time>2023-05-18T10:29:48Z</time>
</trkpt>
<trkpt lat="49.37020495533943" lon="8.095152983441949">
<ele>170</ele>
<time>2023-05-18T10:29:49Z</time>
</trkpt>
<trkpt lat="49.37020495533943" lon="8.09513496235013">
<ele>170</ele>
<time>2023-05-18T10:29:50Z</time>
</trkpt>
<trkpt lat="49.37020495533943" lon="8.095121970400214">
<ele>170</ele>
<time>2023-05-18T10:29:51Z</time>
</trkpt>
<trkpt lat="49.37020294368267" lon="8.095112917944789">
<ele>170</ele>
<time>2023-05-18T10:29:52Z</time>
</trkpt>
<trkpt lat="49.370214929804206" lon="8.09506799094379">
<ele>170</ele>
<time>2023-05-18T10:29:53Z</time>
</trkpt>
<trkpt lat="49.37022297643125" lon="8.095037983730435">
<ele>170</ele>
<time>2023-05-18T10:29:54Z</time>
</trkpt>
<trkpt lat="49.370232950896025" lon="8.0950069706887">
<ele>170</ele>
<time>2023-05-18T10:29:55Z</time>
</trkpt>
<trkpt lat="49.3702429253608" lon="8.094967994838953">
<ele>170.20000000000005</ele>
<time>2023-05-18T10:29:56Z</time>
</trkpt>
<trkpt lat="49.370256923139095" lon="8.094926923513412">
<ele>170.20000000000005</ele>
<time>2023-05-18T10:29:57Z</time>
</trkpt>
<trkpt lat="49.37027192674577" lon="8.094884930178523">
<ele>170.20000000000005</ele>
<time>2023-05-18T10:29:58Z</time>
</trkpt>
<trkpt lat="49.37028793618083" lon="8.094839919358492">
<ele>170.20000000000005</ele>
<time>2023-05-18T10:29:59Z</time>
</trkpt>
<trkpt lat="49.37030495144427" lon="8.094792980700731">
<ele>170.20000000000005</ele>
<time>2023-05-18T10:30:00Z</time>
</trkpt>
<trkpt lat="49.370339987799525" lon="8.0947479698807">
<ele>170.39999999999998</ele>
<time>2023-05-18T10:30:01Z</time>
</trkpt>
<trkpt lat="49.37036999501288" lon="8.094701953232288">
<ele>170.39999999999998</ele>
<time>2023-05-18T10:30:02Z</time>
</trkpt>
<trkpt lat="49.37040997669101" lon="8.094654930755496">
<ele>170.39999999999998</ele>
<time>2023-05-18T10:30:03Z</time>
</trkpt>
<trkpt lat="49.37043696641922" lon="8.094602962955832">
<ele>170.60000000000002</ele>
<time>2023-05-18T10:30:04Z</time>
</trkpt>
<trkpt lat="49.37046295031905" lon="8.094552922993898">
<ele>170.60000000000002</ele>
<time>2023-05-18T10:30:05Z</time>
</trkpt>
<trkpt lat="49.3704879283905" lon="8.094506990164518">
<ele>170.60000000000002</ele>
<time>2023-05-18T10:30:06Z</time>
</trkpt>
<trkpt lat="49.370532939210534" lon="8.094472959637642">
<ele>170.79999999999995</ele>
<time>2023-05-18T10:30:07Z</time>
</trkpt>
<trkpt lat="49.37056696973741" lon="8.094437923282385">
<ele>170.79999999999995</ele>
<time>2023-05-18T10:30:08Z</time>
</trkpt>
<trkpt lat="49.37058499082923" lon="8.094397941604257">
<ele>171</ele>
<time>2023-05-18T10:30:09Z</time>
</trkpt>
<trkpt lat="49.370597982779145" lon="8.094342956319451">
<ele>171</ele>
<time>2023-05-18T10:30:10Z</time>
</trkpt>
<trkpt lat="49.37062698416412" lon="8.094306997954845">
<ele>171.20000000000005</ele>
<time>2023-05-18T10:30:11Z</time>
</trkpt>
<trkpt lat="49.37064693309367" lon="8.094252934679389">
<ele>171.39999999999998</ele>
<time>2023-05-18T10:30:12Z</time>
</trkpt>
<trkpt lat="49.37067199498415" lon="8.094204990193248">
<ele>171.39999999999998</ele>
<time>2023-05-18T10:30:13Z</time>
</trkpt>
<trkpt lat="49.3706969730556" lon="8.094172971323133">
<ele>171.60000000000002</ele>
<time>2023-05-18T10:30:14Z</time>
</trkpt>
<trkpt lat="49.37071993947029" lon="8.094141958281398">
<ele>171.60000000000002</ele>
<time>2023-05-18T10:30:15Z</time>
</trkpt>
<trkpt lat="49.37075296416879" lon="8.09410197660327">
<ele>171.79999999999995</ele>
<time>2023-05-18T10:30:16Z</time>
</trkpt>
<trkpt lat="49.37076193280518" lon="8.094046991318464">
<ele>171.79999999999995</ele>
<time>2023-05-18T10:30:17Z</time>
</trkpt>
<trkpt lat="49.37076495029032" lon="8.093991922214627">
<ele>172</ele>
<time>2023-05-18T10:30:18Z</time>
</trkpt>
<trkpt lat="49.370774924755096" lon="8.093936936929822">
<ele>172</ele>
<time>2023-05-18T10:30:19Z</time>
</trkpt>
<trkpt lat="49.37079998664558" lon="8.093892931938171">
<ele>172</ele>
<time>2023-05-18T10:30:20Z</time>
</trkpt>
<trkpt lat="49.37082798220217" lon="8.09384792111814">
<ele>172.20000000000005</ele>
<time>2023-05-18T10:30:21Z</time>
</trkpt>
<trkpt lat="49.37086192891002" lon="8.09380299411714">
<ele>172.20000000000005</ele>
<time>2023-05-18T10:30:22Z</time>
</trkpt>
<trkpt lat="49.37089193612337" lon="8.09375798329711">
<ele>172.20000000000005</ele>
<time>2023-05-18T10:30:23Z</time>
</trkpt>
<trkpt lat="49.370922949165106" lon="8.093706937506795">
<ele>172.20000000000005</ele>
<time>2023-05-18T10:30:24Z</time>
</trkpt>
<trkpt lat="49.37095295637846" lon="8.093659998849034">
<ele>172.39999999999998</ele>
<time>2023-05-18T10:30:25Z</time>
</trkpt>
<trkpt lat="49.370986986905336" lon="8.093617921695113">
<ele>172.39999999999998</ele>
<time>2023-05-18T10:30:26Z</time>
</trkpt>
<trkpt lat="49.3710199277848" lon="8.093577940016985">
<ele>172.60000000000002</ele>
<time>2023-05-18T10:30:27Z</time>
</trkpt>
<trkpt lat="49.371052952483296" lon="8.093536952510476">
<ele>172.60000000000002</ele>
<time>2023-05-18T10:30:28Z</time>
</trkpt>
<trkpt lat="49.37108698301017" lon="8.093494959175587">
<ele>172.60000000000002</ele>
<time>2023-05-18T10:30:29Z</time>
</trkpt>
<trkpt lat="49.37111992388964" lon="8.093449948355556">
<ele>172.79999999999995</ele>
<time>2023-05-18T10:30:30Z</time>
</trkpt>
<trkpt lat="49.371154960244894" lon="8.093406949192286">
<ele>172.79999999999995</ele>
<time>2023-05-18T10:30:31Z</time>
</trkpt>
<trkpt lat="49.37118798494339" lon="8.093362944200635">
<ele>173</ele>
<time>2023-05-18T10:30:32Z</time>
</trkpt>
<trkpt lat="49.371222937479615" lon="8.093322962522507">
<ele>173</ele>
<time>2023-05-18T10:30:33Z</time>
</trkpt>
<trkpt lat="49.37125998549163" lon="8.093282980844378">
<ele>173.20000000000005</ele>
<time>2023-05-18T10:30:34Z</time>
</trkpt>
<trkpt lat="49.37129694968462" lon="8.09324299916625">
<ele>173.20000000000005</ele>
<time>2023-05-18T10:30:35Z</time>
</trkpt>
<trkpt lat="49.37133198603988" lon="8.09320192784071">
<ele>173.20000000000005</ele>
<time>2023-05-18T10:30:36Z</time>
</trkpt>
<trkpt lat="49.37136794440448" lon="8.093157922849059">
<ele>173.39999999999998</ele>
<time>2023-05-18T10:30:37Z</time>
</trkpt>
<trkpt lat="49.3714049924165" lon="8.09311794117093">
<ele>173.39999999999998</ele>
<time>2023-05-18T10:30:38Z</time>
</trkpt>
<trkpt lat="49.37144195660949" lon="8.093076953664422">
<ele>173.39999999999998</ele>
<time>2023-05-18T10:30:39Z</time>
</trkpt>
<trkpt lat="49.371476992964745" lon="8.093036971986294">
<ele>173.60000000000002</ele>
<time>2023-05-18T10:30:40Z</time>
</trkpt>
<trkpt lat="49.37151194550097" lon="8.092994978651404">
<ele>173.60000000000002</ele>
<time>2023-05-18T10:30:41Z</time>
</trkpt>
<trkpt lat="49.37154798768461" lon="8.092952985316515">
<ele>173.60000000000002</ele>
<time>2023-05-18T10:30:42Z</time>
</trkpt>
<trkpt lat="49.37158294022083" lon="8.092906968668103">
<ele>173.79999999999995</ele>
<time>2023-05-18T10:30:43Z</time>
</trkpt>
<trkpt lat="49.37161797657609" lon="8.09285994619131">
<ele>173.79999999999995</ele>
<time>2023-05-18T10:30:44Z</time>
</trkpt>
<trkpt lat="49.371649995446205" lon="8.09281493537128">
<ele>174</ele>
<time>2023-05-18T10:30:45Z</time>
</trkpt>
<trkpt lat="49.37168293632567" lon="8.09277193620801">
<ele>174</ele>
<time>2023-05-18T10:30:46Z</time>
</trkpt>
<trkpt lat="49.371714955195785" lon="8.09272793121636">
<ele>174</ele>
<time>2023-05-18T10:30:47Z</time>
</trkpt>
<trkpt lat="49.37174797989428" lon="8.09268493205309">
<ele>174.20000000000005</ele>
<time>2023-05-18T10:30:48Z</time>
</trkpt>
<trkpt lat="49.371781926602125" lon="8.09264193288982">
<ele>174.20000000000005</ele>
<time>2023-05-18T10:30:49Z</time>
</trkpt>
<trkpt lat="49.37181696295738" lon="8.09259993955493">
<ele>174.20000000000005</ele>
<time>2023-05-18T10:30:50Z</time>
</trkpt>
<trkpt lat="49.37185199931264" lon="8.09255794622004">
<ele>174.20000000000005</ele>
<time>2023-05-18T10:30:51Z</time>
</trkpt>
<trkpt lat="49.371886951848865" lon="8.092516958713531">
<ele>174.20000000000005</ele>
<time>2023-05-18T10:30:52Z</time>
</trkpt>
<trkpt lat="49.37192198820412" lon="8.092472953721881">
<ele>174.20000000000005</ele>
<time>2023-05-18T10:30:53Z</time>
</trkpt>
<trkpt lat="49.37195794656873" lon="8.092432972043753">
<ele>174.20000000000005</ele>
<time>2023-05-18T10:30:54Z</time>
</trkpt>
<trkpt lat="49.371996922418475" lon="8.092392990365624">
<ele>174.20000000000005</ele>
<time>2023-05-18T10:30:55Z</time>
</trkpt>
<trkpt lat="49.37203296460211" lon="8.092356948181987">
<ele>174.20000000000005</ele>
<time>2023-05-18T10:30:56Z</time>
</trkpt>
<trkpt lat="49.3720699287951" lon="8.092316966503859">
<ele>174.20000000000005</ele>
<time>2023-05-18T10:30:57Z</time>
</trkpt>
<trkpt lat="49.37210697680712" lon="8.092277990654111">
<ele>174.20000000000005</ele>
<time>2023-05-18T10:30:58Z</time>
</trkpt>
<trkpt lat="49.37214192934334" lon="8.092241948470473">
<ele>174.20000000000005</ele>
<time>2023-05-18T10:30:59Z</time>
</trkpt>
<trkpt lat="49.3721769656986" lon="8.092206995934248">
<ele>174.20000000000005</ele>
<time>2023-05-18T10:31:00Z</time>
</trkpt>
<trkpt lat="49.372211918234825" lon="8.09216994792223">
<ele>174.20000000000005</ele>
<time>2023-05-18T10:31:01Z</time>
</trkpt>
<trkpt lat="49.37224192544818" lon="8.09212694875896">
<ele>174.20000000000005</ele>
<time>2023-05-18T10:31:02Z</time>
</trkpt>
<trkpt lat="49.37225994654" lon="8.092071963474154">
<ele>174.20000000000005</ele>
<time>2023-05-18T10:31:03Z</time>
</trkpt>
<trkpt lat="49.37226296402514" lon="8.092014966532588">
<ele>174</ele>
<time>2023-05-18T10:31:04Z</time>
</trkpt>
<trkpt lat="49.372256929054856" lon="8.091961992904544">
<ele>174</ele>
<time>2023-05-18T10:31:05Z</time>
</trkpt>
<trkpt lat="49.37226296402514" lon="8.09191295877099">
<ele>174</ele>
<time>2023-05-18T10:31:06Z</time>
</trkpt>
<trkpt lat="49.37228693626821" lon="8.09186995960772">
<ele>174</ele>
<time>2023-05-18T10:31:07Z</time>
</trkpt>
<trkpt lat="49.37232197262347" lon="8.09184699319303">
<ele>173.79999999999995</ele>
<time>2023-05-18T10:31:08Z</time>
</trkpt>
<trkpt lat="49.372359942644835" lon="8.09182494878769">
<ele>173.79999999999995</ele>
<time>2023-05-18T10:31:09Z</time>
</trkpt>
<trkpt lat="49.37239992432296" lon="8.091797959059477">
<ele>173.60000000000002</ele>
<time>2023-05-18T10:31:10Z</time>
</trkpt>
<trkpt lat="49.37243797816336" lon="8.091769963502884">
<ele>173.39999999999998</ele>
<time>2023-05-18T10:31:11Z</time>
</trkpt>
<trkpt lat="49.37247494235635" lon="8.09173995628953">
<ele>173.20000000000005</ele>
<time>2023-05-18T10:31:12Z</time>
</trkpt>
<trkpt lat="49.372509978711605" lon="8.091709949076176">
<ele>173</ele>
<time>2023-05-18T10:31:13Z</time>
</trkpt>
<trkpt lat="49.37254291959107" lon="8.09167692437768">
<ele>173</ele>
<time>2023-05-18T10:31:14Z</time>
</trkpt>
<trkpt lat="49.372577955946326" lon="8.091642977669835">
<ele>172.79999999999995</ele>
<time>2023-05-18T10:31:15Z</time>
</trkpt>
<trkpt lat="49.37261492013931" lon="8.09160995297134">
<ele>172.60000000000002</ele>
<time>2023-05-18T10:31:16Z</time>
</trkpt>
<trkpt lat="49.37264995649457" lon="8.091576928272843">
<ele>172.39999999999998</ele>
<time>2023-05-18T10:31:17Z</time>
</trkpt>
<trkpt lat="49.372682981193066" lon="8.091542981564999">
<ele>172</ele>
<time>2023-05-18T10:31:18Z</time>
</trkpt>
<trkpt lat="49.37271692790091" lon="8.091507945209742">
<ele>171.79999999999995</ele>
<time>2023-05-18T10:31:19Z</time>
</trkpt>
<trkpt lat="49.37275196425617" lon="8.091471986845136">
<ele>171.60000000000002</ele>
<time>2023-05-18T10:31:20Z</time>
</trkpt>
<trkpt lat="49.37278498895466" lon="8.09143795631826">
<ele>171.39999999999998</ele>
<time>2023-05-18T10:31:21Z</time>
</trkpt>
<trkpt lat="49.37281499616802" lon="8.091402919963002">
<ele>171.20000000000005</ele>
<time>2023-05-18T10:31:22Z</time>
</trkpt>
<trkpt lat="49.3728469312191" lon="8.091379953548312">
<ele>171</ele>
<time>2023-05-18T10:31:23Z</time>
</trkpt>
<trkpt lat="49.372874926775694" lon="8.09137299656868">
<ele>170.79999999999995</ele>
<time>2023-05-18T10:31:24Z</time>
</trkpt>
<trkpt lat="49.37289998866618" lon="8.091382971033454">
<ele>170.60000000000002</ele>
<time>2023-05-18T10:31:25Z</time>
</trkpt>
<trkpt lat="49.37292798422277" lon="8.09139495715499">
<ele>170.39999999999998</ele>
<time>2023-05-18T10:31:26Z</time>
</trkpt>
<trkpt lat="49.37295698560774" lon="8.091406943276525">
<ele>170.39999999999998</ele>
<time>2023-05-18T10:31:27Z</time>
</trkpt>
<trkpt lat="49.372984981164336" lon="8.091411972418427">
<ele>170.20000000000005</ele>
<time>2023-05-18T10:31:28Z</time>
</trkpt>
<trkpt lat="49.37302194535732" lon="8.091464946046472">
<ele>170.20000000000005</ele>
<time>2023-05-18T10:31:29Z</time>
</trkpt>
<trkpt lat="49.373046923428774" lon="8.091536946594715">
<ele>170</ele>
<time>2023-05-18T10:31:30Z</time>
</trkpt>
<trkpt lat="49.373069973662496" lon="8.091559996828437">
<ele>170</ele>
<time>2023-05-18T10:31:31Z</time>
</trkpt>
<trkpt lat="49.37309696339071" lon="8.091557985171676">
<ele>169.79999999999995</ele>
<time>2023-05-18T10:31:32Z</time>
</trkpt>
<trkpt lat="49.373131999745965" lon="8.091531917452812">
<ele>169.79999999999995</ele>
<time>2023-05-18T10:31:33Z</time>
</trkpt>
<trkpt lat="49.37315999530256" lon="8.091491935774684">
<ele>169.79999999999995</ele>
<time>2023-05-18T10:31:34Z</time>
</trkpt>
<trkpt lat="49.37318698503077" lon="8.091441979631782">
<ele>169.60000000000002</ele>
<time>2023-05-18T10:31:35Z</time>
</trkpt>
<trkpt lat="49.3732129689306" lon="8.091392945498228">
<ele>169.60000000000002</ele>
<time>2023-05-18T10:31:36Z</time>
</trkpt>
<trkpt lat="49.37324498780072" lon="8.091344917193055">
<ele>169.60000000000002</ele>
<time>2023-05-18T10:31:37Z</time>
</trkpt>
<trkpt lat="49.373281951993704" lon="8.09128993190825">
<ele>169.60000000000002</ele>
<time>2023-05-18T10:31:38Z</time>
</trkpt>
<trkpt lat="49.37331799417734" lon="8.091231929138303">
<ele>169.60000000000002</ele>
<time>2023-05-18T10:31:39Z</time>
</trkpt>
<trkpt lat="49.37335697002709" lon="8.091169986873865">
<ele>169.60000000000002</ele>
<time>2023-05-18T10:31:40Z</time>
</trkpt>
<trkpt lat="49.37339695170522" lon="8.091104943305254">
<ele>169.60000000000002</ele>
<time>2023-05-18T10:31:41Z</time>
</trkpt>
<trkpt lat="49.373437939211726" lon="8.091037971898913">
<ele>169.60000000000002</ele>
<time>2023-05-18T10:31:42Z</time>
</trkpt>
<trkpt lat="49.373479932546616" lon="8.09096496552229">
<ele>169.79999999999995</ele>
<time>2023-05-18T10:31:43Z</time>
</trkpt>
<trkpt lat="49.373521925881505" lon="8.090887935832143">
<ele>169.79999999999995</ele>
<time>2023-05-18T10:31:44Z</time>
</trkpt>
<trkpt lat="49.373559979721904" lon="8.090811995789409">
<ele>169.79999999999995</ele>
<time>2023-05-18T10:31:45Z</time>
</trkpt>
<trkpt lat="49.37359493225813" lon="8.090737983584404">
<ele>169.79999999999995</ele>
<time>2023-05-18T10:31:46Z</time>
</trkpt>
<trkpt lat="49.373629968613386" lon="8.090661959722638">
<ele>169.79999999999995</ele>
<time>2023-05-18T10:31:47Z</time>
</trkpt>
<trkpt lat="49.37366693280637" lon="8.090584930032492">
<ele>170</ele>
<time>2023-05-18T10:31:48Z</time>
</trkpt>
<trkpt lat="49.37370297499001" lon="8.090504966676235">
<ele>170</ele>
<time>2023-05-18T10:31:49Z</time>
</trkpt>
<trkpt lat="49.373734993860126" lon="8.090427936986089">
<ele>170</ele>
<time>2023-05-18T10:31:50Z</time>
</trkpt>
<trkpt lat="49.37376298941672" lon="8.090347973629832">
<ele>170.20000000000005</ele>
<time>2023-05-18T10:31:51Z</time>
</trkpt>
<trkpt lat="49.37379199080169" lon="8.090269938111305">
<ele>170.39999999999998</ele>
<time>2023-05-18T10:31:52Z</time>
</trkpt>
<trkpt lat="49.373817974701524" lon="8.09019492007792">
<ele>170.39999999999998</ele>
<time>2023-05-18T10:31:53Z</time>
</trkpt>
<trkpt lat="49.373844964429736" lon="8.090121997520328">
<ele>170.60000000000002</ele>
<time>2023-05-18T10:31:54Z</time>
</trkpt>
<trkpt lat="49.373867930844426" lon="8.090047985315323">
<ele>170.79999999999995</ele>
<time>2023-05-18T10:31:55Z</time>
</trkpt>
<trkpt lat="49.373887963593006" lon="8.089972967281938">
<ele>170.79999999999995</ele>
<time>2023-05-18T10:31:56Z</time>
</trkpt>
<trkpt lat="49.373909924179316" lon="8.089897949248552">
<ele>171</ele>
<time>2023-05-18T10:31:57Z</time>
</trkpt>
<trkpt lat="49.373929956927896" lon="8.08982796035707">
<ele>171</ele>
<time>2023-05-18T10:31:58Z</time>
</trkpt>
<trkpt lat="49.373949989676476" lon="8.089756965637207">
<ele>171.20000000000005</ele>
<time>2023-05-18T10:31:59Z</time>
</trkpt>
<trkpt lat="49.37396792694926" lon="8.089689994230866">
<ele>171.20000000000005</ele>
<time>2023-05-18T10:32:00Z</time>
</trkpt>
<trkpt lat="49.37398695386946" lon="8.089627968147397">
<ele>171.39999999999998</ele>
<time>2023-05-18T10:32:01Z</time>
</trkpt>
<trkpt lat="49.373992988839746" lon="8.089567953720689">
<ele>171.39999999999998</ele>
<time>2023-05-18T10:32:02Z</time>
</trkpt>
<trkpt lat="49.37400296330452" lon="8.0895069334656">
<ele>171.39999999999998</ele>
<time>2023-05-18T10:32:03Z</time>
</trkpt>
<trkpt lat="49.37401997856796" lon="8.089444991201162">
<ele>171.60000000000002</ele>
<time>2023-05-18T10:32:04Z</time>
</trkpt>
<trkpt lat="49.37402995303273" lon="8.089382965117693">
<ele>171.60000000000002</ele>
<time>2023-05-18T10:32:05Z</time>
</trkpt>
<trkpt lat="49.37404193915427" lon="8.089316999539733">
<ele>171.60000000000002</ele>
<time>2023-05-18T10:32:06Z</time>
</trkpt>
<trkpt lat="49.37405291944742" lon="8.0892479326576">
<ele>171.79999999999995</ele>
<time>2023-05-18T10:32:07Z</time>
</trkpt>
<trkpt lat="49.37406498938799" lon="8.089179955422878">
<ele>171.79999999999995</ele>
<time>2023-05-18T10:32:08Z</time>
</trkpt>
<trkpt lat="49.37407496385276" lon="8.089111978188157">
<ele>171.79999999999995</ele>
<time>2023-05-18T10:32:09Z</time>
</trkpt>
<trkpt lat="49.3740869499743" lon="8.089042995125055">
<ele>172</ele>
<time>2023-05-18T10:32:10Z</time>
</trkpt>
<trkpt lat="49.37409692443907" lon="8.088976945728064">
<ele>172</ele>
<time>2023-05-18T10:32:11Z</time>
</trkpt>
<trkpt lat="49.37410497106612" lon="8.088909974321723">
<ele>172</ele>
<time>2023-05-18T10:32:12Z</time>
</trkpt>
<trkpt lat="49.37411494553089" lon="8.088844930753112">
<ele>172.20000000000005</ele>
<time>2023-05-18T10:32:13Z</time>
</trkpt>
<trkpt lat="49.374121986329556" lon="8.088777959346771">
<ele>172.20000000000005</ele>
<time>2023-05-18T10:32:14Z</time>
</trkpt>
<trkpt lat="49.37412793748081" lon="8.088712999597192">
<ele>172.20000000000005</ele>
<time>2023-05-18T10:32:15Z</time>
</trkpt>
<trkpt lat="49.37413296662271" lon="8.088649967685342">
<ele>172.39999999999998</ele>
<time>2023-05-18T10:32:16Z</time>
</trkpt>
<trkpt lat="49.37413992360234" lon="8.088587941601872">
<ele>172.39999999999998</ele>
<time>2023-05-18T10:32:17Z</time>
</trkpt>
<trkpt lat="49.37414696440101" lon="8.088522981852293">
<ele>172.39999999999998</ele>
<time>2023-05-18T10:32:18Z</time>
</trkpt>
<trkpt lat="49.37415492720902" lon="8.088457938283682">
<ele>172.39999999999998</ele>
<time>2023-05-18T10:32:19Z</time>
</trkpt>
<trkpt lat="49.374161968007684" lon="8.08838996104896">
<ele>172.39999999999998</ele>
<time>2023-05-18T10:32:20Z</time>
</trkpt>
<trkpt lat="49.374167919158936" lon="8.08832298964262">
<ele>172.39999999999998</ele>
<time>2023-05-18T10:32:21Z</time>
</trkpt>
<trkpt lat="49.3741749599576" lon="8.088254928588867">
<ele>172.60000000000002</ele>
<time>2023-05-18T10:32:22Z</time>
</trkpt>
<trkpt lat="49.3741799890995" lon="8.088182928040624">
<ele>172.60000000000002</ele>
<time>2023-05-18T10:32:23Z</time>
</trkpt>
<trkpt lat="49.374186946079135" lon="8.088116962462664">
<ele>172.60000000000002</ele>
<time>2023-05-18T10:32:24Z</time>
</trkpt>
<trkpt lat="49.37419197522104" lon="8.088046973571181">
<ele>172.60000000000002</ele>
<time>2023-05-18T10:32:25Z</time>
</trkpt>
<trkpt lat="49.37419792637229" lon="8.087979918345809">
<ele>172.60000000000002</ele>
<time>2023-05-18T10:32:26Z</time>
</trkpt>
<trkpt lat="49.37420295551419" lon="8.087912946939468">
<ele>172.60000000000002</ele>
<time>2023-05-18T10:32:27Z</time>
</trkpt>
<trkpt lat="49.37420999631286" lon="8.08785192668438">
<ele>172.60000000000002</ele>
<time>2023-05-18T10:32:28Z</time>
</trkpt>
<trkpt lat="49.374211924150586" lon="8.08778797276318">
<ele>172.60000000000002</ele>
<time>2023-05-18T10:32:29Z</time>
</trkpt>
<trkpt lat="49.37421292997897" lon="8.08772292919457">
<ele>172.60000000000002</ele>
<time>2023-05-18T10:32:30Z</time>
</trkpt>
<trkpt lat="49.37421494163573" lon="8.087659981101751">
<ele>172.60000000000002</ele>
<time>2023-05-18T10:32:31Z</time>
</trkpt>
<trkpt lat="49.37421695329249" lon="8.08759493753314">
<ele>172.60000000000002</ele>
<time>2023-05-18T10:32:32Z</time>
</trkpt>
<trkpt lat="49.37421997077763" lon="8.087531989440322">
<ele>172.60000000000002</ele>
<time>2023-05-18T10:32:33Z</time>
</trkpt>
<trkpt lat="49.37421997077763" lon="8.087467951700091">
<ele>172.60000000000002</ele>
<time>2023-05-18T10:32:34Z</time>
</trkpt>
<trkpt lat="49.37422198243439" lon="8.087404919788241">
<ele>172.60000000000002</ele>
<time>2023-05-18T10:32:35Z</time>
</trkpt>
<trkpt lat="49.37421997077763" lon="8.087344989180565">
<ele>172.60000000000002</ele>
<time>2023-05-18T10:32:36Z</time>
</trkpt>
<trkpt lat="49.37421997077763" lon="8.087286986410618">
<ele>172.60000000000002</ele>
<time>2023-05-18T10:32:37Z</time>
</trkpt>
<trkpt lat="49.37421997077763" lon="8.087224960327148">
<ele>172.60000000000002</ele>
<time>2023-05-18T10:32:38Z</time>
</trkpt>
<trkpt lat="49.37422198243439" lon="8.087161928415298">
<ele>172.60000000000002</ele>
<time>2023-05-18T10:32:39Z</time>
</trkpt>
<trkpt lat="49.37422198243439" lon="8.08709998615086">
<ele>172.39999999999998</ele>
<time>2023-05-18T10:32:40Z</time>
</trkpt>
<trkpt lat="49.37422198243439" lon="8.08703695423901">
<ele>172.39999999999998</ele>
<time>2023-05-18T10:32:41Z</time>
</trkpt>
<trkpt lat="49.37421997077763" lon="8.08696998283267">
<ele>172.39999999999998</ele>
<time>2023-05-18T10:32:42Z</time>
</trkpt>
<trkpt lat="49.37422198243439" lon="8.0869079567492">
<ele>172.20000000000005</ele>
<time>2023-05-18T10:32:43Z</time>
</trkpt>
<trkpt lat="49.37422298826277" lon="8.086846936494112">
<ele>172.20000000000005</ele>
<time>2023-05-18T10:32:44Z</time>
</trkpt>
<trkpt lat="49.37422198243439" lon="8.086784994229674">
<ele>172.20000000000005</ele>
<time>2023-05-18T10:32:45Z</time>
</trkpt>
<trkpt lat="49.374224999919534" lon="8.086724979802966">
<ele>172.20000000000005</ele>
<time>2023-05-18T10:32:46Z</time>
</trkpt>
<trkpt lat="49.37421795912087" lon="8.086666977033019">
<ele>172.20000000000005</ele>
<time>2023-05-18T10:32:47Z</time>
</trkpt>
<trkpt lat="49.37421795912087" lon="8.086609980091453">
<ele>172.20000000000005</ele>
<time>2023-05-18T10:32:48Z</time>
</trkpt>
<trkpt lat="49.37421795912087" lon="8.086546948179603">
<ele>172.20000000000005</ele>
<time>2023-05-18T10:32:49Z</time>
</trkpt>
<trkpt lat="49.37422198243439" lon="8.086482994258404">
<ele>172.20000000000005</ele>
<time>2023-05-18T10:32:50Z</time>
</trkpt>
<trkpt lat="49.374224999919534" lon="8.086419962346554">
<ele>172.20000000000005</ele>
<time>2023-05-18T10:32:51Z</time>
</trkpt>
<trkpt lat="49.37422692775726" lon="8.086359947919846">
<ele>172.20000000000005</ele>
<time>2023-05-18T10:32:52Z</time>
</trkpt>
<trkpt lat="49.37422692775726" lon="8.086299933493137">
<ele>172.20000000000005</ele>
<time>2023-05-18T10:32:53Z</time>
</trkpt>
<trkpt lat="49.374231956899166" lon="8.086236985400319">
<ele>172.20000000000005</ele>
<time>2023-05-18T10:32:54Z</time>
</trkpt>
<trkpt lat="49.37423296272755" lon="8.086172947660089">
<ele>172.20000000000005</ele>
<time>2023-05-18T10:32:55Z</time>
</trkpt>
<trkpt lat="49.37423497438431" lon="8.086104970425367">
<ele>172.20000000000005</ele>
<time>2023-05-18T10:32:56Z</time>
</trkpt>
<trkpt lat="49.37424293719232" lon="8.086032969877124">
<ele>172.20000000000005</ele>
<time>2023-05-18T10:32:57Z</time>
</trkpt>
<trkpt lat="49.374251989647746" lon="8.085956946015358">
<ele>172.20000000000005</ele>
<time>2023-05-18T10:32:58Z</time>
</trkpt>
<trkpt lat="49.37425995245576" lon="8.085877988487482">
<ele>172.20000000000005</ele>
<time>2023-05-18T10:32:59Z</time>
</trkpt>
<trkpt lat="49.374267999082804" lon="8.085801964625716">
<ele>172.20000000000005</ele>
<time>2023-05-18T10:33:00Z</time>
</trkpt>
<trkpt lat="49.374272944405675" lon="8.08572493493557">
<ele>172.39999999999998</ele>
<time>2023-05-18T10:33:01Z</time>
</trkpt>
<trkpt lat="49.374274956062436" lon="8.085642959922552">
<ele>172.39999999999998</ele>
<time>2023-05-18T10:33:02Z</time>
</trkpt>
<trkpt lat="49.374272944405675" lon="8.085559979081154">
<ele>172.39999999999998</ele>
<time>2023-05-18T10:33:03Z</time>
</trkpt>
<trkpt lat="49.374272944405675" lon="8.085477920249104">
<ele>172.60000000000002</ele>
<time>2023-05-18T10:33:04Z</time>
</trkpt>
<trkpt lat="49.374271938577294" lon="8.085394939407706">
<ele>172.60000000000002</ele>
<time>2023-05-18T10:33:05Z</time>
</trkpt>
<trkpt lat="49.37426498159766" lon="8.085311958566308">
<ele>172.79999999999995</ele>
<time>2023-05-18T10:33:06Z</time>
</trkpt>
<trkpt lat="49.37425693497062" lon="8.085226966068149">
<ele>172.79999999999995</ele>
<time>2023-05-18T10:33:07Z</time>
</trkpt>
<trkpt lat="49.374249977990985" lon="8.08514297939837">
<ele>172.79999999999995</ele>
<time>2023-05-18T10:33:08Z</time>
</trkpt>
<trkpt lat="49.37423799186945" lon="8.085059998556972">
<ele>173</ele>
<time>2023-05-18T10:33:09Z</time>
</trkpt>
<trkpt lat="49.374227933585644" lon="8.084972994402051">
<ele>173</ele>
<time>2023-05-18T10:33:10Z</time>
</trkpt>
<trkpt lat="49.37421795912087" lon="8.084889929741621">
<ele>173</ele>
<time>2023-05-18T10:33:11Z</time>
</trkpt>
<trkpt lat="49.37421292997897" lon="8.0848029255867">
<ele>173</ele>
<time>2023-05-18T10:33:12Z</time>
</trkpt>
<trkpt lat="49.37420194968581" lon="8.084721956402063">
<ele>173</ele>
<time>2023-05-18T10:33:13Z</time>
</trkpt>
<trkpt lat="49.374187951907516" lon="8.084639981389046">
<ele>173.20000000000005</ele>
<time>2023-05-18T10:33:14Z</time>
</trkpt>
<trkpt lat="49.37417697161436" lon="8.084557922556996">
<ele>173.20000000000005</ele>
<time>2023-05-18T10:33:15Z</time>
</trkpt>
<trkpt lat="49.37416699714959" lon="8.084474941715598">
<ele>173.20000000000005</ele>
<time>2023-05-18T10:33:16Z</time>
</trkpt>
<trkpt lat="49.37415492720902" lon="8.0843919608742">
<ele>173.20000000000005</ele>
<time>2023-05-18T10:33:17Z</time>
</trkpt>
<trkpt lat="49.37414696440101" lon="8.084307974204421">
<ele>173.20000000000005</ele>
<time>2023-05-18T10:33:18Z</time>
</trkpt>
<trkpt lat="49.37413497827947" lon="8.084222981706262">
<ele>173.20000000000005</ele>
<time>2023-05-18T10:33:19Z</time>
</trkpt>
<trkpt lat="49.374121986329556" lon="8.084137989208102">
<ele>173.20000000000005</ele>
<time>2023-05-18T10:33:20Z</time>
</trkpt>
<trkpt lat="49.37410798855126" lon="8.084054924547672">
<ele>173.39999999999998</ele>
<time>2023-05-18T10:33:21Z</time>
</trkpt>
<trkpt lat="49.37409793026745" lon="8.083972949534655">
<ele>173.39999999999998</ele>
<time>2023-05-18T10:33:22Z</time>
</trkpt>
<trkpt lat="49.3740869499743" lon="8.083891980350018">
<ele>173.39999999999998</ele>
<time>2023-05-18T10:33:23Z</time>
</trkpt>
<trkpt lat="49.37407496385276" lon="8.083807993680239">
<ele>173.39999999999998</ele>
<time>2023-05-18T10:33:24Z</time>
</trkpt>
<trkpt lat="49.374059960246086" lon="8.083724929019809">
<ele>173.60000000000002</ele>
<time>2023-05-18T10:33:25Z</time>
</trkpt>
<trkpt lat="49.37404495663941" lon="8.083642954006791">
<ele>173.60000000000002</ele>
<time>2023-05-18T10:33:26Z</time>
</trkpt>
<trkpt lat="49.37403196468949" lon="8.083561984822154">
<ele>173.60000000000002</ele>
<time>2023-05-18T10:33:27Z</time>
</trkpt>
<trkpt lat="49.3740179669112" lon="8.083477998152375">
<ele>173.60000000000002</ele>
<time>2023-05-18T10:33:28Z</time>
</trkpt>
<trkpt lat="49.37400296330452" lon="8.083397950977087">
<ele>173.60000000000002</ele>
<time>2023-05-18T10:33:29Z</time>
</trkpt>
<trkpt lat="49.37398795969784" lon="8.08331798762083">
<ele>173.60000000000002</ele>
<time>2023-05-18T10:33:30Z</time>
</trkpt>
<trkpt lat="49.373972956091166" lon="8.083242969587445">
<ele>173.60000000000002</ele>
<time>2023-05-18T10:33:31Z</time>
</trkpt>
<trkpt lat="49.37396197579801" lon="8.083162922412157">
<ele>173.60000000000002</ele>
<time>2023-05-18T10:33:32Z</time>
</trkpt>
<trkpt lat="49.373949989676476" lon="8.0830829590559">
<ele>173.60000000000002</ele>
<time>2023-05-18T10:33:33Z</time>
</trkpt>
<trkpt lat="49.3739349860698" lon="8.083004923537374">
<ele>173.79999999999995</ele>
<time>2023-05-18T10:33:34Z</time>
</trkpt>
<trkpt lat="49.37391998246312" lon="8.082924960181117">
<ele>173.79999999999995</ele>
<time>2023-05-18T10:33:35Z</time>
</trkpt>
<trkpt lat="49.373906990513206" lon="8.08284499682486">
<ele>173.79999999999995</ele>
<time>2023-05-18T10:33:36Z</time>
</trkpt>
<trkpt lat="49.373887963593006" lon="8.082764949649572">
<ele>173.79999999999995</ele>
<time>2023-05-18T10:33:37Z</time>
</trkpt>
<trkpt lat="49.37387295998633" lon="8.082681968808174">
<ele>173.79999999999995</ele>
<time>2023-05-18T10:33:38Z</time>
</trkpt>
<trkpt lat="49.37385795637965" lon="8.082599993795156">
<ele>173.79999999999995</ele>
<time>2023-05-18T10:33:39Z</time>
</trkpt>
<trkpt lat="49.373842952772975" lon="8.082517934963107">
<ele>173.79999999999995</ele>
<time>2023-05-18T10:33:40Z</time>
</trkpt>
<trkpt lat="49.3738279491663" lon="8.082434954121709">
<ele>173.79999999999995</ele>
<time>2023-05-18T10:33:41Z</time>
</trkpt>
<trkpt lat="49.37381294555962" lon="8.08235197328031">
<ele>173.79999999999995</ele>
<time>2023-05-18T10:33:42Z</time>
</trkpt>
<trkpt lat="49.373797941952944" lon="8.082267986610532">
<ele>173.79999999999995</ele>
<time>2023-05-18T10:33:43Z</time>
</trkpt>
<trkpt lat="49.37378696165979" lon="8.082196991890669">
<ele>173.60000000000002</ele>
<time>2023-05-18T10:33:44Z</time>
</trkpt>
<trkpt lat="49.373776987195015" lon="8.0821349658072">
<ele>173.60000000000002</ele>
<time>2023-05-18T10:33:45Z</time>
</trkpt>
<trkpt lat="49.37376298941672" lon="8.082081992179155">
<ele>173.60000000000002</ele>
<time>2023-05-18T10:33:46Z</time>
</trkpt>
<trkpt lat="49.3737499974668" lon="8.082027928903699">
<ele>173.60000000000002</ele>
<time>2023-05-18T10:33:47Z</time>
</trkpt>
<trkpt lat="49.373736921697855" lon="8.081977972760797">
<ele>173.39999999999998</ele>
<time>2023-05-18T10:33:48Z</time>
</trkpt>
<trkpt lat="49.37371999025345" lon="8.081927932798862">
<ele>173.39999999999998</ele>
<time>2023-05-18T10:33:49Z</time>
</trkpt>
<trkpt lat="49.37370297499001" lon="8.081871941685677">
<ele>173.39999999999998</ele>
<time>2023-05-18T10:33:50Z</time>
</trkpt>
<trkpt lat="49.37368797138333" lon="8.081809999421239">
<ele>173.39999999999998</ele>
<time>2023-05-18T10:33:51Z</time>
</trkpt>
<trkpt lat="49.373672967776656" lon="8.081746967509389">
<ele>173.20000000000005</ele>
<time>2023-05-18T10:33:52Z</time>
</trkpt>
<trkpt lat="49.3736569583416" lon="8.081677984446287">
<ele>173.20000000000005</ele>
<time>2023-05-18T10:33:53Z</time>
</trkpt>
<trkpt lat="49.37364497222006" lon="8.081604978069663">
<ele>173.20000000000005</ele>
<time>2023-05-18T10:33:54Z</time>
</trkpt>
<trkpt lat="49.3736379314214" lon="8.081531971693039">
<ele>173.20000000000005</ele>
<time>2023-05-18T10:33:55Z</time>
</trkpt>
<trkpt lat="49.373627956956625" lon="8.081461982801557">
<ele>173.20000000000005</ele>
<time>2023-05-18T10:33:56Z</time>
</trkpt>
<trkpt lat="49.37362192198634" lon="8.081387970596552">
<ele>173</ele>
<time>2023-05-18T10:33:57Z</time>
</trkpt>
<trkpt lat="49.37361697666347" lon="8.081311946734786">
<ele>173</ele>
<time>2023-05-18T10:33:58Z</time>
</trkpt>
<trkpt lat="49.37361295334995" lon="8.081237934529781">
<ele>173</ele>
<time>2023-05-18T10:33:59Z</time>
</trkpt>
<trkpt lat="49.373606918379664" lon="8.081161994487047">
<ele>173</ele>
<time>2023-05-18T10:34:00Z</time>
</trkpt>
<trkpt lat="49.37359694391489" lon="8.081086976453662">
<ele>173</ele>
<time>2023-05-18T10:34:01Z</time>
</trkpt>
<trkpt lat="49.3735879752785" lon="8.081007935106754">
<ele>173</ele>
<time>2023-05-18T10:34:02Z</time>
</trkpt>
<trkpt lat="49.37357699498534" lon="8.080929983407259">
<ele>173</ele>
<time>2023-05-18T10:34:03Z</time>
</trkpt>
<trkpt lat="49.37356794252992" lon="8.080852953717113">
<ele>173</ele>
<time>2023-05-18T10:34:04Z</time>
</trkpt>
<trkpt lat="49.373561991378665" lon="8.080774918198586">
<ele>173</ele>
<time>2023-05-18T10:34:05Z</time>
</trkpt>
<trkpt lat="49.37355293892324" lon="8.08069797232747">
<ele>173</ele>
<time>2023-05-18T10:34:06Z</time>
</trkpt>
<trkpt lat="49.37354698777199" lon="8.080622954294086">
<ele>173</ele>
<time>2023-05-18T10:34:07Z</time>
</trkpt>
<trkpt lat="49.373542964458466" lon="8.0805479362607">
<ele>173</ele>
<time>2023-05-18T10:34:08Z</time>
</trkpt>
<trkpt lat="49.37353692948818" lon="8.080477947369218">
<ele>173</ele>
<time>2023-05-18T10:34:09Z</time>
</trkpt>
<trkpt lat="49.37352494336665" lon="8.080411981791258">
<ele>173</ele>
<time>2023-05-18T10:34:10Z</time>
</trkpt>
<trkpt lat="49.373516980558634" lon="8.080339981243014">
<ele>173</ele>
<time>2023-05-18T10:34:11Z</time>
</trkpt>
<trkpt lat="49.37350792810321" lon="8.08026697486639">
<ele>173.20000000000005</ele>
<time>2023-05-18T10:34:12Z</time>
</trkpt>
<trkpt lat="49.373496947810054" lon="8.080192962661386">
<ele>173.20000000000005</ele>
<time>2023-05-18T10:34:13Z</time>
</trkpt>
<trkpt lat="49.37348797917366" lon="8.080112999305129">
<ele>173.20000000000005</ele>
<time>2023-05-18T10:34:14Z</time>
</trkpt>
<trkpt lat="49.373477920889854" lon="8.080036975443363">
<ele>173.20000000000005</ele>
<time>2023-05-18T10:34:15Z</time>
</trkpt>
<trkpt lat="49.37346794642508" lon="8.079961957409978">
<ele>173.39999999999998</ele>
<time>2023-05-18T10:34:16Z</time>
</trkpt>
<trkpt lat="49.37345998361707" lon="8.079886939376593">
<ele>173.39999999999998</ele>
<time>2023-05-18T10:34:17Z</time>
</trkpt>
<trkpt lat="49.37344992533326" lon="8.079809993505478">
<ele>173.39999999999998</ele>
<time>2023-05-18T10:34:18Z</time>
</trkpt>
<trkpt lat="49.37344196252525" lon="8.07973195798695">
<ele>173.39999999999998</ele>
<time>2023-05-18T10:34:19Z</time>
</trkpt>
<trkpt lat="49.373432993888855" lon="8.079652916640043">
<ele>173.39999999999998</ele>
<time>2023-05-18T10:34:20Z</time>
</trkpt>
<trkpt lat="49.37342192977667" lon="8.07957999408245">
<ele>173.60000000000002</ele>
<time>2023-05-18T10:34:21Z</time>
</trkpt>
<trkpt lat="49.373411955311894" lon="8.079502964392304">
<ele>173.60000000000002</ele>
<time>2023-05-18T10:34:22Z</time>
</trkpt>
<trkpt lat="49.3734029866755" lon="8.079424928873777">
<ele>173.60000000000002</ele>
<time>2023-05-18T10:34:23Z</time>
</trkpt>
<trkpt lat="49.373394940048456" lon="8.07934295386076">
<ele>173.60000000000002</ele>
<time>2023-05-18T10:34:24Z</time>
</trkpt>
<trkpt lat="49.37338295392692" lon="8.079262990504503">
<ele>173.60000000000002</ele>
<time>2023-05-18T10:34:25Z</time>
</trkpt>
<trkpt lat="49.37337297946215" lon="8.079182943329215">
<ele>173.79999999999995</ele>
<time>2023-05-18T10:34:26Z</time>
</trkpt>
<trkpt lat="49.37335998751223" lon="8.079101974144578">
<ele>173.79999999999995</ele>
<time>2023-05-18T10:34:27Z</time>
</trkpt>
<trkpt lat="49.373347917571664" lon="8.079016981646419">
<ele>173.79999999999995</ele>
<time>2023-05-18T10:34:28Z</time>
</trkpt>
<trkpt lat="49.37333492562175" lon="8.07893492281437">
<ele>174</ele>
<time>2023-05-18T10:34:29Z</time>
</trkpt>
<trkpt lat="49.37331992201507" lon="8.078854959458113">
<ele>174</ele>
<time>2023-05-18T10:34:30Z</time>
</trkpt>
<trkpt lat="49.373302990570664" lon="8.078777929767966">
<ele>174</ele>
<time>2023-05-18T10:34:31Z</time>
</trkpt>
<trkpt lat="49.37328798696399" lon="8.078701989725232">
<ele>174.20000000000005</ele>
<time>2023-05-18T10:34:32Z</time>
</trkpt>
<trkpt lat="49.37327499501407" lon="8.078632922843099">
<ele>174.20000000000005</ele>
<time>2023-05-18T10:34:33Z</time>
</trkpt>
<trkpt lat="49.37325697392225" lon="8.078566957265139">
<ele>174.39999999999998</ele>
<time>2023-05-18T10:34:34Z</time>
</trkpt>
<trkpt lat="49.373239958658814" lon="8.078492945060134">
<ele>174.39999999999998</ele>
<time>2023-05-18T10:34:35Z</time>
</trkpt>
<trkpt lat="49.373221937566996" lon="8.07841993868351">
<ele>174.60000000000002</ele>
<time>2023-05-18T10:34:36Z</time>
</trkpt>
<trkpt lat="49.3732079397887" lon="8.078349949792027">
<ele>174.60000000000002</ele>
<time>2023-05-18T10:34:37Z</time>
</trkpt>
<trkpt lat="49.37319193035364" lon="8.078281972557306">
<ele>174.60000000000002</ele>
<time>2023-05-18T10:34:38Z</time>
</trkpt>
<trkpt lat="49.37317198142409" lon="8.078216928988695">
<ele>174.60000000000002</ele>
<time>2023-05-18T10:34:39Z</time>
</trkpt>
<trkpt lat="49.373154966160655" lon="8.078151969239116">
<ele>174.79999999999995</ele>
<time>2023-05-18T10:34:40Z</time>
</trkpt>
<trkpt lat="49.37313795089722" lon="8.078082986176014">
<ele>174.79999999999995</ele>
<time>2023-05-18T10:34:41Z</time>
</trkpt>
<trkpt lat="49.37312294729054" lon="8.078016936779022">
<ele>174.79999999999995</ele>
<time>2023-05-18T10:34:42Z</time>
</trkpt>
<trkpt lat="49.37310492619872" lon="8.077949965372682">
<ele>174.79999999999995</ele>
<time>2023-05-18T10:34:43Z</time>
</trkpt>
<trkpt lat="49.373087994754314" lon="8.077882993966341">
<ele>174.79999999999995</ele>
<time>2023-05-18T10:34:44Z</time>
</trkpt>
<trkpt lat="49.37307198531926" lon="8.077814932912588">
<ele>174.79999999999995</ele>
<time>2023-05-18T10:34:45Z</time>
</trkpt>
<trkpt lat="49.37305698171258" lon="8.077742932364345">
<ele>174.79999999999995</ele>
<time>2023-05-18T10:34:46Z</time>
</trkpt>
<trkpt lat="49.37303996644914" lon="8.077672943472862">
<ele>174.79999999999995</ele>
<time>2023-05-18T10:34:47Z</time>
</trkpt>
<trkpt lat="49.373024962842464" lon="8.077607983723283">
<ele>175</ele>
<time>2023-05-18T10:34:48Z</time>
</trkpt>
<trkpt lat="49.373007947579026" lon="8.077542940154672">
<ele>175</ele>
<time>2023-05-18T10:34:49Z</time>
</trkpt>
<trkpt lat="49.37299495562911" lon="8.077479992061853">
<ele>175</ele>
<time>2023-05-18T10:34:50Z</time>
</trkpt>
<trkpt lat="49.372982969507575" lon="8.077417965978384">
<ele>175</ele>
<time>2023-05-18T10:34:51Z</time>
</trkpt>
<trkpt lat="49.37297198921442" lon="8.077352922409773">
<ele>175</ele>
<time>2023-05-18T10:34:52Z</time>
</trkpt>
<trkpt lat="49.372961930930614" lon="8.077284945175052">
<ele>175</ele>
<time>2023-05-18T10:34:53Z</time>
</trkpt>
<trkpt lat="49.37295195646584" lon="8.07721495628357">
<ele>175</ele>
<time>2023-05-18T10:34:54Z</time>
</trkpt>
<trkpt lat="49.37293695285916" lon="8.0771529302001">
<ele>175.20000000000005</ele>
<time>2023-05-18T10:34:55Z</time>
</trkpt>
<trkpt lat="49.37292295508087" lon="8.07708696462214">
<ele>175.20000000000005</ele>
<time>2023-05-18T10:34:56Z</time>
</trkpt>
<trkpt lat="49.37291197478771" lon="8.077021921053529">
<ele>175.20000000000005</ele>
<time>2023-05-18T10:34:57Z</time>
</trkpt>
<trkpt lat="49.372901916503906" lon="8.076954949647188">
<ele>175.39999999999998</ele>
<time>2023-05-18T10:34:58Z</time>
</trkpt>
<trkpt lat="49.372894959524274" lon="8.076889989897609">
<ele>175.39999999999998</ele>
<time>2023-05-18T10:34:59Z</time>
</trkpt>
<trkpt lat="49.37288791872561" lon="8.076822934672236">
<ele>175.39999999999998</ele>
<time>2023-05-18T10:35:00Z</time>
</trkpt>
<trkpt lat="49.37288196757436" lon="8.076754957437515">
<ele>175.60000000000002</ele>
<time>2023-05-18T10:35:01Z</time>
</trkpt>
<trkpt lat="49.372876938432455" lon="8.076682956889272">
<ele>175.60000000000002</ele>
<time>2023-05-18T10:35:02Z</time>
</trkpt>
<trkpt lat="49.37286998145282" lon="8.07661497965455">
<ele>175.60000000000002</ele>
<time>2023-05-18T10:35:03Z</time>
</trkpt>
<trkpt lat="49.37286193482578" lon="8.076547924429178">
<ele>175.79999999999995</ele>
<time>2023-05-18T10:35:04Z</time>
</trkpt>
<trkpt lat="49.372852966189384" lon="8.076481958851218">
<ele>175.79999999999995</ele>
<time>2023-05-18T10:35:05Z</time>
</trkpt>
<trkpt lat="49.3728469312191" lon="8.076412975788116">
<ele>175.79999999999995</ele>
<time>2023-05-18T10:35:06Z</time>
</trkpt>
<trkpt lat="49.37283997423947" lon="8.076344998553395">
<ele>175.79999999999995</ele>
<time>2023-05-18T10:35:07Z</time>
</trkpt>
<trkpt lat="49.372831927612424" lon="8.076274925842881">
<ele>176</ele>
<time>2023-05-18T10:35:08Z</time>
</trkpt>
<trkpt lat="49.37282698228955" lon="8.07620694860816">
<ele>176</ele>
<time>2023-05-18T10:35:09Z</time>
</trkpt>
<trkpt lat="49.37281994149089" lon="8.07613997720182">
<ele>176</ele>
<time>2023-05-18T10:35:10Z</time>
</trkpt>
<trkpt lat="49.372811978682876" lon="8.076074933633208">
<ele>176.20000000000005</ele>
<time>2023-05-18T10:35:11Z</time>
</trkpt>
<trkpt lat="49.37280292622745" lon="8.076009973883629">
<ele>176.20000000000005</ele>
<time>2023-05-18T10:35:12Z</time>
</trkpt>
<trkpt lat="49.37279496341944" lon="8.07594794780016">
<ele>176.39999999999998</ele>
<time>2023-05-18T10:35:13Z</time>
</trkpt>
<trkpt lat="49.37278498895466" lon="8.07588692754507">
<ele>176.39999999999998</ele>
<time>2023-05-18T10:35:14Z</time>
</trkpt>
<trkpt lat="49.37277493067086" lon="8.075822973623872">
<ele>176.60000000000002</ele>
<time>2023-05-18T10:35:15Z</time>
</trkpt>
<trkpt lat="49.372766967862844" lon="8.07575793005526">
<ele>176.79999999999995</ele>
<time>2023-05-18T10:35:16Z</time>
</trkpt>
<trkpt lat="49.37275799922645" lon="8.0756919644773">
<ele>176.79999999999995</ele>
<time>2023-05-18T10:35:17Z</time>
</trkpt>
<trkpt lat="49.372749952599406" lon="8.07562499307096">
<ele>176.79999999999995</ele>
<time>2023-05-18T10:35:18Z</time>
</trkpt>
<trkpt lat="49.37274198979139" lon="8.075556932017207">
<ele>177</ele>
<time>2023-05-18T10:35:19Z</time>
</trkpt>
<trkpt lat="49.37273293733597" lon="8.075489960610867">
<ele>177</ele>
<time>2023-05-18T10:35:20Z</time>
</trkpt>
<trkpt lat="49.372724974527955" lon="8.075424917042255">
<ele>177</ele>
<time>2023-05-18T10:35:21Z</time>
</trkpt>
<trkpt lat="49.37271491624415" lon="8.075359957292676">
<ele>177.20000000000005</ele>
<time>2023-05-18T10:35:22Z</time>
</trkpt>
<trkpt lat="49.372706953436136" lon="8.075296925380826">
<ele>177.20000000000005</ele>
<time>2023-05-18T10:35:23Z</time>
</trkpt>
<trkpt lat="49.37269798479974" lon="8.075227942317724">
<ele>177.39999999999998</ele>
<time>2023-05-18T10:35:24Z</time>
</trkpt>
<trkpt lat="49.37269295565784" lon="8.075161976739764">
<ele>177.39999999999998</ele>
<time>2023-05-18T10:35:25Z</time>
</trkpt>
<trkpt lat="49.372679963707924" lon="8.075099950656295">
<ele>177.39999999999998</ele>
<time>2023-05-18T10:35:26Z</time>
</trkpt>
<trkpt lat="49.37266998924315" lon="8.075034990906715">
<ele>177.60000000000002</ele>
<time>2023-05-18T10:35:27Z</time>
</trkpt>
<trkpt lat="49.372661942616105" lon="8.074967935681343">
<ele>177.60000000000002</ele>
<time>2023-05-18T10:35:28Z</time>
</trkpt>
<trkpt lat="49.37264995649457" lon="8.074902975931764">
<ele>177.60000000000002</ele>
<time>2023-05-18T10:35:29Z</time>
</trkpt>
<trkpt lat="49.372639982029796" lon="8.0748319812119">
<ele>177.79999999999995</ele>
<time>2023-05-18T10:35:30Z</time>
</trkpt>
<trkpt lat="49.37263193540275" lon="8.074762998148799">
<ele>177.79999999999995</ele>
<time>2023-05-18T10:35:31Z</time>
</trkpt>
<trkpt lat="49.37262296676636" lon="8.074692925438285">
<ele>178</ele>
<time>2023-05-18T10:35:32Z</time>
</trkpt>
<trkpt lat="49.37261299230158" lon="8.074624948203564">
<ele>178</ele>
<time>2023-05-18T10:35:33Z</time>
</trkpt>
<trkpt lat="49.3726069573313" lon="8.074554959312081">
<ele>178</ele>
<time>2023-05-18T10:35:34Z</time>
</trkpt>
<trkpt lat="49.372597988694906" lon="8.07448698207736">
<ele>178.20000000000005</ele>
<time>2023-05-18T10:35:35Z</time>
</trkpt>
<trkpt lat="49.37259195372462" lon="8.074421938508749">
<ele>178.20000000000005</ele>
<time>2023-05-18T10:35:36Z</time>
</trkpt>
<trkpt lat="49.37257996760309" lon="8.074351949617267">
<ele>178.20000000000005</ele>
<time>2023-05-18T10:35:37Z</time>
</trkpt>
<trkpt lat="49.37256999313831" lon="8.074281960725784">
<ele>178.20000000000005</ele>
<time>2023-05-18T10:35:38Z</time>
</trkpt>
<trkpt lat="49.37256295233965" lon="8.074214989319444">
<ele>178.39999999999998</ele>
<time>2023-05-18T10:35:39Z</time>
</trkpt>
<trkpt lat="49.372556917369366" lon="8.07414491660893">
<ele>178.39999999999998</ele>
<time>2023-05-18T10:35:40Z</time>
</trkpt>
<trkpt lat="49.372552977874875" lon="8.074072999879718">
<ele>178.39999999999998</ele>
<time>2023-05-18T10:35:41Z</time>
</trkpt>
<trkpt lat="49.372551972046494" lon="8.073997981846333">
<ele>178.60000000000002</ele>
<time>2023-05-18T10:35:42Z</time>
</trkpt>
<trkpt lat="49.37254996038973" lon="8.07392698712647">
<ele>178.60000000000002</ele>
<time>2023-05-18T10:35:43Z</time>
</trkpt>
<trkpt lat="49.37254996038973" lon="8.073852974921465">
<ele>178.60000000000002</ele>
<time>2023-05-18T10:35:44Z</time>
</trkpt>
<trkpt lat="49.37254996038973" lon="8.07377795688808">
<ele>178.60000000000002</ele>
<time>2023-05-18T10:35:45Z</time>
</trkpt>
<trkpt lat="49.372551972046494" lon="8.073701933026314">
<ele>178.79999999999995</ele>
<time>2023-05-18T10:35:46Z</time>
</trkpt>
<trkpt lat="49.372556917369366" lon="8.073624987155199">
<ele>178.79999999999995</ele>
<time>2023-05-18T10:35:47Z</time>
</trkpt>
<trkpt lat="49.37255993485451" lon="8.073556926101446">
<ele>179</ele>
<time>2023-05-18T10:35:48Z</time>
</trkpt>
<trkpt lat="49.37256697565317" lon="8.073487943038344">
<ele>179</ele>
<time>2023-05-18T10:35:49Z</time>
</trkpt>
<trkpt lat="49.37257192097604" lon="8.073422983288765">
<ele>179</ele>
<time>2023-05-18T10:35:50Z</time>
</trkpt>
<trkpt lat="49.372576950117946" lon="8.073357939720154">
<ele>179.20000000000005</ele>
<time>2023-05-18T10:35:51Z</time>
</trkpt>
<trkpt lat="49.37258298508823" lon="8.073287950828671">
<ele>179.20000000000005</ele>
<time>2023-05-18T10:35:52Z</time>
</trkpt>
<trkpt lat="49.37259195372462" lon="8.07321997359395">
<ele>179.39999999999998</ele>
<time>2023-05-18T10:35:53Z</time>
</trkpt>
<trkpt lat="49.372594971209764" lon="8.073152918368578">
<ele>179.39999999999998</ele>
<time>2023-05-18T10:35:54Z</time>
</trkpt>
<trkpt lat="49.372599916532636" lon="8.073084941133857">
<ele>179.60000000000002</ele>
<time>2023-05-18T10:35:55Z</time>
</trkpt>
<trkpt lat="49.37260997481644" lon="8.073019981384277">
<ele>179.79999999999995</ele>
<time>2023-05-18T10:35:56Z</time>
</trkpt>
<trkpt lat="49.372619949281216" lon="8.072949992492795">
<ele>179.79999999999995</ele>
<time>2023-05-18T10:35:57Z</time>
</trkpt>
<trkpt lat="49.37262497842312" lon="8.072879919782281">
<ele>180</ele>
<time>2023-05-18T10:35:58Z</time>
</trkpt>
<trkpt lat="49.37262799590826" lon="8.072807919234037">
<ele>180.20000000000005</ele>
<time>2023-05-18T10:35:59Z</time>
</trkpt>
<trkpt lat="49.37262992374599" lon="8.072742959484458">
<ele>180.20000000000005</ele>
<time>2023-05-18T10:36:00Z</time>
</trkpt>
<trkpt lat="49.37263495288789" lon="8.072672970592976">
<ele>180.39999999999998</ele>
<time>2023-05-18T10:36:01Z</time>
</trkpt>
<trkpt lat="49.372639982029796" lon="8.072614967823029">
<ele>180.39999999999998</ele>
<time>2023-05-18T10:36:02Z</time>
</trkpt>
<trkpt lat="49.372637970373034" lon="8.072546990588307">
<ele>180.60000000000002</ele>
<time>2023-05-18T10:36:03Z</time>
</trkpt>
<trkpt lat="49.37264492735267" lon="8.072471972554922">
<ele>180.60000000000002</ele>
<time>2023-05-18T10:36:04Z</time>
</trkpt>
<trkpt lat="49.37265196815133" lon="8.072397960349917">
<ele>180.79999999999995</ele>
<time>2023-05-18T10:36:05Z</time>
</trkpt>
<trkpt lat="49.37265791930258" lon="8.072331994771957">
<ele>180.79999999999995</ele>
<time>2023-05-18T10:36:06Z</time>
</trkpt>
<trkpt lat="49.372662948444486" lon="8.072267957031727">
<ele>181</ele>
<time>2023-05-18T10:36:07Z</time>
</trkpt>
<trkpt lat="49.37266797758639" lon="8.07220995426178">
<ele>181</ele>
<time>2023-05-18T10:36:08Z</time>
</trkpt>
<trkpt lat="49.37267493456602" lon="8.072154968976974">
<ele>181.20000000000005</ele>
<time>2023-05-18T10:36:09Z</time>
</trkpt>
<trkpt lat="49.372681975364685" lon="8.072097972035408">
<ele>181.39999999999998</ele>
<time>2023-05-18T10:36:10Z</time>
</trkpt>
<trkpt lat="49.37268792651594" lon="8.072041980922222">
<ele>181.39999999999998</ele>
<time>2023-05-18T10:36:11Z</time>
</trkpt>
<trkpt lat="49.3726949673146" lon="8.071984983980656">
<ele>181.60000000000002</ele>
<time>2023-05-18T10:36:12Z</time>
</trkpt>
<trkpt lat="49.37270192429423" lon="8.07192798703909">
<ele>181.60000000000002</ele>
<time>2023-05-18T10:36:13Z</time>
</trkpt>
<trkpt lat="49.37270795926452" lon="8.071869984269142">
<ele>181.79999999999995</ele>
<time>2023-05-18T10:36:14Z</time>
</trkpt>
<trkpt lat="49.37271298840642" lon="8.071807958185673">
<ele>181.79999999999995</ele>
<time>2023-05-18T10:36:15Z</time>
</trkpt>
<trkpt lat="49.37271692790091" lon="8.071741992607713">
<ele>182</ele>
<time>2023-05-18T10:36:16Z</time>
</trkpt>
<trkpt lat="49.37271994538605" lon="8.071671919897199">
<ele>182.20000000000005</ele>
<time>2023-05-18T10:36:17Z</time>
</trkpt>
<trkpt lat="49.37272195704281" lon="8.071604948490858">
<ele>182.20000000000005</ele>
<time>2023-05-18T10:36:18Z</time>
</trkpt>
<trkpt lat="49.372722962871194" lon="8.071541916579008">
<ele>182.39999999999998</ele>
<time>2023-05-18T10:36:19Z</time>
</trkpt>
<trkpt lat="49.372729919850826" lon="8.071474945172668">
<ele>182.60000000000002</ele>
<time>2023-05-18T10:36:20Z</time>
</trkpt>
<trkpt lat="49.37273293733597" lon="8.071409985423088">
<ele>182.60000000000002</ele>
<time>2023-05-18T10:36:21Z</time>
</trkpt>
<trkpt lat="49.37273494899273" lon="8.071346953511238">
<ele>182.60000000000002</ele>
<time>2023-05-18T10:36:22Z</time>
</trkpt>
<trkpt lat="49.37273696064949" lon="8.07128693908453">
<ele>182.79999999999995</ele>
<time>2023-05-18T10:36:23Z</time>
</trkpt>
<trkpt lat="49.37273494899273" lon="8.071231953799725">
<ele>182.79999999999995</ele>
<time>2023-05-18T10:36:24Z</time>
</trkpt>
<trkpt lat="49.372724974527955" lon="8.07117696851492">
<ele>182.79999999999995</ele>
<time>2023-05-18T10:36:25Z</time>
</trkpt>
<trkpt lat="49.37271298840642" lon="8.071127934381366">
<ele>182.79999999999995</ele>
<time>2023-05-18T10:36:26Z</time>
</trkpt>
<trkpt lat="49.372704941779375" lon="8.071087952703238">
<ele>182.79999999999995</ele>
<time>2023-05-18T10:36:27Z</time>
</trkpt>
<trkpt lat="49.37269798479974" lon="8.07104797102511">
<ele>183</ele>
<time>2023-05-18T10:36:28Z</time>
</trkpt>
<trkpt lat="49.3726949673146" lon="8.071022992953658">
<ele>183</ele>
<time>2023-05-18T10:36:29Z</time>
</trkpt>
<trkpt lat="49.37269798479974" lon="8.07100991718471">
<ele>183</ele>
<time>2023-05-18T10:36:30Z</time>
</trkpt>
<trkpt lat="49.37269798479974" lon="8.071007989346981">
<ele>183.20000000000005</ele>
<time>2023-05-18T10:36:31Z</time>
</trkpt>
<trkpt lat="49.37276294454932" lon="8.070979993790388">
<ele>182.39999999999998</ele>
<time>2023-05-18T10:36:31Z</time>
</trkpt>
<trkpt lat="49.372766967862844" lon="8.070969935506582">
<ele>182.39999999999998</ele>
<time>2023-05-18T10:36:32Z</time>
</trkpt>
<trkpt lat="49.372769985347986" lon="8.070957949385047">
<ele>182.39999999999998</ele>
<time>2023-05-18T10:36:33Z</time>
</trkpt>
<trkpt lat="49.37277694232762" lon="8.070944957435131">
<ele>182.39999999999998</ele>
<time>2023-05-18T10:36:34Z</time>
</trkpt>
<trkpt lat="49.372791945934296" lon="8.070921991020441">
<ele>182.39999999999998</ele>
<time>2023-05-18T10:36:35Z</time>
</trkpt>
<trkpt lat="49.37279999256134" lon="8.070892989635468">
<ele>182.20000000000005</ele>
<time>2023-05-18T10:36:36Z</time>
</trkpt>
<trkpt lat="49.37280493788421" lon="8.070851918309927">
<ele>182.20000000000005</ele>
<time>2023-05-18T10:36:37Z</time>
</trkpt>
<trkpt lat="49.37280795536935" lon="8.070787964388728">
<ele>182.20000000000005</ele>
<time>2023-05-18T10:36:38Z</time>
</trkpt>
<trkpt lat="49.372811978682876" lon="8.070711940526962">
<ele>182.20000000000005</ele>
<time>2023-05-18T10:36:39Z</time>
</trkpt>
<trkpt lat="49.372812984511256" lon="8.070631977170706">
<ele>182.20000000000005</ele>
<time>2023-05-18T10:36:40Z</time>
</trkpt>
<trkpt lat="49.37281692400575" lon="8.070546984672546">
<ele>182.20000000000005</ele>
<time>2023-05-18T10:36:41Z</time>
</trkpt>
<trkpt lat="49.37281792983413" lon="8.070457968860865">
<ele>182.20000000000005</ele>
<time>2023-05-18T10:36:42Z</time>
</trkpt>
<trkpt lat="49.37282295897603" lon="8.070369958877563">
<ele>182.20000000000005</ele>
<time>2023-05-18T10:36:43Z</time>
</trkpt>
<trkpt lat="49.37282798811793" lon="8.070284966379404">
<ele>182.20000000000005</ele>
<time>2023-05-18T10:36:44Z</time>
</trkpt>
<trkpt lat="49.37283796258271" lon="8.070201985538006">
<ele>182.20000000000005</ele>
<time>2023-05-18T10:36:45Z</time>
</trkpt>
<trkpt lat="49.3728469312191" lon="8.07012495584786">
<ele>182.20000000000005</ele>
<time>2023-05-18T10:36:46Z</time>
</trkpt>
<trkpt lat="49.372854977846146" lon="8.070042980834842">
<ele>182.20000000000005</ele>
<time>2023-05-18T10:36:47Z</time>
</trkpt>
<trkpt lat="49.37286294065416" lon="8.069961927831173">
<ele>182.20000000000005</ele>
<time>2023-05-18T10:36:48Z</time>
</trkpt>
<trkpt lat="49.37286998145282" lon="8.069876935333014">
<ele>182.20000000000005</ele>
<time>2023-05-18T10:36:49Z</time>
</trkpt>
<trkpt lat="49.372877944260836" lon="8.069791942834854">
<ele>182.20000000000005</ele>
<time>2023-05-18T10:36:50Z</time>
</trkpt>
<trkpt lat="49.37289194203913" lon="8.069704938679934">
<ele>182</ele>
<time>2023-05-18T10:36:51Z</time>
</trkpt>
<trkpt lat="49.37290694564581" lon="8.069614917039871">
<ele>182</ele>
<time>2023-05-18T10:36:52Z</time>
</trkpt>
<trkpt lat="49.37292496673763" lon="8.069514920935035">
<ele>182</ele>
<time>2023-05-18T10:36:53Z</time>
</trkpt>
<trkpt lat="49.37294692732394" lon="8.069411991164088">
<ele>181.79999999999995</ele>
<time>2023-05-18T10:36:54Z</time>
</trkpt>
<trkpt lat="49.37295991927385" lon="8.069306965917349">
<ele>181.60000000000002</ele>
<time>2023-05-18T10:36:55Z</time>
</trkpt>
<trkpt lat="49.372981963679194" lon="8.069196995347738">
<ele>181.39999999999998</ele>
<time>2023-05-18T10:36:56Z</time>
</trkpt>
<trkpt lat="49.37300291843712" lon="8.069087946787477">
<ele>181.20000000000005</ele>
<time>2023-05-18T10:36:57Z</time>
</trkpt>
<trkpt lat="49.373024962842464" lon="8.068974958732724">
<ele>181</ele>
<time>2023-05-18T10:36:58Z</time>
</trkpt>
<trkpt lat="49.373046923428774" lon="8.068867921829224">
<ele>180.79999999999995</ele>
<time>2023-05-18T10:36:59Z</time>
</trkpt>
<trkpt lat="49.37306494452059" lon="8.06875191628933">
<ele>180.79999999999995</ele>
<time>2023-05-18T10:37:00Z</time>
</trkpt>
<trkpt lat="49.37308497726917" lon="8.068631971254945">
<ele>180.60000000000002</ele>
<time>2023-05-18T10:37:01Z</time>
</trkpt>
<trkpt lat="49.37310693785548" lon="8.068516971543431">
<ele>180.39999999999998</ele>
<time>2023-05-18T10:37:02Z</time>
</trkpt>
<trkpt lat="49.37312697060406" lon="8.068397948518395">
<ele>180.20000000000005</ele>
<time>2023-05-18T10:37:03Z</time>
</trkpt>
<trkpt lat="49.37314499169588" lon="8.06827699765563">
<ele>179.79999999999995</ele>
<time>2023-05-18T10:37:04Z</time>
</trkpt>
<trkpt lat="49.37316292896867" lon="8.068152945488691">
<ele>179.60000000000002</ele>
<time>2023-05-18T10:37:05Z</time>
</trkpt>
<trkpt lat="49.37318195588887" lon="8.068024953827262">
<ele>179.20000000000005</ele>
<time>2023-05-18T10:37:06Z</time>
</trkpt>
<trkpt lat="49.373197965323925" lon="8.06789193302393">
<ele>179</ele>
<time>2023-05-18T10:37:07Z</time>
</trkpt>
<trkpt lat="49.37321498058736" lon="8.067756984382868">
<ele>178.79999999999995</ele>
<time>2023-05-18T10:37:08Z</time>
</trkpt>
<trkpt lat="49.37323291786015" lon="8.067626981064677">
<ele>178.60000000000002</ele>
<time>2023-05-18T10:37:09Z</time>
</trkpt>
<trkpt lat="49.37325295060873" lon="8.067492954432964">
<ele>178.60000000000002</ele>
<time>2023-05-18T10:37:10Z</time>
</trkpt>
<trkpt lat="49.37327298335731" lon="8.06735297665">
<ele>178.39999999999998</ele>
<time>2023-05-18T10:37:11Z</time>
</trkpt>
<trkpt lat="49.37329494394362" lon="8.067216938361526">
<ele>178.39999999999998</ele>
<time>2023-05-18T10:37:12Z</time>
</trkpt>
<trkpt lat="49.3733099475503" lon="8.067072937265038">
<ele>178.20000000000005</ele>
<time>2023-05-18T10:37:13Z</time>
</trkpt>
<trkpt lat="49.37332293950021" lon="8.06692499667406">
<ele>178.20000000000005</ele>
<time>2023-05-18T10:37:14Z</time>
</trkpt>
<trkpt lat="49.373347917571664" lon="8.066781917586923">
<ele>178.20000000000005</ele>
<time>2023-05-18T10:37:15Z</time>
</trkpt>
<trkpt lat="49.37338697724044" lon="8.066647974774241">
<ele>178</ele>
<time>2023-05-18T10:37:16Z</time>
</trkpt>
<trkpt lat="49.37340692616999" lon="8.06651696562767">
<ele>178</ele>
<time>2023-05-18T10:37:17Z</time>
</trkpt>
<trkpt lat="49.37342796474695" lon="8.06638796813786">
<ele>178</ele>
<time>2023-05-18T10:37:18Z</time>
</trkpt>
<trkpt lat="49.37344799749553" lon="8.06625796481967">
<ele>177.79999999999995</ele>
<time>2023-05-18T10:37:19Z</time>
</trkpt>
<trkpt lat="49.37346794642508" lon="8.06612796150148">
<ele>177.79999999999995</ele>
<time>2023-05-18T10:37:20Z</time>
</trkpt>
<trkpt lat="49.37348999083042" lon="8.065997958183289">
<ele>177.79999999999995</ele>
<time>2023-05-18T10:37:21Z</time>
</trkpt>
<trkpt lat="49.37350993975997" lon="8.065867954865098">
<ele>177.79999999999995</ele>
<time>2023-05-18T10:37:22Z</time>
</trkpt>
<trkpt lat="49.37352695502341" lon="8.065736945718527">
<ele>177.79999999999995</ele>
<time>2023-05-18T10:37:23Z</time>
</trkpt>
<trkpt lat="49.37354497611523" lon="8.065606942400336">
<ele>177.60000000000002</ele>
<time>2023-05-18T10:37:24Z</time>
</trkpt>
<trkpt lat="49.373559979721904" lon="8.065474927425385">
<ele>177.60000000000002</ele>
<time>2023-05-18T10:37:25Z</time>
</trkpt>
<trkpt lat="49.37357498332858" lon="8.065341990441084">
<ele>177.60000000000002</ele>
<time>2023-05-18T10:37:26Z</time>
</trkpt>
<trkpt lat="49.3735879752785" lon="8.065209975466132">
<ele>177.60000000000002</ele>
<time>2023-05-18T10:37:27Z</time>
</trkpt>
<trkpt lat="49.373604990541935" lon="8.065079972147942">
<ele>177.60000000000002</ele>
<time>2023-05-18T10:37:28Z</time>
</trkpt>
<trkpt lat="49.37362493947148" lon="8.064952986314893">
<ele>177.60000000000002</ele>
<time>2023-05-18T10:37:29Z</time>
</trkpt>
<trkpt lat="49.373647989705205" lon="8.064826922491193">
<ele>177.60000000000002</ele>
<time>2023-05-18T10:37:30Z</time>
</trkpt>
<trkpt lat="49.373669950291514" lon="8.064701948314905">
<ele>177.60000000000002</ele>
<time>2023-05-18T10:37:31Z</time>
</trkpt>
<trkpt lat="49.373692916706204" lon="8.064581919461489">
<ele>177.60000000000002</ele>
<time>2023-05-18T10:37:32Z</time>
</trkpt>
<trkpt lat="49.37371797859669" lon="8.064459962770343">
<ele>177.79999999999995</ele>
<time>2023-05-18T10:37:33Z</time>
</trkpt>
<trkpt lat="49.37374697998166" lon="8.064341945573688">
<ele>177.79999999999995</ele>
<time>2023-05-18T10:37:34Z</time>
</trkpt>
<trkpt lat="49.373779920861125" lon="8.064224934205413">
<ele>177.79999999999995</ele>
<time>2023-05-18T10:37:35Z</time>
</trkpt>
<trkpt lat="49.373817974701524" lon="8.064116975292563">
<ele>177.79999999999995</ele>
<time>2023-05-18T10:37:36Z</time>
</trkpt>
<trkpt lat="49.37385493889451" lon="8.06400298140943">
<ele>177.79999999999995</ele>
<time>2023-05-18T10:37:37Z</time>
</trkpt>
<trkpt lat="49.37389299273491" lon="8.063891921192408">
<ele>177.79999999999995</ele>
<time>2023-05-18T10:37:38Z</time>
</trkpt>
<trkpt lat="49.37393297441304" lon="8.063781950622797">
<ele>177.79999999999995</ele>
<time>2023-05-18T10:37:39Z</time>
</trkpt>
<trkpt lat="49.37397697940469" lon="8.063672985881567">
<ele>177.79999999999995</ele>
<time>2023-05-18T10:37:40Z</time>
</trkpt>
<trkpt lat="49.37401997856796" lon="8.063569972291589">
<ele>177.79999999999995</ele>
<time>2023-05-18T10:37:41Z</time>
</trkpt>
<trkpt lat="49.3740679230541" lon="8.06346695870161">
<ele>177.79999999999995</ele>
<time>2023-05-18T10:37:42Z</time>
</trkpt>
<trkpt lat="49.37411695718765" lon="8.063364950940013">
<ele>177.79999999999995</ele>
<time>2023-05-18T10:37:43Z</time>
</trkpt>
<trkpt lat="49.374164985492826" lon="8.063264954835176">
<ele>177.79999999999995</ele>
<time>2023-05-18T10:37:44Z</time>
</trkpt>
<trkpt lat="49.374211924150586" lon="8.06316495873034">
<ele>177.79999999999995</ele>
<time>2023-05-18T10:37:45Z</time>
</trkpt>
<trkpt lat="49.374254923313856" lon="8.063062950968742">
<ele>177.79999999999995</ele>
<time>2023-05-18T10:37:46Z</time>
</trkpt>
<trkpt lat="49.374296916648746" lon="8.062959937378764">
<ele>177.79999999999995</ele>
<time>2023-05-18T10:37:47Z</time>
</trkpt>
<trkpt lat="49.374334970489144" lon="8.062856923788786">
<ele>177.79999999999995</ele>
<time>2023-05-18T10:37:48Z</time>
</trkpt>
<trkpt lat="49.37437193468213" lon="8.062749970704317">
<ele>177.79999999999995</ele>
<time>2023-05-18T10:37:49Z</time>
</trkpt>
<trkpt lat="49.374401941895485" lon="8.062642933800817">
<ele>178</ele>
<time>2023-05-18T10:37:50Z</time>
</trkpt>
<trkpt lat="49.37442993745208" lon="8.062531957402825">
<ele>178</ele>
<time>2023-05-18T10:37:51Z</time>
</trkpt>
<trkpt lat="49.37445198185742" lon="8.062421986833215">
<ele>178.20000000000005</ele>
<time>2023-05-18T10:37:52Z</time>
</trkpt>
<trkpt lat="49.37446799129248" lon="8.062309920787811">
<ele>178.20000000000005</ele>
<time>2023-05-18T10:37:53Z</time>
</trkpt>
<trkpt lat="49.37448198907077" lon="8.0621999502182">
<ele>178.39999999999998</ele>
<time>2023-05-18T10:37:54Z</time>
</trkpt>
<trkpt lat="49.37449196353555" lon="8.062086962163448">
<ele>178.60000000000002</ele>
<time>2023-05-18T10:37:55Z</time>
</trkpt>
<trkpt lat="49.37448492273688" lon="8.061957964673638">
<ele>178.60000000000002</ele>
<time>2023-05-18T10:37:56Z</time>
</trkpt>
<trkpt lat="49.374464973807335" lon="8.061846988275647">
<ele>178.79999999999995</ele>
<time>2023-05-18T10:37:57Z</time>
</trkpt>
<trkpt lat="49.37447796575725" lon="8.061752943322062">
<ele>178.79999999999995</ele>
<time>2023-05-18T10:37:58Z</time>
</trkpt>
<trkpt lat="49.37449196353555" lon="8.061657976359129">
<ele>179</ele>
<time>2023-05-18T10:37:59Z</time>
</trkpt>
<trkpt lat="49.37449296936393" lon="8.061544988304377">
<ele>179</ele>
<time>2023-05-18T10:38:00Z</time>
</trkpt>
<trkpt lat="49.37449196353555" lon="8.061436945572495">
<ele>179.20000000000005</ele>
<time>2023-05-18T10:38:01Z</time>
</trkpt>
<trkpt lat="49.37449498102069" lon="8.061327980831265">
<ele>179.20000000000005</ele>
<time>2023-05-18T10:38:02Z</time>
</trkpt>
<trkpt lat="49.37449296936393" lon="8.061219938099384">
<ele>179.39999999999998</ele>
<time>2023-05-18T10:38:03Z</time>
</trkpt>
<trkpt lat="49.374489951878786" lon="8.061106950044632">
<ele>179.39999999999998</ele>
<time>2023-05-18T10:38:04Z</time>
</trkpt>
<trkpt lat="49.37448492273688" lon="8.060991950333118">
<ele>179.60000000000002</ele>
<time>2023-05-18T10:38:05Z</time>
</trkpt>
<trkpt lat="49.37448198907077" lon="8.060877956449986">
<ele>179.60000000000002</ele>
<time>2023-05-18T10:38:06Z</time>
</trkpt>
<trkpt lat="49.37447695992887" lon="8.060764968395233">
<ele>179.79999999999995</ele>
<time>2023-05-18T10:38:07Z</time>
</trkpt>
<trkpt lat="49.37447193078697" lon="8.060652986168861">
<ele>179.79999999999995</ele>
<time>2023-05-18T10:38:08Z</time>
</trkpt>
<trkpt lat="49.374464973807335" lon="8.060541925951838">
<ele>179.79999999999995</ele>
<time>2023-05-18T10:38:09Z</time>
</trkpt>
<trkpt lat="49.37445692718029" lon="8.060431955382228">
<ele>180</ele>
<time>2023-05-18T10:38:10Z</time>
</trkpt>
<trkpt lat="49.3744529876858" lon="8.060316955670714">
<ele>180</ele>
<time>2023-05-18T10:38:11Z</time>
</trkpt>
<trkpt lat="49.37445198185742" lon="8.060204973444343">
<ele>180</ele>
<time>2023-05-18T10:38:12Z</time>
</trkpt>
<trkpt lat="49.37445198185742" lon="8.06009299121797">
<ele>180.20000000000005</ele>
<time>2023-05-18T10:38:13Z</time>
</trkpt>
<trkpt lat="49.37445692718029" lon="8.05998494848609">
<ele>180.20000000000005</ele>
<time>2023-05-18T10:38:14Z</time>
</trkpt>
<trkpt lat="49.37446799129248" lon="8.059874977916479">
<ele>180.20000000000005</ele>
<time>2023-05-18T10:38:15Z</time>
</trkpt>
<trkpt lat="49.374486934393644" lon="8.059767941012979">
<ele>180.39999999999998</ele>
<time>2023-05-18T10:38:16Z</time>
</trkpt>
<trkpt lat="49.374506967142224" lon="8.05966199375689">
<ele>180.39999999999998</ele>
<time>2023-05-18T10:38:17Z</time>
</trkpt>
<trkpt lat="49.374531945213675" lon="8.059556968510151">
<ele>180.39999999999998</ele>
<time>2023-05-18T10:38:18Z</time>
</trkpt>
<trkpt lat="49.37455692328513" lon="8.059452949091792">
<ele>180.39999999999998</ele>
<time>2023-05-18T10:38:19Z</time>
</trkpt>
<trkpt lat="49.37458693049848" lon="8.059351947158575">
<ele>180.39999999999998</ele>
<time>2023-05-18T10:38:20Z</time>
</trkpt>
<trkpt lat="49.37462196685374" lon="8.05925295688212">
<ele>180.39999999999998</ele>
<time>2023-05-18T10:38:21Z</time>
</trkpt>
<trkpt lat="49.374659936875105" lon="8.059156984090805">
<ele>180.39999999999998</ele>
<time>2023-05-18T10:38:22Z</time>
</trkpt>
<trkpt lat="49.37469991855323" lon="8.059067968279123">
<ele>180.39999999999998</ele>
<time>2023-05-18T10:38:23Z</time>
</trkpt>
<trkpt lat="49.3747429177165" lon="8.058984987437725">
<ele>180.39999999999998</ele>
<time>2023-05-18T10:38:24Z</time>
</trkpt>
<trkpt lat="49.374786922708154" lon="8.058904940262437">
<ele>180.39999999999998</ele>
<time>2023-05-18T10:38:25Z</time>
</trkpt>
<trkpt lat="49.374829921871424" lon="8.058827994391322">
<ele>180.39999999999998</ele>
<time>2023-05-18T10:38:26Z</time>
</trkpt>
<trkpt lat="49.374869987368584" lon="8.058751970529556">
<ele>180.39999999999998</ele>
<time>2023-05-18T10:38:27Z</time>
</trkpt>
<trkpt lat="49.37490996904671" lon="8.058676952496171">
<ele>180.39999999999998</ele>
<time>2023-05-18T10:38:28Z</time>
</trkpt>
<trkpt lat="49.37494793906808" lon="8.058604951947927">
<ele>180.60000000000002</ele>
<time>2023-05-18T10:38:29Z</time>
</trkpt>
<trkpt lat="49.37498699873686" lon="8.058527922257781">
<ele>180.60000000000002</ele>
<time>2023-05-18T10:38:30Z</time>
</trkpt>
<trkpt lat="49.375021951273084" lon="8.058449970558286">
<ele>180.60000000000002</ele>
<time>2023-05-18T10:38:31Z</time>
</trkpt>
<trkpt lat="49.37505497597158" lon="8.05837294086814">
<ele>180.79999999999995</ele>
<time>2023-05-18T10:38:32Z</time>
</trkpt>
<trkpt lat="49.375084983184934" lon="8.058292977511883">
<ele>181</ele>
<time>2023-05-18T10:38:33Z</time>
</trkpt>
<trkpt lat="49.37511499039829" lon="8.058209996670485">
<ele>181.20000000000005</ele>
<time>2023-05-18T10:38:34Z</time>
</trkpt>
<trkpt lat="49.37514298595488" lon="8.058122992515564">
<ele>181.39999999999998</ele>
<time>2023-05-18T10:38:35Z</time>
</trkpt>
<trkpt lat="49.375171987339854" lon="8.058036994189024">
<ele>181.60000000000002</ele>
<time>2023-05-18T10:38:36Z</time>
</trkpt>
<trkpt lat="49.375196965411305" lon="8.057947978377342">
<ele>181.79999999999995</ele>
<time>2023-05-18T10:38:37Z</time>
</trkpt>
<trkpt lat="49.375217920169234" lon="8.05785795673728">
<ele>182</ele>
<time>2023-05-18T10:38:38Z</time>
</trkpt>
<trkpt lat="49.37523493543267" lon="8.057766929268837">
<ele>182.20000000000005</ele>
<time>2023-05-18T10:38:39Z</time>
</trkpt>
<trkpt lat="49.37525295652449" lon="8.057671962305903">
<ele>182.20000000000005</ele>
<time>2023-05-18T10:38:40Z</time>
</trkpt>
<trkpt lat="49.37526997178793" lon="8.05757992900908">
<ele>182.20000000000005</ele>
<time>2023-05-18T10:38:41Z</time>
</trkpt>
<trkpt lat="49.37528799287975" lon="8.057484962046146">
<ele>182.20000000000005</ele>
<time>2023-05-18T10:38:42Z</time>
</trkpt>
<trkpt lat="49.375306935980916" lon="8.057387983426452">
<ele>182.20000000000005</ele>
<time>2023-05-18T10:38:43Z</time>
</trkpt>
<trkpt lat="49.375322945415974" lon="8.057289998978376">
<ele>182.20000000000005</ele>
<time>2023-05-18T10:38:44Z</time>
</trkpt>
<trkpt lat="49.37533996067941" lon="8.05719293653965">
<ele>182.20000000000005</ele>
<time>2023-05-18T10:38:45Z</time>
</trkpt>
<trkpt lat="49.37535697594285" lon="8.057094952091575">
<ele>182.20000000000005</ele>
<time>2023-05-18T10:38:46Z</time>
</trkpt>
<trkpt lat="49.37537298537791" lon="8.056994955986738">
<ele>182.20000000000005</ele>
<time>2023-05-18T10:38:47Z</time>
</trkpt>
<trkpt lat="49.375391928479075" lon="8.056896971538663">
<ele>182.20000000000005</ele>
<time>2023-05-18T10:38:48Z</time>
</trkpt>
<trkpt lat="49.37540793791413" lon="8.056792952120304">
<ele>182.20000000000005</ele>
<time>2023-05-18T10:38:49Z</time>
</trkpt>
<trkpt lat="49.375429982319474" lon="8.056692956015468">
<ele>182.20000000000005</ele>
<time>2023-05-18T10:38:50Z</time>
</trkpt>
<trkpt lat="49.375451942905784" lon="8.056592959910631">
<ele>182.20000000000005</ele>
<time>2023-05-18T10:38:51Z</time>
</trkpt>
<trkpt lat="49.375472981482744" lon="8.056492963805795">
<ele>182.20000000000005</ele>
<time>2023-05-18T10:38:52Z</time>
</trkpt>
<trkpt lat="49.375494942069054" lon="8.05639497935772">
<ele>182.20000000000005</ele>
<time>2023-05-18T10:38:53Z</time>
</trkpt>
<trkpt lat="49.375519920140505" lon="8.056294983252883">
<ele>182.20000000000005</ele>
<time>2023-05-18T10:38:54Z</time>
</trkpt>
<trkpt lat="49.37554799951613" lon="8.056201944127679">
<ele>182.20000000000005</ele>
<time>2023-05-18T10:38:55Z</time>
</trkpt>
<trkpt lat="49.37557691708207" lon="8.056109994649887">
<ele>182</ele>
<time>2023-05-18T10:38:56Z</time>
</trkpt>
<trkpt lat="49.375606924295425" lon="8.056022990494967">
<ele>182</ele>
<time>2023-05-18T10:38:57Z</time>
</trkpt>
<trkpt lat="49.37563693150878" lon="8.055941937491298">
<ele>182</ele>
<time>2023-05-18T10:38:58Z</time>
</trkpt>
<trkpt lat="49.37567196786404" lon="8.055857950821519">
<ele>181.79999999999995</ele>
<time>2023-05-18T10:38:59Z</time>
</trkpt>
<trkpt lat="49.37570298090577" lon="8.05577496998012">
<ele>181.79999999999995</ele>
<time>2023-05-18T10:39:00Z</time>
</trkpt>
<trkpt lat="49.375737933442" lon="8.055692994967103">
<ele>181.79999999999995</ele>
<time>2023-05-18T10:39:01Z</time>
</trkpt>
<trkpt lat="49.375774981454015" lon="8.055614959448576">
<ele>181.60000000000002</ele>
<time>2023-05-18T10:39:02Z</time>
</trkpt>
<trkpt lat="49.37581295147538" lon="8.05553499609232">
<ele>181.60000000000002</ele>
<time>2023-05-18T10:39:03Z</time>
</trkpt>
<trkpt lat="49.3758499994874" lon="8.055457966402173">
<ele>181.39999999999998</ele>
<time>2023-05-18T10:39:04Z</time>
</trkpt>
<trkpt lat="49.37588696368039" lon="8.055376997217536">
<ele>181.39999999999998</ele>
<time>2023-05-18T10:39:05Z</time>
</trkpt>
<trkpt lat="49.375926945358515" lon="8.055296950042248">
<ele>181.20000000000005</ele>
<time>2023-05-18T10:39:06Z</time>
</trkpt>
<trkpt lat="49.37596298754215" lon="8.055216986685991">
<ele>181.20000000000005</ele>
<time>2023-05-18T10:39:07Z</time>
</trkpt>
<trkpt lat="49.375994922593236" lon="8.055131994187832">
<ele>181</ele>
<time>2023-05-18T10:39:08Z</time>
</trkpt>
<trkpt lat="49.37602694146335" lon="8.055044990032911">
<ele>181</ele>
<time>2023-05-18T10:39:09Z</time>
</trkpt>
<trkpt lat="49.376056948676705" lon="8.054959997534752">
<ele>181</ele>
<time>2023-05-18T10:39:10Z</time>
</trkpt>
<trkpt lat="49.37608796171844" lon="8.054879950359464">
<ele>180.79999999999995</ele>
<time>2023-05-18T10:39:11Z</time>
</trkpt>
<trkpt lat="49.376117968931794" lon="8.054801998659968">
<ele>180.79999999999995</ele>
<time>2023-05-18T10:39:12Z</time>
</trkpt>
<trkpt lat="49.37615292146802" lon="8.054727986454964">
<ele>180.79999999999995</ele>
<time>2023-05-18T10:39:13Z</time>
</trkpt>
<trkpt lat="49.37618996948004" lon="8.0546569917351">
<ele>180.60000000000002</ele>
<time>2023-05-18T10:39:14Z</time>
</trkpt>
<trkpt lat="49.376226933673024" lon="8.054582979530096">
<ele>180.60000000000002</ele>
<time>2023-05-18T10:39:15Z</time>
</trkpt>
<trkpt lat="49.37625995837152" lon="8.054516930133104">
<ele>180.60000000000002</ele>
<time>2023-05-18T10:39:16Z</time>
</trkpt>
<trkpt lat="49.376292983070016" lon="8.054451970383525">
<ele>180.39999999999998</ele>
<time>2023-05-18T10:39:17Z</time>
</trkpt>
<trkpt lat="49.37632299028337" lon="8.054384998977184">
<ele>180.39999999999998</ele>
<time>2023-05-18T10:39:18Z</time>
</trkpt>
<trkpt lat="49.37634193338454" lon="8.054319955408573">
<ele>180.39999999999998</ele>
<time>2023-05-18T10:39:19Z</time>
</trkpt>
<trkpt lat="49.37634696252644" lon="8.054241919890046">
<ele>180.39999999999998</ele>
<time>2023-05-18T10:39:20Z</time>
</trkpt>
<trkpt lat="49.37634696252644" lon="8.054154999554157">
<ele>180.39999999999998</ele>
<time>2023-05-18T10:39:21Z</time>
</trkpt>
<trkpt lat="49.37634293921292" lon="8.054067995399237">
<ele>180.39999999999998</ele>
<time>2023-05-18T10:39:22Z</time>
</trkpt>
<trkpt lat="49.37633992172778" lon="8.053981997072697">
<ele>180.39999999999998</ele>
<time>2023-05-18T10:39:23Z</time>
</trkpt>
<trkpt lat="49.37633698806167" lon="8.053896920755506">
<ele>180.39999999999998</ele>
<time>2023-05-18T10:39:24Z</time>
</trkpt>
<trkpt lat="49.376331958919764" lon="8.053807988762856">
<ele>180.39999999999998</ele>
<time>2023-05-18T10:39:25Z</time>
</trkpt>
<trkpt lat="49.3763249181211" lon="8.053717967122793">
<ele>180.39999999999998</ele>
<time>2023-05-18T10:39:26Z</time>
</trkpt>
<trkpt lat="49.37631695531309" lon="8.053631968796253">
<ele>180.39999999999998</ele>
<time>2023-05-18T10:39:27Z</time>
</trkpt>
<trkpt lat="49.37630496919155" lon="8.053542952984571">
<ele>180.39999999999998</ele>
<time>2023-05-18T10:39:28Z</time>
</trkpt>
<trkpt lat="49.376291977241635" lon="8.05345494300127">
<ele>180.39999999999998</ele>
<time>2023-05-18T10:39:29Z</time>
</trkpt>
<trkpt lat="49.37627797946334" lon="8.05336793884635">
<ele>180.60000000000002</ele>
<time>2023-05-18T10:39:30Z</time>
</trkpt>
<trkpt lat="49.376269932836294" lon="8.05328294634819">
<ele>180.60000000000002</ele>
<time>2023-05-18T10:39:31Z</time>
</trkpt>
<trkpt lat="49.37625794671476" lon="8.05319493636489">
<ele>180.60000000000002</ele>
<time>2023-05-18T10:39:32Z</time>
</trkpt>
<trkpt lat="49.376247972249985" lon="8.053107932209969">
<ele>180.79999999999995</ele>
<time>2023-05-18T10:39:33Z</time>
</trkpt>
<trkpt lat="49.37623799778521" lon="8.053017994388938">
<ele>180.79999999999995</ele>
<time>2023-05-18T10:39:34Z</time>
</trkpt>
<trkpt lat="49.37622492201626" lon="8.052927972748876">
<ele>181</ele>
<time>2023-05-18T10:39:35Z</time>
</trkpt>
<trkpt lat="49.37621494755149" lon="8.052837951108813">
<ele>181</ele>
<time>2023-05-18T10:39:36Z</time>
</trkpt>
<trkpt lat="49.376202961429954" lon="8.052752958610654">
<ele>181</ele>
<time>2023-05-18T10:39:37Z</time>
</trkpt>
<trkpt lat="49.37619298696518" lon="8.052671989426017">
<ele>181.20000000000005</ele>
<time>2023-05-18T10:39:38Z</time>
</trkpt>
<trkpt lat="49.376179995015264" lon="8.052596971392632">
<ele>181.20000000000005</ele>
<time>2023-05-18T10:39:39Z</time>
</trkpt>
<trkpt lat="49.3761679250747" lon="8.052524970844388">
<ele>181.20000000000005</ele>
<time>2023-05-18T10:39:40Z</time>
</trkpt>
<trkpt lat="49.37615795060992" lon="8.052452970296144">
<ele>181.39999999999998</ele>
<time>2023-05-18T10:39:41Z</time>
</trkpt>
<trkpt lat="49.37614697031677" lon="8.052384993061423">
<ele>181.39999999999998</ele>
<time>2023-05-18T10:39:42Z</time>
</trkpt>
<trkpt lat="49.376136995851994" lon="8.052317937836051">
<ele>181.60000000000002</ele>
<time>2023-05-18T10:39:43Z</time>
</trkpt>
<trkpt lat="49.37612794339657" lon="8.052252978086472">
<ele>181.60000000000002</ele>
<time>2023-05-18T10:39:44Z</time>
</trkpt>
<trkpt lat="49.376119980588555" lon="8.052191957831383">
<ele>181.79999999999995</ele>
<time>2023-05-18T10:39:45Z</time>
</trkpt>
<trkpt lat="49.37611293978989" lon="8.052134960889816">
<ele>181.79999999999995</ele>
<time>2023-05-18T10:39:46Z</time>
</trkpt>
<trkpt lat="49.37611193396151" lon="8.052081987261772">
<ele>182</ele>
<time>2023-05-18T10:39:47Z</time>
</trkpt>
<trkpt lat="49.37610799446702" lon="8.05203496478498">
<ele>182</ele>
<time>2023-05-18T10:39:48Z</time>
</trkpt>
<trkpt lat="49.37610698863864" lon="8.05199297145009">
<ele>182</ele>
<time>2023-05-18T10:39:49Z</time>
</trkpt>
<trkpt lat="49.37610195949674" lon="8.051956929266453">
<ele>182.20000000000005</ele>
<time>2023-05-18T10:39:50Z</time>
</trkpt>
<trkpt lat="49.376096930354834" lon="8.051917953416705">
<ele>182.20000000000005</ele>
<time>2023-05-18T10:39:51Z</time>
</trkpt>
<trkpt lat="49.37609198503196" lon="8.051882917061448">
<ele>182.20000000000005</ele>
<time>2023-05-18T10:39:52Z</time>
</trkpt>
<trkpt lat="49.3760849442333" lon="8.051857938989997">
<ele>182.39999999999998</ele>
<time>2023-05-18T10:39:53Z</time>
</trkpt>
<trkpt lat="49.37608293257654" lon="8.051849976181984">
<ele>182.39999999999998</ele>
<time>2023-05-18T10:39:54Z</time>
</trkpt>
<trkpt lat="49.376076981425285" lon="8.051741933450103">
<ele>182.39999999999998</ele>
<time>2023-05-18T10:39:55Z</time>
</trkpt>
<trkpt lat="49.37606298364699" lon="8.051699940115213">
<ele>182.39999999999998</ele>
<time>2023-05-18T10:39:56Z</time>
</trkpt>
<trkpt lat="49.37604999169707" lon="8.051649983972311">
<ele>182.39999999999998</ele>
<time>2023-05-18T10:39:57Z</time>
</trkpt>
<trkpt lat="49.376034988090396" lon="8.051591981202364">
<ele>182.39999999999998</ele>
<time>2023-05-18T10:39:58Z</time>
</trkpt>
<trkpt lat="49.37601998448372" lon="8.051529955118895">
<ele>182.39999999999998</ele>
<time>2023-05-18T10:39:59Z</time>
</trkpt>
<trkpt lat="49.37599794007838" lon="8.051472958177328">
<ele>182.39999999999998</ele>
<time>2023-05-18T10:40:00Z</time>
</trkpt>
<trkpt lat="49.37597799114883" lon="8.051409926265478">
<ele>182.39999999999998</ele>
<time>2023-05-18T10:40:01Z</time>
</trkpt>
<trkpt lat="49.37595795840025" lon="8.051336919888854">
<ele>182.39999999999998</ele>
<time>2023-05-18T10:40:02Z</time>
</trkpt>
<trkpt lat="49.37593792565167" lon="8.051262991502881">
<ele>182.39999999999998</ele>
<time>2023-05-18T10:40:03Z</time>
</trkpt>
<trkpt lat="49.37591998837888" lon="8.051189985126257">
<ele>182.39999999999998</ele>
<time>2023-05-18T10:40:04Z</time>
</trkpt>
<trkpt lat="49.37589794397354" lon="8.051116978749633">
<ele>182.39999999999998</ele>
<time>2023-05-18T10:40:05Z</time>
</trkpt>
<trkpt lat="49.37587799504399" lon="8.05104698985815">
<ele>182.39999999999998</ele>
<time>2023-05-18T10:40:06Z</time>
</trkpt>
<trkpt lat="49.37585796229541" lon="8.050972977653146">
<ele>182.39999999999998</ele>
<time>2023-05-18T10:40:07Z</time>
</trkpt>
<trkpt lat="49.37583197839558" lon="8.050912963226438">
<ele>182.39999999999998</ele>
<time>2023-05-18T10:40:08Z</time>
</trkpt>
<trkpt lat="49.37581496313214" lon="8.050851942971349">
<ele>182.39999999999998</ele>
<time>2023-05-18T10:40:09Z</time>
</trkpt>
<trkpt lat="49.37580297701061" lon="8.050784971565008">
<ele>182.39999999999998</ele>
<time>2023-05-18T10:40:10Z</time>
</trkpt>
<trkpt lat="49.37578998506069" lon="8.050711965188384">
<ele>182.39999999999998</ele>
<time>2023-05-18T10:40:11Z</time>
</trkpt>
<trkpt lat="49.37578193843365" lon="8.050634935498238">
<ele>182.39999999999998</ele>
<time>2023-05-18T10:40:12Z</time>
</trkpt>
<trkpt lat="49.375774981454015" lon="8.050557989627123">
<ele>182.39999999999998</ele>
<time>2023-05-18T10:40:13Z</time>
</trkpt>
<trkpt lat="49.37576995231211" lon="8.050477942451835">
<ele>182.39999999999998</ele>
<time>2023-05-18T10:40:14Z</time>
</trkpt>
<trkpt lat="49.37575796619058" lon="8.050397979095578">
<ele>182.39999999999998</ele>
<time>2023-05-18T10:40:15Z</time>
</trkpt>
<trkpt lat="49.3757479917258" lon="8.050319943577051">
<ele>182.39999999999998</ele>
<time>2023-05-18T10:40:16Z</time>
</trkpt>
<trkpt lat="49.37574195675552" lon="8.050237968564034">
<ele>182.39999999999998</ele>
<time>2023-05-18T10:40:17Z</time>
</trkpt>
<trkpt lat="49.37574195675552" lon="8.050159933045506">
<ele>182.20000000000005</ele>
<time>2023-05-18T10:40:18Z</time>
</trkpt>
<trkpt lat="49.3757429625839" lon="8.050077958032489">
<ele>182.20000000000005</ele>
<time>2023-05-18T10:40:19Z</time>
</trkpt>
<trkpt lat="49.37574497424066" lon="8.049991959705949">
<ele>182.20000000000005</ele>
<time>2023-05-18T10:40:20Z</time>
</trkpt>
<trkpt lat="49.37574991956353" lon="8.049901938065886">
<ele>182.20000000000005</ele>
<time>2023-05-18T10:40:21Z</time>
</trkpt>
<trkpt lat="49.37575193122029" lon="8.049816945567727">
<ele>182.20000000000005</ele>
<time>2023-05-18T10:40:22Z</time>
</trkpt>
<trkpt lat="49.3757479917258" lon="8.049732958897948">
<ele>182.20000000000005</ele>
<time>2023-05-18T10:40:23Z</time>
</trkpt>
<trkpt lat="49.3757479917258" lon="8.049657940864563">
<ele>182.20000000000005</ele>
<time>2023-05-18T10:40:24Z</time>
</trkpt>
<trkpt lat="49.37574991956353" lon="8.049581917002797">
<ele>182.20000000000005</ele>
<time>2023-05-18T10:40:25Z</time>
</trkpt>
<trkpt lat="49.375752937048674" lon="8.049504971131682">
<ele>182.20000000000005</ele>
<time>2023-05-18T10:40:26Z</time>
</trkpt>
<trkpt lat="49.375754948705435" lon="8.0494349822402">
<ele>182.20000000000005</ele>
<time>2023-05-18T10:40:27Z</time>
</trkpt>
<trkpt lat="49.375754948705435" lon="8.049364993348718">
<ele>182.20000000000005</ele>
<time>2023-05-18T10:40:28Z</time>
</trkpt>
<trkpt lat="49.375754948705435" lon="8.049289975315332">
<ele>182.39999999999998</ele>
<time>2023-05-18T10:40:29Z</time>
</trkpt>
<trkpt lat="49.37575193122029" lon="8.049211939796805">
<ele>182.39999999999998</ele>
<time>2023-05-18T10:40:30Z</time>
</trkpt>
<trkpt lat="49.3757479917258" lon="8.049129964783788">
<ele>182.39999999999998</ele>
<time>2023-05-18T10:40:31Z</time>
</trkpt>
<trkpt lat="49.3757429625839" lon="8.04904698394239">
<ele>182.39999999999998</ele>
<time>2023-05-18T10:40:32Z</time>
</trkpt>
<trkpt lat="49.375736927613616" lon="8.04896299727261">
<ele>182.39999999999998</ele>
<time>2023-05-18T10:40:33Z</time>
</trkpt>
<trkpt lat="49.375729970633984" lon="8.04887792095542">
<ele>182.60000000000002</ele>
<time>2023-05-18T10:40:34Z</time>
</trkpt>
<trkpt lat="49.37572192400694" lon="8.04879192262888">
<ele>182.60000000000002</ele>
<time>2023-05-18T10:40:35Z</time>
</trkpt>
<trkpt lat="49.37571496702731" lon="8.0487079359591">
<ele>182.60000000000002</ele>
<time>2023-05-18T10:40:36Z</time>
</trkpt>
<trkpt lat="49.37570197507739" lon="8.048626966774464">
<ele>182.60000000000002</ele>
<time>2023-05-18T10:40:37Z</time>
</trkpt>
<trkpt lat="49.375687977299094" lon="8.048547925427556">
<ele>182.60000000000002</ele>
<time>2023-05-18T10:40:38Z</time>
</trkpt>
<trkpt lat="49.37567791901529" lon="8.0484679620713">
<ele>182.79999999999995</ele>
<time>2023-05-18T10:40:39Z</time>
</trkpt>
<trkpt lat="49.37566492706537" lon="8.048386992886662">
<ele>182.79999999999995</ele>
<time>2023-05-18T10:40:40Z</time>
</trkpt>
<trkpt lat="49.375649923458695" lon="8.048301916569471">
<ele>182.79999999999995</ele>
<time>2023-05-18T10:40:41Z</time>
</trkpt>
<trkpt lat="49.37563299201429" lon="8.04820996709168">
<ele>183</ele>
<time>2023-05-18T10:40:42Z</time>
</trkpt>
<trkpt lat="49.37561295926571" lon="8.048131931573153">
<ele>183</ele>
<time>2023-05-18T10:40:43Z</time>
</trkpt>
<trkpt lat="49.37559493817389" lon="8.048059931024909">
<ele>183</ele>
<time>2023-05-18T10:40:44Z</time>
</trkpt>
<trkpt lat="49.37557993456721" lon="8.047987930476665">
<ele>183</ele>
<time>2023-05-18T10:40:45Z</time>
</trkpt>
<trkpt lat="49.375561997294426" lon="8.047917941585183">
<ele>183</ele>
<time>2023-05-18T10:40:46Z</time>
</trkpt>
<trkpt lat="49.375541964545846" lon="8.047842923551798">
<ele>183</ele>
<time>2023-05-18T10:40:47Z</time>
</trkpt>
<trkpt lat="49.375519920140505" lon="8.047771928831935">
<ele>183</ele>
<time>2023-05-18T10:40:48Z</time>
</trkpt>
<trkpt lat="49.375496953725815" lon="8.047699928283691">
<ele>183</ele>
<time>2023-05-18T10:40:49Z</time>
</trkpt>
<trkpt lat="49.375471975654364" lon="8.047626921907067">
<ele>183</ele>
<time>2023-05-18T10:40:50Z</time>
</trkpt>
<trkpt lat="49.37544791959226" lon="8.047554921358824">
<ele>183</ele>
<time>2023-05-18T10:40:51Z</time>
</trkpt>
<trkpt lat="49.37542294152081" lon="8.047481998801231">
<ele>183</ele>
<time>2023-05-18T10:40:52Z</time>
</trkpt>
<trkpt lat="49.37539695762098" lon="8.047414943575859">
<ele>183</ele>
<time>2023-05-18T10:40:53Z</time>
</trkpt>
<trkpt lat="49.375366950407624" lon="8.04735199548304">
<ele>183</ele>
<time>2023-05-18T10:40:54Z</time>
</trkpt>
<trkpt lat="49.37533291988075" lon="8.047297932207584">
<ele>182.79999999999995</ele>
<time>2023-05-18T10:40:55Z</time>
</trkpt>
<trkpt lat="49.375299979001284" lon="8.047249987721443">
<ele>182.79999999999995</ele>
<time>2023-05-18T10:40:56Z</time>
</trkpt>
<trkpt lat="49.37526997178793" lon="8.047196930274367">
<ele>182.79999999999995</ele>
<time>2023-05-18T10:40:57Z</time>
</trkpt>
<trkpt lat="49.375236947089434" lon="8.047142950817943">
<ele>182.79999999999995</ele>
<time>2023-05-18T10:40:58Z</time>
</trkpt>
<trkpt lat="49.37520199455321" lon="8.04709198884666">
<ele>182.79999999999995</ele>
<time>2023-05-18T10:40:59Z</time>
</trkpt>
<trkpt lat="49.37516695819795" lon="8.047041948884726">
<ele>182.60000000000002</ele>
<time>2023-05-18T10:41:00Z</time>
</trkpt>
<trkpt lat="49.375129994004965" lon="8.046991992741823">
<ele>182.39999999999998</ele>
<time>2023-05-18T10:41:01Z</time>
</trkpt>
<trkpt lat="49.37509696930647" lon="8.046949999406934">
<ele>182.39999999999998</ele>
<time>2023-05-18T10:41:02Z</time>
</trkpt>
<trkpt lat="49.375064950436354" lon="8.046896941959858">
<ele>182.20000000000005</ele>
<time>2023-05-18T10:41:03Z</time>
</trkpt>
<trkpt lat="49.375034943223" lon="8.046851931139827">
<ele>182</ele>
<time>2023-05-18T10:41:04Z</time>
</trkpt>
<trkpt lat="49.37500694766641" lon="8.046804992482066">
<ele>182</ele>
<time>2023-05-18T10:41:05Z</time>
</trkpt>
<trkpt lat="49.37497492879629" lon="8.046761993318796">
<ele>182</ele>
<time>2023-05-18T10:41:06Z</time>
</trkpt>
<trkpt lat="49.374937964603305" lon="8.04672997444868">
<ele>181.79999999999995</ele>
<time>2023-05-18T10:41:07Z</time>
</trkpt>
<trkpt lat="49.37490192241967" lon="8.046691920608282">
<ele>181.79999999999995</ele>
<time>2023-05-18T10:41:08Z</time>
</trkpt>
<trkpt lat="49.37485791742802" lon="8.046674989163876">
<ele>181.79999999999995</ele>
<time>2023-05-18T10:41:09Z</time>
</trkpt>
<trkpt lat="49.37481692992151" lon="8.046644981950521">
<ele>181.79999999999995</ele>
<time>2023-05-18T10:41:10Z</time>
</trkpt>
<trkpt lat="49.37477795407176" lon="8.046611957252026">
<ele>181.79999999999995</ele>
<time>2023-05-18T10:41:11Z</time>
</trkpt>
<trkpt lat="49.37473294325173" lon="8.046581950038671">
<ele>181.79999999999995</ele>
<time>2023-05-18T10:41:12Z</time>
</trkpt>
<trkpt lat="49.3746879324317" lon="8.046552948653698">
<ele>181.79999999999995</ele>
<time>2023-05-18T10:41:13Z</time>
</trkpt>
<trkpt lat="49.37464694492519" lon="8.046522941440344">
<ele>181.79999999999995</ele>
<time>2023-05-18T10:41:14Z</time>
</trkpt>
<trkpt lat="49.37459698878229" lon="8.046501986682415">
<ele>181.79999999999995</ele>
<time>2023-05-18T10:41:15Z</time>
</trkpt>
<trkpt lat="49.37454795464873" lon="8.046472985297441">
<ele>182</ele>
<time>2023-05-18T10:41:16Z</time>
</trkpt>
<trkpt lat="49.3745029438287" lon="8.04644993506372">
<ele>182</ele>
<time>2023-05-18T10:41:17Z</time>
</trkpt>
<trkpt lat="49.37445793300867" lon="8.04642797447741">
<ele>182</ele>
<time>2023-05-18T10:41:18Z</time>
</trkpt>
<trkpt lat="49.37440998852253" lon="8.046404924243689">
<ele>182</ele>
<time>2023-05-18T10:41:19Z</time>
</trkpt>
<trkpt lat="49.37436296604574" lon="8.046386986970901">
<ele>182</ele>
<time>2023-05-18T10:41:20Z</time>
</trkpt>
<trkpt lat="49.374316949397326" lon="8.046367960050702">
<ele>182.20000000000005</ele>
<time>2023-05-18T10:41:21Z</time>
</trkpt>
<trkpt lat="49.37426992692053" lon="8.046344993636012">
<ele>182.20000000000005</ele>
<time>2023-05-18T10:41:22Z</time>
</trkpt>
<trkpt lat="49.37422692775726" lon="8.046324960887432">
<ele>182.39999999999998</ele>
<time>2023-05-18T10:41:23Z</time>
</trkpt>
<trkpt lat="49.374186946079135" lon="8.046301994472742">
<ele>182.39999999999998</ele>
<time>2023-05-18T10:41:24Z</time>
</trkpt>
<trkpt lat="49.37414998188615" lon="8.04627693258226">
<ele>182.60000000000002</ele>
<time>2023-05-18T10:41:25Z</time>
</trkpt>
<trkpt lat="49.37411293387413" lon="8.04625497199595">
<ele>182.60000000000002</ele>
<time>2023-05-18T10:41:26Z</time>
</trkpt>
<trkpt lat="49.374072952196" lon="8.046239968389273">
<ele>182.79999999999995</ele>
<time>2023-05-18T10:41:27Z</time>
</trkpt>
<trkpt lat="49.374032970517874" lon="8.046229993924499">
<ele>182.79999999999995</ele>
<time>2023-05-18T10:41:28Z</time>
</trkpt>
<trkpt lat="49.37398795969784" lon="8.046222953125834">
<ele>182.79999999999995</ele>
<time>2023-05-18T10:41:29Z</time>
</trkpt>
<trkpt lat="49.37394294887781" lon="8.046219935640693">
<ele>182.79999999999995</ele>
<time>2023-05-18T10:41:30Z</time>
</trkpt>
<trkpt lat="49.37390296719968" lon="8.046217923983932">
<ele>183</ele>
<time>2023-05-18T10:41:31Z</time>
</trkpt>
<trkpt lat="49.373861979693174" lon="8.046219935640693">
<ele>183</ele>
<time>2023-05-18T10:41:32Z</time>
</trkpt>
<trkpt lat="49.373819986358285" lon="8.046227982267737">
<ele>183</ele>
<time>2023-05-18T10:41:33Z</time>
</trkpt>
<trkpt lat="49.373774975538254" lon="8.04623493924737">
<ele>183</ele>
<time>2023-05-18T10:41:34Z</time>
</trkpt>
<trkpt lat="49.373731976374984" lon="8.046237956732512">
<ele>183</ele>
<time>2023-05-18T10:41:35Z</time>
</trkpt>
<trkpt lat="49.37368696555495" lon="8.046246925368905">
<ele>183</ele>
<time>2023-05-18T10:41:36Z</time>
</trkpt>
<trkpt lat="49.37364195473492" lon="8.046257989481091">
<ele>183</ele>
<time>2023-05-18T10:41:37Z</time>
</trkpt>
<trkpt lat="49.37359996140003" lon="8.046261928975582">
<ele>183</ele>
<time>2023-05-18T10:41:38Z</time>
</trkpt>
<trkpt lat="49.373559979721904" lon="8.046271987259388">
<ele>183.20000000000005</ele>
<time>2023-05-18T10:41:39Z</time>
</trkpt>
<trkpt lat="49.373517986387014" lon="8.046286990866065">
<ele>183.20000000000005</ele>
<time>2023-05-18T10:41:40Z</time>
</trkpt>
<trkpt lat="49.373479932546616" lon="8.046306939795613">
<ele>183.39999999999998</ele>
<time>2023-05-18T10:41:41Z</time>
</trkpt>
<trkpt lat="49.373437939211726" lon="8.046326972544193">
<ele>183.39999999999998</ele>
<time>2023-05-18T10:41:42Z</time>
</trkpt>
<trkpt lat="49.373392928391695" lon="8.046344993636012">
<ele>183.39999999999998</ele>
<time>2023-05-18T10:41:43Z</time>
</trkpt>
<trkpt lat="49.373347917571664" lon="8.046361925080419">
<ele>183.60000000000002</ele>
<time>2023-05-18T10:41:44Z</time>
</trkpt>
<trkpt lat="49.373302990570664" lon="8.046374917030334">
<ele>183.60000000000002</ele>
<time>2023-05-18T10:41:45Z</time>
</trkpt>
<trkpt lat="49.37325697392225" lon="8.046387992799282">
<ele>183.79999999999995</ele>
<time>2023-05-18T10:41:46Z</time>
</trkpt>
<trkpt lat="49.37321498058736" lon="8.04640299640596">
<ele>183.79999999999995</ele>
<time>2023-05-18T10:41:47Z</time>
</trkpt>
<trkpt lat="49.37316795811057" lon="8.046414982527494">
<ele>184</ele>
<time>2023-05-18T10:41:48Z</time>
</trkpt>
<trkpt lat="49.37312797643244" lon="8.046424956992269">
<ele>184.20000000000005</ele>
<time>2023-05-18T10:41:49Z</time>
</trkpt>
<trkpt lat="49.37310299836099" lon="8.046436943113804">
<ele>184.20000000000005</ele>
<time>2023-05-18T10:41:50Z</time>
</trkpt>
<trkpt lat="49.373069973662496" lon="8.046447923406959">
<ele>184.39999999999998</ele>
<time>2023-05-18T10:41:51Z</time>
</trkpt>
<trkpt lat="49.37302999198437" lon="8.046462927013636">
<ele>184.39999999999998</ele>
<time>2023-05-18T10:41:52Z</time>
</trkpt>
<trkpt lat="49.372982969507575" lon="8.046481953933835">
<ele>184.39999999999998</ele>
<time>2023-05-18T10:41:53Z</time>
</trkpt>
<trkpt lat="49.37292697839439" lon="8.04649192839861">
<ele>184.39999999999998</ele>
<time>2023-05-18T10:41:54Z</time>
</trkpt>
<trkpt lat="49.372876938432455" lon="8.046496957540512">
<ele>184.39999999999998</ele>
<time>2023-05-18T10:41:55Z</time>
</trkpt>
<trkpt lat="49.37282798811793" lon="8.04651196114719">
<ele>184.39999999999998</ele>
<time>2023-05-18T10:41:56Z</time>
</trkpt>
<trkpt lat="49.37277199700475" lon="8.046516990289092">
<ele>184.39999999999998</ele>
<time>2023-05-18T10:41:57Z</time>
</trkpt>
<trkpt lat="49.37271298840642" lon="8.046524953097105">
<ele>184.39999999999998</ele>
<time>2023-05-18T10:41:58Z</time>
</trkpt>
<trkpt lat="49.37265196815133" lon="8.046529982239008">
<ele>184.39999999999998</ele>
<time>2023-05-18T10:41:59Z</time>
</trkpt>
<trkpt lat="49.37259195372462" lon="8.046529982239008">
<ele>184.20000000000005</ele>
<time>2023-05-18T10:42:00Z</time>
</trkpt>
<trkpt lat="49.37252992764115" lon="8.046527970582247">
<ele>184.20000000000005</ele>
<time>2023-05-18T10:42:01Z</time>
</trkpt>
<trkpt lat="49.37245993874967" lon="8.046524953097105">
<ele>184.20000000000005</ele>
<time>2023-05-18T10:42:02Z</time>
</trkpt>
<trkpt lat="49.37238693237305" lon="8.046514978632331">
<ele>184.20000000000005</ele>
<time>2023-05-18T10:42:03Z</time>
</trkpt>
<trkpt lat="49.372317949309945" lon="8.046489916741848">
<ele>184.20000000000005</ele>
<time>2023-05-18T10:42:04Z</time>
</trkpt>
<trkpt lat="49.37226195819676" lon="8.046474996954203">
<ele>184.20000000000005</ele>
<time>2023-05-18T10:42:05Z</time>
</trkpt>
<trkpt lat="49.37219498679042" lon="8.046457981690764">
<ele>184.20000000000005</ele>
<time>2023-05-18T10:42:06Z</time>
</trkpt>
<trkpt lat="49.37214192934334" lon="8.046456975862384">
<ele>184</ele>
<time>2023-05-18T10:42:07Z</time>
</trkpt>
<trkpt lat="49.372082920745015" lon="8.046452952548862">
<ele>184</ele>
<time>2023-05-18T10:42:08Z</time>
</trkpt>
<trkpt lat="49.37202692963183" lon="8.04644993506372">
<ele>184</ele>
<time>2023-05-18T10:42:09Z</time>
</trkpt>
<trkpt lat="49.371974961832166" lon="8.046447923406959">
<ele>184</ele>
<time>2023-05-18T10:42:10Z</time>
</trkpt>
<trkpt lat="49.37191997654736" lon="8.046442978084087">
<ele>184</ele>
<time>2023-05-18T10:42:11Z</time>
</trkpt>
<trkpt lat="49.37186197377741" lon="8.046431997790933">
<ele>184</ele>
<time>2023-05-18T10:42:12Z</time>
</trkpt>
<trkpt lat="49.37180799432099" lon="8.046416994184256">
<ele>184</ele>
<time>2023-05-18T10:42:13Z</time>
</trkpt>
<trkpt lat="49.37175292521715" lon="8.046394949778914">
<ele>184</ele>
<time>2023-05-18T10:42:14Z</time>
</trkpt>
<trkpt lat="49.37169995158911" lon="8.046371983364224">
<ele>184</ele>
<time>2023-05-18T10:42:15Z</time>
</trkpt>
<trkpt lat="49.371647983789444" lon="8.046344993636012">
<ele>184</ele>
<time>2023-05-18T10:42:16Z</time>
</trkpt>
<trkpt lat="49.37159794382751" lon="8.046314986422658">
<ele>184</ele>
<time>2023-05-18T10:42:17Z</time>
</trkpt>
<trkpt lat="49.37154698185623" lon="8.046272993087769">
<ele>184</ele>
<time>2023-05-18T10:42:18Z</time>
</trkpt>
<trkpt lat="49.37149794772267" lon="8.046222953125834">
<ele>184</ele>
<time>2023-05-18T10:42:19Z</time>
</trkpt>
<trkpt lat="49.37144799157977" lon="8.046172996982932">
<ele>184</ele>
<time>2023-05-18T10:42:20Z</time>
</trkpt>
<trkpt lat="49.37140298075974" lon="8.04612496867776">
<ele>184</ele>
<time>2023-05-18T10:42:21Z</time>
</trkpt>
<trkpt lat="49.37135696411133" lon="8.046074928715825">
<ele>184</ele>
<time>2023-05-18T10:42:22Z</time>
</trkpt>
<trkpt lat="49.37131497077644" lon="8.046021955087781">
<ele>184</ele>
<time>2023-05-18T10:42:23Z</time>
</trkpt>
<trkpt lat="49.371267948299646" lon="8.045974932610989">
<ele>184</ele>
<time>2023-05-18T10:42:24Z</time>
</trkpt>
<trkpt lat="49.37122796662152" lon="8.045922964811325">
<ele>184</ele>
<time>2023-05-18T10:42:25Z</time>
</trkpt>
<trkpt lat="49.37118295580149" lon="8.04587191902101">
<ele>184</ele>
<time>2023-05-18T10:42:26Z</time>
</trkpt>
<trkpt lat="49.371137944981456" lon="8.04582498036325">
<ele>184</ele>
<time>2023-05-18T10:42:27Z</time>
</trkpt>
<trkpt lat="49.37109997496009" lon="8.045771922916174">
<ele>184</ele>
<time>2023-05-18T10:42:28Z</time>
</trkpt>
<trkpt lat="49.37105697579682" lon="8.045714925974607">
<ele>184</ele>
<time>2023-05-18T10:42:29Z</time>
</trkpt>
<trkpt lat="49.371006935834885" lon="8.045669998973608">
<ele>184</ele>
<time>2023-05-18T10:42:30Z</time>
</trkpt>
<trkpt lat="49.37095798552036" lon="8.045614929869771">
<ele>184</ele>
<time>2023-05-18T10:42:31Z</time>
</trkpt>
<trkpt lat="49.37090995721519" lon="8.045559944584966">
<ele>184</ele>
<time>2023-05-18T10:42:32Z</time>
</trkpt>
<trkpt lat="49.37086192891002" lon="8.045499930158257">
<ele>184</ele>
<time>2023-05-18T10:42:33Z</time>
</trkpt>
<trkpt lat="49.370812978595495" lon="8.04543798789382">
<ele>184</ele>
<time>2023-05-18T10:42:34Z</time>
</trkpt>
<trkpt lat="49.37076495029032" lon="8.045376967638731">
<ele>184</ele>
<time>2023-05-18T10:42:35Z</time>
</trkpt>
<trkpt lat="49.37071993947029" lon="8.045314941555262">
<ele>184</ele>
<time>2023-05-18T10:42:36Z</time>
</trkpt>
<trkpt lat="49.3706779461354" lon="8.045252999290824">
<ele>184</ele>
<time>2023-05-18T10:42:37Z</time>
</trkpt>
<trkpt lat="49.37063695862889" lon="8.045194996520877">
<ele>184.20000000000005</ele>
<time>2023-05-18T10:42:38Z</time>
</trkpt>
<trkpt lat="49.37059295363724" lon="8.04513799957931">
<ele>184.20000000000005</ele>
<time>2023-05-18T10:42:39Z</time>
</trkpt>
<trkpt lat="49.37054995447397" lon="8.045082930475473">
<ele>184.20000000000005</ele>
<time>2023-05-18T10:42:40Z</time>
</trkpt>
<trkpt lat="49.37050796113908" lon="8.04503196850419">
<ele>184.20000000000005</ele>
<time>2023-05-18T10:42:41Z</time>
</trkpt>
<trkpt lat="49.370466973632574" lon="8.044979916885495">
<ele>184.20000000000005</ele>
<time>2023-05-18T10:42:42Z</time>
</trkpt>
<trkpt lat="49.37042296864092" lon="8.04492493160069">
<ele>184.20000000000005</ele>
<time>2023-05-18T10:42:43Z</time>
</trkpt>
<trkpt lat="49.37037795782089" lon="8.044871957972646">
<ele>184.20000000000005</ele>
<time>2023-05-18T10:42:44Z</time>
</trkpt>
<trkpt lat="49.37033495865762" lon="8.044821918010712">
<ele>184.20000000000005</ele>
<time>2023-05-18T10:42:45Z</time>
</trkpt>
<trkpt lat="49.37029195949435" lon="8.04477196186781">
<ele>184.20000000000005</ele>
<time>2023-05-18T10:42:46Z</time>
</trkpt>
<trkpt lat="49.370251977816224" lon="8.044719994068146">
<ele>184.20000000000005</ele>
<time>2023-05-18T10:42:47Z</time>
</trkpt>
<trkpt lat="49.370212918147445" lon="8.04466794244945">
<ele>184.20000000000005</ele>
<time>2023-05-18T10:42:48Z</time>
</trkpt>
<trkpt lat="49.37017494812608" lon="8.044611951336265">
<ele>184.20000000000005</ele>
<time>2023-05-18T10:42:49Z</time>
</trkpt>
<trkpt lat="49.37013697810471" lon="8.044551936909556">
<ele>184.20000000000005</ele>
<time>2023-05-18T10:42:50Z</time>
</trkpt>
<trkpt lat="49.37010194174945" lon="8.044486977159977">
<ele>184.20000000000005</ele>
<time>2023-05-18T10:42:51Z</time>
</trkpt>
<trkpt lat="49.37006992287934" lon="8.04440793581307">
<ele>184.20000000000005</ele>
<time>2023-05-18T10:42:52Z</time>
</trkpt>
<trkpt lat="49.370036981999874" lon="8.044339958578348">
<ele>184.20000000000005</ele>
<time>2023-05-18T10:42:53Z</time>
</trkpt>
<trkpt lat="49.37000496312976" lon="8.044272987172008">
<ele>184.20000000000005</ele>
<time>2023-05-18T10:42:54Z</time>
</trkpt>
<trkpt lat="49.369976967573166" lon="8.044206937775016">
<ele>184.20000000000005</ele>
<time>2023-05-18T10:42:55Z</time>
</trkpt>
<trkpt lat="49.36994997784495" lon="8.044136948883533">
<ele>184.20000000000005</ele>
<time>2023-05-18T10:42:56Z</time>
</trkpt>
<trkpt lat="49.36992298811674" lon="8.044061930850148">
<ele>184.20000000000005</ele>
<time>2023-05-18T10:42:57Z</time>
</trkpt>
<trkpt lat="49.36989993788302" lon="8.043981967493892">
<ele>184.20000000000005</ele>
<time>2023-05-18T10:42:58Z</time>
</trkpt>
<trkpt lat="49.36987697146833" lon="8.043904937803745">
<ele>184.20000000000005</ele>
<time>2023-05-18T10:42:59Z</time>
</trkpt>
<trkpt lat="49.36985492706299" lon="8.04382991977036">
<ele>184.20000000000005</ele>
<time>2023-05-18T10:43:00Z</time>
</trkpt>
<trkpt lat="49.3698319606483" lon="8.043752973899245">
<ele>184.20000000000005</ele>
<time>2023-05-18T10:43:01Z</time>
</trkpt>
<trkpt lat="49.36980991624296" lon="8.043679967522621">
<ele>184.20000000000005</ele>
<time>2023-05-18T10:43:02Z</time>
</trkpt>
<trkpt lat="49.36978996731341" lon="8.043604949489236">
<ele>184.20000000000005</ele>
<time>2023-05-18T10:43:03Z</time>
</trkpt>
<trkpt lat="49.36976993456483" lon="8.04352699778974">
<ele>184.20000000000005</ele>
<time>2023-05-18T10:43:04Z</time>
</trkpt>
<trkpt lat="49.36975291930139" lon="8.043446950614452">
<ele>184.20000000000005</ele>
<time>2023-05-18T10:43:05Z</time>
</trkpt>
<trkpt lat="49.369736993685365" lon="8.043362963944674">
<ele>184.20000000000005</ele>
<time>2023-05-18T10:43:06Z</time>
</trkpt>
<trkpt lat="49.36972299590707" lon="8.043277971446514">
<ele>184.20000000000005</ele>
<time>2023-05-18T10:43:07Z</time>
</trkpt>
<trkpt lat="49.36970992013812" lon="8.043191973119974">
<ele>184.20000000000005</ele>
<time>2023-05-18T10:43:08Z</time>
</trkpt>
<trkpt lat="49.369696928188205" lon="8.043106980621815">
<ele>184.20000000000005</ele>
<time>2023-05-18T10:43:09Z</time>
</trkpt>
<trkpt lat="49.36968293040991" lon="8.043021988123655">
<ele>184.20000000000005</ele>
<time>2023-05-18T10:43:10Z</time>
</trkpt>
<trkpt lat="49.36966993845999" lon="8.042936995625496">
<ele>184.20000000000005</ele>
<time>2023-05-18T10:43:11Z</time>
</trkpt>
<trkpt lat="49.36966197565198" lon="8.042844962328672">
<ele>184.20000000000005</ele>
<time>2023-05-18T10:43:12Z</time>
</trkpt>
<trkpt lat="49.369651917368174" lon="8.042756952345371">
<ele>184.20000000000005</ele>
<time>2023-05-18T10:43:13Z</time>
</trkpt>
<trkpt lat="49.3696419429034" lon="8.042666930705309">
<ele>184.20000000000005</ele>
<time>2023-05-18T10:43:14Z</time>
</trkpt>
<trkpt lat="49.369631968438625" lon="8.042576992884278">
<ele>184.20000000000005</ele>
<time>2023-05-18T10:43:15Z</time>
</trkpt>
<trkpt lat="49.36962492763996" lon="8.042482947930694">
<ele>184.20000000000005</ele>
<time>2023-05-18T10:43:16Z</time>
</trkpt>
<trkpt lat="49.36961998231709" lon="8.04238697513938">
<ele>184.20000000000005</ele>
<time>2023-05-18T10:43:17Z</time>
</trkpt>
<trkpt lat="49.36961495317519" lon="8.042292930185795">
<ele>184.20000000000005</ele>
<time>2023-05-18T10:43:18Z</time>
</trkpt>
<trkpt lat="49.369609924033284" lon="8.042206931859255">
<ele>184.20000000000005</ele>
<time>2023-05-18T10:43:19Z</time>
</trkpt>
<trkpt lat="49.36960296705365" lon="8.042119927704334">
<ele>184.20000000000005</ele>
<time>2023-05-18T10:43:20Z</time>
</trkpt>
<trkpt lat="49.36959994956851" lon="8.042029989883304">
<ele>184.20000000000005</ele>
<time>2023-05-18T10:43:21Z</time>
</trkpt>
<trkpt lat="49.36959693208337" lon="8.041942985728383">
<ele>184.20000000000005</ele>
<time>2023-05-18T10:43:22Z</time>
</trkpt>
<trkpt lat="49.36959492042661" lon="8.041854975745082">
<ele>184.20000000000005</ele>
<time>2023-05-18T10:43:23Z</time>
</trkpt>
<trkpt lat="49.3695919867605" lon="8.04176696576178">
<ele>184.20000000000005</ele>
<time>2023-05-18T10:43:24Z</time>
</trkpt>
<trkpt lat="49.369589975103736" lon="8.04167996160686">
<ele>184.20000000000005</ele>
<time>2023-05-18T10:43:25Z</time>
</trkpt>
<trkpt lat="49.369589975103736" lon="8.041586922481656">
<ele>184.20000000000005</ele>
<time>2023-05-18T10:43:26Z</time>
</trkpt>
<trkpt lat="49.36958494596183" lon="8.041497990489006">
<ele>184.20000000000005</ele>
<time>2023-05-18T10:43:27Z</time>
</trkpt>
<trkpt lat="49.36958192847669" lon="8.041407968848944">
<ele>184.20000000000005</ele>
<time>2023-05-18T10:43:28Z</time>
</trkpt>
<trkpt lat="49.3695779889822" lon="8.041322976350784">
<ele>184.39999999999998</ele>
<time>2023-05-18T10:43:29Z</time>
</trkpt>
<trkpt lat="49.36957497149706" lon="8.041239995509386">
<ele>184.39999999999998</ele>
<time>2023-05-18T10:43:30Z</time>
</trkpt>
<trkpt lat="49.3695729598403" lon="8.041159948334098">
<ele>184.39999999999998</ele>
<time>2023-05-18T10:43:31Z</time>
</trkpt>
<trkpt lat="49.36957195401192" lon="8.0410769674927">
<ele>184.60000000000002</ele>
<time>2023-05-18T10:43:32Z</time>
</trkpt>
<trkpt lat="49.369569942355156" lon="8.04099197499454">
<ele>184.60000000000002</ele>
<time>2023-05-18T10:43:33Z</time>
</trkpt>
<trkpt lat="49.36957195401192" lon="8.040902959182858">
<ele>184.60000000000002</ele>
<time>2023-05-18T10:43:34Z</time>
</trkpt>
<trkpt lat="49.36957195401192" lon="8.04081997834146">
<ele>184.79999999999995</ele>
<time>2023-05-18T10:43:35Z</time>
</trkpt>
<trkpt lat="49.369567930698395" lon="8.040729956701398">
<ele>184.79999999999995</ele>
<time>2023-05-18T10:43:36Z</time>
</trkpt>
<trkpt lat="49.369562985375524" lon="8.04064697586">
<ele>185</ele>
<time>2023-05-18T10:43:37Z</time>
</trkpt>
<trkpt lat="49.36955795623362" lon="8.04056491702795">
<ele>185</ele>
<time>2023-05-18T10:43:38Z</time>
</trkpt>
<trkpt lat="49.36955493874848" lon="8.040481936186552">
<ele>185.20000000000005</ele>
<time>2023-05-18T10:43:39Z</time>
</trkpt>
<trkpt lat="49.36954999342561" lon="8.040399961173534">
<ele>185.20000000000005</ele>
<time>2023-05-18T10:43:40Z</time>
</trkpt>
<trkpt lat="49.36954798176885" lon="8.040317986160517">
<ele>185.20000000000005</ele>
<time>2023-05-18T10:43:41Z</time>
</trkpt>
<trkpt lat="49.369544964283705" lon="8.040236933156848">
<ele>185.20000000000005</ele>
<time>2023-05-18T10:43:42Z</time>
</trkpt>
<trkpt lat="49.36953792348504" lon="8.04015294648707">
<ele>185.20000000000005</ele>
<time>2023-05-18T10:43:43Z</time>
</trkpt>
<trkpt lat="49.36953297816217" lon="8.040071977302432">
<ele>185.20000000000005</ele>
<time>2023-05-18T10:43:44Z</time>
</trkpt>
<trkpt lat="49.36952794902027" lon="8.039987990632653">
<ele>185.20000000000005</ele>
<time>2023-05-18T10:43:45Z</time>
</trkpt>
<trkpt lat="49.369526943191886" lon="8.039909955114126">
<ele>185.20000000000005</ele>
<time>2023-05-18T10:43:46Z</time>
</trkpt>
<trkpt lat="49.369522919878364" lon="8.03982999175787">
<ele>185.20000000000005</ele>
<time>2023-05-18T10:43:47Z</time>
</trkpt>
<trkpt lat="49.369519986212254" lon="8.039751956239343">
<ele>185.20000000000005</ele>
<time>2023-05-18T10:43:48Z</time>
</trkpt>
<trkpt lat="49.36951294541359" lon="8.039669981226325">
<ele>185.20000000000005</ele>
<time>2023-05-18T10:43:49Z</time>
</trkpt>
<trkpt lat="49.369502970948815" lon="8.039584988728166">
<ele>185.20000000000005</ele>
<time>2023-05-18T10:43:50Z</time>
</trkpt>
<trkpt lat="49.3694899789989" lon="8.039497984573245">
<ele>185.20000000000005</ele>
<time>2023-05-18T10:43:51Z</time>
</trkpt>
<trkpt lat="49.36947497539222" lon="8.039414919912815">
<ele>185.20000000000005</ele>
<time>2023-05-18T10:43:52Z</time>
</trkpt>
<trkpt lat="49.369459971785545" lon="8.039331939071417">
<ele>185.20000000000005</ele>
<time>2023-05-18T10:43:53Z</time>
</trkpt>
<trkpt lat="49.36944295652211" lon="8.039254993200302">
<ele>185.20000000000005</ele>
<time>2023-05-18T10:43:54Z</time>
</trkpt>
<trkpt lat="49.36942493543029" lon="8.039177963510156">
<ele>185.39999999999998</ele>
<time>2023-05-18T10:43:55Z</time>
</trkpt>
<trkpt lat="49.3694069981575" lon="8.039106968790293">
<ele>185.39999999999998</ele>
<time>2023-05-18T10:43:56Z</time>
</trkpt>
<trkpt lat="49.36938696540892" lon="8.03903496824205">
<ele>185.60000000000002</ele>
<time>2023-05-18T10:43:57Z</time>
</trkpt>
<trkpt lat="49.36936793848872" lon="8.038966991007328">
<ele>185.60000000000002</ele>
<time>2023-05-18T10:43:58Z</time>
</trkpt>
<trkpt lat="49.3693499173969" lon="8.038897924125195">
<ele>185.79999999999995</ele>
<time>2023-05-18T10:43:59Z</time>
</trkpt>
<trkpt lat="49.369329968467355" lon="8.038829946890473">
<ele>185.79999999999995</ele>
<time>2023-05-18T10:44:00Z</time>
</trkpt>
<trkpt lat="49.369311947375536" lon="8.038762975484133">
<ele>186</ele>
<time>2023-05-18T10:44:01Z</time>
</trkpt>
<trkpt lat="49.36928998678923" lon="8.038701955229044">
<ele>186</ele>
<time>2023-05-18T10:44:02Z</time>
</trkpt>
<trkpt lat="49.36927297152579" lon="8.038641940802336">
<ele>186.20000000000005</ele>
<time>2023-05-18T10:44:03Z</time>
</trkpt>
<trkpt lat="49.36925696209073" lon="8.038581926375628">
<ele>186.20000000000005</ele>
<time>2023-05-18T10:44:04Z</time>
</trkpt>
<trkpt lat="49.36923994682729" lon="8.038521995767951">
<ele>186.39999999999998</ele>
<time>2023-05-18T10:44:05Z</time>
</trkpt>
<trkpt lat="49.369222931563854" lon="8.038459969684482">
<ele>186.39999999999998</ele>
<time>2023-05-18T10:44:06Z</time>
</trkpt>
<trkpt lat="49.36920993961394" lon="8.038396937772632">
<ele>186.60000000000002</ele>
<time>2023-05-18T10:44:07Z</time>
</trkpt>
<trkpt lat="49.36919191852212" lon="8.038329966366291">
<ele>186.60000000000002</ele>
<time>2023-05-18T10:44:08Z</time>
</trkpt>
<trkpt lat="49.36917297542095" lon="8.038259977474809">
<ele>186.60000000000002</ele>
<time>2023-05-18T10:44:09Z</time>
</trkpt>
<trkpt lat="49.36915495432913" lon="8.038187976926565">
<ele>186.79999999999995</ele>
<time>2023-05-18T10:44:10Z</time>
</trkpt>
<trkpt lat="49.369136933237314" lon="8.038119999691844">
<ele>186.79999999999995</ele>
<time>2023-05-18T10:44:11Z</time>
</trkpt>
<trkpt lat="49.369116984307766" lon="8.038051938638091">
<ele>186.79999999999995</ele>
<time>2023-05-18T10:44:12Z</time>
</trkpt>
<trkpt lat="49.36909795738757" lon="8.037987984716892">
<ele>187</ele>
<time>2023-05-18T10:44:13Z</time>
</trkpt>
<trkpt lat="49.36908194795251" lon="8.037926964461803">
<ele>187</ele>
<time>2023-05-18T10:44:14Z</time>
</trkpt>
<trkpt lat="49.36906493268907" lon="8.037862926721573">
<ele>187</ele>
<time>2023-05-18T10:44:15Z</time>
</trkpt>
<trkpt lat="49.36904498375952" lon="8.037801990285516">
<ele>187.20000000000005</ele>
<time>2023-05-18T10:44:16Z</time>
</trkpt>
<trkpt lat="49.369026962667704" lon="8.037736946716905">
<ele>187.20000000000005</ele>
<time>2023-05-18T10:44:17Z</time>
</trkpt>
<trkpt lat="49.369007935747504" lon="8.037671986967325">
<ele>187.20000000000005</ele>
<time>2023-05-18T10:44:18Z</time>
</trkpt>
<trkpt lat="49.368987986817956" lon="8.037609960883856">
<ele>187.39999999999998</ele>
<time>2023-05-18T10:44:19Z</time>
</trkpt>
<trkpt lat="49.36896292492747" lon="8.03755296394229">
<ele>187.39999999999998</ele>
<time>2023-05-18T10:44:20Z</time>
</trkpt>
<trkpt lat="49.36893694102764" lon="8.037496972829103">
<ele>187.39999999999998</ele>
<time>2023-05-18T10:44:21Z</time>
</trkpt>
<trkpt lat="49.36890793964267" lon="8.037434946745634">
<ele>187.39999999999998</ele>
<time>2023-05-18T10:44:22Z</time>
</trkpt>
<trkpt lat="49.368877932429314" lon="8.037372920662165">
<ele>187.39999999999998</ele>
<time>2023-05-18T10:44:23Z</time>
</trkpt>
<trkpt lat="49.36884691938758" lon="8.037312990054488">
<ele>187.39999999999998</ele>
<time>2023-05-18T10:44:24Z</time>
</trkpt>
<trkpt lat="49.368812972679734" lon="8.0372519697994">
<ele>187.39999999999998</ele>
<time>2023-05-18T10:44:25Z</time>
</trkpt>
<trkpt lat="49.36877994798124" lon="8.037191955372691">
<ele>187.39999999999998</ele>
<time>2023-05-18T10:44:26Z</time>
</trkpt>
<trkpt lat="49.36874692328274" lon="8.037126995623112">
<ele>187.39999999999998</ele>
<time>2023-05-18T10:44:27Z</time>
</trkpt>
<trkpt lat="49.3687129765749" lon="8.0370619520545">
<ele>187.39999999999998</ele>
<time>2023-05-18T10:44:28Z</time>
</trkpt>
<trkpt lat="49.368682969361544" lon="8.036987939849496">
<ele>187.39999999999998</ele>
<time>2023-05-18T10:44:29Z</time>
</trkpt>
<trkpt lat="49.36865195631981" lon="8.03690998815">
<ele>187.39999999999998</ele>
<time>2023-05-18T10:44:30Z</time>
</trkpt>
<trkpt lat="49.368622954934835" lon="8.036831952631474">
<ele>187.39999999999998</ele>
<time>2023-05-18T10:44:31Z</time>
</trkpt>
<trkpt lat="49.36859495937824" lon="8.036754922941327">
<ele>187.39999999999998</ele>
<time>2023-05-18T10:44:32Z</time>
</trkpt>
<trkpt lat="49.36856998130679" lon="8.036679988726974">
<ele>187.39999999999998</ele>
<time>2023-05-18T10:44:33Z</time>
</trkpt>
<trkpt lat="49.36854491941631" lon="8.036597929894924">
<ele>187.39999999999998</ele>
<time>2023-05-18T10:44:34Z</time>
</trkpt>
<trkpt lat="49.36852497048676" lon="8.036514949053526">
<ele>187.39999999999998</ele>
<time>2023-05-18T10:44:35Z</time>
</trkpt>
<trkpt lat="49.36850493773818" lon="8.03643498569727">
<ele>187.39999999999998</ele>
<time>2023-05-18T10:44:36Z</time>
</trkpt>
<trkpt lat="49.36848691664636" lon="8.036357956007123">
<ele>187.39999999999998</ele>
<time>2023-05-18T10:44:37Z</time>
</trkpt>
<trkpt lat="49.368469985201955" lon="8.03628696128726">
<ele>187.39999999999998</ele>
<time>2023-05-18T10:44:38Z</time>
</trkpt>
<trkpt lat="49.36845799908042" lon="8.03621998988092">
<ele>187.39999999999998</ele>
<time>2023-05-18T10:44:39Z</time>
</trkpt>
<trkpt lat="49.368449952453375" lon="8.03615695796907">
<ele>187.39999999999998</ele>
<time>2023-05-18T10:44:40Z</time>
</trkpt>
<trkpt lat="49.36844198964536" lon="8.036097949370742">
<ele>187.39999999999998</ele>
<time>2023-05-18T10:44:41Z</time>
</trkpt>
<trkpt lat="49.36843796633184" lon="8.036042964085937">
<ele>187.39999999999998</ele>
<time>2023-05-18T10:44:42Z</time>
</trkpt>
<trkpt lat="49.36843696050346" lon="8.035991918295622">
<ele>187.60000000000002</ele>
<time>2023-05-18T10:44:43Z</time>
</trkpt>
<trkpt lat="49.36843796633184" lon="8.0359429679811">
<ele>187.79999999999995</ele>
<time>2023-05-18T10:44:44Z</time>
</trkpt>
<trkpt lat="49.3684399779886" lon="8.035894939675927">
<ele>188</ele>
<time>2023-05-18T10:44:45Z</time>
</trkpt>
<trkpt lat="49.36844299547374" lon="8.035847917199135">
<ele>188.20000000000005</ele>
<time>2023-05-18T10:44:46Z</time>
</trkpt>
<trkpt lat="49.36844693496823" lon="8.035799972712994">
<ele>188.60000000000002</ele>
<time>2023-05-18T10:44:47Z</time>
</trkpt>
<trkpt lat="49.36845296993852" lon="8.03574993275106">
<ele>188.79999999999995</ele>
<time>2023-05-18T10:44:48Z</time>
</trkpt>
<trkpt lat="49.36845699325204" lon="8.035694947466254">
<ele>189.20000000000005</ele>
<time>2023-05-18T10:44:49Z</time>
</trkpt>
<trkpt lat="49.36846495606005" lon="8.035639962181449">
<ele>189.60000000000002</ele>
<time>2023-05-18T10:44:50Z</time>
</trkpt>
<trkpt lat="49.368474930524826" lon="8.035589922219515">
<ele>190</ele>
<time>2023-05-18T10:44:51Z</time>
</trkpt>
<trkpt lat="49.36848691664636" lon="8.035539966076612">
<ele>190.39999999999998</ele>
<time>2023-05-18T10:44:52Z</time>
</trkpt>
<trkpt lat="49.36850192025304" lon="8.03549193777144">
<ele>190.79999999999995</ele>
<time>2023-05-18T10:44:53Z</time>
</trkpt>
<trkpt lat="49.36851994134486" lon="8.035442987456918">
<ele>191.20000000000005</ele>
<time>2023-05-18T10:44:54Z</time>
</trkpt>
<trkpt lat="49.36853997409344" lon="8.035396970808506">
<ele>191.60000000000002</ele>
<time>2023-05-18T10:44:55Z</time>
</trkpt>
<trkpt lat="49.368557995185256" lon="8.035349948331714">
<ele>191.79999999999995</ele>
<time>2023-05-18T10:44:56Z</time>
</trkpt>
<trkpt lat="49.368577944114804" lon="8.035299992188811">
<ele>192.20000000000005</ele>
<time>2023-05-18T10:44:57Z</time>
</trkpt>
<trkpt lat="49.368596971035004" lon="8.035251963883638">
<ele>192.39999999999998</ele>
<time>2023-05-18T10:44:58Z</time>
</trkpt>
<trkpt lat="49.36861792579293" lon="8.035204941406846">
<ele>192.79999999999995</ele>
<time>2023-05-18T10:44:59Z</time>
</trkpt>
<trkpt lat="49.36863795854151" lon="8.035157918930054">
<ele>193</ele>
<time>2023-05-18T10:45:00Z</time>
</trkpt>
<trkpt lat="49.36865799129009" lon="8.035112991929054">
<ele>193.39999999999998</ele>
<time>2023-05-18T10:45:01Z</time>
</trkpt>
<trkpt lat="49.3686799518764" lon="8.035067981109023">
<ele>193.60000000000002</ele>
<time>2023-05-18T10:45:02Z</time>
</trkpt>
<trkpt lat="49.36869797296822" lon="8.035022970288992">
<ele>193.79999999999995</ele>
<time>2023-05-18T10:45:03Z</time>
</trkpt>
<trkpt lat="49.36871792189777" lon="8.034974941983819">
<ele>194</ele>
<time>2023-05-18T10:45:04Z</time>
</trkpt>
<trkpt lat="49.36873795464635" lon="8.034924985840917">
<ele>194.20000000000005</ele>
<time>2023-05-18T10:45:05Z</time>
</trkpt>
<trkpt lat="49.36875496990979" lon="8.034874945878983">
<ele>194.60000000000002</ele>
<time>2023-05-18T10:45:06Z</time>
</trkpt>
<trkpt lat="49.368772991001606" lon="8.03482498973608">
<ele>194.60000000000002</ele>
<time>2023-05-18T10:45:07Z</time>
</trkpt>
<trkpt lat="49.36878799460828" lon="8.034776961430907">
<ele>194.79999999999995</ele>
<time>2023-05-18T10:45:08Z</time>
</trkpt>
<trkpt lat="49.36880199238658" lon="8.034724993631244">
<ele>195</ele>
<time>2023-05-18T10:45:09Z</time>
</trkpt>
<trkpt lat="49.368812972679734" lon="8.034667996689677">
<ele>195.20000000000005</ele>
<time>2023-05-18T10:45:10Z</time>
</trkpt>
<trkpt lat="49.36882495880127" lon="8.03461192175746">
<ele>195.20000000000005</ele>
<time>2023-05-18T10:45:11Z</time>
</trkpt>
<trkpt lat="49.368836944922805" lon="8.034554924815893">
<ele>195.39999999999998</ele>
<time>2023-05-18T10:45:12Z</time>
</trkpt>
<trkpt lat="49.36884499154985" lon="8.034496922045946">
<ele>195.39999999999998</ele>
<time>2023-05-18T10:45:13Z</time>
</trkpt>
<trkpt lat="49.36884993687272" lon="8.034432968124747">
<ele>195.60000000000002</ele>
<time>2023-05-18T10:45:14Z</time>
</trkpt>
<trkpt lat="49.36885295435786" lon="8.034367924556136">
<ele>195.60000000000002</ele>
<time>2023-05-18T10:45:15Z</time>
</trkpt>
<trkpt lat="49.368856977671385" lon="8.03430799394846">
<ele>195.79999999999995</ele>
<time>2023-05-18T10:45:16Z</time>
</trkpt>
<trkpt lat="49.368857983499765" lon="8.034247979521751">
<ele>195.79999999999995</ele>
<time>2023-05-18T10:45:17Z</time>
</trkpt>
<trkpt lat="49.368857983499765" lon="8.034186959266663">
<ele>195.79999999999995</ele>
<time>2023-05-18T10:45:18Z</time>
</trkpt>
<trkpt lat="49.36885999515653" lon="8.034124933183193">
<ele>196</ele>
<time>2023-05-18T10:45:19Z</time>
</trkpt>
<trkpt lat="49.368861922994256" lon="8.034061985090375">
<ele>196</ele>
<time>2023-05-18T10:45:20Z</time>
</trkpt>
<trkpt lat="49.3688649404794" lon="8.033999959006906">
<ele>196</ele>
<time>2023-05-18T10:45:21Z</time>
</trkpt>
<trkpt lat="49.36886695213616" lon="8.033932987600565">
<ele>196</ele>
<time>2023-05-18T10:45:22Z</time>
</trkpt>
<trkpt lat="49.36887198127806" lon="8.033867944031954">
<ele>196.20000000000005</ele>
<time>2023-05-18T10:45:23Z</time>
</trkpt>
<trkpt lat="49.36887692660093" lon="8.033799966797233">
<ele>196.20000000000005</ele>
<time>2023-05-18T10:45:24Z</time>
</trkpt>
<trkpt lat="49.36888296157122" lon="8.033726960420609">
<ele>196.20000000000005</ele>
<time>2023-05-18T10:45:25Z</time>
</trkpt>
<trkpt lat="49.36888991855085" lon="8.033654959872365">
<ele>196.20000000000005</ele>
<time>2023-05-18T10:45:26Z</time>
</trkpt>
<trkpt lat="49.36889494769275" lon="8.033577930182219">
<ele>196.20000000000005</ele>
<time>2023-05-18T10:45:27Z</time>
</trkpt>
<trkpt lat="49.3689029943198" lon="8.033501990139484">
<ele>196.20000000000005</ele>
<time>2023-05-18T10:45:28Z</time>
</trkpt>
<trkpt lat="49.36890995129943" lon="8.033424960449338">
<ele>196.20000000000005</ele>
<time>2023-05-18T10:45:29Z</time>
</trkpt>
<trkpt lat="49.3689199257642" lon="8.033352959901094">
<ele>196.39999999999998</ele>
<time>2023-05-18T10:45:30Z</time>
</trkpt>
<trkpt lat="49.36893199570477" lon="8.03327995352447">
<ele>196.39999999999998</ele>
<time>2023-05-18T10:45:31Z</time>
</trkpt>
<trkpt lat="49.368944987654686" lon="8.033206947147846">
<ele>196.39999999999998</ele>
<time>2023-05-18T10:45:32Z</time>
</trkpt>
<trkpt lat="49.36895697377622" lon="8.033132934942842">
<ele>196.39999999999998</ele>
<time>2023-05-18T10:45:33Z</time>
</trkpt>
<trkpt lat="49.368967954069376" lon="8.033052971586585">
<ele>196.39999999999998</ele>
<time>2023-05-18T10:45:34Z</time>
</trkpt>
<trkpt lat="49.36898295767605" lon="8.032984994351864">
<ele>196.60000000000002</ele>
<time>2023-05-18T10:45:35Z</time>
</trkpt>
<trkpt lat="49.36899796128273" lon="8.032917939126492">
<ele>196.60000000000002</ele>
<time>2023-05-18T10:45:36Z</time>
</trkpt>
<trkpt lat="49.36901296488941" lon="8.03284996189177">
<ele>196.60000000000002</ele>
<time>2023-05-18T10:45:37Z</time>
</trkpt>
<trkpt lat="49.369026962667704" lon="8.03278299048543">
<ele>196.60000000000002</ele>
<time>2023-05-18T10:45:38Z</time>
</trkpt>
<trkpt lat="49.36903995461762" lon="8.032722976058722">
<ele>196.60000000000002</ele>
<time>2023-05-18T10:45:39Z</time>
</trkpt>
<trkpt lat="49.369052946567535" lon="8.032662961632013">
<ele>196.60000000000002</ele>
<time>2023-05-18T10:45:40Z</time>
</trkpt>
<trkpt lat="49.36906795017421" lon="8.032601941376925">
<ele>196.79999999999995</ele>
<time>2023-05-18T10:45:41Z</time>
</trkpt>
<trkpt lat="49.36908194795251" lon="8.032537987455726">
<ele>196.79999999999995</ele>
<time>2023-05-18T10:45:42Z</time>
</trkpt>
<trkpt lat="49.369092928245664" lon="8.032476967200637">
<ele>196.79999999999995</ele>
<time>2023-05-18T10:45:43Z</time>
</trkpt>
<trkpt lat="49.36910692602396" lon="8.032414941117167">
<ele>196.79999999999995</ele>
<time>2023-05-18T10:45:44Z</time>
</trkpt>
<trkpt lat="49.36911799013615" lon="8.03235199302435">
<ele>196.79999999999995</ele>
<time>2023-05-18T10:45:45Z</time>
</trkpt>
<trkpt lat="49.36913198791444" lon="8.032287955284119">
<ele>196.79999999999995</ele>
<time>2023-05-18T10:45:46Z</time>
</trkpt>
<trkpt lat="49.36914699152112" lon="8.03222299553454">
<ele>196.79999999999995</ele>
<time>2023-05-18T10:45:47Z</time>
</trkpt>
<trkpt lat="49.369159983471036" lon="8.032157951965928">
<ele>197</ele>
<time>2023-05-18T10:45:48Z</time>
</trkpt>
<trkpt lat="49.36917498707771" lon="8.032081928104162">
<ele>197</ele>
<time>2023-05-18T10:45:49Z</time>
</trkpt>
<trkpt lat="49.36919191852212" lon="8.032009927555919">
<ele>197</ele>
<time>2023-05-18T10:45:50Z</time>
</trkpt>
<trkpt lat="49.369202982634306" lon="8.0319469794631">
<ele>197</ele>
<time>2023-05-18T10:45:51Z</time>
</trkpt>
<trkpt lat="49.36921798624098" lon="8.03188294172287">
<ele>197</ele>
<time>2023-05-18T10:45:52Z</time>
</trkpt>
<trkpt lat="49.36923298984766" lon="8.031804990023375">
<ele>197</ele>
<time>2023-05-18T10:45:53Z</time>
</trkpt>
<trkpt lat="49.36924698762596" lon="8.031737934798002">
<ele>197</ele>
<time>2023-05-18T10:45:54Z</time>
</trkpt>
<trkpt lat="49.369262997061014" lon="8.031664928421378">
<ele>197.20000000000005</ele>
<time>2023-05-18T10:45:55Z</time>
</trkpt>
<trkpt lat="49.36927992850542" lon="8.031592927873135">
<ele>197.20000000000005</ele>
<time>2023-05-18T10:45:56Z</time>
</trkpt>
<trkpt lat="49.3692949321121" lon="8.031524950638413">
<ele>197.20000000000005</ele>
<time>2023-05-18T10:45:57Z</time>
</trkpt>
<trkpt lat="49.36931295320392" lon="8.031456973403692">
<ele>197.20000000000005</ele>
<time>2023-05-18T10:45:58Z</time>
</trkpt>
<trkpt lat="49.36933499760926" lon="8.031392935663462">
<ele>197.39999999999998</ele>
<time>2023-05-18T10:45:59Z</time>
</trkpt>
<trkpt lat="49.3693499173969" lon="8.031332921236753">
<ele>197.39999999999998</ele>
<time>2023-05-18T10:46:00Z</time>
</trkpt>
<trkpt lat="49.36936995014548" lon="8.031276930123568">
<ele>197.39999999999998</ele>
<time>2023-05-18T10:46:01Z</time>
</trkpt>
<trkpt lat="49.369394928216934" lon="8.031222950667143">
<ele>197.39999999999998</ele>
<time>2023-05-18T10:46:02Z</time>
</trkpt>
<trkpt lat="49.36941999010742" lon="8.031169977039099">
<ele>197.39999999999998</ele>
<time>2023-05-18T10:46:03Z</time>
</trkpt>
<trkpt lat="49.36944496817887" lon="8.031119937077165">
<ele>197.39999999999998</ele>
<time>2023-05-18T10:46:04Z</time>
</trkpt>
<trkpt lat="49.36946994625032" lon="8.03106696344912">
<ele>197.60000000000002</ele>
<time>2023-05-18T10:46:05Z</time>
</trkpt>
<trkpt lat="49.36949199065566" lon="8.031012983992696">
<ele>197.60000000000002</ele>
<time>2023-05-18T10:46:06Z</time>
</trkpt>
<trkpt lat="49.36951696872711" lon="8.030962944030762">
<ele>197.60000000000002</ele>
<time>2023-05-18T10:46:07Z</time>
</trkpt>
<trkpt lat="49.369542952626944" lon="8.030911982059479">
<ele>197.79999999999995</ele>
<time>2023-05-18T10:46:08Z</time>
</trkpt>
<trkpt lat="49.369567930698395" lon="8.030852973461151">
<ele>197.79999999999995</ele>
<time>2023-05-18T10:46:09Z</time>
</trkpt>
<trkpt lat="49.36959299258888" lon="8.030799999833107">
<ele>197.79999999999995</ele>
<time>2023-05-18T10:46:10Z</time>
</trkpt>
<trkpt lat="49.36962492763996" lon="8.03074493072927">
<ele>198</ele>
<time>2023-05-18T10:46:11Z</time>
</trkpt>
<trkpt lat="49.36965996399522" lon="8.030681982636452">
<ele>198</ele>
<time>2023-05-18T10:46:12Z</time>
</trkpt>
<trkpt lat="49.369697934016585" lon="8.030621968209743">
<ele>198.20000000000005</ele>
<time>2023-05-18T10:46:13Z</time>
</trkpt>
<trkpt lat="49.3697299528867" lon="8.030562959611416">
<ele>198.20000000000005</ele>
<time>2023-05-18T10:46:14Z</time>
</trkpt>
<trkpt lat="49.369757948443294" lon="8.030502945184708">
<ele>198.20000000000005</ele>
<time>2023-05-18T10:46:15Z</time>
</trkpt>
<trkpt lat="49.369784938171506" lon="8.030434967949986">
<ele>198.39999999999998</ele>
<time>2023-05-18T10:46:16Z</time>
</trkpt>
<trkpt lat="49.3698129337281" lon="8.030371936038136">
<ele>198.39999999999998</ele>
<time>2023-05-18T10:46:17Z</time>
</trkpt>
<trkpt lat="49.36984193511307" lon="8.030307982116938">
<ele>198.39999999999998</ele>
<time>2023-05-18T10:46:18Z</time>
</trkpt>
<trkpt lat="49.36987194232643" lon="8.03024796769023">
<ele>198.60000000000002</ele>
<time>2023-05-18T10:46:19Z</time>
</trkpt>
<trkpt lat="49.36989792622626" lon="8.030192982405424">
<ele>198.60000000000002</ele>
<time>2023-05-18T10:46:20Z</time>
</trkpt>
<trkpt lat="49.3699249997735" lon="8.030136991292238">
<ele>198.79999999999995</ele>
<time>2023-05-18T10:46:21Z</time>
</trkpt>
<trkpt lat="49.36995794065297" lon="8.030081922188401">
<ele>198.79999999999995</ele>
<time>2023-05-18T10:46:22Z</time>
</trkpt>
<trkpt lat="49.36999197117984" lon="8.030021991580725">
<ele>198.79999999999995</ele>
<time>2023-05-18T10:46:23Z</time>
</trkpt>
<trkpt lat="49.3700219783932" lon="8.029961977154016">
<ele>199</ele>
<time>2023-05-18T10:46:24Z</time>
</trkpt>
<trkpt lat="49.37005693092942" lon="8.029901962727308">
<ele>199</ele>
<time>2023-05-18T10:46:25Z</time>
</trkpt>
<trkpt lat="49.370084926486015" lon="8.029839936643839">
<ele>199</ele>
<time>2023-05-18T10:46:26Z</time>
</trkpt>
<trkpt lat="49.37011493369937" lon="8.02977698855102">
<ele>199.20000000000005</ele>
<time>2023-05-18T10:46:27Z</time>
</trkpt>
<trkpt lat="49.37014192342758" lon="8.029714962467551">
<ele>199.39999999999998</ele>
<time>2023-05-18T10:46:28Z</time>
</trkpt>
<trkpt lat="49.370167991146445" lon="8.029651930555701">
<ele>199.39999999999998</ele>
<time>2023-05-18T10:46:29Z</time>
</trkpt>
<trkpt lat="49.37019498087466" lon="8.02958495914936">
<ele>199.39999999999998</ele>
<time>2023-05-18T10:46:30Z</time>
</trkpt>
<trkpt lat="49.37022197060287" lon="8.02951798774302">
<ele>199.60000000000002</ele>
<time>2023-05-18T10:46:31Z</time>
</trkpt>
<trkpt lat="49.370251977816224" lon="8.02945495583117">
<ele>199.60000000000002</ele>
<time>2023-05-18T10:46:32Z</time>
</trkpt>
<trkpt lat="49.370277961716056" lon="8.029397958889604">
<ele>199.79999999999995</ele>
<time>2023-05-18T10:46:33Z</time>
</trkpt>
<trkpt lat="49.37030696310103" lon="8.029337944462895">
<ele>199.79999999999995</ele>
<time>2023-05-18T10:46:34Z</time>
</trkpt>
<trkpt lat="49.37033194117248" lon="8.02928195334971">
<ele>199.79999999999995</ele>
<time>2023-05-18T10:46:35Z</time>
</trkpt>
<trkpt lat="49.3703549914062" lon="8.029224956408143">
<ele>199.79999999999995</ele>
<time>2023-05-18T10:46:36Z</time>
</trkpt>
<trkpt lat="49.370381981134415" lon="8.029164941981435">
<ele>200</ele>
<time>2023-05-18T10:46:37Z</time>
</trkpt>
<trkpt lat="49.370404947549105" lon="8.02910995669663">
<ele>200</ele>
<time>2023-05-18T10:46:38Z</time>
</trkpt>
<trkpt lat="49.370429925620556" lon="8.029054971411824">
<ele>200</ele>
<time>2023-05-18T10:46:39Z</time>
</trkpt>
<trkpt lat="49.37045498751104" lon="8.028999986127019">
<ele>200</ele>
<time>2023-05-18T10:46:40Z</time>
</trkpt>
<trkpt lat="49.37047795392573" lon="8.028942989185452">
<ele>200.20000000000005</ele>
<time>2023-05-18T10:46:41Z</time>
</trkpt>
<trkpt lat="49.37050494365394" lon="8.028889931738377">
<ele>200.20000000000005</ele>
<time>2023-05-18T10:46:42Z</time>
</trkpt>
<trkpt lat="49.37052799388766" lon="8.028836958110332">
<ele>200.20000000000005</ele>
<time>2023-05-18T10:46:43Z</time>
</trkpt>
<trkpt lat="49.370552971959114" lon="8.028782978653908">
<ele>200.20000000000005</ele>
<time>2023-05-18T10:46:44Z</time>
</trkpt>
<trkpt lat="49.370576944202185" lon="8.028731932863593">
<ele>200.20000000000005</ele>
<time>2023-05-18T10:46:45Z</time>
</trkpt>
<trkpt lat="49.370599994435906" lon="8.028674935922027">
<ele>200.20000000000005</ele>
<time>2023-05-18T10:46:46Z</time>
</trkpt>
<trkpt lat="49.37062497250736" lon="8.028621962293983">
<ele>200.20000000000005</ele>
<time>2023-05-18T10:46:47Z</time>
</trkpt>
<trkpt lat="49.37064995057881" lon="8.028567982837558">
<ele>200.39999999999998</ele>
<time>2023-05-18T10:46:48Z</time>
</trkpt>
<trkpt lat="49.37067492865026" lon="8.028512997552752">
<ele>200.39999999999998</ele>
<time>2023-05-18T10:46:49Z</time>
</trkpt>
<trkpt lat="49.37070191837847" lon="8.028456922620535">
<ele>200.39999999999998</ele>
<time>2023-05-18T10:46:50Z</time>
</trkpt>
<trkpt lat="49.370724968612194" lon="8.028399925678968">
<ele>200.60000000000002</ele>
<time>2023-05-18T10:46:51Z</time>
</trkpt>
<trkpt lat="49.370749946683645" lon="8.028341922909021">
<ele>200.60000000000002</ele>
<time>2023-05-18T10:46:52Z</time>
</trkpt>
<trkpt lat="49.37077299691737" lon="8.028284925967455">
<ele>200.79999999999995</ele>
<time>2023-05-18T10:46:53Z</time>
</trkpt>
<trkpt lat="49.37079797498882" lon="8.02822994068265">
<ele>200.79999999999995</ele>
<time>2023-05-18T10:46:54Z</time>
</trkpt>
<trkpt lat="49.37082295306027" lon="8.028172943741083">
<ele>200.79999999999995</ele>
<time>2023-05-18T10:46:55Z</time>
</trkpt>
<trkpt lat="49.37084793113172" lon="8.028119970113039">
<ele>201</ele>
<time>2023-05-18T10:46:56Z</time>
</trkpt>
<trkpt lat="49.3708729930222" lon="8.028067918494344">
<ele>201</ele>
<time>2023-05-18T10:46:57Z</time>
</trkpt>
<trkpt lat="49.370899982750416" lon="8.028009999543428">
<ele>201</ele>
<time>2023-05-18T10:46:58Z</time>
</trkpt>
<trkpt lat="49.37092697247863" lon="8.027951996773481">
<ele>201</ele>
<time>2023-05-18T10:46:59Z</time>
</trkpt>
<trkpt lat="49.37095295637846" lon="8.027892988175154">
<ele>201.20000000000005</ele>
<time>2023-05-18T10:47:00Z</time>
</trkpt>
<trkpt lat="49.37097692862153" lon="8.027836997061968">
<ele>201.20000000000005</ele>
<time>2023-05-18T10:47:01Z</time>
</trkpt>
<trkpt lat="49.37100199051201" lon="8.02778192795813">
<ele>201.20000000000005</ele>
<time>2023-05-18T10:47:02Z</time>
</trkpt>
<trkpt lat="49.371029986068606" lon="8.027727948501706">
<ele>201.20000000000005</ele>
<time>2023-05-18T10:47:03Z</time>
</trkpt>
<trkpt lat="49.37105496414006" lon="8.027674974873662">
<ele>201.39999999999998</ele>
<time>2023-05-18T10:47:04Z</time>
</trkpt>
<trkpt lat="49.37107994221151" lon="8.027617977932096">
<ele>201.39999999999998</ele>
<time>2023-05-18T10:47:05Z</time>
</trkpt>
<trkpt lat="49.37110693193972" lon="8.027559975162148">
<ele>201.60000000000002</ele>
<time>2023-05-18T10:47:06Z</time>
</trkpt>
<trkpt lat="49.371131993830204" lon="8.027501972392201">
<ele>201.60000000000002</ele>
<time>2023-05-18T10:47:07Z</time>
</trkpt>
<trkpt lat="49.371156971901655" lon="8.027444975450635">
<ele>201.79999999999995</ele>
<time>2023-05-18T10:47:08Z</time>
</trkpt>
<trkpt lat="49.37118496745825" lon="8.027386972680688">
<ele>201.79999999999995</ele>
<time>2023-05-18T10:47:09Z</time>
</trkpt>
<trkpt lat="49.37121195718646" lon="8.02732796408236">
<ele>201.79999999999995</ele>
<time>2023-05-18T10:47:10Z</time>
</trkpt>
<trkpt lat="49.37123794108629" lon="8.027271972969174">
<ele>202</ele>
<time>2023-05-18T10:47:11Z</time>
</trkpt>
<trkpt lat="49.371266942471266" lon="8.027212964370847">
<ele>202</ele>
<time>2023-05-18T10:47:12Z</time>
</trkpt>
<trkpt lat="49.3712929263711" lon="8.027151944115758">
<ele>202</ele>
<time>2023-05-18T10:47:13Z</time>
</trkpt>
<trkpt lat="49.37131798826158" lon="8.027086984366179">
<ele>202.20000000000005</ele>
<time>2023-05-18T10:47:14Z</time>
</trkpt>
<trkpt lat="49.371346989646554" lon="8.027029987424612">
<ele>202.20000000000005</ele>
<time>2023-05-18T10:47:15Z</time>
</trkpt>
<trkpt lat="49.37137498520315" lon="8.026969972997904">
<ele>202.20000000000005</ele>
<time>2023-05-18T10:47:16Z</time>
</trkpt>
<trkpt lat="49.3714049924165" lon="8.026909958571196">
<ele>202.39999999999998</ele>
<time>2023-05-18T10:47:17Z</time>
</trkpt>
<trkpt lat="49.371432987973094" lon="8.026849944144487">
<ele>202.39999999999998</ele>
<time>2023-05-18T10:47:18Z</time>
</trkpt>
<trkpt lat="49.37146299518645" lon="8.02678992971778">
<ele>202.60000000000002</ele>
<time>2023-05-18T10:47:19Z</time>
</trkpt>
<trkpt lat="49.37149199657142" lon="8.0267249699682">
<ele>202.79999999999995</ele>
<time>2023-05-18T10:47:20Z</time>
</trkpt>
<trkpt lat="49.37151798047125" lon="8.026664955541492">
<ele>202.79999999999995</ele>
<time>2023-05-18T10:47:21Z</time>
</trkpt>
<trkpt lat="49.37154698185623" lon="8.026602929458022">
<ele>202.79999999999995</ele>
<time>2023-05-18T10:47:22Z</time>
</trkpt>
<trkpt lat="49.37157296575606" lon="8.026544926688075">
<ele>203</ele>
<time>2023-05-18T10:47:23Z</time>
</trkpt>
<trkpt lat="49.37160196714103" lon="8.026486923918128">
<ele>203</ele>
<time>2023-05-18T10:47:24Z</time>
</trkpt>
<trkpt lat="49.371627951040864" lon="8.026431938633323">
<ele>203.20000000000005</ele>
<time>2023-05-18T10:47:25Z</time>
</trkpt>
<trkpt lat="49.371654940769076" lon="8.026377959176898">
<ele>203.20000000000005</ele>
<time>2023-05-18T10:47:26Z</time>
</trkpt>
<trkpt lat="49.37168695963919" lon="8.026327919214964">
<ele>203.39999999999998</ele>
<time>2023-05-18T10:47:27Z</time>
</trkpt>
<trkpt lat="49.371714955195785" lon="8.026281986385584">
<ele>203.39999999999998</ele>
<time>2023-05-18T10:47:28Z</time>
</trkpt>
<trkpt lat="49.371739933267236" lon="8.02623295225203">
<ele>203.60000000000002</ele>
<time>2023-05-18T10:47:29Z</time>
</trkpt>
<trkpt lat="49.37176994048059" lon="8.026187941432">
<ele>203.60000000000002</ele>
<time>2023-05-18T10:47:30Z</time>
</trkpt>
<trkpt lat="49.37179299071431" lon="8.026137985289097">
<ele>203.79999999999995</ele>
<time>2023-05-18T10:47:31Z</time>
</trkpt>
<trkpt lat="49.371824925765395" lon="8.026089956983924">
<ele>203.79999999999995</ele>
<time>2023-05-18T10:47:32Z</time>
</trkpt>
<trkpt lat="49.37185493297875" lon="8.02603991702199">
<ele>204</ele>
<time>2023-05-18T10:47:33Z</time>
</trkpt>
<trkpt lat="49.37187999486923" lon="8.025986943393946">
<ele>204</ele>
<time>2023-05-18T10:47:34Z</time>
</trkpt>
<trkpt lat="49.37190497294068" lon="8.025937993079424">
<ele>204.20000000000005</ele>
<time>2023-05-18T10:47:35Z</time>
</trkpt>
<trkpt lat="49.37193498015404" lon="8.025891976431012">
<ele>204.20000000000005</ele>
<time>2023-05-18T10:47:36Z</time>
</trkpt>
<trkpt lat="49.37196498736739" lon="8.025849983096123">
<ele>204.39999999999998</ele>
<time>2023-05-18T10:47:37Z</time>
</trkpt>
<trkpt lat="49.371996922418475" lon="8.025806983932853">
<ele>204.39999999999998</ele>
<time>2023-05-18T10:47:38Z</time>
</trkpt>
<trkpt lat="49.37202994711697" lon="8.025761973112822">
<ele>204.60000000000002</ele>
<time>2023-05-18T10:47:39Z</time>
</trkpt>
<trkpt lat="49.372059954330325" lon="8.025721991434693">
<ele>204.60000000000002</ele>
<time>2023-05-18T10:47:40Z</time>
</trkpt>
<trkpt lat="49.37208794988692" lon="8.025677986443043">
<ele>204.79999999999995</ele>
<time>2023-05-18T10:47:41Z</time>
</trkpt>
<trkpt lat="49.372122986242175" lon="8.02562995813787">
<ele>204.79999999999995</ele>
<time>2023-05-18T10:47:42Z</time>
</trkpt>
<trkpt lat="49.37215198762715" lon="8.025577990338206">
<ele>205</ele>
<time>2023-05-18T10:47:43Z</time>
</trkpt>
<trkpt lat="49.37218492850661" lon="8.025527950376272">
<ele>205</ele>
<time>2023-05-18T10:47:44Z</time>
</trkpt>
<trkpt lat="49.37221694737673" lon="8.025474976748228">
<ele>205.20000000000005</ele>
<time>2023-05-18T10:47:45Z</time>
</trkpt>
<trkpt lat="49.372251983731985" lon="8.025419991463423">
<ele>205.20000000000005</ele>
<time>2023-05-18T10:47:46Z</time>
</trkpt>
<trkpt lat="49.37228299677372" lon="8.025366934016347">
<ele>205.39999999999998</ele>
<time>2023-05-18T10:47:47Z</time>
</trkpt>
<trkpt lat="49.37231292016804" lon="8.025314966216683">
<ele>205.39999999999998</ele>
<time>2023-05-18T10:47:48Z</time>
</trkpt>
<trkpt lat="49.37234695069492" lon="8.025267943739891">
<ele>205.60000000000002</ele>
<time>2023-05-18T10:47:49Z</time>
</trkpt>
<trkpt lat="49.37237494625151" lon="8.025216981768608">
<ele>205.60000000000002</ele>
<time>2023-05-18T10:47:50Z</time>
</trkpt>
<trkpt lat="49.37240797095001" lon="8.025166941806674">
<ele>205.79999999999995</ele>
<time>2023-05-18T10:47:51Z</time>
</trkpt>
<trkpt lat="49.37243797816336" lon="8.025116985663772">
<ele>205.79999999999995</ele>
<time>2023-05-18T10:47:52Z</time>
</trkpt>
<trkpt lat="49.372466979548335" lon="8.025066945701838">
<ele>206</ele>
<time>2023-05-18T10:47:53Z</time>
</trkpt>
<trkpt lat="49.37249497510493" lon="8.025016989558935">
<ele>206</ele>
<time>2023-05-18T10:47:54Z</time>
</trkpt>
<trkpt lat="49.37252498231828" lon="8.024971978738904">
<ele>206.20000000000005</ele>
<time>2023-05-18T10:47:55Z</time>
</trkpt>
<trkpt lat="49.372554989531636" lon="8.024926967918873">
<ele>206.20000000000005</ele>
<time>2023-05-18T10:47:56Z</time>
</trkpt>
<trkpt lat="49.37258197925985" lon="8.024876927956939">
<ele>206.20000000000005</ele>
<time>2023-05-18T10:47:57Z</time>
</trkpt>
<trkpt lat="49.3726119864732" lon="8.024829989299178">
<ele>206.39999999999998</ele>
<time>2023-05-18T10:47:58Z</time>
</trkpt>
<trkpt lat="49.37264199368656" lon="8.024779949337244">
<ele>206.39999999999998</ele>
<time>2023-05-18T10:47:59Z</time>
</trkpt>
<trkpt lat="49.37267493456602" lon="8.024732926860452">
<ele>206.60000000000002</ele>
<time>2023-05-18T10:48:00Z</time>
</trkpt>
<trkpt lat="49.372702930122614" lon="8.02468297071755">
<ele>206.60000000000002</ele>
<time>2023-05-18T10:48:01Z</time>
</trkpt>
<trkpt lat="49.37273193150759" lon="8.024634942412376">
<ele>206.79999999999995</ele>
<time>2023-05-18T10:48:02Z</time>
</trkpt>
<trkpt lat="49.37276294454932" lon="8.024591943249106">
<ele>207</ele>
<time>2023-05-18T10:48:03Z</time>
</trkpt>
<trkpt lat="49.37279496341944" lon="8.024546932429075">
<ele>207</ele>
<time>2023-05-18T10:48:04Z</time>
</trkpt>
<trkpt lat="49.37282698228955" lon="8.024504939094186">
<ele>207.20000000000005</ele>
<time>2023-05-18T10:48:05Z</time>
</trkpt>
<trkpt lat="49.372854977846146" lon="8.024462945759296">
<ele>207.20000000000005</ele>
<time>2023-05-18T10:48:06Z</time>
</trkpt>
<trkpt lat="49.37288297340274" lon="8.02442497573793">
<ele>207.39999999999998</ele>
<time>2023-05-18T10:48:07Z</time>
</trkpt>
<trkpt lat="49.37291197478771" lon="8.024396980181336">
<ele>207.39999999999998</ele>
<time>2023-05-18T10:48:08Z</time>
</trkpt>
<trkpt lat="49.372941982001066" lon="8.024367978796363">
<ele>207.60000000000002</ele>
<time>2023-05-18T10:48:09Z</time>
</trkpt>
<trkpt lat="49.37296696007252" lon="8.024324979633093">
<ele>207.79999999999995</ele>
<time>2023-05-18T10:48:10Z</time>
</trkpt>
<trkpt lat="49.37299696728587" lon="8.024292960762978">
<ele>207.79999999999995</ele>
<time>2023-05-18T10:48:11Z</time>
</trkpt>
<trkpt lat="49.373024962842464" lon="8.024261947721243">
<ele>208</ele>
<time>2023-05-18T10:48:12Z</time>
</trkpt>
<trkpt lat="49.37305195257068" lon="8.024231940507889">
<ele>208</ele>
<time>2023-05-18T10:48:13Z</time>
</trkpt>
<trkpt lat="49.373086988925934" lon="8.024197993800044">
<ele>208.20000000000005</ele>
<time>2023-05-18T10:48:14Z</time>
</trkpt>
<trkpt lat="49.37311498448253" lon="8.024169998243451">
<ele>208.39999999999998</ele>
<time>2023-05-18T10:48:15Z</time>
</trkpt>
<trkpt lat="49.37314792536199" lon="8.024149965494871">
<ele>208.60000000000002</ele>
<time>2023-05-18T10:48:16Z</time>
</trkpt>
<trkpt lat="49.37318698503077" lon="8.024131944403052">
<ele>208.60000000000002</ele>
<time>2023-05-18T10:48:17Z</time>
</trkpt>
<trkpt lat="49.37322998419404" lon="8.024106966331601">
<ele>208.79999999999995</ele>
<time>2023-05-18T10:48:18Z</time>
</trkpt>
<trkpt lat="49.37327197752893" lon="8.024087939411402">
<ele>209</ele>
<time>2023-05-18T10:48:19Z</time>
</trkpt>
<trkpt lat="49.3733099475503" lon="8.024069918319583">
<ele>209</ele>
<time>2023-05-18T10:48:20Z</time>
</trkpt>
<trkpt lat="49.373347917571664" lon="8.024052986875176">
<ele>209.20000000000005</ele>
<time>2023-05-18T10:48:21Z</time>
</trkpt>
<trkpt lat="49.37337691895664" lon="8.02403999492526">
<ele>209.39999999999998</ele>
<time>2023-05-18T10:48:22Z</time>
</trkpt>
<trkpt lat="49.37339996919036" lon="8.024031948298216">
<ele>209.39999999999998</ele>
<time>2023-05-18T10:48:23Z</time>
</trkpt>
<trkpt lat="49.37342796474695" lon="8.024011999368668">
<ele>209.60000000000002</ele>
<time>2023-05-18T10:48:24Z</time>
</trkpt>
<trkpt lat="49.37346199527383" lon="8.023986937478185">
<ele>209.60000000000002</ele>
<time>2023-05-18T10:48:25Z</time>
</trkpt>
<trkpt lat="49.37350197695196" lon="8.023964976891875">
<ele>209.79999999999995</ele>
<time>2023-05-18T10:48:26Z</time>
</trkpt>
<trkpt lat="49.37352997250855" lon="8.023949973285198">
<ele>210</ele>
<time>2023-05-18T10:48:27Z</time>
</trkpt>
<trkpt lat="49.373564925044775" lon="8.023941926658154">
<ele>210</ele>
<time>2023-05-18T10:48:28Z</time>
</trkpt>
<trkpt lat="49.373606918379664" lon="8.023922983556986">
<ele>210.20000000000005</ele>
<time>2023-05-18T10:48:29Z</time>
</trkpt>
<trkpt lat="49.37364497222006" lon="8.023899933323264">
<ele>210.39999999999998</ele>
<time>2023-05-18T10:48:30Z</time>
</trkpt>
<trkpt lat="49.373689983040094" lon="8.023871937766671">
<ele>210.39999999999998</ele>
<time>2023-05-18T10:48:31Z</time>
</trkpt>
<trkpt lat="49.373734993860126" lon="8.0238479655236">
<ele>210.60000000000002</ele>
<time>2023-05-18T10:48:32Z</time>
</trkpt>
<trkpt lat="49.37378997914493" lon="8.023796919733286">
<ele>210.60000000000002</ele>
<time>2023-05-18T10:48:33Z</time>
</trkpt>
<trkpt lat="49.37383197247982" lon="8.023774959146976">
<ele>210.79999999999995</ele>
<time>2023-05-18T10:48:34Z</time>
</trkpt>
<trkpt lat="49.37387295998633" lon="8.023747969418764">
<ele>211</ele>
<time>2023-05-18T10:48:35Z</time>
</trkpt>
<trkpt lat="49.37391797080636" lon="8.02373698912561">
<ele>211</ele>
<time>2023-05-18T10:48:36Z</time>
</trkpt>
<trkpt lat="49.37396298162639" lon="8.023714944720268">
<ele>211.20000000000005</ele>
<time>2023-05-18T10:48:37Z</time>
</trkpt>
<trkpt lat="49.37400497496128" lon="8.023687954992056">
<ele>211.20000000000005</ele>
<time>2023-05-18T10:48:38Z</time>
</trkpt>
<trkpt lat="49.37404294498265" lon="8.023662976920605">
<ele>211.39999999999998</ele>
<time>2023-05-18T10:48:39Z</time>
</trkpt>
<trkpt lat="49.374082926660776" lon="8.02363196387887">
<ele>211.39999999999998</ele>
<time>2023-05-18T10:48:40Z</time>
</trkpt>
<trkpt lat="49.374121986329556" lon="8.023596927523613">
<ele>211.60000000000002</ele>
<time>2023-05-18T10:48:41Z</time>
</trkpt>
<trkpt lat="49.37415794469416" lon="8.023562980815768">
<ele>211.60000000000002</ele>
<time>2023-05-18T10:48:42Z</time>
</trkpt>
<trkpt lat="49.37418996356428" lon="8.023527944460511">
<ele>211.60000000000002</ele>
<time>2023-05-18T10:48:43Z</time>
</trkpt>
<trkpt lat="49.37421795912087" lon="8.023494919762015">
<ele>211.79999999999995</ele>
<time>2023-05-18T10:48:44Z</time>
</trkpt>
<trkpt lat="49.374247966334224" lon="8.02345996722579">
<ele>211.79999999999995</ele>
<time>2023-05-18T10:48:45Z</time>
</trkpt>
<trkpt lat="49.37427998520434" lon="8.023421997204423">
<ele>212</ele>
<time>2023-05-18T10:48:46Z</time>
</trkpt>
<trkpt lat="49.37431192025542" lon="8.023381931707263">
<ele>212</ele>
<time>2023-05-18T10:48:47Z</time>
</trkpt>
<trkpt lat="49.37434293329716" lon="8.023334993049502">
<ele>212.20000000000005</ele>
<time>2023-05-18T10:48:48Z</time>
</trkpt>
<trkpt lat="49.374376963824034" lon="8.02328797057271">
<ele>212.20000000000005</ele>
<time>2023-05-18T10:48:49Z</time>
</trkpt>
<trkpt lat="49.37441191636026" lon="8.023239942267537">
<ele>212.20000000000005</ele>
<time>2023-05-18T10:48:50Z</time>
</trkpt>
<trkpt lat="49.374442929401994" lon="8.023194931447506">
<ele>212.39999999999998</ele>
<time>2023-05-18T10:48:51Z</time>
</trkpt>
<trkpt lat="49.37446799129248" lon="8.023147992789745">
<ele>212.39999999999998</ele>
<time>2023-05-18T10:48:52Z</time>
</trkpt>
<trkpt lat="49.37449296936393" lon="8.023099964484572">
<ele>212.60000000000002</ele>
<time>2023-05-18T10:48:53Z</time>
</trkpt>
<trkpt lat="49.37451794743538" lon="8.0230519361794">
<ele>212.60000000000002</ele>
<time>2023-05-18T10:48:54Z</time>
</trkpt>
<trkpt lat="49.37454191967845" lon="8.023006925359368">
<ele>212.79999999999995</ele>
<time>2023-05-18T10:48:55Z</time>
</trkpt>
<trkpt lat="49.37455994077027" lon="8.022962920367718">
<ele>212.79999999999995</ele>
<time>2023-05-18T10:48:56Z</time>
</trkpt>
<trkpt lat="49.37457695603371" lon="8.022906929254532">
<ele>212.79999999999995</ele>
<time>2023-05-18T10:48:57Z</time>
</trkpt>
<trkpt lat="49.374594977125525" lon="8.022847920656204">
<ele>213</ele>
<time>2023-05-18T10:48:58Z</time>
</trkpt>
<trkpt lat="49.374611992388964" lon="8.022787990048528">
<ele>213</ele>
<time>2023-05-18T10:48:59Z</time>
</trkpt>
<trkpt lat="49.37462699599564" lon="8.02272797562182">
<ele>213.20000000000005</ele>
<time>2023-05-18T10:49:00Z</time>
</trkpt>
<trkpt lat="49.37464493326843" lon="8.022669972851872">
<ele>213.20000000000005</ele>
<time>2023-05-18T10:49:01Z</time>
</trkpt>
<trkpt lat="49.37466295436025" lon="8.022614987567067">
<ele>213.39999999999998</ele>
<time>2023-05-18T10:49:02Z</time>
</trkpt>
<trkpt lat="49.374681981280446" lon="8.022566959261894">
<ele>213.39999999999998</ele>
<time>2023-05-18T10:49:03Z</time>
</trkpt>
<trkpt lat="49.37469497323036" lon="8.022511973977089">
<ele>213.60000000000002</ele>
<time>2023-05-18T10:49:04Z</time>
</trkpt>
<trkpt lat="49.374704947695136" lon="8.022462939843535">
<ele>213.60000000000002</ele>
<time>2023-05-18T10:49:05Z</time>
</trkpt>
<trkpt lat="49.37471995130181" lon="8.022416923195124">
<ele>213.79999999999995</ele>
<time>2023-05-18T10:49:06Z</time>
</trkpt>
<trkpt lat="49.37473696656525" lon="8.022369984537363">
<ele>213.79999999999995</ele>
<time>2023-05-18T10:49:07Z</time>
</trkpt>
<trkpt lat="49.37475699931383" lon="8.022326985374093">
<ele>214</ele>
<time>2023-05-18T10:49:08Z</time>
</trkpt>
<trkpt lat="49.37478298321366" lon="8.022282980382442">
<ele>214</ele>
<time>2023-05-18T10:49:09Z</time>
</trkpt>
<trkpt lat="49.374807961285114" lon="8.022251967340708">
<ele>214.20000000000005</ele>
<time>2023-05-18T10:49:10Z</time>
</trkpt>
<trkpt lat="49.37483495101333" lon="8.02221693098545">
<ele>214.39999999999998</ele>
<time>2023-05-18T10:49:11Z</time>
</trkpt>
<trkpt lat="49.37485791742802" lon="8.022179966792464">
<ele>214.39999999999998</ele>
<time>2023-05-18T10:49:12Z</time>
</trkpt>
<trkpt lat="49.37488499097526" lon="8.022146942093968">
<ele>214.60000000000002</ele>
<time>2023-05-18T10:49:13Z</time>
</trkpt>
<trkpt lat="49.374912986531854" lon="8.02210796624422">
<ele>214.79999999999995</ele>
<time>2023-05-18T10:49:14Z</time>
</trkpt>
<trkpt lat="49.374939976260066" lon="8.022071924060583">
<ele>214.79999999999995</ele>
<time>2023-05-18T10:49:15Z</time>
</trkpt>
<trkpt lat="49.374957997351885" lon="8.0220399890095">
<ele>215</ele>
<time>2023-05-18T10:49:16Z</time>
</trkpt>
<trkpt lat="49.37499194405973" lon="8.022004952654243">
<ele>215</ele>
<time>2023-05-18T10:49:17Z</time>
</trkpt>
<trkpt lat="49.375024968758225" lon="8.021971927955747">
<ele>215.20000000000005</ele>
<time>2023-05-18T10:49:18Z</time>
</trkpt>
<trkpt lat="49.37505698762834" lon="8.02193496376276">
<ele>215.20000000000005</ele>
<time>2023-05-18T10:49:19Z</time>
</trkpt>
<trkpt lat="49.375086994841695" lon="8.021899927407503">
<ele>215.20000000000005</ele>
<time>2023-05-18T10:49:20Z</time>
</trkpt>
<trkpt lat="49.37511499039829" lon="8.021856928244233">
<ele>215.39999999999998</ele>
<time>2023-05-18T10:49:21Z</time>
</trkpt>
<trkpt lat="49.37514499761164" lon="8.021811917424202">
<ele>215.39999999999998</ele>
<time>2023-05-18T10:49:22Z</time>
</trkpt>
<trkpt lat="49.375174921005964" lon="8.021766990423203">
<ele>215.60000000000002</ele>
<time>2023-05-18T10:49:23Z</time>
</trkpt>
<trkpt lat="49.37520492821932" lon="8.021721979603171">
<ele>215.60000000000002</ele>
<time>2023-05-18T10:49:24Z</time>
</trkpt>
<trkpt lat="49.375237952917814" lon="8.021679986268282">
<ele>215.79999999999995</ele>
<time>2023-05-18T10:49:25Z</time>
</trkpt>
<trkpt lat="49.37527298927307" lon="8.021631957963109">
<ele>216</ele>
<time>2023-05-18T10:49:26Z</time>
</trkpt>
<trkpt lat="49.375301990658045" lon="8.02158996462822">
<ele>216</ele>
<time>2023-05-18T10:49:27Z</time>
</trkpt>
<trkpt lat="49.3753319978714" lon="8.021551994606853">
<ele>216.20000000000005</ele>
<time>2023-05-18T10:49:28Z</time>
</trkpt>
<trkpt lat="49.37536192126572" lon="8.021512934938073">
<ele>216.20000000000005</ele>
<time>2023-05-18T10:49:29Z</time>
</trkpt>
<trkpt lat="49.375391928479075" lon="8.021464990451932">
<ele>216.39999999999998</ele>
<time>2023-05-18T10:49:30Z</time>
</trkpt>
<trkpt lat="49.37542193569243" lon="8.021424924954772">
<ele>216.39999999999998</ele>
<time>2023-05-18T10:49:31Z</time>
</trkpt>
<trkpt lat="49.37545697204769" lon="8.021394917741418">
<ele>216.60000000000002</ele>
<time>2023-05-18T10:49:32Z</time>
</trkpt>
<trkpt lat="49.37548999674618" lon="8.021361976861954">
<ele>216.60000000000002</ele>
<time>2023-05-18T10:49:33Z</time>
</trkpt>
<trkpt lat="49.375517992302775" lon="8.021321995183825">
<ele>216.79999999999995</ele>
<time>2023-05-18T10:49:34Z</time>
</trkpt>
<trkpt lat="49.37554498203099" lon="8.021274972707033">
<ele>217</ele>
<time>2023-05-18T10:49:35Z</time>
</trkpt>
<trkpt lat="49.37557691708207" lon="8.02122795023024">
<ele>217</ele>
<time>2023-05-18T10:49:36Z</time>
</trkpt>
<trkpt lat="49.375606924295425" lon="8.02118293941021">
<ele>217.20000000000005</ele>
<time>2023-05-18T10:49:37Z</time>
</trkpt>
<trkpt lat="49.37563793733716" lon="8.021142957732081">
<ele>217.20000000000005</ele>
<time>2023-05-18T10:49:38Z</time>
</trkpt>
<trkpt lat="49.375669956207275" lon="8.021106999367476">
<ele>217.39999999999998</ele>
<time>2023-05-18T10:49:39Z</time>
</trkpt>
<trkpt lat="49.37569996342063" lon="8.021069951355457">
<ele>217.60000000000002</ele>
<time>2023-05-18T10:49:40Z</time>
</trkpt>
<trkpt lat="49.37572695314884" lon="8.021034998819232">
<ele>217.60000000000002</ele>
<time>2023-05-18T10:49:41Z</time>
</trkpt>
<trkpt lat="49.37574991956353" lon="8.020999962463975">
<ele>217.79999999999995</ele>
<time>2023-05-18T10:49:42Z</time>
</trkpt>
<trkpt lat="49.37576995231211" lon="8.020959980785847">
<ele>217.79999999999995</ele>
<time>2023-05-18T10:49:43Z</time>
</trkpt>
<trkpt lat="49.37579199671745" lon="8.020921926945448">
<ele>218</ele>
<time>2023-05-18T10:49:44Z</time>
</trkpt>
<trkpt lat="49.375819992274046" lon="8.020877921953797">
<ele>218.20000000000005</ele>
<time>2023-05-18T10:49:45Z</time>
</trkpt>
<trkpt lat="49.375842958688736" lon="8.020831989124417">
<ele>218.20000000000005</ele>
<time>2023-05-18T10:49:46Z</time>
</trkpt>
<trkpt lat="49.375864919275045" lon="8.02077792584896">
<ele>218.39999999999998</ele>
<time>2023-05-18T10:49:47Z</time>
</trkpt>
<trkpt lat="49.37588696368039" lon="8.02072998136282">
<ele>218.39999999999998</ele>
<time>2023-05-18T10:49:48Z</time>
</trkpt>
<trkpt lat="49.37591294758022" lon="8.02068798802793">
<ele>218.60000000000002</ele>
<time>2023-05-18T10:49:49Z</time>
</trkpt>
<trkpt lat="49.37593499198556" lon="8.020649934187531">
<ele>218.60000000000002</ele>
<time>2023-05-18T10:49:50Z</time>
</trkpt>
<trkpt lat="49.37595795840025" lon="8.020607940852642">
<ele>218.60000000000002</ele>
<time>2023-05-18T10:49:51Z</time>
</trkpt>
<trkpt lat="49.3759829364717" lon="8.02056192420423">
<ele>218.79999999999995</ele>
<time>2023-05-18T10:49:52Z</time>
</trkpt>
<trkpt lat="49.376011937856674" lon="8.020512973889709">
<ele>218.79999999999995</ele>
<time>2023-05-18T10:49:53Z</time>
</trkpt>
<trkpt lat="49.37603699974716" lon="8.020466957241297">
<ele>219</ele>
<time>2023-05-18T10:49:54Z</time>
</trkpt>
<trkpt lat="49.37606499530375" lon="8.020422952249646">
<ele>219</ele>
<time>2023-05-18T10:49:55Z</time>
</trkpt>
<trkpt lat="49.376097936183214" lon="8.02038992755115">
<ele>219.20000000000005</ele>
<time>2023-05-18T10:49:56Z</time>
</trkpt>
<trkpt lat="49.37613196671009" lon="8.020352963358164">
<ele>219.20000000000005</ele>
<time>2023-05-18T10:49:57Z</time>
</trkpt>
<trkpt lat="49.37616499140859" lon="8.020317927002907">
<ele>219.39999999999998</ele>
<time>2023-05-18T10:49:58Z</time>
</trkpt>
<trkpt lat="49.37619994394481" lon="8.020284986123443">
<ele>219.39999999999998</ele>
<time>2023-05-18T10:49:59Z</time>
</trkpt>
<trkpt lat="49.37622492201626" lon="8.020246932283044">
<ele>219.60000000000002</ele>
<time>2023-05-18T10:50:00Z</time>
</trkpt>
<trkpt lat="49.37625199556351" lon="8.020209968090057">
<ele>219.60000000000002</ele>
<time>2023-05-18T10:50:01Z</time>
</trkpt>
<trkpt lat="49.37627797946334" lon="8.02017199806869">
<ele>219.79999999999995</ele>
<time>2023-05-18T10:50:02Z</time>
</trkpt>
<trkpt lat="49.37630295753479" lon="8.020139979198575">
<ele>220</ele>
<time>2023-05-18T10:50:03Z</time>
</trkpt>
<trkpt lat="49.376331958919764" lon="8.020104942843318">
<ele>220</ele>
<time>2023-05-18T10:50:04Z</time>
</trkpt>
<trkpt lat="49.376356936991215" lon="8.020061943680048">
<ele>220.20000000000005</ele>
<time>2023-05-18T10:50:05Z</time>
</trkpt>
<trkpt lat="49.376376969739795" lon="8.020017938688397">
<ele>220.20000000000005</ele>
<time>2023-05-18T10:50:06Z</time>
</trkpt>
<trkpt lat="49.376399936154485" lon="8.019989943131804">
<ele>220.39999999999998</ele>
<time>2023-05-18T10:50:07Z</time>
</trkpt>
<trkpt lat="49.3764269258827" lon="8.019956918433309">
<ele>220.60000000000002</ele>
<time>2023-05-18T10:50:08Z</time>
</trkpt>
<trkpt lat="49.37645299360156" lon="8.019927917048335">
<ele>220.60000000000002</ele>
<time>2023-05-18T10:50:09Z</time>
</trkpt>
<trkpt lat="49.37647998332977" lon="8.019894976168871">
<ele>220.79999999999995</ele>
<time>2023-05-18T10:50:10Z</time>
</trkpt>
<trkpt lat="49.376504961401224" lon="8.019867986440659">
<ele>221</ele>
<time>2023-05-18T10:50:11Z</time>
</trkpt>
<trkpt lat="49.376527927815914" lon="8.019834961742163">
<ele>221</ele>
<time>2023-05-18T10:50:12Z</time>
</trkpt>
<trkpt lat="49.37655198387802" lon="8.019799925386906">
<ele>221.20000000000005</ele>
<time>2023-05-18T10:50:13Z</time>
</trkpt>
<trkpt lat="49.376571932807565" lon="8.019771929830313">
<ele>221.20000000000005</ele>
<time>2023-05-18T10:50:14Z</time>
</trkpt>
<trkpt lat="49.3765979167074" lon="8.01973999477923">
<ele>221.39999999999998</ele>
<time>2023-05-18T10:50:15Z</time>
</trkpt>
<trkpt lat="49.3766219727695" lon="8.01970194093883">
<ele>221.39999999999998</ele>
<time>2023-05-18T10:50:16Z</time>
</trkpt>
<trkpt lat="49.37664996832609" lon="8.019661959260702">
<ele>221.60000000000002</ele>
<time>2023-05-18T10:50:17Z</time>
</trkpt>
<trkpt lat="49.376676958054304" lon="8.019619965925813">
<ele>221.60000000000002</ele>
<time>2023-05-18T10:50:18Z</time>
</trkpt>
<trkpt lat="49.37670797109604" lon="8.019589958712459">
<ele>221.79999999999995</ele>
<time>2023-05-18T10:50:19Z</time>
</trkpt>
<trkpt lat="49.37674191780388" lon="8.019566992297769">
<ele>222</ele>
<time>2023-05-18T10:50:20Z</time>
</trkpt>
<trkpt lat="49.376782989129424" lon="8.01954997703433">
<ele>222</ele>
<time>2023-05-18T10:50:21Z</time>
</trkpt>
<trkpt lat="49.37682196497917" lon="8.019519969820976">
<ele>222.20000000000005</ele>
<time>2023-05-18T10:50:22Z</time>
</trkpt>
<trkpt lat="49.37685993500054" lon="8.019494991749525">
<ele>222.20000000000005</ele>
<time>2023-05-18T10:50:23Z</time>
</trkpt>
<trkpt lat="49.376892959699035" lon="8.019469929859042">
<ele>222.39999999999998</ele>
<time>2023-05-18T10:50:24Z</time>
</trkpt>
<trkpt lat="49.37692992389202" lon="8.019439922645688">
<ele>222.39999999999998</ele>
<time>2023-05-18T10:50:25Z</time>
</trkpt>
<trkpt lat="49.37696194276214" lon="8.01941997371614">
<ele>222.60000000000002</ele>
<time>2023-05-18T10:50:26Z</time>
</trkpt>
<trkpt lat="49.37699697911739" lon="8.01939994096756">
<ele>222.60000000000002</ele>
<time>2023-05-18T10:50:27Z</time>
</trkpt>
<trkpt lat="49.3770379666239" lon="8.019382925704122">
<ele>222.79999999999995</ele>
<time>2023-05-18T10:50:28Z</time>
</trkpt>
<trkpt lat="49.37707794830203" lon="8.019367922097445">
<ele>222.79999999999995</ele>
<time>2023-05-18T10:50:29Z</time>
</trkpt>
<trkpt lat="49.37711692415178" lon="8.019344955682755">
<ele>223</ele>
<time>2023-05-18T10:50:30Z</time>
</trkpt>
<trkpt lat="49.37715497799218" lon="8.019326934590936">
<ele>223.20000000000005</ele>
<time>2023-05-18T10:50:31Z</time>
</trkpt>
<trkpt lat="49.377196971327066" lon="8.019306985661387">
<ele>223.20000000000005</ele>
<time>2023-05-18T10:50:32Z</time>
</trkpt>
<trkpt lat="49.377237958833575" lon="8.019281923770905">
<ele>223.39999999999998</ele>
<time>2023-05-18T10:50:33Z</time>
</trkpt>
<trkpt lat="49.37728498131037" lon="8.019262980669737">
<ele>223.60000000000002</ele>
<time>2023-05-18T10:50:34Z</time>
</trkpt>
<trkpt lat="49.377322951331735" lon="8.019256945699453">
<ele>223.60000000000002</ele>
<time>2023-05-18T10:50:35Z</time>
</trkpt>
<trkpt lat="49.37736192718148" lon="8.01924697123468">
<ele>223.79999999999995</ele>
<time>2023-05-18T10:50:36Z</time>
</trkpt>
<trkpt lat="49.37739998102188" lon="8.019237918779254">
<ele>224</ele>
<time>2023-05-18T10:50:37Z</time>
</trkpt>
<trkpt lat="49.37743694521487" lon="8.019229955971241">
<ele>224</ele>
<time>2023-05-18T10:50:38Z</time>
</trkpt>
<trkpt lat="49.377472987398505" lon="8.019224926829338">
<ele>224.20000000000005</ele>
<time>2023-05-18T10:50:39Z</time>
</trkpt>
<trkpt lat="49.37751196324825" lon="8.019219981506467">
<ele>224.39999999999998</ele>
<time>2023-05-18T10:50:40Z</time>
</trkpt>
<trkpt lat="49.37755194492638" lon="8.019206989556551">
<ele>224.39999999999998</ele>
<time>2023-05-18T10:50:41Z</time>
</trkpt>
<trkpt lat="49.37758999876678" lon="8.019197937101126">
<ele>224.60000000000002</ele>
<time>2023-05-18T10:50:42Z</time>
</trkpt>
<trkpt lat="49.37762998044491" lon="8.019187962636352">
<ele>224.79999999999995</ele>
<time>2023-05-18T10:50:43Z</time>
</trkpt>
<trkpt lat="49.377669962123036" lon="8.019172959029675">
<ele>224.79999999999995</ele>
<time>2023-05-18T10:50:44Z</time>
</trkpt>
<trkpt lat="49.37770692631602" lon="8.0191629845649">
<ele>225</ele>
<time>2023-05-18T10:50:45Z</time>
</trkpt>
<trkpt lat="49.37774699181318" lon="8.019149992614985">
<ele>225.20000000000005</ele>
<time>2023-05-18T10:50:46Z</time>
</trkpt>
<trkpt lat="49.37778797931969" lon="8.019136916846037">
<ele>225.39999999999998</ele>
<time>2023-05-18T10:50:47Z</time>
</trkpt>
<trkpt lat="49.37782796099782" lon="8.019121997058392">
<ele>225.39999999999998</ele>
<time>2023-05-18T10:50:48Z</time>
</trkpt>
<trkpt lat="49.37786794267595" lon="8.01909995265305">
<ele>225.60000000000002</ele>
<time>2023-05-18T10:50:49Z</time>
</trkpt>
<trkpt lat="49.377902979031205" lon="8.01907698623836">
<ele>225.79999999999995</ele>
<time>2023-05-18T10:50:50Z</time>
</trkpt>
<trkpt lat="49.37793994322419" lon="8.019051924347878">
<ele>226</ele>
<time>2023-05-18T10:50:51Z</time>
</trkpt>
<trkpt lat="49.37797992490232" lon="8.019029963761568">
<ele>226.20000000000005</ele>
<time>2023-05-18T10:50:52Z</time>
</trkpt>
<trkpt lat="49.37801999039948" lon="8.019002974033356">
<ele>226.20000000000005</ele>
<time>2023-05-18T10:50:53Z</time>
</trkpt>
<trkpt lat="49.378056954592466" lon="8.018974978476763">
<ele>226.39999999999998</ele>
<time>2023-05-18T10:50:54Z</time>
</trkpt>
<trkpt lat="49.37809199094772" lon="8.01894991658628">
<ele>226.60000000000002</ele>
<time>2023-05-18T10:50:55Z</time>
</trkpt>
<trkpt lat="49.37812199816108" lon="8.018921921029687">
<ele>226.60000000000002</ele>
<time>2023-05-18T10:50:56Z</time>
</trkpt>
<trkpt lat="49.37814999371767" lon="8.018887974321842">
<ele>226.79999999999995</ele>
<time>2023-05-18T10:50:57Z</time>
</trkpt>
<trkpt lat="49.378182934597135" lon="8.018851932138205">
<ele>226.79999999999995</ele>
<time>2023-05-18T10:50:58Z</time>
</trkpt>
<trkpt lat="49.37821193598211" lon="8.018806921318173">
<ele>227</ele>
<time>2023-05-18T10:50:59Z</time>
</trkpt>
<trkpt lat="49.37823791988194" lon="8.018762916326523">
<ele>227.20000000000005</ele>
<time>2023-05-18T10:51:00Z</time>
</trkpt>
<trkpt lat="49.37825795263052" lon="8.018714971840382">
<ele>227.39999999999998</ele>
<time>2023-05-18T10:51:01Z</time>
</trkpt>
<trkpt lat="49.37828192487359" lon="8.018666943535209">
<ele>227.39999999999998</ele>
<time>2023-05-18T10:51:02Z</time>
</trkpt>
<trkpt lat="49.37830296345055" lon="8.018622938543558">
<ele>227.60000000000002</ele>
<time>2023-05-18T10:51:03Z</time>
</trkpt>
<trkpt lat="49.37832492403686" lon="8.01858195103705">
<ele>227.79999999999995</ele>
<time>2023-05-18T10:51:04Z</time>
</trkpt>
<trkpt lat="49.37834495678544" lon="8.018531994894147">
<ele>228</ele>
<time>2023-05-18T10:51:05Z</time>
</trkpt>
<trkpt lat="49.37836498953402" lon="8.018481954932213">
<ele>228.20000000000005</ele>
<time>2023-05-18T10:51:06Z</time>
</trkpt>
<trkpt lat="49.3783799931407" lon="8.018427975475788">
<ele>228.39999999999998</ele>
<time>2023-05-18T10:51:07Z</time>
</trkpt>
<trkpt lat="49.378396924585104" lon="8.018376929685473">
<ele>228.39999999999998</ele>
<time>2023-05-18T10:51:08Z</time>
</trkpt>
<trkpt lat="49.37840991653502" lon="8.018321944400668">
<ele>228.60000000000002</ele>
<time>2023-05-18T10:51:09Z</time>
</trkpt>
<trkpt lat="49.37841293402016" lon="8.018256984651089">
<ele>228.60000000000002</ele>
<time>2023-05-18T10:51:10Z</time>
</trkpt>
<trkpt lat="49.3784249201417" lon="8.018201999366283">
<ele>228.79999999999995</ele>
<time>2023-05-18T10:51:11Z</time>
</trkpt>
<trkpt lat="49.3784349784255" lon="8.01815296523273">
<ele>228.79999999999995</ele>
<time>2023-05-18T10:51:12Z</time>
</trkpt>
<trkpt lat="49.37844797037542" lon="8.018099991604686">
<ele>229</ele>
<time>2023-05-18T10:51:13Z</time>
</trkpt>
<trkpt lat="49.378462973982096" lon="8.01804793998599">
<ele>229</ele>
<time>2023-05-18T10:51:14Z</time>
</trkpt>
<trkpt lat="49.37847797758877" lon="8.01799999549985">
<ele>229.20000000000005</ele>
<time>2023-05-18T10:51:15Z</time>
</trkpt>
<trkpt lat="49.37849692068994" lon="8.017947943881154">
<ele>229.20000000000005</ele>
<time>2023-05-18T10:51:16Z</time>
</trkpt>
<trkpt lat="49.37850798480213" lon="8.017889941111207">
<ele>229.39999999999998</ele>
<time>2023-05-18T10:51:17Z</time>
</trkpt>
<trkpt lat="49.378522988408804" lon="8.01783193834126">
<ele>229.39999999999998</ele>
<time>2023-05-18T10:51:18Z</time>
</trkpt>
<trkpt lat="49.37853991985321" lon="8.017776953056455">
<ele>229.60000000000002</ele>
<time>2023-05-18T10:51:19Z</time>
</trkpt>
<trkpt lat="49.378549978137016" lon="8.017719956114888">
<ele>229.79999999999995</ele>
<time>2023-05-18T10:51:20Z</time>
</trkpt>
<trkpt lat="49.37855995260179" lon="8.017671927809715">
<ele>230</ele>
<time>2023-05-18T10:51:21Z</time>
</trkpt>
<trkpt lat="49.37856297008693" lon="8.01761694252491">
<ele>230.20000000000005</ele>
<time>2023-05-18T10:51:22Z</time>
</trkpt>
<trkpt lat="49.378569927066565" lon="8.017569920048118">
<ele>230.20000000000005</ele>
<time>2023-05-18T10:51:23Z</time>
</trkpt>
<trkpt lat="49.37858199700713" lon="8.017521975561976">
<ele>230.39999999999998</ele>
<time>2023-05-18T10:51:24Z</time>
</trkpt>
<trkpt lat="49.37858493067324" lon="8.017471935600042">
<ele>230.60000000000002</ele>
<time>2023-05-18T10:51:25Z</time>
</trkpt>
<trkpt lat="49.378589959815145" lon="8.017416950315237">
<ele>230.60000000000002</ele>
<time>2023-05-18T10:51:26Z</time>
</trkpt>
<trkpt lat="49.378589959815145" lon="8.017366994172335">
<ele>230.79999999999995</ele>
<time>2023-05-18T10:51:27Z</time>
</trkpt>
<trkpt lat="49.37859993427992" lon="8.017307985574007">
<ele>231</ele>
<time>2023-05-18T10:51:28Z</time>
</trkpt>
<trkpt lat="49.378609992563725" lon="8.01724998280406">
<ele>231</ele>
<time>2023-05-18T10:51:29Z</time>
</trkpt>
<trkpt lat="49.37862197868526" lon="8.017199942842126">
<ele>231.20000000000005</ele>
<time>2023-05-18T10:51:30Z</time>
</trkpt>
<trkpt lat="49.37863999977708" lon="8.017154932022095">
<ele>231.39999999999998</ele>
<time>2023-05-18T10:51:31Z</time>
</trkpt>
<trkpt lat="49.37866296619177" lon="8.017117967829108">
<ele>231.60000000000002</ele>
<time>2023-05-18T10:51:32Z</time>
</trkpt>
<trkpt lat="49.378677969798446" lon="8.017079997807741">
<ele>231.60000000000002</ele>
<time>2023-05-18T10:51:33Z</time>
</trkpt>
<trkpt lat="49.37869196757674" lon="8.017046973109245">
<ele>231.79999999999995</ele>
<time>2023-05-18T10:51:34Z</time>
</trkpt>
<trkpt lat="49.3787079770118" lon="8.01699492149055">
<ele>232</ele>
<time>2023-05-18T10:51:35Z</time>
</trkpt>
<trkpt lat="49.37872692011297" lon="8.01695192232728">
<ele>232.20000000000005</ele>
<time>2023-05-18T10:51:36Z</time>
</trkpt>
<trkpt lat="49.378737984225154" lon="8.016901966184378">
<ele>232.20000000000005</ele>
<time>2023-05-18T10:51:37Z</time>
</trkpt>
<trkpt lat="49.37875499948859" lon="8.01686299033463">
<ele>232.39999999999998</ele>
<time>2023-05-18T10:51:38Z</time>
</trkpt>
<trkpt lat="49.378771930933" lon="8.016824936494231">
<ele>232.60000000000002</ele>
<time>2023-05-18T10:51:39Z</time>
</trkpt>
<trkpt lat="49.378787940368056" lon="8.016787972301245">
<ele>232.60000000000002</ele>
<time>2023-05-18T10:51:40Z</time>
</trkpt>
<trkpt lat="49.378807973116636" lon="8.016744973137975">
<ele>232.79999999999995</ele>
<time>2023-05-18T10:51:41Z</time>
</trkpt>
<trkpt lat="49.378826916217804" lon="8.016706919297576">
<ele>233</ele>
<time>2023-05-18T10:51:42Z</time>
</trkpt>
<trkpt lat="49.378846948966384" lon="8.016641959547997">
<ele>233.20000000000005</ele>
<time>2023-05-18T10:51:43Z</time>
</trkpt>
<trkpt lat="49.378866981714964" lon="8.016577921807766">
<ele>233.20000000000005</ele>
<time>2023-05-18T10:51:44Z</time>
</trkpt>
<trkpt lat="49.37888198532164" lon="8.016514973714948">
<ele>233.39999999999998</ele>
<time>2023-05-18T10:51:45Z</time>
</trkpt>
<trkpt lat="49.378889948129654" lon="8.016449930146337">
<ele>233.60000000000002</ele>
<time>2023-05-18T10:51:46Z</time>
</trkpt>
<trkpt lat="49.37889698892832" lon="8.016374995931983">
<ele>233.79999999999995</ele>
<time>2023-05-18T10:51:47Z</time>
</trkpt>
<trkpt lat="49.378914926201105" lon="8.016314981505275">
<ele>234</ele>
<time>2023-05-18T10:51:48Z</time>
</trkpt>
<trkpt lat="49.37892297282815" lon="8.016242980957031">
<ele>234</ele>
<time>2023-05-18T10:51:49Z</time>
</trkpt>
<trkpt lat="49.37893797643483" lon="8.016182966530323">
<ele>234.20000000000005</ele>
<time>2023-05-18T10:51:50Z</time>
</trkpt>
<trkpt lat="49.378952980041504" lon="8.016139967367053">
<ele>234.39999999999998</ele>
<time>2023-05-18T10:51:51Z</time>
</trkpt>
<trkpt lat="49.37897192314267" lon="8.016089927405119">
<ele>234.60000000000002</ele>
<time>2023-05-18T10:51:52Z</time>
</trkpt>
<trkpt lat="49.37898793257773" lon="8.016042988747358">
<ele>234.79999999999995</ele>
<time>2023-05-18T10:51:53Z</time>
</trkpt>
<trkpt lat="49.379001930356026" lon="8.015991942957044">
<ele>234.79999999999995</ele>
<time>2023-05-18T10:51:54Z</time>
</trkpt>
<trkpt lat="49.37901492230594" lon="8.015942992642522">
<ele>235</ele>
<time>2023-05-18T10:51:55Z</time>
</trkpt>
<trkpt lat="49.37902799807489" lon="8.01589697599411">
<ele>235.20000000000005</ele>
<time>2023-05-18T10:51:56Z</time>
</trkpt>
<trkpt lat="49.379041995853186" lon="8.01585297100246">
<ele>235.20000000000005</ele>
<time>2023-05-18T10:51:57Z</time>
</trkpt>
<trkpt lat="49.3790499586612" lon="8.015824975445867">
<ele>235.39999999999998</ele>
<time>2023-05-18T10:51:58Z</time>
</trkpt>
<trkpt lat="49.37905297614634" lon="8.015797985717654">
<ele>235.60000000000002</ele>
<time>2023-05-18T10:51:59Z</time>
</trkpt>
<trkpt lat="49.379061944782734" lon="8.015754986554384">
<ele>235.79999999999995</ele>
<time>2023-05-18T10:52:00Z</time>
</trkpt>
<trkpt lat="49.37907191924751" lon="8.015731936320662">
<ele>236</ele>
<time>2023-05-18T10:52:01Z</time>
</trkpt>
<trkpt lat="49.379082983359694" lon="8.015694972127676">
<ele>236</ele>
<time>2023-05-18T10:52:02Z</time>
</trkpt>
<trkpt lat="49.37909295782447" lon="8.015646943822503">
<ele>236.20000000000005</ele>
<time>2023-05-18T10:52:03Z</time>
</trkpt>
<trkpt lat="49.37909999862313" lon="8.015606962144375">
<ele>236.39999999999998</ele>
<time>2023-05-18T10:52:04Z</time>
</trkpt>
<trkpt lat="49.379107961431146" lon="8.015549965202808">
<ele>236.39999999999998</ele>
<time>2023-05-18T10:52:05Z</time>
</trkpt>
<trkpt lat="49.379107961431146" lon="8.015501936897635">
<ele>236.60000000000002</ele>
<time>2023-05-18T10:52:06Z</time>
</trkpt>
<trkpt lat="49.37911299057305" lon="8.01544795744121">
<ele>236.79999999999995</ele>
<time>2023-05-18T10:52:07Z</time>
</trkpt>
<trkpt lat="49.37911299057305" lon="8.015392972156405">
<ele>237</ele>
<time>2023-05-18T10:52:08Z</time>
</trkpt>
<trkpt lat="49.379107961431146" lon="8.015339998528361">
<ele>237</ele>
<time>2023-05-18T10:52:09Z</time>
</trkpt>
<trkpt lat="49.37911299057305" lon="8.015282917767763">
<ele>237.20000000000005</ele>
<time>2023-05-18T10:52:10Z</time>
</trkpt>
<trkpt lat="49.37911994755268" lon="8.015229944139719">
<ele>237.39999999999998</ele>
<time>2023-05-18T10:52:11Z</time>
</trkpt>
<trkpt lat="49.37913495115936" lon="8.015182921662927">
<ele>237.39999999999998</ele>
<time>2023-05-18T10:52:12Z</time>
</trkpt>
<trkpt lat="49.3791379686445" lon="8.015139922499657">
<ele>237.60000000000002</ele>
<time>2023-05-18T10:52:13Z</time>
</trkpt>
<trkpt lat="49.37914492562413" lon="8.015091978013515">
<ele>237.79999999999995</ele>
<time>2023-05-18T10:52:14Z</time>
</trkpt>
<trkpt lat="49.37915297225118" lon="8.015046967193484">
<ele>237.79999999999995</ele>
<time>2023-05-18T10:52:15Z</time>
</trkpt>
<trkpt lat="49.37915297225118" lon="8.01499692723155">
<ele>238</ele>
<time>2023-05-18T10:52:16Z</time>
</trkpt>
<trkpt lat="49.37915791757405" lon="8.014947976917028">
<ele>238</ele>
<time>2023-05-18T10:52:17Z</time>
</trkpt>
<trkpt lat="49.37916294671595" lon="8.014882933348417">
<ele>238.20000000000005</ele>
<time>2023-05-18T10:52:18Z</time>
</trkpt>
<trkpt lat="49.379167975857854" lon="8.014817973598838">
<ele>238.39999999999998</ele>
<time>2023-05-18T10:52:19Z</time>
</trkpt>
<trkpt lat="49.37916697002947" lon="8.014761982485652">
<ele>238.39999999999998</ele>
<time>2023-05-18T10:52:20Z</time>
</trkpt>
<trkpt lat="49.37917694449425" lon="8.014697944745421">
<ele>238.60000000000002</ele>
<time>2023-05-18T10:52:21Z</time>
</trkpt>
<trkpt lat="49.37918691895902" lon="8.014637930318713">
<ele>238.79999999999995</ele>
<time>2023-05-18T10:52:22Z</time>
</trkpt>
<trkpt lat="49.379192953929305" lon="8.014561990275979">
<ele>238.79999999999995</ele>
<time>2023-05-18T10:52:23Z</time>
</trkpt>
<trkpt lat="49.37920292839408" lon="8.014502981677651">
<ele>239</ele>
<time>2023-05-18T10:52:24Z</time>
</trkpt>
<trkpt lat="49.379217932000756" lon="8.014444978907704">
<ele>239</ele>
<time>2023-05-18T10:52:25Z</time>
</trkpt>
<trkpt lat="49.37924198806286" lon="8.014369960874319">
<ele>239.20000000000005</ele>
<time>2023-05-18T10:52:26Z</time>
</trkpt>
<trkpt lat="49.379256991669536" lon="8.014299971982837">
<ele>239.39999999999998</ele>
<time>2023-05-18T10:52:27Z</time>
</trkpt>
<trkpt lat="49.379279958084226" lon="8.014244986698031">
<ele>239.60000000000002</ele>
<time>2023-05-18T10:52:28Z</time>
</trkpt>
<trkpt lat="49.37930493615568" lon="8.014166951179504">
<ele>239.79999999999995</ele>
<time>2023-05-18T10:52:29Z</time>
</trkpt>
<trkpt lat="49.37933796085417" lon="8.014084976166487">
<ele>239.79999999999995</ele>
<time>2023-05-18T10:52:30Z</time>
</trkpt>
<trkpt lat="49.37937693670392" lon="8.014022950083017">
<ele>240</ele>
<time>2023-05-18T10:52:31Z</time>
</trkpt>
<trkpt lat="49.3794019985944" lon="8.013977939262986">
<ele>240.20000000000005</ele>
<time>2023-05-18T10:52:32Z</time>
</trkpt>
<trkpt lat="49.379431921988726" lon="8.013929994776845">
<ele>240.39999999999998</ele>
<time>2023-05-18T10:52:33Z</time>
</trkpt>
<trkpt lat="49.37945497222245" lon="8.01389697007835">
<ele>240.60000000000002</ele>
<time>2023-05-18T10:52:34Z</time>
</trkpt>
<trkpt lat="49.379471987485886" lon="8.013859922066331">
<ele>240.79999999999995</ele>
<time>2023-05-18T10:52:35Z</time>
</trkpt>
<trkpt lat="49.379491936415434" lon="8.01381298340857">
<ele>241</ele>
<time>2023-05-18T10:52:36Z</time>
</trkpt>
<trkpt lat="49.37950291670859" lon="8.013771995902061">
<ele>241.20000000000005</ele>
<time>2023-05-18T10:52:37Z</time>
</trkpt>
<trkpt lat="49.37952697277069" lon="8.013731930404902">
<ele>241.39999999999998</ele>
<time>2023-05-18T10:52:38Z</time>
</trkpt>
<trkpt lat="49.37954692170024" lon="8.013691948726773">
<ele>241.60000000000002</ele>
<time>2023-05-18T10:52:39Z</time>
</trkpt>
<trkpt lat="49.37956494279206" lon="8.013644926249981">
<ele>241.79999999999995</ele>
<time>2023-05-18T10:52:40Z</time>
</trkpt>
<trkpt lat="49.3795869871974" lon="8.013599999248981">
<ele>242</ele>
<time>2023-05-18T10:52:41Z</time>
</trkpt>
<trkpt lat="49.37960693612695" lon="8.013559933751822">
<ele>242</ele>
<time>2023-05-18T10:52:42Z</time>
</trkpt>
<trkpt lat="49.37963199801743" lon="8.013522969558835">
<ele>242.20000000000005</ele>
<time>2023-05-18T10:52:43Z</time>
</trkpt>
<trkpt lat="49.37965798191726" lon="8.01348994486034">
<ele>242.39999999999998</ele>
<time>2023-05-18T10:52:44Z</time>
</trkpt>
<trkpt lat="49.37969192862511" lon="8.013457925990224">
<ele>242.60000000000002</ele>
<time>2023-05-18T10:52:45Z</time>
</trkpt>
<trkpt lat="49.3797199241817" lon="8.013419955968857">
<ele>242.79999999999995</ele>
<time>2023-05-18T10:52:46Z</time>
</trkpt>
<trkpt lat="49.379751943051815" lon="8.013392966240644">
<ele>243</ele>
<time>2023-05-18T10:52:47Z</time>
</trkpt>
<trkpt lat="49.37977993860841" lon="8.01336195319891">
<ele>243.20000000000005</ele>
<time>2023-05-18T10:52:48Z</time>
</trkpt>
<trkpt lat="49.379816986620426" lon="8.013331945985556">
<ele>243.39999999999998</ele>
<time>2023-05-18T10:52:49Z</time>
</trkpt>
<trkpt lat="49.37985495664179" lon="8.013306967914104">
<ele>243.60000000000002</ele>
<time>2023-05-18T10:52:50Z</time>
</trkpt>
<trkpt lat="49.37988496385515" lon="8.013269919902086">
<ele>243.79999999999995</ele>
<time>2023-05-18T10:52:51Z</time>
</trkpt>
<trkpt lat="49.379922933876514" lon="8.0132329557091">
<ele>244</ele>
<time>2023-05-18T10:52:52Z</time>
</trkpt>
<trkpt lat="49.37995696440339" lon="8.013202948495746">
<ele>244.20000000000005</ele>
<time>2023-05-18T10:52:53Z</time>
</trkpt>
<trkpt lat="49.37998998910189" lon="8.013179982081056">
<ele>244.20000000000005</ele>
<time>2023-05-18T10:52:54Z</time>
</trkpt>
<trkpt lat="49.38002192415297" lon="8.013154920190573">
<ele>244.39999999999998</ele>
<time>2023-05-18T10:52:55Z</time>
</trkpt>
<trkpt lat="49.380054948851466" lon="8.013142934069037">
<ele>244.60000000000002</ele>
<time>2023-05-18T10:52:56Z</time>
</trkpt>
<trkpt lat="49.38008696772158" lon="8.01312793046236">
<ele>244.79999999999995</ele>
<time>2023-05-18T10:52:57Z</time>
</trkpt>
<trkpt lat="49.38012192025781" lon="8.013111921027303">
<ele>245</ele>
<time>2023-05-18T10:52:58Z</time>
</trkpt>
<trkpt lat="49.38014999963343" lon="8.013092977926135">
<ele>245.20000000000005</ele>
<time>2023-05-18T10:52:59Z</time>
</trkpt>
<trkpt lat="49.380182940512896" lon="8.013089960440993">
<ele>245.39999999999998</ele>
<time>2023-05-18T10:53:00Z</time>
</trkpt>
<trkpt lat="49.38021495938301" lon="8.013074956834316">
<ele>245.60000000000002</ele>
<time>2023-05-18T10:53:01Z</time>
</trkpt>
<trkpt lat="49.380242954939604" lon="8.013074956834316">
<ele>245.60000000000002</ele>
<time>2023-05-18T10:53:02Z</time>
</trkpt>
<trkpt lat="49.38027991913259" lon="8.0130619648844">
<ele>245.79999999999995</ele>
<time>2023-05-18T10:53:03Z</time>
</trkpt>
<trkpt lat="49.380309926345944" lon="8.01303992047906">
<ele>246</ele>
<time>2023-05-18T10:53:04Z</time>
</trkpt>
<trkpt lat="49.38034697435796" lon="8.01301695406437">
<ele>246.20000000000005</ele>
<time>2023-05-18T10:53:05Z</time>
</trkpt>
<trkpt lat="49.38037698157132" lon="8.013011924922466">
<ele>246.39999999999998</ele>
<time>2023-05-18T10:53:06Z</time>
</trkpt>
<trkpt lat="49.38040992245078" lon="8.01299692131579">
<ele>246.60000000000002</ele>
<time>2023-05-18T10:53:07Z</time>
</trkpt>
<trkpt lat="49.38044495880604" lon="8.012987952679396">
<ele>246.79999999999995</ele>
<time>2023-05-18T10:53:08Z</time>
</trkpt>
<trkpt lat="49.380481922999024" lon="8.012979989871383">
<ele>246.79999999999995</ele>
<time>2023-05-18T10:53:09Z</time>
</trkpt>
<trkpt lat="49.38051293604076" lon="8.012976972386241">
<ele>247</ele>
<time>2023-05-18T10:53:10Z</time>
</trkpt>
<trkpt lat="49.38054998405278" lon="8.012967919930816">
<ele>247.20000000000005</ele>
<time>2023-05-18T10:53:11Z</time>
</trkpt>
<trkpt lat="49.380584936589" lon="8.012957945466042">
<ele>247.39999999999998</ele>
<time>2023-05-18T10:53:12Z</time>
</trkpt>
<trkpt lat="49.38062491826713" lon="8.01295199431479">
<ele>247.60000000000002</ele>
<time>2023-05-18T10:53:13Z</time>
</trkpt>
<trkpt lat="49.38066196627915" lon="8.012942941859365">
<ele>247.79999999999995</ele>
<time>2023-05-18T10:53:14Z</time>
</trkpt>
<trkpt lat="49.380697924643755" lon="8.012936990708113">
<ele>248</ele>
<time>2023-05-18T10:53:15Z</time>
</trkpt>
<trkpt lat="49.38073497265577" lon="8.012926932424307">
<ele>248.20000000000005</ele>
<time>2023-05-18T10:53:16Z</time>
</trkpt>
<trkpt lat="49.380779983475804" lon="8.012909917160869">
<ele>248.39999999999998</ele>
<time>2023-05-18T10:53:17Z</time>
</trkpt>
<trkpt lat="49.38081795349717" lon="8.012901954352856">
<ele>248.60000000000002</ele>
<time>2023-05-18T10:53:18Z</time>
</trkpt>
<trkpt lat="49.38085994683206" lon="8.01288795657456">
<ele>248.79999999999995</ele>
<time>2023-05-18T10:53:19Z</time>
</trkpt>
<trkpt lat="49.38089992851019" lon="8.01286792382598">
<ele>249</ele>
<time>2023-05-18T10:53:20Z</time>
</trkpt>
<trkpt lat="49.38093798235059" lon="8.012847974896431">
<ele>249.20000000000005</ele>
<time>2023-05-18T10:53:21Z</time>
</trkpt>
<trkpt lat="49.38097997568548" lon="8.0128219909966">
<ele>249.39999999999998</ele>
<time>2023-05-18T10:53:22Z</time>
</trkpt>
<trkpt lat="49.38102297484875" lon="8.012799946591258">
<ele>249.60000000000002</ele>
<time>2023-05-18T10:53:23Z</time>
</trkpt>
<trkpt lat="49.38106798566878" lon="8.012777986004949">
<ele>249.79999999999995</ele>
<time>2023-05-18T10:53:24Z</time>
</trkpt>
<trkpt lat="49.381102938205004" lon="8.012754935771227">
<ele>250</ele>
<time>2023-05-18T10:53:25Z</time>
</trkpt>
<trkpt lat="49.38113696873188" lon="8.012722916901112">
<ele>250.20000000000005</ele>
<time>2023-05-18T10:53:26Z</time>
</trkpt>
<trkpt lat="49.38117795623839" lon="8.012686958536506">
<ele>250.20000000000005</ele>
<time>2023-05-18T10:53:27Z</time>
</trkpt>
<trkpt lat="49.381214920431376" lon="8.012644965201616">
<ele>250.39999999999998</ele>
<time>2023-05-18T10:53:28Z</time>
</trkpt>
<trkpt lat="49.38123998232186" lon="8.012589979916811">
<ele>250.60000000000002</ele>
<time>2023-05-18T10:53:29Z</time>
</trkpt>
<trkpt lat="49.38126294873655" lon="8.012547986581922">
<ele>250.79999999999995</ele>
<time>2023-05-18T10:53:30Z</time>
</trkpt>
<trkpt lat="49.38128499314189" lon="8.012506999075413">
<ele>251</ele>
<time>2023-05-18T10:53:31Z</time>
</trkpt>
<trkpt lat="49.38130293041468" lon="8.012454947456717">
<ele>251.20000000000005</ele>
<time>2023-05-18T10:53:32Z</time>
</trkpt>
<trkpt lat="49.381317934021354" lon="8.012401973828673">
<ele>251.20000000000005</ele>
<time>2023-05-18T10:53:33Z</time>
</trkpt>
<trkpt lat="49.38132992014289" lon="8.012344976887107">
<ele>251.39999999999998</ele>
<time>2023-05-18T10:53:34Z</time>
</trkpt>
<trkpt lat="49.381341990083456" lon="8.012284962460399">
<ele>251.60000000000002</ele>
<time>2023-05-18T10:53:35Z</time>
</trkpt>
<trkpt lat="49.38135297037661" lon="8.01222293637693">
<ele>251.79999999999995</ele>
<time>2023-05-18T10:53:36Z</time>
</trkpt>
<trkpt lat="49.38136797398329" lon="8.012172980234027">
<ele>252</ele>
<time>2023-05-18T10:53:37Z</time>
</trkpt>
<trkpt lat="49.381384989246726" lon="8.012122940272093">
<ele>252.20000000000005</ele>
<time>2023-05-18T10:53:38Z</time>
</trkpt>
<trkpt lat="49.38140192069113" lon="8.012081952765584">
<ele>252.20000000000005</ele>
<time>2023-05-18T10:53:39Z</time>
</trkpt>
<trkpt lat="49.38142295926809" lon="8.012034930288792">
<ele>252.39999999999998</ele>
<time>2023-05-18T10:53:40Z</time>
</trkpt>
<trkpt lat="49.38144198618829" lon="8.01198497414589">
<ele>252.60000000000002</ele>
<time>2023-05-18T10:53:41Z</time>
</trkpt>
<trkpt lat="49.38145992346108" lon="8.011939963325858">
<ele>252.79999999999995</ele>
<time>2023-05-18T10:53:42Z</time>
</trkpt>
<trkpt lat="49.38147995620966" lon="8.011892940849066">
<ele>252.79999999999995</ele>
<time>2023-05-18T10:53:43Z</time>
</trkpt>
<trkpt lat="49.3814969714731" lon="8.011854970827699">
<ele>253</ele>
<time>2023-05-18T10:53:44Z</time>
</trkpt>
<trkpt lat="49.381511975079775" lon="8.01181498914957">
<ele>253.20000000000005</ele>
<time>2023-05-18T10:53:45Z</time>
</trkpt>
<trkpt lat="49.38152496702969" lon="8.01177492365241">
<ele>253.39999999999998</ele>
<time>2023-05-18T10:53:46Z</time>
</trkpt>
<trkpt lat="49.38154198229313" lon="8.011732930317521">
<ele>253.60000000000002</ele>
<time>2023-05-18T10:53:47Z</time>
</trkpt>
<trkpt lat="49.381559919565916" lon="8.011682974174619">
<ele>253.79999999999995</ele>
<time>2023-05-18T10:53:48Z</time>
</trkpt>
<trkpt lat="49.381577940657735" lon="8.011639975011349">
<ele>253.79999999999995</ele>
<time>2023-05-18T10:53:49Z</time>
</trkpt>
<trkpt lat="49.38159294426441" lon="8.011596975848079">
<ele>254</ele>
<time>2023-05-18T10:53:50Z</time>
</trkpt>
<trkpt lat="49.38161197118461" lon="8.011557999998331">
<ele>254.20000000000005</ele>
<time>2023-05-18T10:53:51Z</time>
</trkpt>
<trkpt lat="49.38162697479129" lon="8.011521957814693">
<ele>254.39999999999998</ele>
<time>2023-05-18T10:53:52Z</time>
</trkpt>
<trkpt lat="49.381641978397965" lon="8.011482981964946">
<ele>254.60000000000002</ele>
<time>2023-05-18T10:53:53Z</time>
</trkpt>
<trkpt lat="49.38165195286274" lon="8.011434953659773">
<ele>254.79999999999995</ele>
<time>2023-05-18T10:53:54Z</time>
</trkpt>
<trkpt lat="49.381662933155894" lon="8.011396983638406">
<ele>255</ele>
<time>2023-05-18T10:53:55Z</time>
</trkpt>
<trkpt lat="49.38167793676257" lon="8.01136295311153">
<ele>255.20000000000005</ele>
<time>2023-05-18T10:53:56Z</time>
</trkpt>
<trkpt lat="49.38169696368277" lon="8.011324983090162">
<ele>255.39999999999998</ele>
<time>2023-05-18T10:53:57Z</time>
</trkpt>
<trkpt lat="49.38171498477459" lon="8.011282989755273">
<ele>255.60000000000002</ele>
<time>2023-05-18T10:53:58Z</time>
</trkpt>
<trkpt lat="49.38173493370414" lon="8.011242924258113">
<ele>255.79999999999995</ele>
<time>2023-05-18T10:53:59Z</time>
</trkpt>
<trkpt lat="49.38175496645272" lon="8.011197997257113">
<ele>256</ele>
<time>2023-05-18T10:54:00Z</time>
</trkpt>
<trkpt lat="49.38177793286741" lon="8.011159943416715">
<ele>256.20000000000005</ele>
<time>2023-05-18T10:54:01Z</time>
</trkpt>
<trkpt lat="49.381792936474085" lon="8.011116944253445">
<ele>256.4</ele>
<time>2023-05-18T10:54:02Z</time>
</trkpt>
<trkpt lat="49.38180995173752" lon="8.0110829975456">
<ele>256.6</ele>
<time>2023-05-18T10:54:03Z</time>
</trkpt>
<trkpt lat="49.38182797282934" lon="8.01104293204844">
<ele>256.79999999999995</ele>
<time>2023-05-18T10:54:04Z</time>
</trkpt>
<trkpt lat="49.38184197060764" lon="8.010992975905538">
<ele>257</ele>
<time>2023-05-18T10:54:05Z</time>
</trkpt>
<trkpt lat="49.38185295090079" lon="8.010946959257126">
<ele>257.20000000000005</ele>
<time>2023-05-18T10:54:06Z</time>
</trkpt>
<trkpt lat="49.38186996616423" lon="8.010902954265475">
<ele>257.4</ele>
<time>2023-05-18T10:54:07Z</time>
</trkpt>
<trkpt lat="49.38188698142767" lon="8.010857943445444">
<ele>257.6</ele>
<time>2023-05-18T10:54:08Z</time>
</trkpt>
<trkpt lat="49.38190491870046" lon="8.010807987302542">
<ele>257.6</ele>
<time>2023-05-18T10:54:09Z</time>
</trkpt>
<trkpt lat="49.381922939792275" lon="8.010759958997369">
<ele>257.79999999999995</ele>
<time>2023-05-18T10:54:10Z</time>
</trkpt>
<trkpt lat="49.38194498419762" lon="8.010714948177338">
<ele>258</ele>
<time>2023-05-18T10:54:11Z</time>
</trkpt>
<trkpt lat="49.381961999461055" lon="8.010669937357306">
<ele>258.20000000000005</ele>
<time>2023-05-18T10:54:12Z</time>
</trkpt>
<trkpt lat="49.38197792507708" lon="8.010619981214404">
<ele>258.4</ele>
<time>2023-05-18T10:54:13Z</time>
</trkpt>
<trkpt lat="49.38199494034052" lon="8.010574970394373">
<ele>258.6</ele>
<time>2023-05-18T10:54:14Z</time>
</trkpt>
<trkpt lat="49.3820149730891" lon="8.010529959574342">
<ele>258.79999999999995</ele>
<time>2023-05-18T10:54:15Z</time>
</trkpt>
<trkpt lat="49.38203793950379" lon="8.010487966239452">
<ele>259</ele>
<time>2023-05-18T10:54:16Z</time>
</trkpt>
<trkpt lat="49.38205797225237" lon="8.01044194959104">
<ele>259.20000000000005</ele>
<time>2023-05-18T10:54:17Z</time>
</trkpt>
<trkpt lat="49.38207993283868" lon="8.010399956256151">
<ele>259.4</ele>
<time>2023-05-18T10:54:18Z</time>
</trkpt>
<trkpt lat="49.38210197724402" lon="8.010356957092881">
<ele>259.79999999999995</ele>
<time>2023-05-18T10:54:19Z</time>
</trkpt>
<trkpt lat="49.38212192617357" lon="8.01031295210123">
<ele>260</ele>
<time>2023-05-18T10:54:20Z</time>
</trkpt>
<trkpt lat="49.38214698806405" lon="8.010271964594722">
<ele>260.20000000000005</ele>
<time>2023-05-18T10:54:21Z</time>
</trkpt>
<trkpt lat="49.38216995447874" lon="8.010234916582704">
<ele>260.4</ele>
<time>2023-05-18T10:54:22Z</time>
</trkpt>
<trkpt lat="49.38219694420695" lon="8.01020298153162">
<ele>260.6</ele>
<time>2023-05-18T10:54:23Z</time>
</trkpt>
<trkpt lat="49.382221922278404" lon="8.010171968489885">
<ele>260.6</ele>
<time>2023-05-18T10:54:24Z</time>
</trkpt>
<trkpt lat="49.38224798999727" lon="8.010137937963009">
<ele>260.79999999999995</ele>
<time>2023-05-18T10:54:25Z</time>
</trkpt>
<trkpt lat="49.38227799721062" lon="8.010102985426784">
<ele>261</ele>
<time>2023-05-18T10:54:26Z</time>
</trkpt>
<trkpt lat="49.382309932261705" lon="8.010067949071527">
<ele>261.20000000000005</ele>
<time>2023-05-18T10:54:27Z</time>
</trkpt>
<trkpt lat="49.38234195113182" lon="8.010032996535301">
<ele>261.4</ele>
<time>2023-05-18T10:54:28Z</time>
</trkpt>
<trkpt lat="49.382369946688414" lon="8.009996954351664">
<ele>261.6</ele>
<time>2023-05-18T10:54:29Z</time>
</trkpt>
<trkpt lat="49.382396936416626" lon="8.009962923824787">
<ele>261.79999999999995</ele>
<time>2023-05-18T10:54:30Z</time>
</trkpt>
<trkpt lat="49.382414957508445" lon="8.009934928268194">
<ele>262</ele>
<time>2023-05-18T10:54:31Z</time>
</trkpt>
<trkpt lat="49.38242292031646" lon="8.009932916611433">
<ele>262.20000000000005</ele>
<time>2023-05-18T10:54:32Z</time>
</trkpt>
<trkpt lat="49.38242292031646" lon="8.009931994602084">
<ele>262.4</ele>
<time>2023-05-18T10:54:33Z</time>
</trkpt>
<trkpt lat="49.38242199830711" lon="8.009934928268194">
<ele>262.6</ele>
<time>2023-05-18T10:54:34Z</time>
</trkpt>
<trkpt lat="49.38242996111512" lon="8.009906932711601">
<ele>263.4</ele>
<time>2023-05-18T10:54:34Z</time>
</trkpt>
<trkpt lat="49.382439935579896" lon="8.009887989610434">
<ele>263.4</ele>
<time>2023-05-18T10:54:35Z</time>
</trkpt>
<trkpt lat="49.38245192170143" lon="8.009866951033473">
<ele>263.4</ele>
<time>2023-05-18T10:54:36Z</time>
</trkpt>
<trkpt lat="49.38246499747038" lon="8.009842978790402">
<ele>263.4</ele>
<time>2023-05-18T10:54:37Z</time>
</trkpt>
<trkpt lat="49.382476983591914" lon="8.00981498323381">
<ele>263.6</ele>
<time>2023-05-18T10:54:38Z</time>
</trkpt>
<trkpt lat="49.38249299302697" lon="8.00979696214199">
<ele>263.6</ele>
<time>2023-05-18T10:54:39Z</time>
</trkpt>
<trkpt lat="49.38250799663365" lon="8.009766954928637">
<ele>263.6</ele>
<time>2023-05-18T10:54:40Z</time>
</trkpt>
<trkpt lat="49.38252995721996" lon="8.009746922180057">
<ele>263.79999999999995</ele>
<time>2023-05-18T10:54:41Z</time>
</trkpt>
<trkpt lat="49.3825469724834" lon="8.009724961593747">
<ele>263.79999999999995</ele>
<time>2023-05-18T10:54:42Z</time>
</trkpt>
<trkpt lat="49.382562981918454" lon="8.009697971865535">
<ele>264</ele>
<time>2023-05-18T10:54:43Z</time>
</trkpt>
<trkpt lat="49.38257798552513" lon="8.009669976308942">
<ele>264</ele>
<time>2023-05-18T10:54:44Z</time>
</trkpt>
<trkpt lat="49.38259298913181" lon="8.009641980752349">
<ele>264.20000000000005</ele>
<time>2023-05-18T10:54:45Z</time>
</trkpt>
<trkpt lat="49.38261494971812" lon="8.009619936347008">
<ele>264.20000000000005</ele>
<time>2023-05-18T10:54:46Z</time>
</trkpt>
<trkpt lat="49.38263799995184" lon="8.00960493274033">
<ele>264.4</ele>
<time>2023-05-18T10:54:47Z</time>
</trkpt>
<trkpt lat="49.38265694305301" lon="8.009582972154021">
<ele>264.4</ele>
<time>2023-05-18T10:54:48Z</time>
</trkpt>
<trkpt lat="49.38266691751778" lon="8.0095599219203">
<ele>264.6</ele>
<time>2023-05-18T10:54:49Z</time>
</trkpt>
<trkpt lat="49.38267999328673" lon="8.009539972990751">
<ele>264.6</ele>
<time>2023-05-18T10:54:50Z</time>
</trkpt>
<trkpt lat="49.382696924731135" lon="8.009524969384074">
<ele>264.79999999999995</ele>
<time>2023-05-18T10:54:51Z</time>
</trkpt>
<trkpt lat="49.38271192833781" lon="8.009506948292255">
<ele>264.79999999999995</ele>
<time>2023-05-18T10:54:52Z</time>
</trkpt>
<trkpt lat="49.38272299245" lon="8.009482976049185">
<ele>265</ele>
<time>2023-05-18T10:54:53Z</time>
</trkpt>
<trkpt lat="49.38273296691477" lon="8.009464954957366">
<ele>265</ele>
<time>2023-05-18T10:54:54Z</time>
</trkpt>
<trkpt lat="49.382736990228295" lon="8.009446933865547">
<ele>265.20000000000005</ele>
<time>2023-05-18T10:54:55Z</time>
</trkpt>
<trkpt lat="49.382736990228295" lon="8.009434947744012">
<ele>265.20000000000005</ele>
<time>2023-05-18T10:54:56Z</time>
</trkpt>
<trkpt lat="49.382736990228295" lon="8.00943293608725">
<ele>265.4</ele>
<time>2023-05-18T10:54:57Z</time>
</trkpt>
<trkpt lat="49.382734978571534" lon="8.009429918602109">
<ele>265.4</ele>
<time>2023-05-18T10:54:58Z</time>
</trkpt>
<trkpt lat="49.38274495303631" lon="8.009329922497272">
<ele>264.79999999999995</ele>
<time>2023-05-18T10:54:58Z</time>
</trkpt>
<trkpt lat="49.38274193555117" lon="8.009286923334002">
<ele>264.79999999999995</ele>
<time>2023-05-18T10:54:59Z</time>
</trkpt>
<trkpt lat="49.382737996056676" lon="8.009242918342352">
<ele>264.79999999999995</ele>
<time>2023-05-18T10:55:00Z</time>
</trkpt>
<trkpt lat="49.382739923894405" lon="8.009197991341352">
<ele>264.79999999999995</ele>
<time>2023-05-18T10:55:01Z</time>
</trkpt>
<trkpt lat="49.38274998217821" lon="8.009157925844193">
<ele>264.79999999999995</ele>
<time>2023-05-18T10:55:02Z</time>
</trkpt>
<trkpt lat="49.38276196829975" lon="8.009111993014812">
<ele>264.79999999999995</ele>
<time>2023-05-18T10:55:03Z</time>
</trkpt>
<trkpt lat="49.3827729485929" lon="8.009061953052878">
<ele>264.79999999999995</ele>
<time>2023-05-18T10:55:04Z</time>
</trkpt>
<trkpt lat="49.3827869463712" lon="8.009011996909976">
<ele>264.79999999999995</ele>
<time>2023-05-18T10:55:05Z</time>
</trkpt>
<trkpt lat="49.38279792666435" lon="8.00895994529128">
<ele>264.79999999999995</ele>
<time>2023-05-18T10:55:06Z</time>
</trkpt>
<trkpt lat="49.38280697911978" lon="8.008909989148378">
<ele>265</ele>
<time>2023-05-18T10:55:07Z</time>
</trkpt>
<trkpt lat="49.38281695358455" lon="8.008862966671586">
<ele>265</ele>
<time>2023-05-18T10:55:08Z</time>
</trkpt>
<trkpt lat="49.382822988554835" lon="8.008811920881271">
<ele>265.20000000000005</ele>
<time>2023-05-18T10:55:09Z</time>
</trkpt>
<trkpt lat="49.38283195719123" lon="8.00876498222351">
<ele>265.20000000000005</ele>
<time>2023-05-18T10:55:10Z</time>
</trkpt>
<trkpt lat="49.38283991999924" lon="8.00871997140348">
<ele>265.4</ele>
<time>2023-05-18T10:55:11Z</time>
</trkpt>
<trkpt lat="49.38284796662629" lon="8.008684935048223">
<ele>265.6</ele>
<time>2023-05-18T10:55:12Z</time>
</trkpt>
<trkpt lat="49.38283296301961" lon="8.00861494615674">
<ele>265.79999999999995</ele>
<time>2023-05-18T10:55:13Z</time>
</trkpt>
<trkpt lat="49.382844949141145" lon="8.008559960871935">
<ele>266</ele>
<time>2023-05-18T10:55:14Z</time>
</trkpt>
<trkpt lat="49.38285693526268" lon="8.008492989465594">
<ele>266.20000000000005</ele>
<time>2023-05-18T10:55:15Z</time>
</trkpt>
<trkpt lat="49.38287797383964" lon="8.00842291675508">
<ele>266.20000000000005</ele>
<time>2023-05-18T10:55:16Z</time>
</trkpt>
<trkpt lat="49.38288291916251" lon="8.008359968662262">
<ele>266.4</ele>
<time>2023-05-18T10:55:17Z</time>
</trkpt>
<trkpt lat="49.38288291916251" lon="8.008282938972116">
<ele>266.6</ele>
<time>2023-05-18T10:55:18Z</time>
</trkpt>
<trkpt lat="49.38288291916251" lon="8.008211944252253">
<ele>266.79999999999995</ele>
<time>2023-05-18T10:55:19Z</time>
</trkpt>
<trkpt lat="49.382886942476034" lon="8.008144972845912">
<ele>267</ele>
<time>2023-05-18T10:55:20Z</time>
</trkpt>
<trkpt lat="49.38288291916251" lon="8.0080799292773">
<ele>267.20000000000005</ele>
<time>2023-05-18T10:55:21Z</time>
</trkpt>
<trkpt lat="49.382886942476034" lon="8.008014969527721">
<ele>267.4</ele>
<time>2023-05-18T10:55:22Z</time>
</trkpt>
<trkpt lat="49.38289297744632" lon="8.007954955101013">
<ele>267.6</ele>
<time>2023-05-18T10:55:23Z</time>
</trkpt>
<trkpt lat="49.38289792276919" lon="8.007912961766124">
<ele>267.79999999999995</ele>
<time>2023-05-18T10:55:24Z</time>
</trkpt>
<trkpt lat="49.38290295191109" lon="8.00786292180419">
<ele>268</ele>
<time>2023-05-18T10:55:25Z</time>
</trkpt>
<trkpt lat="49.382909992709756" lon="8.007812965661287">
<ele>268</ele>
<time>2023-05-18T10:55:26Z</time>
</trkpt>
<trkpt lat="49.38292197883129" lon="8.007767954841256">
<ele>268.20000000000005</ele>
<time>2023-05-18T10:55:27Z</time>
</trkpt>
<trkpt lat="49.38292499631643" lon="8.007721938192844">
<ele>268.4</ele>
<time>2023-05-18T10:55:28Z</time>
</trkpt>
<trkpt lat="49.38292298465967" lon="8.007674999535084">
<ele>268.6</ele>
<time>2023-05-18T10:55:29Z</time>
</trkpt>
<trkpt lat="49.38292692415416" lon="8.007621942088008">
<ele>268.79999999999995</ele>
<time>2023-05-18T10:55:30Z</time>
</trkpt>
<trkpt lat="49.38292792998254" lon="8.007572991773486">
<ele>269</ele>
<time>2023-05-18T10:55:31Z</time>
</trkpt>
<trkpt lat="49.382929941639304" lon="8.007532926276326">
<ele>269.20000000000005</ele>
<time>2023-05-18T10:55:32Z</time>
</trkpt>
<trkpt lat="49.382931953296065" lon="8.007489927113056">
<ele>269.4</ele>
<time>2023-05-18T10:55:33Z</time>
</trkpt>
<trkpt lat="49.382932959124446" lon="8.007447933778167">
<ele>269.6</ele>
<time>2023-05-18T10:55:34Z</time>
</trkpt>
<trkpt lat="49.38293798826635" lon="8.007397977635264">
<ele>269.6</ele>
<time>2023-05-18T10:55:35Z</time>
</trkpt>
<trkpt lat="49.38294796273112" lon="8.007344920188189">
<ele>269.79999999999995</ele>
<time>2023-05-18T10:55:36Z</time>
</trkpt>
<trkpt lat="49.38295693136752" lon="8.007264956831932">
<ele>270</ele>
<time>2023-05-18T10:55:37Z</time>
</trkpt>
<trkpt lat="49.3829629663378" lon="8.007204942405224">
<ele>270.20000000000005</ele>
<time>2023-05-18T10:55:38Z</time>
</trkpt>
<trkpt lat="49.382971934974194" lon="8.007159931585193">
<ele>270.4</ele>
<time>2023-05-18T10:55:39Z</time>
</trkpt>
<trkpt lat="49.38298492692411" lon="8.007096983492374">
<ele>270.6</ele>
<time>2023-05-18T10:55:40Z</time>
</trkpt>
<trkpt lat="49.382992973551154" lon="8.007031939923763">
<ele>270.79999999999995</ele>
<time>2023-05-18T10:55:41Z</time>
</trkpt>
<trkpt lat="49.38300697132945" lon="8.00695993937552">
<ele>271</ele>
<time>2023-05-18T10:55:42Z</time>
</trkpt>
<trkpt lat="49.38300697132945" lon="8.006877964362502">
<ele>271.20000000000005</ele>
<time>2023-05-18T10:55:43Z</time>
</trkpt>
<trkpt lat="49.3830129224807" lon="8.00680696964264">
<ele>271.4</ele>
<time>2023-05-18T10:55:44Z</time>
</trkpt>
<trkpt lat="49.383016945794225" lon="8.00674494355917">
<ele>271.4</ele>
<time>2023-05-18T10:55:45Z</time>
</trkpt>
<trkpt lat="49.3830319494009" lon="8.006654921919107">
<ele>271.6</ele>
<time>2023-05-18T10:55:46Z</time>
</trkpt>
<trkpt lat="49.383041923865676" lon="8.006574958562851">
<ele>271.79999999999995</ele>
<time>2023-05-18T10:55:47Z</time>
</trkpt>
<trkpt lat="49.38305692747235" lon="8.006501952186227">
<ele>272</ele>
<time>2023-05-18T10:55:48Z</time>
</trkpt>
<trkpt lat="49.383079977706075" lon="8.006436992436647">
<ele>272.20000000000005</ele>
<time>2023-05-18T10:55:49Z</time>
</trkpt>
<trkpt lat="49.38309992663562" lon="8.00638192333281">
<ele>272.20000000000005</ele>
<time>2023-05-18T10:55:50Z</time>
</trkpt>
<trkpt lat="49.383102944120765" lon="8.006331967189908">
<ele>272.4</ele>
<time>2023-05-18T10:55:51Z</time>
</trkpt>
<trkpt lat="49.38311291858554" lon="8.00629299134016">
<ele>272.6</ele>
<time>2023-05-18T10:55:52Z</time>
</trkpt>
<trkpt lat="49.3831149302423" lon="8.006257954984903">
<ele>272.79999999999995</ele>
<time>2023-05-18T10:55:53Z</time>
</trkpt>
<trkpt lat="49.38311694189906" lon="8.006217973306775">
<ele>273</ele>
<time>2023-05-18T10:55:54Z</time>
</trkpt>
<trkpt lat="49.3831199593842" lon="8.006179919466376">
<ele>273</ele>
<time>2023-05-18T10:55:55Z</time>
</trkpt>
<trkpt lat="49.383126916363835" lon="8.006124934181571">
<ele>273.20000000000005</ele>
<time>2023-05-18T10:55:56Z</time>
</trkpt>
<trkpt lat="49.38313295133412" lon="8.006071960553527">
<ele>273.4</ele>
<time>2023-05-18T10:55:57Z</time>
</trkpt>
<trkpt lat="49.38314191997051" lon="8.006004989147186">
<ele>273.6</ele>
<time>2023-05-18T10:55:58Z</time>
</trkpt>
<trkpt lat="49.38315197825432" lon="8.005937933921814">
<ele>273.6</ele>
<time>2023-05-18T10:55:59Z</time>
</trkpt>
<trkpt lat="49.38315994106233" lon="8.005874985828996">
<ele>273.79999999999995</ele>
<time>2023-05-18T10:56:00Z</time>
</trkpt>
<trkpt lat="49.38317494466901" lon="8.005791921168566">
<ele>274</ele>
<time>2023-05-18T10:56:01Z</time>
</trkpt>
<trkpt lat="49.38319195993245" lon="8.005714975297451">
<ele>274.20000000000005</ele>
<time>2023-05-18T10:56:02Z</time>
</trkpt>
<trkpt lat="49.38320193439722" lon="8.005666946992278">
<ele>274.20000000000005</ele>
<time>2023-05-18T10:56:03Z</time>
</trkpt>
<trkpt lat="49.38320495188236" lon="8.005624953657389">
<ele>274.4</ele>
<time>2023-05-18T10:56:04Z</time>
</trkpt>
<trkpt lat="49.383209981024265" lon="8.005561921745539">
<ele>274.6</ele>
<time>2023-05-18T10:56:05Z</time>
</trkpt>
<trkpt lat="49.38321794383228" lon="8.00551699474454">
<ele>274.79999999999995</ele>
<time>2023-05-18T10:56:06Z</time>
</trkpt>
<trkpt lat="49.38322297297418" lon="8.005472989752889">
<ele>275</ele>
<time>2023-05-18T10:56:07Z</time>
</trkpt>
<trkpt lat="49.38322791829705" lon="8.005431918427348">
<ele>275</ele>
<time>2023-05-18T10:56:08Z</time>
</trkpt>
<trkpt lat="49.383232947438955" lon="8.005389925092459">
<ele>275.20000000000005</ele>
<time>2023-05-18T10:56:09Z</time>
</trkpt>
<trkpt lat="49.38324292190373" lon="8.005341980606318">
<ele>275.4</ele>
<time>2023-05-18T10:56:10Z</time>
</trkpt>
<trkpt lat="49.383252980187535" lon="8.00528297200799">
<ele>275.4</ele>
<time>2023-05-18T10:56:11Z</time>
</trkpt>
<trkpt lat="49.383256919682026" lon="8.005222957581282">
<ele>275.6</ele>
<time>2023-05-18T10:56:12Z</time>
</trkpt>
<trkpt lat="49.38326697796583" lon="8.005159925669432">
<ele>275.79999999999995</ele>
<time>2023-05-18T10:56:13Z</time>
</trkpt>
<trkpt lat="49.38327795825899" lon="8.005087925121188">
<ele>275.79999999999995</ele>
<time>2023-05-18T10:56:14Z</time>
</trkpt>
<trkpt lat="49.38328692689538" lon="8.005041992291808">
<ele>276</ele>
<time>2023-05-18T10:56:15Z</time>
</trkpt>
<trkpt lat="49.383296985179186" lon="8.00498298369348">
<ele>276.20000000000005</ele>
<time>2023-05-18T10:56:16Z</time>
</trkpt>
<trkpt lat="49.38330193050206" lon="8.004927998408675">
<ele>276.20000000000005</ele>
<time>2023-05-18T10:56:17Z</time>
</trkpt>
<trkpt lat="49.38330796547234" lon="8.004862954840064">
<ele>276.4</ele>
<time>2023-05-18T10:56:18Z</time>
</trkpt>
<trkpt lat="49.38331299461424" lon="8.004799922928214">
<ele>276.6</ele>
<time>2023-05-18T10:56:19Z</time>
</trkpt>
<trkpt lat="49.383317939937115" lon="8.004737980663776">
<ele>276.79999999999995</ele>
<time>2023-05-18T10:56:20Z</time>
</trkpt>
<trkpt lat="49.38332498073578" lon="8.004677966237068">
<ele>276.79999999999995</ele>
<time>2023-05-18T10:56:21Z</time>
</trkpt>
<trkpt lat="49.38333294354379" lon="8.004621975123882">
<ele>277</ele>
<time>2023-05-18T10:56:22Z</time>
</trkpt>
<trkpt lat="49.38334694132209" lon="8.004557937383652">
<ele>277.20000000000005</ele>
<time>2023-05-18T10:56:23Z</time>
</trkpt>
<trkpt lat="49.38335792161524" lon="8.004491971805692">
<ele>277.20000000000005</ele>
<time>2023-05-18T10:56:24Z</time>
</trkpt>
<trkpt lat="49.38336999155581" lon="8.004434974864125">
<ele>277.4</ele>
<time>2023-05-18T10:56:25Z</time>
</trkpt>
<trkpt lat="49.383381977677345" lon="8.004376972094178">
<ele>277.6</ele>
<time>2023-05-18T10:56:26Z</time>
</trkpt>
<trkpt lat="49.38338994048536" lon="8.004324920475483">
<ele>277.79999999999995</ele>
<time>2023-05-18T10:56:27Z</time>
</trkpt>
<trkpt lat="49.38339698128402" lon="8.004271946847439">
<ele>277.79999999999995</ele>
<time>2023-05-18T10:56:28Z</time>
</trkpt>
<trkpt lat="49.383402932435274" lon="8.004216961562634">
<ele>278</ele>
<time>2023-05-18T10:56:29Z</time>
</trkpt>
<trkpt lat="49.38341299071908" lon="8.004161976277828">
<ele>278.20000000000005</ele>
<time>2023-05-18T10:56:30Z</time>
</trkpt>
<trkpt lat="49.383422965183854" lon="8.0041029676795">
<ele>278.20000000000005</ele>
<time>2023-05-18T10:56:31Z</time>
</trkpt>
<trkpt lat="49.38343193382025" lon="8.004046976566315">
<ele>278.4</ele>
<time>2023-05-18T10:56:32Z</time>
</trkpt>
<trkpt lat="49.38343998044729" lon="8.003984950482845">
<ele>278.6</ele>
<time>2023-05-18T10:56:33Z</time>
</trkpt>
<trkpt lat="49.38345297239721" lon="8.003932982683182">
<ele>278.6</ele>
<time>2023-05-18T10:56:34Z</time>
</trkpt>
<trkpt lat="49.38346294686198" lon="8.00388696603477">
<ele>278.79999999999995</ele>
<time>2023-05-18T10:56:35Z</time>
</trkpt>
<trkpt lat="49.383469987660646" lon="8.003834998235106">
<ele>279</ele>
<time>2023-05-18T10:56:36Z</time>
</trkpt>
<trkpt lat="49.38347694464028" lon="8.00378194078803">
<ele>279</ele>
<time>2023-05-18T10:56:37Z</time>
</trkpt>
<trkpt lat="49.38348499126732" lon="8.003721926361322">
<ele>279.20000000000005</ele>
<time>2023-05-18T10:56:38Z</time>
</trkpt>
<trkpt lat="49.3834949657321" lon="8.003667946904898">
<ele>279.4</ele>
<time>2023-05-18T10:56:39Z</time>
</trkpt>
<trkpt lat="49.38350695185363" lon="8.003614973276854">
<ele>279.6</ele>
<time>2023-05-18T10:56:40Z</time>
</trkpt>
<trkpt lat="49.383512986823916" lon="8.00356694497168">
<ele>279.6</ele>
<time>2023-05-18T10:56:41Z</time>
</trkpt>
<trkpt lat="49.38351793214679" lon="8.003509948030114">
<ele>279.79999999999995</ele>
<time>2023-05-18T10:56:42Z</time>
</trkpt>
<trkpt lat="49.38352698460221" lon="8.003441970795393">
<ele>280</ele>
<time>2023-05-18T10:56:43Z</time>
</trkpt>
<trkpt lat="49.383532935753465" lon="8.003367958590388">
<ele>280</ele>
<time>2023-05-18T10:56:44Z</time>
</trkpt>
<trkpt lat="49.38354198820889" lon="8.003291934728622">
<ele>280.20000000000005</ele>
<time>2023-05-18T10:56:45Z</time>
</trkpt>
<trkpt lat="49.383551962673664" lon="8.003224963322282">
<ele>280.4</ele>
<time>2023-05-18T10:56:46Z</time>
</trkpt>
<trkpt lat="49.38356193713844" lon="8.003149945288897">
<ele>280.4</ele>
<time>2023-05-18T10:56:47Z</time>
</trkpt>
<trkpt lat="49.383574929088354" lon="8.00309294834733">
<ele>280.6</ele>
<time>2023-05-18T10:56:48Z</time>
</trkpt>
<trkpt lat="49.3835829757154" lon="8.003031928092241">
<ele>280.79999999999995</ele>
<time>2023-05-18T10:56:49Z</time>
</trkpt>
<trkpt lat="49.38358498737216" lon="8.00296294502914">
<ele>280.79999999999995</ele>
<time>2023-05-18T10:56:50Z</time>
</trkpt>
<trkpt lat="49.38359295018017" lon="8.002902930602431">
<ele>281</ele>
<time>2023-05-18T10:56:51Z</time>
</trkpt>
<trkpt lat="49.38359999097884" lon="8.002849956974387">
<ele>281</ele>
<time>2023-05-18T10:56:52Z</time>
</trkpt>
<trkpt lat="49.38361197710037" lon="8.00279296003282">
<ele>281.20000000000005</ele>
<time>2023-05-18T10:56:53Z</time>
</trkpt>
<trkpt lat="49.383619939908385" lon="8.002737974748015">
<ele>281.4</ele>
<time>2023-05-18T10:56:54Z</time>
</trkpt>
<trkpt lat="49.38362698070705" lon="8.00268198363483">
<ele>281.4</ele>
<time>2023-05-18T10:56:55Z</time>
</trkpt>
<trkpt lat="49.38362798653543" lon="8.00261995755136">
<ele>281.6</ele>
<time>2023-05-18T10:56:56Z</time>
</trkpt>
<trkpt lat="49.3836329318583" lon="8.00255692563951">
<ele>281.79999999999995</ele>
<time>2023-05-18T10:56:57Z</time>
</trkpt>
<trkpt lat="49.383641984313726" lon="8.002494983375072">
<ele>282</ele>
<time>2023-05-18T10:56:58Z</time>
</trkpt>
<trkpt lat="49.3836519587785" lon="8.002434968948364">
<ele>282</ele>
<time>2023-05-18T10:56:59Z</time>
</trkpt>
<trkpt lat="49.383662939071655" lon="8.002377972006798">
<ele>282.20000000000005</ele>
<time>2023-05-18T10:57:00Z</time>
</trkpt>
<trkpt lat="49.38367794267833" lon="8.002326926216483">
<ele>282.4</ele>
<time>2023-05-18T10:57:01Z</time>
</trkpt>
<trkpt lat="49.38369194045663" lon="8.002267917618155">
<ele>282.6</ele>
<time>2023-05-18T10:57:02Z</time>
</trkpt>
<trkpt lat="49.383706944063306" lon="8.002217961475253">
<ele>282.79999999999995</ele>
<time>2023-05-18T10:57:03Z</time>
</trkpt>
<trkpt lat="49.38371792435646" lon="8.002177979797125">
<ele>282.79999999999995</ele>
<time>2023-05-18T10:57:04Z</time>
</trkpt>
<trkpt lat="49.38373695127666" lon="8.002139925956726">
<ele>283</ele>
<time>2023-05-18T10:57:05Z</time>
</trkpt>
<trkpt lat="49.383749943226576" lon="8.00210296176374">
<ele>283.20000000000005</ele>
<time>2023-05-18T10:57:06Z</time>
</trkpt>
<trkpt lat="49.38375991769135" lon="8.002062980085611">
<ele>283.4</ele>
<time>2023-05-18T10:57:07Z</time>
</trkpt>
<trkpt lat="49.38377492129803" lon="8.002026937901974">
<ele>283.4</ele>
<time>2023-05-18T10:57:08Z</time>
</trkpt>
<trkpt lat="49.383786991238594" lon="8.001981927081943">
<ele>283.6</ele>
<time>2023-05-18T10:57:09Z</time>
</trkpt>
<trkpt lat="49.38379495404661" lon="8.001934988424182">
<ele>283.6</ele>
<time>2023-05-18T10:57:10Z</time>
</trkpt>
<trkpt lat="49.38380694016814" lon="8.001877991482615">
<ele>283.79999999999995</ele>
<time>2023-05-18T10:57:11Z</time>
</trkpt>
<trkpt lat="49.38382194377482" lon="8.001816971227527">
<ele>284</ele>
<time>2023-05-18T10:57:12Z</time>
</trkpt>
<trkpt lat="49.383836947381496" lon="8.00175997428596">
<ele>284</ele>
<time>2023-05-18T10:57:13Z</time>
</trkpt>
<trkpt lat="49.38384792767465" lon="8.001699959859252">
<ele>284.20000000000005</ele>
<time>2023-05-18T10:57:14Z</time>
</trkpt>
<trkpt lat="49.383854968473315" lon="8.00163491629064">
<ele>284.4</ele>
<time>2023-05-18T10:57:15Z</time>
</trkpt>
<trkpt lat="49.38387198373675" lon="8.001582948490977">
<ele>284.6</ele>
<time>2023-05-18T10:57:16Z</time>
</trkpt>
<trkpt lat="49.38388497568667" lon="8.00152494572103">
<ele>284.79999999999995</ele>
<time>2023-05-18T10:57:17Z</time>
</trkpt>
<trkpt lat="49.38389293849468" lon="8.001479934900999">
<ele>285</ele>
<time>2023-05-18T10:57:18Z</time>
</trkpt>
<trkpt lat="49.38390492461622" lon="8.00143995322287">
<ele>285</ele>
<time>2023-05-18T10:57:19Z</time>
</trkpt>
<trkpt lat="49.383919928222895" lon="8.001392930746078">
<ele>285.20000000000005</ele>
<time>2023-05-18T10:57:20Z</time>
</trkpt>
<trkpt lat="49.38393292017281" lon="8.001339957118034">
<ele>285.4</ele>
<time>2023-05-18T10:57:21Z</time>
</trkpt>
<trkpt lat="49.38394499011338" lon="8.001272985711694">
<ele>285.4</ele>
<time>2023-05-18T10:57:22Z</time>
</trkpt>
<trkpt lat="49.38395496457815" lon="8.001216994598508">
<ele>285.6</ele>
<time>2023-05-18T10:57:23Z</time>
</trkpt>
<trkpt lat="49.38396996818483" lon="8.00115798600018">
<ele>285.79999999999995</ele>
<time>2023-05-18T10:57:24Z</time>
</trkpt>
<trkpt lat="49.383984971791506" lon="8.001102916896343">
<ele>285.79999999999995</ele>
<time>2023-05-18T10:57:25Z</time>
</trkpt>
<trkpt lat="49.38399695791304" lon="8.001059917733073">
<ele>286</ele>
<time>2023-05-18T10:57:26Z</time>
</trkpt>
<trkpt lat="49.384004920721054" lon="8.001004932448268">
<ele>286</ele>
<time>2023-05-18T10:57:27Z</time>
</trkpt>
<trkpt lat="49.38400994986296" lon="8.000949947163463">
<ele>286.20000000000005</ele>
<time>2023-05-18T10:57:28Z</time>
</trkpt>
<trkpt lat="49.38401699066162" lon="8.000892950221896">
<ele>286.4</ele>
<time>2023-05-18T10:57:29Z</time>
</trkpt>
<trkpt lat="49.38402193598449" lon="8.000851962715387">
<ele>286.4</ele>
<time>2023-05-18T10:57:30Z</time>
</trkpt>
<trkpt lat="49.384027970954776" lon="8.000796977430582">
<ele>286.6</ele>
<time>2023-05-18T10:57:31Z</time>
</trkpt>
<trkpt lat="49.38403693959117" lon="8.000742997974157">
<ele>286.79999999999995</ele>
<time>2023-05-18T10:57:32Z</time>
</trkpt>
<trkpt lat="49.384049931541085" lon="8.00068792887032">
<ele>287</ele>
<time>2023-05-18T10:57:33Z</time>
</trkpt>
<trkpt lat="49.38406493514776" lon="8.000627998262644">
<ele>287</ele>
<time>2023-05-18T10:57:34Z</time>
</trkpt>
<trkpt lat="49.3840819504112" lon="8.000566978007555">
<ele>287.20000000000005</ele>
<time>2023-05-18T10:57:35Z</time>
</trkpt>
<trkpt lat="49.38409795984626" lon="8.000516938045621">
<ele>287.4</ele>
<time>2023-05-18T10:57:36Z</time>
</trkpt>
<trkpt lat="49.38411698676646" lon="8.000464970245957">
<ele>287.6</ele>
<time>2023-05-18T10:57:37Z</time>
</trkpt>
<trkpt lat="49.38412997871637" lon="8.000409984961152">
<ele>287.6</ele>
<time>2023-05-18T10:57:38Z</time>
</trkpt>
<trkpt lat="49.38414196483791" lon="8.000351982191205">
<ele>287.79999999999995</ele>
<time>2023-05-18T10:57:39Z</time>
</trkpt>
<trkpt lat="49.38415193930268" lon="8.000292973592877">
<ele>288</ele>
<time>2023-05-18T10:57:40Z</time>
</trkpt>
<trkpt lat="49.38416199758649" lon="8.000251986086369">
<ele>288.20000000000005</ele>
<time>2023-05-18T10:57:41Z</time>
</trkpt>
<trkpt lat="49.38417197205126" lon="8.000204963609576">
<ele>288.4</ele>
<time>2023-05-18T10:57:42Z</time>
</trkpt>
<trkpt lat="49.38418295234442" lon="8.000154923647642">
<ele>288.4</ele>
<time>2023-05-18T10:57:43Z</time>
</trkpt>
<trkpt lat="49.38418999314308" lon="8.000101950019598">
<ele>288.6</ele>
<time>2023-05-18T10:57:44Z</time>
</trkpt>
<trkpt lat="49.384199967607856" lon="8.000051993876696">
<ele>288.79999999999995</ele>
<time>2023-05-18T10:57:45Z</time>
</trkpt>
<trkpt lat="49.38420994207263" lon="8.000004971399903">
<ele>289</ele>
<time>2023-05-18T10:57:46Z</time>
</trkpt>
<trkpt lat="49.384222934022546" lon="7.99995694309473">
<ele>289</ele>
<time>2023-05-18T10:57:47Z</time>
</trkpt>
<trkpt lat="49.38423793762922" lon="7.999904975295067">
<ele>289.20000000000005</ele>
<time>2023-05-18T10:57:48Z</time>
</trkpt>
<trkpt lat="49.38424699008465" lon="7.99984697252512">
<ele>289.4</ele>
<time>2023-05-18T10:57:49Z</time>
</trkpt>
<trkpt lat="49.38425193540752" lon="7.999797938391566">
<ele>289.6</ele>
<time>2023-05-18T10:57:50Z</time>
</trkpt>
<trkpt lat="49.384262999519706" lon="7.9997519217431545">
<ele>289.79999999999995</ele>
<time>2023-05-18T10:57:51Z</time>
</trkpt>
<trkpt lat="49.384276997298" lon="7.999711940065026">
<ele>289.79999999999995</ele>
<time>2023-05-18T10:57:52Z</time>
</trkpt>
<trkpt lat="49.384286971762776" lon="7.999656954780221">
<ele>290</ele>
<time>2023-05-18T10:57:53Z</time>
</trkpt>
<trkpt lat="49.384302981197834" lon="7.999601969495416">
<ele>290.20000000000005</ele>
<time>2023-05-18T10:57:54Z</time>
</trkpt>
<trkpt lat="49.38431697897613" lon="7.999551929533482">
<ele>290.4</ele>
<time>2023-05-18T10:57:55Z</time>
</trkpt>
<trkpt lat="49.384327959269285" lon="7.999477917328477">
<ele>290.6</ele>
<time>2023-05-18T10:57:56Z</time>
</trkpt>
<trkpt lat="49.38433692790568" lon="7.999411951750517">
<ele>290.6</ele>
<time>2023-05-18T10:57:57Z</time>
</trkpt>
<trkpt lat="49.38434497453272" lon="7.9993419628590345">
<ele>290.79999999999995</ele>
<time>2023-05-18T10:57:58Z</time>
</trkpt>
<trkpt lat="49.3843549489975" lon="7.999281948432326">
<ele>291</ele>
<time>2023-05-18T10:57:59Z</time>
</trkpt>
<trkpt lat="49.384371964260936" lon="7.999227968975902">
<ele>291.20000000000005</ele>
<time>2023-05-18T10:58:00Z</time>
</trkpt>
<trkpt lat="49.38438696786761" lon="7.99918195232749">
<ele>291.4</ele>
<time>2023-05-18T10:58:01Z</time>
</trkpt>
<trkpt lat="49.38440197147429" lon="7.9991269670426846">
<ele>291.4</ele>
<time>2023-05-18T10:58:02Z</time>
</trkpt>
<trkpt lat="49.3844099342823" lon="7.999079944565892">
<ele>291.6</ele>
<time>2023-05-18T10:58:03Z</time>
</trkpt>
<trkpt lat="49.38441798090935" lon="7.999026970937848">
<ele>291.79999999999995</ele>
<time>2023-05-18T10:58:04Z</time>
</trkpt>
<trkpt lat="49.38442795537412" lon="7.998964944854379">
<ele>292</ele>
<time>2023-05-18T10:58:05Z</time>
</trkpt>
<trkpt lat="49.384437929838896" lon="7.998906942084432">
<ele>292.20000000000005</ele>
<time>2023-05-18T10:58:06Z</time>
</trkpt>
<trkpt lat="49.384454945102334" lon="7.998841982334852">
<ele>292.4</ele>
<time>2023-05-18T10:58:07Z</time>
</trkpt>
<trkpt lat="49.38446693122387" lon="7.998789930716157">
<ele>292.4</ele>
<time>2023-05-18T10:58:08Z</time>
</trkpt>
<trkpt lat="49.384481934830546" lon="7.998737962916493">
<ele>292.6</ele>
<time>2023-05-18T10:58:09Z</time>
</trkpt>
<trkpt lat="49.38449693843722" lon="7.998687922954559">
<ele>292.79999999999995</ele>
<time>2023-05-18T10:58:10Z</time>
</trkpt>
<trkpt lat="49.38451495952904" lon="7.998641990125179">
<ele>293</ele>
<time>2023-05-18T10:58:11Z</time>
</trkpt>
<trkpt lat="49.38453298062086" lon="7.998601924628019">
<ele>293.20000000000005</ele>
<time>2023-05-18T10:58:12Z</time>
</trkpt>
<trkpt lat="49.38455494120717" lon="7.998561942949891">
<ele>293.4</ele>
<time>2023-05-18T10:58:13Z</time>
</trkpt>
<trkpt lat="49.38457698561251" lon="7.998531935736537">
<ele>293.4</ele>
<time>2023-05-18T10:58:14Z</time>
</trkpt>
<trkpt lat="49.3845949228853" lon="7.998484997078776">
<ele>293.6</ele>
<time>2023-05-18T10:58:15Z</time>
</trkpt>
<trkpt lat="49.38461696729064" lon="7.998434957116842">
<ele>293.79999999999995</ele>
<time>2023-05-18T10:58:16Z</time>
</trkpt>
<trkpt lat="49.38463498838246" lon="7.998391957953572">
<ele>294</ele>
<time>2023-05-18T10:58:17Z</time>
</trkpt>
<trkpt lat="49.38465795479715" lon="7.998347952961922">
<ele>294.20000000000005</ele>
<time>2023-05-18T10:58:18Z</time>
</trkpt>
<trkpt lat="49.38467798754573" lon="7.998306965455413">
<ele>294.4</ele>
<time>2023-05-18T10:58:19Z</time>
</trkpt>
<trkpt lat="49.384696930646896" lon="7.9982599429786205">
<ele>294.6</ele>
<time>2023-05-18T10:58:20Z</time>
</trkpt>
<trkpt lat="49.384714951738715" lon="7.998214932158589">
<ele>294.79999999999995</ele>
<time>2023-05-18T10:58:21Z</time>
</trkpt>
<trkpt lat="49.384732972830534" lon="7.998166987672448">
<ele>294.79999999999995</ele>
<time>2023-05-18T10:58:22Z</time>
</trkpt>
<trkpt lat="49.38474797643721" lon="7.998122982680798">
<ele>295</ele>
<time>2023-05-18T10:58:23Z</time>
</trkpt>
<trkpt lat="49.38476993702352" lon="7.998071936890483">
<ele>295.20000000000005</ele>
<time>2023-05-18T10:58:24Z</time>
</trkpt>
<trkpt lat="49.38478795811534" lon="7.998024998232722">
<ele>295.4</ele>
<time>2023-05-18T10:58:25Z</time>
</trkpt>
<trkpt lat="49.38481193035841" lon="7.997979987412691">
<ele>295.6</ele>
<time>2023-05-18T10:58:26Z</time>
</trkpt>
<trkpt lat="49.38483296893537" lon="7.997939921915531">
<ele>295.79999999999995</ele>
<time>2023-05-18T10:58:27Z</time>
</trkpt>
<trkpt lat="49.38485694117844" lon="7.99789197742939">
<ele>296</ele>
<time>2023-05-18T10:58:28Z</time>
</trkpt>
<trkpt lat="49.3848729506135" lon="7.997851995751262">
<ele>296.20000000000005</ele>
<time>2023-05-18T10:58:29Z</time>
</trkpt>
<trkpt lat="49.3848919775337" lon="7.997804973274469">
<ele>296.4</ele>
<time>2023-05-18T10:58:30Z</time>
</trkpt>
<trkpt lat="49.38490999862552" lon="7.997754933312535">
<ele>296.6</ele>
<time>2023-05-18T10:58:31Z</time>
</trkpt>
<trkpt lat="49.384927935898304" lon="7.997697936370969">
<ele>296.79999999999995</ele>
<time>2023-05-18T10:58:32Z</time>
</trkpt>
<trkpt lat="49.3849469628185" lon="7.997649991884828">
<ele>297</ele>
<time>2023-05-18T10:58:33Z</time>
</trkpt>
<trkpt lat="49.38496699556708" lon="7.997602969408035">
<ele>297.20000000000005</ele>
<time>2023-05-18T10:58:34Z</time>
</trkpt>
<trkpt lat="49.38498694449663" lon="7.997551923617721">
<ele>297.4</ele>
<time>2023-05-18T10:58:35Z</time>
</trkpt>
<trkpt lat="49.38500798307359" lon="7.997501967474818">
<ele>297.6</ele>
<time>2023-05-18T10:58:36Z</time>
</trkpt>
<trkpt lat="49.38502793200314" lon="7.997457962483168">
<ele>297.79999999999995</ele>
<time>2023-05-18T10:58:37Z</time>
</trkpt>
<trkpt lat="49.38505299389362" lon="7.997414963319898">
<ele>298</ele>
<time>2023-05-18T10:58:38Z</time>
</trkpt>
<trkpt lat="49.385079983621836" lon="7.997354948893189">
<ele>298.20000000000005</ele>
<time>2023-05-18T10:58:39Z</time>
</trkpt>
<trkpt lat="49.385101944208145" lon="7.9973269533365965">
<ele>298.4</ele>
<time>2023-05-18T10:58:40Z</time>
</trkpt>
<trkpt lat="49.38511694781482" lon="7.997287977486849">
<ele>298.6</ele>
<time>2023-05-18T10:58:41Z</time>
</trkpt>
<trkpt lat="49.38513295724988" lon="7.99724992364645">
<ele>298.79999999999995</ele>
<time>2023-05-18T10:58:42Z</time>
</trkpt>
<trkpt lat="49.38515298999846" lon="7.99720692448318">
<ele>299</ele>
<time>2023-05-18T10:58:43Z</time>
</trkpt>
<trkpt lat="49.385169921442866" lon="7.997157974168658">
<ele>299.20000000000005</ele>
<time>2023-05-18T10:58:44Z</time>
</trkpt>
<trkpt lat="49.385189954191446" lon="7.997104916721582">
<ele>299.4</ele>
<time>2023-05-18T10:58:45Z</time>
</trkpt>
<trkpt lat="49.38521199859679" lon="7.997049931436777">
<ele>299.6</ele>
<time>2023-05-18T10:58:46Z</time>
</trkpt>
<trkpt lat="49.3852249905467" lon="7.996992934495211">
<ele>299.79999999999995</ele>
<time>2023-05-18T10:58:47Z</time>
</trkpt>
<trkpt lat="49.38524695113301" lon="7.996944990009069">
<ele>300</ele>
<time>2023-05-18T10:58:48Z</time>
</trkpt>
<trkpt lat="49.38526195473969" lon="7.9969019908457994">
<ele>300.20000000000005</ele>
<time>2023-05-18T10:58:49Z</time>
</trkpt>
<trkpt lat="49.385274946689606" lon="7.99686293117702">
<ele>300.4</ele>
<time>2023-05-18T10:58:50Z</time>
</trkpt>
<trkpt lat="49.38528793863952" lon="7.996817920356989">
<ele>300.6</ele>
<time>2023-05-18T10:58:51Z</time>
</trkpt>
<trkpt lat="49.38529992476106" lon="7.996769975870848">
<ele>300.79999999999995</ele>
<time>2023-05-18T10:58:52Z</time>
</trkpt>
<trkpt lat="49.38530998304486" lon="7.996734939515591">
<ele>301</ele>
<time>2023-05-18T10:58:53Z</time>
</trkpt>
<trkpt lat="49.38532792031765" lon="7.996676936745644">
<ele>301.20000000000005</ele>
<time>2023-05-18T10:58:54Z</time>
</trkpt>
<trkpt lat="49.38534493558109" lon="7.996617928147316">
<ele>301.4</ele>
<time>2023-05-18T10:58:55Z</time>
</trkpt>
<trkpt lat="49.385357927531004" lon="7.996564954519272">
<ele>301.6</ele>
<time>2023-05-18T10:58:56Z</time>
</trkpt>
<trkpt lat="49.38537494279444" lon="7.996516926214099">
<ele>301.79999999999995</ele>
<time>2023-05-18T10:58:57Z</time>
</trkpt>
<trkpt lat="49.38538692891598" lon="7.9964719992130995">
<ele>302</ele>
<time>2023-05-18T10:58:58Z</time>
</trkpt>
<trkpt lat="49.38539296388626" lon="7.996426988393068">
<ele>302.20000000000005</ele>
<time>2023-05-18T10:58:59Z</time>
</trkpt>
<trkpt lat="49.385404950007796" lon="7.996369991451502">
<ele>302.20000000000005</ele>
<time>2023-05-18T10:59:00Z</time>
</trkpt>
<trkpt lat="49.38541794195771" lon="7.996316934004426">
<ele>302.4</ele>
<time>2023-05-18T10:59:01Z</time>
</trkpt>
<trkpt lat="49.38543998636305" lon="7.996246945112944">
<ele>302.6</ele>
<time>2023-05-18T10:59:02Z</time>
</trkpt>
<trkpt lat="49.38544996082783" lon="7.996189948171377">
<ele>302.79999999999995</ele>
<time>2023-05-18T10:59:03Z</time>
</trkpt>
<trkpt lat="49.38546295277774" lon="7.99613194540143">
<ele>303</ele>
<time>2023-05-18T10:59:04Z</time>
</trkpt>
<trkpt lat="49.38547795638442" lon="7.9960729368031025">
<ele>303</ele>
<time>2023-05-18T10:59:05Z</time>
</trkpt>
<trkpt lat="49.385489942505956" lon="7.996009988710284">
<ele>303.20000000000005</ele>
<time>2023-05-18T10:59:06Z</time>
</trkpt>
<trkpt lat="49.3855119869113" lon="7.995919967070222">
<ele>303.4</ele>
<time>2023-05-18T10:59:07Z</time>
</trkpt>
<trkpt lat="49.38551793806255" lon="7.995867999270558">
<ele>303.6</ele>
<time>2023-05-18T10:59:08Z</time>
</trkpt>
<trkpt lat="49.38552296720445" lon="7.995809996500611">
<ele>303.79999999999995</ele>
<time>2023-05-18T10:59:09Z</time>
</trkpt>
<trkpt lat="49.38554492779076" lon="7.995712934061885">
<ele>303.79999999999995</ele>
<time>2023-05-18T10:59:10Z</time>
</trkpt>
<trkpt lat="49.3855479452759" lon="7.995661972090602">
<ele>304</ele>
<time>2023-05-18T10:59:11Z</time>
</trkpt>
<trkpt lat="49.38554199412465" lon="7.99561494961381">
<ele>304.20000000000005</ele>
<time>2023-05-18T10:59:12Z</time>
</trkpt>
<trkpt lat="49.38554299995303" lon="7.995566921308637">
<ele>304.4</ele>
<time>2023-05-18T10:59:13Z</time>
</trkpt>
<trkpt lat="49.38554693944752" lon="7.995517970994115">
<ele>304.4</ele>
<time>2023-05-18T10:59:14Z</time>
</trkpt>
<trkpt lat="49.385549956932664" lon="7.995467931032181">
<ele>304.6</ele>
<time>2023-05-18T10:59:15Z</time>
</trkpt>
<trkpt lat="49.3855669721961" lon="7.995371958240867">
<ele>304.79999999999995</ele>
<time>2023-05-18T10:59:16Z</time>
</trkpt>
<trkpt lat="49.3855669721961" lon="7.995322924107313">
<ele>305</ele>
<time>2023-05-18T10:59:17Z</time>
</trkpt>
<trkpt lat="49.38555498607457" lon="7.995262993499637">
<ele>305</ele>
<time>2023-05-18T10:59:18Z</time>
</trkpt>
<trkpt lat="49.385551968589425" lon="7.995199961587787">
<ele>305.20000000000005</ele>
<time>2023-05-18T10:59:19Z</time>
</trkpt>
<trkpt lat="49.38554693944752" lon="7.995137935504317">
<ele>305.4</ele>
<time>2023-05-18T10:59:20Z</time>
</trkpt>
<trkpt lat="49.38553998246789" lon="7.995082950219512">
<ele>305.6</ele>
<time>2023-05-18T10:59:21Z</time>
</trkpt>
<trkpt lat="49.38553696498275" lon="7.995027964934707">
<ele>305.6</ele>
<time>2023-05-18T10:59:22Z</time>
</trkpt>
<trkpt lat="49.385532941669226" lon="7.994972979649901">
<ele>305.79999999999995</ele>
<time>2023-05-18T10:59:23Z</time>
</trkpt>
<trkpt lat="49.38552497886121" lon="7.994922939687967">
<ele>306</ele>
<time>2023-05-18T10:59:24Z</time>
</trkpt>
<trkpt lat="49.38551994971931" lon="7.994869966059923">
<ele>306</ele>
<time>2023-05-18T10:59:25Z</time>
</trkpt>
<trkpt lat="49.385509975254536" lon="7.994814980775118">
<ele>306.20000000000005</ele>
<time>2023-05-18T10:59:26Z</time>
</trkpt>
<trkpt lat="49.38551492057741" lon="7.994769969955087">
<ele>306.4</ele>
<time>2023-05-18T10:59:27Z</time>
</trkpt>
<trkpt lat="49.38551994971931" lon="7.9947249591350555">
<ele>306.6</ele>
<time>2023-05-18T10:59:28Z</time>
</trkpt>
<trkpt lat="49.38551994971931" lon="7.99466997385025">
<ele>306.6</ele>
<time>2023-05-18T10:59:29Z</time>
</trkpt>
<trkpt lat="49.385507963597775" lon="7.994621945545077">
<ele>306.79999999999995</ele>
<time>2023-05-18T10:59:30Z</time>
</trkpt>
<trkpt lat="49.38549497164786" lon="7.994559919461608">
<ele>306.79999999999995</ele>
<time>2023-05-18T10:59:31Z</time>
</trkpt>
<trkpt lat="49.385486925020814" lon="7.994504934176803">
<ele>307</ele>
<time>2023-05-18T10:59:32Z</time>
</trkpt>
<trkpt lat="49.385487930849195" lon="7.994437962770462">
<ele>307.20000000000005</ele>
<time>2023-05-18T10:59:33Z</time>
</trkpt>
<trkpt lat="49.38548298552632" lon="7.994386916980147">
<ele>307.20000000000005</ele>
<time>2023-05-18T10:59:34Z</time>
</trkpt>
<trkpt lat="49.38547996804118" lon="7.994336960837245">
<ele>307.4</ele>
<time>2023-05-18T10:59:35Z</time>
</trkpt>
<trkpt lat="49.38547493889928" lon="7.994291950017214">
<ele>307.6</ele>
<time>2023-05-18T10:59:36Z</time>
</trkpt>
<trkpt lat="49.38547192141414" lon="7.9942419938743114">
<ele>307.79999999999995</ele>
<time>2023-05-18T10:59:37Z</time>
</trkpt>
<trkpt lat="49.385489942505956" lon="7.994202934205532">
<ele>307.79999999999995</ele>
<time>2023-05-18T10:59:38Z</time>
</trkpt>
<trkpt lat="49.385487930849195" lon="7.994172926992178">
<ele>308</ele>
<time>2023-05-18T10:59:39Z</time>
</trkpt>
<trkpt lat="49.3854929599911" lon="7.99410997889936">
<ele>308.20000000000005</ele>
<time>2023-05-18T10:59:40Z</time>
</trkpt>
<trkpt lat="49.38549698330462" lon="7.994057927280664">
<ele>308.4</ele>
<time>2023-05-18T10:59:41Z</time>
</trkpt>
<trkpt lat="49.38550293445587" lon="7.994017945602536">
<ele>308.6</ele>
<time>2023-05-18T10:59:42Z</time>
</trkpt>
<trkpt lat="49.38550293445587" lon="7.993976958096027">
<ele>308.79999999999995</ele>
<time>2023-05-18T10:59:43Z</time>
</trkpt>
<trkpt lat="49.385507963597775" lon="7.993936976417899">
<ele>309</ele>
<time>2023-05-18T10:59:44Z</time>
</trkpt>
<trkpt lat="49.38551492057741" lon="7.993887942284346">
<ele>309</ele>
<time>2023-05-18T10:59:45Z</time>
</trkpt>
<trkpt lat="49.38552196137607" lon="7.993841925635934">
<ele>309.20000000000005</ele>
<time>2023-05-18T10:59:46Z</time>
</trkpt>
<trkpt lat="49.385526990517974" lon="7.993792975321412">
<ele>309.4</ele>
<time>2023-05-18T10:59:47Z</time>
</trkpt>
<trkpt lat="49.38551793806255" lon="7.993721980601549">
<ele>309.6</ele>
<time>2023-05-18T10:59:48Z</time>
</trkpt>
<trkpt lat="49.38551994971931" lon="7.9936629720032215">
<ele>309.79999999999995</ele>
<time>2023-05-18T10:59:49Z</time>
</trkpt>
<trkpt lat="49.385506957769394" lon="7.993571944534779">
<ele>310</ele>
<time>2023-05-18T10:59:50Z</time>
</trkpt>
<trkpt lat="49.3854929599911" lon="7.993494998663664">
<ele>310</ele>
<time>2023-05-18T10:59:51Z</time>
</trkpt>
<trkpt lat="49.38548197969794" lon="7.99344495870173">
<ele>310.20000000000005</ele>
<time>2023-05-18T10:59:52Z</time>
</trkpt>
<trkpt lat="49.385467981919646" lon="7.993392990902066">
<ele>310.4</ele>
<time>2023-05-18T10:59:53Z</time>
</trkpt>
<trkpt lat="49.385464964434505" lon="7.99333993345499">
<ele>310.6</ele>
<time>2023-05-18T10:59:54Z</time>
</trkpt>
<trkpt lat="49.38545691780746" lon="7.993257958441973">
<ele>310.79999999999995</ele>
<time>2023-05-18T10:59:55Z</time>
</trkpt>
<trkpt lat="49.385444931685925" lon="7.993171960115433">
<ele>311</ele>
<time>2023-05-18T10:59:56Z</time>
</trkpt>
<trkpt lat="49.38543998636305" lon="7.993122925981879">
<ele>311.20000000000005</ele>
<time>2023-05-18T10:59:57Z</time>
</trkpt>
<trkpt lat="49.38543797470629" lon="7.993079926818609">
<ele>311.4</ele>
<time>2023-05-18T10:59:58Z</time>
</trkpt>
<trkpt lat="49.385422971099615" lon="7.993036927655339">
<ele>311.6</ele>
<time>2023-05-18T10:59:59Z</time>
</trkpt>
<trkpt lat="49.385402938351035" lon="7.992984959855676">
<ele>311.79999999999995</ele>
<time>2023-05-18T11:00:00Z</time>
</trkpt>
<trkpt lat="49.38539296388626" lon="7.992934919893742">
<ele>312</ele>
<time>2023-05-18T11:00:01Z</time>
</trkpt>
<trkpt lat="49.3853769544512" lon="7.992879934608936">
<ele>312.20000000000005</ele>
<time>2023-05-18T11:00:02Z</time>
</trkpt>
<trkpt lat="49.38536496832967" lon="7.992826960980892">
<ele>312.4</ele>
<time>2023-05-18T11:00:03Z</time>
</trkpt>
<trkpt lat="49.38534996472299" lon="7.992774993181229">
<ele>312.6</ele>
<time>2023-05-18T11:00:04Z</time>
</trkpt>
<trkpt lat="49.385337978601456" lon="7.992722941562533">
<ele>312.79999999999995</ele>
<time>2023-05-18T11:00:05Z</time>
</trkpt>
<trkpt lat="49.3853269983083" lon="7.992676924914122">
<ele>313</ele>
<time>2023-05-18T11:00:06Z</time>
</trkpt>
<trkpt lat="49.38531291671097" lon="7.992626968771219">
<ele>313.20000000000005</ele>
<time>2023-05-18T11:00:07Z</time>
</trkpt>
<trkpt lat="49.38529992476106" lon="7.992579946294427">
<ele>313.4</ele>
<time>2023-05-18T11:00:08Z</time>
</trkpt>
<trkpt lat="49.38528793863952" lon="7.992531917989254">
<ele>313.6</ele>
<time>2023-05-18T11:00:09Z</time>
</trkpt>
<trkpt lat="49.38527695834637" lon="7.9924869909882545">
<ele>313.79999999999995</ele>
<time>2023-05-18T11:00:10Z</time>
</trkpt>
<trkpt lat="49.38526296056807" lon="7.9924369510263205">
<ele>314</ele>
<time>2023-05-18T11:00:11Z</time>
</trkpt>
<trkpt lat="49.385249968618155" lon="7.992384983226657">
<ele>314.20000000000005</ele>
<time>2023-05-18T11:00:12Z</time>
</trkpt>
<trkpt lat="49.38523697666824" lon="7.992331925779581">
<ele>314.4</ele>
<time>2023-05-18T11:00:13Z</time>
</trkpt>
<trkpt lat="49.3852249905467" lon="7.992286998778582">
<ele>314.6</ele>
<time>2023-05-18T11:00:14Z</time>
</trkpt>
<trkpt lat="49.38521694391966" lon="7.992237964645028">
<ele>314.79999999999995</ele>
<time>2023-05-18T11:00:15Z</time>
</trkpt>
<trkpt lat="49.385207975283265" lon="7.992196977138519">
<ele>315</ele>
<time>2023-05-18T11:00:16Z</time>
</trkpt>
<trkpt lat="49.38520495779812" lon="7.992151966318488">
<ele>315.20000000000005</ele>
<time>2023-05-18T11:00:17Z</time>
</trkpt>
<trkpt lat="49.38519297167659" lon="7.992104943841696">
<ele>315.4</ele>
<time>2023-05-18T11:00:18Z</time>
</trkpt>
<trkpt lat="49.38517997972667" lon="7.992061944678426">
<ele>315.6</ele>
<time>2023-05-18T11:00:19Z</time>
</trkpt>
<trkpt lat="49.38517293892801" lon="7.9920149222016335">
<ele>315.79999999999995</ele>
<time>2023-05-18T11:00:20Z</time>
</trkpt>
<trkpt lat="49.38516799360514" lon="7.991967983543873">
<ele>316</ele>
<time>2023-05-18T11:00:21Z</time>
</trkpt>
<trkpt lat="49.38515994697809" lon="7.991917943581939">
<ele>316.20000000000005</ele>
<time>2023-05-18T11:00:22Z</time>
</trkpt>
<trkpt lat="49.38515491783619" lon="7.991867987439036">
<ele>316.4</ele>
<time>2023-05-18T11:00:23Z</time>
</trkpt>
<trkpt lat="49.38514796085656" lon="7.991816941648722">
<ele>316.6</ele>
<time>2023-05-18T11:00:24Z</time>
</trkpt>
<trkpt lat="49.385139998048544" lon="7.9917679913342">
<ele>316.79999999999995</ele>
<time>2023-05-18T11:00:25Z</time>
</trkpt>
<trkpt lat="49.38512499444187" lon="7.991717951372266">
<ele>317</ele>
<time>2023-05-18T11:00:26Z</time>
</trkpt>
<trkpt lat="49.38511493615806" lon="7.991671934723854">
<ele>317.20000000000005</ele>
<time>2023-05-18T11:00:27Z</time>
</trkpt>
<trkpt lat="49.38510496169329" lon="7.9916279297322035">
<ele>317.4</ele>
<time>2023-05-18T11:00:28Z</time>
</trkpt>
<trkpt lat="49.38509196974337" lon="7.991582918912172">
<ele>317.6</ele>
<time>2023-05-18T11:00:29Z</time>
</trkpt>
<trkpt lat="49.3850819952786" lon="7.991537991911173">
<ele>317.79999999999995</ele>
<time>2023-05-18T11:00:30Z</time>
</trkpt>
<trkpt lat="49.38507294282317" lon="7.991487951949239">
<ele>318</ele>
<time>2023-05-18T11:00:31Z</time>
</trkpt>
<trkpt lat="49.38506196253002" lon="7.99144696444273">
<ele>318.20000000000005</ele>
<time>2023-05-18T11:00:32Z</time>
</trkpt>
<trkpt lat="49.38504796475172" lon="7.991401953622699">
<ele>318.4</ele>
<time>2023-05-18T11:00:33Z</time>
</trkpt>
<trkpt lat="49.385039918124676" lon="7.991356942802668">
<ele>318.6</ele>
<time>2023-05-18T11:00:34Z</time>
</trkpt>
<trkpt lat="49.38501996919513" lon="7.991306986659765">
<ele>318.79999999999995</ele>
<time>2023-05-18T11:00:35Z</time>
</trkpt>
<trkpt lat="49.38500194810331" lon="7.991256946697831">
<ele>319</ele>
<time>2023-05-18T11:00:36Z</time>
</trkpt>
<trkpt lat="49.38498493283987" lon="7.991202967241406">
<ele>319.20000000000005</ele>
<time>2023-05-18T11:00:37Z</time>
</trkpt>
<trkpt lat="49.38496992923319" lon="7.991149993613362">
<ele>319.4</ele>
<time>2023-05-18T11:00:38Z</time>
</trkpt>
<trkpt lat="49.38495995476842" lon="7.991099953651428">
<ele>319.6</ele>
<time>2023-05-18T11:00:39Z</time>
</trkpt>
<trkpt lat="49.384947968646884" lon="7.991046980023384">
<ele>319.79999999999995</ele>
<time>2023-05-18T11:00:40Z</time>
</trkpt>
<trkpt lat="49.38493799418211" lon="7.990994928404689">
<ele>320</ele>
<time>2023-05-18T11:00:41Z</time>
</trkpt>
<trkpt lat="49.38492491841316" lon="7.9909449722617865">
<ele>320.4</ele>
<time>2023-05-18T11:00:42Z</time>
</trkpt>
<trkpt lat="49.384911926463246" lon="7.990891998633742">
<ele>320.6</ele>
<time>2023-05-18T11:00:43Z</time>
</trkpt>
<trkpt lat="49.38490295782685" lon="7.990842964500189">
<ele>320.79999999999995</ele>
<time>2023-05-18T11:00:44Z</time>
</trkpt>
<trkpt lat="49.38489298336208" lon="7.990796947851777">
<ele>321</ele>
<time>2023-05-18T11:00:45Z</time>
</trkpt>
<trkpt lat="49.3848779797554" lon="7.990742968395352">
<ele>321.20000000000005</ele>
<time>2023-05-18T11:00:46Z</time>
</trkpt>
<trkpt lat="49.384862976148725" lon="7.990694940090179">
<ele>321.4</ele>
<time>2023-05-18T11:00:47Z</time>
</trkpt>
<trkpt lat="49.38484797254205" lon="7.990649929270148">
<ele>321.6</ele>
<time>2023-05-18T11:00:48Z</time>
</trkpt>
<trkpt lat="49.38483699224889" lon="7.990611959248781">
<ele>321.79999999999995</ele>
<time>2023-05-18T11:00:49Z</time>
</trkpt>
<trkpt lat="49.384819976985455" lon="7.990569965913892">
<ele>322</ele>
<time>2023-05-18T11:00:50Z</time>
</trkpt>
<trkpt lat="49.38480497337878" lon="7.990524955093861">
<ele>322.20000000000005</ele>
<time>2023-05-18T11:00:51Z</time>
</trkpt>
<trkpt lat="49.3847899697721" lon="7.990482961758971">
<ele>322.4</ele>
<time>2023-05-18T11:00:52Z</time>
</trkpt>
<trkpt lat="49.38477496616542" lon="7.990444991737604">
<ele>322.6</ele>
<time>2023-05-18T11:00:53Z</time>
</trkpt>
<trkpt lat="49.38476197421551" lon="7.990406937897205">
<ele>322.79999999999995</ele>
<time>2023-05-18T11:00:54Z</time>
</trkpt>
<trkpt lat="49.38474495895207" lon="7.990367962047458">
<ele>323</ele>
<time>2023-05-18T11:00:55Z</time>
</trkpt>
<trkpt lat="49.38472693786025" lon="7.990329992026091">
<ele>323.4</ele>
<time>2023-05-18T11:00:56Z</time>
</trkpt>
<trkpt lat="49.38470799475908" lon="7.990294955670834">
<ele>323.6</ele>
<time>2023-05-18T11:00:57Z</time>
</trkpt>
<trkpt lat="49.384689973667264" lon="7.9902599193155766">
<ele>323.79999999999995</ele>
<time>2023-05-18T11:00:58Z</time>
</trkpt>
<trkpt lat="49.384669940918684" lon="7.9902219492942095">
<ele>324</ele>
<time>2023-05-18T11:00:59Z</time>
</trkpt>
<trkpt lat="49.38464496284723" lon="7.990166964009404">
<ele>324.20000000000005</ele>
<time>2023-05-18T11:01:00Z</time>
</trkpt>
<trkpt lat="49.38462291844189" lon="7.990117929875851">
<ele>324.4</ele>
<time>2023-05-18T11:01:01Z</time>
</trkpt>
<trkpt lat="49.384606992825866" lon="7.990081971511245">
<ele>324.6</ele>
<time>2023-05-18T11:01:02Z</time>
</trkpt>
<trkpt lat="49.384587965905666" lon="7.990044923499227">
<ele>324.79999999999995</ele>
<time>2023-05-18T11:01:03Z</time>
</trkpt>
<trkpt lat="49.38456994481385" lon="7.990004941821098">
<ele>325</ele>
<time>2023-05-18T11:01:04Z</time>
</trkpt>
<trkpt lat="49.38455192372203" lon="7.98996496014297">
<ele>325.20000000000005</ele>
<time>2023-05-18T11:01:05Z</time>
</trkpt>
<trkpt lat="49.38453197479248" lon="7.989924978464842">
<ele>325.4</ele>
<time>2023-05-18T11:01:06Z</time>
</trkpt>
<trkpt lat="49.3845169711858" lon="7.989886924624443">
<ele>325.6</ele>
<time>2023-05-18T11:01:07Z</time>
</trkpt>
<trkpt lat="49.384501967579126" lon="7.989849960431457">
<ele>325.79999999999995</ele>
<time>2023-05-18T11:01:08Z</time>
</trkpt>
<trkpt lat="49.38448696397245" lon="7.989809978753328">
<ele>326</ele>
<time>2023-05-18T11:01:09Z</time>
</trkpt>
<trkpt lat="49.38447196036577" lon="7.98977293074131">
<ele>326.20000000000005</ele>
<time>2023-05-18T11:01:10Z</time>
</trkpt>
<trkpt lat="49.384454945102334" lon="7.989732949063182">
<ele>326.4</ele>
<time>2023-05-18T11:01:11Z</time>
</trkpt>
<trkpt lat="49.384437929838896" lon="7.989694979041815">
<ele>326.6</ele>
<time>2023-05-18T11:01:12Z</time>
</trkpt>
<trkpt lat="49.38442292623222" lon="7.989657931029797">
<ele>326.79999999999995</ele>
<time>2023-05-18T11:01:13Z</time>
</trkpt>
<trkpt lat="49.38440792262554" lon="7.9896249901503325">
<ele>327</ele>
<time>2023-05-18T11:01:14Z</time>
</trkpt>
<trkpt lat="49.38439694233239" lon="7.989592971280217">
<ele>327.20000000000005</ele>
<time>2023-05-18T11:01:15Z</time>
</trkpt>
<trkpt lat="49.38438193872571" lon="7.9895569290965796">
<ele>327.4</ele>
<time>2023-05-18T11:01:16Z</time>
</trkpt>
<trkpt lat="49.38436492346227" lon="7.989506972953677">
<ele>327.4</ele>
<time>2023-05-18T11:01:17Z</time>
</trkpt>
<trkpt lat="49.384349919855595" lon="7.989464979618788">
<ele>327.6</ele>
<time>2023-05-18T11:01:18Z</time>
</trkpt>
<trkpt lat="49.38433298841119" lon="7.989421980455518">
<ele>327.79999999999995</ele>
<time>2023-05-18T11:01:19Z</time>
</trkpt>
<trkpt lat="49.38431798480451" lon="7.989377975463867">
<ele>328</ele>
<time>2023-05-18T11:01:20Z</time>
</trkpt>
<trkpt lat="49.38430197536945" lon="7.989337993785739">
<ele>328</ele>
<time>2023-05-18T11:01:21Z</time>
</trkpt>
<trkpt lat="49.38428797759116" lon="7.989297928288579">
<ele>328.20000000000005</ele>
<time>2023-05-18T11:01:22Z</time>
</trkpt>
<trkpt lat="49.3842719681561" lon="7.989261969923973">
<ele>328.4</ele>
<time>2023-05-18T11:01:23Z</time>
</trkpt>
<trkpt lat="49.38425495289266" lon="7.989226933568716">
<ele>328.6</ele>
<time>2023-05-18T11:01:24Z</time>
</trkpt>
<trkpt lat="49.384239949285984" lon="7.989184940233827">
<ele>328.79999999999995</ele>
<time>2023-05-18T11:01:25Z</time>
</trkpt>
<trkpt lat="49.384222934022546" lon="7.989149987697601">
<ele>328.79999999999995</ele>
<time>2023-05-18T11:01:26Z</time>
</trkpt>
<trkpt lat="49.384202985093" lon="7.989114951342344">
<ele>329</ele>
<time>2023-05-18T11:01:27Z</time>
</trkpt>
<trkpt lat="49.38419192098081" lon="7.989077987149358">
<ele>329.20000000000005</ele>
<time>2023-05-18T11:01:28Z</time>
</trkpt>
<trkpt lat="49.384176917374134" lon="7.989036999642849">
<ele>329.4</ele>
<time>2023-05-18T11:01:29Z</time>
</trkpt>
<trkpt lat="49.38416291959584" lon="7.989007998257875">
<ele>329.6</ele>
<time>2023-05-18T11:01:30Z</time>
</trkpt>
<trkpt lat="49.38415193930268" lon="7.988976985216141">
<ele>329.79999999999995</ele>
<time>2023-05-18T11:01:31Z</time>
</trkpt>
<trkpt lat="49.38413995318115" lon="7.988941948860884">
<ele>330</ele>
<time>2023-05-18T11:01:32Z</time>
</trkpt>
<trkpt lat="49.384131990373135" lon="7.98891194164753">
<ele>330.20000000000005</ele>
<time>2023-05-18T11:01:33Z</time>
</trkpt>
<trkpt lat="49.38412293791771" lon="7.988876989111304">
<ele>330.4</ele>
<time>2023-05-18T11:01:34Z</time>
</trkpt>
<trkpt lat="49.384111957624555" lon="7.988837929442525">
<ele>330.4</ele>
<time>2023-05-18T11:01:35Z</time>
</trkpt>
<trkpt lat="49.38409695401788" lon="7.988799959421158">
<ele>330.6</ele>
<time>2023-05-18T11:01:36Z</time>
</trkpt>
<trkpt lat="49.38408295623958" lon="7.988766934722662">
<ele>330.79999999999995</ele>
<time>2023-05-18T11:01:37Z</time>
</trkpt>
<trkpt lat="49.384071975946426" lon="7.988731982186437">
<ele>331</ele>
<time>2023-05-18T11:01:38Z</time>
</trkpt>
<trkpt lat="49.38405998982489" lon="7.98869795165956">
<ele>331.20000000000005</ele>
<time>2023-05-18T11:01:39Z</time>
</trkpt>
<trkpt lat="49.384047919884324" lon="7.9886669386178255">
<ele>331.20000000000005</ele>
<time>2023-05-18T11:01:40Z</time>
</trkpt>
<trkpt lat="49.384027970954776" lon="7.9886319860816">
<ele>331.4</ele>
<time>2023-05-18T11:01:41Z</time>
</trkpt>
<trkpt lat="49.38401699066162" lon="7.988599967211485">
<ele>331.6</ele>
<time>2023-05-18T11:01:42Z</time>
</trkpt>
<trkpt lat="49.384001987054944" lon="7.988566942512989">
<ele>331.79999999999995</ele>
<time>2023-05-18T11:01:43Z</time>
</trkpt>
<trkpt lat="49.38399192877114" lon="7.988536935299635">
<ele>332</ele>
<time>2023-05-18T11:01:44Z</time>
</trkpt>
<trkpt lat="49.38397793099284" lon="7.98850491642952">
<ele>332</ele>
<time>2023-05-18T11:01:45Z</time>
</trkpt>
<trkpt lat="49.383961921557784" lon="7.988474993035197">
<ele>332.20000000000005</ele>
<time>2023-05-18T11:01:46Z</time>
</trkpt>
<trkpt lat="49.38394792377949" lon="7.988441968336701">
<ele>332.4</ele>
<time>2023-05-18T11:01:47Z</time>
</trkpt>
<trkpt lat="49.38393493182957" lon="7.988404920324683">
<ele>332.6</ele>
<time>2023-05-18T11:01:48Z</time>
</trkpt>
<trkpt lat="49.38391791656613" lon="7.988367956131697">
<ele>332.79999999999995</ele>
<time>2023-05-18T11:01:49Z</time>
</trkpt>
<trkpt lat="49.383899979293346" lon="7.98832998611033">
<ele>333</ele>
<time>2023-05-18T11:01:50Z</time>
</trkpt>
<trkpt lat="49.38388296402991" lon="7.988291932269931">
<ele>333.20000000000005</ele>
<time>2023-05-18T11:01:51Z</time>
</trkpt>
<trkpt lat="49.38386293128133" lon="7.988254968076944">
<ele>333.4</ele>
<time>2023-05-18T11:01:52Z</time>
</trkpt>
<trkpt lat="49.38384298235178" lon="7.988219931721687">
<ele>333.4</ele>
<time>2023-05-18T11:01:53Z</time>
</trkpt>
<trkpt lat="49.3838229496032" lon="7.988187996670604">
<ele>333.6</ele>
<time>2023-05-18T11:01:54Z</time>
</trkpt>
<trkpt lat="49.38380492851138" lon="7.988164946436882">
<ele>333.79999999999995</ele>
<time>2023-05-18T11:01:55Z</time>
</trkpt>
<trkpt lat="49.38377793878317" lon="7.988136950880289">
<ele>334</ele>
<time>2023-05-18T11:01:56Z</time>
</trkpt>
<trkpt lat="49.38375296071172" lon="7.988102920353413">
<ele>334.20000000000005</ele>
<time>2023-05-18T11:01:57Z</time>
</trkpt>
<trkpt lat="49.3837349396199" lon="7.98807492479682">
<ele>334.4</ele>
<time>2023-05-18T11:01:58Z</time>
</trkpt>
<trkpt lat="49.38371792435646" lon="7.988036954775453">
<ele>334.6</ele>
<time>2023-05-18T11:01:59Z</time>
</trkpt>
<trkpt lat="49.383701998740435" lon="7.988002924248576">
<ele>334.6</ele>
<time>2023-05-18T11:02:00Z</time>
</trkpt>
<trkpt lat="49.383681965991855" lon="7.98796696588397">
<ele>334.79999999999995</ele>
<time>2023-05-18T11:02:01Z</time>
</trkpt>
<trkpt lat="49.383662939071655" lon="7.987931929528713">
<ele>335</ele>
<time>2023-05-18T11:02:02Z</time>
</trkpt>
<trkpt lat="49.38364491797984" lon="7.987889936193824">
<ele>335.20000000000005</ele>
<time>2023-05-18T11:02:03Z</time>
</trkpt>
<trkpt lat="49.38362698070705" lon="7.987851966172457">
<ele>335.4</ele>
<time>2023-05-18T11:02:04Z</time>
</trkpt>
<trkpt lat="49.38360694795847" lon="7.987822964787483">
<ele>335.6</ele>
<time>2023-05-18T11:02:05Z</time>
</trkpt>
<trkpt lat="49.38359194435179" lon="7.987789940088987">
<ele>335.79999999999995</ele>
<time>2023-05-18T11:02:06Z</time>
</trkpt>
<trkpt lat="49.3835829757154" lon="7.987756999209523">
<ele>336</ele>
<time>2023-05-18T11:02:07Z</time>
</trkpt>
<trkpt lat="49.383571995422244" lon="7.987716933712363">
<ele>336.20000000000005</ele>
<time>2023-05-18T11:02:08Z</time>
</trkpt>
<trkpt lat="49.383552968502045" lon="7.987677957862616">
<ele>336.4</ele>
<time>2023-05-18T11:02:09Z</time>
</trkpt>
<trkpt lat="49.38353796489537" lon="7.9876399878412485">
<ele>336.6</ele>
<time>2023-05-18T11:02:10Z</time>
</trkpt>
<trkpt lat="49.38352195546031" lon="7.98760193400085">
<ele>336.79999999999995</ele>
<time>2023-05-18T11:02:11Z</time>
</trkpt>
<trkpt lat="49.38350292854011" lon="7.987566981464624">
<ele>336.79999999999995</ele>
<time>2023-05-18T11:02:12Z</time>
</trkpt>
<trkpt lat="49.38348691910505" lon="7.987527921795845">
<ele>337</ele>
<time>2023-05-18T11:02:13Z</time>
</trkpt>
<trkpt lat="49.383469987660646" lon="7.987491963431239">
<ele>337.20000000000005</ele>
<time>2023-05-18T11:02:14Z</time>
</trkpt>
<trkpt lat="49.38344995491207" lon="7.9874529875814915">
<ele>337.4</ele>
<time>2023-05-18T11:02:15Z</time>
</trkpt>
<trkpt lat="49.38342992216349" lon="7.987414933741093">
<ele>337.6</ele>
<time>2023-05-18T11:02:16Z</time>
</trkpt>
<trkpt lat="49.38340997323394" lon="7.9873819928616285">
<ele>337.79999999999995</ele>
<time>2023-05-18T11:02:17Z</time>
</trkpt>
<trkpt lat="49.3833929579705" lon="7.987342933192849">
<ele>338</ele>
<time>2023-05-18T11:02:18Z</time>
</trkpt>
<trkpt lat="49.38337292522192" lon="7.987297922372818">
<ele>338.20000000000005</ele>
<time>2023-05-18T11:02:19Z</time>
</trkpt>
<trkpt lat="49.38335792161524" lon="7.987262969836593">
<ele>338.4</ele>
<time>2023-05-18T11:02:20Z</time>
</trkpt>
<trkpt lat="49.38333294354379" lon="7.987211924046278">
<ele>338.6</ele>
<time>2023-05-18T11:02:21Z</time>
</trkpt>
<trkpt lat="49.383319951593876" lon="7.987179988995194">
<ele>338.6</ele>
<time>2023-05-18T11:02:22Z</time>
</trkpt>
<trkpt lat="49.38330695964396" lon="7.987144952639937">
<ele>338.79999999999995</ele>
<time>2023-05-18T11:02:23Z</time>
</trkpt>
<trkpt lat="49.38329195603728" lon="7.987112933769822">
<ele>339</ele>
<time>2023-05-18T11:02:24Z</time>
</trkpt>
<trkpt lat="49.383276952430606" lon="7.98708694986999">
<ele>339.20000000000005</ele>
<time>2023-05-18T11:02:25Z</time>
</trkpt>
<trkpt lat="49.383252980187535" lon="7.987061971798539">
<ele>339.4</ele>
<time>2023-05-18T11:02:26Z</time>
</trkpt>
<trkpt lat="49.383232947438955" lon="7.987036993727088">
<ele>339.6</ele>
<time>2023-05-18T11:02:27Z</time>
</trkpt>
<trkpt lat="49.383207969367504" lon="7.9870029632002115">
<ele>339.79999999999995</ele>
<time>2023-05-18T11:02:28Z</time>
</trkpt>
<trkpt lat="49.38318299129605" lon="7.9869679268449545">
<ele>340</ele>
<time>2023-05-18T11:02:29Z</time>
</trkpt>
<trkpt lat="49.38315792940557" lon="7.9869379196316">
<ele>340.20000000000005</ele>
<time>2023-05-18T11:02:30Z</time>
</trkpt>
<trkpt lat="49.38313697464764" lon="7.986904978752136">
<ele>340.4</ele>
<time>2023-05-18T11:02:31Z</time>
</trkpt>
<trkpt lat="49.3831149302423" lon="7.986862985417247">
<ele>340.6</ele>
<time>2023-05-18T11:02:32Z</time>
</trkpt>
<trkpt lat="49.38309196382761" lon="7.986829960718751">
<ele>340.79999999999995</ele>
<time>2023-05-18T11:02:33Z</time>
</trkpt>
<trkpt lat="49.38306991942227" lon="7.986786961555481">
<ele>341</ele>
<time>2023-05-18T11:02:34Z</time>
</trkpt>
<trkpt lat="49.38304997049272" lon="7.986751925200224">
<ele>341</ele>
<time>2023-05-18T11:02:35Z</time>
</trkpt>
<trkpt lat="49.3830319494009" lon="7.986711943522096">
<ele>341.20000000000005</ele>
<time>2023-05-18T11:02:36Z</time>
</trkpt>
<trkpt lat="49.38301191665232" lon="7.986669950187206">
<ele>341.4</ele>
<time>2023-05-18T11:02:37Z</time>
</trkpt>
<trkpt lat="49.382992973551154" lon="7.986629968509078">
<ele>341.6</ele>
<time>2023-05-18T11:02:38Z</time>
</trkpt>
<trkpt lat="49.3829769641161" lon="7.98658998683095">
<ele>341.79999999999995</ele>
<time>2023-05-18T11:02:39Z</time>
</trkpt>
<trkpt lat="49.38295693136752" lon="7.986551932990551">
<ele>342</ele>
<time>2023-05-18T11:02:40Z</time>
</trkpt>
<trkpt lat="49.38293999992311" lon="7.986516980454326">
<ele>342.20000000000005</ele>
<time>2023-05-18T11:02:41Z</time>
</trkpt>
<trkpt lat="49.38292499631643" lon="7.98648496158421">
<ele>342.4</ele>
<time>2023-05-18T11:02:42Z</time>
</trkpt>
<trkpt lat="49.38290496356785" lon="7.9864569660276175">
<ele>342.4</ele>
<time>2023-05-18T11:02:43Z</time>
</trkpt>
<trkpt lat="49.382886942476034" lon="7.986429976299405">
<ele>342.6</ele>
<time>2023-05-18T11:02:44Z</time>
</trkpt>
<trkpt lat="49.382869927212596" lon="7.986392928287387">
<ele>342.79999999999995</ele>
<time>2023-05-18T11:02:45Z</time>
</trkpt>
<trkpt lat="49.38285198993981" lon="7.986356969922781">
<ele>343</ele>
<time>2023-05-18T11:02:46Z</time>
</trkpt>
<trkpt lat="49.38282994553447" lon="7.9863229393959045">
<ele>343.20000000000005</ele>
<time>2023-05-18T11:02:47Z</time>
</trkpt>
<trkpt lat="49.38281293027103" lon="7.986281951889396">
<ele>343.4</ele>
<time>2023-05-18T11:02:48Z</time>
</trkpt>
<trkpt lat="49.38279692083597" lon="7.986242976039648">
<ele>343.4</ele>
<time>2023-05-18T11:02:49Z</time>
</trkpt>
<trkpt lat="49.382777977734804" lon="7.986211962997913">
<ele>343.6</ele>
<time>2023-05-18T11:02:50Z</time>
</trkpt>
<trkpt lat="49.38276196829975" lon="7.986177932471037">
<ele>343.79999999999995</ele>
<time>2023-05-18T11:02:51Z</time>
</trkpt>
<trkpt lat="49.38274294137955" lon="7.98613996244967">
<ele>344</ele>
<time>2023-05-18T11:02:52Z</time>
</trkpt>
<trkpt lat="49.38272693194449" lon="7.986089922487736">
<ele>344.20000000000005</ele>
<time>2023-05-18T11:02:53Z</time>
</trkpt>
<trkpt lat="49.38270991668105" lon="7.986047929152846">
<ele>344.6</ele>
<time>2023-05-18T11:02:54Z</time>
</trkpt>
<trkpt lat="49.38268795609474" lon="7.986007947474718">
<ele>344.79999999999995</ele>
<time>2023-05-18T11:02:55Z</time>
</trkpt>
<trkpt lat="49.382671946659684" lon="7.985979951918125">
<ele>345</ele>
<time>2023-05-18T11:02:56Z</time>
</trkpt>
<trkpt lat="49.382654931396246" lon="7.98594793304801">
<ele>345.20000000000005</ele>
<time>2023-05-18T11:02:57Z</time>
</trkpt>
<trkpt lat="49.3826349824667" lon="7.985914992168546">
<ele>345.20000000000005</ele>
<time>2023-05-18T11:02:58Z</time>
</trkpt>
<trkpt lat="49.382611932232976" lon="7.985879955813289">
<ele>345.4</ele>
<time>2023-05-18T11:02:59Z</time>
</trkpt>
<trkpt lat="49.38258997164667" lon="7.985837962478399">
<ele>345.6</ele>
<time>2023-05-18T11:03:00Z</time>
</trkpt>
<trkpt lat="49.382564993575215" lon="7.985794963315129">
<ele>345.79999999999995</ele>
<time>2023-05-18T11:03:01Z</time>
</trkpt>
<trkpt lat="49.38253993168473" lon="7.985754981637001">
<ele>346</ele>
<time>2023-05-18T11:03:02Z</time>
</trkpt>
<trkpt lat="49.38251797109842" lon="7.985717933624983">
<ele>346.20000000000005</ele>
<time>2023-05-18T11:03:03Z</time>
</trkpt>
<trkpt lat="49.38249299302697" lon="7.985679963603616">
<ele>346.4</ele>
<time>2023-05-18T11:03:04Z</time>
</trkpt>
<trkpt lat="49.38246793113649" lon="7.985634952783585">
<ele>346.6</ele>
<time>2023-05-18T11:03:05Z</time>
</trkpt>
<trkpt lat="49.38244295306504" lon="7.9855969827622175">
<ele>346.79999999999995</ele>
<time>2023-05-18T11:03:06Z</time>
</trkpt>
<trkpt lat="49.38242292031646" lon="7.985556917265058">
<ele>347</ele>
<time>2023-05-18T11:03:07Z</time>
</trkpt>
<trkpt lat="49.38239995390177" lon="7.985511990264058">
<ele>347.20000000000005</ele>
<time>2023-05-18T11:03:08Z</time>
</trkpt>
<trkpt lat="49.38237698748708" lon="7.98547494225204">
<ele>347.4</ele>
<time>2023-05-18T11:03:09Z</time>
</trkpt>
<trkpt lat="49.382352931424975" lon="7.985442923381925">
<ele>347.6</ele>
<time>2023-05-18T11:03:10Z</time>
</trkpt>
<trkpt lat="49.382326947525144" lon="7.985407970845699">
<ele>347.79999999999995</ele>
<time>2023-05-18T11:03:11Z</time>
</trkpt>
<trkpt lat="49.38230297528207" lon="7.985379975289106">
<ele>348</ele>
<time>2023-05-18T11:03:12Z</time>
</trkpt>
<trkpt lat="49.38227799721062" lon="7.985349968075752">
<ele>348.20000000000005</ele>
<time>2023-05-18T11:03:13Z</time>
</trkpt>
<trkpt lat="49.3822549469769" lon="7.985321972519159">
<ele>348.4</ele>
<time>2023-05-18T11:03:14Z</time>
</trkpt>
<trkpt lat="49.38223198056221" lon="7.985296994447708">
<ele>348.6</ele>
<time>2023-05-18T11:03:15Z</time>
</trkpt>
<trkpt lat="49.38220792450011" lon="7.985256928950548">
<ele>348.79999999999995</ele>
<time>2023-05-18T11:03:16Z</time>
</trkpt>
<trkpt lat="49.38218495808542" lon="7.985214935615659">
<ele>349</ele>
<time>2023-05-18T11:03:17Z</time>
</trkpt>
<trkpt lat="49.38216492533684" lon="7.9851749539375305">
<ele>349.20000000000005</ele>
<time>2023-05-18T11:03:18Z</time>
</trkpt>
<trkpt lat="49.38213994726539" lon="7.9851319547742605">
<ele>349.4</ele>
<time>2023-05-18T11:03:19Z</time>
</trkpt>
<trkpt lat="49.382112957537174" lon="7.985084932297468">
<ele>349.6</ele>
<time>2023-05-18T11:03:20Z</time>
</trkpt>
<trkpt lat="49.382089991122484" lon="7.98504495061934">
<ele>349.79999999999995</ele>
<time>2023-05-18T11:03:21Z</time>
</trkpt>
<trkpt lat="49.382069958373904" lon="7.985004968941212">
<ele>350</ele>
<time>2023-05-18T11:03:22Z</time>
</trkpt>
<trkpt lat="49.382046991959214" lon="7.984961969777942">
<ele>350.4</ele>
<time>2023-05-18T11:03:23Z</time>
</trkpt>
<trkpt lat="49.382026959210634" lon="7.9849169589579105">
<ele>350.6</ele>
<time>2023-05-18T11:03:24Z</time>
</trkpt>
<trkpt lat="49.382002986967564" lon="7.984879994764924">
<ele>350.79999999999995</ele>
<time>2023-05-18T11:03:25Z</time>
</trkpt>
<trkpt lat="49.381986977532506" lon="7.984837917611003">
<ele>351</ele>
<time>2023-05-18T11:03:26Z</time>
</trkpt>
<trkpt lat="49.38196795061231" lon="7.984801959246397">
<ele>351.20000000000005</ele>
<time>2023-05-18T11:03:27Z</time>
</trkpt>
<trkpt lat="49.38194699585438" lon="7.984767928719521">
<ele>351.4</ele>
<time>2023-05-18T11:03:28Z</time>
</trkpt>
<trkpt lat="49.381922939792275" lon="7.984734987840056">
<ele>351.6</ele>
<time>2023-05-18T11:03:29Z</time>
</trkpt>
<trkpt lat="49.3819079361856" lon="7.984692994505167">
<ele>351.79999999999995</ele>
<time>2023-05-18T11:03:30Z</time>
</trkpt>
<trkpt lat="49.38188798725605" lon="7.984654940664768">
<ele>352</ele>
<time>2023-05-18T11:03:31Z</time>
</trkpt>
<trkpt lat="49.38186493702233" lon="7.984616970643401">
<ele>352.20000000000005</ele>
<time>2023-05-18T11:03:32Z</time>
</trkpt>
<trkpt lat="49.38184197060764" lon="7.984576988965273">
<ele>352.4</ele>
<time>2023-05-18T11:03:33Z</time>
</trkpt>
<trkpt lat="49.38181799836457" lon="7.9845349956303835">
<ele>352.6</ele>
<time>2023-05-18T11:03:34Z</time>
</trkpt>
<trkpt lat="49.38179695978761" lon="7.984502976760268">
<ele>353</ele>
<time>2023-05-18T11:03:35Z</time>
</trkpt>
<trkpt lat="49.38177298754454" lon="7.984474981203675">
<ele>353.20000000000005</ele>
<time>2023-05-18T11:03:36Z</time>
</trkpt>
<trkpt lat="49.381749937310815" lon="7.984444973990321">
<ele>353.4</ele>
<time>2023-05-18T11:03:37Z</time>
</trkpt>
<trkpt lat="49.381724959239364" lon="7.98442292958498">
<ele>353.6</ele>
<time>2023-05-18T11:03:38Z</time>
</trkpt>
<trkpt lat="49.38169796951115" lon="7.98439996317029">
<ele>353.79999999999995</ele>
<time>2023-05-18T11:03:39Z</time>
</trkpt>
<trkpt lat="49.3816679622978" lon="7.984382947906852">
<ele>354</ele>
<time>2023-05-18T11:03:40Z</time>
</trkpt>
<trkpt lat="49.381639966741204" lon="7.984361993148923">
<ele>354.20000000000005</ele>
<time>2023-05-18T11:03:41Z</time>
</trkpt>
<trkpt lat="49.38161792233586" lon="7.9843429662287235">
<ele>354.20000000000005</ele>
<time>2023-05-18T11:03:42Z</time>
</trkpt>
<trkpt lat="49.381597973406315" lon="7.9843279626220465">
<ele>354.4</ele>
<time>2023-05-18T11:03:43Z</time>
</trkpt>
<trkpt lat="49.381572995334864" lon="7.9843199998140335">
<ele>354.6</ele>
<time>2023-05-18T11:03:44Z</time>
</trkpt>
<trkpt lat="49.38154994510114" lon="7.984312959015369">
<ele>354.79999999999995</ele>
<time>2023-05-18T11:03:45Z</time>
</trkpt>
<trkpt lat="49.38152295537293" lon="7.984309941530228">
<ele>355</ele>
<time>2023-05-18T11:03:46Z</time>
</trkpt>
<trkpt lat="49.381492948159575" lon="7.984317988157272">
<ele>355.20000000000005</ele>
<time>2023-05-18T11:03:47Z</time>
</trkpt>
<trkpt lat="49.381467970088124" lon="7.984326956793666">
<ele>355.4</ele>
<time>2023-05-18T11:03:48Z</time>
</trkpt>
<trkpt lat="49.38144198618829" lon="7.98433693125844">
<ele>355.4</ele>
<time>2023-05-18T11:03:49Z</time>
</trkpt>
<trkpt lat="49.38141793012619" lon="7.9843479953706264">
<ele>355.6</ele>
<time>2023-05-18T11:03:50Z</time>
</trkpt>
<trkpt lat="49.38139194622636" lon="7.984361993148923">
<ele>355.79999999999995</ele>
<time>2023-05-18T11:03:51Z</time>
</trkpt>
<trkpt lat="49.381361939013004" lon="7.984369955956936">
<ele>356</ele>
<time>2023-05-18T11:03:52Z</time>
</trkpt>
<trkpt lat="49.38132992014289" lon="7.984374985098839">
<ele>356</ele>
<time>2023-05-18T11:03:53Z</time>
</trkpt>
<trkpt lat="49.38129999674857" lon="7.984381942078471">
<ele>356.20000000000005</ele>
<time>2023-05-18T11:03:54Z</time>
</trkpt>
<trkpt lat="49.381276946514845" lon="7.984384959563613">
<ele>356.4</ele>
<time>2023-05-18T11:03:55Z</time>
</trkpt>
<trkpt lat="49.381251968443394" lon="7.984382947906852">
<ele>356.6</ele>
<time>2023-05-18T11:03:56Z</time>
</trkpt>
<trkpt lat="49.38122699037194" lon="7.984386971220374">
<ele>356.79999999999995</ele>
<time>2023-05-18T11:03:57Z</time>
</trkpt>
<trkpt lat="49.3811999168247" lon="7.984391916543245">
<ele>356.79999999999995</ele>
<time>2023-05-18T11:03:58Z</time>
</trkpt>
<trkpt lat="49.381167981773615" lon="7.984394934028387">
<ele>357</ele>
<time>2023-05-18T11:03:59Z</time>
</trkpt>
<trkpt lat="49.38114199787378" lon="7.98439996317029">
<ele>357.20000000000005</ele>
<time>2023-05-18T11:04:00Z</time>
</trkpt>
<trkpt lat="49.38111492432654" lon="7.984401974827051">
<ele>357.4</ele>
<time>2023-05-18T11:04:01Z</time>
</trkpt>
<trkpt lat="49.381084917113185" lon="7.98439996317029">
<ele>357.6</ele>
<time>2023-05-18T11:04:02Z</time>
</trkpt>
<trkpt lat="49.38105692155659" lon="7.984406920149922">
<ele>357.79999999999995</ele>
<time>2023-05-18T11:04:03Z</time>
</trkpt>
<trkpt lat="49.38102792017162" lon="7.984404992312193">
<ele>358.20000000000005</ele>
<time>2023-05-18T11:04:04Z</time>
</trkpt>
<trkpt lat="49.38100294210017" lon="7.984412955120206">
<ele>358.4</ele>
<time>2023-05-18T11:04:05Z</time>
</trkpt>
<trkpt lat="49.380977964028716" lon="7.984417984262109">
<ele>358.6</ele>
<time>2023-05-18T11:04:06Z</time>
</trkpt>
<trkpt lat="49.38094795681536" lon="7.984421923756599">
<ele>358.79999999999995</ele>
<time>2023-05-18T11:04:07Z</time>
</trkpt>
<trkpt lat="49.38092297874391" lon="7.984427958726883">
<ele>359</ele>
<time>2023-05-18T11:04:08Z</time>
</trkpt>
<trkpt lat="49.38089791685343" lon="7.984434999525547">
<ele>359.20000000000005</ele>
<time>2023-05-18T11:04:09Z</time>
</trkpt>
<trkpt lat="49.38087293878198" lon="7.98444296233356">
<ele>359.4</ele>
<time>2023-05-18T11:04:10Z</time>
</trkpt>
<trkpt lat="49.380847960710526" lon="7.984454948455095">
<ele>359.6</ele>
<time>2023-05-18T11:04:11Z</time>
</trkpt>
<trkpt lat="49.380821976810694" lon="7.984464922919869">
<ele>359.79999999999995</ele>
<time>2023-05-18T11:04:12Z</time>
</trkpt>
<trkpt lat="49.38079297542572" lon="7.984467940405011">
<ele>360</ele>
<time>2023-05-18T11:04:13Z</time>
</trkpt>
<trkpt lat="49.38075693324208" lon="7.984469952061772">
<ele>360.20000000000005</ele>
<time>2023-05-18T11:04:14Z</time>
</trkpt>
<trkpt lat="49.38072793185711" lon="7.984481938183308">
<ele>360.6</ele>
<time>2023-05-18T11:04:15Z</time>
</trkpt>
<trkpt lat="49.380697924643755" lon="7.9844919964671135">
<ele>360.79999999999995</ele>
<time>2023-05-18T11:04:16Z</time>
</trkpt>
<trkpt lat="49.3806679174304" lon="7.9844949301332235">
<ele>361</ele>
<time>2023-05-18T11:04:17Z</time>
</trkpt>
<trkpt lat="49.38064193353057" lon="7.9844999592751265">
<ele>361.20000000000005</ele>
<time>2023-05-18T11:04:18Z</time>
</trkpt>
<trkpt lat="49.380612932145596" lon="7.9844999592751265">
<ele>361.4</ele>
<time>2023-05-18T11:04:19Z</time>
</trkpt>
<trkpt lat="49.38058292493224" lon="7.984502976760268">
<ele>361.6</ele>
<time>2023-05-18T11:04:20Z</time>
</trkpt>
<trkpt lat="49.38055291771889" lon="7.984501970931888">
<ele>361.79999999999995</ele>
<time>2023-05-18T11:04:21Z</time>
</trkpt>
<trkpt lat="49.380521988496184" lon="7.984501970931888">
<ele>362.20000000000005</ele>
<time>2023-05-18T11:04:22Z</time>
</trkpt>
<trkpt lat="49.38049298711121" lon="7.984502976760268">
<ele>362.4</ele>
<time>2023-05-18T11:04:23Z</time>
</trkpt>
<trkpt lat="49.38046499155462" lon="7.984504988417029">
<ele>362.6</ele>
<time>2023-05-18T11:04:24Z</time>
</trkpt>
<trkpt lat="49.380437918007374" lon="7.984504988417029">
<ele>362.79999999999995</ele>
<time>2023-05-18T11:04:25Z</time>
</trkpt>
<trkpt lat="49.38041193410754" lon="7.984511945396662">
<ele>363</ele>
<time>2023-05-18T11:04:26Z</time>
</trkpt>
<trkpt lat="49.38038293272257" lon="7.984529966488481">
<ele>363.20000000000005</ele>
<time>2023-05-18T11:04:27Z</time>
</trkpt>
<trkpt lat="49.380354937165976" lon="7.984556956216693">
<ele>363.4</ele>
<time>2023-05-18T11:04:28Z</time>
</trkpt>
<trkpt lat="49.380329959094524" lon="7.984586963430047">
<ele>363.79999999999995</ele>
<time>2023-05-18T11:04:29Z</time>
</trkpt>
<trkpt lat="49.38030498102307" lon="7.984627950936556">
<ele>364</ele>
<time>2023-05-18T11:04:30Z</time>
</trkpt>
<trkpt lat="49.38027991913259" lon="7.984674973413348">
<ele>364.20000000000005</ele>
<time>2023-05-18T11:04:31Z</time>
</trkpt>
<trkpt lat="49.38025292940438" lon="7.984722917899489">
<ele>364.20000000000005</ele>
<time>2023-05-18T11:04:32Z</time>
</trkpt>
<trkpt lat="49.38022795133293" lon="7.984771952033043">
<ele>364.4</ele>
<time>2023-05-18T11:04:33Z</time>
</trkpt>
<trkpt lat="49.380202973261476" lon="7.984821991994977">
<ele>364.4</ele>
<time>2023-05-18T11:04:34Z</time>
</trkpt>
<trkpt lat="49.380176989361644" lon="7.984869936481118">
<ele>364.6</ele>
<time>2023-05-18T11:04:35Z</time>
</trkpt>
<trkpt lat="49.38014698214829" lon="7.984912935644388">
<ele>364.6</ele>
<time>2023-05-18T11:04:36Z</time>
</trkpt>
<trkpt lat="49.38010993413627" lon="7.984951995313168">
<ele>364.6</ele>
<time>2023-05-18T11:04:37Z</time>
</trkpt>
<trkpt lat="49.38007992692292" lon="7.984996922314167">
<ele>364.6</ele>
<time>2023-05-18T11:04:38Z</time>
</trkpt>
<trkpt lat="49.380051931366324" lon="7.98504495061934">
<ele>364.6</ele>
<time>2023-05-18T11:04:39Z</time>
</trkpt>
<trkpt lat="49.38002292998135" lon="7.985089961439371">
<ele>364.6</ele>
<time>2023-05-18T11:04:40Z</time>
</trkpt>
<trkpt lat="49.3799979519099" lon="7.985141929239035">
<ele>364.6</ele>
<time>2023-05-18T11:04:41Z</time>
</trkpt>
<trkpt lat="49.37997699715197" lon="7.9851949866861105">
<ele>364.79999999999995</ele>
<time>2023-05-18T11:04:42Z</time>
</trkpt>
<trkpt lat="49.37995193526149" lon="7.985241925343871">
<ele>364.79999999999995</ele>
<time>2023-05-18T11:04:43Z</time>
</trkpt>
<trkpt lat="49.379922933876514" lon="7.985282996669412">
<ele>364.79999999999995</ele>
<time>2023-05-18T11:04:44Z</time>
</trkpt>
<trkpt lat="49.37989292666316" lon="7.985321972519159">
<ele>364.79999999999995</ele>
<time>2023-05-18T11:04:45Z</time>
</trkpt>
<trkpt lat="49.37986694276333" lon="7.985359942540526">
<ele>365</ele>
<time>2023-05-18T11:04:46Z</time>
</trkpt>
<trkpt lat="49.37984196469188" lon="7.9853899497538805">
<ele>365</ele>
<time>2023-05-18T11:04:47Z</time>
</trkpt>
<trkpt lat="49.37981799244881" lon="7.985417945310473">
<ele>365</ele>
<time>2023-05-18T11:04:48Z</time>
</trkpt>
<trkpt lat="49.37979997135699" lon="7.985442923381925">
<ele>365</ele>
<time>2023-05-18T11:04:49Z</time>
</trkpt>
<trkpt lat="49.379792930558324" lon="7.985469996929169">
<ele>365</ele>
<time>2023-05-18T11:04:50Z</time>
</trkpt>
<trkpt lat="49.37977792695165" lon="7.985482988879085">
<ele>365.20000000000005</ele>
<time>2023-05-18T11:04:51Z</time>
</trkpt>
<trkpt lat="49.37975998967886" lon="7.985489945858717">
<ele>365.20000000000005</ele>
<time>2023-05-18T11:04:52Z</time>
</trkpt>
<trkpt lat="49.37973693944514" lon="7.98549497500062">
<ele>365.20000000000005</ele>
<time>2023-05-18T11:04:53Z</time>
</trkpt>
<trkpt lat="49.37971296720207" lon="7.985499920323491">
<ele>365.4</ele>
<time>2023-05-18T11:04:54Z</time>
</trkpt>
<trkpt lat="49.379689916968346" lon="7.985502937808633">
<ele>365.4</ele>
<time>2023-05-18T11:04:55Z</time>
</trkpt>
<trkpt lat="49.37965798191726" lon="7.985502937808633">
<ele>365.4</ele>
<time>2023-05-18T11:04:56Z</time>
</trkpt>
<trkpt lat="49.379624957218766" lon="7.98549497500062">
<ele>365.4</ele>
<time>2023-05-18T11:04:57Z</time>
</trkpt>
<trkpt lat="49.37958799302578" lon="7.985481983050704">
<ele>365.4</ele>
<time>2023-05-18T11:04:58Z</time>
</trkpt>
<trkpt lat="49.37954792752862" lon="7.985466979444027">
<ele>365.20000000000005</ele>
<time>2023-05-18T11:04:59Z</time>
</trkpt>
<trkpt lat="49.37950794585049" lon="7.985442923381925">
<ele>365.20000000000005</ele>
<time>2023-05-18T11:05:00Z</time>
</trkpt>
<trkpt lat="49.379472993314266" lon="7.9854099825024605">
<ele>365</ele>
<time>2023-05-18T11:05:01Z</time>
</trkpt>
<trkpt lat="49.37943795695901" lon="7.9853699170053005">
<ele>365</ele>
<time>2023-05-18T11:05:02Z</time>
</trkpt>
<trkpt lat="49.37939998693764" lon="7.985327923670411">
<ele>364.79999999999995</ele>
<time>2023-05-18T11:05:03Z</time>
</trkpt>
<trkpt lat="49.379364950582385" lon="7.985289953649044">
<ele>364.6</ele>
<time>2023-05-18T11:05:04Z</time>
</trkpt>
<trkpt lat="49.3793279863894" lon="7.985251983627677">
<ele>364.6</ele>
<time>2023-05-18T11:05:05Z</time>
</trkpt>
<trkpt lat="49.379296973347664" lon="7.985212923958898">
<ele>364.4</ele>
<time>2023-05-18T11:05:06Z</time>
</trkpt>
<trkpt lat="49.37926294282079" lon="7.985171936452389">
<ele>364.4</ele>
<time>2023-05-18T11:05:07Z</time>
</trkpt>
<trkpt lat="49.37923192977905" lon="7.9851319547742605">
<ele>364.4</ele>
<time>2023-05-18T11:05:08Z</time>
</trkpt>
<trkpt lat="49.37920292839408" lon="7.985091973096132">
<ele>364.20000000000005</ele>
<time>2023-05-18T11:05:09Z</time>
</trkpt>
<trkpt lat="49.37917795032263" lon="7.985059954226017">
<ele>364.20000000000005</ele>
<time>2023-05-18T11:05:10Z</time>
</trkpt>
<trkpt lat="49.37915791757405" lon="7.985032964497805">
<ele>364.20000000000005</ele>
<time>2023-05-18T11:05:11Z</time>
</trkpt>
<trkpt lat="49.37913998030126" lon="7.9850079864263535">
<ele>364.20000000000005</ele>
<time>2023-05-18T11:05:12Z</time>
</trkpt>
<trkpt lat="49.379126988351345" lon="7.984984936192632">
<ele>364.20000000000005</ele>
<time>2023-05-18T11:05:13Z</time>
</trkpt>
<trkpt lat="49.37911491841078" lon="7.984962975606322">
<ele>364.20000000000005</ele>
<time>2023-05-18T11:05:14Z</time>
</trkpt>
<trkpt lat="49.37910293228924" lon="7.9849399253726006">
<ele>364</ele>
<time>2023-05-18T11:05:15Z</time>
</trkpt>
<trkpt lat="49.37909496948123" lon="7.984922993928194">
<ele>364</ele>
<time>2023-05-18T11:05:16Z</time>
</trkpt>
<trkpt lat="49.37909195199609" lon="7.984912935644388">
<ele>364</ele>
<time>2023-05-18T11:05:17Z</time>
</trkpt>
<trkpt lat="49.37908994033933" lon="7.984911929816008">
<ele>364</ele>
<time>2023-05-18T11:05:18Z</time>
</trkpt>
<trkpt lat="49.37908994033933" lon="7.9849099181592464">
<ele>363.79999999999995</ele>
<time>2023-05-18T11:05:19Z</time>
</trkpt>
<trkpt lat="49.37906999140978" lon="7.984871948137879">
<ele>363.79999999999995</ele>
<time>2023-05-18T11:05:20Z</time>
</trkpt>
<trkpt lat="49.37903696671128" lon="7.98476692289114">
<ele>363.79999999999995</ele>
<time>2023-05-18T11:05:22Z</time>
</trkpt>
<trkpt lat="49.37902799807489" lon="7.984732976183295">
<ele>363.6</ele>
<time>2023-05-18T11:05:23Z</time>
</trkpt>
<trkpt lat="49.379019951447845" lon="7.984687965363264">
<ele>363.6</ele>
<time>2023-05-18T11:05:24Z</time>
</trkpt>
<trkpt lat="49.37900695949793" lon="7.984636919572949">
<ele>363.6</ele>
<time>2023-05-18T11:05:25Z</time>
</trkpt>
<trkpt lat="49.37899497337639" lon="7.984576988965273">
<ele>363.6</ele>
<time>2023-05-18T11:05:26Z</time>
</trkpt>
<trkpt lat="49.378979969769716" lon="7.984506916254759">
<ele>363.6</ele>
<time>2023-05-18T11:05:27Z</time>
</trkpt>
<trkpt lat="49.37896496616304" lon="7.984429970383644">
<ele>363.4</ele>
<time>2023-05-18T11:05:28Z</time>
</trkpt>
<trkpt lat="49.37894996255636" lon="7.9843479953706264">
<ele>363.4</ele>
<time>2023-05-18T11:05:29Z</time>
</trkpt>
<trkpt lat="49.378932947292924" lon="7.984259985387325">
<ele>363</ele>
<time>2023-05-18T11:05:30Z</time>
</trkpt>
<trkpt lat="49.378912998363376" lon="7.984171975404024">
<ele>362.79999999999995</ele>
<time>2023-05-18T11:05:31Z</time>
</trkpt>
<trkpt lat="49.378889948129654" lon="7.984082959592342">
<ele>362.4</ele>
<time>2023-05-18T11:05:32Z</time>
</trkpt>
<trkpt lat="49.37885792925954" lon="7.9839919321238995">
<ele>362</ele>
<time>2023-05-18T11:05:33Z</time>
</trkpt>
<trkpt lat="49.37881794758141" lon="7.983886990696192">
<ele>361.20000000000005</ele>
<time>2023-05-18T11:05:34Z</time>
</trkpt>
<trkpt lat="49.37877494841814" lon="7.983781965449452">
<ele>360.4</ele>
<time>2023-05-18T11:05:35Z</time>
</trkpt>
<trkpt lat="49.37872692011297" lon="7.983669983223081">
<ele>359.6</ele>
<time>2023-05-18T11:05:36Z</time>
</trkpt>
<trkpt lat="49.37867294065654" lon="7.983549954369664">
<ele>358.6</ele>
<time>2023-05-18T11:05:37Z</time>
</trkpt>
<trkpt lat="49.37860496342182" lon="7.983426991850138">
<ele>357.4</ele>
<time>2023-05-18T11:05:38Z</time>
</trkpt>
<trkpt lat="49.3785369861871" lon="7.98328491859138">
<ele>356.4</ele>
<time>2023-05-18T11:05:39Z</time>
</trkpt>
<trkpt lat="49.37847294844687" lon="7.983119962736964">
<ele>355.4</ele>
<time>2023-05-18T11:05:40Z</time>
</trkpt>
<trkpt lat="49.37840991653502" lon="7.9829799849539995">
<ele>354.4</ele>
<time>2023-05-18T11:05:41Z</time>
</trkpt>
<trkpt lat="49.3783469684422" lon="7.982844952493906">
<ele>353.4</ele>
<time>2023-05-18T11:05:42Z</time>
</trkpt>
<trkpt lat="49.3782779853791" lon="7.982711931690574">
<ele>352.20000000000005</ele>
<time>2023-05-18T11:05:43Z</time>
</trkpt>
<trkpt lat="49.37821797095239" lon="7.9825779888778925">
<ele>351</ele>
<time>2023-05-18T11:05:44Z</time>
</trkpt>
<trkpt lat="49.3781519215554" lon="7.9824369214475155">
<ele>349.79999999999995</ele>
<time>2023-05-18T11:05:45Z</time>
</trkpt>
<trkpt lat="49.378076987341046" lon="7.982274983078241">
<ele>348.6</ele>
<time>2023-05-18T11:05:46Z</time>
</trkpt>
<trkpt lat="49.378009932115674" lon="7.982126958668232">
<ele>347.4</ele>
<time>2023-05-18T11:05:47Z</time>
</trkpt>
<trkpt lat="49.37793692573905" lon="7.981982957571745">
<ele>346.20000000000005</ele>
<time>2023-05-18T11:05:48Z</time>
</trkpt>
<trkpt lat="49.377857968211174" lon="7.981846919283271">
<ele>345</ele>
<time>2023-05-18T11:05:49Z</time>
</trkpt>
<trkpt lat="49.37777699902654" lon="7.981719933450222">
<ele>344</ele>
<time>2023-05-18T11:05:50Z</time>
</trkpt>
<trkpt lat="49.377689994871616" lon="7.98160694539547">
<ele>342.79999999999995</ele>
<time>2023-05-18T11:05:51Z</time>
</trkpt>
<trkpt lat="49.377599973231554" lon="7.981507955119014">
<ele>341.79999999999995</ele>
<time>2023-05-18T11:05:52Z</time>
</trkpt>
<trkpt lat="49.37750693410635" lon="7.981416927650571">
<ele>340.6</ele>
<time>2023-05-18T11:05:53Z</time>
</trkpt>
<trkpt lat="49.377411967143416" lon="7.98132992349565">
<ele>339.6</ele>
<time>2023-05-18T11:05:54Z</time>
</trkpt>
<trkpt lat="49.37731297686696" lon="7.981252977624536">
<ele>338.6</ele>
<time>2023-05-18T11:05:55Z</time>
</trkpt>
<trkpt lat="49.377216920256615" lon="7.98115499317646">
<ele>337.6</ele>
<time>2023-05-18T11:05:56Z</time>
</trkpt>
<trkpt lat="49.377131927758455" lon="7.981059942394495">
<ele>336.6</ele>
<time>2023-05-18T11:05:57Z</time>
</trkpt>
<trkpt lat="49.37705297023058" lon="7.98096195794642">
<ele>335.6</ele>
<time>2023-05-18T11:05:58Z</time>
</trkpt>
<trkpt lat="49.37697694636881" lon="7.980864979326725">
<ele>334.6</ele>
<time>2023-05-18T11:05:59Z</time>
</trkpt>
<trkpt lat="49.376891953870654" lon="7.980771940201521">
<ele>333.79999999999995</ele>
<time>2023-05-18T11:06:00Z</time>
</trkpt>
<trkpt lat="49.3768119905144" lon="7.980677979066968">
<ele>333</ele>
<time>2023-05-18T11:06:01Z</time>
</trkpt>
<trkpt lat="49.376739989966154" lon="7.980601955205202">
<ele>332.4</ele>
<time>2023-05-18T11:06:02Z</time>
</trkpt>
<trkpt lat="49.376657931134105" lon="7.980552921071649">
<ele>331.6</ele>
<time>2023-05-18T11:06:03Z</time>
</trkpt>
<trkpt lat="49.37656296417117" lon="7.9805199801921844">
<ele>330.79999999999995</ele>
<time>2023-05-18T11:06:04Z</time>
</trkpt>
<trkpt lat="49.376464979723096" lon="7.980492990463972">
<ele>330.20000000000005</ele>
<time>2023-05-18T11:06:05Z</time>
</trkpt>
<trkpt lat="49.37636992894113" lon="7.980466922745109">
<ele>329.6</ele>
<time>2023-05-18T11:06:06Z</time>
</trkpt>
<trkpt lat="49.3762799911201" lon="7.980441944673657">
<ele>329</ele>
<time>2023-05-18T11:06:07Z</time>
</trkpt>
<trkpt lat="49.37618795782328" lon="7.980411937460303">
<ele>328.4</ele>
<time>2023-05-18T11:06:08Z</time>
</trkpt>
<trkpt lat="49.37609198503196" lon="7.980374973267317">
<ele>327.79999999999995</ele>
<time>2023-05-18T11:06:09Z</time>
</trkpt>
<trkpt lat="49.37599693425" lon="7.9803279507905245">
<ele>327.4</ele>
<time>2023-05-18T11:06:10Z</time>
</trkpt>
<trkpt lat="49.375901967287064" lon="7.980269948020577">
<ele>326.79999999999995</ele>
<time>2023-05-18T11:06:11Z</time>
</trkpt>
<trkpt lat="49.37581496313214" lon="7.980207921937108">
<ele>326.20000000000005</ele>
<time>2023-05-18T11:06:12Z</time>
</trkpt>
<trkpt lat="49.375731982290745" lon="7.98012494109571">
<ele>325.6</ele>
<time>2023-05-18T11:06:13Z</time>
</trkpt>
<trkpt lat="49.37563491985202" lon="7.980042966082692">
<ele>325</ele>
<time>2023-05-18T11:06:14Z</time>
</trkpt>
<trkpt lat="49.37554799951613" lon="7.97992997802794">
<ele>324.4</ele>
<time>2023-05-18T11:06:15Z</time>
</trkpt>
<trkpt lat="49.37546191737056" lon="7.9798169899731874">
<ele>323.79999999999995</ele>
<time>2023-05-18T11:06:16Z</time>
</trkpt>
<trkpt lat="49.37537994235754" lon="7.9797029960900545">
<ele>323.4</ele>
<time>2023-05-18T11:06:17Z</time>
</trkpt>
<trkpt lat="49.37529796734452" lon="7.9795899242162704">
<ele>322.6</ele>
<time>2023-05-18T11:06:18Z</time>
</trkpt>
<trkpt lat="49.3752299901098" lon="7.979477941989899">
<ele>322</ele>
<time>2023-05-18T11:06:19Z</time>
</trkpt>
<trkpt lat="49.37516293488443" lon="7.979377945885062">
<ele>321.4</ele>
<time>2023-05-18T11:06:20Z</time>
</trkpt>
<trkpt lat="49.37510292045772" lon="7.979302927851677">
<ele>320.79999999999995</ele>
<time>2023-05-18T11:06:21Z</time>
</trkpt>
<trkpt lat="49.375024968758225" lon="7.979211984202266">
<ele>320</ele>
<time>2023-05-18T11:06:22Z</time>
</trkpt>
<trkpt lat="49.374957997351885" lon="7.979101929813623">
<ele>319.4</ele>
<time>2023-05-18T11:06:23Z</time>
</trkpt>
<trkpt lat="49.37489798292518" lon="7.978984918445349">
<ele>318.79999999999995</ele>
<time>2023-05-18T11:06:24Z</time>
</trkpt>
<trkpt lat="49.374827994033694" lon="7.978864973410964">
<ele>318</ele>
<time>2023-05-18T11:06:25Z</time>
</trkpt>
<trkpt lat="49.37475699931383" lon="7.978742932900786">
<ele>317.4</ele>
<time>2023-05-18T11:06:26Z</time>
</trkpt>
<trkpt lat="49.37468692660332" lon="7.978621982038021">
<ele>316.6</ele>
<time>2023-05-18T11:06:27Z</time>
</trkpt>
<trkpt lat="49.374611992388964" lon="7.978496924042702">
<ele>315.79999999999995</ele>
<time>2023-05-18T11:06:28Z</time>
</trkpt>
<trkpt lat="49.37454292550683" lon="7.97836197540164">
<ele>315</ele>
<time>2023-05-18T11:06:29Z</time>
</trkpt>
<trkpt lat="49.374469919130206" lon="7.978239934891462">
<ele>314.20000000000005</ele>
<time>2023-05-18T11:06:30Z</time>
</trkpt>
<trkpt lat="49.37439498491585" lon="7.978124935179949">
<ele>313.4</ele>
<time>2023-05-18T11:06:31Z</time>
</trkpt>
<trkpt lat="49.37432994134724" lon="7.9780069179832935">
<ele>312.6</ele>
<time>2023-05-18T11:06:32Z</time>
</trkpt>
<trkpt lat="49.374274956062436" lon="7.977884961292148">
<ele>311.6</ele>
<time>2023-05-18T11:06:33Z</time>
</trkpt>
<trkpt lat="49.37420999631286" lon="7.977781947702169">
<ele>310.6</ele>
<time>2023-05-18T11:06:34Z</time>
</trkpt>
<trkpt lat="49.37412793748081" lon="7.97769695520401">
<ele>309.6</ele>
<time>2023-05-18T11:06:35Z</time>
</trkpt>
<trkpt lat="49.37406297773123" lon="7.977592935785651">
<ele>308.79999999999995</ele>
<time>2023-05-18T11:06:36Z</time>
</trkpt>
<trkpt lat="49.37402199022472" lon="7.97746192663908">
<ele>307.79999999999995</ele>
<time>2023-05-18T11:06:37Z</time>
</trkpt>
<trkpt lat="49.37396298162639" lon="7.9773669596761465">
<ele>307</ele>
<time>2023-05-18T11:06:38Z</time>
</trkpt>
<trkpt lat="49.37391294166446" lon="7.977271992713213">
<ele>306.20000000000005</ele>
<time>2023-05-18T11:06:39Z</time>
</trkpt>
<trkpt lat="49.37383197247982" lon="7.9772149957716465">
<ele>305.20000000000005</ele>
<time>2023-05-18T11:06:40Z</time>
</trkpt>
<trkpt lat="49.37375997193158" lon="7.977154981344938">
<ele>304.4</ele>
<time>2023-05-18T11:06:41Z</time>
</trkpt>
<trkpt lat="49.373692916706204" lon="7.977066971361637">
<ele>303.4</ele>
<time>2023-05-18T11:06:42Z</time>
</trkpt>
<trkpt lat="49.37362493947148" lon="7.976981978863478">
<ele>302.6</ele>
<time>2023-05-18T11:06:43Z</time>
</trkpt>
<trkpt lat="49.37355495058" lon="7.9769019316881895">
<ele>301.79999999999995</ele>
<time>2023-05-18T11:06:44Z</time>
</trkpt>
<trkpt lat="49.373497953638434" lon="7.976796990260482">
<ele>301.20000000000005</ele>
<time>2023-05-18T11:06:45Z</time>
</trkpt>
<trkpt lat="49.37344992533326" lon="7.9766869358718395">
<ele>300.4</ele>
<time>2023-05-18T11:06:46Z</time>
</trkpt>
<trkpt lat="49.37340499833226" lon="7.9765629675239325">
<ele>299.79999999999995</ele>
<time>2023-05-18T11:06:47Z</time>
</trkpt>
<trkpt lat="49.37336292117834" lon="7.976451991125941">
<ele>299</ele>
<time>2023-05-18T11:06:48Z</time>
</trkpt>
<trkpt lat="49.37332293950021" lon="7.976339925080538">
<ele>298.4</ele>
<time>2023-05-18T11:06:49Z</time>
</trkpt>
<trkpt lat="49.37328798696399" lon="7.976227942854166">
<ele>297.79999999999995</ele>
<time>2023-05-18T11:06:50Z</time>
</trkpt>
<trkpt lat="49.37325797975063" lon="7.9760979395359755">
<ele>297.20000000000005</ele>
<time>2023-05-18T11:06:51Z</time>
</trkpt>
<trkpt lat="49.37323291786015" lon="7.975971959531307">
<ele>296.4</ele>
<time>2023-05-18T11:06:52Z</time>
</trkpt>
<trkpt lat="49.37320995144546" lon="7.975844973698258">
<ele>296</ele>
<time>2023-05-18T11:06:53Z</time>
</trkpt>
<trkpt lat="49.37318799085915" lon="7.97571798786521">
<ele>295.4</ele>
<time>2023-05-18T11:06:54Z</time>
</trkpt>
<trkpt lat="49.373156977817416" lon="7.975582955405116">
<ele>294.79999999999995</ele>
<time>2023-05-18T11:06:55Z</time>
</trkpt>
<trkpt lat="49.37311498448253" lon="7.975447922945023">
<ele>294.20000000000005</ele>
<time>2023-05-18T11:06:56Z</time>
</trkpt>
<trkpt lat="49.37307299114764" lon="7.975322948768735">
<ele>293.6</ele>
<time>2023-05-18T11:06:57Z</time>
</trkpt>
<trkpt lat="49.373026974499226" lon="7.975206943228841">
<ele>293.20000000000005</ele>
<time>2023-05-18T11:06:58Z</time>
</trkpt>
<trkpt lat="49.37297794036567" lon="7.975114993751049">
<ele>292.6</ele>
<time>2023-05-18T11:06:59Z</time>
</trkpt>
<trkpt lat="49.3729349412024" lon="7.975041987374425">
<ele>292</ele>
<time>2023-05-18T11:07:00Z</time>
</trkpt>
<trkpt lat="49.3728799559176" lon="7.9749849904328585">
<ele>291.6</ele>
<time>2023-05-18T11:07:01Z</time>
</trkpt>
<trkpt lat="49.37281692400575" lon="7.9749449249356985">
<ele>291.20000000000005</ele>
<time>2023-05-18T11:07:02Z</time>
</trkpt>
<trkpt lat="49.372749952599406" lon="7.974926987662911">
<ele>291</ele>
<time>2023-05-18T11:07:03Z</time>
</trkpt>
<trkpt lat="49.372682981193066" lon="7.974922964349389">
<ele>290.6</ele>
<time>2023-05-18T11:07:04Z</time>
</trkpt>
<trkpt lat="49.372616931796074" lon="7.974931932985783">
<ele>290.4</ele>
<time>2023-05-18T11:07:05Z</time>
</trkpt>
<trkpt lat="49.37254996038973" lon="7.974949954077601">
<ele>290</ele>
<time>2023-05-18T11:07:06Z</time>
</trkpt>
<trkpt lat="49.37248692847788" lon="7.974971998482943">
<ele>289.6</ele>
<time>2023-05-18T11:07:07Z</time>
</trkpt>
<trkpt lat="49.372427919879556" lon="7.974997982382774">
<ele>289.4</ele>
<time>2023-05-18T11:07:08Z</time>
</trkpt>
<trkpt lat="49.37237293459475" lon="7.975029917433858">
<ele>289</ele>
<time>2023-05-18T11:07:09Z</time>
</trkpt>
<trkpt lat="49.372316943481565" lon="7.975059924647212">
<ele>288.79999999999995</ele>
<time>2023-05-18T11:07:10Z</time>
</trkpt>
<trkpt lat="49.37226296402514" lon="7.97509697265923">
<ele>288.4</ele>
<time>2023-05-18T11:07:11Z</time>
</trkpt>
<trkpt lat="49.372207978740335" lon="7.975132931023836">
<ele>288.20000000000005</ele>
<time>2023-05-18T11:07:12Z</time>
</trkpt>
<trkpt lat="49.37215693295002" lon="7.975176936015487">
<ele>287.79999999999995</ele>
<time>2023-05-18T11:07:13Z</time>
</trkpt>
<trkpt lat="49.3721079826355" lon="7.9752229526638985">
<ele>287.6</ele>
<time>2023-05-18T11:07:14Z</time>
</trkpt>
<trkpt lat="49.372061965987086" lon="7.975271986797452">
<ele>287.20000000000005</ele>
<time>2023-05-18T11:07:15Z</time>
</trkpt>
<trkpt lat="49.37201192602515" lon="7.975314985960722">
<ele>287</ele>
<time>2023-05-18T11:07:16Z</time>
</trkpt>
<trkpt lat="49.37195995822549" lon="7.975356979295611">
<ele>286.79999999999995</ele>
<time>2023-05-18T11:07:17Z</time>
</trkpt>
<trkpt lat="49.371906984597445" lon="7.975404923781753">
<ele>286.6</ele>
<time>2023-05-18T11:07:18Z</time>
</trkpt>
<trkpt lat="49.37185199931264" lon="7.975466949865222">
<ele>286.4</ele>
<time>2023-05-18T11:07:19Z</time>
</trkpt>
<trkpt lat="49.371799947693944" lon="7.975534927099943">
<ele>286.20000000000005</ele>
<time>2023-05-18T11:07:20Z</time>
</trkpt>
<trkpt lat="49.371741944924" lon="7.97559192404151">
<ele>285.79999999999995</ele>
<time>2023-05-18T11:07:21Z</time>
</trkpt>
<trkpt lat="49.37167991884053" lon="7.975642969831824">
<ele>285.6</ele>
<time>2023-05-18T11:07:22Z</time>
</trkpt>
<trkpt lat="49.371609929949045" lon="7.975686974823475">
<ele>285.4</ele>
<time>2023-05-18T11:07:23Z</time>
</trkpt>
<trkpt lat="49.37153499573469" lon="7.9757219273597">
<ele>285</ele>
<time>2023-05-18T11:07:24Z</time>
</trkpt>
<trkpt lat="49.37145293690264" lon="7.975749922916293">
<ele>284.79999999999995</ele>
<time>2023-05-18T11:07:25Z</time>
</trkpt>
<trkpt lat="49.371369956061244" lon="7.97576199285686">
<ele>284.4</ele>
<time>2023-05-18T11:07:26Z</time>
</trkpt>
<trkpt lat="49.37128194607794" lon="7.975769955664873">
<ele>283.79999999999995</ele>
<time>2023-05-18T11:07:27Z</time>
</trkpt>
<trkpt lat="49.37119494192302" lon="7.975766938179731">
<ele>283.4</ele>
<time>2023-05-18T11:07:28Z</time>
</trkpt>
<trkpt lat="49.37110693193972" lon="7.975749922916293">
<ele>283</ele>
<time>2023-05-18T11:07:29Z</time>
</trkpt>
<trkpt lat="49.37101699411869" lon="7.975727962329984">
<ele>282.4</ele>
<time>2023-05-18T11:07:30Z</time>
</trkpt>
<trkpt lat="49.37092998996377" lon="7.975701978430152">
<ele>282</ele>
<time>2023-05-18T11:07:31Z</time>
</trkpt>
<trkpt lat="49.37084197998047" lon="7.975662918761373">
<ele>281.6</ele>
<time>2023-05-18T11:07:32Z</time>
</trkpt>
<trkpt lat="49.370751958340406" lon="7.9756399523466825">
<ele>281.20000000000005</ele>
<time>2023-05-18T11:07:33Z</time>
</trkpt>
<trkpt lat="49.370664954185486" lon="7.975619919598103">
<ele>280.79999999999995</ele>
<time>2023-05-18T11:07:34Z</time>
</trkpt>
<trkpt lat="49.37058499082923" lon="7.9755969531834126">
<ele>280.6</ele>
<time>2023-05-18T11:07:35Z</time>
</trkpt>
<trkpt lat="49.37049798667431" lon="7.975582955405116">
<ele>280.20000000000005</ele>
<time>2023-05-18T11:07:36Z</time>
</trkpt>
<trkpt lat="49.37041995115578" lon="7.9755699634552">
<ele>280</ele>
<time>2023-05-18T11:07:37Z</time>
</trkpt>
<trkpt lat="49.37035993672907" lon="7.975552948191762">
<ele>279.79999999999995</ele>
<time>2023-05-18T11:07:38Z</time>
</trkpt>
<trkpt lat="49.37030796892941" lon="7.975544985383749">
<ele>279.6</ele>
<time>2023-05-18T11:07:39Z</time>
</trkpt>
<trkpt lat="49.37026295810938" lon="7.975529981777072">
<ele>279.4</ele>
<time>2023-05-18T11:07:40Z</time>
</trkpt>
<trkpt lat="49.37021794728935" lon="7.975511960685253">
<ele>279.20000000000005</ele>
<time>2023-05-18T11:07:41Z</time>
</trkpt>
<trkpt lat="49.37017695978284" lon="7.975491927936673">
<ele>279</ele>
<time>2023-05-18T11:07:42Z</time>
</trkpt>
<trkpt lat="49.37013798393309" lon="7.975457981228828">
<ele>278.79999999999995</ele>
<time>2023-05-18T11:07:43Z</time>
</trkpt>
<trkpt lat="49.370102947577834" lon="7.975402995944023">
<ele>278.79999999999995</ele>
<time>2023-05-18T11:07:44Z</time>
</trkpt>
<trkpt lat="49.370081992819905" lon="7.975341975688934">
<ele>278.6</ele>
<time>2023-05-18T11:07:45Z</time>
</trkpt>
<trkpt lat="49.3700579367578" lon="7.975284978747368">
<ele>278.6</ele>
<time>2023-05-18T11:07:46Z</time>
</trkpt>
<trkpt lat="49.37002792954445" lon="7.975229993462563">
<ele>278.6</ele>
<time>2023-05-18T11:07:47Z</time>
</trkpt>
<trkpt lat="49.36998995952308" lon="7.975186994299293">
<ele>278.4</ele>
<time>2023-05-18T11:07:48Z</time>
</trkpt>
<trkpt lat="49.369956934824586" lon="7.975154975429177">
<ele>278.4</ele>
<time>2023-05-18T11:07:49Z</time>
</trkpt>
<trkpt lat="49.36992298811674" lon="7.975142989307642">
<ele>278.4</ele>
<time>2023-05-18T11:07:50Z</time>
</trkpt>
<trkpt lat="49.36987998895347" lon="7.975149946287274">
<ele>278.4</ele>
<time>2023-05-18T11:07:51Z</time>
</trkpt>
<trkpt lat="49.36982994899154" lon="7.975164949893951">
<ele>278.20000000000005</ele>
<time>2023-05-18T11:07:52Z</time>
</trkpt>
<trkpt lat="49.36977798119187" lon="7.975192945450544">
<ele>278.20000000000005</ele>
<time>2023-05-18T11:07:53Z</time>
</trkpt>
<trkpt lat="49.36972794122994" lon="7.9752149898558855">
<ele>278</ele>
<time>2023-05-18T11:07:54Z</time>
</trkpt>
<trkpt lat="49.36967697925866" lon="7.9752379562705755">
<ele>278</ele>
<time>2023-05-18T11:07:55Z</time>
</trkpt>
<trkpt lat="49.36961998231709" lon="7.975266957655549">
<ele>277.79999999999995</ele>
<time>2023-05-18T11:07:56Z</time>
</trkpt>
<trkpt lat="49.36956197954714" lon="7.975296964868903">
<ele>277.79999999999995</ele>
<time>2023-05-18T11:07:57Z</time>
</trkpt>
<trkpt lat="49.369502970948815" lon="7.975316997617483">
<ele>277.6</ele>
<time>2023-05-18T11:07:58Z</time>
</trkpt>
<trkpt lat="49.36944195069373" lon="7.975339964032173">
<ele>277.6</ele>
<time>2023-05-18T11:07:59Z</time>
</trkpt>
<trkpt lat="49.36938193626702" lon="7.975361924618483">
<ele>277.4</ele>
<time>2023-05-18T11:08:00Z</time>
</trkpt>
<trkpt lat="49.36932192184031" lon="7.97537692822516">
<ele>277.20000000000005</ele>
<time>2023-05-18T11:08:01Z</time>
</trkpt>
<trkpt lat="49.36925796791911" lon="7.975381957367063">
<ele>277.20000000000005</ele>
<time>2023-05-18T11:08:02Z</time>
</trkpt>
<trkpt lat="49.36919191852212" lon="7.9753669537603855">
<ele>277</ele>
<time>2023-05-18T11:08:03Z</time>
</trkpt>
<trkpt lat="49.369132993742824" lon="7.975326972082257">
<ele>276.79999999999995</ele>
<time>2023-05-18T11:08:04Z</time>
</trkpt>
<trkpt lat="49.36908194795251" lon="7.975281961262226">
<ele>276.79999999999995</ele>
<time>2023-05-18T11:08:05Z</time>
</trkpt>
<trkpt lat="49.369027968496084" lon="7.9752229526638985">
<ele>276.6</ele>
<time>2023-05-18T11:08:06Z</time>
</trkpt>
<trkpt lat="49.36896292492747" lon="7.975172996520996">
<ele>276.4</ele>
<time>2023-05-18T11:08:07Z</time>
</trkpt>
<trkpt lat="49.36891699209809" lon="7.975106947124004">
<ele>276.20000000000005</ele>
<time>2023-05-18T11:08:08Z</time>
</trkpt>
<trkpt lat="49.36887298710644" lon="7.975039975717664">
<ele>276</ele>
<time>2023-05-18T11:08:09Z</time>
</trkpt>
<trkpt lat="49.368837950751185" lon="7.97496696934104">
<ele>275.79999999999995</ele>
<time>2023-05-18T11:08:10Z</time>
</trkpt>
<trkpt lat="49.36879696324468" lon="7.97488197684288">
<ele>275.79999999999995</ele>
<time>2023-05-18T11:08:11Z</time>
</trkpt>
<trkpt lat="49.36876695603132" lon="7.974802935495973">
<ele>275.6</ele>
<time>2023-05-18T11:08:12Z</time>
</trkpt>
<trkpt lat="49.368731919676065" lon="7.9747299291193485">
<ele>275.4</ele>
<time>2023-05-18T11:08:13Z</time>
</trkpt>
<trkpt lat="49.36869294382632" lon="7.974657928571105">
<ele>275.4</ele>
<time>2023-05-18T11:08:14Z</time>
</trkpt>
<trkpt lat="49.36865296214819" lon="7.974586933851242">
<ele>275.20000000000005</ele>
<time>2023-05-18T11:08:15Z</time>
</trkpt>
<trkpt lat="49.36860996298492" lon="7.974531948566437">
<ele>275</ele>
<time>2023-05-18T11:08:16Z</time>
</trkpt>
<trkpt lat="49.36857199296355" lon="7.974482998251915">
<ele>275</ele>
<time>2023-05-18T11:08:17Z</time>
</trkpt>
<trkpt lat="49.36852698214352" lon="7.974436981603503">
<ele>274.79999999999995</ele>
<time>2023-05-18T11:08:18Z</time>
</trkpt>
<trkpt lat="49.368474930524826" lon="7.974386941641569">
<ele>274.6</ele>
<time>2023-05-18T11:08:19Z</time>
</trkpt>
<trkpt lat="49.368424974381924" lon="7.974339919164777">
<ele>274.6</ele>
<time>2023-05-18T11:08:20Z</time>
</trkpt>
<trkpt lat="49.36837694607675" lon="7.974294992163777">
<ele>274.4</ele>
<time>2023-05-18T11:08:21Z</time>
</trkpt>
<trkpt lat="49.36832992359996" lon="7.97425995580852">
<ele>274.20000000000005</ele>
<time>2023-05-18T11:08:22Z</time>
</trkpt>
<trkpt lat="49.36828692443669" lon="7.9742269311100245">
<ele>274.20000000000005</ele>
<time>2023-05-18T11:08:23Z</time>
</trkpt>
<trkpt lat="49.36824694275856" lon="7.974186949431896">
<ele>274</ele>
<time>2023-05-18T11:08:24Z</time>
</trkpt>
<trkpt lat="49.368211990222335" lon="7.97414998523891">
<ele>274</ele>
<time>2023-05-18T11:08:25Z</time>
</trkpt>
<trkpt lat="49.36820193193853" lon="7.974101956933737">
<ele>273.79999999999995</ele>
<time>2023-05-18T11:08:26Z</time>
</trkpt>
<trkpt lat="49.36819799244404" lon="7.974052922800183">
<ele>273.79999999999995</ele>
<time>2023-05-18T11:08:27Z</time>
</trkpt>
<trkpt lat="49.36820494942367" lon="7.974012941122055">
<ele>273.79999999999995</ele>
<time>2023-05-18T11:08:28Z</time>
</trkpt>
<trkpt lat="49.36820696108043" lon="7.97398192808032">
<ele>273.79999999999995</ele>
<time>2023-05-18T11:08:29Z</time>
</trkpt>
<trkpt lat="49.36820696108043" lon="7.973952926695347">
<ele>274</ele>
<time>2023-05-18T11:08:30Z</time>
</trkpt>
<trkpt lat="49.368209978565574" lon="7.973926942795515">
<ele>274.20000000000005</ele>
<time>2023-05-18T11:08:31Z</time>
</trkpt>
<trkpt lat="49.368214923888445" lon="7.973896935582161">
<ele>274.20000000000005</ele>
<time>2023-05-18T11:08:32Z</time>
</trkpt>
<trkpt lat="49.36821794137359" lon="7.9738549422472715">
<ele>274.4</ele>
<time>2023-05-18T11:08:33Z</time>
</trkpt>
<trkpt lat="49.36821794137359" lon="7.973799956962466">
<ele>274.6</ele>
<time>2023-05-18T11:08:34Z</time>
</trkpt>
<trkpt lat="49.36822699382901" lon="7.973759975284338">
<ele>274.79999999999995</ele>
<time>2023-05-18T11:08:35Z</time>
</trkpt>
<trkpt lat="49.36822992749512" lon="7.973721921443939">
<ele>275</ele>
<time>2023-05-18T11:08:36Z</time>
</trkpt>
<trkpt lat="49.36823998577893" lon="7.9736879747360945">
<ele>275.20000000000005</ele>
<time>2023-05-18T11:08:37Z</time>
</trkpt>
<trkpt lat="49.36824199743569" lon="7.973641958087683">
<ele>275.4</ele>
<time>2023-05-18T11:08:38Z</time>
</trkpt>
<trkpt lat="49.36824694275856" lon="7.973584961146116">
<ele>275.6</ele>
<time>2023-05-18T11:08:39Z</time>
</trkpt>
<trkpt lat="49.3682499602437" lon="7.973537938669324">
<ele>275.79999999999995</ele>
<time>2023-05-18T11:08:40Z</time>
</trkpt>
<trkpt lat="49.3682499602437" lon="7.973486976698041">
<ele>276</ele>
<time>2023-05-18T11:08:41Z</time>
</trkpt>
<trkpt lat="49.36825197190046" lon="7.973424950614572">
<ele>276.4</ele>
<time>2023-05-18T11:08:42Z</time>
</trkpt>
<trkpt lat="49.36826295219362" lon="7.973364936187863">
<ele>276.6</ele>
<time>2023-05-18T11:08:43Z</time>
</trkpt>
<trkpt lat="49.36827493831515" lon="7.973311962559819">
<ele>277</ele>
<time>2023-05-18T11:08:44Z</time>
</trkpt>
<trkpt lat="49.36828793026507" lon="7.973247924819589">
<ele>277.20000000000005</ele>
<time>2023-05-18T11:08:45Z</time>
</trkpt>
<trkpt lat="49.36830796301365" lon="7.973181959241629">
<ele>277.6</ele>
<time>2023-05-18T11:08:46Z</time>
</trkpt>
<trkpt lat="49.36833193525672" lon="7.97312194481492">
<ele>277.79999999999995</ele>
<time>2023-05-18T11:08:47Z</time>
</trkpt>
<trkpt lat="49.36835791915655" lon="7.973071988672018">
<ele>278.20000000000005</ele>
<time>2023-05-18T11:08:48Z</time>
</trkpt>
<trkpt lat="49.36839295551181" lon="7.9730229545384645">
<ele>278.4</ele>
<time>2023-05-18T11:08:49Z</time>
</trkpt>
<trkpt lat="49.368406953290105" lon="7.972966963425279">
<ele>278.79999999999995</ele>
<time>2023-05-18T11:08:50Z</time>
</trkpt>
<trkpt lat="49.36841793358326" lon="7.972912983968854">
<ele>279</ele>
<time>2023-05-18T11:08:51Z</time>
</trkpt>
<trkpt lat="49.368431931361556" lon="7.972856992855668">
<ele>279.4</ele>
<time>2023-05-18T11:08:52Z</time>
</trkpt>
<trkpt lat="49.36844198964536" lon="7.972787925973535">
<ele>279.6</ele>
<time>2023-05-18T11:08:53Z</time>
</trkpt>
<trkpt lat="49.368451964110136" lon="7.972736964002252">
<ele>280</ele>
<time>2023-05-18T11:08:54Z</time>
</trkpt>
<trkpt lat="49.36845799908042" lon="7.972692959010601">
<ele>280.20000000000005</ele>
<time>2023-05-18T11:08:55Z</time>
</trkpt>
<trkpt lat="49.36846495606005" lon="7.97264794819057">
<ele>280.6</ele>
<time>2023-05-18T11:08:56Z</time>
</trkpt>
<trkpt lat="49.368471996858716" lon="7.972599919885397">
<ele>281</ele>
<time>2023-05-18T11:08:57Z</time>
</trkpt>
<trkpt lat="49.36847995966673" lon="7.972551975399256">
<ele>281.20000000000005</ele>
<time>2023-05-18T11:08:58Z</time>
</trkpt>
<trkpt lat="49.36848297715187" lon="7.972507970407605">
<ele>281.4</ele>
<time>2023-05-18T11:08:59Z</time>
</trkpt>
<trkpt lat="49.36848792247474" lon="7.972482992336154">
<ele>281.79999999999995</ele>
<time>2023-05-18T11:09:00Z</time>
</trkpt>
<trkpt lat="49.36849999241531" lon="7.972436975687742">
<ele>282</ele>
<time>2023-05-18T11:09:01Z</time>
</trkpt>
<trkpt lat="49.368517929688096" lon="7.972381990402937">
<ele>282.20000000000005</ele>
<time>2023-05-18T11:09:02Z</time>
</trkpt>
<trkpt lat="49.368536956608295" lon="7.9723249934613705">
<ele>282.4</ele>
<time>2023-05-18T11:09:03Z</time>
</trkpt>
<trkpt lat="49.368554977700114" lon="7.972267996519804">
<ele>282.6</ele>
<time>2023-05-18T11:09:04Z</time>
</trkpt>
<trkpt lat="49.368579955771565" lon="7.972224997356534">
<ele>282.79999999999995</ele>
<time>2023-05-18T11:09:05Z</time>
</trkpt>
<trkpt lat="49.368602922186255" lon="7.97219499014318">
<ele>283</ele>
<time>2023-05-18T11:09:06Z</time>
</trkpt>
<trkpt lat="49.368619937449694" lon="7.972159953787923">
<ele>283.20000000000005</ele>
<time>2023-05-18T11:09:07Z</time>
</trkpt>
<trkpt lat="49.36863795854151" lon="7.972119972109795">
<ele>283.4</ele>
<time>2023-05-18T11:09:08Z</time>
</trkpt>
<trkpt lat="49.36865296214819" lon="7.972076972946525">
<ele>283.6</ele>
<time>2023-05-18T11:09:09Z</time>
</trkpt>
<trkpt lat="49.36866796575487" lon="7.972027938812971">
<ele>283.79999999999995</ele>
<time>2023-05-18T11:09:10Z</time>
</trkpt>
<trkpt lat="49.368684981018305" lon="7.971989968791604">
<ele>284</ele>
<time>2023-05-18T11:09:11Z</time>
</trkpt>
<trkpt lat="49.36869696713984" lon="7.971947975456715">
<ele>284.20000000000005</ele>
<time>2023-05-18T11:09:12Z</time>
</trkpt>
<trkpt lat="49.368707947432995" lon="7.971906987950206">
<ele>284.4</ele>
<time>2023-05-18T11:09:13Z</time>
</trkpt>
<trkpt lat="49.36871792189777" lon="7.971856947988272">
<ele>284.6</ele>
<time>2023-05-18T11:09:14Z</time>
</trkpt>
<trkpt lat="49.36873694881797" lon="7.971814954653382">
<ele>284.79999999999995</ele>
<time>2023-05-18T11:09:15Z</time>
</trkpt>
<trkpt lat="49.36875999905169" lon="7.971781929954886">
<ele>285</ele>
<time>2023-05-18T11:09:16Z</time>
</trkpt>
<trkpt lat="49.36878497712314" lon="7.971751922741532">
<ele>285.20000000000005</ele>
<time>2023-05-18T11:09:17Z</time>
</trkpt>
<trkpt lat="49.368811966851354" lon="7.971722921356559">
<ele>285.4</ele>
<time>2023-05-18T11:09:18Z</time>
</trkpt>
<trkpt lat="49.36882998794317" lon="7.971694925799966">
<ele>285.6</ele>
<time>2023-05-18T11:09:19Z</time>
</trkpt>
<trkpt lat="49.368861922994256" lon="7.971677994355559">
<ele>285.79999999999995</ele>
<time>2023-05-18T11:09:20Z</time>
</trkpt>
<trkpt lat="49.368874998763204" lon="7.971656955778599">
<ele>286</ele>
<time>2023-05-18T11:09:21Z</time>
</trkpt>
<trkpt lat="49.36889494769275" lon="7.971637928858399">
<ele>286.20000000000005</ele>
<time>2023-05-18T11:09:22Z</time>
</trkpt>
<trkpt lat="49.368899976834655" lon="7.971614962443709">
<ele>286.4</ele>
<time>2023-05-18T11:09:23Z</time>
</trkpt>
<trkpt lat="49.368899976834655" lon="7.971571963280439">
<ele>286.4</ele>
<time>2023-05-18T11:09:24Z</time>
</trkpt>
<trkpt lat="49.36891196295619" lon="7.971547991037369">
<ele>286.6</ele>
<time>2023-05-18T11:09:25Z</time>
</trkpt>
<trkpt lat="49.368922943249345" lon="7.971524940803647">
<ele>286.79999999999995</ele>
<time>2023-05-18T11:09:26Z</time>
</trkpt>
<trkpt lat="49.36893291771412" lon="7.971492921933532">
<ele>287</ele>
<time>2023-05-18T11:09:27Z</time>
</trkpt>
<trkpt lat="49.36893995851278" lon="7.971474984660745">
<ele>287.4</ele>
<time>2023-05-18T11:09:28Z</time>
</trkpt>
<trkpt lat="49.36893694102764" lon="7.971427962183952">
<ele>287.6</ele>
<time>2023-05-18T11:09:29Z</time>
</trkpt>
<trkpt lat="49.36893794685602" lon="7.971387980505824">
<ele>287.79999999999995</ele>
<time>2023-05-18T11:09:30Z</time>
</trkpt>
<trkpt lat="49.36892998404801" lon="7.971332995221019">
<ele>288</ele>
<time>2023-05-18T11:09:31Z</time>
</trkpt>
<trkpt lat="49.368922943249345" lon="7.971277926117182">
<ele>288.20000000000005</ele>
<time>2023-05-18T11:09:32Z</time>
</trkpt>
<trkpt lat="49.36892696656287" lon="7.971234926953912">
<ele>288.6</ele>
<time>2023-05-18T11:09:33Z</time>
</trkpt>
<trkpt lat="49.36892998404801" lon="7.971177930012345">
<ele>288.79999999999995</ele>
<time>2023-05-18T11:09:34Z</time>
</trkpt>
<trkpt lat="49.36893199570477" lon="7.97112294472754">
<ele>289</ele>
<time>2023-05-18T11:09:35Z</time>
</trkpt>
<trkpt lat="49.36893794685602" lon="7.971059996634722">
<ele>289.20000000000005</ele>
<time>2023-05-18T11:09:36Z</time>
</trkpt>
<trkpt lat="49.36894699931145" lon="7.971012974157929">
<ele>289.4</ele>
<time>2023-05-18T11:09:37Z</time>
</trkpt>
<trkpt lat="49.36895194463432" lon="7.970966957509518">
<ele>289.6</ele>
<time>2023-05-18T11:09:38Z</time>
</trkpt>
<trkpt lat="49.3689579796046" lon="7.970922952517867">
<ele>289.79999999999995</ele>
<time>2023-05-18T11:09:39Z</time>
</trkpt>
<trkpt lat="49.368964936584234" lon="7.970871990546584">
<ele>290</ele>
<time>2023-05-18T11:09:40Z</time>
</trkpt>
<trkpt lat="49.368967954069376" lon="7.970822956413031">
<ele>290.20000000000005</ele>
<time>2023-05-18T11:09:41Z</time>
</trkpt>
<trkpt lat="49.368966948240995" lon="7.970782974734902">
<ele>290.4</ele>
<time>2023-05-18T11:09:42Z</time>
</trkpt>
<trkpt lat="49.36896191909909" lon="7.970731928944588">
<ele>290.6</ele>
<time>2023-05-18T11:09:43Z</time>
</trkpt>
<trkpt lat="49.36896996572614" lon="7.97066998668015">
<ele>290.79999999999995</ele>
<time>2023-05-18T11:09:44Z</time>
</trkpt>
<trkpt lat="49.368987986817956" lon="7.970602931454778">
<ele>291</ele>
<time>2023-05-18T11:09:45Z</time>
</trkpt>
<trkpt lat="49.36897692270577" lon="7.970524979755282">
<ele>291.20000000000005</ele>
<time>2023-05-18T11:09:46Z</time>
</trkpt>
<trkpt lat="49.368967954069376" lon="7.970469994470477">
<ele>291.4</ele>
<time>2023-05-18T11:09:47Z</time>
</trkpt>
<trkpt lat="49.36898195184767" lon="7.97041199170053">
<ele>291.6</ele>
<time>2023-05-18T11:09:48Z</time>
</trkpt>
<trkpt lat="49.36899192631245" lon="7.970366980880499">
<ele>291.79999999999995</ele>
<time>2023-05-18T11:09:49Z</time>
</trkpt>
<trkpt lat="49.36899192631245" lon="7.970326999202371">
<ele>292</ele>
<time>2023-05-18T11:09:50Z</time>
</trkpt>
<trkpt lat="49.36899293214083" lon="7.970266984775662">
<ele>292.20000000000005</ele>
<time>2023-05-18T11:09:51Z</time>
</trkpt>
<trkpt lat="49.36899293214083" lon="7.970211999490857">
<ele>292.4</ele>
<time>2023-05-18T11:09:52Z</time>
</trkpt>
<trkpt lat="49.36898195184767" lon="7.970151985064149">
<ele>292.6</ele>
<time>2023-05-18T11:09:53Z</time>
</trkpt>
<trkpt lat="49.36897298321128" lon="7.970106974244118">
<ele>292.79999999999995</ele>
<time>2023-05-18T11:09:54Z</time>
</trkpt>
<trkpt lat="49.368944987654686" lon="7.970084929838777">
<ele>293</ele>
<time>2023-05-18T11:09:55Z</time>
</trkpt>
<trkpt lat="49.36893199570477" lon="7.970034973695874">
<ele>293.20000000000005</ele>
<time>2023-05-18T11:09:56Z</time>
</trkpt>
<trkpt lat="49.368917997926474" lon="7.969967918470502">
<ele>293.4</ele>
<time>2023-05-18T11:09:57Z</time>
</trkpt>
<trkpt lat="49.36890995129943" lon="7.969909999519587">
<ele>293.79999999999995</ele>
<time>2023-05-18T11:09:58Z</time>
</trkpt>
<trkpt lat="49.36889494769275" lon="7.9698599595576525">
<ele>294</ele>
<time>2023-05-18T11:09:59Z</time>
</trkpt>
<trkpt lat="49.36888991855085" lon="7.969817966222763">
<ele>294.20000000000005</ele>
<time>2023-05-18T11:10:00Z</time>
</trkpt>
<trkpt lat="49.36888497322798" lon="7.969774967059493">
<ele>294.4</ele>
<time>2023-05-18T11:10:01Z</time>
</trkpt>
<trkpt lat="49.368877932429314" lon="7.969727944582701">
<ele>294.79999999999995</ele>
<time>2023-05-18T11:10:02Z</time>
</trkpt>
<trkpt lat="49.36887198127806" lon="7.969691986218095">
<ele>295</ele>
<time>2023-05-18T11:10:03Z</time>
</trkpt>
<trkpt lat="49.36886695213616" lon="7.969656949862838">
<ele>295.20000000000005</ele>
<time>2023-05-18T11:10:04Z</time>
</trkpt>
<trkpt lat="49.368857983499765" lon="7.969619985669851">
<ele>295.4</ele>
<time>2023-05-18T11:10:05Z</time>
</trkpt>
<trkpt lat="49.36885295435786" lon="7.969582937657833">
<ele>295.6</ele>
<time>2023-05-18T11:10:06Z</time>
</trkpt>
<trkpt lat="49.36884197406471" lon="7.969544967636466">
<ele>295.79999999999995</ele>
<time>2023-05-18T11:10:07Z</time>
</trkpt>
<trkpt lat="49.368831999599934" lon="7.969502974301577">
<ele>296.20000000000005</ele>
<time>2023-05-18T11:10:08Z</time>
</trkpt>
<trkpt lat="49.36881992965937" lon="7.969469949603081">
<ele>296.4</ele>
<time>2023-05-18T11:10:09Z</time>
</trkpt>
<trkpt lat="49.36880794353783" lon="7.96942493878305">
<ele>296.6</ele>
<time>2023-05-18T11:10:10Z</time>
</trkpt>
<trkpt lat="49.36880199238658" lon="7.969379927963018">
<ele>297</ele>
<time>2023-05-18T11:10:11Z</time>
</trkpt>
<trkpt lat="49.368791934102774" lon="7.969334917142987">
<ele>297.20000000000005</ele>
<time>2023-05-18T11:10:12Z</time>
</trkpt>
<trkpt lat="49.36878296546638" lon="7.969286972656846">
<ele>297.4</ele>
<time>2023-05-18T11:10:13Z</time>
</trkpt>
<trkpt lat="49.36877793632448" lon="7.969244979321957">
<ele>297.79999999999995</ele>
<time>2023-05-18T11:10:14Z</time>
</trkpt>
<trkpt lat="49.368771985173225" lon="7.9692099429667">
<ele>298</ele>
<time>2023-05-18T11:10:15Z</time>
</trkpt>
<trkpt lat="49.368771985173225" lon="7.969169961288571">
<ele>298.20000000000005</ele>
<time>2023-05-18T11:10:16Z</time>
</trkpt>
<trkpt lat="49.368771985173225" lon="7.969129979610443">
<ele>298.4</ele>
<time>2023-05-18T11:10:17Z</time>
</trkpt>
<trkpt lat="49.368769973516464" lon="7.969092931598425">
<ele>298.79999999999995</ele>
<time>2023-05-18T11:10:18Z</time>
</trkpt>
<trkpt lat="49.36876695603132" lon="7.969064936041832">
<ele>299</ele>
<time>2023-05-18T11:10:19Z</time>
</trkpt>
<trkpt lat="49.3687679618597" lon="7.969029983505607">
<ele>299.20000000000005</ele>
<time>2023-05-18T11:10:20Z</time>
</trkpt>
<trkpt lat="49.36876695603132" lon="7.968991929665208">
<ele>299.4</ele>
<time>2023-05-18T11:10:21Z</time>
</trkpt>
<trkpt lat="49.36876695603132" lon="7.968961922451854">
<ele>299.6</ele>
<time>2023-05-18T11:10:22Z</time>
</trkpt>
<trkpt lat="49.3687679618597" lon="7.968912972137332">
<ele>299.79999999999995</ele>
<time>2023-05-18T11:10:23Z</time>
</trkpt>
<trkpt lat="49.368769973516464" lon="7.968882964923978">
<ele>300</ele>
<time>2023-05-18T11:10:24Z</time>
</trkpt>
<trkpt lat="49.368769973516464" lon="7.968852957710624">
<ele>300.20000000000005</ele>
<time>2023-05-18T11:10:25Z</time>
</trkpt>
<trkpt lat="49.3687679618597" lon="7.968817921355367">
<ele>300.4</ele>
<time>2023-05-18T11:10:26Z</time>
</trkpt>
<trkpt lat="49.3687679618597" lon="7.968787997961044">
<ele>300.6</ele>
<time>2023-05-18T11:10:27Z</time>
</trkpt>
<trkpt lat="49.36876695603132" lon="7.968747932463884">
<ele>300.79999999999995</ele>
<time>2023-05-18T11:10:28Z</time>
</trkpt>
<trkpt lat="49.368774918839335" lon="7.9687119740992785">
<ele>301.20000000000005</ele>
<time>2023-05-18T11:10:29Z</time>
</trkpt>
<trkpt lat="49.36878497712314" lon="7.96867199242115">
<ele>301.4</ele>
<time>2023-05-18T11:10:30Z</time>
</trkpt>
<trkpt lat="49.368794951587915" lon="7.968624969944358">
<ele>301.6</ele>
<time>2023-05-18T11:10:31Z</time>
</trkpt>
<trkpt lat="49.36879696324468" lon="7.968576941639185">
<ele>302</ele>
<time>2023-05-18T11:10:32Z</time>
</trkpt>
<trkpt lat="49.36880199238658" lon="7.968526985496283">
<ele>302.20000000000005</ele>
<time>2023-05-18T11:10:33Z</time>
</trkpt>
<trkpt lat="49.36880794353783" lon="7.968489937484264">
<ele>302.4</ele>
<time>2023-05-18T11:10:34Z</time>
</trkpt>
<trkpt lat="49.368811966851354" lon="7.9684569966048">
<ele>302.6</ele>
<time>2023-05-18T11:10:35Z</time>
</trkpt>
<trkpt lat="49.36880794353783" lon="7.968426989391446">
<ele>303</ele>
<time>2023-05-18T11:10:36Z</time>
</trkpt>
<trkpt lat="49.36880693770945" lon="7.96839295886457">
<ele>303.20000000000005</ele>
<time>2023-05-18T11:10:37Z</time>
</trkpt>
<trkpt lat="49.36880794353783" lon="7.968364963307977">
<ele>303.4</ele>
<time>2023-05-18T11:10:38Z</time>
</trkpt>
<trkpt lat="49.36880995519459" lon="7.968316935002804">
<ele>303.6</ele>
<time>2023-05-18T11:10:39Z</time>
</trkpt>
<trkpt lat="49.36880995519459" lon="7.96828692778945">
<ele>304</ele>
<time>2023-05-18T11:10:40Z</time>
</trkpt>
<trkpt lat="49.36880794353783" lon="7.968256920576096">
<ele>304.20000000000005</ele>
<time>2023-05-18T11:10:41Z</time>
</trkpt>
<trkpt lat="49.36880995519459" lon="7.968229930847883">
<ele>304.6</ele>
<time>2023-05-18T11:10:42Z</time>
</trkpt>
<trkpt lat="49.36880794353783" lon="7.968182992190123">
<ele>304.79999999999995</ele>
<time>2023-05-18T11:10:43Z</time>
</trkpt>
<trkpt lat="49.36880299821496" lon="7.968146950006485">
<ele>305</ele>
<time>2023-05-18T11:10:44Z</time>
</trkpt>
<trkpt lat="49.36880199238658" lon="7.9681099858134985">
<ele>305.4</ele>
<time>2023-05-18T11:10:45Z</time>
</trkpt>
<trkpt lat="49.36880492605269" lon="7.968067992478609">
<ele>305.6</ele>
<time>2023-05-18T11:10:46Z</time>
</trkpt>
<trkpt lat="49.36880995519459" lon="7.9680269211530685">
<ele>305.79999999999995</ele>
<time>2023-05-18T11:10:47Z</time>
</trkpt>
<trkpt lat="49.36880995519459" lon="7.967977970838547">
<ele>306.20000000000005</ele>
<time>2023-05-18T11:10:48Z</time>
</trkpt>
<trkpt lat="49.368811966851354" lon="7.967934971675277">
<ele>306.4</ele>
<time>2023-05-18T11:10:49Z</time>
</trkpt>
<trkpt lat="49.368817918002605" lon="7.9678829200565815">
<ele>306.79999999999995</ele>
<time>2023-05-18T11:10:50Z</time>
</trkpt>
<trkpt lat="49.36882294714451" lon="7.9678399208933115">
<ele>307</ele>
<time>2023-05-18T11:10:51Z</time>
</trkpt>
<trkpt lat="49.36882194131613" lon="7.9677969217300415">
<ele>307.20000000000005</ele>
<time>2023-05-18T11:10:52Z</time>
</trkpt>
<trkpt lat="49.36882294714451" lon="7.967754928395152">
<ele>307.6</ele>
<time>2023-05-18T11:10:53Z</time>
</trkpt>
<trkpt lat="49.36883292160928" lon="7.967709917575121">
<ele>307.79999999999995</ele>
<time>2023-05-18T11:10:54Z</time>
</trkpt>
<trkpt lat="49.36884197406471" lon="7.967676976695657">
<ele>308</ele>
<time>2023-05-18T11:10:55Z</time>
</trkpt>
<trkpt lat="49.36884297989309" lon="7.9676449578255415">
<ele>308.4</ele>
<time>2023-05-18T11:10:56Z</time>
</trkpt>
<trkpt lat="49.368854966014624" lon="7.967591984197497">
<ele>308.6</ele>
<time>2023-05-18T11:10:57Z</time>
</trkpt>
<trkpt lat="49.36886292882264" lon="7.967537920922041">
<ele>309</ele>
<time>2023-05-18T11:10:58Z</time>
</trkpt>
<trkpt lat="49.368874998763204" lon="7.967487964779139">
<ele>309.20000000000005</ele>
<time>2023-05-18T11:10:59Z</time>
</trkpt>
<trkpt lat="49.36887692660093" lon="7.967444965615869">
<ele>309.4</ele>
<time>2023-05-18T11:11:00Z</time>
</trkpt>
<trkpt lat="49.368881955742836" lon="7.96740791760385">
<ele>309.79999999999995</ele>
<time>2023-05-18T11:11:01Z</time>
</trkpt>
<trkpt lat="49.36888698488474" lon="7.9673669300973415">
<ele>310</ele>
<time>2023-05-18T11:11:02Z</time>
</trkpt>
<trkpt lat="49.36888698488474" lon="7.967327954247594">
<ele>310.20000000000005</ele>
<time>2023-05-18T11:11:03Z</time>
</trkpt>
<trkpt lat="49.36888497322798" lon="7.967287972569466">
<ele>310.4</ele>
<time>2023-05-18T11:11:04Z</time>
</trkpt>
<trkpt lat="49.36888296157122" lon="7.96725494787097">
<ele>310.6</ele>
<time>2023-05-18T11:11:05Z</time>
</trkpt>
<trkpt lat="49.36888991855085" lon="7.967221923172474">
<ele>311</ele>
<time>2023-05-18T11:11:06Z</time>
</trkpt>
<trkpt lat="49.36888799071312" lon="7.967187976464629">
<ele>311.20000000000005</ele>
<time>2023-05-18T11:11:07Z</time>
</trkpt>
<trkpt lat="49.36888698488474" lon="7.96714698895812">
<ele>311.4</ele>
<time>2023-05-18T11:11:08Z</time>
</trkpt>
<trkpt lat="49.36888698488474" lon="7.967109940946102">
<ele>311.6</ele>
<time>2023-05-18T11:11:09Z</time>
</trkpt>
<trkpt lat="49.36888497322798" lon="7.967072976753116">
<ele>311.79999999999995</ele>
<time>2023-05-18T11:11:10Z</time>
</trkpt>
<trkpt lat="49.36888698488474" lon="7.967031989246607">
<ele>312</ele>
<time>2023-05-18T11:11:11Z</time>
</trkpt>
<trkpt lat="49.36888698488474" lon="7.96699695289135">
<ele>312.4</ele>
<time>2023-05-18T11:11:12Z</time>
</trkpt>
<trkpt lat="49.36888497322798" lon="7.966967951506376">
<ele>312.6</ele>
<time>2023-05-18T11:11:13Z</time>
</trkpt>
<trkpt lat="49.368881955742836" lon="7.9669419676065445">
<ele>312.79999999999995</ele>
<time>2023-05-18T11:11:14Z</time>
</trkpt>
<trkpt lat="49.36888698488474" lon="7.966901985928416">
<ele>313</ele>
<time>2023-05-18T11:11:15Z</time>
</trkpt>
<trkpt lat="49.36888991855085" lon="7.966862926259637">
<ele>313.20000000000005</ele>
<time>2023-05-18T11:11:16Z</time>
</trkpt>
<trkpt lat="49.36889293603599" lon="7.966826967895031">
<ele>313.4</ele>
<time>2023-05-18T11:11:17Z</time>
</trkpt>
<trkpt lat="49.36889193020761" lon="7.96680492348969">
<ele>313.6</ele>
<time>2023-05-18T11:11:18Z</time>
</trkpt>
<trkpt lat="49.36889494769275" lon="7.966774916276336">
<ele>313.79999999999995</ele>
<time>2023-05-18T11:11:19Z</time>
</trkpt>
<trkpt lat="49.36889494769275" lon="7.966741975396872">
<ele>314</ele>
<time>2023-05-18T11:11:20Z</time>
</trkpt>
<trkpt lat="49.36889193020761" lon="7.966701993718743">
<ele>314.20000000000005</ele>
<time>2023-05-18T11:11:21Z</time>
</trkpt>
<trkpt lat="49.36889293603599" lon="7.966647930443287">
<ele>314.4</ele>
<time>2023-05-18T11:11:22Z</time>
</trkpt>
<trkpt lat="49.36888799071312" lon="7.966599985957146">
<ele>314.6</ele>
<time>2023-05-18T11:11:23Z</time>
</trkpt>
<trkpt lat="49.36888799071312" lon="7.96654793433845">
<ele>315</ele>
<time>2023-05-18T11:11:24Z</time>
</trkpt>
<trkpt lat="49.36888296157122" lon="7.966502923518419">
<ele>315.20000000000005</ele>
<time>2023-05-18T11:11:25Z</time>
</trkpt>
<trkpt lat="49.368881955742836" lon="7.966452967375517">
<ele>315.4</ele>
<time>2023-05-18T11:11:26Z</time>
</trkpt>
<trkpt lat="49.368874998763204" lon="7.966404939070344">
<ele>315.6</ele>
<time>2023-05-18T11:11:27Z</time>
</trkpt>
<trkpt lat="49.36886695213616" lon="7.966359928250313">
<ele>316</ele>
<time>2023-05-18T11:11:28Z</time>
</trkpt>
<trkpt lat="49.36885999515653" lon="7.966314917430282">
<ele>316.20000000000005</ele>
<time>2023-05-18T11:11:29Z</time>
</trkpt>
<trkpt lat="49.36884792521596" lon="7.966272924095392">
<ele>316.4</ele>
<time>2023-05-18T11:11:30Z</time>
</trkpt>
<trkpt lat="49.36883292160928" lon="7.966236965730786">
<ele>316.79999999999995</ele>
<time>2023-05-18T11:11:31Z</time>
</trkpt>
<trkpt lat="49.36882495880127" lon="7.966196984052658">
<ele>317</ele>
<time>2023-05-18T11:11:32Z</time>
</trkpt>
<trkpt lat="49.368814984336495" lon="7.966157924383879">
<ele>317.4</ele>
<time>2023-05-18T11:11:33Z</time>
</trkpt>
<trkpt lat="49.36880995519459" lon="7.966127917170525">
<ele>317.6</ele>
<time>2023-05-18T11:11:34Z</time>
</trkpt>
<trkpt lat="49.36879998072982" lon="7.966096987947822">
<ele>317.79999999999995</ele>
<time>2023-05-18T11:11:35Z</time>
</trkpt>
<trkpt lat="49.36878497712314" lon="7.966059939935803">
<ele>318.20000000000005</ele>
<time>2023-05-18T11:11:36Z</time>
</trkpt>
<trkpt lat="49.368774918839335" lon="7.966026999056339">
<ele>318.4</ele>
<time>2023-05-18T11:11:37Z</time>
</trkpt>
<trkpt lat="49.36876695603132" lon="7.965992968529463">
<ele>318.6</ele>
<time>2023-05-18T11:11:38Z</time>
</trkpt>
<trkpt lat="49.3687629327178" lon="7.965951981022954">
<ele>318.79999999999995</ele>
<time>2023-05-18T11:11:39Z</time>
</trkpt>
<trkpt lat="49.36875798739493" lon="7.965907976031303">
<ele>319.20000000000005</ele>
<time>2023-05-18T11:11:40Z</time>
</trkpt>
<trkpt lat="49.368752958253026" lon="7.965876962989569">
<ele>319.4</ele>
<time>2023-05-18T11:11:41Z</time>
</trkpt>
<trkpt lat="49.36873996630311" lon="7.965832957997918">
<ele>319.6</ele>
<time>2023-05-18T11:11:42Z</time>
</trkpt>
<trkpt lat="49.36872496269643" lon="7.965799933299422">
<ele>319.79999999999995</ele>
<time>2023-05-18T11:11:43Z</time>
</trkpt>
<trkpt lat="49.36871197074652" lon="7.965767998248339">
<ele>320.20000000000005</ele>
<time>2023-05-18T11:11:44Z</time>
</trkpt>
<trkpt lat="49.36869294382632" lon="7.965732961893082">
<ele>320.4</ele>
<time>2023-05-18T11:11:45Z</time>
</trkpt>
<trkpt lat="49.36867198906839" lon="7.9657029546797276">
<ele>320.6</ele>
<time>2023-05-18T11:11:46Z</time>
</trkpt>
<trkpt lat="49.36865698546171" lon="7.965676970779896">
<ele>321</ele>
<time>2023-05-18T11:11:47Z</time>
</trkpt>
<trkpt lat="49.368641981855035" lon="7.965647969394922">
<ele>321.20000000000005</ele>
<time>2023-05-18T11:11:48Z</time>
</trkpt>
<trkpt lat="49.3686299957335" lon="7.965622991323471">
<ele>321.6</ele>
<time>2023-05-18T11:11:49Z</time>
</trkpt>
<trkpt lat="49.36861691996455" lon="7.965599941089749">
<ele>321.79999999999995</ele>
<time>2023-05-18T11:11:50Z</time>
</trkpt>
<trkpt lat="49.36860493384302" lon="7.965567922219634">
<ele>322.20000000000005</ele>
<time>2023-05-18T11:11:51Z</time>
</trkpt>
<trkpt lat="49.36859495937824" lon="7.965531963855028">
<ele>322.4</ele>
<time>2023-05-18T11:11:52Z</time>
</trkpt>
<trkpt lat="49.36858498491347" lon="7.965496927499771">
<ele>322.79999999999995</ele>
<time>2023-05-18T11:11:53Z</time>
</trkpt>
<trkpt lat="49.368579955771565" lon="7.9654649924486876">
<ele>323</ele>
<time>2023-05-18T11:11:54Z</time>
</trkpt>
<trkpt lat="49.36856696382165" lon="7.965439930558205">
<ele>323.20000000000005</ele>
<time>2023-05-18T11:11:55Z</time>
</trkpt>
<trkpt lat="49.36855196021497" lon="7.965407995507121">
<ele>323.6</ele>
<time>2023-05-18T11:11:56Z</time>
</trkpt>
<trkpt lat="49.36853997409344" lon="7.9653869569301605">
<ele>323.79999999999995</ele>
<time>2023-05-18T11:11:57Z</time>
</trkpt>
<trkpt lat="49.36852497048676" lon="7.965354938060045">
<ele>324.20000000000005</ele>
<time>2023-05-18T11:11:58Z</time>
</trkpt>
<trkpt lat="49.368512984365225" lon="7.965321997180581">
<ele>324.4</ele>
<time>2023-05-18T11:11:59Z</time>
</trkpt>
<trkpt lat="49.36850292608142" lon="7.9652779921889305">
<ele>324.79999999999995</ele>
<time>2023-05-18T11:12:00Z</time>
</trkpt>
<trkpt lat="49.3684899341315" lon="7.965239938348532">
<ele>325</ele>
<time>2023-05-18T11:12:01Z</time>
</trkpt>
<trkpt lat="49.36847694218159" lon="7.965209931135178">
<ele>325.4</ele>
<time>2023-05-18T11:12:02Z</time>
</trkpt>
<trkpt lat="49.36846696771681" lon="7.965187970548868">
<ele>325.6</ele>
<time>2023-05-18T11:12:03Z</time>
</trkpt>
<trkpt lat="49.36845799908042" lon="7.965166931971908">
<ele>325.79999999999995</ele>
<time>2023-05-18T11:12:04Z</time>
</trkpt>
<trkpt lat="49.36844693496823" lon="7.965142959728837">
<ele>326.20000000000005</ele>
<time>2023-05-18T11:12:05Z</time>
</trkpt>
<trkpt lat="49.368427991867065" lon="7.965116975829005">
<ele>326.4</ele>
<time>2023-05-18T11:12:06Z</time>
</trkpt>
<trkpt lat="49.368404941633344" lon="7.965092919766903">
<ele>326.6</ele>
<time>2023-05-18T11:12:07Z</time>
</trkpt>
<trkpt lat="49.36838993802667" lon="7.965071965008974">
<ele>327</ele>
<time>2023-05-18T11:12:08Z</time>
</trkpt>
<trkpt lat="49.36837493441999" lon="7.9650479927659035">
<ele>327.20000000000005</ele>
<time>2023-05-18T11:12:09Z</time>
</trkpt>
<trkpt lat="49.36835993081331" lon="7.965029971674085">
<ele>327.4</ele>
<time>2023-05-18T11:12:10Z</time>
</trkpt>
<trkpt lat="49.368342999368906" lon="7.965011950582266">
<ele>327.79999999999995</ele>
<time>2023-05-18T11:12:11Z</time>
</trkpt>
<trkpt lat="49.368321960791945" lon="7.964981943368912">
<ele>328</ele>
<time>2023-05-18T11:12:12Z</time>
</trkpt>
<trkpt lat="49.36830695718527" lon="7.964951936155558">
<ele>328.20000000000005</ele>
<time>2023-05-18T11:12:13Z</time>
</trkpt>
<trkpt lat="49.368296982720494" lon="7.964919917285442">
<ele>328.4</ele>
<time>2023-05-18T11:12:14Z</time>
</trkpt>
<trkpt lat="49.3682829849422" lon="7.964886976405978">
<ele>328.79999999999995</ele>
<time>2023-05-18T11:12:15Z</time>
</trkpt>
<trkpt lat="49.36826798133552" lon="7.964857975021005">
<ele>329</ele>
<time>2023-05-18T11:12:16Z</time>
</trkpt>
<trkpt lat="49.368256917223334" lon="7.964821932837367">
<ele>329.20000000000005</ele>
<time>2023-05-18T11:12:17Z</time>
</trkpt>
<trkpt lat="49.368236968293786" lon="7.964781951159239">
<ele>329.4</ele>
<time>2023-05-18T11:12:18Z</time>
</trkpt>
<trkpt lat="49.36822699382901" lon="7.964736940339208">
<ele>329.79999999999995</ele>
<time>2023-05-18T11:12:19Z</time>
</trkpt>
<trkpt lat="49.36821995303035" lon="7.964704921469092">
<ele>330</ele>
<time>2023-05-18T11:12:20Z</time>
</trkpt>
<trkpt lat="49.368212996050715" lon="7.964671980589628">
<ele>330.20000000000005</ele>
<time>2023-05-18T11:12:21Z</time>
</trkpt>
<trkpt lat="49.36820494942367" lon="7.964637950062752">
<ele>330.6</ele>
<time>2023-05-18T11:12:22Z</time>
</trkpt>
<trkpt lat="49.36819799244404" lon="7.964609954506159">
<ele>330.79999999999995</ele>
<time>2023-05-18T11:12:23Z</time>
</trkpt>
<trkpt lat="49.36818198300898" lon="7.9645829647779465">
<ele>331</ele>
<time>2023-05-18T11:12:24Z</time>
</trkpt>
<trkpt lat="49.368172930553555" lon="7.964551951736212">
<ele>331.20000000000005</ele>
<time>2023-05-18T11:12:25Z</time>
</trkpt>
<trkpt lat="49.36815499328077" lon="7.964524962007999">
<ele>331.6</ele>
<time>2023-05-18T11:12:26Z</time>
</trkpt>
<trkpt lat="49.36813998967409" lon="7.964487997815013">
<ele>331.79999999999995</ele>
<time>2023-05-18T11:12:27Z</time>
</trkpt>
<trkpt lat="49.368129931390285" lon="7.964447932317853">
<ele>332</ele>
<time>2023-05-18T11:12:28Z</time>
</trkpt>
<trkpt lat="49.36811299994588" lon="7.964407950639725">
<ele>332.4</ele>
<time>2023-05-18T11:12:29Z</time>
</trkpt>
<trkpt lat="49.36809699051082" lon="7.964372998103499">
<ele>332.6</ele>
<time>2023-05-18T11:12:30Z</time>
</trkpt>
<trkpt lat="49.36807997524738" lon="7.964334944263101">
<ele>332.79999999999995</ele>
<time>2023-05-18T11:12:31Z</time>
</trkpt>
<trkpt lat="49.3680599424988" lon="7.9642899334430695">
<ele>333</ele>
<time>2023-05-18T11:12:32Z</time>
</trkpt>
<trkpt lat="49.368039993569255" lon="7.964249951764941">
<ele>333.4</ele>
<time>2023-05-18T11:12:33Z</time>
</trkpt>
<trkpt lat="49.368017949163914" lon="7.964221956208348">
<ele>333.6</ele>
<time>2023-05-18T11:12:34Z</time>
</trkpt>
<trkpt lat="49.367994982749224" lon="7.964189937338233">
<ele>333.79999999999995</ele>
<time>2023-05-18T11:12:35Z</time>
</trkpt>
<trkpt lat="49.367974950000644" lon="7.96416194178164">
<ele>334</ele>
<time>2023-05-18T11:12:36Z</time>
</trkpt>
<trkpt lat="49.367954917252064" lon="7.964136963710189">
<ele>334.4</ele>
<time>2023-05-18T11:12:37Z</time>
</trkpt>
<trkpt lat="49.36794192530215" lon="7.964107962325215">
<ele>334.6</ele>
<time>2023-05-18T11:12:38Z</time>
</trkpt>
<trkpt lat="49.36792792752385" lon="7.964086923748255">
<ele>334.79999999999995</ele>
<time>2023-05-18T11:12:39Z</time>
</trkpt>
<trkpt lat="49.367909990251064" lon="7.964042918756604">
<ele>335.20000000000005</ele>
<time>2023-05-18T11:12:40Z</time>
</trkpt>
<trkpt lat="49.36789993196726" lon="7.964012995362282">
<ele>335.4</ele>
<time>2023-05-18T11:12:41Z</time>
</trkpt>
<trkpt lat="49.367891969159245" lon="7.963981982320547">
<ele>335.6</ele>
<time>2023-05-18T11:12:42Z</time>
</trkpt>
<trkpt lat="49.367871936410666" lon="7.963941916823387">
<ele>335.79999999999995</ele>
<time>2023-05-18T11:12:43Z</time>
</trkpt>
<trkpt lat="49.367849975824356" lon="7.963896989822388">
<ele>336.20000000000005</ele>
<time>2023-05-18T11:12:44Z</time>
</trkpt>
<trkpt lat="49.36783991754055" lon="7.963867988437414">
<ele>336.4</ele>
<time>2023-05-18T11:12:45Z</time>
</trkpt>
<trkpt lat="49.367827931419015" lon="7.963839992880821">
<ele>336.6</ele>
<time>2023-05-18T11:12:46Z</time>
</trkpt>
<trkpt lat="49.36780999414623" lon="7.963801939040422">
<ele>337</ele>
<time>2023-05-18T11:12:47Z</time>
</trkpt>
<trkpt lat="49.36779792420566" lon="7.963766986504197">
<ele>337.20000000000005</ele>
<time>2023-05-18T11:12:48Z</time>
</trkpt>
<trkpt lat="49.367784932255745" lon="7.963724993169308">
<ele>337.6</ele>
<time>2023-05-18T11:12:49Z</time>
</trkpt>
<trkpt lat="49.36777696944773" lon="7.963684927672148">
<ele>337.79999999999995</ele>
<time>2023-05-18T11:12:50Z</time>
</trkpt>
<trkpt lat="49.36777294613421" lon="7.963659949600697">
<ele>338</ele>
<time>2023-05-18T11:12:51Z</time>
</trkpt>
<trkpt lat="49.36776791699231" lon="7.963634971529245">
<ele>338.4</ele>
<time>2023-05-18T11:12:52Z</time>
</trkpt>
<trkpt lat="49.36775693669915" lon="7.963597923517227">
<ele>338.6</ele>
<time>2023-05-18T11:12:53Z</time>
</trkpt>
<trkpt lat="49.36774495057762" lon="7.963557941839099">
<ele>338.79999999999995</ele>
<time>2023-05-18T11:12:54Z</time>
</trkpt>
<trkpt lat="49.36773296445608" lon="7.963522989302874">
<ele>339</ele>
<time>2023-05-18T11:12:55Z</time>
</trkpt>
<trkpt lat="49.367716955021024" lon="7.963484935462475">
<ele>339.4</ele>
<time>2023-05-18T11:12:56Z</time>
</trkpt>
<trkpt lat="49.36770798638463" lon="7.9634529165923595">
<ele>339.6</ele>
<time>2023-05-18T11:12:57Z</time>
</trkpt>
<trkpt lat="49.367696922272444" lon="7.963422993198037">
<ele>339.79999999999995</ele>
<time>2023-05-18T11:12:58Z</time>
</trkpt>
<trkpt lat="49.36768191866577" lon="7.96338795684278">
<ele>340</ele>
<time>2023-05-18T11:12:59Z</time>
</trkpt>
<trkpt lat="49.36766699887812" lon="7.963352920487523">
<ele>340.20000000000005</ele>
<time>2023-05-18T11:13:00Z</time>
</trkpt>
<trkpt lat="49.367656940594316" lon="7.963322997093201">
<ele>340.6</ele>
<time>2023-05-18T11:13:01Z</time>
</trkpt>
<trkpt lat="49.36765291728079" lon="7.963291984051466">
<ele>340.79999999999995</ele>
<time>2023-05-18T11:13:02Z</time>
</trkpt>
<trkpt lat="49.36764696612954" lon="7.963254936039448">
<ele>341</ele>
<time>2023-05-18T11:13:03Z</time>
</trkpt>
<trkpt lat="49.367632968351245" lon="7.9632229171693325">
<ele>341.4</ele>
<time>2023-05-18T11:13:04Z</time>
</trkpt>
<trkpt lat="49.36762198805809" lon="7.9631919879466295">
<ele>341.6</ele>
<time>2023-05-18T11:13:05Z</time>
</trkpt>
<trkpt lat="49.367607990279794" lon="7.963161980733275">
<ele>341.79999999999995</ele>
<time>2023-05-18T11:13:06Z</time>
</trkpt>
<trkpt lat="49.367591980844736" lon="7.963127950206399">
<ele>342</ele>
<time>2023-05-18T11:13:07Z</time>
</trkpt>
<trkpt lat="49.3675799947232" lon="7.963091991841793">
<ele>342.4</ele>
<time>2023-05-18T11:13:08Z</time>
</trkpt>
<trkpt lat="49.36757295392454" lon="7.9630479868501425">
<ele>342.6</ele>
<time>2023-05-18T11:13:09Z</time>
</trkpt>
<trkpt lat="49.36755996197462" lon="7.963001970201731">
<ele>343</ele>
<time>2023-05-18T11:13:10Z</time>
</trkpt>
<trkpt lat="49.367546970024705" lon="7.962954947724938">
<ele>343.20000000000005</ele>
<time>2023-05-18T11:13:11Z</time>
</trkpt>
<trkpt lat="49.36753699555993" lon="7.96291496604681">
<ele>343.4</ele>
<time>2023-05-18T11:13:12Z</time>
</trkpt>
<trkpt lat="49.367527943104506" lon="7.962872972711921">
<ele>343.6</ele>
<time>2023-05-18T11:13:13Z</time>
</trkpt>
<trkpt lat="49.36751495115459" lon="7.962836930528283">
<ele>344</ele>
<time>2023-05-18T11:13:14Z</time>
</trkpt>
<trkpt lat="49.36749491840601" lon="7.96278496272862">
<ele>344.20000000000005</ele>
<time>2023-05-18T11:13:15Z</time>
</trkpt>
<trkpt lat="49.367479998618364" lon="7.962739951908588">
<ele>344.4</ele>
<time>2023-05-18T11:13:16Z</time>
</trkpt>
<trkpt lat="49.36746994033456" lon="7.962701981887221">
<ele>344.6</ele>
<time>2023-05-18T11:13:17Z</time>
</trkpt>
<trkpt lat="49.36745694838464" lon="7.962659988552332">
<ele>345</ele>
<time>2023-05-18T11:13:18Z</time>
</trkpt>
<trkpt lat="49.367442950606346" lon="7.962614977732301">
<ele>345.20000000000005</ele>
<time>2023-05-18T11:13:19Z</time>
</trkpt>
<trkpt lat="49.36742794699967" lon="7.962571978569031">
<ele>345.4</ele>
<time>2023-05-18T11:13:20Z</time>
</trkpt>
<trkpt lat="49.367416966706514" lon="7.962529985234141">
<ele>345.6</ele>
<time>2023-05-18T11:13:21Z</time>
</trkpt>
<trkpt lat="49.36740699224174" lon="7.962482962757349">
<ele>345.79999999999995</ele>
<time>2023-05-18T11:13:22Z</time>
</trkpt>
<trkpt lat="49.367396933957934" lon="7.962437951937318">
<ele>346</ele>
<time>2023-05-18T11:13:23Z</time>
</trkpt>
<trkpt lat="49.3673849478364" lon="7.962394952774048">
<ele>346</ele>
<time>2023-05-18T11:13:24Z</time>
</trkpt>
<trkpt lat="49.36737195588648" lon="7.962351953610778">
<ele>346.20000000000005</ele>
<time>2023-05-18T11:13:25Z</time>
</trkpt>
<trkpt lat="49.36735996976495" lon="7.962307948619127">
<ele>346.4</ele>
<time>2023-05-18T11:13:26Z</time>
</trkpt>
<trkpt lat="49.367349995300174" lon="7.962272996082902">
<ele>346.6</ele>
<time>2023-05-18T11:13:27Z</time>
</trkpt>
<trkpt lat="49.36734194867313" lon="7.962232930585742">
<ele>346.79999999999995</ele>
<time>2023-05-18T11:13:28Z</time>
</trkpt>
<trkpt lat="49.36732694506645" lon="7.962186997756362">
<ele>347.20000000000005</ele>
<time>2023-05-18T11:13:29Z</time>
</trkpt>
<trkpt lat="49.367311941459775" lon="7.962142992764711">
<ele>347.4</ele>
<time>2023-05-18T11:13:30Z</time>
</trkpt>
<trkpt lat="49.36729794368148" lon="7.962102927267551">
<ele>347.6</ele>
<time>2023-05-18T11:13:31Z</time>
</trkpt>
<trkpt lat="49.3672829400748" lon="7.962062945589423">
<ele>347.6</ele>
<time>2023-05-18T11:13:32Z</time>
</trkpt>
<trkpt lat="49.367267936468124" lon="7.962019946426153">
<ele>347.79999999999995</ele>
<time>2023-05-18T11:13:33Z</time>
</trkpt>
<trkpt lat="49.36725695617497" lon="7.961977953091264">
<ele>348</ele>
<time>2023-05-18T11:13:34Z</time>
</trkpt>
<trkpt lat="49.36724295839667" lon="7.961934953927994">
<ele>348.20000000000005</ele>
<time>2023-05-18T11:13:35Z</time>
</trkpt>
<trkpt lat="49.3672329839319" lon="7.961891954764724">
<ele>348.4</ele>
<time>2023-05-18T11:13:36Z</time>
</trkpt>
<trkpt lat="49.36721999198198" lon="7.9618519730865955">
<ele>348.4</ele>
<time>2023-05-18T11:13:37Z</time>
</trkpt>
<trkpt lat="49.367207922041416" lon="7.961812997236848">
<ele>348.6</ele>
<time>2023-05-18T11:13:38Z</time>
</trkpt>
<trkpt lat="49.3671949300915" lon="7.96177695505321">
<ele>348.6</ele>
<time>2023-05-18T11:13:39Z</time>
</trkpt>
<trkpt lat="49.36717992648482" lon="7.961741918697953">
<ele>348.6</ele>
<time>2023-05-18T11:13:40Z</time>
</trkpt>
<trkpt lat="49.36716299504042" lon="7.961714928969741">
<ele>348.6</ele>
<time>2023-05-18T11:13:41Z</time>
</trkpt>
<trkpt lat="49.36715193092823" lon="7.961686933413148">
<ele>348.79999999999995</ele>
<time>2023-05-18T11:13:42Z</time>
</trkpt>
<trkpt lat="49.36714296229184" lon="7.961662961170077">
<ele>348.79999999999995</ele>
<time>2023-05-18T11:13:43Z</time>
</trkpt>
<trkpt lat="49.367134999483824" lon="7.961637983098626">
<ele>348.79999999999995</ele>
<time>2023-05-18T11:13:44Z</time>
</trkpt>
<trkpt lat="49.36712795868516" lon="7.961614932864904">
<ele>348.79999999999995</ele>
<time>2023-05-18T11:13:45Z</time>
</trkpt>
<trkpt lat="49.367117984220386" lon="7.961577968671918">
<ele>348.79999999999995</ele>
<time>2023-05-18T11:13:46Z</time>
</trkpt>
<trkpt lat="49.3671119492501" lon="7.96154192648828">
<ele>348.79999999999995</ele>
<time>2023-05-18T11:13:47Z</time>
</trkpt>
<trkpt lat="49.3671069201082" lon="7.96149498783052">
<ele>348.79999999999995</ele>
<time>2023-05-18T11:13:48Z</time>
</trkpt>
<trkpt lat="49.367097951471806" lon="7.961444947868586">
<ele>348.79999999999995</ele>
<time>2023-05-18T11:13:49Z</time>
</trkpt>
<trkpt lat="49.36708495952189" lon="7.96138996258378">
<ele>348.6</ele>
<time>2023-05-18T11:13:50Z</time>
</trkpt>
<trkpt lat="49.36706995591521" lon="7.961332965642214">
<ele>348.6</ele>
<time>2023-05-18T11:13:51Z</time>
</trkpt>
<trkpt lat="49.367052940651774" lon="7.961269933730364">
<ele>348.6</ele>
<time>2023-05-18T11:13:52Z</time>
</trkpt>
<trkpt lat="49.367029974237084" lon="7.961202962324023">
<ele>348.4</ele>
<time>2023-05-18T11:13:53Z</time>
</trkpt>
<trkpt lat="49.36700499616563" lon="7.96113196760416">
<ele>348.4</ele>
<time>2023-05-18T11:13:54Z</time>
</trkpt>
<trkpt lat="49.36698194593191" lon="7.961056949570775">
<ele>348.20000000000005</ele>
<time>2023-05-18T11:13:55Z</time>
</trkpt>
<trkpt lat="49.36695294454694" lon="7.960972962900996">
<ele>347.79999999999995</ele>
<time>2023-05-18T11:13:56Z</time>
</trkpt>
<trkpt lat="49.366922937333584" lon="7.960886964574456">
<ele>347.6</ele>
<time>2023-05-18T11:13:57Z</time>
</trkpt>
<trkpt lat="49.36689293012023" lon="7.960799960419536">
<ele>347.4</ele>
<time>2023-05-18T11:13:58Z</time>
</trkpt>
<trkpt lat="49.366859989240766" lon="7.960707927122712">
<ele>347</ele>
<time>2023-05-18T11:13:59Z</time>
</trkpt>
<trkpt lat="49.366819923743606" lon="7.96061497181654">
<ele>346.6</ele>
<time>2023-05-18T11:14:00Z</time>
</trkpt>
<trkpt lat="49.36678295955062" lon="7.960527967661619">
<ele>346.20000000000005</ele>
<time>2023-05-18T11:14:01Z</time>
</trkpt>
<trkpt lat="49.36674993485212" lon="7.960449932143092">
<ele>345.79999999999995</ele>
<time>2023-05-18T11:14:02Z</time>
</trkpt>
<trkpt lat="49.36671699397266" lon="7.960374997928739">
<ele>345.4</ele>
<time>2023-05-18T11:14:03Z</time>
</trkpt>
<trkpt lat="49.366687992587686" lon="7.960302997380495">
<ele>345.20000000000005</ele>
<time>2023-05-18T11:14:04Z</time>
</trkpt>
<trkpt lat="49.36666192486882" lon="7.960232924669981">
<ele>344.79999999999995</ele>
<time>2023-05-18T11:14:05Z</time>
</trkpt>
<trkpt lat="49.36663493514061" lon="7.960157990455627">
<ele>344.4</ele>
<time>2023-05-18T11:14:06Z</time>
</trkpt>
<trkpt lat="49.36660995706916" lon="7.960077943280339">
<ele>344</ele>
<time>2023-05-18T11:14:07Z</time>
</trkpt>
<trkpt lat="49.36658699065447" lon="7.959996974095702">
<ele>343.6</ele>
<time>2023-05-18T11:14:08Z</time>
</trkpt>
<trkpt lat="49.366562934592366" lon="7.959909969940782">
<ele>343</ele>
<time>2023-05-18T11:14:09Z</time>
</trkpt>
<trkpt lat="49.366536950692534" lon="7.959812991321087">
<ele>342.6</ele>
<time>2023-05-18T11:14:10Z</time>
</trkpt>
<trkpt lat="49.36650794930756" lon="7.959716934710741">
<ele>342.20000000000005</ele>
<time>2023-05-18T11:14:11Z</time>
</trkpt>
<trkpt lat="49.36648196540773" lon="7.959616938605905">
<ele>341.79999999999995</ele>
<time>2023-05-18T11:14:12Z</time>
</trkpt>
<trkpt lat="49.36646193265915" lon="7.959517948329449">
<ele>341.20000000000005</ele>
<time>2023-05-18T11:14:13Z</time>
</trkpt>
<trkpt lat="49.36644793488085" lon="7.959416946396232">
<ele>340.79999999999995</ele>
<time>2023-05-18T11:14:14Z</time>
</trkpt>
<trkpt lat="49.36643997207284" lon="7.959307981655002">
<ele>340.4</ele>
<time>2023-05-18T11:14:15Z</time>
</trkpt>
<trkpt lat="49.366432931274176" lon="7.9591999389231205">
<ele>340</ele>
<time>2023-05-18T11:14:16Z</time>
</trkpt>
<trkpt lat="49.366431925445795" lon="7.959087956696749">
<ele>339.4</ele>
<time>2023-05-18T11:14:17Z</time>
</trkpt>
<trkpt lat="49.36643494293094" lon="7.958974968641996">
<ele>339</ele>
<time>2023-05-18T11:14:18Z</time>
</trkpt>
<trkpt lat="49.36644298955798" lon="7.958869943395257">
<ele>338.6</ele>
<time>2023-05-18T11:14:19Z</time>
</trkpt>
<trkpt lat="49.36645497567952" lon="7.958764918148518">
<ele>338.20000000000005</ele>
<time>2023-05-18T11:14:20Z</time>
</trkpt>
<trkpt lat="49.366471990942955" lon="7.958661988377571">
<ele>337.6</ele>
<time>2023-05-18T11:14:21Z</time>
</trkpt>
<trkpt lat="49.3664919398725" lon="7.9585599806159735">
<ele>337.20000000000005</ele>
<time>2023-05-18T11:14:22Z</time>
</trkpt>
<trkpt lat="49.366516917943954" lon="7.958457972854376">
<ele>336.79999999999995</ele>
<time>2023-05-18T11:14:23Z</time>
</trkpt>
<trkpt lat="49.36654298566282" lon="7.958354959264398">
<ele>336.4</ele>
<time>2023-05-18T11:14:24Z</time>
</trkpt>
<trkpt lat="49.36656695790589" lon="7.958257980644703">
<ele>336.20000000000005</ele>
<time>2023-05-18T11:14:25Z</time>
</trkpt>
<trkpt lat="49.36658799648285" lon="7.958162929862738">
<ele>335.79999999999995</ele>
<time>2023-05-18T11:14:26Z</time>
</trkpt>
<trkpt lat="49.366601994261146" lon="7.958069974556565">
<ele>335.4</ele>
<time>2023-05-18T11:14:27Z</time>
</trkpt>
<trkpt lat="49.36659797094762" lon="7.957977941259742">
<ele>335.20000000000005</ele>
<time>2023-05-18T11:14:28Z</time>
</trkpt>
<trkpt lat="49.36657693237066" lon="7.9578949604183435">
<ele>334.79999999999995</ele>
<time>2023-05-18T11:14:29Z</time>
</trkpt>
<trkpt lat="49.366539968177676" lon="7.957827989012003">
<ele>334.6</ele>
<time>2023-05-18T11:14:30Z</time>
</trkpt>
<trkpt lat="49.36648992821574" lon="7.957782978191972">
<ele>334.20000000000005</ele>
<time>2023-05-18T11:14:31Z</time>
</trkpt>
<trkpt lat="49.36643494293094" lon="7.957764957100153">
<ele>334</ele>
<time>2023-05-18T11:14:32Z</time>
</trkpt>
<trkpt lat="49.36637199483812" lon="7.957762945443392">
<ele>333.79999999999995</ele>
<time>2023-05-18T11:14:33Z</time>
</trkpt>
<trkpt lat="49.36631692573428" lon="7.95777996070683">
<ele>333.79999999999995</ele>
<time>2023-05-18T11:14:34Z</time>
</trkpt>
<trkpt lat="49.36627199873328" lon="7.95780292712152">
<ele>333.6</ele>
<time>2023-05-18T11:14:35Z</time>
</trkpt>
<trkpt lat="49.36623193323612" lon="7.957827989012003">
<ele>333.6</ele>
<time>2023-05-18T11:14:36Z</time>
</trkpt>
<trkpt lat="49.36619798652828" lon="7.957847937941551">
<ele>333.6</ele>
<time>2023-05-18T11:14:37Z</time>
</trkpt>
<trkpt lat="49.36618692241609" lon="7.957864953204989">
<ele>333.6</ele>
<time>2023-05-18T11:14:38Z</time>
</trkpt>
<trkpt lat="49.36618792824447" lon="7.957866964861751">
<ele>333.6</ele>
<time>2023-05-18T11:14:39Z</time>
</trkpt>
<trkpt lat="49.36616295017302" lon="7.957926979288459">
<ele>334.6</ele>
<time>2023-05-18T11:14:39Z</time>
</trkpt>
<trkpt lat="49.36614199541509" lon="7.957954974845052">
<ele>334.6</ele>
<time>2023-05-18T11:14:40Z</time>
</trkpt>
<trkpt lat="49.36611693352461" lon="7.957977941259742">
<ele>334.79999999999995</ele>
<time>2023-05-18T11:14:41Z</time>
</trkpt>
<trkpt lat="49.366087932139635" lon="7.958006942644715">
<ele>334.79999999999995</ele>
<time>2023-05-18T11:14:42Z</time>
</trkpt>
<trkpt lat="49.3660619482398" lon="7.9580319207161665">
<ele>335</ele>
<time>2023-05-18T11:14:43Z</time>
</trkpt>
<trkpt lat="49.36603797599673" lon="7.9580519534647465">
<ele>335.20000000000005</ele>
<time>2023-05-18T11:14:44Z</time>
</trkpt>
<trkpt lat="49.36601492576301" lon="7.958076931536198">
<ele>335.4</ele>
<time>2023-05-18T11:14:45Z</time>
</trkpt>
<trkpt lat="49.3659929651767" lon="7.958099981769919">
<ele>335.4</ele>
<time>2023-05-18T11:14:46Z</time>
</trkpt>
<trkpt lat="49.36596999876201" lon="7.958127977326512">
<ele>335.6</ele>
<time>2023-05-18T11:14:47Z</time>
</trkpt>
<trkpt lat="49.36593999154866" lon="7.9581579845398664">
<ele>335.79999999999995</ele>
<time>2023-05-18T11:14:48Z</time>
</trkpt>
<trkpt lat="49.36590797267854" lon="7.958187991753221">
<ele>336</ele>
<time>2023-05-18T11:14:49Z</time>
</trkpt>
<trkpt lat="49.365874947980046" lon="7.958207940682769">
<ele>336.20000000000005</ele>
<time>2023-05-18T11:14:50Z</time>
</trkpt>
<trkpt lat="49.36584192328155" lon="7.958231996744871">
<ele>336.4</ele>
<time>2023-05-18T11:14:51Z</time>
</trkpt>
<trkpt lat="49.365807976573706" lon="7.958254963159561">
<ele>336.6</ele>
<time>2023-05-18T11:14:52Z</time>
</trkpt>
<trkpt lat="49.36577294021845" lon="7.958274995908141">
<ele>337</ele>
<time>2023-05-18T11:14:53Z</time>
</trkpt>
<trkpt lat="49.36573497019708" lon="7.958294944837689">
<ele>337.20000000000005</ele>
<time>2023-05-18T11:14:54Z</time>
</trkpt>
<trkpt lat="49.36569691635668" lon="7.9583099484443665">
<ele>337.4</ele>
<time>2023-05-18T11:14:55Z</time>
</trkpt>
<trkpt lat="49.365659952163696" lon="7.9583169892430305">
<ele>337.79999999999995</ele>
<time>2023-05-18T11:14:56Z</time>
</trkpt>
<trkpt lat="49.36562499962747" lon="7.958311960101128">
<ele>338</ele>
<time>2023-05-18T11:14:57Z</time>
</trkpt>
<trkpt lat="49.365591974928975" lon="7.9583049193024635">
<ele>338.4</ele>
<time>2023-05-18T11:14:58Z</time>
</trkpt>
<trkpt lat="49.36555995605886" lon="7.958294944837689">
<ele>338.6</ele>
<time>2023-05-18T11:14:59Z</time>
</trkpt>
<trkpt lat="49.3655249197036" lon="7.9582819528877735">
<ele>339</ele>
<time>2023-05-18T11:15:00Z</time>
</trkpt>
<trkpt lat="49.365487955510616" lon="7.9582669492810965">
<ele>339.20000000000005</ele>
<time>2023-05-18T11:15:01Z</time>
</trkpt>
<trkpt lat="49.36544696800411" lon="7.9582529515028">
<ele>339.6</ele>
<time>2023-05-18T11:15:02Z</time>
</trkpt>
<trkpt lat="49.365401957184076" lon="7.958237947896123">
<ele>339.79999999999995</ele>
<time>2023-05-18T11:15:03Z</time>
</trkpt>
<trkpt lat="49.365357952192426" lon="7.958222944289446">
<ele>340</ele>
<time>2023-05-18T11:15:04Z</time>
</trkpt>
<trkpt lat="49.36532199382782" lon="7.958204923197627">
<ele>340.20000000000005</ele>
<time>2023-05-18T11:15:05Z</time>
</trkpt>
<trkpt lat="49.365291986614466" lon="7.958179945126176">
<ele>340.4</ele>
<time>2023-05-18T11:15:06Z</time>
</trkpt>
<trkpt lat="49.36525695025921" lon="7.958156978711486">
<ele>340.6</ele>
<time>2023-05-18T11:15:07Z</time>
</trkpt>
<trkpt lat="49.36521294526756" lon="7.958134934306145">
<ele>340.79999999999995</ele>
<time>2023-05-18T11:15:08Z</time>
</trkpt>
<trkpt lat="49.36517497524619" lon="7.958102999255061">
<ele>340.79999999999995</ele>
<time>2023-05-18T11:15:09Z</time>
</trkpt>
<trkpt lat="49.3651329819113" lon="7.958069974556565">
<ele>340.79999999999995</ele>
<time>2023-05-18T11:15:10Z</time>
</trkpt>
<trkpt lat="49.36509291641414" lon="7.958041978999972">
<ele>340.79999999999995</ele>
<time>2023-05-18T11:15:11Z</time>
</trkpt>
<trkpt lat="49.36504296027124" lon="7.958022952079773">
<ele>340.79999999999995</ele>
<time>2023-05-18T11:15:12Z</time>
</trkpt>
<trkpt lat="49.364987974986434" lon="7.957997974008322">
<ele>340.6</ele>
<time>2023-05-18T11:15:13Z</time>
</trkpt>
<trkpt lat="49.364927960559726" lon="7.957972995936871">
<ele>340.4</ele>
<time>2023-05-18T11:15:14Z</time>
</trkpt>
<trkpt lat="49.364864928647876" lon="7.9579429887235165">
<ele>340.20000000000005</ele>
<time>2023-05-18T11:15:15Z</time>
</trkpt>
<trkpt lat="49.364797957241535" lon="7.9579149931669235">
<ele>340.20000000000005</ele>
<time>2023-05-18T11:15:16Z</time>
</trkpt>
<trkpt lat="49.364731991663575" lon="7.9578949604183435">
<ele>340</ele>
<time>2023-05-18T11:15:17Z</time>
</trkpt>
<trkpt lat="49.36465999111533" lon="7.957874927669764">
<ele>339.79999999999995</ele>
<time>2023-05-18T11:15:18Z</time>
</trkpt>
<trkpt lat="49.36458991840482" lon="7.957839975133538">
<ele>339.6</ele>
<time>2023-05-18T11:15:19Z</time>
</trkpt>
<trkpt lat="49.36451196670532" lon="7.957812985405326">
<ele>339.4</ele>
<time>2023-05-18T11:15:20Z</time>
</trkpt>
<trkpt lat="49.36443694867194" lon="7.95779999345541">
<ele>339</ele>
<time>2023-05-18T11:15:21Z</time>
</trkpt>
<trkpt lat="49.364366959780455" lon="7.957796975970268">
<ele>338.4</ele>
<time>2023-05-18T11:15:22Z</time>
</trkpt>
<trkpt lat="49.364306945353746" lon="7.957809967920184">
<ele>337.79999999999995</ele>
<time>2023-05-18T11:15:23Z</time>
</trkpt>
<trkpt lat="49.364239973947406" lon="7.957817930728197">
<ele>337.20000000000005</ele>
<time>2023-05-18T11:15:24Z</time>
</trkpt>
<trkpt lat="49.364176942035556" lon="7.957834945991635">
<ele>336.4</ele>
<time>2023-05-18T11:15:25Z</time>
</trkpt>
<trkpt lat="49.36412195675075" lon="7.9578519612550735">
<ele>335.6</ele>
<time>2023-05-18T11:15:26Z</time>
</trkpt>
<trkpt lat="49.36407493427396" lon="7.957857996225357">
<ele>334.79999999999995</ele>
<time>2023-05-18T11:15:27Z</time>
</trkpt>
<trkpt lat="49.36402992345393" lon="7.9578449204564095">
<ele>334</ele>
<time>2023-05-18T11:15:28Z</time>
</trkpt>
<trkpt lat="49.36399698257446" lon="7.957819942384958">
<ele>333.4</ele>
<time>2023-05-18T11:15:29Z</time>
</trkpt>
<trkpt lat="49.36397493816912" lon="7.957771997898817">
<ele>332.79999999999995</ele>
<time>2023-05-18T11:15:30Z</time>
</trkpt>
<trkpt lat="49.363961946219206" lon="7.957701925188303">
<ele>332</ele>
<time>2023-05-18T11:15:31Z</time>
</trkpt>
<trkpt lat="49.36395792290568" lon="7.9576219618320465">
<ele>331.4</ele>
<time>2023-05-18T11:15:32Z</time>
</trkpt>
<trkpt lat="49.36395792290568" lon="7.957529928535223">
<ele>330.6</ele>
<time>2023-05-18T11:15:33Z</time>
</trkpt>
<trkpt lat="49.363962952047586" lon="7.957451976835728">
<ele>330</ele>
<time>2023-05-18T11:15:34Z</time>
</trkpt>
<trkpt lat="49.363979967311025" lon="7.9573719296604395">
<ele>329.4</ele>
<time>2023-05-18T11:15:35Z</time>
</trkpt>
<trkpt lat="49.36399991624057" lon="7.957299929112196">
<ele>328.6</ele>
<time>2023-05-18T11:15:36Z</time>
</trkpt>
<trkpt lat="49.36402698978782" lon="7.957232957705855">
<ele>328</ele>
<time>2023-05-18T11:15:37Z</time>
</trkpt>
<trkpt lat="49.36406194232404" lon="7.957179984077811">
<ele>327.20000000000005</ele>
<time>2023-05-18T11:15:38Z</time>
</trkpt>
<trkpt lat="49.364111982285976" lon="7.95713497325778">
<ele>326.4</ele>
<time>2023-05-18T11:15:39Z</time>
</trkpt>
<trkpt lat="49.36418792232871" lon="7.957094991579652">
<ele>325.79999999999995</ele>
<time>2023-05-18T11:15:40Z</time>
</trkpt>
<trkpt lat="49.36426696367562" lon="7.957054926082492">
<ele>325</ele>
<time>2023-05-18T11:15:41Z</time>
</trkpt>
<trkpt lat="49.364344999194145" lon="7.957007987424731">
<ele>324</ele>
<time>2023-05-18T11:15:42Z</time>
</trkpt>
<trkpt lat="49.36440694145858" lon="7.956972951069474">
<ele>323.20000000000005</ele>
<time>2023-05-18T11:15:43Z</time>
</trkpt>
<trkpt lat="49.3644579872489" lon="7.956934981048107">
<ele>322.4</ele>
<time>2023-05-18T11:15:44Z</time>
</trkpt>
<trkpt lat="49.364497968927026" lon="7.956869937479496">
<ele>321.79999999999995</ele>
<time>2023-05-18T11:15:45Z</time>
</trkpt>
<trkpt lat="49.364539962261915" lon="7.956796931102872">
<ele>321</ele>
<time>2023-05-18T11:15:46Z</time>
</trkpt>
<trkpt lat="49.36455496586859" lon="7.956716967746615">
<ele>320.20000000000005</ele>
<time>2023-05-18T11:15:47Z</time>
</trkpt>
<trkpt lat="49.36455496586859" lon="7.956631975248456">
<ele>319.4</ele>
<time>2023-05-18T11:15:48Z</time>
</trkpt>
<trkpt lat="49.36454297974706" lon="7.956542959436774">
<ele>318.79999999999995</ele>
<time>2023-05-18T11:15:49Z</time>
</trkpt>
<trkpt lat="49.3645079433918" lon="7.956442963331938">
<ele>318</ele>
<time>2023-05-18T11:15:50Z</time>
</trkpt>
<trkpt lat="49.364472990855575" lon="7.956356965005398">
<ele>317.4</ele>
<time>2023-05-18T11:15:51Z</time>
</trkpt>
<trkpt lat="49.364431919530034" lon="7.9562819469720125">
<ele>316.6</ele>
<time>2023-05-18T11:15:52Z</time>
</trkpt>
<trkpt lat="49.36438498087227" lon="7.956197960302234">
<ele>316</ele>
<time>2023-05-18T11:15:53Z</time>
</trkpt>
<trkpt lat="49.36433292925358" lon="7.956112967804074">
<ele>315.20000000000005</ele>
<time>2023-05-18T11:15:54Z</time>
</trkpt>
<trkpt lat="49.364281967282295" lon="7.956046918407083">
<ele>314.20000000000005</ele>
<time>2023-05-18T11:15:55Z</time>
</trkpt>
<trkpt lat="49.36422698199749" lon="7.955979947000742">
<ele>313.4</ele>
<time>2023-05-18T11:15:56Z</time>
</trkpt>
<trkpt lat="49.36417291872203" lon="7.955896966159344">
<ele>312.6</ele>
<time>2023-05-18T11:15:57Z</time>
</trkpt>
<trkpt lat="49.36412195675075" lon="7.955817924812436">
<ele>311.6</ele>
<time>2023-05-18T11:15:58Z</time>
</trkpt>
<trkpt lat="49.36406194232404" lon="7.955731926485896">
<ele>310.79999999999995</ele>
<time>2023-05-18T11:15:59Z</time>
</trkpt>
<trkpt lat="49.363979967311025" lon="7.955614998936653">
<ele>309.79999999999995</ele>
<time>2023-05-18T11:16:00Z</time>
</trkpt>
<trkpt lat="49.36390796676278" lon="7.955516930669546">
<ele>308.79999999999995</ele>
<time>2023-05-18T11:16:01Z</time>
</trkpt>
<trkpt lat="49.36382498592138" lon="7.955399919301271">
<ele>307.79999999999995</ele>
<time>2023-05-18T11:16:02Z</time>
</trkpt>
<trkpt lat="49.36373194679618" lon="7.955279974266887">
<ele>306.79999999999995</ele>
<time>2023-05-18T11:16:03Z</time>
</trkpt>
<trkpt lat="49.363637985661626" lon="7.9551569279283285">
<ele>305.79999999999995</ele>
<time>2023-05-18T11:16:04Z</time>
</trkpt>
<trkpt lat="49.363551987335086" lon="7.9550479631870985">
<ele>305</ele>
<time>2023-05-18T11:16:05Z</time>
</trkpt>
<trkpt lat="49.36346992850304" lon="7.954932963475585">
<ele>303.79999999999995</ele>
<time>2023-05-18T11:16:06Z</time>
</trkpt>
<trkpt lat="49.36339499428868" lon="7.954816957935691">
<ele>302.79999999999995</ele>
<time>2023-05-18T11:16:07Z</time>
</trkpt>
<trkpt lat="49.3633199762553" lon="7.954702964052558">
<ele>301.6</ele>
<time>2023-05-18T11:16:08Z</time>
</trkpt>
<trkpt lat="49.36325493268669" lon="7.954589975997806">
<ele>300.6</ele>
<time>2023-05-18T11:16:09Z</time>
</trkpt>
<trkpt lat="49.36317496933043" lon="7.954479921609163">
<ele>299.4</ele>
<time>2023-05-18T11:16:10Z</time>
</trkpt>
<trkpt lat="49.36309492215514" lon="7.95436492189765">
<ele>298.4</ele>
<time>2023-05-18T11:16:11Z</time>
</trkpt>
<trkpt lat="49.36300297267735" lon="7.954246988520026">
<ele>297.20000000000005</ele>
<time>2023-05-18T11:16:12Z</time>
</trkpt>
<trkpt lat="49.36291194520891" lon="7.95412695966661">
<ele>296</ele>
<time>2023-05-18T11:16:13Z</time>
</trkpt>
<trkpt lat="49.36281295493245" lon="7.954006930813193">
<ele>295</ele>
<time>2023-05-18T11:16:14Z</time>
</trkpt>
<trkpt lat="49.36271698214114" lon="7.953896960243583">
<ele>293.79999999999995</ele>
<time>2023-05-18T11:16:15Z</time>
</trkpt>
<trkpt lat="49.362627966329455" lon="7.95378296636045">
<ele>292.79999999999995</ele>
<time>2023-05-18T11:16:16Z</time>
</trkpt>
<trkpt lat="49.36253693886101" lon="7.953674923628569">
<ele>291.79999999999995</ele>
<time>2023-05-18T11:16:17Z</time>
</trkpt>
<trkpt lat="49.36244792304933" lon="7.9535679705441">
<ele>290.6</ele>
<time>2023-05-18T11:16:18Z</time>
</trkpt>
<trkpt lat="49.362367959693074" lon="7.953459927812219">
<ele>289.6</ele>
<time>2023-05-18T11:16:19Z</time>
</trkpt>
<trkpt lat="49.36228799633682" lon="7.953359931707382">
<ele>288.4</ele>
<time>2023-05-18T11:16:20Z</time>
</trkpt>
<trkpt lat="49.36221197247505" lon="7.953259935602546">
<ele>287.20000000000005</ele>
<time>2023-05-18T11:16:21Z</time>
</trkpt>
<trkpt lat="49.36213796027005" lon="7.953159939497709">
<ele>286</ele>
<time>2023-05-18T11:16:22Z</time>
</trkpt>
<trkpt lat="49.362069983035326" lon="7.953066984191537">
<ele>284.79999999999995</ele>
<time>2023-05-18T11:16:23Z</time>
</trkpt>
<trkpt lat="49.362006951123476" lon="7.9529819916933775">
<ele>283.79999999999995</ele>
<time>2023-05-18T11:16:24Z</time>
</trkpt>
<trkpt lat="49.36194492504001" lon="7.952899932861328">
<ele>282.6</ele>
<time>2023-05-18T11:16:25Z</time>
</trkpt>
<trkpt lat="49.36188197694719" lon="7.952826926484704">
<ele>281.4</ele>
<time>2023-05-18T11:16:26Z</time>
</trkpt>
<trkpt lat="49.36182699166238" lon="7.9527669958770275">
<ele>280.20000000000005</ele>
<time>2023-05-18T11:16:27Z</time>
</trkpt>
<trkpt lat="49.36177996918559" lon="7.9527119267731905">
<ele>279.20000000000005</ele>
<time>2023-05-18T11:16:28Z</time>
</trkpt>
<trkpt lat="49.3617379758507" lon="7.952666999772191">
<ele>278.20000000000005</ele>
<time>2023-05-18T11:16:29Z</time>
</trkpt>
<trkpt lat="49.36170696280897" lon="7.952631963416934">
<ele>277.20000000000005</ele>
<time>2023-05-18T11:16:30Z</time>
</trkpt>
<trkpt lat="49.361679973080754" lon="7.952604973688722">
<ele>276.20000000000005</ele>
<time>2023-05-18T11:16:31Z</time>
</trkpt>
<trkpt lat="49.36165692284703" lon="7.9525799956172705">
<ele>275.4</ele>
<time>2023-05-18T11:16:32Z</time>
</trkpt>
<trkpt lat="49.36163496226072" lon="7.952556945383549">
<ele>274.6</ele>
<time>2023-05-18T11:16:33Z</time>
</trkpt>
<trkpt lat="49.36161492951214" lon="7.952541941776872">
<ele>274</ele>
<time>2023-05-18T11:16:34Z</time>
</trkpt>
<trkpt lat="49.361594980582595" lon="7.952527943998575">
<ele>273.4</ele>
<time>2023-05-18T11:16:35Z</time>
</trkpt>
<trkpt lat="49.36157796531916" lon="7.952521992847323">
<ele>272.79999999999995</ele>
<time>2023-05-18T11:16:36Z</time>
</trkpt>
<trkpt lat="49.36156497336924" lon="7.952537918463349">
<ele>272.4</ele>
<time>2023-05-18T11:16:37Z</time>
</trkpt>
<trkpt lat="49.3615479581058" lon="7.952557951211929">
<ele>272</ele>
<time>2023-05-18T11:16:38Z</time>
</trkpt>
<trkpt lat="49.36152499169111" lon="7.952581923455">
<ele>271.6</ele>
<time>2023-05-18T11:16:39Z</time>
</trkpt>
<trkpt lat="49.36149699613452" lon="7.952606985345483">
<ele>271.20000000000005</ele>
<time>2023-05-18T11:16:40Z</time>
</trkpt>
<trkpt lat="49.361466988921165" lon="7.952656941488385">
<ele>270.79999999999995</ele>
<time>2023-05-18T11:16:41Z</time>
</trkpt>
<trkpt lat="49.36143195256591" lon="7.952717961743474">
<ele>270.20000000000005</ele>
<time>2023-05-18T11:16:42Z</time>
</trkpt>
<trkpt lat="49.36138794757426" lon="7.9527669958770275">
<ele>269.79999999999995</ele>
<time>2023-05-18T11:16:43Z</time>
</trkpt>
<trkpt lat="49.361336985602975" lon="7.9527979250997305">
<ele>269.4</ele>
<time>2023-05-18T11:16:44Z</time>
</trkpt>
<trkpt lat="49.36127998866141" lon="7.952804965898395">
<ele>269</ele>
<time>2023-05-18T11:16:45Z</time>
</trkpt>
<trkpt lat="49.3612199742347" lon="7.952802954241633">
<ele>268.4</ele>
<time>2023-05-18T11:16:46Z</time>
</trkpt>
<trkpt lat="49.36115493066609" lon="7.9527979250997305">
<ele>268</ele>
<time>2023-05-18T11:16:47Z</time>
</trkpt>
<trkpt lat="49.36108997091651" lon="7.9527979250997305">
<ele>267.6</ele>
<time>2023-05-18T11:16:48Z</time>
</trkpt>
<trkpt lat="49.36102299951017" lon="7.95279691927135">
<ele>267.20000000000005</ele>
<time>2023-05-18T11:16:49Z</time>
</trkpt>
<trkpt lat="49.360952926799655" lon="7.95279691927135">
<ele>266.79999999999995</ele>
<time>2023-05-18T11:16:50Z</time>
</trkpt>
<trkpt lat="49.360886961221695" lon="7.9527899622917175">
<ele>266.4</ele>
<time>2023-05-18T11:16:51Z</time>
</trkpt>
<trkpt lat="49.36081697233021" lon="7.952779987826943">
<ele>266</ele>
<time>2023-05-18T11:16:52Z</time>
</trkpt>
<trkpt lat="49.36074698343873" lon="7.9527749586850405">
<ele>265.6</ele>
<time>2023-05-18T11:16:53Z</time>
</trkpt>
<trkpt lat="49.36067699454725" lon="7.9527669958770275">
<ele>265.20000000000005</ele>
<time>2023-05-18T11:16:54Z</time>
</trkpt>
<trkpt lat="49.360606921836734" lon="7.952756937593222">
<ele>265</ele>
<time>2023-05-18T11:16:55Z</time>
</trkpt>
<trkpt lat="49.36053492128849" lon="7.952737994492054">
<ele>264.6</ele>
<time>2023-05-18T11:16:56Z</time>
</trkpt>
<trkpt lat="49.36046493239701" lon="7.952709998935461">
<ele>264.20000000000005</ele>
<time>2023-05-18T11:16:57Z</time>
</trkpt>
<trkpt lat="49.36039695516229" lon="7.952672950923443">
<ele>263.79999999999995</ele>
<time>2023-05-18T11:16:58Z</time>
</trkpt>
<trkpt lat="49.360329983755946" lon="7.952627940103412">
<ele>263.6</ele>
<time>2023-05-18T11:16:59Z</time>
</trkpt>
<trkpt lat="49.360266951844096" lon="7.9525799956172705">
<ele>263.20000000000005</ele>
<time>2023-05-18T11:17:00Z</time>
</trkpt>
<trkpt lat="49.3602029979229" lon="7.952526938170195">
<ele>262.79999999999995</ele>
<time>2023-05-18T11:17:01Z</time>
</trkpt>
<trkpt lat="49.36014298349619" lon="7.952466923743486">
<ele>262.6</ele>
<time>2023-05-18T11:17:02Z</time>
</trkpt>
<trkpt lat="49.36008296906948" lon="7.952404981479049">
<ele>262.20000000000005</ele>
<time>2023-05-18T11:17:03Z</time>
</trkpt>
<trkpt lat="49.36002295464277" lon="7.9523449670523405">
<ele>261.79999999999995</ele>
<time>2023-05-18T11:17:04Z</time>
</trkpt>
<trkpt lat="49.359964951872826" lon="7.952282940968871">
<ele>261.4</ele>
<time>2023-05-18T11:17:05Z</time>
</trkpt>
<trkpt lat="49.35990493744612" lon="7.952226949855685">
<ele>261</ele>
<time>2023-05-18T11:17:06Z</time>
</trkpt>
<trkpt lat="49.35984492301941" lon="7.9521779995411634">
<ele>260.79999999999995</ele>
<time>2023-05-18T11:17:07Z</time>
</trkpt>
<trkpt lat="49.35978197492659" lon="7.952131982892752">
<ele>260.4</ele>
<time>2023-05-18T11:17:08Z</time>
</trkpt>
<trkpt lat="49.35971793718636" lon="7.952081942930818">
<ele>260</ele>
<time>2023-05-18T11:17:09Z</time>
</trkpt>
<trkpt lat="49.35965792275965" lon="7.952031986787915">
<ele>259.79999999999995</ele>
<time>2023-05-18T11:17:10Z</time>
</trkpt>
<trkpt lat="49.359599919989705" lon="7.951984964311123">
<ele>259.4</ele>
<time>2023-05-18T11:17:11Z</time>
</trkpt>
<trkpt lat="49.3595449347049" lon="7.951937941834331">
<ele>259.20000000000005</ele>
<time>2023-05-18T11:17:12Z</time>
</trkpt>
<trkpt lat="49.35949699021876" lon="7.951892931014299">
<ele>258.79999999999995</ele>
<time>2023-05-18T11:17:13Z</time>
</trkpt>
<trkpt lat="49.359449967741966" lon="7.951847920194268">
<ele>258.6</ele>
<time>2023-05-18T11:17:14Z</time>
</trkpt>
<trkpt lat="49.359406968578696" lon="7.951802993193269">
<ele>258.4</ele>
<time>2023-05-18T11:17:15Z</time>
</trkpt>
<trkpt lat="49.35936698690057" lon="7.951762927696109">
<ele>258.20000000000005</ele>
<time>2023-05-18T11:17:16Z</time>
</trkpt>
<trkpt lat="49.35932692140341" lon="7.951726969331503">
<ele>258</ele>
<time>2023-05-18T11:17:17Z</time>
</trkpt>
<trkpt lat="49.35929196886718" lon="7.9516929388046265">
<ele>257.79999999999995</ele>
<time>2023-05-18T11:17:18Z</time>
</trkpt>
<trkpt lat="49.359257938340306" lon="7.951661925762892">
<ele>257.6</ele>
<time>2023-05-18T11:17:19Z</time>
</trkpt>
<trkpt lat="49.35922499746084" lon="7.951629990711808">
<ele>257.4</ele>
<time>2023-05-18T11:17:20Z</time>
</trkpt>
<trkpt lat="49.35919499024749" lon="7.951601995155215">
<ele>257.20000000000005</ele>
<time>2023-05-18T11:17:21Z</time>
</trkpt>
<trkpt lat="49.359166994690895" lon="7.951571987941861">
<ele>257</ele>
<time>2023-05-18T11:17:22Z</time>
</trkpt>
<trkpt lat="49.35914293862879" lon="7.951547931879759">
<ele>256.79999999999995</ele>
<time>2023-05-18T11:17:23Z</time>
</trkpt>
<trkpt lat="49.359124917536974" lon="7.951529994606972">
<ele>256.79999999999995</ele>
<time>2023-05-18T11:17:24Z</time>
</trkpt>
<trkpt lat="49.35911293141544" lon="7.951516918838024">
<ele>256.6</ele>
<time>2023-05-18T11:17:25Z</time>
</trkpt>
<trkpt lat="49.35911192558706" lon="7.951514991000295">
<ele>256.4</ele>
<time>2023-05-18T11:17:26Z</time>
</trkpt>
<trkpt lat="49.35911192558706" lon="7.9515129793435335">
<ele>256.4</ele>
<time>2023-05-18T11:17:27Z</time>
</trkpt>
<trkpt lat="49.35908996500075" lon="7.951501999050379">
<ele>255.79999999999995</ele>
<time>2023-05-18T11:17:27Z</time>
</trkpt>
<trkpt lat="49.35907496139407" lon="7.951494958251715">
<ele>255.60000000000002</ele>
<time>2023-05-18T11:17:28Z</time>
</trkpt>
<trkpt lat="49.359059957787395" lon="7.951484983786941">
<ele>255.60000000000002</ele>
<time>2023-05-18T11:17:29Z</time>
</trkpt>
<trkpt lat="49.35904998332262" lon="7.951472997665405">
<ele>255.60000000000002</ele>
<time>2023-05-18T11:17:30Z</time>
</trkpt>
<trkpt lat="49.35904696583748" lon="7.951467968523502">
<ele>255.60000000000002</ele>
<time>2023-05-18T11:17:31Z</time>
</trkpt>
<trkpt lat="49.35904696583748" lon="7.951466962695122">
<ele>255.60000000000002</ele>
<time>2023-05-18T11:17:32Z</time>
</trkpt>
<trkpt lat="49.35900698415935" lon="7.951437961310148">
<ele>255.20000000000005</ele>
<time>2023-05-18T11:17:35Z</time>
</trkpt>
<trkpt lat="49.35898292809725" lon="7.951421951875091">
<ele>255.20000000000005</ele>
<time>2023-05-18T11:17:36Z</time>
</trkpt>
<trkpt lat="49.358956944197416" lon="7.951401919126511">
<ele>255.20000000000005</ele>
<time>2023-05-18T11:17:37Z</time>
</trkpt>
<trkpt lat="49.35892693698406" lon="7.951379958540201">
<ele>255.20000000000005</ele>
<time>2023-05-18T11:17:38Z</time>
</trkpt>
<trkpt lat="49.35889491811395" lon="7.951357997953892">
<ele>255</ele>
<time>2023-05-18T11:17:39Z</time>
</trkpt>
<trkpt lat="49.35885996557772" lon="7.951332936063409">
<ele>255</ele>
<time>2023-05-18T11:17:40Z</time>
</trkpt>
<trkpt lat="49.3588229175657" lon="7.951307957991958">
<ele>254.79999999999995</ele>
<time>2023-05-18T11:17:41Z</time>
</trkpt>
<trkpt lat="49.358781930059195" lon="7.951286919414997">
<ele>254.79999999999995</ele>
<time>2023-05-18T11:17:42Z</time>
</trkpt>
<trkpt lat="49.358737925067544" lon="7.951261941343546">
<ele>254.60000000000002</ele>
<time>2023-05-18T11:17:43Z</time>
</trkpt>
<trkpt lat="49.358694925904274" lon="7.951237969100475">
<ele>254.60000000000002</ele>
<time>2023-05-18T11:17:44Z</time>
</trkpt>
<trkpt lat="49.35864698141813" lon="7.951212991029024">
<ele>254.39999999999998</ele>
<time>2023-05-18T11:17:45Z</time>
</trkpt>
<trkpt lat="49.35859794728458" lon="7.951184995472431">
<ele>254.20000000000005</ele>
<time>2023-05-18T11:17:46Z</time>
</trkpt>
<trkpt lat="49.358546985313296" lon="7.951159933581948">
<ele>254</ele>
<time>2023-05-18T11:17:47Z</time>
</trkpt>
<trkpt lat="49.35849191620946" lon="7.951132943853736">
<ele>254</ele>
<time>2023-05-18T11:17:48Z</time>
</trkpt>
<trkpt lat="49.35843491926789" lon="7.951107965782285">
<ele>253.79999999999995</ele>
<time>2023-05-18T11:17:49Z</time>
</trkpt>
<trkpt lat="49.358377922326326" lon="7.9510829877108335">
<ele>253.60000000000002</ele>
<time>2023-05-18T11:17:50Z</time>
</trkpt>
<trkpt lat="49.35832193121314" lon="7.951062954962254">
<ele>253.39999999999998</ele>
<time>2023-05-18T11:17:51Z</time>
</trkpt>
<trkpt lat="49.35826292261481" lon="7.951049963012338">
<ele>253.20000000000005</ele>
<time>2023-05-18T11:17:52Z</time>
</trkpt>
<trkpt lat="49.358201986178756" lon="7.951042922213674">
<ele>253</ele>
<time>2023-05-18T11:17:53Z</time>
</trkpt>
<trkpt lat="49.358139960095286" lon="7.9510399885475636">
<ele>252.79999999999995</ele>
<time>2023-05-18T11:17:54Z</time>
</trkpt>
<trkpt lat="49.358076928183436" lon="7.9510479513555765">
<ele>252.60000000000002</ele>
<time>2023-05-18T11:17:55Z</time>
</trkpt>
<trkpt lat="49.358014985919" lon="7.951061949133873">
<ele>252.20000000000005</ele>
<time>2023-05-18T11:17:56Z</time>
</trkpt>
<trkpt lat="49.35795195400715" lon="7.951072929427028">
<ele>252</ele>
<time>2023-05-18T11:17:57Z</time>
</trkpt>
<trkpt lat="49.35788498260081" lon="7.9510829877108335">
<ele>251.60000000000002</ele>
<time>2023-05-18T11:17:58Z</time>
</trkpt>
<trkpt lat="49.357816921547055" lon="7.951084999367595">
<ele>251.39999999999998</ele>
<time>2023-05-18T11:17:59Z</time>
</trkpt>
<trkpt lat="49.357749950140715" lon="7.951081981882453">
<ele>251.20000000000005</ele>
<time>2023-05-18T11:18:00Z</time>
</trkpt>
<trkpt lat="49.35768197290599" lon="7.951074941083789">
<ele>251</ele>
<time>2023-05-18T11:18:01Z</time>
</trkpt>
<trkpt lat="49.35761298984289" lon="7.951062954962254">
<ele>250.79999999999995</ele>
<time>2023-05-18T11:18:02Z</time>
</trkpt>
<trkpt lat="49.35754291713238" lon="7.951042922213674">
<ele>250.60000000000002</ele>
<time>2023-05-18T11:18:03Z</time>
</trkpt>
<trkpt lat="49.357474939897656" lon="7.951021967455745">
<ele>250.60000000000002</ele>
<time>2023-05-18T11:18:04Z</time>
</trkpt>
<trkpt lat="49.357404951006174" lon="7.951006963849068">
<ele>250.39999999999998</ele>
<time>2023-05-18T11:18:05Z</time>
</trkpt>
<trkpt lat="49.35733295045793" lon="7.950992966070771">
<ele>250.20000000000005</ele>
<time>2023-05-18T11:18:06Z</time>
</trkpt>
<trkpt lat="49.35726296156645" lon="7.950977962464094">
<ele>250</ele>
<time>2023-05-18T11:18:07Z</time>
</trkpt>
<trkpt lat="49.357189955189824" lon="7.950964970514178">
<ele>249.79999999999995</ele>
<time>2023-05-18T11:18:08Z</time>
</trkpt>
<trkpt lat="49.35711795464158" lon="7.950954996049404">
<ele>249.60000000000002</ele>
<time>2023-05-18T11:18:09Z</time>
</trkpt>
<trkpt lat="49.35704494826496" lon="7.95094795525074">
<ele>249.39999999999998</ele>
<time>2023-05-18T11:18:10Z</time>
</trkpt>
<trkpt lat="49.35697294771671" lon="7.950934963300824">
<ele>249</ele>
<time>2023-05-18T11:18:11Z</time>
</trkpt>
<trkpt lat="49.35689994134009" lon="7.950914930552244">
<ele>248.60000000000002</ele>
<time>2023-05-18T11:18:12Z</time>
</trkpt>
<trkpt lat="49.356827940791845" lon="7.950897999107838">
<ele>248.39999999999998</ele>
<time>2023-05-18T11:18:13Z</time>
</trkpt>
<trkpt lat="49.35675493441522" lon="7.950879978016019">
<ele>248</ele>
<time>2023-05-18T11:18:14Z</time>
</trkpt>
<trkpt lat="49.35668293386698" lon="7.950864974409342">
<ele>247.79999999999995</ele>
<time>2023-05-18T11:18:15Z</time>
</trkpt>
<trkpt lat="49.356609927490354" lon="7.950847959145904">
<ele>247.60000000000002</ele>
<time>2023-05-18T11:18:16Z</time>
</trkpt>
<trkpt lat="49.35653792694211" lon="7.950831949710846">
<ele>247.20000000000005</ele>
<time>2023-05-18T11:18:17Z</time>
</trkpt>
<trkpt lat="49.356464920565486" lon="7.950811916962266">
<ele>247.20000000000005</ele>
<time>2023-05-18T11:18:18Z</time>
</trkpt>
<trkpt lat="49.356394931674004" lon="7.9507899563759565">
<ele>247</ele>
<time>2023-05-18T11:18:19Z</time>
</trkpt>
<trkpt lat="49.35632494278252" lon="7.950762966647744">
<ele>246.79999999999995</ele>
<time>2023-05-18T11:18:20Z</time>
</trkpt>
<trkpt lat="49.35625294223428" lon="7.95073295943439">
<ele>246.79999999999995</ele>
<time>2023-05-18T11:18:21Z</time>
</trkpt>
<trkpt lat="49.356181947514415" lon="7.950702952221036">
<ele>246.60000000000002</ele>
<time>2023-05-18T11:18:22Z</time>
</trkpt>
<trkpt lat="49.35610994696617" lon="7.95066699385643">
<ele>246.39999999999998</ele>
<time>2023-05-18T11:18:23Z</time>
</trkpt>
<trkpt lat="49.35603995807469" lon="7.9506229888647795">
<ele>246.39999999999998</ele>
<time>2023-05-18T11:18:24Z</time>
</trkpt>
<trkpt lat="49.35597198083997" lon="7.950577978044748">
<ele>246.20000000000005</ele>
<time>2023-05-18T11:18:25Z</time>
</trkpt>
<trkpt lat="49.355901991948485" lon="7.95053799636662">
<ele>246</ele>
<time>2023-05-18T11:18:26Z</time>
</trkpt>
<trkpt lat="49.35582999140024" lon="7.950499942526221">
<ele>246</ele>
<time>2023-05-18T11:18:27Z</time>
</trkpt>
<trkpt lat="49.355757990852" lon="7.950461972504854">
<ele>245.79999999999995</ele>
<time>2023-05-18T11:18:28Z</time>
</trkpt>
<trkpt lat="49.355687918141484" lon="7.950421990826726">
<ele>245.60000000000002</ele>
<time>2023-05-18T11:18:29Z</time>
</trkpt>
<trkpt lat="49.35561792925" lon="7.9503799974918365">
<ele>245.60000000000002</ele>
<time>2023-05-18T11:18:30Z</time>
</trkpt>
<trkpt lat="49.35554693453014" lon="7.9503369983285666">
<ele>245.39999999999998</ele>
<time>2023-05-18T11:18:31Z</time>
</trkpt>
<trkpt lat="49.35547694563866" lon="7.950292993336916">
<ele>245.39999999999998</ele>
<time>2023-05-18T11:18:32Z</time>
</trkpt>
<trkpt lat="49.355407962575555" lon="7.950241947546601">
<ele>245.20000000000005</ele>
<time>2023-05-18T11:18:33Z</time>
</trkpt>
<trkpt lat="49.355339985340834" lon="7.950181933119893">
<ele>245</ele>
<time>2023-05-18T11:18:34Z</time>
</trkpt>
<trkpt lat="49.35527293011546" lon="7.950121918693185">
<ele>244.79999999999995</ele>
<time>2023-05-18T11:18:35Z</time>
</trkpt>
<trkpt lat="49.3552069645375" lon="7.950061988085508">
<ele>244.79999999999995</ele>
<time>2023-05-18T11:18:36Z</time>
</trkpt>
<trkpt lat="49.35514192096889" lon="7.949996944516897">
<ele>244.60000000000002</ele>
<time>2023-05-18T11:18:37Z</time>
</trkpt>
<trkpt lat="49.35507796704769" lon="7.949934918433428">
<ele>244.39999999999998</ele>
<time>2023-05-18T11:18:38Z</time>
</trkpt>
<trkpt lat="49.3550169467926" lon="7.94987297616899">
<ele>244</ele>
<time>2023-05-18T11:18:39Z</time>
</trkpt>
<trkpt lat="49.35495492070913" lon="7.949812961742282">
<ele>243.79999999999995</ele>
<time>2023-05-18T11:18:40Z</time>
</trkpt>
<trkpt lat="49.354891972616315" lon="7.949756970629096">
<ele>243.60000000000002</ele>
<time>2023-05-18T11:18:41Z</time>
</trkpt>
<trkpt lat="49.354829946532845" lon="7.94969997368753">
<ele>243.39999999999998</ele>
<time>2023-05-18T11:18:42Z</time>
</trkpt>
<trkpt lat="49.354764986783266" lon="7.949642976745963">
<ele>243.20000000000005</ele>
<time>2023-05-18T11:18:43Z</time>
</trkpt>
<trkpt lat="49.354701954871416" lon="7.949586985632777">
<ele>243</ele>
<time>2023-05-18T11:18:44Z</time>
</trkpt>
<trkpt lat="49.35463699512184" lon="7.949536945670843">
<ele>242.79999999999995</ele>
<time>2023-05-18T11:18:45Z</time>
</trkpt>
<trkpt lat="49.354571951553226" lon="7.949487995356321">
<ele>242.60000000000002</ele>
<time>2023-05-18T11:18:46Z</time>
</trkpt>
<trkpt lat="49.354506991803646" lon="7.949436949566007">
<ele>242.39999999999998</ele>
<time>2023-05-18T11:18:47Z</time>
</trkpt>
<trkpt lat="49.354441948235035" lon="7.949384981766343">
<ele>242.20000000000005</ele>
<time>2023-05-18T11:18:48Z</time>
</trkpt>
<trkpt lat="49.35437296517193" lon="7.949341982603073">
<ele>242</ele>
<time>2023-05-18T11:18:49Z</time>
</trkpt>
<trkpt lat="49.35430498793721" lon="7.949302922934294">
<ele>241.79999999999995</ele>
<time>2023-05-18T11:18:50Z</time>
</trkpt>
<trkpt lat="49.35423793271184" lon="7.949267970398068">
<ele>241.60000000000002</ele>
<time>2023-05-18T11:18:51Z</time>
</trkpt>
<trkpt lat="49.35417498461902" lon="7.949234945699573">
<ele>241.39999999999998</ele>
<time>2023-05-18T11:18:52Z</time>
</trkpt>
<trkpt lat="49.35411195270717" lon="7.949201921001077">
<ele>241.20000000000005</ele>
<time>2023-05-18T11:18:53Z</time>
</trkpt>
<trkpt lat="49.3540499266237" lon="7.949171997606754">
<ele>241</ele>
<time>2023-05-18T11:18:54Z</time>
</trkpt>
<trkpt lat="49.353986978530884" lon="7.949146935716271">
<ele>240.79999999999995</ele>
<time>2023-05-18T11:18:55Z</time>
</trkpt>
<trkpt lat="49.35391992330551" lon="7.94912195764482">
<ele>240.60000000000002</ele>
<time>2023-05-18T11:18:56Z</time>
</trkpt>
<trkpt lat="49.35385496355593" lon="7.94909798540175">
<ele>240.39999999999998</ele>
<time>2023-05-18T11:18:57Z</time>
</trkpt>
<trkpt lat="49.35378991998732" lon="7.9490829817950726">
<ele>240.39999999999998</ele>
<time>2023-05-18T11:18:58Z</time>
</trkpt>
<trkpt lat="49.35372294858098" lon="7.949074935168028">
<ele>240.20000000000005</ele>
<time>2023-05-18T11:18:59Z</time>
</trkpt>
<trkpt lat="49.35365497134626" lon="7.949064960703254">
<ele>240</ele>
<time>2023-05-18T11:19:00Z</time>
</trkpt>
<trkpt lat="49.35358699411154" lon="7.9490529745817184">
<ele>240</ele>
<time>2023-05-18T11:19:01Z</time>
</trkpt>
<trkpt lat="49.353517927229404" lon="7.949044927954674">
<ele>239.79999999999995</ele>
<time>2023-05-18T11:19:02Z</time>
</trkpt>
<trkpt lat="49.353451961651444" lon="7.949037970975041">
<ele>239.79999999999995</ele>
<time>2023-05-18T11:19:03Z</time>
</trkpt>
<trkpt lat="49.353384990245104" lon="7.949029924347997">
<ele>239.79999999999995</ele>
<time>2023-05-18T11:19:04Z</time>
</trkpt>
<trkpt lat="49.353321958333254" lon="7.949021961539984">
<ele>239.60000000000002</ele>
<time>2023-05-18T11:19:05Z</time>
</trkpt>
<trkpt lat="49.35325792059302" lon="7.94901299290359">
<ele>239.60000000000002</ele>
<time>2023-05-18T11:19:06Z</time>
</trkpt>
<trkpt lat="49.35319195501506" lon="7.949002934619784">
<ele>239.60000000000002</ele>
<time>2023-05-18T11:19:07Z</time>
</trkpt>
<trkpt lat="49.353126995265484" lon="7.94899195432663">
<ele>239.39999999999998</ele>
<time>2023-05-18T11:19:08Z</time>
</trkpt>
<trkpt lat="49.35305994004011" lon="7.948982985690236">
<ele>239.39999999999998</ele>
<time>2023-05-18T11:19:09Z</time>
</trkpt>
<trkpt lat="49.35299498029053" lon="7.94897292740643">
<ele>239.39999999999998</ele>
<time>2023-05-18T11:19:10Z</time>
</trkpt>
<trkpt lat="49.35292792506516" lon="7.948962952941656">
<ele>239.20000000000005</ele>
<time>2023-05-18T11:19:11Z</time>
</trkpt>
<trkpt lat="49.35286296531558" lon="7.948951972648501">
<ele>239.20000000000005</ele>
<time>2023-05-18T11:19:12Z</time>
</trkpt>
<trkpt lat="49.35279792174697" lon="7.948939986526966">
<ele>239.20000000000005</ele>
<time>2023-05-18T11:19:13Z</time>
</trkpt>
<trkpt lat="49.35273296199739" lon="7.94892992824316">
<ele>239</ele>
<time>2023-05-18T11:19:14Z</time>
</trkpt>
<trkpt lat="49.35266993008554" lon="7.948919953778386">
<ele>239</ele>
<time>2023-05-18T11:19:15Z</time>
</trkpt>
<trkpt lat="49.35260497033596" lon="7.948907967656851">
<ele>238.79999999999995</ele>
<time>2023-05-18T11:19:16Z</time>
</trkpt>
<trkpt lat="49.35253992676735" lon="7.948899921029806">
<ele>238.79999999999995</ele>
<time>2023-05-18T11:19:17Z</time>
</trkpt>
<trkpt lat="49.35247496701777" lon="7.948889946565032">
<ele>238.60000000000002</ele>
<time>2023-05-18T11:19:18Z</time>
</trkpt>
<trkpt lat="49.35240992344916" lon="7.948881983757019">
<ele>238.60000000000002</ele>
<time>2023-05-18T11:19:19Z</time>
</trkpt>
<trkpt lat="49.35234798118472" lon="7.948876954615116">
<ele>238.39999999999998</ele>
<time>2023-05-18T11:19:20Z</time>
</trkpt>
<trkpt lat="49.35228293761611" lon="7.948877960443497">
<ele>238.39999999999998</ele>
<time>2023-05-18T11:19:21Z</time>
</trkpt>
<trkpt lat="49.35222191736102" lon="7.94888692907989">
<ele>238.20000000000005</ele>
<time>2023-05-18T11:19:22Z</time>
</trkpt>
<trkpt lat="49.35215796343982" lon="7.948896987363696">
<ele>238</ele>
<time>2023-05-18T11:19:23Z</time>
</trkpt>
<trkpt lat="49.35209291987121" lon="7.948902938514948">
<ele>238</ele>
<time>2023-05-18T11:19:24Z</time>
</trkpt>
<trkpt lat="49.35202695429325" lon="7.948911990970373">
<ele>237.79999999999995</ele>
<time>2023-05-18T11:19:25Z</time>
</trkpt>
<trkpt lat="49.35195998288691" lon="7.94892699457705">
<ele>237.79999999999995</ele>
<time>2023-05-18T11:19:26Z</time>
</trkpt>
<trkpt lat="49.35189292766154" lon="7.948939986526966">
<ele>237.60000000000002</ele>
<time>2023-05-18T11:19:27Z</time>
</trkpt>
<trkpt lat="49.35182495042682" lon="7.948954990133643">
<ele>237.39999999999998</ele>
<time>2023-05-18T11:19:28Z</time>
</trkpt>
<trkpt lat="49.351756973192096" lon="7.94897192157805">
<ele>237.39999999999998</ele>
<time>2023-05-18T11:19:29Z</time>
</trkpt>
<trkpt lat="49.351687990128994" lon="7.948986925184727">
<ele>237.20000000000005</ele>
<time>2023-05-18T11:19:30Z</time>
</trkpt>
<trkpt lat="49.35161791741848" lon="7.949002934619784">
<ele>237.20000000000005</ele>
<time>2023-05-18T11:19:31Z</time>
</trkpt>
<trkpt lat="49.35154994018376" lon="7.949022967368364">
<ele>237</ele>
<time>2023-05-18T11:19:32Z</time>
</trkpt>
<trkpt lat="49.35148296877742" lon="7.949041994288564">
<ele>237</ele>
<time>2023-05-18T11:19:33Z</time>
</trkpt>
<trkpt lat="49.3514149915427" lon="7.949061943218112">
<ele>236.79999999999995</ele>
<time>2023-05-18T11:19:34Z</time>
</trkpt>
<trkpt lat="49.351346930488944" lon="7.949079964309931">
<ele>236.79999999999995</ele>
<time>2023-05-18T11:19:35Z</time>
</trkpt>
<trkpt lat="49.35127694159746" lon="7.949099997058511">
<ele>236.60000000000002</ele>
<time>2023-05-18T11:19:36Z</time>
</trkpt>
<trkpt lat="49.35120795853436" lon="7.949117934331298">
<ele>236.60000000000002</ele>
<time>2023-05-18T11:19:37Z</time>
</trkpt>
<trkpt lat="49.35113796964288" lon="7.949136961251497">
<ele>236.39999999999998</ele>
<time>2023-05-18T11:19:38Z</time>
</trkpt>
<trkpt lat="49.351067980751395" lon="7.949156994000077">
<ele>236.39999999999998</ele>
<time>2023-05-18T11:19:39Z</time>
</trkpt>
<trkpt lat="49.35099799185991" lon="7.949174931272864">
<ele>236.20000000000005</ele>
<time>2023-05-18T11:19:40Z</time>
</trkpt>
<trkpt lat="49.35092993080616" lon="7.9491969756782055">
<ele>236.20000000000005</ele>
<time>2023-05-18T11:19:41Z</time>
</trkpt>
<trkpt lat="49.35086295939982" lon="7.949224971234798">
<ele>236.20000000000005</ele>
<time>2023-05-18T11:19:42Z</time>
</trkpt>
<trkpt lat="49.35079699382186" lon="7.949261935427785">
<ele>236</ele>
<time>2023-05-18T11:19:43Z</time>
</trkpt>
<trkpt lat="49.35073195025325" lon="7.949296971783042">
<ele>236</ele>
<time>2023-05-18T11:19:44Z</time>
</trkpt>
<trkpt lat="49.35066497884691" lon="7.949331924319267">
<ele>236</ele>
<time>2023-05-18T11:19:45Z</time>
</trkpt>
<trkpt lat="49.3505999352783" lon="7.949367966502905">
<ele>235.79999999999995</ele>
<time>2023-05-18T11:19:46Z</time>
</trkpt>
<trkpt lat="49.35053698718548" lon="7.949404930695891">
<ele>235.79999999999995</ele>
<time>2023-05-18T11:19:47Z</time>
</trkpt>
<trkpt lat="49.35047294944525" lon="7.94944197870791">
<ele>235.79999999999995</ele>
<time>2023-05-18T11:19:48Z</time>
</trkpt>
<trkpt lat="49.35041293501854" lon="7.949479948729277">
<ele>235.60000000000002</ele>
<time>2023-05-18T11:19:49Z</time>
</trkpt>
<trkpt lat="49.35035199858248" lon="7.949514985084534">
<ele>235.60000000000002</ele>
<time>2023-05-18T11:19:50Z</time>
</trkpt>
<trkpt lat="49.35028997249901" lon="7.94955194927752">
<ele>235.60000000000002</ele>
<time>2023-05-18T11:19:51Z</time>
</trkpt>
<trkpt lat="49.35022694058716" lon="7.949584973976016">
<ele>235.60000000000002</ele>
<time>2023-05-18T11:19:52Z</time>
</trkpt>
<trkpt lat="49.350162986665964" lon="7.9496219381690025">
<ele>235.60000000000002</ele>
<time>2023-05-18T11:19:53Z</time>
</trkpt>
<trkpt lat="49.35009794309735" lon="7.94965697452426">
<ele>235.39999999999998</ele>
<time>2023-05-18T11:19:54Z</time>
</trkpt>
<trkpt lat="49.35003197751939" lon="7.949687987565994">
<ele>235.39999999999998</ele>
<time>2023-05-18T11:19:55Z</time>
</trkpt>
<trkpt lat="49.34996693395078" lon="7.949719922617078">
<ele>235.20000000000005</ele>
<time>2023-05-18T11:19:56Z</time>
</trkpt>
<trkpt lat="49.3499019742012" lon="7.949749929830432">
<ele>235.20000000000005</ele>
<time>2023-05-18T11:19:57Z</time>
</trkpt>
<trkpt lat="49.34983994811773" lon="7.949781948700547">
<ele>235</ele>
<time>2023-05-18T11:19:58Z</time>
</trkpt>
<trkpt lat="49.349774988368154" lon="7.949811955913901">
<ele>235</ele>
<time>2023-05-18T11:19:59Z</time>
</trkpt>
<trkpt lat="49.349711956456304" lon="7.949837939813733">
<ele>234.79999999999995</ele>
<time>2023-05-18T11:20:00Z</time>
</trkpt>
<trkpt lat="49.349646996706724" lon="7.9498649295419455">
<ele>234.79999999999995</ele>
<time>2023-05-18T11:20:01Z</time>
</trkpt>
<trkpt lat="49.34957994148135" lon="7.949887979775667">
<ele>234.60000000000002</ele>
<time>2023-05-18T11:20:02Z</time>
</trkpt>
<trkpt lat="49.34951196424663" lon="7.949906922876835">
<ele>234.60000000000002</ele>
<time>2023-05-18T11:20:03Z</time>
</trkpt>
<trkpt lat="49.34943996369839" lon="7.9499229323118925">
<ele>234.39999999999998</ele>
<time>2023-05-18T11:20:04Z</time>
</trkpt>
<trkpt lat="49.349369974806905" lon="7.949936930090189">
<ele>234.20000000000005</ele>
<time>2023-05-18T11:20:05Z</time>
</trkpt>
<trkpt lat="49.34929797425866" lon="7.949946988373995">
<ele>234.20000000000005</ele>
<time>2023-05-18T11:20:06Z</time>
</trkpt>
<trkpt lat="49.3492269795388" lon="7.9499579686671495">
<ele>234</ele>
<time>2023-05-18T11:20:07Z</time>
</trkpt>
<trkpt lat="49.349159924313426" lon="7.949967943131924">
<ele>233.79999999999995</ele>
<time>2023-05-18T11:20:08Z</time>
</trkpt>
<trkpt lat="49.34909496456385" lon="7.949976995587349">
<ele>233.60000000000002</ele>
<time>2023-05-18T11:20:09Z</time>
</trkpt>
<trkpt lat="49.34903293848038" lon="7.949977917596698">
<ele>233.39999999999998</ele>
<time>2023-05-18T11:20:10Z</time>
</trkpt>
<trkpt lat="49.34896999038756" lon="7.949989987537265">
<ele>233.20000000000005</ele>
<time>2023-05-18T11:20:11Z</time>
</trkpt>
<trkpt lat="49.34890796430409" lon="7.949999962002039">
<ele>233</ele>
<time>2023-05-18T11:20:12Z</time>
</trkpt>
<trkpt lat="49.34884794987738" lon="7.950012953951955">
<ele>232.79999999999995</ele>
<time>2023-05-18T11:20:13Z</time>
</trkpt>
<trkpt lat="49.348791958764195" lon="7.95002494007349">
<ele>232.60000000000002</ele>
<time>2023-05-18T11:20:14Z</time>
</trkpt>
<trkpt lat="49.34873797930777" lon="7.950049918144941">
<ele>232.39999999999998</ele>
<time>2023-05-18T11:20:15Z</time>
</trkpt>
<trkpt lat="49.34869196265936" lon="7.950064921751618">
<ele>232.20000000000005</ele>
<time>2023-05-18T11:20:16Z</time>
</trkpt>
<trkpt lat="49.34865499846637" lon="7.950089983642101">
<ele>231.79999999999995</ele>
<time>2023-05-18T11:20:17Z</time>
</trkpt>
<trkpt lat="49.34862197376788" lon="7.950112950056791">
<ele>231.60000000000002</ele>
<time>2023-05-18T11:20:18Z</time>
</trkpt>
<trkpt lat="49.348587943241" lon="7.950132982805371">
<ele>231.39999999999998</ele>
<time>2023-05-18T11:20:19Z</time>
</trkpt>
<trkpt lat="49.34855994768441" lon="7.950147986412048">
<ele>231.20000000000005</ele>
<time>2023-05-18T11:20:20Z</time>
</trkpt>
<trkpt lat="49.34853698126972" lon="7.9501529317349195">
<ele>231</ele>
<time>2023-05-18T11:20:21Z</time>
</trkpt>
<trkpt lat="49.34851996600628" lon="7.950146980583668">
<ele>230.79999999999995</ele>
<time>2023-05-18T11:20:22Z</time>
</trkpt>
<trkpt lat="49.3485049623996" lon="7.950126947835088">
<ele>230.60000000000002</ele>
<time>2023-05-18T11:20:23Z</time>
</trkpt>
<trkpt lat="49.34849297627807" lon="7.950097946450114">
<ele>230.60000000000002</ele>
<time>2023-05-18T11:20:24Z</time>
</trkpt>
<trkpt lat="49.34848492965102" lon="7.950069950893521">
<ele>230.39999999999998</ele>
<time>2023-05-18T11:20:25Z</time>
</trkpt>
<trkpt lat="49.34848199598491" lon="7.950032986700535">
<ele>230.20000000000005</ele>
<time>2023-05-18T11:20:26Z</time>
</trkpt>
<trkpt lat="49.34847696684301" lon="7.949994932860136">
<ele>230.20000000000005</ele>
<time>2023-05-18T11:20:27Z</time>
</trkpt>
<trkpt lat="49.348469926044345" lon="7.949949922040105">
<ele>230</ele>
<time>2023-05-18T11:20:28Z</time>
</trkpt>
<trkpt lat="49.34846196323633" lon="7.949896948412061">
<ele>230</ele>
<time>2023-05-18T11:20:29Z</time>
</trkpt>
<trkpt lat="49.348447965458035" lon="7.949837939813733">
<ele>230</ele>
<time>2023-05-18T11:20:30Z</time>
</trkpt>
<trkpt lat="49.34843296185136" lon="7.949767950922251">
<ele>229.79999999999995</ele>
<time>2023-05-18T11:20:31Z</time>
</trkpt>
<trkpt lat="49.34841996990144" lon="7.949701985344291">
<ele>229.79999999999995</ele>
<time>2023-05-18T11:20:32Z</time>
</trkpt>
<trkpt lat="49.34840798377991" lon="7.949631996452808">
<ele>229.60000000000002</ele>
<time>2023-05-18T11:20:33Z</time>
</trkpt>
<trkpt lat="49.34839499182999" lon="7.949552955105901">
<ele>229.60000000000002</ele>
<time>2023-05-18T11:20:34Z</time>
</trkpt>
<trkpt lat="49.348379988223314" lon="7.949471985921264">
<ele>229.39999999999998</ele>
<time>2023-05-18T11:20:35Z</time>
</trkpt>
<trkpt lat="49.348362972959876" lon="7.949389927089214">
<ele>229.39999999999998</ele>
<time>2023-05-18T11:20:36Z</time>
</trkpt>
<trkpt lat="49.34834495186806" lon="7.949319938197732">
<ele>229.39999999999998</ele>
<time>2023-05-18T11:20:37Z</time>
</trkpt>
<trkpt lat="49.34832491911948" lon="7.94924994930625">
<ele>229.20000000000005</ele>
<time>2023-05-18T11:20:38Z</time>
</trkpt>
<trkpt lat="49.34830295853317" lon="7.949182977899909">
<ele>229.20000000000005</ele>
<time>2023-05-18T11:20:39Z</time>
</trkpt>
<trkpt lat="49.34826792217791" lon="7.949111983180046">
<ele>229.20000000000005</ele>
<time>2023-05-18T11:20:40Z</time>
</trkpt>
<trkpt lat="49.34823498129845" lon="7.949046939611435">
<ele>229.20000000000005</ele>
<time>2023-05-18T11:20:41Z</time>
</trkpt>
<trkpt lat="49.34820195659995" lon="7.948984997346997">
<ele>229.20000000000005</ele>
<time>2023-05-18T11:20:42Z</time>
</trkpt>
<trkpt lat="49.348164992406964" lon="7.94892699457705">
<ele>229.20000000000005</ele>
<time>2023-05-18T11:20:43Z</time>
</trkpt>
<trkpt lat="49.348126938566566" lon="7.948867985978723">
<ele>229.20000000000005</ele>
<time>2023-05-18T11:20:44Z</time>
</trkpt>
<trkpt lat="49.34808695688844" lon="7.948807971552014">
<ele>229.20000000000005</ele>
<time>2023-05-18T11:20:45Z</time>
</trkpt>
<trkpt lat="49.34804999269545" lon="7.9487469512969255">
<ele>229.20000000000005</ele>
<time>2023-05-18T11:20:46Z</time>
</trkpt>
<trkpt lat="49.34801294468343" lon="7.948686936870217">
<ele>229.39999999999998</ele>
<time>2023-05-18T11:20:47Z</time>
</trkpt>
<trkpt lat="49.347972963005304" lon="7.94862792827189">
<ele>229.39999999999998</ele>
<time>2023-05-18T11:20:48Z</time>
</trkpt>
<trkpt lat="49.34793993830681" lon="7.948571937158704">
<ele>229.60000000000002</ele>
<time>2023-05-18T11:20:49Z</time>
</trkpt>
<trkpt lat="49.34790498577058" lon="7.948509994894266">
<ele>229.60000000000002</ele>
<time>2023-05-18T11:20:50Z</time>
</trkpt>
<trkpt lat="49.34787296690047" lon="7.948447968810797">
<ele>229.79999999999995</ele>
<time>2023-05-18T11:20:51Z</time>
</trkpt>
<trkpt lat="49.347842959687114" lon="7.948384936898947">
<ele>230</ele>
<time>2023-05-18T11:20:52Z</time>
</trkpt>
<trkpt lat="49.34781194664538" lon="7.948322994634509">
<ele>230</ele>
<time>2023-05-18T11:20:53Z</time>
</trkpt>
<trkpt lat="49.347782945260406" lon="7.948264991864562">
<ele>230.20000000000005</ele>
<time>2023-05-18T11:20:54Z</time>
</trkpt>
<trkpt lat="49.34775494970381" lon="7.948202965781093">
<ele>230.39999999999998</ele>
<time>2023-05-18T11:20:55Z</time>
</trkpt>
<trkpt lat="49.34772494249046" lon="7.948141945526004">
<ele>230.39999999999998</ele>
<time>2023-05-18T11:20:56Z</time>
</trkpt>
<trkpt lat="49.347696946933866" lon="7.9480799194425344">
<ele>230.60000000000002</ele>
<time>2023-05-18T11:20:57Z</time>
</trkpt>
<trkpt lat="49.34766794554889" lon="7.948014959692955">
<ele>230.60000000000002</ele>
<time>2023-05-18T11:20:58Z</time>
</trkpt>
<trkpt lat="49.34764296747744" lon="7.947949999943376">
<ele>230.79999999999995</ele>
<time>2023-05-18T11:20:59Z</time>
</trkpt>
<trkpt lat="49.34761698357761" lon="7.9478769935667515">
<ele>230.79999999999995</ele>
<time>2023-05-18T11:21:00Z</time>
</trkpt>
<trkpt lat="49.34759292751551" lon="7.947802981361747">
<ele>231</ele>
<time>2023-05-18T11:21:01Z</time>
</trkpt>
<trkpt lat="49.34756996110082" lon="7.9477279633283615">
<ele>231</ele>
<time>2023-05-18T11:21:02Z</time>
</trkpt>
<trkpt lat="49.347547916695476" lon="7.947646994143724">
<ele>231</ele>
<time>2023-05-18T11:21:03Z</time>
</trkpt>
<trkpt lat="49.34752796776593" lon="7.947561917826533">
<ele>231</ele>
<time>2023-05-18T11:21:04Z</time>
</trkpt>
<trkpt lat="49.34750793501735" lon="7.947472985833883">
<ele>231</ele>
<time>2023-05-18T11:21:05Z</time>
</trkpt>
<trkpt lat="49.3474879860878" lon="7.947384975850582">
<ele>231</ele>
<time>2023-05-18T11:21:06Z</time>
</trkpt>
<trkpt lat="49.34747298248112" lon="7.947296965867281">
<ele>231</ele>
<time>2023-05-18T11:21:07Z</time>
</trkpt>
<trkpt lat="49.347457978874445" lon="7.947202920913696">
<ele>231</ele>
<time>2023-05-18T11:21:08Z</time>
</trkpt>
<trkpt lat="49.34744699858129" lon="7.947107953950763">
<ele>231</ele>
<time>2023-05-18T11:21:09Z</time>
</trkpt>
<trkpt lat="49.34743291698396" lon="7.947011981159449">
<ele>231</ele>
<time>2023-05-18T11:21:10Z</time>
</trkpt>
<trkpt lat="49.34742294251919" lon="7.946912990882993">
<ele>231</ele>
<time>2023-05-18T11:21:11Z</time>
</trkpt>
<trkpt lat="49.347416991367936" lon="7.946816934272647">
<ele>231</ele>
<time>2023-05-18T11:21:12Z</time>
</trkpt>
<trkpt lat="49.347412968054414" lon="7.946719955652952">
<ele>231</ele>
<time>2023-05-18T11:21:13Z</time>
</trkpt>
<trkpt lat="49.34742696583271" lon="7.946621971204877">
<ele>230.79999999999995</ele>
<time>2023-05-18T11:21:14Z</time>
</trkpt>
<trkpt lat="49.34744297526777" lon="7.946519963443279">
<ele>230.79999999999995</ele>
<time>2023-05-18T11:21:15Z</time>
</trkpt>
<trkpt lat="49.347456973046064" lon="7.946422984823585">
<ele>230.79999999999995</ele>
<time>2023-05-18T11:21:16Z</time>
</trkpt>
<trkpt lat="49.34746795333922" lon="7.946331957355142">
<ele>230.79999999999995</ele>
<time>2023-05-18T11:21:17Z</time>
</trkpt>
<trkpt lat="49.34747692197561" lon="7.946239924058318">
<ele>230.79999999999995</ele>
<time>2023-05-18T11:21:18Z</time>
</trkpt>
<trkpt lat="49.34748698025942" lon="7.946152919903398">
<ele>230.60000000000002</ele>
<time>2023-05-18T11:21:19Z</time>
</trkpt>
<trkpt lat="49.347501983866096" lon="7.946064993739128">
<ele>230.60000000000002</ele>
<time>2023-05-18T11:21:20Z</time>
</trkpt>
<trkpt lat="49.34751992113888" lon="7.945982934907079">
<ele>230.60000000000002</ele>
<time>2023-05-18T11:21:21Z</time>
</trkpt>
<trkpt lat="49.34753995388746" lon="7.945901965722442">
<ele>230.60000000000002</ele>
<time>2023-05-18T11:21:22Z</time>
</trkpt>
<trkpt lat="49.347561998292804" lon="7.945822924375534">
<ele>230.60000000000002</ele>
<time>2023-05-18T11:21:23Z</time>
</trkpt>
<trkpt lat="49.34758295305073" lon="7.945744972676039">
<ele>230.60000000000002</ele>
<time>2023-05-18T11:21:24Z</time>
</trkpt>
<trkpt lat="49.347604997456074" lon="7.9456649255007505">
<ele>230.60000000000002</ele>
<time>2023-05-18T11:21:25Z</time>
</trkpt>
<trkpt lat="49.347629975527525" lon="7.945581944659352">
<ele>230.60000000000002</ele>
<time>2023-05-18T11:21:26Z</time>
</trkpt>
<trkpt lat="49.34765696525574" lon="7.945502987131476">
<ele>230.60000000000002</ele>
<time>2023-05-18T11:21:27Z</time>
</trkpt>
<trkpt lat="49.34768294915557" lon="7.945427969098091">
<ele>230.60000000000002</ele>
<time>2023-05-18T11:21:28Z</time>
</trkpt>
<trkpt lat="49.34771295636892" lon="7.94535999186337">
<ele>230.60000000000002</ele>
<time>2023-05-18T11:21:29Z</time>
</trkpt>
<trkpt lat="49.347739946097136" lon="7.945286985486746">
<ele>230.79999999999995</ele>
<time>2023-05-18T11:21:30Z</time>
</trkpt>
<trkpt lat="49.34776995331049" lon="7.9452199302613735">
<ele>230.79999999999995</ele>
<time>2023-05-18T11:21:31Z</time>
</trkpt>
<trkpt lat="49.34779794886708" lon="7.945152958855033">
<ele>230.79999999999995</ele>
<time>2023-05-18T11:21:32Z</time>
</trkpt>
<trkpt lat="49.347824938595295" lon="7.945089926943183">
<ele>231</ele>
<time>2023-05-18T11:21:33Z</time>
</trkpt>
<trkpt lat="49.34785796329379" lon="7.945031924173236">
<ele>231</ele>
<time>2023-05-18T11:21:34Z</time>
</trkpt>
<trkpt lat="49.34788193553686" lon="7.944979956373572">
<ele>231.20000000000005</ele>
<time>2023-05-18T11:21:35Z</time>
</trkpt>
<trkpt lat="49.3479179777205" lon="7.944931928068399">
<ele>231.39999999999998</ele>
<time>2023-05-18T11:21:36Z</time>
</trkpt>
<trkpt lat="49.347952930256724" lon="7.944877948611975">
<ele>231.39999999999998</ele>
<time>2023-05-18T11:21:37Z</time>
</trkpt>
<trkpt lat="49.34798796661198" lon="7.944824974983931">
<ele>231.60000000000002</ele>
<time>2023-05-18T11:21:38Z</time>
</trkpt>
<trkpt lat="49.34802794829011" lon="7.944776946678758">
<ele>231.60000000000002</ele>
<time>2023-05-18T11:21:39Z</time>
</trkpt>
<trkpt lat="49.348069941625" lon="7.944727996364236">
<ele>231.79999999999995</ele>
<time>2023-05-18T11:21:40Z</time>
</trkpt>
<trkpt lat="49.34811495244503" lon="7.944679968059063">
<ele>231.79999999999995</ele>
<time>2023-05-18T11:21:41Z</time>
</trkpt>
<trkpt lat="49.34815694577992" lon="7.94463193975389">
<ele>231.79999999999995</ele>
<time>2023-05-18T11:21:42Z</time>
</trkpt>
<trkpt lat="49.34819793328643" lon="7.944572931155562">
<ele>231.79999999999995</ele>
<time>2023-05-18T11:21:43Z</time>
</trkpt>
<trkpt lat="49.348249984905124" lon="7.94452297501266">
<ele>232</ele>
<time>2023-05-18T11:21:44Z</time>
</trkpt>
<trkpt lat="49.348299941048026" lon="7.944476958364248">
<ele>232</ele>
<time>2023-05-18T11:21:45Z</time>
</trkpt>
<trkpt lat="49.348359955474734" lon="7.94443697668612">
<ele>232</ele>
<time>2023-05-18T11:21:46Z</time>
</trkpt>
<trkpt lat="49.3484169524163" lon="7.944402946159244">
<ele>232</ele>
<time>2023-05-18T11:21:47Z</time>
</trkpt>
<trkpt lat="49.34847495518625" lon="7.9443729389458895">
<ele>232</ele>
<time>2023-05-18T11:21:48Z</time>
</trkpt>
<trkpt lat="49.34852994047105" lon="7.944336980581284">
<ele>232</ele>
<time>2023-05-18T11:21:49Z</time>
</trkpt>
<trkpt lat="49.34858199208975" lon="7.944311918690801">
<ele>232</ele>
<time>2023-05-18T11:21:50Z</time>
</trkpt>
<trkpt lat="49.348637983202934" lon="7.944292975589633">
<ele>232</ele>
<time>2023-05-18T11:21:51Z</time>
</trkpt>
<trkpt lat="49.34869296848774" lon="7.94426498003304">
<ele>232</ele>
<time>2023-05-18T11:21:52Z</time>
</trkpt>
<trkpt lat="49.348747953772545" lon="7.94424494728446">
<ele>232</ele>
<time>2023-05-18T11:21:53Z</time>
</trkpt>
<trkpt lat="49.34880495071411" lon="7.944227932021022">
<ele>232</ele>
<time>2023-05-18T11:21:54Z</time>
</trkpt>
<trkpt lat="49.34886194765568" lon="7.944202953949571">
<ele>232</ele>
<time>2023-05-18T11:21:55Z</time>
</trkpt>
<trkpt lat="49.348919950425625" lon="7.944174958392978">
<ele>232</ele>
<time>2023-05-18T11:21:56Z</time>
</trkpt>
<trkpt lat="49.34897292405367" lon="7.944147968664765">
<ele>232</ele>
<time>2023-05-18T11:21:57Z</time>
</trkpt>
<trkpt lat="49.3490229640156" lon="7.944119973108172">
<ele>232</ele>
<time>2023-05-18T11:21:58Z</time>
</trkpt>
<trkpt lat="49.34907493181527" lon="7.944101952016354">
<ele>232</ele>
<time>2023-05-18T11:21:59Z</time>
</trkpt>
<trkpt lat="49.3491199426353" lon="7.944079991430044">
<ele>232</ele>
<time>2023-05-18T11:22:00Z</time>
</trkpt>
<trkpt lat="49.3491579964757" lon="7.944042943418026">
<ele>232</ele>
<time>2023-05-18T11:22:01Z</time>
</trkpt>
<trkpt lat="49.349202923476696" lon="7.944021988660097">
<ele>232</ele>
<time>2023-05-18T11:22:02Z</time>
</trkpt>
<trkpt lat="49.34925195761025" lon="7.944001955911517">
<ele>232</ele>
<time>2023-05-18T11:22:03Z</time>
</trkpt>
<trkpt lat="49.349306942895055" lon="7.94398695230484">
<ele>232</ele>
<time>2023-05-18T11:22:04Z</time>
</trkpt>
<trkpt lat="49.34935698285699" lon="7.94396691955626">
<ele>232.20000000000005</ele>
<time>2023-05-18T11:22:05Z</time>
</trkpt>
<trkpt lat="49.34940492734313" lon="7.943936996161938">
<ele>232.20000000000005</ele>
<time>2023-05-18T11:22:06Z</time>
</trkpt>
<trkpt lat="49.349454967305064" lon="7.943911934271455">
<ele>232.20000000000005</ele>
<time>2023-05-18T11:22:07Z</time>
</trkpt>
<trkpt lat="49.34950492344797" lon="7.943892991170287">
<ele>232.20000000000005</ele>
<time>2023-05-18T11:22:08Z</time>
</trkpt>
<trkpt lat="49.3495549634099" lon="7.943871952593327">
<ele>232.39999999999998</ele>
<time>2023-05-18T11:22:09Z</time>
</trkpt>
<trkpt lat="49.349602991715074" lon="7.943846974521875">
<ele>232.39999999999998</ele>
<time>2023-05-18T11:22:10Z</time>
</trkpt>
<trkpt lat="49.34964498504996" lon="7.943811938166618">
<ele>232.39999999999998</ele>
<time>2023-05-18T11:22:11Z</time>
</trkpt>
<trkpt lat="49.349691923707724" lon="7.943777991458774">
<ele>232.60000000000002</ele>
<time>2023-05-18T11:22:12Z</time>
</trkpt>
<trkpt lat="49.349737940356135" lon="7.943746978417039">
<ele>232.60000000000002</ele>
<time>2023-05-18T11:22:13Z</time>
</trkpt>
<trkpt lat="49.34978496283293" lon="7.9437079187482595">
<ele>232.79999999999995</ele>
<time>2023-05-18T11:22:14Z</time>
</trkpt>
<trkpt lat="49.34982997365296" lon="7.9436649195849895">
<ele>232.79999999999995</ele>
<time>2023-05-18T11:22:15Z</time>
</trkpt>
<trkpt lat="49.34987992979586" lon="7.943629967048764">
<ele>232.79999999999995</ele>
<time>2023-05-18T11:22:16Z</time>
</trkpt>
<trkpt lat="49.34992494061589" lon="7.943586967885494">
<ele>233</ele>
<time>2023-05-18T11:22:17Z</time>
</trkpt>
<trkpt lat="49.34997699223459" lon="7.943547992035747">
<ele>233</ele>
<time>2023-05-18T11:22:18Z</time>
</trkpt>
<trkpt lat="49.35002292506397" lon="7.943507926538587">
<ele>233</ele>
<time>2023-05-18T11:22:19Z</time>
</trkpt>
<trkpt lat="49.35007195919752" lon="7.9434699565172195">
<ele>233.20000000000005</ele>
<time>2023-05-18T11:22:20Z</time>
</trkpt>
<trkpt lat="49.35011697001755" lon="7.94342796318233">
<ele>233.20000000000005</ele>
<time>2023-05-18T11:22:21Z</time>
</trkpt>
<trkpt lat="49.35014999471605" lon="7.943377923220396">
<ele>233.20000000000005</ele>
<time>2023-05-18T11:22:22Z</time>
</trkpt>
<trkpt lat="49.35020296834409" lon="7.943329978734255">
<ele>233.20000000000005</ele>
<time>2023-05-18T11:22:23Z</time>
</trkpt>
<trkpt lat="49.350251918658614" lon="7.943279938772321">
<ele>233.20000000000005</ele>
<time>2023-05-18T11:22:24Z</time>
</trkpt>
<trkpt lat="49.350297935307026" lon="7.943232916295528">
<ele>233.20000000000005</ele>
<time>2023-05-18T11:22:25Z</time>
</trkpt>
<trkpt lat="49.35034294612706" lon="7.9431929346174">
<ele>233.20000000000005</ele>
<time>2023-05-18T11:22:26Z</time>
</trkpt>
<trkpt lat="49.350382927805185" lon="7.94314993545413">
<ele>233.20000000000005</ele>
<time>2023-05-18T11:22:27Z</time>
</trkpt>
<trkpt lat="49.350422993302345" lon="7.9431029967963696">
<ele>233.20000000000005</ele>
<time>2023-05-18T11:22:28Z</time>
</trkpt>
<trkpt lat="49.35045794583857" lon="7.94306293129921">
<ele>233.20000000000005</ele>
<time>2023-05-18T11:22:29Z</time>
</trkpt>
<trkpt lat="49.350489964708686" lon="7.94301993213594">
<ele>233.20000000000005</ele>
<time>2023-05-18T11:22:30Z</time>
</trkpt>
<trkpt lat="49.35051494278014" lon="7.942972993478179">
<ele>233.20000000000005</ele>
<time>2023-05-18T11:22:31Z</time>
</trkpt>
<trkpt lat="49.35053698718548" lon="7.942932927981019">
<ele>233.20000000000005</ele>
<time>2023-05-18T11:22:32Z</time>
</trkpt>
<trkpt lat="49.35055794194341" lon="7.942892946302891">
<ele>233.20000000000005</ele>
<time>2023-05-18T11:22:33Z</time>
</trkpt>
<trkpt lat="49.35057998634875" lon="7.942849947139621">
<ele>233.39999999999998</ele>
<time>2023-05-18T11:22:34Z</time>
</trkpt>
<trkpt lat="49.3505999352783" lon="7.94280493631959">
<ele>233.39999999999998</ele>
<time>2023-05-18T11:22:35Z</time>
</trkpt>
<trkpt lat="49.35062499716878" lon="7.942764954641461">
<ele>233.39999999999998</ele>
<time>2023-05-18T11:22:36Z</time>
</trkpt>
<trkpt lat="49.35064695775509" lon="7.9427169263362885">
<ele>233.39999999999998</ele>
<time>2023-05-18T11:22:37Z</time>
</trkpt>
<trkpt lat="49.35066699050367" lon="7.942667976021767">
<ele>233.39999999999998</ele>
<time>2023-05-18T11:22:38Z</time>
</trkpt>
<trkpt lat="49.350684927776456" lon="7.942619947716594">
<ele>233.39999999999998</ele>
<time>2023-05-18T11:22:39Z</time>
</trkpt>
<trkpt lat="49.35069993138313" lon="7.94256797991693">
<ele>233.39999999999998</ele>
<time>2023-05-18T11:22:40Z</time>
</trkpt>
<trkpt lat="49.35071694664657" lon="7.9425169341266155">
<ele>233.39999999999998</ele>
<time>2023-05-18T11:22:41Z</time>
</trkpt>
<trkpt lat="49.35073295608163" lon="7.942462954670191">
<ele>233.39999999999998</ele>
<time>2023-05-18T11:22:42Z</time>
</trkpt>
<trkpt lat="49.350747959688306" lon="7.942404951900244">
<ele>233.39999999999998</ele>
<time>2023-05-18T11:22:43Z</time>
</trkpt>
<trkpt lat="49.3507619574666" lon="7.942339992150664">
<ele>233.39999999999998</ele>
<time>2023-05-18T11:22:44Z</time>
</trkpt>
<trkpt lat="49.35078199021518" lon="7.942274948582053">
<ele>233.39999999999998</ele>
<time>2023-05-18T11:22:45Z</time>
</trkpt>
<trkpt lat="49.35080495662987" lon="7.942212922498584">
<ele>233.39999999999998</ele>
<time>2023-05-18T11:22:46Z</time>
</trkpt>
<trkpt lat="49.350831946358085" lon="7.942151986062527">
<ele>233.39999999999998</ele>
<time>2023-05-18T11:22:47Z</time>
</trkpt>
<trkpt lat="49.35086195357144" lon="7.942092977464199">
<ele>233.39999999999998</ele>
<time>2023-05-18T11:22:48Z</time>
</trkpt>
<trkpt lat="49.350876957178116" lon="7.942036986351013">
<ele>233.39999999999998</ele>
<time>2023-05-18T11:22:49Z</time>
</trkpt>
<trkpt lat="49.350899923592806" lon="7.941972948610783">
<ele>233.39999999999998</ele>
<time>2023-05-18T11:22:50Z</time>
</trkpt>
<trkpt lat="49.350916938856244" lon="7.941909916698933">
<ele>233.39999999999998</ele>
<time>2023-05-18T11:22:51Z</time>
</trkpt>
<trkpt lat="49.35093495994806" lon="7.941842945292592">
<ele>233.39999999999998</ele>
<time>2023-05-18T11:22:52Z</time>
</trkpt>
<trkpt lat="49.35094996355474" lon="7.941774968057871">
<ele>233.60000000000002</ele>
<time>2023-05-18T11:22:53Z</time>
</trkpt>
<trkpt lat="49.35096496716142" lon="7.941702967509627">
<ele>233.60000000000002</ele>
<time>2023-05-18T11:22:54Z</time>
</trkpt>
<trkpt lat="49.350982988253236" lon="7.941629961133003">
<ele>233.60000000000002</ele>
<time>2023-05-18T11:22:55Z</time>
</trkpt>
<trkpt lat="49.35099497437477" lon="7.94155796058476">
<ele>233.60000000000002</ele>
<time>2023-05-18T11:22:56Z</time>
</trkpt>
<trkpt lat="49.351004948839545" lon="7.941487971693277">
<ele>233.60000000000002</ele>
<time>2023-05-18T11:22:57Z</time>
</trkpt>
<trkpt lat="49.35101995244622" lon="7.941417982801795">
<ele>233.79999999999995</ele>
<time>2023-05-18T11:22:58Z</time>
</trkpt>
<trkpt lat="49.3510349560529" lon="7.941351933404803">
<ele>233.79999999999995</ele>
<time>2023-05-18T11:22:59Z</time>
</trkpt>
<trkpt lat="49.351047948002815" lon="7.941286973655224">
<ele>234</ele>
<time>2023-05-18T11:23:00Z</time>
</trkpt>
<trkpt lat="49.35106194578111" lon="7.941222935914993">
<ele>234</ele>
<time>2023-05-18T11:23:01Z</time>
</trkpt>
<trkpt lat="49.351071920245886" lon="7.941161999478936">
<ele>234.20000000000005</ele>
<time>2023-05-18T11:23:02Z</time>
</trkpt>
<trkpt lat="49.35108197852969" lon="7.941097961738706">
<ele>234.20000000000005</ele>
<time>2023-05-18T11:23:03Z</time>
</trkpt>
<trkpt lat="49.351091952994466" lon="7.941034929826856">
<ele>234.39999999999998</ele>
<time>2023-05-18T11:23:04Z</time>
</trkpt>
<trkpt lat="49.35109999962151" lon="7.940971981734037">
<ele>234.39999999999998</ele>
<time>2023-05-18T11:23:05Z</time>
</trkpt>
<trkpt lat="49.35110695660114" lon="7.940906938165426">
<ele>234.60000000000002</ele>
<time>2023-05-18T11:23:06Z</time>
</trkpt>
<trkpt lat="49.351109974086285" lon="7.940842984244227">
<ele>234.60000000000002</ele>
<time>2023-05-18T11:23:07Z</time>
</trkpt>
<trkpt lat="49.351114919409156" lon="7.940781963989139">
<ele>234.79999999999995</ele>
<time>2023-05-18T11:23:08Z</time>
</trkpt>
<trkpt lat="49.35112196020782" lon="7.940724967047572">
<ele>234.79999999999995</ele>
<time>2023-05-18T11:23:09Z</time>
</trkpt>
<trkpt lat="49.3511279951781" lon="7.940664952620864">
<ele>235</ele>
<time>2023-05-18T11:23:10Z</time>
</trkpt>
<trkpt lat="49.35113796964288" lon="7.940606949850917">
<ele>235</ele>
<time>2023-05-18T11:23:11Z</time>
</trkpt>
<trkpt lat="49.35114794410765" lon="7.940546935424209">
<ele>235</ele>
<time>2023-05-18T11:23:12Z</time>
</trkpt>
<trkpt lat="49.35115993022919" lon="7.940487926825881">
<ele>235.20000000000005</ele>
<time>2023-05-18T11:23:13Z</time>
</trkpt>
<trkpt lat="49.35116797685623" lon="7.9404279962182045">
<ele>235.20000000000005</ele>
<time>2023-05-18T11:23:14Z</time>
</trkpt>
<trkpt lat="49.351177951321006" lon="7.940371921285987">
<ele>235.20000000000005</ele>
<time>2023-05-18T11:23:15Z</time>
</trkpt>
<trkpt lat="49.35118792578578" lon="7.940316936001182">
<ele>235.20000000000005</ele>
<time>2023-05-18T11:23:16Z</time>
</trkpt>
<trkpt lat="49.35119999572635" lon="7.940257927402854">
<ele>235.39999999999998</ele>
<time>2023-05-18T11:23:17Z</time>
</trkpt>
<trkpt lat="49.35120997019112" lon="7.940201936289668">
<ele>235.39999999999998</ele>
<time>2023-05-18T11:23:18Z</time>
</trkpt>
<trkpt lat="49.35121692717075" lon="7.9401429276913404">
<ele>235.60000000000002</ele>
<time>2023-05-18T11:23:19Z</time>
</trkpt>
<trkpt lat="49.351219944655895" lon="7.940082997083664">
<ele>235.60000000000002</ele>
<time>2023-05-18T11:23:20Z</time>
</trkpt>
<trkpt lat="49.35122799128294" lon="7.940022982656956">
<ele>235.79999999999995</ele>
<time>2023-05-18T11:23:21Z</time>
</trkpt>
<trkpt lat="49.35123494826257" lon="7.939961962401867">
<ele>235.79999999999995</ele>
<time>2023-05-18T11:23:22Z</time>
</trkpt>
<trkpt lat="49.351237965747714" lon="7.9398999363183975">
<ele>235.79999999999995</ele>
<time>2023-05-18T11:23:23Z</time>
</trkpt>
<trkpt lat="49.351239977404475" lon="7.93983799405396">
<ele>236</ele>
<time>2023-05-18T11:23:24Z</time>
</trkpt>
<trkpt lat="49.35124299488962" lon="7.939777979627252">
<ele>236</ele>
<time>2023-05-18T11:23:25Z</time>
</trkpt>
<trkpt lat="49.351244922727346" lon="7.939719976857305">
<ele>236</ele>
<time>2023-05-18T11:23:26Z</time>
</trkpt>
<trkpt lat="49.351244922727346" lon="7.939657950773835">
<ele>236.20000000000005</ele>
<time>2023-05-18T11:23:27Z</time>
</trkpt>
<trkpt lat="49.351244922727346" lon="7.939592991024256">
<ele>236.20000000000005</ele>
<time>2023-05-18T11:23:28Z</time>
</trkpt>
<trkpt lat="49.351241989061236" lon="7.939529959112406">
<ele>236.39999999999998</ele>
<time>2023-05-18T11:23:29Z</time>
</trkpt>
<trkpt lat="49.35123293660581" lon="7.939466927200556">
<ele>236.39999999999998</ele>
<time>2023-05-18T11:23:30Z</time>
</trkpt>
<trkpt lat="49.3512249737978" lon="7.939397944137454">
<ele>236.39999999999998</ele>
<time>2023-05-18T11:23:31Z</time>
</trkpt>
<trkpt lat="49.35121298767626" lon="7.939329966902733">
<ele>236.39999999999998</ele>
<time>2023-05-18T11:23:32Z</time>
</trkpt>
<trkpt lat="49.351197984069586" lon="7.939262995496392">
<ele>236.20000000000005</ele>
<time>2023-05-18T11:23:33Z</time>
</trkpt>
<trkpt lat="49.351177951321006" lon="7.939199963584542">
<ele>236.20000000000005</ele>
<time>2023-05-18T11:23:34Z</time>
</trkpt>
<trkpt lat="49.35115699656308" lon="7.939137937501073">
<ele>236.20000000000005</ele>
<time>2023-05-18T11:23:35Z</time>
</trkpt>
<trkpt lat="49.351131934672594" lon="7.939076917245984">
<ele>236</ele>
<time>2023-05-18T11:23:36Z</time>
</trkpt>
<trkpt lat="49.351109974086285" lon="7.939012963324785">
<ele>236</ele>
<time>2023-05-18T11:23:37Z</time>
</trkpt>
<trkpt lat="49.35108692385256" lon="7.938947919756174">
<ele>236</ele>
<time>2023-05-18T11:23:38Z</time>
</trkpt>
<trkpt lat="49.35106496326625" lon="7.938884971663356">
<ele>236</ele>
<time>2023-05-18T11:23:39Z</time>
</trkpt>
<trkpt lat="49.35105197131634" lon="7.938822945579886">
<ele>236</ele>
<time>2023-05-18T11:23:40Z</time>
</trkpt>
<trkpt lat="49.351046942174435" lon="7.938764942809939">
<ele>235.79999999999995</ele>
<time>2023-05-18T11:23:41Z</time>
</trkpt>
<trkpt lat="49.35104291886091" lon="7.938707945868373">
<ele>235.79999999999995</ele>
<time>2023-05-18T11:23:42Z</time>
</trkpt>
<trkpt lat="49.35104291886091" lon="7.938649943098426">
<ele>235.60000000000002</ele>
<time>2023-05-18T11:23:43Z</time>
</trkpt>
<trkpt lat="49.35105197131634" lon="7.938591940328479">
<ele>235.39999999999998</ele>
<time>2023-05-18T11:23:44Z</time>
</trkpt>
<trkpt lat="49.35105498880148" lon="7.938526980578899">
<ele>235.39999999999998</ele>
<time>2023-05-18T11:23:45Z</time>
</trkpt>
<trkpt lat="49.35105498880148" lon="7.938457997515798">
<ele>235.20000000000005</ele>
<time>2023-05-18T11:23:46Z</time>
</trkpt>
<trkpt lat="49.35104493051767" lon="7.938391948118806">
<ele>235</ele>
<time>2023-05-18T11:23:47Z</time>
</trkpt>
<trkpt lat="49.35101995244622" lon="7.9383419919759035">
<ele>235</ele>
<time>2023-05-18T11:23:48Z</time>
</trkpt>
<trkpt lat="49.350986927747726" lon="7.938309973105788">
<ele>235</ele>
<time>2023-05-18T11:23:49Z</time>
</trkpt>
<trkpt lat="49.35095298103988" lon="7.938291952013969">
<ele>235</ele>
<time>2023-05-18T11:23:50Z</time>
</trkpt>
<trkpt lat="49.350917944684625" lon="7.938277954235673">
<ele>235</ele>
<time>2023-05-18T11:23:51Z</time>
</trkpt>
<trkpt lat="49.3508829921484" lon="7.938259933143854">
<ele>235</ele>
<time>2023-05-18T11:23:52Z</time>
</trkpt>
<trkpt lat="49.35084795579314" lon="7.938237972557545">
<ele>234.79999999999995</ele>
<time>2023-05-18T11:23:53Z</time>
</trkpt>
<trkpt lat="49.350812919437885" lon="7.938211988657713">
<ele>234.79999999999995</ele>
<time>2023-05-18T11:23:54Z</time>
</trkpt>
<trkpt lat="49.35077997855842" lon="7.938189944252372">
<ele>234.79999999999995</ele>
<time>2023-05-18T11:23:55Z</time>
</trkpt>
<trkpt lat="49.3507429305464" lon="7.938171923160553">
<ele>235</ele>
<time>2023-05-18T11:23:56Z</time>
</trkpt>
<trkpt lat="49.35070797801018" lon="7.938156919553876">
<ele>235</ele>
<time>2023-05-18T11:23:57Z</time>
</trkpt>
<trkpt lat="49.35067797079682" lon="7.9381429217755795">
<ele>235</ele>
<time>2023-05-18T11:23:58Z</time>
</trkpt>
<trkpt lat="49.35064796358347" lon="7.938127918168902">
<ele>235</ele>
<time>2023-05-18T11:23:59Z</time>
</trkpt>
<trkpt lat="49.35061996802688" lon="7.938119955360889">
<ele>235.20000000000005</ele>
<time>2023-05-18T11:24:00Z</time>
</trkpt>
<trkpt lat="49.35058996081352" lon="7.938102940097451">
<ele>235.20000000000005</ele>
<time>2023-05-18T11:24:01Z</time>
</trkpt>
<trkpt lat="49.35056297108531" lon="7.938089948147535">
<ele>235.20000000000005</ele>
<time>2023-05-18T11:24:02Z</time>
</trkpt>
<trkpt lat="49.35053799301386" lon="7.938079973682761">
<ele>235.20000000000005</ele>
<time>2023-05-18T11:24:03Z</time>
</trkpt>
<trkpt lat="49.35051494278014" lon="7.938066981732845">
<ele>235.20000000000005</ele>
<time>2023-05-18T11:24:04Z</time>
</trkpt>
<trkpt lat="49.350489964708686" lon="7.93805499561131">
<ele>235.39999999999998</ele>
<time>2023-05-18T11:24:05Z</time>
</trkpt>
<trkpt lat="49.350464986637235" lon="7.938042925670743">
<ele>235.39999999999998</ele>
<time>2023-05-18T11:24:06Z</time>
</trkpt>
<trkpt lat="49.35043799690902" lon="7.938032951205969">
<ele>235.60000000000002</ele>
<time>2023-05-18T11:24:07Z</time>
</trkpt>
<trkpt lat="49.3504149466753" lon="7.938019959256053">
<ele>235.60000000000002</ele>
<time>2023-05-18T11:24:08Z</time>
</trkpt>
<trkpt lat="49.35039793141186" lon="7.938012918457389">
<ele>235.79999999999995</ele>
<time>2023-05-18T11:24:09Z</time>
</trkpt>
<trkpt lat="49.35038695111871" lon="7.93801199644804">
<ele>236</ele>
<time>2023-05-18T11:24:10Z</time>
</trkpt>
<trkpt lat="49.35037295334041" lon="7.938007973134518">
<ele>236.20000000000005</ele>
<time>2023-05-18T11:24:11Z</time>
</trkpt>
<trkpt lat="49.35035694390535" lon="7.937999926507473">
<ele>236.20000000000005</ele>
<time>2023-05-18T11:24:12Z</time>
</trkpt>
<trkpt lat="49.35034194029868" lon="7.937994981184602">
<ele>236.39999999999998</ele>
<time>2023-05-18T11:24:13Z</time>
</trkpt>
<trkpt lat="49.35032492503524" lon="7.93799196369946">
<ele>236.60000000000002</ele>
<time>2023-05-18T11:24:14Z</time>
</trkpt>
<trkpt lat="49.35030698776245" lon="7.937981989234686">
<ele>236.60000000000002</ele>
<time>2023-05-18T11:24:15Z</time>
</trkpt>
<trkpt lat="49.35028494335711" lon="7.937966985628009">
<ele>236.79999999999995</ele>
<time>2023-05-18T11:24:16Z</time>
</trkpt>
<trkpt lat="49.35026499442756" lon="7.937951982021332">
<ele>236.79999999999995</ele>
<time>2023-05-18T11:24:17Z</time>
</trkpt>
<trkpt lat="49.35024295002222" lon="7.937937984243035">
<ele>237</ele>
<time>2023-05-18T11:24:18Z</time>
</trkpt>
<trkpt lat="49.35022291727364" lon="7.937926920130849">
<ele>237</ele>
<time>2023-05-18T11:24:19Z</time>
</trkpt>
<trkpt lat="49.35019793920219" lon="7.937924992293119">
<ele>237.20000000000005</ele>
<time>2023-05-18T11:24:20Z</time>
</trkpt>
<trkpt lat="49.35017195530236" lon="7.9379399958997965">
<ele>237.20000000000005</ele>
<time>2023-05-18T11:24:21Z</time>
</trkpt>
<trkpt lat="49.35014999471605" lon="7.937974948436022">
<ele>237.20000000000005</ele>
<time>2023-05-18T11:24:22Z</time>
</trkpt>
<trkpt lat="49.35013197362423" lon="7.938016941770911">
<ele>237.39999999999998</ele>
<time>2023-05-18T11:24:23Z</time>
</trkpt>
<trkpt lat="49.350122921168804" lon="7.938064970076084">
<ele>237.39999999999998</ele>
<time>2023-05-18T11:24:24Z</time>
</trkpt>
<trkpt lat="49.35011294670403" lon="7.9381149262189865">
<ele>237.39999999999998</ele>
<time>2023-05-18T11:24:25Z</time>
</trkpt>
<trkpt lat="49.350102972239256" lon="7.938161948695779">
<ele>237.60000000000002</ele>
<time>2023-05-18T11:24:26Z</time>
</trkpt>
<trkpt lat="49.3500919919461" lon="7.938209977000952">
<ele>237.60000000000002</ele>
<time>2023-05-18T11:24:27Z</time>
</trkpt>
<trkpt lat="49.350079922005534" lon="7.938261944800615">
<ele>237.79999999999995</ele>
<time>2023-05-18T11:24:28Z</time>
</trkpt>
<trkpt lat="49.350067935884" lon="7.938316930085421">
<ele>237.79999999999995</ele>
<time>2023-05-18T11:24:29Z</time>
</trkpt>
<trkpt lat="49.350056955590844" lon="7.938374932855368">
<ele>238</ele>
<time>2023-05-18T11:24:30Z</time>
</trkpt>
<trkpt lat="49.35004698112607" lon="7.938434947282076">
<ele>238</ele>
<time>2023-05-18T11:24:31Z</time>
</trkpt>
<trkpt lat="49.350034995004535" lon="7.938491944223642">
<ele>238.20000000000005</ele>
<time>2023-05-18T11:24:32Z</time>
</trkpt>
<trkpt lat="49.35002493672073" lon="7.938549946993589">
<ele>238.20000000000005</ele>
<time>2023-05-18T11:24:33Z</time>
</trkpt>
<trkpt lat="49.3500179797411" lon="7.938609961420298">
<ele>238.20000000000005</ele>
<time>2023-05-18T11:24:34Z</time>
</trkpt>
<trkpt lat="49.35000993311405" lon="7.938666958361864">
<ele>238.20000000000005</ele>
<time>2023-05-18T11:24:35Z</time>
</trkpt>
<trkpt lat="49.34999995864928" lon="7.938721943646669">
<ele>238.20000000000005</ele>
<time>2023-05-18T11:24:36Z</time>
</trkpt>
<trkpt lat="49.34998797252774" lon="7.938772989436984">
<ele>238.20000000000005</ele>
<time>2023-05-18T11:24:37Z</time>
</trkpt>
<trkpt lat="49.34997799806297" lon="7.938821939751506">
<ele>238.20000000000005</ele>
<time>2023-05-18T11:24:38Z</time>
</trkpt>
<trkpt lat="49.34996693395078" lon="7.938866950571537">
<ele>238.20000000000005</ele>
<time>2023-05-18T11:24:39Z</time>
</trkpt>
<trkpt lat="49.34995494782925" lon="7.938904920592904">
<ele>238.20000000000005</ele>
<time>2023-05-18T11:24:40Z</time>
</trkpt>
<trkpt lat="49.34994195587933" lon="7.9389379452914">
<ele>238.39999999999998</ele>
<time>2023-05-18T11:24:41Z</time>
</trkpt>
<trkpt lat="49.349926952272654" lon="7.938971975818276">
<ele>238.39999999999998</ele>
<time>2023-05-18T11:24:42Z</time>
</trkpt>
<trkpt lat="49.349907925352454" lon="7.9390099458396435">
<ele>238.60000000000002</ele>
<time>2023-05-18T11:24:43Z</time>
</trkpt>
<trkpt lat="49.34988998807967" lon="7.939037941396236">
<ele>238.60000000000002</ele>
<time>2023-05-18T11:24:44Z</time>
</trkpt>
<trkpt lat="49.349867943674326" lon="7.9390679486095905">
<ele>238.79999999999995</ele>
<time>2023-05-18T11:24:45Z</time>
</trkpt>
<trkpt lat="49.349844977259636" lon="7.939104996621609">
<ele>238.79999999999995</ele>
<time>2023-05-18T11:24:46Z</time>
</trkpt>
<trkpt lat="49.349824944511056" lon="7.939134920015931">
<ele>239</ele>
<time>2023-05-18T11:24:47Z</time>
</trkpt>
<trkpt lat="49.34980298392475" lon="7.939162999391556">
<ele>239.20000000000005</ele>
<time>2023-05-18T11:24:48Z</time>
</trkpt>
<trkpt lat="49.34978295117617" lon="7.939192922785878">
<ele>239.39999999999998</ele>
<time>2023-05-18T11:24:49Z</time>
</trkpt>
<trkpt lat="49.34976291842759" lon="7.939219996333122">
<ele>239.60000000000002</ele>
<time>2023-05-18T11:24:50Z</time>
</trkpt>
<trkpt lat="49.3497399520129" lon="7.939247991889715">
<ele>239.60000000000002</ele>
<time>2023-05-18T11:24:51Z</time>
</trkpt>
<trkpt lat="49.34971698559821" lon="7.9392749816179276">
<ele>239.79999999999995</ele>
<time>2023-05-18T11:24:52Z</time>
</trkpt>
<trkpt lat="49.349692929536104" lon="7.9393029771745205">
<ele>239.79999999999995</ele>
<time>2023-05-18T11:24:53Z</time>
</trkpt>
<trkpt lat="49.349672980606556" lon="7.939327955245972">
<ele>240</ele>
<time>2023-05-18T11:24:54Z</time>
</trkpt>
<trkpt lat="49.34965495951474" lon="7.939351927489042">
<ele>240.20000000000005</ele>
<time>2023-05-18T11:24:55Z</time>
</trkpt>
<trkpt lat="49.34963492676616" lon="7.939371960237622">
<ele>240.60000000000002</ele>
<time>2023-05-18T11:24:56Z</time>
</trkpt>
<trkpt lat="49.34961196035147" lon="7.939394926652312">
<ele>240.79999999999995</ele>
<time>2023-05-18T11:24:57Z</time>
</trkpt>
<trkpt lat="49.3495879881084" lon="7.939422922208905">
<ele>241</ele>
<time>2023-05-18T11:24:58Z</time>
</trkpt>
<trkpt lat="49.349566949531436" lon="7.939444966614246">
<ele>241.39999999999998</ele>
<time>2023-05-18T11:24:59Z</time>
</trkpt>
<trkpt lat="49.349542977288365" lon="7.939461981877685">
<ele>241.60000000000002</ele>
<time>2023-05-18T11:25:00Z</time>
</trkpt>
<trkpt lat="49.349519927054644" lon="7.9394749738276005">
<ele>241.79999999999995</ele>
<time>2023-05-18T11:25:01Z</time>
</trkpt>
<trkpt lat="49.349496960639954" lon="7.939477991312742">
<ele>242</ele>
<time>2023-05-18T11:25:02Z</time>
</trkpt>
<trkpt lat="49.3494719825685" lon="7.939481930807233">
<ele>242.20000000000005</ele>
<time>2023-05-18T11:25:03Z</time>
</trkpt>
<trkpt lat="49.34944499284029" lon="7.939481930807233">
<ele>242.60000000000002</ele>
<time>2023-05-18T11:25:04Z</time>
</trkpt>
<trkpt lat="49.349414985626936" lon="7.939479919150472">
<ele>242.79999999999995</ele>
<time>2023-05-18T11:25:05Z</time>
</trkpt>
<trkpt lat="49.349387995898724" lon="7.939471956342459">
<ele>243</ele>
<time>2023-05-18T11:25:06Z</time>
</trkpt>
<trkpt lat="49.34936293400824" lon="7.939461981877685">
<ele>243.39999999999998</ele>
<time>2023-05-18T11:25:07Z</time>
</trkpt>
<trkpt lat="49.34933493845165" lon="7.939452929422259">
<ele>243.60000000000002</ele>
<time>2023-05-18T11:25:08Z</time>
</trkpt>
<trkpt lat="49.3493099603802" lon="7.939444966614246">
<ele>243.79999999999995</ele>
<time>2023-05-18T11:25:09Z</time>
</trkpt>
<trkpt lat="49.34928799979389" lon="7.939432980492711">
<ele>244</ele>
<time>2023-05-18T11:25:10Z</time>
</trkpt>
<trkpt lat="49.34926696121693" lon="7.939422922208905">
<ele>244.39999999999998</ele>
<time>2023-05-18T11:25:11Z</time>
</trkpt>
<trkpt lat="49.349242988973856" lon="7.939407918602228">
<ele>244.60000000000002</ele>
<time>2023-05-18T11:25:12Z</time>
</trkpt>
<trkpt lat="49.349221950396895" lon="7.939392998814583">
<ele>245</ele>
<time>2023-05-18T11:25:13Z</time>
</trkpt>
<trkpt lat="49.349201917648315" lon="7.939377995207906">
<ele>245.20000000000005</ele>
<time>2023-05-18T11:25:14Z</time>
</trkpt>
<trkpt lat="49.349179957062006" lon="7.939364919438958">
<ele>245.39999999999998</ele>
<time>2023-05-18T11:25:15Z</time>
</trkpt>
<trkpt lat="49.3491579964757" lon="7.939354944974184">
<ele>245.79999999999995</ele>
<time>2023-05-18T11:25:16Z</time>
</trkpt>
<trkpt lat="49.34913796372712" lon="7.939339941367507">
<ele>246</ele>
<time>2023-05-18T11:25:17Z</time>
</trkpt>
<trkpt lat="49.349116925150156" lon="7.93932493776083">
<ele>246.20000000000005</ele>
<time>2023-05-18T11:25:18Z</time>
</trkpt>
<trkpt lat="49.34909496456385" lon="7.939309934154153">
<ele>246.39999999999998</ele>
<time>2023-05-18T11:25:19Z</time>
</trkpt>
<trkpt lat="49.349072920158505" lon="7.939296942204237">
<ele>246.60000000000002</ele>
<time>2023-05-18T11:25:20Z</time>
</trkpt>
<trkpt lat="49.349049953743815" lon="7.939287973567843">
<ele>247</ele>
<time>2023-05-18T11:25:21Z</time>
</trkpt>
<trkpt lat="49.349026987329125" lon="7.9392749816179276">
<ele>247.20000000000005</ele>
<time>2023-05-18T11:25:22Z</time>
</trkpt>
<trkpt lat="49.34900293126702" lon="7.9392599780112505">
<ele>247.39999999999998</ele>
<time>2023-05-18T11:25:23Z</time>
</trkpt>
<trkpt lat="49.34897795319557" lon="7.939242962747812">
<ele>247.60000000000002</ele>
<time>2023-05-18T11:25:24Z</time>
</trkpt>
<trkpt lat="49.34895498678088" lon="7.939227959141135">
<ele>247.79999999999995</ele>
<time>2023-05-18T11:25:25Z</time>
</trkpt>
<trkpt lat="49.34893294237554" lon="7.939217984676361">
<ele>248</ele>
<time>2023-05-18T11:25:26Z</time>
</trkpt>
<trkpt lat="49.34891198761761" lon="7.939204992726445">
<ele>248.20000000000005</ele>
<time>2023-05-18T11:25:27Z</time>
</trkpt>
<trkpt lat="49.34888994321227" lon="7.939192922785878">
<ele>248.60000000000002</ele>
<time>2023-05-18T11:25:28Z</time>
</trkpt>
<trkpt lat="49.34886798262596" lon="7.9391819424927235">
<ele>248.79999999999995</ele>
<time>2023-05-18T11:25:29Z</time>
</trkpt>
<trkpt lat="49.34884493239224" lon="7.93917297385633">
<ele>249</ele>
<time>2023-05-18T11:25:30Z</time>
</trkpt>
<trkpt lat="49.34882297180593" lon="7.939162999391556">
<ele>249.20000000000005</ele>
<time>2023-05-18T11:25:31Z</time>
</trkpt>
<trkpt lat="49.34879992157221" lon="7.939151935279369">
<ele>249.39999999999998</ele>
<time>2023-05-18T11:25:32Z</time>
</trkpt>
<trkpt lat="49.34877695515752" lon="7.939139949157834">
<ele>249.60000000000002</ele>
<time>2023-05-18T11:25:33Z</time>
</trkpt>
<trkpt lat="49.34875499457121" lon="7.939126957207918">
<ele>249.79999999999995</ele>
<time>2023-05-18T11:25:34Z</time>
</trkpt>
<trkpt lat="49.34873295016587" lon="7.939119916409254">
<ele>250.20000000000005</ele>
<time>2023-05-18T11:25:35Z</time>
</trkpt>
<trkpt lat="49.34870797209442" lon="7.939116982743144">
<ele>250.39999999999998</ele>
<time>2023-05-18T11:25:36Z</time>
</trkpt>
<trkpt lat="49.348681988194585" lon="7.939112959429622">
<ele>250.60000000000002</ele>
<time>2023-05-18T11:25:37Z</time>
</trkpt>
<trkpt lat="49.3486569263041" lon="7.939111953601241">
<ele>250.79999999999995</ele>
<time>2023-05-18T11:25:38Z</time>
</trkpt>
<trkpt lat="49.34863295406103" lon="7.939107930287719">
<ele>251</ele>
<time>2023-05-18T11:25:39Z</time>
</trkpt>
<trkpt lat="49.3486069701612" lon="7.939104996621609">
<ele>251.20000000000005</ele>
<time>2023-05-18T11:25:40Z</time>
</trkpt>
<trkpt lat="49.348577968776226" lon="7.939104996621609">
<ele>251.60000000000002</ele>
<time>2023-05-18T11:25:41Z</time>
</trkpt>
<trkpt lat="49.348551984876394" lon="7.939107930287719">
<ele>251.79999999999995</ele>
<time>2023-05-18T11:25:42Z</time>
</trkpt>
<trkpt lat="49.34852792881429" lon="7.939112959429622">
<ele>252</ele>
<time>2023-05-18T11:25:43Z</time>
</trkpt>
<trkpt lat="49.34850295074284" lon="7.939124945551157">
<ele>252.20000000000005</ele>
<time>2023-05-18T11:25:44Z</time>
</trkpt>
<trkpt lat="49.34847696684301" lon="7.939136931672692">
<ele>252.39999999999998</ele>
<time>2023-05-18T11:25:45Z</time>
</trkpt>
<trkpt lat="49.3484499771148" lon="7.939146989956498">
<ele>252.60000000000002</ele>
<time>2023-05-18T11:25:46Z</time>
</trkpt>
<trkpt lat="49.348424999043345" lon="7.93915294110775">
<ele>253</ele>
<time>2023-05-18T11:25:47Z</time>
</trkpt>
<trkpt lat="49.348402954638004" lon="7.939164927229285">
<ele>253.20000000000005</ele>
<time>2023-05-18T11:25:48Z</time>
</trkpt>
<trkpt lat="49.34837797656655" lon="7.939182948321104">
<ele>253.39999999999998</ele>
<time>2023-05-18T11:25:49Z</time>
</trkpt>
<trkpt lat="49.3483529984951" lon="7.939199963584542">
<ele>253.60000000000002</ele>
<time>2023-05-18T11:25:50Z</time>
</trkpt>
<trkpt lat="49.34832994826138" lon="7.939214967191219">
<ele>253.79999999999995</ele>
<time>2023-05-18T11:25:51Z</time>
</trkpt>
<trkpt lat="49.34830698184669" lon="7.939229970797896">
<ele>254</ele>
<time>2023-05-18T11:25:52Z</time>
</trkpt>
<trkpt lat="49.34828493744135" lon="7.939241956919432">
<ele>254.39999999999998</ele>
<time>2023-05-18T11:25:53Z</time>
</trkpt>
<trkpt lat="49.34825794771314" lon="7.939249919727445">
<ele>254.60000000000002</ele>
<time>2023-05-18T11:25:54Z</time>
</trkpt>
<trkpt lat="49.34823498129845" lon="7.939261989668012">
<ele>254.79999999999995</ele>
<time>2023-05-18T11:25:55Z</time>
</trkpt>
<trkpt lat="49.348211931064725" lon="7.939276993274689">
<ele>255</ele>
<time>2023-05-18T11:25:56Z</time>
</trkpt>
<trkpt lat="49.348189970478415" lon="7.939287973567843">
<ele>255.20000000000005</ele>
<time>2023-05-18T11:25:57Z</time>
</trkpt>
<trkpt lat="49.348167926073074" lon="7.939297948032618">
<ele>255.39999999999998</ele>
<time>2023-05-18T11:25:58Z</time>
</trkpt>
<trkpt lat="49.348144959658384" lon="7.939311945810914">
<ele>255.60000000000002</ele>
<time>2023-05-18T11:25:59Z</time>
</trkpt>
<trkpt lat="49.348122999072075" lon="7.939326949417591">
<ele>255.79999999999995</ele>
<time>2023-05-18T11:26:00Z</time>
</trkpt>
<trkpt lat="49.34809994883835" lon="7.93934497050941">
<ele>256</ele>
<time>2023-05-18T11:26:01Z</time>
</trkpt>
<trkpt lat="49.34807698242366" lon="7.939359974116087">
<ele>256.4</ele>
<time>2023-05-18T11:26:02Z</time>
</trkpt>
<trkpt lat="49.34805192053318" lon="7.939372966066003">
<ele>256.6</ele>
<time>2023-05-18T11:26:03Z</time>
</trkpt>
<trkpt lat="49.34802794829011" lon="7.939386963844299">
<ele>256.79999999999995</ele>
<time>2023-05-18T11:26:04Z</time>
</trkpt>
<trkpt lat="49.34800799936056" lon="7.9393969383090734">
<ele>257</ele>
<time>2023-05-18T11:26:05Z</time>
</trkpt>
<trkpt lat="49.34798494912684" lon="7.939407918602228">
<ele>257.20000000000005</ele>
<time>2023-05-18T11:26:06Z</time>
</trkpt>
<trkpt lat="49.34796491637826" lon="7.939421916380525">
<ele>257.4</ele>
<time>2023-05-18T11:26:07Z</time>
</trkpt>
<trkpt lat="49.34794194996357" lon="7.939436919987202">
<ele>257.6</ele>
<time>2023-05-18T11:26:08Z</time>
</trkpt>
<trkpt lat="49.3479179777205" lon="7.939447984099388">
<ele>257.79999999999995</ele>
<time>2023-05-18T11:26:09Z</time>
</trkpt>
<trkpt lat="49.34789693914354" lon="7.939461981877685">
<ele>258</ele>
<time>2023-05-18T11:26:10Z</time>
</trkpt>
<trkpt lat="49.34787497855723" lon="7.939471956342459">
<ele>258.20000000000005</ele>
<time>2023-05-18T11:26:11Z</time>
</trkpt>
<trkpt lat="49.34785293415189" lon="7.939479919150472">
<ele>258.4</ele>
<time>2023-05-18T11:26:12Z</time>
</trkpt>
<trkpt lat="49.3478299677372" lon="7.9394899774342775">
<ele>258.6</ele>
<time>2023-05-18T11:26:13Z</time>
</trkpt>
<trkpt lat="49.347802978008986" lon="7.939501963555813">
<ele>258.79999999999995</ele>
<time>2023-05-18T11:26:14Z</time>
</trkpt>
<trkpt lat="49.347777999937534" lon="7.939507998526096">
<ele>259</ele>
<time>2023-05-18T11:26:15Z</time>
</trkpt>
<trkpt lat="49.347757967188954" lon="7.9395179729908705">
<ele>259.20000000000005</ele>
<time>2023-05-18T11:26:16Z</time>
</trkpt>
<trkpt lat="49.347737934440374" lon="7.939529959112406">
<ele>259.4</ele>
<time>2023-05-18T11:26:17Z</time>
</trkpt>
<trkpt lat="49.347716979682446" lon="7.93953993357718">
<ele>259.6</ele>
<time>2023-05-18T11:26:18Z</time>
</trkpt>
<trkpt lat="49.347694935277104" lon="7.939556948840618">
<ele>259.79999999999995</ele>
<time>2023-05-18T11:26:19Z</time>
</trkpt>
<trkpt lat="49.347674986347556" lon="7.939572958275676">
<ele>260</ele>
<time>2023-05-18T11:26:20Z</time>
</trkpt>
<trkpt lat="49.347654953598976" lon="7.939586956053972">
<ele>260.20000000000005</ele>
<time>2023-05-18T11:26:21Z</time>
</trkpt>
<trkpt lat="49.347634920850396" lon="7.939597936347127">
<ele>260.4</ele>
<time>2023-05-18T11:26:22Z</time>
</trkpt>
<trkpt lat="49.34761698357761" lon="7.939609922468662">
<ele>260.6</ele>
<time>2023-05-18T11:26:23Z</time>
</trkpt>
<trkpt lat="49.34759996831417" lon="7.939624926075339">
<ele>260.79999999999995</ele>
<time>2023-05-18T11:26:24Z</time>
</trkpt>
<trkpt lat="49.34758295305073" lon="7.939632972702384">
<ele>261</ele>
<time>2023-05-18T11:26:25Z</time>
</trkpt>
<trkpt lat="49.347561998292804" lon="7.939644958823919">
<ele>261.20000000000005</ele>
<time>2023-05-18T11:26:26Z</time>
</trkpt>
<trkpt lat="49.34753995388746" lon="7.939659962430596">
<ele>261.4</ele>
<time>2023-05-18T11:26:27Z</time>
</trkpt>
<trkpt lat="49.34751799330115" lon="7.939676977694035">
<ele>261.6</ele>
<time>2023-05-18T11:26:28Z</time>
</trkpt>
<trkpt lat="49.34749695472419" lon="7.9396849405020475">
<ele>261.79999999999995</ele>
<time>2023-05-18T11:26:29Z</time>
</trkpt>
<trkpt lat="49.34747692197561" lon="7.939691981300712">
<ele>262</ele>
<time>2023-05-18T11:26:30Z</time>
</trkpt>
<trkpt lat="49.347456973046064" lon="7.939697932451963">
<ele>262.20000000000005</ele>
<time>2023-05-18T11:26:31Z</time>
</trkpt>
<trkpt lat="49.347436940297484" lon="7.939697932451963">
<ele>262.4</ele>
<time>2023-05-18T11:26:32Z</time>
</trkpt>
<trkpt lat="49.347412968054414" lon="7.939707990735769">
<ele>262.6</ele>
<time>2023-05-18T11:26:33Z</time>
</trkpt>
<trkpt lat="49.34738991782069" lon="7.939729951322079">
<ele>262.79999999999995</ele>
<time>2023-05-18T11:26:34Z</time>
</trkpt>
<trkpt lat="49.347366951406" lon="7.939742943271995">
<ele>263</ele>
<time>2023-05-18T11:26:35Z</time>
</trkpt>
<trkpt lat="49.34733795002103" lon="7.93975199572742">
<ele>263.20000000000005</ele>
<time>2023-05-18T11:26:36Z</time>
</trkpt>
<trkpt lat="49.347307942807674" lon="7.939756941050291">
<ele>263.4</ele>
<time>2023-05-18T11:26:37Z</time>
</trkpt>
<trkpt lat="49.34728195890784" lon="7.939757946878672">
<ele>263.6</ele>
<time>2023-05-18T11:26:38Z</time>
</trkpt>
<trkpt lat="49.34725496917963" lon="7.939762976020575">
<ele>263.79999999999995</ele>
<time>2023-05-18T11:26:39Z</time>
</trkpt>
<trkpt lat="49.34722797945142" lon="7.939772950485349">
<ele>264</ele>
<time>2023-05-18T11:26:40Z</time>
</trkpt>
<trkpt lat="49.34720794670284" lon="7.939776973798871">
<ele>264.4</ele>
<time>2023-05-18T11:26:41Z</time>
</trkpt>
<trkpt lat="49.34718799777329" lon="7.939789965748787">
<ele>264.6</ele>
<time>2023-05-18T11:26:42Z</time>
</trkpt>
<trkpt lat="49.347159918397665" lon="7.939814943820238">
<ele>264.79999999999995</ele>
<time>2023-05-18T11:26:43Z</time>
</trkpt>
<trkpt lat="49.347137957811356" lon="7.939821984618902">
<ele>265</ele>
<time>2023-05-18T11:26:44Z</time>
</trkpt>
<trkpt lat="49.34711993671954" lon="7.939827935770154">
<ele>265.20000000000005</ele>
<time>2023-05-18T11:26:45Z</time>
</trkpt>
<trkpt lat="49.34709697030485" lon="7.9398419335484505">
<ele>265.4</ele>
<time>2023-05-18T11:26:46Z</time>
</trkpt>
<trkpt lat="49.34708196669817" lon="7.939842939376831">
<ele>265.6</ele>
<time>2023-05-18T11:26:47Z</time>
</trkpt>
<trkpt lat="49.34706495143473" lon="7.939842939376831">
<ele>265.79999999999995</ele>
<time>2023-05-18T11:26:48Z</time>
</trkpt>
<trkpt lat="49.34704491868615" lon="7.939846962690353">
<ele>266</ele>
<time>2023-05-18T11:26:49Z</time>
</trkpt>
<trkpt lat="49.34701792895794" lon="7.939846962690353">
<ele>266.4</ele>
<time>2023-05-18T11:26:50Z</time>
</trkpt>
<trkpt lat="49.346989933401346" lon="7.939847968518734">
<ele>266.6</ele>
<time>2023-05-18T11:26:51Z</time>
</trkpt>
<trkpt lat="49.346966966986656" lon="7.939851991832256">
<ele>266.79999999999995</ele>
<time>2023-05-18T11:26:52Z</time>
</trkpt>
<trkpt lat="49.34693796560168" lon="7.939847968518734">
<ele>267</ele>
<time>2023-05-18T11:26:53Z</time>
</trkpt>
<trkpt lat="49.34690997004509" lon="7.939847968518734">
<ele>267.20000000000005</ele>
<time>2023-05-18T11:26:54Z</time>
</trkpt>
<trkpt lat="49.346879962831736" lon="7.9398419335484505">
<ele>267.6</ele>
<time>2023-05-18T11:26:55Z</time>
</trkpt>
<trkpt lat="49.34684299863875" lon="7.939834976568818">
<ele>267.79999999999995</ele>
<time>2023-05-18T11:26:56Z</time>
</trkpt>
<trkpt lat="49.346811985597014" lon="7.939827935770154">
<ele>268</ele>
<time>2023-05-18T11:26:57Z</time>
</trkpt>
<trkpt lat="49.34678197838366" lon="7.939821984618902">
<ele>268.20000000000005</ele>
<time>2023-05-18T11:26:58Z</time>
</trkpt>
<trkpt lat="49.34675498865545" lon="7.939814943820238">
<ele>268.6</ele>
<time>2023-05-18T11:26:59Z</time>
</trkpt>
<trkpt lat="49.346729926764965" lon="7.939806981012225">
<ele>268.79999999999995</ele>
<time>2023-05-18T11:27:00Z</time>
</trkpt>
<trkpt lat="49.346706960350275" lon="7.9397979285568">
<ele>269</ele>
<time>2023-05-18T11:27:01Z</time>
</trkpt>
<trkpt lat="49.3466779589653" lon="7.939787954092026">
<ele>269.20000000000005</ele>
<time>2023-05-18T11:27:02Z</time>
</trkpt>
<trkpt lat="49.34664694592357" lon="7.93977496214211">
<ele>269.4</ele>
<time>2023-05-18T11:27:03Z</time>
</trkpt>
<trkpt lat="49.34661794453859" lon="7.939767921343446">
<ele>269.79999999999995</ele>
<time>2023-05-18T11:27:04Z</time>
</trkpt>
<trkpt lat="49.3465949781239" lon="7.939762976020575">
<ele>270</ele>
<time>2023-05-18T11:27:05Z</time>
</trkpt>
<trkpt lat="49.34656798839569" lon="7.939757946878672">
<ele>270.20000000000005</ele>
<time>2023-05-18T11:27:06Z</time>
</trkpt>
<trkpt lat="49.34654292650521" lon="7.939744954928756">
<ele>270.6</ele>
<time>2023-05-18T11:27:07Z</time>
</trkpt>
<trkpt lat="49.346512919291854" lon="7.9397329688072205">
<ele>270.79999999999995</ele>
<time>2023-05-18T11:27:08Z</time>
</trkpt>
<trkpt lat="49.34648299589753" lon="7.939716959372163">
<ele>271</ele>
<time>2023-05-18T11:27:09Z</time>
</trkpt>
<trkpt lat="49.34645793400705" lon="7.9397049732506275">
<ele>271.20000000000005</ele>
<time>2023-05-18T11:27:10Z</time>
</trkpt>
<trkpt lat="49.346429938450456" lon="7.939699944108725">
<ele>271.6</ele>
<time>2023-05-18T11:27:11Z</time>
</trkpt>
<trkpt lat="49.346404960379004" lon="7.939687957987189">
<ele>271.79999999999995</ele>
<time>2023-05-18T11:27:12Z</time>
</trkpt>
<trkpt lat="49.34637797065079" lon="7.939672954380512">
<ele>272</ele>
<time>2023-05-18T11:27:13Z</time>
</trkpt>
<trkpt lat="49.34635198675096" lon="7.939659962430596">
<ele>272.20000000000005</ele>
<time>2023-05-18T11:27:14Z</time>
</trkpt>
<trkpt lat="49.34632793068886" lon="7.9396469704806805">
<ele>272.6</ele>
<time>2023-05-18T11:27:15Z</time>
</trkpt>
<trkpt lat="49.34630496427417" lon="7.939629955217242">
<ele>272.79999999999995</ele>
<time>2023-05-18T11:27:16Z</time>
</trkpt>
<trkpt lat="49.34628794901073" lon="7.939621992409229">
<ele>273</ele>
<time>2023-05-18T11:27:17Z</time>
</trkpt>
<trkpt lat="49.34627294540405" lon="7.939612939953804">
<ele>273.20000000000005</ele>
<time>2023-05-18T11:27:18Z</time>
</trkpt>
<trkpt lat="49.346256935968995" lon="7.939597936347127">
<ele>273.4</ele>
<time>2023-05-18T11:27:19Z</time>
</trkpt>
<trkpt lat="49.34624193236232" lon="7.939587961882353">
<ele>273.6</ele>
<time>2023-05-18T11:27:20Z</time>
</trkpt>
<trkpt lat="49.346211925148964" lon="7.939571952447295">
<ele>273.79999999999995</ele>
<time>2023-05-18T11:27:21Z</time>
</trkpt>
<trkpt lat="49.346191976219416" lon="7.939556948840618">
<ele>274.20000000000005</ele>
<time>2023-05-18T11:27:22Z</time>
</trkpt>
<trkpt lat="49.3461649864912" lon="7.939531970769167">
<ele>274.4</ele>
<time>2023-05-18T11:27:23Z</time>
</trkpt>
<trkpt lat="49.34613992460072" lon="7.939507998526096">
<ele>274.6</ele>
<time>2023-05-18T11:27:24Z</time>
</trkpt>
<trkpt lat="49.34611293487251" lon="7.939486959949136">
<ele>274.79999999999995</ele>
<time>2023-05-18T11:27:25Z</time>
</trkpt>
<trkpt lat="49.34609198011458" lon="7.939462987706065">
<ele>275</ele>
<time>2023-05-18T11:27:26Z</time>
</trkpt>
<trkpt lat="49.346071947366" lon="7.939444966614246">
<ele>275.20000000000005</ele>
<time>2023-05-18T11:27:27Z</time>
</trkpt>
<trkpt lat="49.34603498317301" lon="7.939412947744131">
<ele>275.4</ele>
<time>2023-05-18T11:27:28Z</time>
</trkpt>
<trkpt lat="49.3460079934448" lon="7.93938796967268">
<ele>275.4</ele>
<time>2023-05-18T11:27:29Z</time>
</trkpt>
<trkpt lat="49.345974968746305" lon="7.939356956630945">
<ele>275.6</ele>
<time>2023-05-18T11:27:30Z</time>
</trkpt>
<trkpt lat="49.34594697318971" lon="7.939322926104069">
<ele>275.79999999999995</ele>
<time>2023-05-18T11:27:31Z</time>
</trkpt>
<trkpt lat="49.34592694044113" lon="7.939292918890715">
<ele>276</ele>
<time>2023-05-18T11:27:32Z</time>
</trkpt>
<trkpt lat="49.345907997339964" lon="7.939264923334122">
<ele>276.20000000000005</ele>
<time>2023-05-18T11:27:33Z</time>
</trkpt>
<trkpt lat="49.345886958763" lon="7.939234999939799">
<ele>276.4</ele>
<time>2023-05-18T11:27:34Z</time>
</trkpt>
<trkpt lat="49.34585996903479" lon="7.939192922785878">
<ele>276.6</ele>
<time>2023-05-18T11:27:35Z</time>
</trkpt>
<trkpt lat="49.34584194794297" lon="7.939161993563175">
<ele>276.79999999999995</ele>
<time>2023-05-18T11:27:36Z</time>
</trkpt>
<trkpt lat="49.34582292102277" lon="7.939132992178202">
<ele>277</ele>
<time>2023-05-18T11:27:37Z</time>
</trkpt>
<trkpt lat="49.345801966264844" lon="7.939104996621609">
<ele>277.20000000000005</ele>
<time>2023-05-18T11:27:38Z</time>
</trkpt>
<trkpt lat="49.34577799402177" lon="7.939074989408255">
<ele>277.4</ele>
<time>2023-05-18T11:27:39Z</time>
</trkpt>
<trkpt lat="49.34575695544481" lon="7.939041964709759">
<ele>277.6</ele>
<time>2023-05-18T11:27:40Z</time>
</trkpt>
<trkpt lat="49.34572795405984" lon="7.939007934182882">
<ele>277.79999999999995</ele>
<time>2023-05-18T11:27:41Z</time>
</trkpt>
<trkpt lat="49.34570297598839" lon="7.9389819502830505">
<ele>278</ele>
<time>2023-05-18T11:27:42Z</time>
</trkpt>
<trkpt lat="49.345674980431795" lon="7.938956972211599">
<ele>278.20000000000005</ele>
<time>2023-05-18T11:27:43Z</time>
</trkpt>
<trkpt lat="49.34564991854131" lon="7.938932999968529">
<ele>278.4</ele>
<time>2023-05-18T11:27:44Z</time>
</trkpt>
<trkpt lat="49.3456229288131" lon="7.938896957784891">
<ele>278.4</ele>
<time>2023-05-18T11:27:45Z</time>
</trkpt>
<trkpt lat="49.34559694491327" lon="7.938864938914776">
<ele>278.6</ele>
<time>2023-05-18T11:27:46Z</time>
</trkpt>
<trkpt lat="49.34557498432696" lon="7.9388379491865635">
<ele>278.79999999999995</ele>
<time>2023-05-18T11:27:47Z</time>
</trkpt>
<trkpt lat="49.34556199237704" lon="7.938807941973209">
<ele>279</ele>
<time>2023-05-18T11:27:48Z</time>
</trkpt>
<trkpt lat="49.345544977113605" lon="7.938781958073378">
<ele>279.20000000000005</ele>
<time>2023-05-18T11:27:49Z</time>
</trkpt>
<trkpt lat="49.34553299099207" lon="7.938736947253346">
<ele>279.4</ele>
<time>2023-05-18T11:27:50Z</time>
</trkpt>
<trkpt lat="49.34551798738539" lon="7.93869998306036">
<ele>279.6</ele>
<time>2023-05-18T11:27:51Z</time>
</trkpt>
<trkpt lat="49.345506923273206" lon="7.938674921169877">
<ele>279.79999999999995</ele>
<time>2023-05-18T11:27:52Z</time>
</trkpt>
<trkpt lat="49.345484962686896" lon="7.9386429861187935">
<ele>280</ele>
<time>2023-05-18T11:27:53Z</time>
</trkpt>
<trkpt lat="49.34547197073698" lon="7.938606943935156">
<ele>280.20000000000005</ele>
<time>2023-05-18T11:27:54Z</time>
</trkpt>
<trkpt lat="49.345462918281555" lon="7.938572997227311">
<ele>280.4</ele>
<time>2023-05-18T11:27:55Z</time>
</trkpt>
<trkpt lat="49.34544799849391" lon="7.938549946993589">
<ele>280.6</ele>
<time>2023-05-18T11:27:56Z</time>
</trkpt>
<trkpt lat="49.34542796574533" lon="7.938526980578899">
<ele>280.79999999999995</ele>
<time>2023-05-18T11:27:57Z</time>
</trkpt>
<trkpt lat="49.34540692716837" lon="7.938486998900771">
<ele>281</ele>
<time>2023-05-18T11:27:58Z</time>
</trkpt>
<trkpt lat="49.34538697823882" lon="7.938454980030656">
<ele>281.20000000000005</ele>
<time>2023-05-18T11:27:59Z</time>
</trkpt>
<trkpt lat="49.34536493383348" lon="7.938422961160541">
<ele>281.4</ele>
<time>2023-05-18T11:28:00Z</time>
</trkpt>
<trkpt lat="49.34533995576203" lon="7.938397983089089">
<ele>281.6</ele>
<time>2023-05-18T11:28:01Z</time>
</trkpt>
<trkpt lat="49.34531497769058" lon="7.9383649583905935">
<ele>281.79999999999995</ele>
<time>2023-05-18T11:28:02Z</time>
</trkpt>
<trkpt lat="49.345294944942" lon="7.938336962834001">
<ele>282</ele>
<time>2023-05-18T11:28:03Z</time>
</trkpt>
<trkpt lat="49.34527298435569" lon="7.93831299059093">
<ele>282.20000000000005</ele>
<time>2023-05-18T11:28:04Z</time>
</trkpt>
<trkpt lat="49.34525496326387" lon="7.9382869228720665">
<ele>282.20000000000005</ele>
<time>2023-05-18T11:28:05Z</time>
</trkpt>
<trkpt lat="49.34523794800043" lon="7.93824995867908">
<ele>282.4</ele>
<time>2023-05-18T11:28:06Z</time>
</trkpt>
<trkpt lat="49.34521498158574" lon="7.938209977000952">
<ele>282.6</ele>
<time>2023-05-18T11:28:07Z</time>
</trkpt>
<trkpt lat="49.34519494883716" lon="7.938167983666062">
<ele>282.79999999999995</ele>
<time>2023-05-18T11:28:08Z</time>
</trkpt>
<trkpt lat="49.34517692774534" lon="7.938136970624328">
<ele>283</ele>
<time>2023-05-18T11:28:09Z</time>
</trkpt>
<trkpt lat="49.34512998908758" lon="7.9380919598042965">
<ele>283.20000000000005</ele>
<time>2023-05-18T11:28:10Z</time>
</trkpt>
<trkpt lat="49.34510794468224" lon="7.938052983954549">
<ele>283.4</ele>
<time>2023-05-18T11:28:11Z</time>
</trkpt>
<trkpt lat="49.345094952732325" lon="7.938029933720827">
<ele>283.6</ele>
<time>2023-05-18T11:28:12Z</time>
</trkpt>
<trkpt lat="49.34505798853934" lon="7.937989952042699">
<ele>283.79999999999995</ele>
<time>2023-05-18T11:28:13Z</time>
</trkpt>
<trkpt lat="49.345031920820475" lon="7.937952987849712">
<ele>284</ele>
<time>2023-05-18T11:28:14Z</time>
</trkpt>
<trkpt lat="49.34499797411263" lon="7.9379199631512165">
<ele>284.20000000000005</ele>
<time>2023-05-18T11:28:15Z</time>
</trkpt>
<trkpt lat="49.344966961070895" lon="7.937892973423004">
<ele>284.4</ele>
<time>2023-05-18T11:28:16Z</time>
</trkpt>
<trkpt lat="49.344944916665554" lon="7.93786296620965">
<ele>284.6</ele>
<time>2023-05-18T11:28:17Z</time>
</trkpt>
<trkpt lat="49.344924967736006" lon="7.937831953167915">
<ele>284.79999999999995</ele>
<time>2023-05-18T11:28:18Z</time>
</trkpt>
<trkpt lat="49.34491197578609" lon="7.937797922641039">
<ele>285</ele>
<time>2023-05-18T11:28:19Z</time>
</trkpt>
<trkpt lat="49.344899989664555" lon="7.937771938741207">
<ele>285</ele>
<time>2023-05-18T11:28:20Z</time>
</trkpt>
<trkpt lat="49.34488993138075" lon="7.937749978154898">
<ele>285.20000000000005</ele>
<time>2023-05-18T11:28:21Z</time>
</trkpt>
<trkpt lat="49.34487693943083" lon="7.937726927921176">
<ele>285.4</ele>
<time>2023-05-18T11:28:22Z</time>
</trkpt>
<trkpt lat="49.344859924167395" lon="7.937701949849725">
<ele>285.6</ele>
<time>2023-05-18T11:28:23Z</time>
</trkpt>
<trkpt lat="49.34484492056072" lon="7.937676971778274">
<ele>285.79999999999995</ele>
<time>2023-05-18T11:28:24Z</time>
</trkpt>
<trkpt lat="49.34482991695404" lon="7.937652999535203">
<ele>286</ele>
<time>2023-05-18T11:28:25Z</time>
</trkpt>
<trkpt lat="49.34480493888259" lon="7.937624920159578">
<ele>286.20000000000005</ele>
<time>2023-05-18T11:28:26Z</time>
</trkpt>
<trkpt lat="49.34478691779077" lon="7.937597930431366">
<ele>286.4</ele>
<time>2023-05-18T11:28:27Z</time>
</trkpt>
<trkpt lat="49.344774931669235" lon="7.937569934874773">
<ele>286.6</ele>
<time>2023-05-18T11:28:28Z</time>
</trkpt>
<trkpt lat="49.3447629455477" lon="7.937536993995309">
<ele>286.79999999999995</ele>
<time>2023-05-18T11:28:29Z</time>
</trkpt>
<trkpt lat="49.344749953597784" lon="7.937496928498149">
<ele>287</ele>
<time>2023-05-18T11:28:30Z</time>
</trkpt>
<trkpt lat="49.34474199078977" lon="7.937456946820021">
<ele>287.20000000000005</ele>
<time>2023-05-18T11:28:31Z</time>
</trkpt>
<trkpt lat="49.344727993011475" lon="7.93743297457695">
<ele>287.20000000000005</ele>
<time>2023-05-18T11:28:32Z</time>
</trkpt>
<trkpt lat="49.3447129894048" lon="7.937414953485131">
<ele>287.4</ele>
<time>2023-05-18T11:28:33Z</time>
</trkpt>
<trkpt lat="49.34469798579812" lon="7.937397938221693">
<ele>287.6</ele>
<time>2023-05-18T11:28:34Z</time>
</trkpt>
<trkpt lat="49.34465498663485" lon="7.937361979857087">
<ele>287.79999999999995</ele>
<time>2023-05-18T11:28:35Z</time>
</trkpt>
<trkpt lat="49.34461995027959" lon="7.937311939895153">
<ele>288</ele>
<time>2023-05-18T11:28:36Z</time>
</trkpt>
<trkpt lat="49.344604946672916" lon="7.937274975702167">
<ele>288.20000000000005</ele>
<time>2023-05-18T11:28:37Z</time>
</trkpt>
<trkpt lat="49.3445969838649" lon="7.937234994024038">
<ele>288.4</ele>
<time>2023-05-18T11:28:38Z</time>
</trkpt>
<trkpt lat="49.344554990530014" lon="7.937179924920201">
<ele>288.6</ele>
<time>2023-05-18T11:28:39Z</time>
</trkpt>
<trkpt lat="49.34453998692334" lon="7.937141954898834">
<ele>288.79999999999995</ele>
<time>2023-05-18T11:28:40Z</time>
</trkpt>
<trkpt lat="49.34451995417476" lon="7.937101973220706">
<ele>289</ele>
<time>2023-05-18T11:28:41Z</time>
</trkpt>
<trkpt lat="49.34450696222484" lon="7.937069954350591">
<ele>289.20000000000005</ele>
<time>2023-05-18T11:28:42Z</time>
</trkpt>
<trkpt lat="49.34448692947626" lon="7.937041958793998">
<ele>289.4</ele>
<time>2023-05-18T11:28:43Z</time>
</trkpt>
<trkpt lat="49.344472931697965" lon="7.937004994601011">
<ele>289.4</ele>
<time>2023-05-18T11:28:44Z</time>
</trkpt>
<trkpt lat="49.34446295723319" lon="7.93695998378098">
<ele>289.6</ele>
<time>2023-05-18T11:28:45Z</time>
</trkpt>
<trkpt lat="49.34444292448461" lon="7.93691698461771">
<ele>289.79999999999995</ele>
<time>2023-05-18T11:28:46Z</time>
</trkpt>
<trkpt lat="49.344431944191456" lon="7.936881948262453">
<ele>290</ele>
<time>2023-05-18T11:28:47Z</time>
</trkpt>
<trkpt lat="49.34441694058478" lon="7.936859987676144">
<ele>290.20000000000005</ele>
<time>2023-05-18T11:28:48Z</time>
</trkpt>
<trkpt lat="49.344389950856566" lon="7.936839954927564">
<ele>290.4</ele>
<time>2023-05-18T11:28:49Z</time>
</trkpt>
<trkpt lat="49.34437192976475" lon="7.9368149768561125">
<ele>290.6</ele>
<time>2023-05-18T11:28:50Z</time>
</trkpt>
<trkpt lat="49.34435692615807" lon="7.936792932450771">
<ele>290.79999999999995</ele>
<time>2023-05-18T11:28:51Z</time>
</trkpt>
<trkpt lat="49.34433194808662" lon="7.936764936894178">
<ele>291</ele>
<time>2023-05-18T11:28:52Z</time>
</trkpt>
<trkpt lat="49.34430998750031" lon="7.93674498796463">
<ele>291.20000000000005</ele>
<time>2023-05-18T11:28:53Z</time>
</trkpt>
<trkpt lat="49.34429297223687" lon="7.936722943559289">
<ele>291.4</ele>
<time>2023-05-18T11:28:54Z</time>
</trkpt>
<trkpt lat="49.34427293948829" lon="7.936682961881161">
<ele>291.6</ele>
<time>2023-05-18T11:28:55Z</time>
</trkpt>
<trkpt lat="49.344236981123686" lon="7.936634933575988">
<ele>291.79999999999995</ele>
<time>2023-05-18T11:28:56Z</time>
</trkpt>
<trkpt lat="49.34422197751701" lon="7.936606938019395">
<ele>292</ele>
<time>2023-05-18T11:28:57Z</time>
</trkpt>
<trkpt lat="49.34419699944556" lon="7.9365649446845055">
<ele>292.20000000000005</ele>
<time>2023-05-18T11:28:58Z</time>
</trkpt>
<trkpt lat="49.344172943383455" lon="7.936514988541603">
<ele>292.4</ele>
<time>2023-05-18T11:28:59Z</time>
</trkpt>
<trkpt lat="49.3441619630903" lon="7.936492944136262">
<ele>292.6</ele>
<time>2023-05-18T11:29:00Z</time>
</trkpt>
<trkpt lat="49.34413195587695" lon="7.936439970508218">
<ele>292.79999999999995</ele>
<time>2023-05-18T11:29:01Z</time>
</trkpt>
<trkpt lat="49.34412198141217" lon="7.936404934152961">
<ele>293</ele>
<time>2023-05-18T11:29:02Z</time>
</trkpt>
<trkpt lat="49.344087950885296" lon="7.936372999101877">
<ele>293.20000000000005</ele>
<time>2023-05-18T11:29:03Z</time>
</trkpt>
<trkpt lat="49.34405794367194" lon="7.936346931383014">
<ele>293.4</ele>
<time>2023-05-18T11:29:04Z</time>
</trkpt>
<trkpt lat="49.344042940065265" lon="7.936329999938607">
<ele>293.6</ele>
<time>2023-05-18T11:29:05Z</time>
</trkpt>
<trkpt lat="49.34402793645859" lon="7.936302926391363">
<ele>293.79999999999995</ele>
<time>2023-05-18T11:29:06Z</time>
</trkpt>
<trkpt lat="49.34400295838714" lon="7.936262944713235">
<ele>294</ele>
<time>2023-05-18T11:29:07Z</time>
</trkpt>
<trkpt lat="49.34398493729532" lon="7.936236960813403">
<ele>294.20000000000005</ele>
<time>2023-05-18T11:29:08Z</time>
</trkpt>
<trkpt lat="49.34397496283054" lon="7.936204941943288">
<ele>294.4</ele>
<time>2023-05-18T11:29:09Z</time>
</trkpt>
<trkpt lat="49.343957947567105" lon="7.936147945001721">
<ele>294.6</ele>
<time>2023-05-18T11:29:10Z</time>
</trkpt>
<trkpt lat="49.343934981152415" lon="7.93610192835331">
<ele>294.79999999999995</ele>
<time>2023-05-18T11:29:11Z</time>
</trkpt>
<trkpt lat="49.3438979331404" lon="7.936046943068504">
<ele>295</ele>
<time>2023-05-18T11:29:12Z</time>
</trkpt>
<trkpt lat="49.34387999586761" lon="7.935994975268841">
<ele>295.20000000000005</ele>
<time>2023-05-18T11:29:13Z</time>
</trkpt>
<trkpt lat="49.34385996311903" lon="7.935959938913584">
<ele>295.20000000000005</ele>
<time>2023-05-18T11:29:14Z</time>
</trkpt>
<trkpt lat="49.34383699670434" lon="7.935914928093553">
<ele>295.4</ele>
<time>2023-05-18T11:29:15Z</time>
</trkpt>
<trkpt lat="49.34381294064224" lon="7.9358849208801985">
<ele>295.6</ele>
<time>2023-05-18T11:29:16Z</time>
</trkpt>
<trkpt lat="49.34378293342888" lon="7.935834964737296">
<ele>295.79999999999995</ele>
<time>2023-05-18T11:29:17Z</time>
</trkpt>
<trkpt lat="49.34375493787229" lon="7.935787942260504">
<ele>296</ele>
<time>2023-05-18T11:29:18Z</time>
</trkpt>
<trkpt lat="49.34373691678047" lon="7.935749972239137">
<ele>296.20000000000005</ele>
<time>2023-05-18T11:29:19Z</time>
</trkpt>
<trkpt lat="49.34371696785092" lon="7.9357099905610085">
<ele>296.4</ele>
<time>2023-05-18T11:29:20Z</time>
</trkpt>
<trkpt lat="49.34368997812271" lon="7.9356669913977385">
<ele>296.6</ele>
<time>2023-05-18T11:29:21Z</time>
</trkpt>
<trkpt lat="49.34366793371737" lon="7.9356269259005785">
<ele>296.79999999999995</ele>
<time>2023-05-18T11:29:22Z</time>
</trkpt>
<trkpt lat="49.343632981181145" lon="7.935571940615773">
<ele>297</ele>
<time>2023-05-18T11:29:23Z</time>
</trkpt>
<trkpt lat="49.34360498562455" lon="7.935516955330968">
<ele>297</ele>
<time>2023-05-18T11:29:24Z</time>
</trkpt>
<trkpt lat="49.34359693899751" lon="7.935471944510937">
<ele>297.20000000000005</ele>
<time>2023-05-18T11:29:25Z</time>
</trkpt>
<trkpt lat="49.34357992373407" lon="7.935426933690906">
<ele>297.4</ele>
<time>2023-05-18T11:29:26Z</time>
</trkpt>
<trkpt lat="49.34356492012739" lon="7.935381922870874">
<ele>297.6</ele>
<time>2023-05-18T11:29:27Z</time>
</trkpt>
<trkpt lat="49.343549916520715" lon="7.935339929535985">
<ele>297.79999999999995</ele>
<time>2023-05-18T11:29:28Z</time>
</trkpt>
<trkpt lat="49.3435369245708" lon="7.9353029653429985">
<ele>298</ele>
<time>2023-05-18T11:29:29Z</time>
</trkpt>
<trkpt lat="49.3435229267925" lon="7.935269940644503">
<ele>298.20000000000005</ele>
<time>2023-05-18T11:29:30Z</time>
</trkpt>
<trkpt lat="49.343506917357445" lon="7.9352399334311485">
<ele>298.4</ele>
<time>2023-05-18T11:29:31Z</time>
</trkpt>
<trkpt lat="49.34348998591304" lon="7.935209926217794">
<ele>298.6</ele>
<time>2023-05-18T11:29:32Z</time>
</trkpt>
<trkpt lat="49.343462996184826" lon="7.93517698533833">
<ele>298.6</ele>
<time>2023-05-18T11:29:33Z</time>
</trkpt>
<trkpt lat="49.34343793429434" lon="7.935147983953357">
<ele>298.79999999999995</ele>
<time>2023-05-18T11:29:34Z</time>
</trkpt>
<trkpt lat="49.343417985364795" lon="7.935111941769719">
<ele>299</ele>
<time>2023-05-18T11:29:35Z</time>
</trkpt>
<trkpt lat="49.34339493513107" lon="7.935074977576733">
<ele>299.20000000000005</ele>
<time>2023-05-18T11:29:36Z</time>
</trkpt>
<trkpt lat="49.34337196871638" lon="7.935034995898604">
<ele>299.4</ele>
<time>2023-05-18T11:29:37Z</time>
</trkpt>
<trkpt lat="49.34334799647331" lon="7.9350019712001085">
<ele>299.6</ele>
<time>2023-05-18T11:29:38Z</time>
</trkpt>
<trkpt lat="49.343329975381494" lon="7.9349669348448515">
<ele>299.79999999999995</ele>
<time>2023-05-18T11:29:39Z</time>
</trkpt>
<trkpt lat="49.343311954289675" lon="7.934927958995104">
<ele>300</ele>
<time>2023-05-18T11:29:40Z</time>
</trkpt>
<trkpt lat="49.34329795651138" lon="7.934891916811466">
<ele>300.20000000000005</ele>
<time>2023-05-18T11:29:41Z</time>
</trkpt>
<trkpt lat="49.343289993703365" lon="7.9348579701036215">
<ele>300.4</ele>
<time>2023-05-18T11:29:42Z</time>
</trkpt>
<trkpt lat="49.34328194707632" lon="7.93483299203217">
<ele>300.6</ele>
<time>2023-05-18T11:29:43Z</time>
</trkpt>
<trkpt lat="49.343267949298024" lon="7.934796949848533">
<ele>300.6</ele>
<time>2023-05-18T11:29:44Z</time>
</trkpt>
<trkpt lat="49.34325294569135" lon="7.934759985655546">
<ele>300.79999999999995</ele>
<time>2023-05-18T11:29:45Z</time>
</trkpt>
<trkpt lat="49.34323693625629" lon="7.934721931815147">
<ele>301</ele>
<time>2023-05-18T11:29:46Z</time>
</trkpt>
<trkpt lat="49.343224950134754" lon="7.934686979278922">
<ele>301.20000000000005</ele>
<time>2023-05-18T11:29:47Z</time>
</trkpt>
<trkpt lat="49.34321296401322" lon="7.934644985944033">
<ele>301.4</ele>
<time>2023-05-18T11:29:48Z</time>
</trkpt>
<trkpt lat="49.343204917386174" lon="7.9345999751240015">
<ele>301.6</ele>
<time>2023-05-18T11:29:49Z</time>
</trkpt>
<trkpt lat="49.343184968456626" lon="7.934557981789112">
<ele>301.79999999999995</ele>
<time>2023-05-18T11:29:50Z</time>
</trkpt>
<trkpt lat="49.343161918222904" lon="7.934526968747377">
<ele>302</ele>
<time>2023-05-18T11:29:51Z</time>
</trkpt>
<trkpt lat="49.34314297512174" lon="7.93449193239212">
<ele>302.20000000000005</ele>
<time>2023-05-18T11:29:52Z</time>
</trkpt>
<trkpt lat="49.34312696568668" lon="7.934459997341037">
<ele>302.4</ele>
<time>2023-05-18T11:29:53Z</time>
</trkpt>
<trkpt lat="49.34311196208" lon="7.9344279784709215">
<ele>302.6</ele>
<time>2023-05-18T11:29:54Z</time>
</trkpt>
<trkpt lat="49.34309192933142" lon="7.9343929421156645">
<ele>302.79999999999995</ele>
<time>2023-05-18T11:29:55Z</time>
</trkpt>
<trkpt lat="49.343071980401874" lon="7.934359917417169">
<ele>303</ele>
<time>2023-05-18T11:29:56Z</time>
</trkpt>
<trkpt lat="49.34304691851139" lon="7.9343269765377045">
<ele>303</ele>
<time>2023-05-18T11:29:57Z</time>
</trkpt>
<trkpt lat="49.34302194043994" lon="7.934297975152731">
<ele>303.20000000000005</ele>
<time>2023-05-18T11:29:58Z</time>
</trkpt>
<trkpt lat="49.34299495071173" lon="7.934266962110996">
<ele>303.4</ele>
<time>2023-05-18T11:29:59Z</time>
</trkpt>
<trkpt lat="49.342967960983515" lon="7.934234943240881">
<ele>303.6</ele>
<time>2023-05-18T11:30:00Z</time>
</trkpt>
<trkpt lat="49.342946922406554" lon="7.934199990704656">
<ele>303.79999999999995</ele>
<time>2023-05-18T11:30:01Z</time>
</trkpt>
<trkpt lat="49.342922950163484" lon="7.93416797183454">
<ele>304</ele>
<time>2023-05-18T11:30:02Z</time>
</trkpt>
<trkpt lat="49.342902917414904" lon="7.934136958792806">
<ele>304.20000000000005</ele>
<time>2023-05-18T11:30:03Z</time>
</trkpt>
<trkpt lat="49.342879951000214" lon="7.934097982943058">
<ele>304.4</ele>
<time>2023-05-18T11:30:04Z</time>
</trkpt>
<trkpt lat="49.342861929908395" lon="7.934069987386465">
<ele>304.6</ele>
<time>2023-05-18T11:30:05Z</time>
</trkpt>
<trkpt lat="49.342836951836944" lon="7.93403796851635">
<ele>304.6</ele>
<time>2023-05-18T11:30:06Z</time>
</trkpt>
<trkpt lat="49.342814991250634" lon="7.934004943817854">
<ele>304.79999999999995</ele>
<time>2023-05-18T11:30:07Z</time>
</trkpt>
<trkpt lat="49.34279294684529" lon="7.933971919119358">
<ele>305</ele>
<time>2023-05-18T11:30:08Z</time>
</trkpt>
<trkpt lat="49.342772997915745" lon="7.933934954926372">
<ele>305.20000000000005</ele>
<time>2023-05-18T11:30:09Z</time>
</trkpt>
<trkpt lat="49.342751959338784" lon="7.933901930227876">
<ele>305.4</ele>
<time>2023-05-18T11:30:10Z</time>
</trkpt>
<trkpt lat="49.342729998752475" lon="7.933864966034889">
<ele>305.6</ele>
<time>2023-05-18T11:30:11Z</time>
</trkpt>
<trkpt lat="49.342711977660656" lon="7.933832947164774">
<ele>305.79999999999995</ele>
<time>2023-05-18T11:30:12Z</time>
</trkpt>
<trkpt lat="49.34269295074046" lon="7.933801934123039">
<ele>305.79999999999995</ele>
<time>2023-05-18T11:30:13Z</time>
</trkpt>
<trkpt lat="49.34267291799188" lon="7.933769999071956">
<ele>306</ele>
<time>2023-05-18T11:30:14Z</time>
</trkpt>
<trkpt lat="49.34265296906233" lon="7.93373798020184">
<ele>306.20000000000005</ele>
<time>2023-05-18T11:30:15Z</time>
</trkpt>
<trkpt lat="49.34263293631375" lon="7.9337099846452475">
<ele>306.4</ele>
<time>2023-05-18T11:30:16Z</time>
</trkpt>
<trkpt lat="49.34261499904096" lon="7.933679977431893">
<ele>306.6</ele>
<time>2023-05-18T11:30:17Z</time>
</trkpt>
<trkpt lat="49.34259496629238" lon="7.9336519818753">
<ele>306.79999999999995</ele>
<time>2023-05-18T11:30:18Z</time>
</trkpt>
<trkpt lat="49.3425749335438" lon="7.933622980490327">
<ele>307</ele>
<time>2023-05-18T11:30:19Z</time>
</trkpt>
<trkpt lat="49.34255196712911" lon="7.933594984933734">
<ele>307.20000000000005</ele>
<time>2023-05-18T11:30:20Z</time>
</trkpt>
<trkpt lat="49.34252992272377" lon="7.93356497772038">
<ele>307.20000000000005</ele>
<time>2023-05-18T11:30:21Z</time>
</trkpt>
<trkpt lat="49.34250997379422" lon="7.933536982163787">
<ele>307.4</ele>
<time>2023-05-18T11:30:22Z</time>
</trkpt>
<trkpt lat="49.34248994104564" lon="7.93350295163691">
<ele>307.6</ele>
<time>2023-05-18T11:30:23Z</time>
</trkpt>
<trkpt lat="49.34246798045933" lon="7.933472944423556">
<ele>307.79999999999995</ele>
<time>2023-05-18T11:30:24Z</time>
</trkpt>
<trkpt lat="49.34244694188237" lon="7.9334399197250605">
<ele>308</ele>
<time>2023-05-18T11:30:25Z</time>
</trkpt>
<trkpt lat="49.34241995215416" lon="7.933409996330738">
<ele>308.20000000000005</ele>
<time>2023-05-18T11:30:26Z</time>
</trkpt>
<trkpt lat="49.34240193106234" lon="7.933377977460623">
<ele>308.4</ele>
<time>2023-05-18T11:30:27Z</time>
</trkpt>
<trkpt lat="49.34237795881927" lon="7.93334998190403">
<ele>308.6</ele>
<time>2023-05-18T11:30:28Z</time>
</trkpt>
<trkpt lat="49.34235298074782" lon="7.933314945548773">
<ele>308.79999999999995</ele>
<time>2023-05-18T11:30:29Z</time>
</trkpt>
<trkpt lat="49.34232699684799" lon="7.9332829266786575">
<ele>309</ele>
<time>2023-05-18T11:30:30Z</time>
</trkpt>
<trkpt lat="49.34230696409941" lon="7.933252919465303">
<ele>309.20000000000005</ele>
<time>2023-05-18T11:30:31Z</time>
</trkpt>
<trkpt lat="49.34228793717921" lon="7.9332219902426">
<ele>309.4</ele>
<time>2023-05-18T11:30:32Z</time>
</trkpt>
<trkpt lat="49.34226698242128" lon="7.9331969283521175">
<ele>309.6</ele>
<time>2023-05-18T11:30:33Z</time>
</trkpt>
<trkpt lat="49.3422469496727" lon="7.933171950280666">
<ele>309.6</ele>
<time>2023-05-18T11:30:34Z</time>
</trkpt>
<trkpt lat="49.34222691692412" lon="7.933149989694357">
<ele>309.79999999999995</ele>
<time>2023-05-18T11:30:35Z</time>
</trkpt>
<trkpt lat="49.34220998547971" lon="7.933122999966145">
<ele>310</ele>
<time>2023-05-18T11:30:36Z</time>
</trkpt>
<trkpt lat="49.342191964387894" lon="7.933097938075662">
<ele>310.20000000000005</ele>
<time>2023-05-18T11:30:37Z</time>
</trkpt>
<trkpt lat="49.342172937467694" lon="7.933066925033927">
<ele>310.4</ele>
<time>2023-05-18T11:30:38Z</time>
</trkpt>
<trkpt lat="49.34215692803264" lon="7.933037923648953">
<ele>310.6</ele>
<time>2023-05-18T11:30:39Z</time>
</trkpt>
<trkpt lat="49.34213999658823" lon="7.933004982769489">
<ele>310.79999999999995</ele>
<time>2023-05-18T11:30:40Z</time>
</trkpt>
<trkpt lat="49.34212197549641" lon="7.932974975556135">
<ele>311</ele>
<time>2023-05-18T11:30:41Z</time>
</trkpt>
<trkpt lat="49.34210194274783" lon="7.932946979999542">
<ele>311</ele>
<time>2023-05-18T11:30:42Z</time>
</trkpt>
<trkpt lat="49.34207797050476" lon="7.932916972786188">
<ele>311.20000000000005</ele>
<time>2023-05-18T11:30:43Z</time>
</trkpt>
<trkpt lat="49.3420569319278" lon="7.932891994714737">
<ele>311.4</ele>
<time>2023-05-18T11:30:44Z</time>
</trkpt>
<trkpt lat="49.34203497134149" lon="7.932862993329763">
<ele>311.6</ele>
<time>2023-05-18T11:30:45Z</time>
</trkpt>
<trkpt lat="49.34201292693615" lon="7.9328369256109">
<ele>311.79999999999995</ele>
<time>2023-05-18T11:30:46Z</time>
</trkpt>
<trkpt lat="49.34199498966336" lon="7.932809935882688">
<ele>311.79999999999995</ele>
<time>2023-05-18T11:30:47Z</time>
</trkpt>
<trkpt lat="49.34197495691478" lon="7.9327799286693335">
<ele>312</ele>
<time>2023-05-18T11:30:48Z</time>
</trkpt>
<trkpt lat="49.34195299632847" lon="7.932749921455979">
<ele>312.20000000000005</ele>
<time>2023-05-18T11:30:49Z</time>
</trkpt>
<trkpt lat="49.341937992721796" lon="7.932721925899386">
<ele>312.4</ele>
<time>2023-05-18T11:30:50Z</time>
</trkpt>
<trkpt lat="49.341916954144835" lon="7.932696947827935">
<ele>312.4</ele>
<time>2023-05-18T11:30:51Z</time>
</trkpt>
<trkpt lat="49.341892981901765" lon="7.932666940614581">
<ele>312.6</ele>
<time>2023-05-18T11:30:52Z</time>
</trkpt>
<trkpt lat="49.34186792001128" lon="7.932637939229608">
<ele>312.79999999999995</ele>
<time>2023-05-18T11:30:53Z</time>
</trkpt>
<trkpt lat="49.341847971081734" lon="7.932606926187873">
<ele>313</ele>
<time>2023-05-18T11:30:54Z</time>
</trkpt>
<trkpt lat="49.34183296747506" lon="7.932574991136789">
<ele>313</ele>
<time>2023-05-18T11:30:55Z</time>
</trkpt>
<trkpt lat="49.34181293472648" lon="7.932542972266674">
<ele>313.20000000000005</ele>
<time>2023-05-18T11:30:56Z</time>
</trkpt>
<trkpt lat="49.34179692529142" lon="7.932507935911417">
<ele>313.4</ele>
<time>2023-05-18T11:30:57Z</time>
</trkpt>
<trkpt lat="49.34178996831179" lon="7.932459991425276">
<ele>313.6</ele>
<time>2023-05-18T11:30:58Z</time>
</trkpt>
<trkpt lat="49.34178292751312" lon="7.9324129689484835">
<ele>313.79999999999995</ele>
<time>2023-05-18T11:30:59Z</time>
</trkpt>
<trkpt lat="49.34178292751312" lon="7.932371981441975">
<ele>314</ele>
<time>2023-05-18T11:31:00Z</time>
</trkpt>
<trkpt lat="49.341787956655025" lon="7.9323219414800406">
<ele>314.20000000000005</ele>
<time>2023-05-18T11:31:01Z</time>
</trkpt>
<trkpt lat="49.341784939169884" lon="7.932266956195235">
<ele>314.4</ele>
<time>2023-05-18T11:31:02Z</time>
</trkpt>
<trkpt lat="49.341784939169884" lon="7.932206941768527">
<ele>314.6</ele>
<time>2023-05-18T11:31:03Z</time>
</trkpt>
<trkpt lat="49.341784939169884" lon="7.932151956483722">
<ele>314.79999999999995</ele>
<time>2023-05-18T11:31:04Z</time>
</trkpt>
<trkpt lat="49.34178996831179" lon="7.932097977027297">
<ele>315</ele>
<time>2023-05-18T11:31:05Z</time>
</trkpt>
<trkpt lat="49.34179499745369" lon="7.932046931236982">
<ele>315.20000000000005</ele>
<time>2023-05-18T11:31:06Z</time>
</trkpt>
<trkpt lat="49.34179994277656" lon="7.931991945952177">
<ele>315.4</ele>
<time>2023-05-18T11:31:07Z</time>
</trkpt>
<trkpt lat="49.341806983575225" lon="7.931942995637655">
<ele>315.6</ele>
<time>2023-05-18T11:31:08Z</time>
</trkpt>
<trkpt lat="49.34181293472648" lon="7.9318969789892435">
<ele>315.79999999999995</ele>
<time>2023-05-18T11:31:09Z</time>
</trkpt>
<trkpt lat="49.34181695804" lon="7.93184794485569">
<ele>316</ele>
<time>2023-05-18T11:31:10Z</time>
</trkpt>
<trkpt lat="49.34182299301028" lon="7.931799916550517">
<ele>316.20000000000005</ele>
<time>2023-05-18T11:31:11Z</time>
</trkpt>
<trkpt lat="49.341827938333154" lon="7.931751972064376">
<ele>316.4</ele>
<time>2023-05-18T11:31:12Z</time>
</trkpt>
<trkpt lat="49.34183497913182" lon="7.931707967072725">
<ele>316.6</ele>
<time>2023-05-18T11:31:13Z</time>
</trkpt>
<trkpt lat="49.34183992445469" lon="7.9316619504243135">
<ele>316.79999999999995</ele>
<time>2023-05-18T11:31:14Z</time>
</trkpt>
<trkpt lat="49.34184193611145" lon="7.93160998262465">
<ele>317</ele>
<time>2023-05-18T11:31:15Z</time>
</trkpt>
<trkpt lat="49.341847971081734" lon="7.931557931005955">
<ele>317.20000000000005</ele>
<time>2023-05-18T11:31:16Z</time>
</trkpt>
<trkpt lat="49.341852916404605" lon="7.931506969034672">
<ele>317.4</ele>
<time>2023-05-18T11:31:17Z</time>
</trkpt>
<trkpt lat="49.34185995720327" lon="7.931457934901118">
<ele>317.6</ele>
<time>2023-05-18T11:31:18Z</time>
</trkpt>
<trkpt lat="49.34186699800193" lon="7.931414935737848">
<ele>317.79999999999995</ele>
<time>2023-05-18T11:31:19Z</time>
</trkpt>
<trkpt lat="49.341872949153185" lon="7.931377971544862">
<ele>318.20000000000005</ele>
<time>2023-05-18T11:31:20Z</time>
</trkpt>
<trkpt lat="49.34188191778958" lon="7.931349975988269">
<ele>318.4</ele>
<time>2023-05-18T11:31:21Z</time>
</trkpt>
<trkpt lat="49.34188292361796" lon="7.931319968774915">
<ele>318.6</ele>
<time>2023-05-18T11:31:22Z</time>
</trkpt>
<trkpt lat="49.34188694693148" lon="7.931286944076419">
<ele>318.79999999999995</ele>
<time>2023-05-18T11:31:23Z</time>
</trkpt>
<trkpt lat="49.34188795275986" lon="7.931249979883432">
<ele>319</ele>
<time>2023-05-18T11:31:24Z</time>
</trkpt>
<trkpt lat="49.34188996441662" lon="7.931211926043034">
<ele>319.20000000000005</ele>
<time>2023-05-18T11:31:25Z</time>
</trkpt>
<trkpt lat="49.341891976073384" lon="7.931169932708144">
<ele>319.4</ele>
<time>2023-05-18T11:31:26Z</time>
</trkpt>
<trkpt lat="49.34188996441662" lon="7.93113992549479">
<ele>319.6</ele>
<time>2023-05-18T11:31:27Z</time>
</trkpt>
<trkpt lat="49.34188996441662" lon="7.931102961301804">
<ele>319.79999999999995</ele>
<time>2023-05-18T11:31:28Z</time>
</trkpt>
<trkpt lat="49.341894993558526" lon="7.931062979623675">
<ele>320</ele>
<time>2023-05-18T11:31:29Z</time>
</trkpt>
<trkpt lat="49.34190295636654" lon="7.931012939661741">
<ele>320.20000000000005</ele>
<time>2023-05-18T11:31:30Z</time>
</trkpt>
<trkpt lat="49.3419049680233" lon="7.9309669230133295">
<ele>320.6</ele>
<time>2023-05-18T11:31:31Z</time>
</trkpt>
<trkpt lat="49.34190195053816" lon="7.930917972698808">
<ele>320.79999999999995</ele>
<time>2023-05-18T11:31:32Z</time>
</trkpt>
<trkpt lat="49.3418999388814" lon="7.930869944393635">
<ele>321</ele>
<time>2023-05-18T11:31:33Z</time>
</trkpt>
<trkpt lat="49.341891976073384" lon="7.930804984644055">
<ele>321.20000000000005</ele>
<time>2023-05-18T11:31:34Z</time>
</trkpt>
<trkpt lat="49.34188996441662" lon="7.930739941075444">
<ele>321.4</ele>
<time>2023-05-18T11:31:35Z</time>
</trkpt>
<trkpt lat="49.34188493527472" lon="7.930682944133878">
<ele>321.6</ele>
<time>2023-05-18T11:31:36Z</time>
</trkpt>
<trkpt lat="49.341874960809946" lon="7.930631982162595">
<ele>321.79999999999995</ele>
<time>2023-05-18T11:31:37Z</time>
</trkpt>
<trkpt lat="49.341871943324804" lon="7.930582948029041">
<ele>322</ele>
<time>2023-05-18T11:31:38Z</time>
</trkpt>
<trkpt lat="49.34186498634517" lon="7.930534919723868">
<ele>322.20000000000005</ele>
<time>2023-05-18T11:31:39Z</time>
</trkpt>
<trkpt lat="49.34186297468841" lon="7.930489992722869">
<ele>322.4</ele>
<time>2023-05-18T11:31:40Z</time>
</trkpt>
<trkpt lat="49.341854928061366" lon="7.9304479993879795">
<ele>322.6</ele>
<time>2023-05-18T11:31:41Z</time>
</trkpt>
<trkpt lat="49.34184495359659" lon="7.930406928062439">
<ele>322.79999999999995</ele>
<time>2023-05-18T11:31:42Z</time>
</trkpt>
<trkpt lat="49.34183699078858" lon="7.9303649347275496">
<ele>323</ele>
<time>2023-05-18T11:31:43Z</time>
</trkpt>
<trkpt lat="49.34181997552514" lon="7.93032294139266">
<ele>323.20000000000005</ele>
<time>2023-05-18T11:31:44Z</time>
</trkpt>
<trkpt lat="49.34179994277656" lon="7.930286983028054">
<ele>323.6</ele>
<time>2023-05-18T11:31:45Z</time>
</trkpt>
<trkpt lat="49.34177798219025" lon="7.930251946672797">
<ele>323.79999999999995</ele>
<time>2023-05-18T11:31:46Z</time>
</trkpt>
<trkpt lat="49.34175996109843" lon="7.930211964994669">
<ele>324</ele>
<time>2023-05-18T11:31:47Z</time>
</trkpt>
<trkpt lat="49.341742945834994" lon="7.930167960003018">
<ele>324.20000000000005</ele>
<time>2023-05-18T11:31:48Z</time>
</trkpt>
<trkpt lat="49.34172693639994" lon="7.930129989981651">
<ele>324.4</ele>
<time>2023-05-18T11:31:49Z</time>
</trkpt>
<trkpt lat="49.3417149502784" lon="7.9300919361412525">
<ele>324.6</ele>
<time>2023-05-18T11:31:50Z</time>
</trkpt>
<trkpt lat="49.34169793501496" lon="7.930056983605027">
<ele>324.79999999999995</ele>
<time>2023-05-18T11:31:51Z</time>
</trkpt>
<trkpt lat="49.34168494306505" lon="7.930024964734912">
<ele>325</ele>
<time>2023-05-18T11:31:52Z</time>
</trkpt>
<trkpt lat="49.3416649941355" lon="7.930001998320222">
<ele>325.20000000000005</ele>
<time>2023-05-18T11:31:53Z</time>
</trkpt>
<trkpt lat="49.34164999052882" lon="7.929964950308204">
<ele>325.4</ele>
<time>2023-05-18T11:31:54Z</time>
</trkpt>
<trkpt lat="49.341636998578906" lon="7.929927986115217">
<ele>325.6</ele>
<time>2023-05-18T11:31:55Z</time>
</trkpt>
<trkpt lat="49.341612942516804" lon="7.929884986951947">
<ele>325.79999999999995</ele>
<time>2023-05-18T11:31:56Z</time>
</trkpt>
<trkpt lat="49.341591987758875" lon="7.929841987788677">
<ele>325.79999999999995</ele>
<time>2023-05-18T11:31:57Z</time>
</trkpt>
<trkpt lat="49.34156793169677" lon="7.929796976968646">
<ele>326</ele>
<time>2023-05-18T11:31:58Z</time>
</trkpt>
<trkpt lat="49.341552928090096" lon="7.929759928956628">
<ele>326.20000000000005</ele>
<time>2023-05-18T11:31:59Z</time>
</trkpt>
<trkpt lat="49.34153297916055" lon="7.9297249764204025">
<ele>326.4</ele>
<time>2023-05-18T11:32:00Z</time>
</trkpt>
<trkpt lat="49.34151294641197" lon="7.929686922580004">
<ele>326.6</ele>
<time>2023-05-18T11:32:01Z</time>
</trkpt>
<trkpt lat="49.34149693697691" lon="7.929644929245114">
<ele>326.79999999999995</ele>
<time>2023-05-18T11:32:02Z</time>
</trkpt>
<trkpt lat="49.34148193337023" lon="7.929596984758973">
<ele>327</ele>
<time>2023-05-18T11:32:03Z</time>
</trkpt>
<trkpt lat="49.341462990269065" lon="7.929549962282181">
<ele>327.20000000000005</ele>
<time>2023-05-18T11:32:04Z</time>
</trkpt>
<trkpt lat="49.34143792837858" lon="7.929507968947291">
<ele>327.4</ele>
<time>2023-05-18T11:32:05Z</time>
</trkpt>
<trkpt lat="49.34141295030713" lon="7.929471926763654">
<ele>327.6</ele>
<time>2023-05-18T11:32:06Z</time>
</trkpt>
<trkpt lat="49.34138495475054" lon="7.929432950913906">
<ele>327.79999999999995</ele>
<time>2023-05-18T11:32:07Z</time>
</trkpt>
<trkpt lat="49.34134497307241" lon="7.929391963407397">
<ele>328</ele>
<time>2023-05-18T11:32:08Z</time>
</trkpt>
<trkpt lat="49.3413179833442" lon="7.929339995607734">
<ele>328.20000000000005</ele>
<time>2023-05-18T11:32:09Z</time>
</trkpt>
<trkpt lat="49.341294933110476" lon="7.9292899556458">
<ele>328.4</ele>
<time>2023-05-18T11:32:10Z</time>
</trkpt>
<trkpt lat="49.341272972524166" lon="7.9292449448257685">
<ele>328.6</ele>
<time>2023-05-18T11:32:11Z</time>
</trkpt>
<trkpt lat="49.341251933947206" lon="7.929194988682866">
<ele>328.79999999999995</ele>
<time>2023-05-18T11:32:12Z</time>
</trkpt>
<trkpt lat="49.341227961704135" lon="7.929149977862835">
<ele>329</ele>
<time>2023-05-18T11:32:13Z</time>
</trkpt>
<trkpt lat="49.341204995289445" lon="7.929102955386043">
<ele>329</ele>
<time>2023-05-18T11:32:14Z</time>
</trkpt>
<trkpt lat="49.341184962540865" lon="7.929057944566011">
<ele>329.20000000000005</ele>
<time>2023-05-18T11:32:15Z</time>
</trkpt>
<trkpt lat="49.341162918135524" lon="7.929016957059503">
<ele>329.4</ele>
<time>2023-05-18T11:32:16Z</time>
</trkpt>
<trkpt lat="49.341142969205976" lon="7.928976975381374">
<ele>329.6</ele>
<time>2023-05-18T11:32:17Z</time>
</trkpt>
<trkpt lat="49.34112695977092" lon="7.928937999531627">
<ele>329.79999999999995</ele>
<time>2023-05-18T11:32:18Z</time>
</trkpt>
<trkpt lat="49.34110499918461" lon="7.928909920156002">
<ele>330</ele>
<time>2023-05-18T11:32:19Z</time>
</trkpt>
<trkpt lat="49.34108697809279" lon="7.928871950134635">
<ele>330.20000000000005</ele>
<time>2023-05-18T11:32:20Z</time>
</trkpt>
<trkpt lat="49.34106493368745" lon="7.928831968456507">
<ele>330.4</ele>
<time>2023-05-18T11:32:21Z</time>
</trkpt>
<trkpt lat="49.3410449847579" lon="7.9287949204444885">
<ele>330.6</ele>
<time>2023-05-18T11:32:22Z</time>
</trkpt>
<trkpt lat="49.34102495200932" lon="7.928757956251502">
<ele>330.79999999999995</ele>
<time>2023-05-18T11:32:23Z</time>
</trkpt>
<trkpt lat="49.3410069309175" lon="7.928722919896245">
<ele>331</ele>
<time>2023-05-18T11:32:24Z</time>
</trkpt>
<trkpt lat="49.34098497033119" lon="7.928684949874878">
<ele>331.20000000000005</ele>
<time>2023-05-18T11:32:25Z</time>
</trkpt>
<trkpt lat="49.34095999225974" lon="7.928656954318285">
<ele>331.4</ele>
<time>2023-05-18T11:32:26Z</time>
</trkpt>
<trkpt lat="49.34093694202602" lon="7.9286229237914085">
<ele>331.6</ele>
<time>2023-05-18T11:32:27Z</time>
</trkpt>
<trkpt lat="49.34091296978295" lon="7.928594928234816">
<ele>331.79999999999995</ele>
<time>2023-05-18T11:32:28Z</time>
</trkpt>
<trkpt lat="49.3408879917115" lon="7.9285619873553514">
<ele>332</ele>
<time>2023-05-18T11:32:29Z</time>
</trkpt>
<trkpt lat="49.340864941477776" lon="7.928526951000094">
<ele>332.20000000000005</ele>
<time>2023-05-18T11:32:30Z</time>
</trkpt>
<trkpt lat="49.34084692038596" lon="7.928482946008444">
<ele>332.6</ele>
<time>2023-05-18T11:32:31Z</time>
</trkpt>
<trkpt lat="49.34082797728479" lon="7.928441958501935">
<ele>332.79999999999995</ele>
<time>2023-05-18T11:32:32Z</time>
</trkpt>
<trkpt lat="49.34080995619297" lon="7.9284079279750586">
<ele>333</ele>
<time>2023-05-18T11:32:33Z</time>
</trkpt>
<trkpt lat="49.340796964243054" lon="7.92836694046855">
<ele>333.20000000000005</ele>
<time>2023-05-18T11:32:34Z</time>
</trkpt>
<trkpt lat="49.34078196063638" lon="7.928332993760705">
<ele>333.4</ele>
<time>2023-05-18T11:32:35Z</time>
</trkpt>
<trkpt lat="49.3407669570297" lon="7.928302986547351">
<ele>333.6</ele>
<time>2023-05-18T11:32:36Z</time>
</trkpt>
<trkpt lat="49.34074499644339" lon="7.928266944363713">
<ele>333.6</ele>
<time>2023-05-18T11:32:37Z</time>
</trkpt>
<trkpt lat="49.34071993455291" lon="7.928231991827488">
<ele>333.79999999999995</ele>
<time>2023-05-18T11:32:38Z</time>
</trkpt>
<trkpt lat="49.34069495648146" lon="7.9281979613006115">
<ele>334</ele>
<time>2023-05-18T11:32:39Z</time>
</trkpt>
<trkpt lat="49.34067199006677" lon="7.928161919116974">
<ele>334.20000000000005</ele>
<time>2023-05-18T11:32:40Z</time>
</trkpt>
<trkpt lat="49.34065195731819" lon="7.9281319957226515">
<ele>334.4</ele>
<time>2023-05-18T11:32:41Z</time>
</trkpt>
<trkpt lat="49.34062999673188" lon="7.928099976852536">
<ele>334.6</ele>
<time>2023-05-18T11:32:42Z</time>
</trkpt>
<trkpt lat="49.3406099639833" lon="7.928057983517647">
<ele>334.79999999999995</ele>
<time>2023-05-18T11:32:43Z</time>
</trkpt>
<trkpt lat="49.34059294871986" lon="7.928024958819151">
<ele>334.79999999999995</ele>
<time>2023-05-18T11:32:44Z</time>
</trkpt>
<trkpt lat="49.34057794511318" lon="7.927992939949036">
<ele>335</ele>
<time>2023-05-18T11:32:45Z</time>
</trkpt>
<trkpt lat="49.34056696482003" lon="7.92795698158443">
<ele>335.20000000000005</ele>
<time>2023-05-18T11:32:46Z</time>
</trkpt>
<trkpt lat="49.34055196121335" lon="7.92791792191565">
<ele>335.4</ele>
<time>2023-05-18T11:32:47Z</time>
</trkpt>
<trkpt lat="49.34053192846477" lon="7.9278769344091415">
<ele>335.6</ele>
<time>2023-05-18T11:32:48Z</time>
</trkpt>
<trkpt lat="49.340514997020364" lon="7.927837958559394">
<ele>335.79999999999995</ele>
<time>2023-05-18T11:32:49Z</time>
</trkpt>
<trkpt lat="49.340497981756926" lon="7.927799988538027">
<ele>336</ele>
<time>2023-05-18T11:32:50Z</time>
</trkpt>
<trkpt lat="49.34047996066511" lon="7.927761934697628">
<ele>336.20000000000005</ele>
<time>2023-05-18T11:32:51Z</time>
</trkpt>
<trkpt lat="49.34046294540167" lon="7.9277219530195">
<ele>336.4</ele>
<time>2023-05-18T11:32:52Z</time>
</trkpt>
<trkpt lat="49.34044995345175" lon="7.927682977169752">
<ele>336.4</ele>
<time>2023-05-18T11:32:53Z</time>
</trkpt>
<trkpt lat="49.34043796733022" lon="7.9276469349861145">
<ele>336.6</ele>
<time>2023-05-18T11:32:54Z</time>
</trkpt>
<trkpt lat="49.34042296372354" lon="7.927611982449889">
<ele>336.79999999999995</ele>
<time>2023-05-18T11:32:55Z</time>
</trkpt>
<trkpt lat="49.340409971773624" lon="7.927579963579774">
<ele>337</ele>
<time>2023-05-18T11:32:56Z</time>
</trkpt>
<trkpt lat="49.34040192514658" lon="7.92754995636642">
<ele>337.20000000000005</ele>
<time>2023-05-18T11:32:57Z</time>
</trkpt>
<trkpt lat="49.340392956510186" lon="7.927519949153066">
<ele>337.4</ele>
<time>2023-05-18T11:32:58Z</time>
</trkpt>
<trkpt lat="49.34037694707513" lon="7.92748692445457">
<ele>337.6</ele>
<time>2023-05-18T11:32:59Z</time>
</trkpt>
<trkpt lat="49.34035699814558" lon="7.927452977746725">
<ele>337.79999999999995</ele>
<time>2023-05-18T11:33:00Z</time>
</trkpt>
<trkpt lat="49.34033797122538" lon="7.92742196470499">
<ele>337.79999999999995</ele>
<time>2023-05-18T11:33:01Z</time>
</trkpt>
<trkpt lat="49.34031299315393" lon="7.927386928349733">
<ele>338</ele>
<time>2023-05-18T11:33:02Z</time>
</trkpt>
<trkpt lat="49.34028994292021" lon="7.927349964156747">
<ele>338.20000000000005</ele>
<time>2023-05-18T11:33:03Z</time>
</trkpt>
<trkpt lat="49.34027192182839" lon="7.92731492780149">
<ele>338.4</ele>
<time>2023-05-18T11:33:04Z</time>
</trkpt>
<trkpt lat="49.34025499038398" lon="7.927282992750406">
<ele>338.6</ele>
<time>2023-05-18T11:33:05Z</time>
</trkpt>
<trkpt lat="49.340239986777306" lon="7.927252985537052">
<ele>338.79999999999995</ele>
<time>2023-05-18T11:33:06Z</time>
</trkpt>
<trkpt lat="49.34022498317063" lon="7.9272219724953175">
<ele>338.79999999999995</ele>
<time>2023-05-18T11:33:07Z</time>
</trkpt>
<trkpt lat="49.34020997956395" lon="7.92718693614006">
<ele>339</ele>
<time>2023-05-18T11:33:08Z</time>
</trkpt>
<trkpt lat="49.34019195847213" lon="7.927149971947074">
<ele>339.20000000000005</ele>
<time>2023-05-18T11:33:09Z</time>
</trkpt>
<trkpt lat="49.34017192572355" lon="7.927116947248578">
<ele>339.4</ele>
<time>2023-05-18T11:33:10Z</time>
</trkpt>
<trkpt lat="49.340152982622385" lon="7.92707696557045">
<ele>339.6</ele>
<time>2023-05-18T11:33:11Z</time>
</trkpt>
<trkpt lat="49.3401279207319" lon="7.927036983892322">
<ele>339.79999999999995</ele>
<time>2023-05-18T11:33:12Z</time>
</trkpt>
<trkpt lat="49.340109983459115" lon="7.9270019475370646">
<ele>340</ele>
<time>2023-05-18T11:33:13Z</time>
</trkpt>
<trkpt lat="49.340087939053774" lon="7.926966995000839">
<ele>340.20000000000005</ele>
<time>2023-05-18T11:33:14Z</time>
</trkpt>
<trkpt lat="49.340067990124226" lon="7.926932964473963">
<ele>340.4</ele>
<time>2023-05-18T11:33:15Z</time>
</trkpt>
<trkpt lat="49.34004996903241" lon="7.926899939775467">
<ele>340.6</ele>
<time>2023-05-18T11:33:16Z</time>
</trkpt>
<trkpt lat="49.34002993628383" lon="7.92686297558248">
<ele>340.79999999999995</ele>
<time>2023-05-18T11:33:17Z</time>
</trkpt>
<trkpt lat="49.34000797569752" lon="7.926826933398843">
<ele>340.79999999999995</ele>
<time>2023-05-18T11:33:18Z</time>
</trkpt>
<trkpt lat="49.33998693712056" lon="7.926786951720715">
<ele>341</ele>
<time>2023-05-18T11:33:19Z</time>
</trkpt>
<trkpt lat="49.33996799401939" lon="7.926747975870967">
<ele>341.20000000000005</ele>
<time>2023-05-18T11:33:20Z</time>
</trkpt>
<trkpt lat="49.33994695544243" lon="7.926707994192839">
<ele>341.4</ele>
<time>2023-05-18T11:33:21Z</time>
</trkpt>
<trkpt lat="49.33992792852223" lon="7.926666922867298">
<ele>341.6</ele>
<time>2023-05-18T11:33:22Z</time>
</trkpt>
<trkpt lat="49.33991191908717" lon="7.9266279470175505">
<ele>341.79999999999995</ele>
<time>2023-05-18T11:33:23Z</time>
</trkpt>
<trkpt lat="49.33989197015762" lon="7.926589976996183">
<ele>342</ele>
<time>2023-05-18T11:33:24Z</time>
</trkpt>
<trkpt lat="49.339874954894185" lon="7.9265619814395905">
<ele>342.20000000000005</ele>
<time>2023-05-18T11:33:25Z</time>
</trkpt>
<trkpt lat="49.339856933802366" lon="7.926532980054617">
<ele>342.4</ele>
<time>2023-05-18T11:33:26Z</time>
</trkpt>
<trkpt lat="49.33983991853893" lon="7.926499955356121">
<ele>342.6</ele>
<time>2023-05-18T11:33:27Z</time>
</trkpt>
<trkpt lat="49.33981494046748" lon="7.926461985334754">
<ele>342.79999999999995</ele>
<time>2023-05-18T11:33:28Z</time>
</trkpt>
<trkpt lat="49.339789962396026" lon="7.926424937322736">
<ele>343</ele>
<time>2023-05-18T11:33:29Z</time>
</trkpt>
<trkpt lat="49.339764984324574" lon="7.9263899847865105">
<ele>343.20000000000005</ele>
<time>2023-05-18T11:33:30Z</time>
</trkpt>
<trkpt lat="49.339746963232756" lon="7.926359977573156">
<ele>343.4</ele>
<time>2023-05-18T11:33:31Z</time>
</trkpt>
<trkpt lat="49.339726930484176" lon="7.926327958703041">
<ele>343.6</ele>
<time>2023-05-18T11:33:32Z</time>
</trkpt>
<trkpt lat="49.339702958241105" lon="7.926292922347784">
<ele>343.79999999999995</ele>
<time>2023-05-18T11:33:33Z</time>
</trkpt>
<trkpt lat="49.339681919664145" lon="7.926252940669656">
<ele>344</ele>
<time>2023-05-18T11:33:34Z</time>
</trkpt>
<trkpt lat="49.339659959077835" lon="7.926211953163147">
<ele>344</ele>
<time>2023-05-18T11:33:35Z</time>
</trkpt>
<trkpt lat="49.339639926329255" lon="7.926171971485019">
<ele>344.20000000000005</ele>
<time>2023-05-18T11:33:36Z</time>
</trkpt>
<trkpt lat="49.33962299488485" lon="7.926132995635271">
<ele>344.4</ele>
<time>2023-05-18T11:33:37Z</time>
</trkpt>
<trkpt lat="49.33960195630789" lon="7.926089996472001">
<ele>344.6</ele>
<time>2023-05-18T11:33:38Z</time>
</trkpt>
<trkpt lat="49.33958494104445" lon="7.926052948459983">
<ele>344.79999999999995</ele>
<time>2023-05-18T11:33:39Z</time>
</trkpt>
<trkpt lat="49.33956691995263" lon="7.926016990095377">
<ele>345</ele>
<time>2023-05-18T11:33:40Z</time>
</trkpt>
<trkpt lat="49.33953791856766" lon="7.925976924598217">
<ele>345</ele>
<time>2023-05-18T11:33:41Z</time>
</trkpt>
<trkpt lat="49.339511934667826" lon="7.9259399604052305">
<ele>345.20000000000005</ele>
<time>2023-05-18T11:33:42Z</time>
</trkpt>
<trkpt lat="49.339487962424755" lon="7.9259049240499735">
<ele>345.4</ele>
<time>2023-05-18T11:33:43Z</time>
</trkpt>
<trkpt lat="49.339467929676175" lon="7.92587298899889">
<ele>345.6</ele>
<time>2023-05-18T11:33:44Z</time>
</trkpt>
<trkpt lat="49.339444963261485" lon="7.925839964300394">
<ele>345.79999999999995</ele>
<time>2023-05-18T11:33:45Z</time>
</trkpt>
<trkpt lat="49.339421996846795" lon="7.925806939601898">
<ele>346</ele>
<time>2023-05-18T11:33:46Z</time>
</trkpt>
<trkpt lat="49.33939693495631" lon="7.9257679637521505">
<ele>346.20000000000005</ele>
<time>2023-05-18T11:33:47Z</time>
</trkpt>
<trkpt lat="49.33937296271324" lon="7.925736950710416">
<ele>346.4</ele>
<time>2023-05-18T11:33:48Z</time>
</trkpt>
<trkpt lat="49.33935292996466" lon="7.925702920183539">
<ele>346.6</ele>
<time>2023-05-18T11:33:49Z</time>
</trkpt>
<trkpt lat="49.33933298103511" lon="7.925671990960836">
<ele>346.79999999999995</ele>
<time>2023-05-18T11:33:50Z</time>
</trkpt>
<trkpt lat="49.33931194245815" lon="7.925639972090721">
<ele>347</ele>
<time>2023-05-18T11:33:51Z</time>
</trkpt>
<trkpt lat="49.33928998187184" lon="7.925604935735464">
<ele>347.20000000000005</ele>
<time>2023-05-18T11:33:52Z</time>
</trkpt>
<trkpt lat="49.3392679374665" lon="7.925571994856">
<ele>347.20000000000005</ele>
<time>2023-05-18T11:33:53Z</time>
</trkpt>
<trkpt lat="49.33924698270857" lon="7.9255379643291235">
<ele>347.4</ele>
<time>2023-05-18T11:33:54Z</time>
</trkpt>
<trkpt lat="49.33922292664647" lon="7.925511980429292">
<ele>347.6</ele>
<time>2023-05-18T11:33:55Z</time>
</trkpt>
<trkpt lat="49.33920197188854" lon="7.9254799615591764">
<ele>347.79999999999995</ele>
<time>2023-05-18T11:33:56Z</time>
</trkpt>
<trkpt lat="49.3391799274832" lon="7.925446936860681">
<ele>348</ele>
<time>2023-05-18T11:33:57Z</time>
</trkpt>
<trkpt lat="49.33915796689689" lon="7.925414917990565">
<ele>348.20000000000005</ele>
<time>2023-05-18T11:33:58Z</time>
</trkpt>
<trkpt lat="49.33913793414831" lon="7.925382982939482">
<ele>348.4</ele>
<time>2023-05-18T11:33:59Z</time>
</trkpt>
<trkpt lat="49.339119996875525" lon="7.925352975726128">
<ele>348.6</ele>
<time>2023-05-18T11:34:00Z</time>
</trkpt>
<trkpt lat="49.33909795247018" lon="7.9253229685127735">
<ele>348.79999999999995</ele>
<time>2023-05-18T11:34:01Z</time>
</trkpt>
<trkpt lat="49.33907498605549" lon="7.925294972956181">
<ele>349</ele>
<time>2023-05-18T11:34:02Z</time>
</trkpt>
<trkpt lat="49.33905193582177" lon="7.925262954086065">
<ele>349.20000000000005</ele>
<time>2023-05-18T11:34:03Z</time>
</trkpt>
<trkpt lat="49.33902695775032" lon="7.925229929387569">
<ele>349.4</ele>
<time>2023-05-18T11:34:04Z</time>
</trkpt>
<trkpt lat="49.33900298550725" lon="7.925199922174215">
<ele>349.4</ele>
<time>2023-05-18T11:34:05Z</time>
</trkpt>
<trkpt lat="49.33897993527353" lon="7.925169998779893">
<ele>349.6</ele>
<time>2023-05-18T11:34:06Z</time>
</trkpt>
<trkpt lat="49.33895797468722" lon="7.925139991566539">
<ele>349.79999999999995</ele>
<time>2023-05-18T11:34:07Z</time>
</trkpt>
<trkpt lat="49.3389399535954" lon="7.9251079726964235">
<ele>350</ele>
<time>2023-05-18T11:34:08Z</time>
</trkpt>
<trkpt lat="49.33892293833196" lon="7.9250729363411665">
<ele>350.20000000000005</ele>
<time>2023-05-18T11:34:09Z</time>
</trkpt>
<trkpt lat="49.338907934725285" lon="7.925034966319799">
<ele>350.4</ele>
<time>2023-05-18T11:34:10Z</time>
</trkpt>
<trkpt lat="49.3388899974525" lon="7.925002947449684">
<ele>350.6</ele>
<time>2023-05-18T11:34:11Z</time>
</trkpt>
<trkpt lat="49.33886996470392" lon="7.924974951893091">
<ele>350.6</ele>
<time>2023-05-18T11:34:12Z</time>
</trkpt>
<trkpt lat="49.338847920298576" lon="7.924941927194595">
<ele>350.79999999999995</ele>
<time>2023-05-18T11:34:13Z</time>
</trkpt>
<trkpt lat="49.33882998302579" lon="7.924911919981241">
<ele>351</ele>
<time>2023-05-18T11:34:14Z</time>
</trkpt>
<trkpt lat="49.33880995027721" lon="7.924881996586919">
<ele>351.20000000000005</ele>
<time>2023-05-18T11:34:15Z</time>
</trkpt>
<trkpt lat="49.3387879896909" lon="7.9248499777168036">
<ele>351.4</ele>
<time>2023-05-18T11:34:16Z</time>
</trkpt>
<trkpt lat="49.33876795694232" lon="7.924817958846688">
<ele>351.4</ele>
<time>2023-05-18T11:34:17Z</time>
</trkpt>
<trkpt lat="49.33874792419374" lon="7.924787951633334">
<ele>351.6</ele>
<time>2023-05-18T11:34:18Z</time>
</trkpt>
<trkpt lat="49.33872998692095" lon="7.92475794441998">
<ele>351.79999999999995</ele>
<time>2023-05-18T11:34:19Z</time>
</trkpt>
<trkpt lat="49.338711965829134" lon="7.924727937206626">
<ele>352</ele>
<time>2023-05-18T11:34:20Z</time>
</trkpt>
<trkpt lat="49.33868799358606" lon="7.92469197884202">
<ele>352.20000000000005</ele>
<time>2023-05-18T11:34:21Z</time>
</trkpt>
<trkpt lat="49.33866796083748" lon="7.924661971628666">
<ele>352.4</ele>
<time>2023-05-18T11:34:22Z</time>
</trkpt>
<trkpt lat="49.33864692226052" lon="7.924636993557215">
<ele>352.6</ele>
<time>2023-05-18T11:34:23Z</time>
</trkpt>
<trkpt lat="49.338626973330975" lon="7.924606986343861">
<ele>352.79999999999995</ele>
<time>2023-05-18T11:34:24Z</time>
</trkpt>
<trkpt lat="49.338607946410775" lon="7.9245769791305065">
<ele>353</ele>
<time>2023-05-18T11:34:25Z</time>
</trkpt>
<trkpt lat="49.33858799748123" lon="7.924544960260391">
<ele>353.20000000000005</ele>
<time>2023-05-18T11:34:26Z</time>
</trkpt>
<trkpt lat="49.33857198804617" lon="7.924504978582263">
<ele>353.4</ele>
<time>2023-05-18T11:34:27Z</time>
</trkpt>
<trkpt lat="49.33855195529759" lon="7.924472959712148">
<ele>353.6</ele>
<time>2023-05-18T11:34:28Z</time>
</trkpt>
<trkpt lat="49.33852999471128" lon="7.924437923356891">
<ele>353.79999999999995</ele>
<time>2023-05-18T11:34:29Z</time>
</trkpt>
<trkpt lat="49.3385099619627" lon="7.924406994134188">
<ele>353.79999999999995</ele>
<time>2023-05-18T11:34:30Z</time>
</trkpt>
<trkpt lat="49.33848992921412" lon="7.924374975264072">
<ele>354</ele>
<time>2023-05-18T11:34:31Z</time>
</trkpt>
<trkpt lat="49.33847199194133" lon="7.924337927252054">
<ele>354.20000000000005</ele>
<time>2023-05-18T11:34:32Z</time>
</trkpt>
<trkpt lat="49.338454976677895" lon="7.924306998029351">
<ele>354.4</ele>
<time>2023-05-18T11:34:33Z</time>
</trkpt>
<trkpt lat="49.338436955586076" lon="7.924274979159236">
<ele>354.6</ele>
<time>2023-05-18T11:34:34Z</time>
</trkpt>
<trkpt lat="49.338416922837496" lon="7.92424195446074">
<ele>354.79999999999995</ele>
<time>2023-05-18T11:34:35Z</time>
</trkpt>
<trkpt lat="49.33839797973633" lon="7.924206918105483">
<ele>355</ele>
<time>2023-05-18T11:34:36Z</time>
</trkpt>
<trkpt lat="49.33837794698775" lon="7.924172971397638">
<ele>355.20000000000005</ele>
<time>2023-05-18T11:34:37Z</time>
</trkpt>
<trkpt lat="49.33835699222982" lon="7.924142964184284">
<ele>355.4</ele>
<time>2023-05-18T11:34:38Z</time>
</trkpt>
<trkpt lat="49.33833293616772" lon="7.924109939485788">
<ele>355.4</ele>
<time>2023-05-18T11:34:39Z</time>
</trkpt>
<trkpt lat="49.33831198140979" lon="7.924077920615673">
<ele>355.6</ele>
<time>2023-05-18T11:34:40Z</time>
</trkpt>
<trkpt lat="49.33829295448959" lon="7.924047997221351">
<ele>355.79999999999995</ele>
<time>2023-05-18T11:34:41Z</time>
</trkpt>
<trkpt lat="49.33827694505453" lon="7.924017990007997">
<ele>356</ele>
<time>2023-05-18T11:34:42Z</time>
</trkpt>
<trkpt lat="49.33825791813433" lon="7.923989994451404">
<ele>356.20000000000005</ele>
<time>2023-05-18T11:34:43Z</time>
</trkpt>
<trkpt lat="49.338244926184416" lon="7.9239679500460625">
<ele>356.4</ele>
<time>2023-05-18T11:34:44Z</time>
</trkpt>
<trkpt lat="49.33822497725487" lon="7.923941966146231">
<ele>356.6</ele>
<time>2023-05-18T11:34:45Z</time>
</trkpt>
<trkpt lat="49.338202932849526" lon="7.923907935619354">
<ele>356.79999999999995</ele>
<time>2023-05-18T11:34:46Z</time>
</trkpt>
<trkpt lat="49.338179966434836" lon="7.9238819517195225">
<ele>357</ele>
<time>2023-05-18T11:34:47Z</time>
</trkpt>
<trkpt lat="49.338157922029495" lon="7.923842975869775">
<ele>357.20000000000005</ele>
<time>2023-05-18T11:34:48Z</time>
</trkpt>
<trkpt lat="49.33814199641347" lon="7.923809951171279">
<ele>357.4</ele>
<time>2023-05-18T11:34:49Z</time>
</trkpt>
<trkpt lat="49.33812196366489" lon="7.9237729869782925">
<ele>357.6</ele>
<time>2023-05-18T11:34:50Z</time>
</trkpt>
<trkpt lat="49.33809497393668" lon="7.923739962279797">
<ele>357.79999999999995</ele>
<time>2023-05-18T11:34:51Z</time>
</trkpt>
<trkpt lat="49.338071923702955" lon="7.923699980601668">
<ele>358</ele>
<time>2023-05-18T11:34:52Z</time>
</trkpt>
<trkpt lat="49.338047951459885" lon="7.923656981438398">
<ele>358.20000000000005</ele>
<time>2023-05-18T11:34:53Z</time>
</trkpt>
<trkpt lat="49.33801794424653" lon="7.923621945083141">
<ele>358.4</ele>
<time>2023-05-18T11:34:54Z</time>
</trkpt>
<trkpt lat="49.3379919603467" lon="7.923589926213026">
<ele>358.6</ele>
<time>2023-05-18T11:34:55Z</time>
</trkpt>
<trkpt lat="49.33796999976039" lon="7.923556985333562">
<ele>358.79999999999995</ele>
<time>2023-05-18T11:34:56Z</time>
</trkpt>
<trkpt lat="49.33794795535505" lon="7.923519937321544">
<ele>359</ele>
<time>2023-05-18T11:34:57Z</time>
</trkpt>
<trkpt lat="49.33792993426323" lon="7.923484984785318">
<ele>359.20000000000005</ele>
<time>2023-05-18T11:34:58Z</time>
</trkpt>
<trkpt lat="49.33791199699044" lon="7.923452965915203">
<ele>359.4</ele>
<time>2023-05-18T11:34:59Z</time>
</trkpt>
<trkpt lat="49.337894981727004" lon="7.923421952873468">
<ele>359.6</ele>
<time>2023-05-18T11:35:00Z</time>
</trkpt>
<trkpt lat="49.337874948978424" lon="7.923387922346592">
<ele>359.79999999999995</ele>
<time>2023-05-18T11:35:01Z</time>
</trkpt>
<trkpt lat="49.337854916229844" lon="7.923352969810367">
<ele>359.79999999999995</ele>
<time>2023-05-18T11:35:02Z</time>
</trkpt>
<trkpt lat="49.337832955643535" lon="7.9233229625970125">
<ele>360</ele>
<time>2023-05-18T11:35:03Z</time>
</trkpt>
<trkpt lat="49.337809989228845" lon="7.923289937898517">
<ele>360.20000000000005</ele>
<time>2023-05-18T11:35:04Z</time>
</trkpt>
<trkpt lat="49.337789956480265" lon="7.923254985362291">
<ele>360.4</ele>
<time>2023-05-18T11:35:05Z</time>
</trkpt>
<trkpt lat="49.337767995893955" lon="7.923217937350273">
<ele>360.6</ele>
<time>2023-05-18T11:35:06Z</time>
</trkpt>
<trkpt lat="49.337747963145375" lon="7.923184996470809">
<ele>360.79999999999995</ele>
<time>2023-05-18T11:35:07Z</time>
</trkpt>
<trkpt lat="49.337727930396795" lon="7.923149960115552">
<ele>361</ele>
<time>2023-05-18T11:35:08Z</time>
</trkpt>
<trkpt lat="49.33770798146725" lon="7.9231129959225655">
<ele>361</ele>
<time>2023-05-18T11:35:09Z</time>
</trkpt>
<trkpt lat="49.33768996037543" lon="7.92307997122407">
<ele>361.20000000000005</ele>
<time>2023-05-18T11:35:10Z</time>
</trkpt>
<trkpt lat="49.33767193928361" lon="7.923046946525574">
<ele>361.4</ele>
<time>2023-05-18T11:35:11Z</time>
</trkpt>
<trkpt lat="49.33765199035406" lon="7.923012999817729">
<ele>361.6</ele>
<time>2023-05-18T11:35:12Z</time>
</trkpt>
<trkpt lat="49.33763195760548" lon="7.922981986775994">
<ele>361.79999999999995</ele>
<time>2023-05-18T11:35:13Z</time>
</trkpt>
<trkpt lat="49.33761293068528" lon="7.922949967905879">
<ele>362</ele>
<time>2023-05-18T11:35:14Z</time>
</trkpt>
<trkpt lat="49.33758795261383" lon="7.922921972349286">
<ele>362.20000000000005</ele>
<time>2023-05-18T11:35:15Z</time>
</trkpt>
<trkpt lat="49.33756297454238" lon="7.92288794182241">
<ele>362.4</ele>
<time>2023-05-18T11:35:16Z</time>
</trkpt>
<trkpt lat="49.33753799647093" lon="7.922849971801043">
<ele>362.6</ele>
<time>2023-05-18T11:35:17Z</time>
</trkpt>
<trkpt lat="49.33751796372235" lon="7.922811917960644">
<ele>362.79999999999995</ele>
<time>2023-05-18T11:35:18Z</time>
</trkpt>
<trkpt lat="49.33749994263053" lon="7.922772942110896">
<ele>363</ele>
<time>2023-05-18T11:35:19Z</time>
</trkpt>
<trkpt lat="49.33748292736709" lon="7.922729942947626">
<ele>363.20000000000005</ele>
<time>2023-05-18T11:35:20Z</time>
</trkpt>
<trkpt lat="49.33746197260916" lon="7.922687949612737">
<ele>363.20000000000005</ele>
<time>2023-05-18T11:35:21Z</time>
</trkpt>
<trkpt lat="49.33744294568896" lon="7.922646962106228">
<ele>363.4</ele>
<time>2023-05-18T11:35:22Z</time>
</trkpt>
<trkpt lat="49.337424924597144" lon="7.922614943236113">
<ele>363.6</ele>
<time>2023-05-18T11:35:23Z</time>
</trkpt>
<trkpt lat="49.337404975667596" lon="7.9225879535079">
<ele>363.79999999999995</ele>
<time>2023-05-18T11:35:24Z</time>
</trkpt>
<trkpt lat="49.337384942919016" lon="7.922554928809404">
<ele>364</ele>
<time>2023-05-18T11:35:25Z</time>
</trkpt>
<trkpt lat="49.33736792765558" lon="7.922516958788037">
<ele>364.20000000000005</ele>
<time>2023-05-18T11:35:26Z</time>
</trkpt>
<trkpt lat="49.3373579531908" lon="7.922469936311245">
<ele>364.4</ele>
<time>2023-05-18T11:35:27Z</time>
</trkpt>
<trkpt lat="49.33735191822052" lon="7.9224279429763556">
<ele>364.6</ele>
<time>2023-05-18T11:35:28Z</time>
</trkpt>
<trkpt lat="49.33733792044222" lon="7.9223899729549885">
<ele>364.79999999999995</ele>
<time>2023-05-18T11:35:29Z</time>
</trkpt>
<trkpt lat="49.33732492849231" lon="7.9223549365997314">
<ele>365</ele>
<time>2023-05-18T11:35:30Z</time>
</trkpt>
<trkpt lat="49.33731294237077" lon="7.9223119374364614">
<ele>365.20000000000005</ele>
<time>2023-05-18T11:35:31Z</time>
</trkpt>
<trkpt lat="49.33730992488563" lon="7.922272961586714">
<ele>365.4</ele>
<time>2023-05-18T11:35:32Z</time>
</trkpt>
<trkpt lat="49.337302967906" lon="7.922236919403076">
<ele>365.6</ele>
<time>2023-05-18T11:35:33Z</time>
</trkpt>
<trkpt lat="49.33729492127895" lon="7.9221979435533285">
<ele>365.79999999999995</ele>
<time>2023-05-18T11:35:34Z</time>
</trkpt>
<trkpt lat="49.337297938764095" lon="7.922166930511594">
<ele>366</ele>
<time>2023-05-18T11:35:35Z</time>
</trkpt>
<trkpt lat="49.33729198761284" lon="7.922129966318607">
<ele>366.20000000000005</ele>
<time>2023-05-18T11:35:36Z</time>
</trkpt>
<trkpt lat="49.33728494681418" lon="7.922089984640479">
<ele>366.4</ele>
<time>2023-05-18T11:35:37Z</time>
</trkpt>
<trkpt lat="49.33727698400617" lon="7.922056959941983">
<ele>366.6</ele>
<time>2023-05-18T11:35:38Z</time>
</trkpt>
<trkpt lat="49.337272960692644" lon="7.922016978263855">
<ele>366.79999999999995</ele>
<time>2023-05-18T11:35:39Z</time>
</trkpt>
<trkpt lat="49.33726198039949" lon="7.921974984928966">
<ele>366.79999999999995</ele>
<time>2023-05-18T11:35:40Z</time>
</trkpt>
<trkpt lat="49.33724295347929" lon="7.9219399485737085">
<ele>367</ele>
<time>2023-05-18T11:35:41Z</time>
</trkpt>
<trkpt lat="49.33722794987261" lon="7.921902984380722">
<ele>367.20000000000005</ele>
<time>2023-05-18T11:35:42Z</time>
</trkpt>
<trkpt lat="49.3372149579227" lon="7.921864930540323">
<ele>367.4</ele>
<time>2023-05-18T11:35:43Z</time>
</trkpt>
<trkpt lat="49.33719693683088" lon="7.921827966347337">
<ele>367.6</ele>
<time>2023-05-18T11:35:44Z</time>
</trkpt>
<trkpt lat="49.33717497624457" lon="7.9217879846692085">
<ele>367.79999999999995</ele>
<time>2023-05-18T11:35:45Z</time>
</trkpt>
<trkpt lat="49.33714798651636" lon="7.9217449855059385">
<ele>368</ele>
<time>2023-05-18T11:35:46Z</time>
</trkpt>
<trkpt lat="49.337126947939396" lon="7.92170693166554">
<ele>368.20000000000005</ele>
<time>2023-05-18T11:35:47Z</time>
</trkpt>
<trkpt lat="49.33710699900985" lon="7.921667955815792">
<ele>368.4</ele>
<time>2023-05-18T11:35:48Z</time>
</trkpt>
<trkpt lat="49.33708495460451" lon="7.921627974137664">
<ele>368.6</ele>
<time>2023-05-18T11:35:49Z</time>
</trkpt>
<trkpt lat="49.33707196265459" lon="7.921591931954026">
<ele>368.79999999999995</ele>
<time>2023-05-18T11:35:50Z</time>
</trkpt>
<trkpt lat="49.33705293573439" lon="7.921556979417801">
<ele>369</ele>
<time>2023-05-18T11:35:51Z</time>
</trkpt>
<trkpt lat="49.3370299693197" lon="7.92151297442615">
<ele>369.20000000000005</ele>
<time>2023-05-18T11:35:52Z</time>
</trkpt>
<trkpt lat="49.33700792491436" lon="7.921472992748022">
<ele>369.20000000000005</ele>
<time>2023-05-18T11:35:53Z</time>
</trkpt>
<trkpt lat="49.336994932964444" lon="7.9214369505643845">
<ele>369.4</ele>
<time>2023-05-18T11:35:54Z</time>
</trkpt>
<trkpt lat="49.33698294684291" lon="7.921397974714637">
<ele>369.6</ele>
<time>2023-05-18T11:35:55Z</time>
</trkpt>
<trkpt lat="49.33696794323623" lon="7.921361932530999">
<ele>369.79999999999995</ele>
<time>2023-05-18T11:35:56Z</time>
</trkpt>
<trkpt lat="49.336952939629555" lon="7.921324968338013">
<ele>370</ele>
<time>2023-05-18T11:35:57Z</time>
</trkpt>
<trkpt lat="49.336934918537736" lon="7.921291943639517">
<ele>370.20000000000005</ele>
<time>2023-05-18T11:35:58Z</time>
</trkpt>
<trkpt lat="49.33691698126495" lon="7.921252967789769">
<ele>370.4</ele>
<time>2023-05-18T11:35:59Z</time>
</trkpt>
<trkpt lat="49.33690197765827" lon="7.921219943091273">
<ele>370.6</ele>
<time>2023-05-18T11:36:00Z</time>
</trkpt>
<trkpt lat="49.33688295073807" lon="7.921184990555048">
<ele>370.79999999999995</ele>
<time>2023-05-18T11:36:01Z</time>
</trkpt>
<trkpt lat="49.33686291798949" lon="7.921151965856552">
<ele>371</ele>
<time>2023-05-18T11:36:02Z</time>
</trkpt>
<trkpt lat="49.336841963231564" lon="7.921116929501295">
<ele>371.20000000000005</ele>
<time>2023-05-18T11:36:03Z</time>
</trkpt>
<trkpt lat="49.336824947968125" lon="7.9210849944502115">
<ele>371.4</ele>
<time>2023-05-18T11:36:04Z</time>
</trkpt>
<trkpt lat="49.3367899954319" lon="7.921036966145039">
<ele>371.6</ele>
<time>2023-05-18T11:36:05Z</time>
</trkpt>
<trkpt lat="49.33676996268332" lon="7.921001929789782">
<ele>371.79999999999995</ele>
<time>2023-05-18T11:36:06Z</time>
</trkpt>
<trkpt lat="49.33674498461187" lon="7.920961948111653">
<ele>371.79999999999995</ele>
<time>2023-05-18T11:36:07Z</time>
</trkpt>
<trkpt lat="49.33672495186329" lon="7.920922972261906">
<ele>372</ele>
<time>2023-05-18T11:36:08Z</time>
</trkpt>
<trkpt lat="49.33670491911471" lon="7.920882990583777">
<ele>372.20000000000005</ele>
<time>2023-05-18T11:36:09Z</time>
</trkpt>
<trkpt lat="49.3366879876703" lon="7.92084795422852">
<ele>372.4</ele>
<time>2023-05-18T11:36:10Z</time>
</trkpt>
<trkpt lat="49.336669966578484" lon="7.920816941186786">
<ele>372.6</ele>
<time>2023-05-18T11:36:11Z</time>
</trkpt>
<trkpt lat="49.336651945486665" lon="7.92078198865056">
<ele>372.79999999999995</ele>
<time>2023-05-18T11:36:12Z</time>
</trkpt>
<trkpt lat="49.33663199655712" lon="7.920747958123684">
<ele>373</ele>
<time>2023-05-18T11:36:13Z</time>
</trkpt>
<trkpt lat="49.33661498129368" lon="7.920716945081949">
<ele>373.20000000000005</ele>
<time>2023-05-18T11:36:14Z</time>
</trkpt>
<trkpt lat="49.33659696020186" lon="7.920677969232202">
<ele>373.4</ele>
<time>2023-05-18T11:36:15Z</time>
</trkpt>
<trkpt lat="49.33658296242356" lon="7.920646956190467">
<ele>373.6</ele>
<time>2023-05-18T11:36:16Z</time>
</trkpt>
<trkpt lat="49.336566952988505" lon="7.92061292566359">
<ele>373.79999999999995</ele>
<time>2023-05-18T11:36:17Z</time>
</trkpt>
<trkpt lat="49.336546920239925" lon="7.920577973127365">
<ele>373.79999999999995</ele>
<time>2023-05-18T11:36:18Z</time>
</trkpt>
<trkpt lat="49.33653191663325" lon="7.92054696008563">
<ele>374</ele>
<time>2023-05-18T11:36:19Z</time>
</trkpt>
<trkpt lat="49.3365169968456" lon="7.920512929558754">
<ele>374.20000000000005</ele>
<time>2023-05-18T11:36:20Z</time>
</trkpt>
<trkpt lat="49.336497969925404" lon="7.92047998867929">
<ele>374.4</ele>
<time>2023-05-18T11:36:21Z</time>
</trkpt>
<trkpt lat="49.33647693134844" lon="7.920446963980794">
<ele>374.6</ele>
<time>2023-05-18T11:36:22Z</time>
</trkpt>
<trkpt lat="49.336456982418895" lon="7.920411927625537">
<ele>374.79999999999995</ele>
<time>2023-05-18T11:36:23Z</time>
</trkpt>
<trkpt lat="49.336434938013554" lon="7.92037496343255">
<ele>375</ele>
<time>2023-05-18T11:36:24Z</time>
</trkpt>
<trkpt lat="49.336414989084005" lon="7.920337999239564">
<ele>375.20000000000005</ele>
<time>2023-05-18T11:36:25Z</time>
</trkpt>
<trkpt lat="49.336392944678664" lon="7.920302962884307">
<ele>375.4</ele>
<time>2023-05-18T11:36:26Z</time>
</trkpt>
<trkpt lat="49.336372995749116" lon="7.920266920700669">
<ele>375.6</ele>
<time>2023-05-18T11:36:27Z</time>
</trkpt>
<trkpt lat="49.336351957172155" lon="7.920229956507683">
<ele>375.79999999999995</ele>
<time>2023-05-18T11:36:28Z</time>
</trkpt>
<trkpt lat="49.336331924423575" lon="7.920191986486316">
<ele>376</ele>
<time>2023-05-18T11:36:29Z</time>
</trkpt>
<trkpt lat="49.336309963837266" lon="7.920152926817536">
<ele>376.20000000000005</ele>
<time>2023-05-18T11:36:30Z</time>
</trkpt>
<trkpt lat="49.33629194274545" lon="7.920117974281311">
<ele>376.4</ele>
<time>2023-05-18T11:36:31Z</time>
</trkpt>
<trkpt lat="49.33627299964428" lon="7.920082937926054">
<ele>376.4</ele>
<time>2023-05-18T11:36:32Z</time>
</trkpt>
<trkpt lat="49.33625497855246" lon="7.920046979561448">
<ele>376.6</ele>
<time>2023-05-18T11:36:33Z</time>
</trkpt>
<trkpt lat="49.33623695746064" lon="7.920011943206191">
<ele>376.79999999999995</ele>
<time>2023-05-18T11:36:34Z</time>
</trkpt>
<trkpt lat="49.33621692471206" lon="7.919974979013205">
<ele>377</ele>
<time>2023-05-18T11:36:35Z</time>
</trkpt>
<trkpt lat="49.336196975782514" lon="7.919941954314709">
<ele>377.20000000000005</ele>
<time>2023-05-18T11:36:36Z</time>
</trkpt>
<trkpt lat="49.336177948862314" lon="7.919907923787832">
<ele>377.6</ele>
<time>2023-05-18T11:36:37Z</time>
</trkpt>
<trkpt lat="49.336157999932766" lon="7.919876994565129">
<ele>377.79999999999995</ele>
<time>2023-05-18T11:36:38Z</time>
</trkpt>
<trkpt lat="49.336136961355805" lon="7.919841958209872">
<ele>377.79999999999995</ele>
<time>2023-05-18T11:36:39Z</time>
</trkpt>
<trkpt lat="49.336117934435606" lon="7.919809939339757">
<ele>378</ele>
<time>2023-05-18T11:36:40Z</time>
</trkpt>
<trkpt lat="49.33609999716282" lon="7.919776998460293">
<ele>378.20000000000005</ele>
<time>2023-05-18T11:36:41Z</time>
</trkpt>
<trkpt lat="49.33607996441424" lon="7.919742967933416">
<ele>378.4</ele>
<time>2023-05-18T11:36:42Z</time>
</trkpt>
<trkpt lat="49.33605993166566" lon="7.919707931578159">
<ele>378.6</ele>
<time>2023-05-18T11:36:43Z</time>
</trkpt>
<trkpt lat="49.33603696525097" lon="7.919667949900031">
<ele>378.79999999999995</ele>
<time>2023-05-18T11:36:44Z</time>
</trkpt>
<trkpt lat="49.3360129930079" lon="7.919627968221903">
<ele>379</ele>
<time>2023-05-18T11:36:45Z</time>
</trkpt>
<trkpt lat="49.33599296025932" lon="7.919591926038265">
<ele>379.20000000000005</ele>
<time>2023-05-18T11:36:46Z</time>
</trkpt>
<trkpt lat="49.33596999384463" lon="7.919552950188518">
<ele>379.20000000000005</ele>
<time>2023-05-18T11:36:47Z</time>
</trkpt>
<trkpt lat="49.33594794943929" lon="7.919519925490022">
<ele>379.4</ele>
<time>2023-05-18T11:36:48Z</time>
</trkpt>
<trkpt lat="49.33591299690306" lon="7.919472986832261">
<ele>379.6</ele>
<time>2023-05-18T11:36:49Z</time>
</trkpt>
<trkpt lat="49.3358919583261" lon="7.919439962133765">
<ele>379.79999999999995</ele>
<time>2023-05-18T11:36:50Z</time>
</trkpt>
<trkpt lat="49.33586798608303" lon="7.919404925778508">
<ele>380</ele>
<time>2023-05-18T11:36:51Z</time>
</trkpt>
<trkpt lat="49.33584694750607" lon="7.919369973242283">
<ele>380.20000000000005</ele>
<time>2023-05-18T11:36:52Z</time>
</trkpt>
<trkpt lat="49.335822975263" lon="7.919337954372168">
<ele>380.4</ele>
<time>2023-05-18T11:36:53Z</time>
</trkpt>
<trkpt lat="49.33579699136317" lon="7.919306941330433">
<ele>380.6</ele>
<time>2023-05-18T11:36:54Z</time>
</trkpt>
<trkpt lat="49.335769917815924" lon="7.919277939945459">
<ele>380.79999999999995</ele>
<time>2023-05-18T11:36:55Z</time>
</trkpt>
<trkpt lat="49.33574292808771" lon="7.919247932732105">
<ele>380.79999999999995</ele>
<time>2023-05-18T11:36:56Z</time>
</trkpt>
<trkpt lat="49.33571795001626" lon="7.919217925518751">
<ele>381</ele>
<time>2023-05-18T11:36:57Z</time>
</trkpt>
<trkpt lat="49.33569297194481" lon="7.919186996296048">
<ele>381.20000000000005</ele>
<time>2023-05-18T11:36:58Z</time>
</trkpt>
<trkpt lat="49.33566698804498" lon="7.919157994911075">
<ele>381.4</ele>
<time>2023-05-18T11:36:59Z</time>
</trkpt>
<trkpt lat="49.335639998316765" lon="7.919129999354482">
<ele>381.6</ele>
<time>2023-05-18T11:37:00Z</time>
</trkpt>
<trkpt lat="49.33561292476952" lon="7.919104937463999">
<ele>381.79999999999995</ele>
<time>2023-05-18T11:37:01Z</time>
</trkpt>
<trkpt lat="49.33558794669807" lon="7.919079959392548">
<ele>382</ele>
<time>2023-05-18T11:37:02Z</time>
</trkpt>
<trkpt lat="49.33556196279824" lon="7.919056992977858">
<ele>382.20000000000005</ele>
<time>2023-05-18T11:37:03Z</time>
</trkpt>
<trkpt lat="49.33553698472679" lon="7.919034948572516">
<ele>382.4</ele>
<time>2023-05-18T11:37:04Z</time>
</trkpt>
<trkpt lat="49.335511922836304" lon="7.919012987986207">
<ele>382.6</ele>
<time>2023-05-18T11:37:05Z</time>
</trkpt>
<trkpt lat="49.33548694476485" lon="7.918994966894388">
<ele>382.79999999999995</ele>
<time>2023-05-18T11:37:06Z</time>
</trkpt>
<trkpt lat="49.33545794337988" lon="7.9189719166606665">
<ele>383</ele>
<time>2023-05-18T11:37:07Z</time>
</trkpt>
<trkpt lat="49.335429947823286" lon="7.918947944417596">
<ele>383.20000000000005</ele>
<time>2023-05-18T11:37:08Z</time>
</trkpt>
<trkpt lat="49.335402958095074" lon="7.918924978002906">
<ele>383.4</ele>
<time>2023-05-18T11:37:09Z</time>
</trkpt>
<trkpt lat="49.33537697419524" lon="7.918902933597565">
<ele>383.6</ele>
<time>2023-05-18T11:37:10Z</time>
</trkpt>
<trkpt lat="49.33534998446703" lon="7.918881978839636">
<ele>383.79999999999995</ele>
<time>2023-05-18T11:37:11Z</time>
</trkpt>
<trkpt lat="49.33532198891044" lon="7.918859934434295">
<ele>383.79999999999995</ele>
<time>2023-05-18T11:37:12Z</time>
</trkpt>
<trkpt lat="49.335294999182224" lon="7.918839985504746">
<ele>384</ele>
<time>2023-05-18T11:37:13Z</time>
</trkpt>
<trkpt lat="49.33526499196887" lon="7.918821964412928">
<ele>384.20000000000005</ele>
<time>2023-05-18T11:37:14Z</time>
</trkpt>
<trkpt lat="49.33523699641228" lon="7.918802937492728">
<ele>384.4</ele>
<time>2023-05-18T11:37:15Z</time>
</trkpt>
<trkpt lat="49.335207995027304" lon="7.918781982734799">
<ele>384.6</ele>
<time>2023-05-18T11:37:16Z</time>
</trkpt>
<trkpt lat="49.33517999947071" lon="7.918757926672697">
<ele>384.6</ele>
<time>2023-05-18T11:37:17Z</time>
</trkpt>
<trkpt lat="49.33514999225736" lon="7.918734960258007">
<ele>384.79999999999995</ele>
<time>2023-05-18T11:37:18Z</time>
</trkpt>
<trkpt lat="49.335121996700764" lon="7.918711993843317">
<ele>385</ele>
<time>2023-05-18T11:37:19Z</time>
</trkpt>
<trkpt lat="49.33509299531579" lon="7.918687937781215">
<ele>385.20000000000005</ele>
<time>2023-05-18T11:37:20Z</time>
</trkpt>
<trkpt lat="49.3350649997592" lon="7.918661953881383">
<ele>385.4</ele>
<time>2023-05-18T11:37:21Z</time>
</trkpt>
<trkpt lat="49.33503692038357" lon="7.918636975809932">
<ele>385.4</ele>
<time>2023-05-18T11:37:22Z</time>
</trkpt>
<trkpt lat="49.3350079189986" lon="7.918612919747829">
<ele>385.6</ele>
<time>2023-05-18T11:37:23Z</time>
</trkpt>
<trkpt lat="49.33498193509877" lon="7.918592970818281">
<ele>385.79999999999995</ele>
<time>2023-05-18T11:37:24Z</time>
</trkpt>
<trkpt lat="49.334954945370555" lon="7.918572938069701">
<ele>386</ele>
<time>2023-05-18T11:37:25Z</time>
</trkpt>
<trkpt lat="49.334932984784245" lon="7.918552989140153">
<ele>386</ele>
<time>2023-05-18T11:37:26Z</time>
</trkpt>
<trkpt lat="49.33490792289376" lon="7.918531950563192">
<ele>386.20000000000005</ele>
<time>2023-05-18T11:37:27Z</time>
</trkpt>
<trkpt lat="49.33488495647907" lon="7.918507978320122">
<ele>386.20000000000005</ele>
<time>2023-05-18T11:37:28Z</time>
</trkpt>
<trkpt lat="49.334866935387254" lon="7.918486939743161">
<ele>386.4</ele>
<time>2023-05-18T11:37:29Z</time>
</trkpt>
<trkpt lat="49.334849920123816" lon="7.918466990813613">
<ele>386.6</ele>
<time>2023-05-18T11:37:30Z</time>
</trkpt>
<trkpt lat="49.33483298867941" lon="7.918449975550175">
<ele>386.6</ele>
<time>2023-05-18T11:37:31Z</time>
</trkpt>
<trkpt lat="49.33481798507273" lon="7.918436983600259">
<ele>386.79999999999995</ele>
<time>2023-05-18T11:37:32Z</time>
</trkpt>
<trkpt lat="49.334804993122816" lon="7.9184249974787235">
<ele>386.79999999999995</ele>
<time>2023-05-18T11:37:33Z</time>
</trkpt>
<trkpt lat="49.33479694649577" lon="7.918417956680059">
<ele>387</ele>
<time>2023-05-18T11:37:34Z</time>
</trkpt>
<trkpt lat="49.334786972031" lon="7.9184099938720465">
<ele>387</ele>
<time>2023-05-18T11:37:35Z</time>
</trkpt>
<trkpt lat="49.33477993123233" lon="7.918402953073382">
<ele>387</ele>
<time>2023-05-18T11:37:36Z</time>
</trkpt>
<trkpt lat="49.3347729742527" lon="7.9183979239314795">
<ele>387.20000000000005</ele>
<time>2023-05-18T11:37:37Z</time>
</trkpt>
<trkpt lat="49.33476995676756" lon="7.918394990265369">
<ele>387.20000000000005</ele>
<time>2023-05-18T11:37:38Z</time>
</trkpt>
<trkpt lat="49.3347679451108" lon="7.918392978608608">
<ele>387.20000000000005</ele>
<time>2023-05-18T11:37:39Z</time>
</trkpt>
<trkpt lat="49.33473299257457" lon="7.918374957516789">
<ele>387.6</ele>
<time>2023-05-18T11:37:39Z</time>
</trkpt>
<trkpt lat="49.334719916805625" lon="7.918362971395254">
<ele>387.6</ele>
<time>2023-05-18T11:37:40Z</time>
</trkpt>
<trkpt lat="49.33470298536122" lon="7.91835299693048">
<ele>387.6</ele>
<time>2023-05-18T11:37:41Z</time>
</trkpt>
<trkpt lat="49.3346849642694" lon="7.918339921161532">
<ele>387.6</ele>
<time>2023-05-18T11:37:42Z</time>
</trkpt>
<trkpt lat="49.33466493152082" lon="7.918321983888745">
<ele>387.6</ele>
<time>2023-05-18T11:37:43Z</time>
</trkpt>
<trkpt lat="49.33464297093451" lon="7.918299939483404">
<ele>387.6</ele>
<time>2023-05-18T11:37:44Z</time>
</trkpt>
<trkpt lat="49.33461698703468" lon="7.918281918391585">
<ele>387.6</ele>
<time>2023-05-18T11:37:45Z</time>
</trkpt>
<trkpt lat="49.334587985649705" lon="7.91826699860394">
<ele>387.6</ele>
<time>2023-05-18T11:37:46Z</time>
</trkpt>
<trkpt lat="49.33455496095121" lon="7.91824696585536">
<ele>387.6</ele>
<time>2023-05-18T11:37:47Z</time>
</trkpt>
<trkpt lat="49.33451992459595" lon="7.918229950591922">
<ele>387.6</ele>
<time>2023-05-18T11:37:48Z</time>
</trkpt>
<trkpt lat="49.33448698371649" lon="7.918212935328484">
<ele>387.6</ele>
<time>2023-05-18T11:37:49Z</time>
</trkpt>
<trkpt lat="49.33445194736123" lon="7.918201955035329">
<ele>387.6</ele>
<time>2023-05-18T11:37:50Z</time>
</trkpt>
<trkpt lat="49.33440995402634" lon="7.918191980570555">
<ele>387.6</ele>
<time>2023-05-18T11:37:51Z</time>
</trkpt>
<trkpt lat="49.33436796069145" lon="7.918187957257032">
<ele>387.6</ele>
<time>2023-05-18T11:37:52Z</time>
</trkpt>
<trkpt lat="49.33432496152818" lon="7.918187957257032">
<ele>387.6</ele>
<time>2023-05-18T11:37:53Z</time>
</trkpt>
<trkpt lat="49.33428196236491" lon="7.918196925893426">
<ele>387.4</ele>
<time>2023-05-18T11:37:54Z</time>
</trkpt>
<trkpt lat="49.33423695154488" lon="7.918212935328484">
<ele>387.4</ele>
<time>2023-05-18T11:37:55Z</time>
</trkpt>
<trkpt lat="49.33419194072485" lon="7.918236991390586">
<ele>387.20000000000005</ele>
<time>2023-05-18T11:37:56Z</time>
</trkpt>
<trkpt lat="49.33414198458195" lon="7.918262975290418">
<ele>387.20000000000005</ele>
<time>2023-05-18T11:37:57Z</time>
</trkpt>
<trkpt lat="49.33409194462001" lon="7.918297927826643">
<ele>386.79999999999995</ele>
<time>2023-05-18T11:37:58Z</time>
</trkpt>
<trkpt lat="49.33404793962836" lon="7.918342938646674">
<ele>386.6</ele>
<time>2023-05-18T11:37:59Z</time>
</trkpt>
<trkpt lat="49.334007957950234" lon="7.918396918103099">
<ele>386.20000000000005</ele>
<time>2023-05-18T11:38:00Z</time>
</trkpt>
<trkpt lat="49.3339769449085" lon="7.9184529930353165">
<ele>385.79999999999995</ele>
<time>2023-05-18T11:38:01Z</time>
</trkpt>
<trkpt lat="49.33394995518029" lon="7.918512923642993">
<ele>385.4</ele>
<time>2023-05-18T11:38:02Z</time>
</trkpt>
<trkpt lat="49.333922965452075" lon="7.918574949726462">
<ele>385</ele>
<time>2023-05-18T11:38:03Z</time>
</trkpt>
<trkpt lat="49.33389698155224" lon="7.918637981638312">
<ele>384.4</ele>
<time>2023-05-18T11:38:04Z</time>
</trkpt>
<trkpt lat="49.33387292549014" lon="7.918704953044653">
<ele>384</ele>
<time>2023-05-18T11:38:05Z</time>
</trkpt>
<trkpt lat="49.33384492993355" lon="7.9187769535928965">
<ele>383.6</ele>
<time>2023-05-18T11:38:06Z</time>
</trkpt>
<trkpt lat="49.333817940205336" lon="7.9188549891114235">
<ele>383.20000000000005</ele>
<time>2023-05-18T11:38:07Z</time>
</trkpt>
<trkpt lat="49.33378793299198" lon="7.91893495246768">
<ele>382.79999999999995</ele>
<time>2023-05-18T11:38:08Z</time>
</trkpt>
<trkpt lat="49.33375499211252" lon="7.919017933309078">
<ele>382.4</ele>
<time>2023-05-18T11:38:09Z</time>
</trkpt>
<trkpt lat="49.3337229732424" lon="7.919101919978857">
<ele>382</ele>
<time>2023-05-18T11:38:10Z</time>
</trkpt>
<trkpt lat="49.333687936887145" lon="7.919189929962158">
<ele>381.6</ele>
<time>2023-05-18T11:38:11Z</time>
</trkpt>
<trkpt lat="49.33365499600768" lon="7.9192799516022205">
<ele>381</ele>
<time>2023-05-18T11:38:12Z</time>
</trkpt>
<trkpt lat="49.333621971309185" lon="7.919371984899044">
<ele>380.6</ele>
<time>2023-05-18T11:38:13Z</time>
</trkpt>
<trkpt lat="49.33358693495393" lon="7.919462928548455">
<ele>380</ele>
<time>2023-05-18T11:38:14Z</time>
</trkpt>
<trkpt lat="49.33355298824608" lon="7.91955697350204">
<ele>379.6</ele>
<time>2023-05-18T11:38:15Z</time>
</trkpt>
<trkpt lat="49.333514934405684" lon="7.919646995142102">
<ele>379</ele>
<time>2023-05-18T11:38:16Z</time>
</trkpt>
<trkpt lat="49.33347696438432" lon="7.919739950448275">
<ele>378.4</ele>
<time>2023-05-18T11:38:17Z</time>
</trkpt>
<trkpt lat="49.33344192802906" lon="7.919836929067969">
<ele>378</ele>
<time>2023-05-18T11:38:18Z</time>
</trkpt>
<trkpt lat="49.33340295217931" lon="7.919929968193173">
<ele>377.4</ele>
<time>2023-05-18T11:38:19Z</time>
</trkpt>
<trkpt lat="49.33336699381471" lon="7.920021917670965">
<ele>377</ele>
<time>2023-05-18T11:38:20Z</time>
</trkpt>
<trkpt lat="49.33332994580269" lon="7.920114956796169">
<ele>376.4</ele>
<time>2023-05-18T11:38:21Z</time>
</trkpt>
<trkpt lat="49.3332929816097" lon="7.920207995921373">
<ele>375.79999999999995</ele>
<time>2023-05-18T11:38:22Z</time>
</trkpt>
<trkpt lat="49.333256939426064" lon="7.920302962884307">
<ele>375.20000000000005</ele>
<time>2023-05-18T11:38:23Z</time>
</trkpt>
<trkpt lat="49.33321997523308" lon="7.920399941504002">
<ele>374.79999999999995</ele>
<time>2023-05-18T11:38:24Z</time>
</trkpt>
<trkpt lat="49.33318493887782" lon="7.920497925952077">
<ele>374.20000000000005</ele>
<time>2023-05-18T11:38:25Z</time>
</trkpt>
<trkpt lat="49.333147974684834" lon="7.9205999337136745">
<ele>373.6</ele>
<time>2023-05-18T11:38:26Z</time>
</trkpt>
<trkpt lat="49.333109920844436" lon="7.920699929818511">
<ele>373</ele>
<time>2023-05-18T11:38:27Z</time>
</trkpt>
<trkpt lat="49.33307295665145" lon="7.920796992257237">
<ele>372.4</ele>
<time>2023-05-18T11:38:28Z</time>
</trkpt>
<trkpt lat="49.33303699828684" lon="7.920892965048552">
<ele>371.79999999999995</ele>
<time>2023-05-18T11:38:29Z</time>
</trkpt>
<trkpt lat="49.332999950274825" lon="7.920991955325007">
<ele>371.20000000000005</ele>
<time>2023-05-18T11:38:30Z</time>
</trkpt>
<trkpt lat="49.33296198025346" lon="7.921089939773083">
<ele>370.6</ele>
<time>2023-05-18T11:38:31Z</time>
</trkpt>
<trkpt lat="49.33292292058468" lon="7.921186918392777">
<ele>370</ele>
<time>2023-05-18T11:38:32Z</time>
</trkpt>
<trkpt lat="49.33288495056331" lon="7.9212799575179815">
<ele>369.6</ele>
<time>2023-05-18T11:38:33Z</time>
</trkpt>
<trkpt lat="49.332849998027086" lon="7.921371990814805">
<ele>369</ele>
<time>2023-05-18T11:38:34Z</time>
</trkpt>
<trkpt lat="49.33281496167183" lon="7.9214599169790745">
<ele>368.4</ele>
<time>2023-05-18T11:38:35Z</time>
</trkpt>
<trkpt lat="49.33277799747884" lon="7.921536946669221">
<ele>367.79999999999995</ele>
<time>2023-05-18T11:38:36Z</time>
</trkpt>
<trkpt lat="49.33273793198168" lon="7.921606935560703">
<ele>367.20000000000005</ele>
<time>2023-05-18T11:38:37Z</time>
</trkpt>
<trkpt lat="49.3326919991523" lon="7.921659993007779">
<ele>366.6</ele>
<time>2023-05-18T11:38:38Z</time>
</trkpt>
<trkpt lat="49.332636930048466" lon="7.921687988564372">
<ele>366</ele>
<time>2023-05-18T11:38:39Z</time>
</trkpt>
<trkpt lat="49.33257792145014" lon="7.921687988564372">
<ele>365.4</ele>
<time>2023-05-18T11:38:40Z</time>
</trkpt>
<trkpt lat="49.332524947822094" lon="7.921657981351018">
<ele>364.79999999999995</ele>
<time>2023-05-18T11:38:41Z</time>
</trkpt>
<trkpt lat="49.33248697780073" lon="7.921594949439168">
<ele>364.20000000000005</ele>
<time>2023-05-18T11:38:42Z</time>
</trkpt>
<trkpt lat="49.332459988072515" lon="7.9215149860829115">
<ele>363.6</ele>
<time>2023-05-18T11:38:43Z</time>
</trkpt>
<trkpt lat="49.332442972809076" lon="7.921424964442849">
<ele>363.20000000000005</ele>
<time>2023-05-18T11:38:44Z</time>
</trkpt>
<trkpt lat="49.332441966980696" lon="7.921331925317645">
<ele>362.6</ele>
<time>2023-05-18T11:38:45Z</time>
</trkpt>
<trkpt lat="49.33244992978871" lon="7.921242993324995">
<ele>362.20000000000005</ele>
<time>2023-05-18T11:38:46Z</time>
</trkpt>
<trkpt lat="49.332459988072515" lon="7.921157917007804">
<ele>361.6</ele>
<time>2023-05-18T11:38:47Z</time>
</trkpt>
<trkpt lat="49.33246996253729" lon="7.92108298279345">
<ele>361.20000000000005</ele>
<time>2023-05-18T11:38:48Z</time>
</trkpt>
<trkpt lat="49.332481948658824" lon="7.921016933396459">
<ele>360.79999999999995</ele>
<time>2023-05-18T11:38:49Z</time>
</trkpt>
<trkpt lat="49.3324919231236" lon="7.920957924798131">
<ele>360.20000000000005</ele>
<time>2023-05-18T11:38:50Z</time>
</trkpt>
<trkpt lat="49.3324969522655" lon="7.9209129977971315">
<ele>359.79999999999995</ele>
<time>2023-05-18T11:38:51Z</time>
</trkpt>
<trkpt lat="49.33248999528587" lon="7.920881984755397">
<ele>359.4</ele>
<time>2023-05-18T11:38:52Z</time>
</trkpt>
<trkpt lat="49.3324779253453" lon="7.920864969491959">
<ele>359</ele>
<time>2023-05-18T11:38:53Z</time>
</trkpt>
<trkpt lat="49.33244992978871" lon="7.9208549950271845">
<ele>358.79999999999995</ele>
<time>2023-05-18T11:38:54Z</time>
</trkpt>
<trkpt lat="49.33242495171726" lon="7.92086698114872">
<ele>358.4</ele>
<time>2023-05-18T11:38:55Z</time>
</trkpt>
<trkpt lat="49.33240491896868" lon="7.920891959220171">
<ele>358.20000000000005</ele>
<time>2023-05-18T11:38:56Z</time>
</trkpt>
<trkpt lat="49.332399973645806" lon="7.920924983918667">
<ele>358</ele>
<time>2023-05-18T11:38:57Z</time>
</trkpt>
<trkpt lat="49.332397961989045" lon="7.920959936454892">
<ele>358</ele>
<time>2023-05-18T11:38:58Z</time>
</trkpt>
<trkpt lat="49.332397961989045" lon="7.920992961153388">
<ele>357.79999999999995</ele>
<time>2023-05-18T11:38:59Z</time>
</trkpt>
<trkpt lat="49.3323949445039" lon="7.921027997508645">
<ele>357.79999999999995</ele>
<time>2023-05-18T11:39:00Z</time>
</trkpt>
<trkpt lat="49.33239293284714" lon="7.921059932559729">
<ele>357.79999999999995</ele>
<time>2023-05-18T11:39:01Z</time>
</trkpt>
<trkpt lat="49.33239192701876" lon="7.921089939773083">
<ele>357.6</ele>
<time>2023-05-18T11:39:02Z</time>
</trkpt>
<trkpt lat="49.33238295838237" lon="7.921119946986437">
<ele>357.6</ele>
<time>2023-05-18T11:39:03Z</time>
</trkpt>
<trkpt lat="49.332374995574355" lon="7.921149954199791">
<ele>357.6</ele>
<time>2023-05-18T11:39:04Z</time>
</trkpt>
<trkpt lat="49.33236694894731" lon="7.921182978898287">
<ele>357.4</ele>
<time>2023-05-18T11:39:05Z</time>
</trkpt>
<trkpt lat="49.33235798031092" lon="7.921212986111641">
<ele>357.4</ele>
<time>2023-05-18T11:39:06Z</time>
</trkpt>
<trkpt lat="49.33234691619873" lon="7.9212449211627245">
<ele>357.4</ele>
<time>2023-05-18T11:39:07Z</time>
</trkpt>
<trkpt lat="49.332336941733956" lon="7.92127794586122">
<ele>357.4</ele>
<time>2023-05-18T11:39:08Z</time>
</trkpt>
<trkpt lat="49.33232495561242" lon="7.921314993873239">
<ele>357.4</ele>
<time>2023-05-18T11:39:09Z</time>
</trkpt>
<trkpt lat="49.332312969490886" lon="7.921357993036509">
<ele>357.20000000000005</ele>
<time>2023-05-18T11:39:10Z</time>
</trkpt>
<trkpt lat="49.3323069345206" lon="7.921402920037508">
<ele>357.20000000000005</ele>
<time>2023-05-18T11:39:11Z</time>
</trkpt>
<trkpt lat="49.33229796588421" lon="7.9214519541710615">
<ele>357.20000000000005</ele>
<time>2023-05-18T11:39:12Z</time>
</trkpt>
<trkpt lat="49.332287991419435" lon="7.921504927799106">
<ele>357.20000000000005</ele>
<time>2023-05-18T11:39:13Z</time>
</trkpt>
<trkpt lat="49.33227994479239" lon="7.9215579852461815">
<ele>357</ele>
<time>2023-05-18T11:39:14Z</time>
</trkpt>
<trkpt lat="49.33227298781276" lon="7.92161799967289">
<ele>357</ele>
<time>2023-05-18T11:39:15Z</time>
</trkpt>
<trkpt lat="49.332266952842474" lon="7.9216869827359915">
<ele>356.79999999999995</ele>
<time>2023-05-18T11:39:16Z</time>
</trkpt>
<trkpt lat="49.3322569783777" lon="7.921761916950345">
<ele>356.6</ele>
<time>2023-05-18T11:39:17Z</time>
</trkpt>
<trkpt lat="49.332244992256165" lon="7.921844981610775">
<ele>356.4</ele>
<time>2023-05-18T11:39:18Z</time>
</trkpt>
<trkpt lat="49.33223191648722" lon="7.921934919431806">
<ele>356.20000000000005</ele>
<time>2023-05-18T11:39:19Z</time>
</trkpt>
<trkpt lat="49.33221993036568" lon="7.922024941071868">
<ele>355.79999999999995</ele>
<time>2023-05-18T11:39:20Z</time>
</trkpt>
<trkpt lat="49.33220995590091" lon="7.9221169743686914">
<ele>355.6</ele>
<time>2023-05-18T11:39:21Z</time>
</trkpt>
<trkpt lat="49.332206938415766" lon="7.922209929674864">
<ele>355.20000000000005</ele>
<time>2023-05-18T11:39:22Z</time>
</trkpt>
<trkpt lat="49.332204926759005" lon="7.9223099257797">
<ele>354.79999999999995</ele>
<time>2023-05-18T11:39:23Z</time>
</trkpt>
<trkpt lat="49.332204926759005" lon="7.922419980168343">
<ele>354.4</ele>
<time>2023-05-18T11:39:24Z</time>
</trkpt>
<trkpt lat="49.332207944244146" lon="7.922534979879856">
<ele>353.79999999999995</ele>
<time>2023-05-18T11:39:25Z</time>
</trkpt>
<trkpt lat="49.33220995590091" lon="7.922652997076511">
<ele>353.4</ele>
<time>2023-05-18T11:39:26Z</time>
</trkpt>
<trkpt lat="49.33220995590091" lon="7.9227769654244184">
<ele>352.79999999999995</ele>
<time>2023-05-18T11:39:27Z</time>
</trkpt>
<trkpt lat="49.33220995590091" lon="7.922902945429087">
<ele>352.20000000000005</ele>
<time>2023-05-18T11:39:28Z</time>
</trkpt>
<trkpt lat="49.33221791870892" lon="7.9230299312621355">
<ele>351.6</ele>
<time>2023-05-18T11:39:29Z</time>
</trkpt>
<trkpt lat="49.33222294785082" lon="7.923164963722229">
<ele>350.79999999999995</ele>
<time>2023-05-18T11:39:30Z</time>
</trkpt>
<trkpt lat="49.33223493397236" lon="7.9233079589903355">
<ele>350.20000000000005</ele>
<time>2023-05-18T11:39:31Z</time>
</trkpt>
<trkpt lat="49.33225496672094" lon="7.92346796952188">
<ele>349.6</ele>
<time>2023-05-18T11:39:32Z</time>
</trkpt>
<trkpt lat="49.332289919257164" lon="7.923612976446748">
<ele>348.79999999999995</ele>
<time>2023-05-18T11:39:33Z</time>
</trkpt>
<trkpt lat="49.33232696726918" lon="7.923766952008009">
<ele>348.20000000000005</ele>
<time>2023-05-18T11:39:34Z</time>
</trkpt>
<trkpt lat="49.33236493729055" lon="7.92391799390316">
<ele>347.4</ele>
<time>2023-05-18T11:39:35Z</time>
</trkpt>
<trkpt lat="49.33240693062544" lon="7.924067946150899">
<ele>346.6</ele>
<time>2023-05-18T11:39:36Z</time>
</trkpt>
<trkpt lat="49.3324469961226" lon="7.92422192171216">
<ele>345.79999999999995</ele>
<time>2023-05-18T11:39:37Z</time>
</trkpt>
<trkpt lat="49.33248697780073" lon="7.924371957778931">
<ele>345.20000000000005</ele>
<time>2023-05-18T11:39:38Z</time>
</trkpt>
<trkpt lat="49.332527965307236" lon="7.924516964703798">
<ele>344.4</ele>
<time>2023-05-18T11:39:39Z</time>
</trkpt>
<trkpt lat="49.33256291784346" lon="7.924679992720485">
<ele>343.79999999999995</ele>
<time>2023-05-18T11:39:40Z</time>
</trkpt>
<trkpt lat="49.33261698111892" lon="7.9248429369181395">
<ele>343</ele>
<time>2023-05-18T11:39:41Z</time>
</trkpt>
<trkpt lat="49.332656962797046" lon="7.9250069707632065">
<ele>342.20000000000005</ele>
<time>2023-05-18T11:39:42Z</time>
</trkpt>
<trkpt lat="49.33270792476833" lon="7.925157928839326">
<ele>341.4</ele>
<time>2023-05-18T11:39:43Z</time>
</trkpt>
<trkpt lat="49.33275494724512" lon="7.925319951027632">
<ele>340.6</ele>
<time>2023-05-18T11:39:44Z</time>
</trkpt>
<trkpt lat="49.33280196972191" lon="7.925466969609261">
<ele>340</ele>
<time>2023-05-18T11:39:45Z</time>
</trkpt>
<trkpt lat="49.332852931693196" lon="7.925621950998902">
<ele>339.4</ele>
<time>2023-05-18T11:39:46Z</time>
</trkpt>
<trkpt lat="49.332907916978" lon="7.925774920731783">
<ele>338.79999999999995</ele>
<time>2023-05-18T11:39:47Z</time>
</trkpt>
<trkpt lat="49.3329599685967" lon="7.925906935706735">
<ele>338.20000000000005</ele>
<time>2023-05-18T11:39:48Z</time>
</trkpt>
<trkpt lat="49.33301193639636" lon="7.926052948459983">
<ele>337.79999999999995</ele>
<time>2023-05-18T11:39:49Z</time>
</trkpt>
<trkpt lat="49.33305795304477" lon="7.926201978698373">
<ele>337.20000000000005</ele>
<time>2023-05-18T11:39:50Z</time>
</trkpt>
<trkpt lat="49.33310195803642" lon="7.926342962309718">
<ele>336.79999999999995</ele>
<time>2023-05-18T11:39:51Z</time>
</trkpt>
<trkpt lat="49.33313791640103" lon="7.926477994769812">
<ele>336.4</ele>
<time>2023-05-18T11:39:52Z</time>
</trkpt>
<trkpt lat="49.33317999355495" lon="7.926616966724396">
<ele>335.79999999999995</ele>
<time>2023-05-18T11:39:53Z</time>
</trkpt>
<trkpt lat="49.33322198688984" lon="7.926749987527728">
<ele>335.4</ele>
<time>2023-05-18T11:39:54Z</time>
</trkpt>
<trkpt lat="49.33326297439635" lon="7.926891976967454">
<ele>335</ele>
<time>2023-05-18T11:39:55Z</time>
</trkpt>
<trkpt lat="49.333302956074476" lon="7.927031954750419">
<ele>334.6</ele>
<time>2023-05-18T11:39:56Z</time>
</trkpt>
<trkpt lat="49.333341931924224" lon="7.927176961675286">
<ele>334.20000000000005</ele>
<time>2023-05-18T11:39:57Z</time>
</trkpt>
<trkpt lat="49.333381997421384" lon="7.927317945286632">
<ele>333.79999999999995</ele>
<time>2023-05-18T11:39:58Z</time>
</trkpt>
<trkpt lat="49.33341694995761" lon="7.927456917241216">
<ele>333.4</ele>
<time>2023-05-18T11:39:59Z</time>
</trkpt>
<trkpt lat="49.333454919978976" lon="7.927589938044548">
<ele>333</ele>
<time>2023-05-18T11:40:00Z</time>
</trkpt>
<trkpt lat="49.33348794467747" lon="7.9277219530195">
<ele>332.6</ele>
<time>2023-05-18T11:40:01Z</time>
</trkpt>
<trkpt lat="49.33352499268949" lon="7.92785195633769">
<ele>332.4</ele>
<time>2023-05-18T11:40:02Z</time>
</trkpt>
<trkpt lat="49.33356497436762" lon="7.92797994799912">
<ele>332.20000000000005</ele>
<time>2023-05-18T11:40:03Z</time>
</trkpt>
<trkpt lat="49.333602944388986" lon="7.928102994337678">
<ele>332</ele>
<time>2023-05-18T11:40:04Z</time>
</trkpt>
<trkpt lat="49.33364192023873" lon="7.928222939372063">
<ele>331.79999999999995</ele>
<time>2023-05-18T11:40:05Z</time>
</trkpt>
<trkpt lat="49.33368198573589" lon="7.928342968225479">
<ele>331.6</ele>
<time>2023-05-18T11:40:06Z</time>
</trkpt>
<trkpt lat="49.33372196741402" lon="7.928459979593754">
<ele>331.4</ele>
<time>2023-05-18T11:40:07Z</time>
</trkpt>
<trkpt lat="49.33375792577863" lon="7.928567938506603">
<ele>331.20000000000005</ele>
<time>2023-05-18T11:40:08Z</time>
</trkpt>
<trkpt lat="49.33379799127579" lon="7.928672963753343">
<ele>331</ele>
<time>2023-05-18T11:40:09Z</time>
</trkpt>
<trkpt lat="49.33384492993355" lon="7.9287799168378115">
<ele>330.79999999999995</ele>
<time>2023-05-18T11:40:10Z</time>
</trkpt>
<trkpt lat="49.33389195241034" lon="7.92887999676168">
<ele>330.6</ele>
<time>2023-05-18T11:40:11Z</time>
</trkpt>
<trkpt lat="49.33393998071551" lon="7.928974963724613">
<ele>330.4</ele>
<time>2023-05-18T11:40:12Z</time>
</trkpt>
<trkpt lat="49.333986919373274" lon="7.929062973707914">
<ele>330.20000000000005</ele>
<time>2023-05-18T11:40:13Z</time>
</trkpt>
<trkpt lat="49.334031930193305" lon="7.929147966206074">
<ele>330</ele>
<time>2023-05-18T11:40:14Z</time>
</trkpt>
<trkpt lat="49.334071995690465" lon="7.929231952875853">
<ele>329.79999999999995</ele>
<time>2023-05-18T11:40:15Z</time>
</trkpt>
<trkpt lat="49.33410996571183" lon="7.929317951202393">
<ele>329.6</ele>
<time>2023-05-18T11:40:16Z</time>
</trkpt>
<trkpt lat="49.33414994738996" lon="7.929406967014074">
<ele>329.4</ele>
<time>2023-05-18T11:40:17Z</time>
</trkpt>
<trkpt lat="49.33418498374522" lon="7.92948299087584">
<ele>329.20000000000005</ele>
<time>2023-05-18T11:40:18Z</time>
</trkpt>
<trkpt lat="49.33422798290849" lon="7.929567983374">
<ele>329</ele>
<time>2023-05-18T11:40:19Z</time>
</trkpt>
<trkpt lat="49.334266958758235" lon="7.929651970043778">
<ele>328.79999999999995</ele>
<time>2023-05-18T11:40:20Z</time>
</trkpt>
<trkpt lat="49.33430199511349" lon="7.929731933400035">
<ele>328.6</ele>
<time>2023-05-18T11:40:21Z</time>
</trkpt>
<trkpt lat="49.33433694764972" lon="7.929807957261801">
<ele>328.4</ele>
<time>2023-05-18T11:40:22Z</time>
</trkpt>
<trkpt lat="49.33436796069145" lon="7.929882975295186">
<ele>328.4</ele>
<time>2023-05-18T11:40:23Z</time>
</trkpt>
<trkpt lat="49.334397967904806" lon="7.929959921166301">
<ele>328.20000000000005</ele>
<time>2023-05-18T11:40:24Z</time>
</trkpt>
<trkpt lat="49.33442797511816" lon="7.930034939199686">
<ele>328</ele>
<time>2023-05-18T11:40:25Z</time>
</trkpt>
<trkpt lat="49.334456976503134" lon="7.93010794557631">
<ele>328</ele>
<time>2023-05-18T11:40:26Z</time>
</trkpt>
<trkpt lat="49.33448497205973" lon="7.930182963609695">
<ele>327.79999999999995</ele>
<time>2023-05-18T11:40:27Z</time>
</trkpt>
<trkpt lat="49.33451699092984" lon="7.930262926965952">
<ele>327.79999999999995</ele>
<time>2023-05-18T11:40:28Z</time>
</trkpt>
<trkpt lat="49.334544986486435" lon="7.9303469974547625">
<ele>327.6</ele>
<time>2023-05-18T11:40:29Z</time>
</trkpt>
<trkpt lat="49.33457298204303" lon="7.9304279666393995">
<ele>327.4</ele>
<time>2023-05-18T11:40:30Z</time>
</trkpt>
<trkpt lat="49.33459494262934" lon="7.930504996329546">
<ele>327.4</ele>
<time>2023-05-18T11:40:31Z</time>
</trkpt>
<trkpt lat="49.33461497537792" lon="7.9305769968777895">
<ele>327.20000000000005</ele>
<time>2023-05-18T11:40:32Z</time>
</trkpt>
<trkpt lat="49.33463693596423" lon="7.930657966062427">
<ele>327</ele>
<time>2023-05-18T11:40:33Z</time>
</trkpt>
<trkpt lat="49.33466291986406" lon="7.930742958560586">
<ele>326.79999999999995</ele>
<time>2023-05-18T11:40:34Z</time>
</trkpt>
<trkpt lat="49.3346899934113" lon="7.930839937180281">
<ele>326.79999999999995</ele>
<time>2023-05-18T11:40:35Z</time>
</trkpt>
<trkpt lat="49.334716983139515" lon="7.930939933285117">
<ele>326.6</ele>
<time>2023-05-18T11:40:36Z</time>
</trkpt>
<trkpt lat="49.33474992401898" lon="7.9310499876737595">
<ele>326.4</ele>
<time>2023-05-18T11:40:37Z</time>
</trkpt>
<trkpt lat="49.33477498590946" lon="7.931149983778596">
<ele>326.20000000000005</ele>
<time>2023-05-18T11:40:38Z</time>
</trkpt>
<trkpt lat="49.334801975637674" lon="7.931256936863065">
<ele>326.20000000000005</ele>
<time>2023-05-18T11:40:39Z</time>
</trkpt>
<trkpt lat="49.33482997119427" lon="7.931359950453043">
<ele>326</ele>
<time>2023-05-18T11:40:40Z</time>
</trkpt>
<trkpt lat="49.33485494926572" lon="7.931467993184924">
<ele>325.79999999999995</ele>
<time>2023-05-18T11:40:41Z</time>
</trkpt>
<trkpt lat="49.33488294482231" lon="7.931572934612632">
<ele>325.6</ele>
<time>2023-05-18T11:40:42Z</time>
</trkpt>
<trkpt lat="49.334911946207285" lon="7.931672930717468">
<ele>325.4</ele>
<time>2023-05-18T11:40:43Z</time>
</trkpt>
<trkpt lat="49.33493994176388" lon="7.931786924600601">
<ele>325.20000000000005</ele>
<time>2023-05-18T11:40:44Z</time>
</trkpt>
<trkpt lat="49.33497196063399" lon="7.931901924312115">
<ele>325</ele>
<time>2023-05-18T11:40:45Z</time>
</trkpt>
<trkpt lat="49.33500196784735" lon="7.932021953165531">
<ele>324.79999999999995</ele>
<time>2023-05-18T11:40:46Z</time>
</trkpt>
<trkpt lat="49.33503499254584" lon="7.932137958705425">
<ele>324.79999999999995</ele>
<time>2023-05-18T11:40:47Z</time>
</trkpt>
<trkpt lat="49.335061982274055" lon="7.932251952588558">
<ele>324.6</ele>
<time>2023-05-18T11:40:48Z</time>
</trkpt>
<trkpt lat="49.33508796617389" lon="7.932354966178536">
<ele>324.20000000000005</ele>
<time>2023-05-18T11:40:49Z</time>
</trkpt>
<trkpt lat="49.33511294424534" lon="7.932452950626612">
<ele>324</ele>
<time>2023-05-18T11:40:50Z</time>
</trkpt>
<trkpt lat="49.335144963115454" lon="7.932552946731448">
<ele>323.79999999999995</ele>
<time>2023-05-18T11:40:51Z</time>
</trkpt>
<trkpt lat="49.33517295867205" lon="7.932656966149807">
<ele>323.4</ele>
<time>2023-05-18T11:40:52Z</time>
</trkpt>
<trkpt lat="49.335194919258356" lon="7.932764925062656">
<ele>323.20000000000005</ele>
<time>2023-05-18T11:40:53Z</time>
</trkpt>
<trkpt lat="49.33521796949208" lon="7.932871961966157">
<ele>323</ele>
<time>2023-05-18T11:40:54Z</time>
</trkpt>
<trkpt lat="49.33523993007839" lon="7.932974975556135">
<ele>322.6</ele>
<time>2023-05-18T11:40:55Z</time>
</trkpt>
<trkpt lat="49.335257951170206" lon="7.933077989146113">
<ele>322.4</ele>
<time>2023-05-18T11:40:56Z</time>
</trkpt>
<trkpt lat="49.33527999557555" lon="7.93317798525095">
<ele>322.20000000000005</ele>
<time>2023-05-18T11:40:57Z</time>
</trkpt>
<trkpt lat="49.335297932848334" lon="7.9332879558205605">
<ele>321.79999999999995</ele>
<time>2023-05-18T11:40:58Z</time>
</trkpt>
<trkpt lat="49.335317965596914" lon="7.933394992724061">
<ele>321.6</ele>
<time>2023-05-18T11:40:59Z</time>
</trkpt>
<trkpt lat="49.33535199612379" lon="7.933512926101685">
<ele>321.4</ele>
<time>2023-05-18T11:41:00Z</time>
</trkpt>
<trkpt lat="49.335382925346494" lon="7.933639995753765">
<ele>321.20000000000005</ele>
<time>2023-05-18T11:41:01Z</time>
</trkpt>
<trkpt lat="49.33541494421661" lon="7.933757929131389">
<ele>321</ele>
<time>2023-05-18T11:41:02Z</time>
</trkpt>
<trkpt lat="49.335446963086724" lon="7.933884998783469">
<ele>320.6</ele>
<time>2023-05-18T11:41:03Z</time>
</trkpt>
<trkpt lat="49.335472946986556" lon="7.934004943817854">
<ele>320.4</ele>
<time>2023-05-18T11:41:04Z</time>
</trkpt>
<trkpt lat="49.33549792505801" lon="7.934116926044226">
<ele>320.20000000000005</ele>
<time>2023-05-18T11:41:05Z</time>
</trkpt>
<trkpt lat="49.33551695197821" lon="7.934239972382784">
<ele>320</ele>
<time>2023-05-18T11:41:06Z</time>
</trkpt>
<trkpt lat="49.33553799055517" lon="7.934356983751059">
<ele>319.6</ele>
<time>2023-05-18T11:41:07Z</time>
</trkpt>
<trkpt lat="49.33556196279824" lon="7.934472989290953">
<ele>319.4</ele>
<time>2023-05-18T11:41:08Z</time>
</trkpt>
<trkpt lat="49.33558794669807" lon="7.9345999751240015">
<ele>319.20000000000005</ele>
<time>2023-05-18T11:41:09Z</time>
</trkpt>
<trkpt lat="49.335621977224946" lon="7.93472696095705">
<ele>319</ele>
<time>2023-05-18T11:41:10Z</time>
</trkpt>
<trkpt lat="49.33565299026668" lon="7.934851935133338">
<ele>318.6</ele>
<time>2023-05-18T11:41:11Z</time>
</trkpt>
<trkpt lat="49.335684925317764" lon="7.934971963986754">
<ele>318.4</ele>
<time>2023-05-18T11:41:12Z</time>
</trkpt>
<trkpt lat="49.33571493253112" lon="7.93508998118341">
<ele>318.20000000000005</ele>
<time>2023-05-18T11:41:13Z</time>
</trkpt>
<trkpt lat="49.3357399944216" lon="7.935206992551684">
<ele>317.79999999999995</ele>
<time>2023-05-18T11:41:14Z</time>
</trkpt>
<trkpt lat="49.33575994335115" lon="7.935326937586069">
<ele>317.4</ele>
<time>2023-05-18T11:41:15Z</time>
</trkpt>
<trkpt lat="49.33578693307936" lon="7.9354549292474985">
<ele>317.20000000000005</ele>
<time>2023-05-18T11:41:16Z</time>
</trkpt>
<trkpt lat="49.335812916979194" lon="7.935574958100915">
<ele>316.79999999999995</ele>
<time>2023-05-18T11:41:17Z</time>
</trkpt>
<trkpt lat="49.33583797886968" lon="7.935694986954331">
<ele>316.6</ele>
<time>2023-05-18T11:41:18Z</time>
</trkpt>
<trkpt lat="49.33586195111275" lon="7.935812920331955">
<ele>316.4</ele>
<time>2023-05-18T11:41:19Z</time>
</trkpt>
<trkpt lat="49.33588793501258" lon="7.935936972498894">
<ele>316</ele>
<time>2023-05-18T11:41:20Z</time>
</trkpt>
<trkpt lat="49.33591693639755" lon="7.936052978038788">
<ele>315.79999999999995</ele>
<time>2023-05-18T11:41:21Z</time>
</trkpt>
<trkpt lat="49.335942920297384" lon="7.936171917244792">
<ele>315.6</ele>
<time>2023-05-18T11:41:22Z</time>
</trkpt>
<trkpt lat="49.33596798218787" lon="7.936292951926589">
<ele>315.20000000000005</ele>
<time>2023-05-18T11:41:23Z</time>
</trkpt>
<trkpt lat="49.33599296025932" lon="7.936416920274496">
<ele>314.79999999999995</ele>
<time>2023-05-18T11:41:24Z</time>
</trkpt>
<trkpt lat="49.33601994998753" lon="7.93653292581439">
<ele>314.4</ele>
<time>2023-05-18T11:41:25Z</time>
</trkpt>
<trkpt lat="49.33604291640222" lon="7.936654966324568">
<ele>314</ele>
<time>2023-05-18T11:41:26Z</time>
</trkpt>
<trkpt lat="49.336067978292704" lon="7.936776923015714">
<ele>313.79999999999995</ele>
<time>2023-05-18T11:41:27Z</time>
</trkpt>
<trkpt lat="49.33609697967768" lon="7.936901981011033">
<ele>313.4</ele>
<time>2023-05-18T11:41:28Z</time>
</trkpt>
<trkpt lat="49.33612296357751" lon="7.937022931873798">
<ele>313.20000000000005</ele>
<time>2023-05-18T11:41:29Z</time>
</trkpt>
<trkpt lat="49.33614995330572" lon="7.937142960727215">
<ele>312.79999999999995</ele>
<time>2023-05-18T11:41:30Z</time>
</trkpt>
<trkpt lat="49.33617493137717" lon="7.937266929075122">
<ele>312.6</ele>
<time>2023-05-18T11:41:31Z</time>
</trkpt>
<trkpt lat="49.336196975782514" lon="7.937394920736551">
<ele>312.20000000000005</ele>
<time>2023-05-18T11:41:32Z</time>
</trkpt>
<trkpt lat="49.33622497133911" lon="7.937521990388632">
<ele>311.79999999999995</ele>
<time>2023-05-18T11:41:33Z</time>
</trkpt>
<trkpt lat="49.33625196106732" lon="7.9376469645649195">
<ele>311.4</ele>
<time>2023-05-18T11:41:34Z</time>
</trkpt>
<trkpt lat="49.33627693913877" lon="7.937772944569588">
<ele>311.20000000000005</ele>
<time>2023-05-18T11:41:35Z</time>
</trkpt>
<trkpt lat="49.33630191721022" lon="7.937902947887778">
<ele>310.79999999999995</ele>
<time>2023-05-18T11:41:36Z</time>
</trkpt>
<trkpt lat="49.33631792664528" lon="7.93803496286273">
<ele>310.6</ele>
<time>2023-05-18T11:41:37Z</time>
</trkpt>
<trkpt lat="49.33633494190872" lon="7.938161948695779">
<ele>310.20000000000005</ele>
<time>2023-05-18T11:41:38Z</time>
</trkpt>
<trkpt lat="49.336351957172155" lon="7.938289940357208">
<ele>310</ele>
<time>2023-05-18T11:41:39Z</time>
</trkpt>
<trkpt lat="49.33636494912207" lon="7.938416926190257">
<ele>309.6</ele>
<time>2023-05-18T11:41:40Z</time>
</trkpt>
<trkpt lat="49.33637794107199" lon="7.9385449178516865">
<ele>309.4</ele>
<time>2023-05-18T11:41:41Z</time>
</trkpt>
<trkpt lat="49.33638699352741" lon="7.938669975847006">
<ele>309</ele>
<time>2023-05-18T11:41:42Z</time>
</trkpt>
<trkpt lat="49.336391938850284" lon="7.938801990821958">
<ele>308.79999999999995</ele>
<time>2023-05-18T11:41:43Z</time>
</trkpt>
<trkpt lat="49.33639797382057" lon="7.938939956948161">
<ele>308.4</ele>
<time>2023-05-18T11:41:44Z</time>
</trkpt>
<trkpt lat="49.33640199713409" lon="7.939071971923113">
<ele>308.20000000000005</ele>
<time>2023-05-18T11:41:45Z</time>
</trkpt>
<trkpt lat="49.33640794828534" lon="7.939207926392555">
<ele>307.79999999999995</ele>
<time>2023-05-18T11:41:46Z</time>
</trkpt>
<trkpt lat="49.336412977427244" lon="7.939341953024268">
<ele>307.6</ele>
<time>2023-05-18T11:41:47Z</time>
</trkpt>
<trkpt lat="49.336417922750115" lon="7.939476985484362">
<ele>307.4</ele>
<time>2023-05-18T11:41:48Z</time>
</trkpt>
<trkpt lat="49.336417922750115" lon="7.939606988802552">
<ele>307.20000000000005</ele>
<time>2023-05-18T11:41:49Z</time>
</trkpt>
<trkpt lat="49.33642798103392" lon="7.939739925786853">
<ele>307</ele>
<time>2023-05-18T11:41:50Z</time>
</trkpt>
<trkpt lat="49.33643996715546" lon="7.9398769699037075">
<ele>306.6</ele>
<time>2023-05-18T11:41:51Z</time>
</trkpt>
<trkpt lat="49.33644792996347" lon="7.940006973221898">
<ele>306.4</ele>
<time>2023-05-18T11:41:52Z</time>
</trkpt>
<trkpt lat="49.336456982418895" lon="7.940132953226566">
<ele>306.20000000000005</ele>
<time>2023-05-18T11:41:53Z</time>
</trkpt>
<trkpt lat="49.336461927741766" lon="7.940264968201518">
<ele>306</ele>
<time>2023-05-18T11:41:54Z</time>
</trkpt>
<trkpt lat="49.33646796271205" lon="7.94039798900485">
<ele>305.6</ele>
<time>2023-05-18T11:41:55Z</time>
</trkpt>
<trkpt lat="49.33647693134844" lon="7.940519945695996">
<ele>305.4</ele>
<time>2023-05-18T11:41:56Z</time>
</trkpt>
<trkpt lat="49.336481960490346" lon="7.940641986206174">
<ele>305</ele>
<time>2023-05-18T11:41:57Z</time>
</trkpt>
<trkpt lat="49.33648992329836" lon="7.9407669603824615">
<ele>304.79999999999995</ele>
<time>2023-05-18T11:41:58Z</time>
</trkpt>
<trkpt lat="49.336497969925404" lon="7.940887995064259">
<ele>304.4</ele>
<time>2023-05-18T11:41:59Z</time>
</trkpt>
<trkpt lat="49.33650299906731" lon="7.941007940098643">
<ele>304.20000000000005</ele>
<time>2023-05-18T11:42:00Z</time>
</trkpt>
<trkpt lat="49.33650794439018" lon="7.941129980608821">
<ele>304</ele>
<time>2023-05-18T11:42:01Z</time>
</trkpt>
<trkpt lat="49.33650995604694" lon="7.9412599839270115">
<ele>303.79999999999995</ele>
<time>2023-05-18T11:42:02Z</time>
</trkpt>
<trkpt lat="49.33650995604694" lon="7.941384958103299">
<ele>303.4</ele>
<time>2023-05-18T11:42:03Z</time>
</trkpt>
<trkpt lat="49.3365069385618" lon="7.941506998613477">
<ele>303.20000000000005</ele>
<time>2023-05-18T11:42:04Z</time>
</trkpt>
<trkpt lat="49.33650299906731" lon="7.941627949476242">
<ele>303</ele>
<time>2023-05-18T11:42:05Z</time>
</trkpt>
<trkpt lat="49.33649696409702" lon="7.94175292365253">
<ele>302.6</ele>
<time>2023-05-18T11:42:06Z</time>
</trkpt>
<trkpt lat="49.33648497797549" lon="7.941874964162707">
<ele>302.4</ele>
<time>2023-05-18T11:42:07Z</time>
</trkpt>
<trkpt lat="49.336477937176824" lon="7.942002955824137">
<ele>302.20000000000005</ele>
<time>2023-05-18T11:42:08Z</time>
</trkpt>
<trkpt lat="49.33646997436881" lon="7.9421299416571856">
<ele>301.79999999999995</ele>
<time>2023-05-18T11:42:09Z</time>
</trkpt>
<trkpt lat="49.336461927741766" lon="7.942251982167363">
<ele>301.6</ele>
<time>2023-05-18T11:42:10Z</time>
</trkpt>
<trkpt lat="49.33644692413509" lon="7.9423729330301285">
<ele>301.4</ele>
<time>2023-05-18T11:42:11Z</time>
</trkpt>
<trkpt lat="49.336436949670315" lon="7.942476952448487">
<ele>301</ele>
<time>2023-05-18T11:42:12Z</time>
</trkpt>
<trkpt lat="49.33642999269068" lon="7.9425879288464785">
<ele>300.79999999999995</ele>
<time>2023-05-18T11:42:13Z</time>
</trkpt>
<trkpt lat="49.336412977427244" lon="7.942699994891882">
<ele>300.6</ele>
<time>2023-05-18T11:42:14Z</time>
</trkpt>
<trkpt lat="49.33639797382057" lon="7.9428029246628284">
<ele>300.4</ele>
<time>2023-05-18T11:42:15Z</time>
</trkpt>
<trkpt lat="49.33638799935579" lon="7.942916918545961">
<ele>300</ele>
<time>2023-05-18T11:42:16Z</time>
</trkpt>
<trkpt lat="49.33637693524361" lon="7.9430299904197454">
<ele>299.79999999999995</ele>
<time>2023-05-18T11:42:17Z</time>
</trkpt>
<trkpt lat="49.33636796660721" lon="7.943141972646117">
<ele>299.6</ele>
<time>2023-05-18T11:42:18Z</time>
</trkpt>
<trkpt lat="49.33636193163693" lon="7.943249931558967">
<ele>299.4</ele>
<time>2023-05-18T11:42:19Z</time>
</trkpt>
<trkpt lat="49.33635799214244" lon="7.943351939320564">
<ele>299.20000000000005</ele>
<time>2023-05-18T11:42:20Z</time>
</trkpt>
<trkpt lat="49.33634491637349" lon="7.94344799593091">
<ele>299</ele>
<time>2023-05-18T11:42:21Z</time>
</trkpt>
<trkpt lat="49.33633795939386" lon="7.943547992035747">
<ele>298.79999999999995</ele>
<time>2023-05-18T11:42:22Z</time>
</trkpt>
<trkpt lat="49.336327984929085" lon="7.943656956776977">
<ele>298.6</ele>
<time>2023-05-18T11:42:23Z</time>
</trkpt>
<trkpt lat="49.33631993830204" lon="7.943761982023716">
<ele>298.4</ele>
<time>2023-05-18T11:42:24Z</time>
</trkpt>
<trkpt lat="49.336306946352124" lon="7.943862983956933">
<ele>298.20000000000005</ele>
<time>2023-05-18T11:42:25Z</time>
</trkpt>
<trkpt lat="49.336282974109054" lon="7.943964991718531">
<ele>298</ele>
<time>2023-05-18T11:42:26Z</time>
</trkpt>
<trkpt lat="49.33625699020922" lon="7.944074962288141">
<ele>297.6</ele>
<time>2023-05-18T11:42:27Z</time>
</trkpt>
<trkpt lat="49.33622798882425" lon="7.944182921200991">
<ele>297.4</ele>
<time>2023-05-18T11:42:28Z</time>
</trkpt>
<trkpt lat="49.336199993267655" lon="7.9443019442260265">
<ele>297.4</ele>
<time>2023-05-18T11:42:29Z</time>
</trkpt>
<trkpt lat="49.336179960519075" lon="7.944414932280779">
<ele>297.20000000000005</ele>
<time>2023-05-18T11:42:30Z</time>
</trkpt>
<trkpt lat="49.336154982447624" lon="7.944527920335531">
<ele>297</ele>
<time>2023-05-18T11:42:31Z</time>
</trkpt>
<trkpt lat="49.33613293804228" lon="7.944641998037696">
<ele>296.79999999999995</ele>
<time>2023-05-18T11:42:32Z</time>
</trkpt>
<trkpt lat="49.33609999716282" lon="7.944741994142532">
<ele>296.6</ele>
<time>2023-05-18T11:42:33Z</time>
</trkpt>
<trkpt lat="49.336074935272336" lon="7.944851964712143">
<ele>296.20000000000005</ele>
<time>2023-05-18T11:42:34Z</time>
</trkpt>
<trkpt lat="49.33604693971574" lon="7.944959923624992">
<ele>296</ele>
<time>2023-05-18T11:42:35Z</time>
</trkpt>
<trkpt lat="49.33602296747267" lon="7.945064948871732">
<ele>295.79999999999995</ele>
<time>2023-05-18T11:42:36Z</time>
</trkpt>
<trkpt lat="49.336004946380854" lon="7.945169974118471">
<ele>295.6</ele>
<time>2023-05-18T11:42:37Z</time>
</trkpt>
<trkpt lat="49.33598994277418" lon="7.945279944688082">
<ele>295.4</ele>
<time>2023-05-18T11:42:38Z</time>
</trkpt>
<trkpt lat="49.33596798218787" lon="7.945387987419963">
<ele>295.20000000000005</ele>
<time>2023-05-18T11:42:39Z</time>
</trkpt>
<trkpt lat="49.335944931954145" lon="7.9454929288476706">
<ele>295</ele>
<time>2023-05-18T11:42:40Z</time>
</trkpt>
<trkpt lat="49.33591492474079" lon="7.945601977407932">
<ele>294.79999999999995</ele>
<time>2023-05-18T11:42:41Z</time>
</trkpt>
<trkpt lat="49.33588793501258" lon="7.945711947977543">
<ele>294.6</ele>
<time>2023-05-18T11:42:42Z</time>
</trkpt>
<trkpt lat="49.33586698025465" lon="7.945826947689056">
<ele>294.4</ele>
<time>2023-05-18T11:42:43Z</time>
</trkpt>
<trkpt lat="49.33584292419255" lon="7.945937924087048">
<ele>294.20000000000005</ele>
<time>2023-05-18T11:42:44Z</time>
</trkpt>
<trkpt lat="49.33581995777786" lon="7.946041943505406">
<ele>294.20000000000005</ele>
<time>2023-05-18T11:42:45Z</time>
</trkpt>
<trkpt lat="49.33579799719155" lon="7.9461499862372875">
<ele>294</ele>
<time>2023-05-18T11:42:46Z</time>
</trkpt>
<trkpt lat="49.33577494695783" lon="7.946257945150137">
<ele>293.79999999999995</ele>
<time>2023-05-18T11:42:47Z</time>
</trkpt>
<trkpt lat="49.33574493974447" lon="7.94637193903327">
<ele>293.6</ele>
<time>2023-05-18T11:42:48Z</time>
</trkpt>
<trkpt lat="49.33571694418788" lon="7.94647797010839">
<ele>293.6</ele>
<time>2023-05-18T11:42:49Z</time>
</trkpt>
<trkpt lat="49.335687942802906" lon="7.9465879406780005">
<ele>293.4</ele>
<time>2023-05-18T11:42:50Z</time>
</trkpt>
<trkpt lat="49.33565299026668" lon="7.946689948439598">
<ele>293.20000000000005</ele>
<time>2023-05-18T11:42:51Z</time>
</trkpt>
<trkpt lat="49.33561493642628" lon="7.946786927059293">
<ele>293</ele>
<time>2023-05-18T11:42:52Z</time>
</trkpt>
<trkpt lat="49.335577972233295" lon="7.946882983669639">
<ele>292.79999999999995</ele>
<time>2023-05-18T11:42:53Z</time>
</trkpt>
<trkpt lat="49.3355449475348" lon="7.94697493314743">
<ele>292.6</ele>
<time>2023-05-18T11:42:54Z</time>
</trkpt>
<trkpt lat="49.335511922836304" lon="7.9470679722726345">
<ele>292.4</ele>
<time>2023-05-18T11:42:55Z</time>
</trkpt>
<trkpt lat="49.33547998778522" lon="7.947162939235568">
<ele>292.20000000000005</ele>
<time>2023-05-18T11:42:56Z</time>
</trkpt>
<trkpt lat="49.3354569375515" lon="7.947261929512024">
<ele>291.79999999999995</ele>
<time>2023-05-18T11:42:57Z</time>
</trkpt>
<trkpt lat="49.335426930338144" lon="7.947359997779131">
<ele>291.6</ele>
<time>2023-05-18T11:42:58Z</time>
</trkpt>
<trkpt lat="49.3353929836303" lon="7.9474479239434">
<ele>291.6</ele>
<time>2023-05-18T11:42:59Z</time>
</trkpt>
<trkpt lat="49.335361970588565" lon="7.947547920048237">
<ele>291.4</ele>
<time>2023-05-18T11:43:00Z</time>
</trkpt>
<trkpt lat="49.33534696698189" lon="7.947651939466596">
<ele>291</ele>
<time>2023-05-18T11:43:01Z</time>
</trkpt>
<trkpt lat="49.33532995171845" lon="7.947757970541716">
<ele>290.79999999999995</ele>
<time>2023-05-18T11:43:02Z</time>
</trkpt>
<trkpt lat="49.335317965596914" lon="7.947866935282946">
<ele>290.6</ele>
<time>2023-05-18T11:43:03Z</time>
</trkpt>
<trkpt lat="49.33531193062663" lon="7.947961986064911">
<ele>290.4</ele>
<time>2023-05-18T11:43:04Z</time>
</trkpt>
<trkpt lat="49.33530296199024" lon="7.9480519238859415">
<ele>290.20000000000005</ele>
<time>2023-05-18T11:43:05Z</time>
</trkpt>
<trkpt lat="49.33530195616186" lon="7.94815493747592">
<ele>290</ele>
<time>2023-05-18T11:43:06Z</time>
</trkpt>
<trkpt lat="49.335297932848334" lon="7.94824194163084">
<ele>289.79999999999995</ele>
<time>2023-05-18T11:43:07Z</time>
</trkpt>
<trkpt lat="49.335299944505095" lon="7.948331963270903">
<ele>289.6</ele>
<time>2023-05-18T11:43:08Z</time>
</trkpt>
<trkpt lat="49.335294999182224" lon="7.94841293245554">
<ele>289.4</ele>
<time>2023-05-18T11:43:09Z</time>
</trkpt>
<trkpt lat="49.33528494089842" lon="7.948511922731996">
<ele>289.20000000000005</ele>
<time>2023-05-18T11:43:10Z</time>
</trkpt>
<trkpt lat="49.3352719489485" lon="7.948606973513961">
<ele>289</ele>
<time>2023-05-18T11:43:11Z</time>
</trkpt>
<trkpt lat="49.33526499196887" lon="7.9487119987607">
<ele>288.79999999999995</ele>
<time>2023-05-18T11:43:12Z</time>
</trkpt>
<trkpt lat="49.3352669198066" lon="7.948802942410111">
<ele>288.6</ele>
<time>2023-05-18T11:43:13Z</time>
</trkpt>
<trkpt lat="49.335254933685064" lon="7.948897993192077">
<ele>288.4</ele>
<time>2023-05-18T11:43:14Z</time>
</trkpt>
<trkpt lat="49.335232973098755" lon="7.949001928791404">
<ele>288.20000000000005</ele>
<time>2023-05-18T11:43:15Z</time>
</trkpt>
<trkpt lat="49.335211934521794" lon="7.949096979573369">
<ele>288</ele>
<time>2023-05-18T11:43:16Z</time>
</trkpt>
<trkpt lat="49.335187962278724" lon="7.9491969756782055">
<ele>287.79999999999995</ele>
<time>2023-05-18T11:43:17Z</time>
</trkpt>
<trkpt lat="49.33516197837889" lon="7.949301917105913">
<ele>287.6</ele>
<time>2023-05-18T11:43:18Z</time>
</trkpt>
<trkpt lat="49.33513297699392" lon="7.949416916817427">
<ele>287.4</ele>
<time>2023-05-18T11:43:19Z</time>
</trkpt>
<trkpt lat="49.335101963952184" lon="7.949529988691211">
<ele>287.20000000000005</ele>
<time>2023-05-18T11:43:20Z</time>
</trkpt>
<trkpt lat="49.33506994508207" lon="7.9496269673109055">
<ele>287.20000000000005</ele>
<time>2023-05-18T11:43:21Z</time>
</trkpt>
<trkpt lat="49.33503692038357" lon="7.949709948152304">
<ele>287</ele>
<time>2023-05-18T11:43:22Z</time>
</trkpt>
<trkpt lat="49.33500297367573" lon="7.949802987277508">
<ele>286.79999999999995</ele>
<time>2023-05-18T11:43:23Z</time>
</trkpt>
<trkpt lat="49.33496793732047" lon="7.949939947575331">
<ele>286.79999999999995</ele>
<time>2023-05-18T11:43:24Z</time>
</trkpt>
<trkpt lat="49.33493994176388" lon="7.950036926195025">
<ele>286.6</ele>
<time>2023-05-18T11:43:25Z</time>
</trkpt>
<trkpt lat="49.33490691706538" lon="7.950132982805371">
<ele>286.4</ele>
<time>2023-05-18T11:43:26Z</time>
</trkpt>
<trkpt lat="49.334869952872396" lon="7.95023993588984">
<ele>286.4</ele>
<time>2023-05-18T11:43:27Z</time>
</trkpt>
<trkpt lat="49.33483491651714" lon="7.950342949479818">
<ele>286.20000000000005</ele>
<time>2023-05-18T11:43:28Z</time>
</trkpt>
<trkpt lat="49.33479694649577" lon="7.950439928099513">
<ele>286</ele>
<time>2023-05-18T11:43:29Z</time>
</trkpt>
<trkpt lat="49.334761993959546" lon="7.950534978881478">
<ele>286</ele>
<time>2023-05-18T11:43:30Z</time>
</trkpt>
<trkpt lat="49.334719916805625" lon="7.950624916702509">
<ele>285.79999999999995</ele>
<time>2023-05-18T11:43:31Z</time>
</trkpt>
<trkpt lat="49.33468194678426" lon="7.950714938342571">
<ele>285.6</ele>
<time>2023-05-18T11:43:32Z</time>
</trkpt>
<trkpt lat="49.33464297093451" lon="7.9508129227906466">
<ele>285.4</ele>
<time>2023-05-18T11:43:33Z</time>
</trkpt>
<trkpt lat="49.33460491709411" lon="7.950912918895483">
<ele>285.4</ele>
<time>2023-05-18T11:43:34Z</time>
</trkpt>
<trkpt lat="49.33456191793084" lon="7.951011992990971">
<ele>285.20000000000005</ele>
<time>2023-05-18T11:43:35Z</time>
</trkpt>
<trkpt lat="49.33452193625271" lon="7.951107965782285">
<ele>285</ele>
<time>2023-05-18T11:43:36Z</time>
</trkpt>
<trkpt lat="49.334479942917824" lon="7.951209973543882">
<ele>284.79999999999995</ele>
<time>2023-05-18T11:43:37Z</time>
</trkpt>
<trkpt lat="49.3344449903816" lon="7.951321955770254">
<ele>284.6</ele>
<time>2023-05-18T11:43:38Z</time>
</trkpt>
<trkpt lat="49.334416994825006" lon="7.9514349438250065">
<ele>284.4</ele>
<time>2023-05-18T11:43:39Z</time>
</trkpt>
<trkpt lat="49.33438992127776" lon="7.951552961021662">
<ele>284.20000000000005</ele>
<time>2023-05-18T11:43:40Z</time>
</trkpt>
<trkpt lat="49.33436695486307" lon="7.951672989875078">
<ele>283.79999999999995</ele>
<time>2023-05-18T11:43:41Z</time>
</trkpt>
<trkpt lat="49.3343379534781" lon="7.951787989586592">
<ele>283.6</ele>
<time>2023-05-18T11:43:42Z</time>
</trkpt>
<trkpt lat="49.33431699872017" lon="7.951904917135835">
<ele>283.4</ele>
<time>2023-05-18T11:43:43Z</time>
</trkpt>
<trkpt lat="49.33429696597159" lon="7.952021928504109">
<ele>283.20000000000005</ele>
<time>2023-05-18T11:43:44Z</time>
</trkpt>
<trkpt lat="49.33427693322301" lon="7.952134916558862">
<ele>283</ele>
<time>2023-05-18T11:43:45Z</time>
</trkpt>
<trkpt lat="49.3342549726367" lon="7.952242959290743">
<ele>282.6</ele>
<time>2023-05-18T11:43:46Z</time>
</trkpt>
<trkpt lat="49.33422999456525" lon="7.952354941517115">
<ele>282.4</ele>
<time>2023-05-18T11:43:47Z</time>
</trkpt>
<trkpt lat="49.334201999008656" lon="7.952464995905757">
<ele>282.20000000000005</ele>
<time>2023-05-18T11:43:48Z</time>
</trkpt>
<trkpt lat="49.33417693711817" lon="7.9525749664753675">
<ele>282</ele>
<time>2023-05-18T11:43:49Z</time>
</trkpt>
<trkpt lat="49.33414491824806" lon="7.952679991722107">
<ele>281.79999999999995</ele>
<time>2023-05-18T11:43:50Z</time>
</trkpt>
<trkpt lat="49.33410996571183" lon="7.952786944806576">
<ele>281.6</ele>
<time>2023-05-18T11:43:51Z</time>
</trkpt>
<trkpt lat="49.33406696654856" lon="7.952892975881696">
<ele>281.4</ele>
<time>2023-05-18T11:43:52Z</time>
</trkpt>
<trkpt lat="49.33402195572853" lon="7.9529969953000546">
<ele>281.20000000000005</ele>
<time>2023-05-18T11:43:53Z</time>
</trkpt>
<trkpt lat="49.33396998792887" lon="7.953092968091369">
<ele>281</ele>
<time>2023-05-18T11:43:54Z</time>
</trkpt>
<trkpt lat="49.3339129909873" lon="7.95318198390305">
<ele>280.6</ele>
<time>2023-05-18T11:43:55Z</time>
</trkpt>
<trkpt lat="49.333854988217354" lon="7.9532629530876875">
<ele>280.4</ele>
<time>2023-05-18T11:43:56Z</time>
</trkpt>
<trkpt lat="49.33379698544741" lon="7.953342916443944">
<ele>280.20000000000005</ele>
<time>2023-05-18T11:43:57Z</time>
</trkpt>
<trkpt lat="49.33373797684908" lon="7.953427992761135">
<ele>279.79999999999995</ele>
<time>2023-05-18T11:43:58Z</time>
</trkpt>
<trkpt lat="49.33367997407913" lon="7.953511979430914">
<ele>279.6</ele>
<time>2023-05-18T11:43:59Z</time>
</trkpt>
<trkpt lat="49.33362498879433" lon="7.953592948615551">
<ele>279.4</ele>
<time>2023-05-18T11:44:00Z</time>
</trkpt>
<trkpt lat="49.33356991969049" lon="7.953679952770472">
<ele>279</ele>
<time>2023-05-18T11:44:01Z</time>
</trkpt>
<trkpt lat="49.333517951890826" lon="7.953766956925392">
<ele>278.79999999999995</ele>
<time>2023-05-18T11:44:02Z</time>
</trkpt>
<trkpt lat="49.33346698991954" lon="7.953857984393835">
<ele>278.4</ele>
<time>2023-05-18T11:44:03Z</time>
</trkpt>
<trkpt lat="49.33341996744275" lon="7.95395496301353">
<ele>278.20000000000005</ele>
<time>2023-05-18T11:44:04Z</time>
</trkpt>
<trkpt lat="49.33337696827948" lon="7.954047918319702">
<ele>278</ele>
<time>2023-05-18T11:44:05Z</time>
</trkpt>
<trkpt lat="49.33333992026746" lon="7.954142969101667">
<ele>277.79999999999995</ele>
<time>2023-05-18T11:44:06Z</time>
</trkpt>
<trkpt lat="49.333306979388" lon="7.954242965206504">
<ele>277.4</ele>
<time>2023-05-18T11:44:07Z</time>
</trkpt>
<trkpt lat="49.33327194303274" lon="7.954349918290973">
<ele>277.20000000000005</ele>
<time>2023-05-18T11:44:08Z</time>
</trkpt>
<trkpt lat="49.333239924162626" lon="7.954461984336376">
<ele>277</ele>
<time>2023-05-18T11:44:09Z</time>
</trkpt>
<trkpt lat="49.33321192860603" lon="7.9545749723911285">
<ele>276.79999999999995</ele>
<time>2023-05-18T11:44:10Z</time>
</trkpt>
<trkpt lat="49.333189968019724" lon="7.954691983759403">
<ele>276.6</ele>
<time>2023-05-18T11:44:11Z</time>
</trkpt>
<trkpt lat="49.333171946927905" lon="7.954807989299297">
<ele>276.20000000000005</ele>
<time>2023-05-18T11:44:12Z</time>
</trkpt>
<trkpt lat="49.333152920007706" lon="7.954922989010811">
<ele>276</ele>
<time>2023-05-18T11:44:13Z</time>
</trkpt>
<trkpt lat="49.33313196524978" lon="7.955039916560054">
<ele>275.79999999999995</ele>
<time>2023-05-18T11:44:14Z</time>
</trkpt>
<trkpt lat="49.333104975521564" lon="7.955157933756709">
<ele>275.4</ele>
<time>2023-05-18T11:44:15Z</time>
</trkpt>
<trkpt lat="49.33306993916631" lon="7.955271927639842">
<ele>275.20000000000005</ele>
<time>2023-05-18T11:44:16Z</time>
</trkpt>
<trkpt lat="49.333019983023405" lon="7.95537494122982">
<ele>275</ele>
<time>2023-05-18T11:44:17Z</time>
</trkpt>
<trkpt lat="49.332956951111555" lon="7.955471919849515">
<ele>274.79999999999995</ele>
<time>2023-05-18T11:44:18Z</time>
</trkpt>
<trkpt lat="49.332889979705215" lon="7.955556996166706">
<ele>274.4</ele>
<time>2023-05-18T11:44:19Z</time>
</trkpt>
<trkpt lat="49.33281999081373" lon="7.95563193038106">
<ele>274.20000000000005</ele>
<time>2023-05-18T11:44:20Z</time>
</trkpt>
<trkpt lat="49.33274799026549" lon="7.955702925100923">
<ele>273.79999999999995</ele>
<time>2023-05-18T11:44:21Z</time>
</trkpt>
<trkpt lat="49.332674983888865" lon="7.955774925649166">
<ele>273.6</ele>
<time>2023-05-18T11:44:22Z</time>
</trkpt>
<trkpt lat="49.33260298334062" lon="7.955849943682551">
<ele>273.20000000000005</ele>
<time>2023-05-18T11:44:23Z</time>
</trkpt>
<trkpt lat="49.33253693394363" lon="7.955912975594401">
<ele>273</ele>
<time>2023-05-18T11:44:24Z</time>
</trkpt>
<trkpt lat="49.33247197419405" lon="7.955977935343981">
<ele>272.79999999999995</ele>
<time>2023-05-18T11:44:25Z</time>
</trkpt>
<trkpt lat="49.33240793645382" lon="7.9560519475489855">
<ele>272.4</ele>
<time>2023-05-18T11:44:26Z</time>
</trkpt>
<trkpt lat="49.33234691619873" lon="7.956126965582371">
<ele>272.20000000000005</ele>
<time>2023-05-18T11:44:27Z</time>
</trkpt>
<trkpt lat="49.33227298781276" lon="7.956202989444137">
<ele>272</ele>
<time>2023-05-18T11:44:28Z</time>
</trkpt>
<trkpt lat="49.332204926759005" lon="7.956282952800393">
<ele>271.6</ele>
<time>2023-05-18T11:44:29Z</time>
</trkpt>
<trkpt lat="49.332137955352664" lon="7.956357970833778">
<ele>271.4</ele>
<time>2023-05-18T11:44:30Z</time>
</trkpt>
<trkpt lat="49.332072995603085" lon="7.956436928361654">
<ele>271.20000000000005</ele>
<time>2023-05-18T11:44:31Z</time>
</trkpt>
<trkpt lat="49.332011975347996" lon="7.95651194639504">
<ele>271</ele>
<time>2023-05-18T11:44:32Z</time>
</trkpt>
<trkpt lat="49.33194492012262" lon="7.956584952771664">
<ele>270.79999999999995</ele>
<time>2023-05-18T11:44:33Z</time>
</trkpt>
<trkpt lat="49.331886917352676" lon="7.956666927784681">
<ele>270.6</ele>
<time>2023-05-18T11:44:34Z</time>
</trkpt>
<trkpt lat="49.331837967038155" lon="7.956744963303208">
<ele>270.4</ele>
<time>2023-05-18T11:44:35Z</time>
</trkpt>
<trkpt lat="49.33179195038974" lon="7.956841941922903">
<ele>270.20000000000005</ele>
<time>2023-05-18T11:44:36Z</time>
</trkpt>
<trkpt lat="49.33174693956971" lon="7.9569469671696424">
<ele>270</ele>
<time>2023-05-18T11:44:37Z</time>
</trkpt>
<trkpt lat="49.331707963719964" lon="7.957057943567634">
<ele>269.79999999999995</ele>
<time>2023-05-18T11:44:38Z</time>
</trkpt>
<trkpt lat="49.33167695067823" lon="7.957172943279147">
<ele>269.6</ele>
<time>2023-05-18T11:44:39Z</time>
</trkpt>
<trkpt lat="49.331646943464875" lon="7.957287942990661">
<ele>269.4</ele>
<time>2023-05-18T11:44:40Z</time>
</trkpt>
<trkpt lat="49.33160997927189" lon="7.9574069660156965">
<ele>269.20000000000005</ele>
<time>2023-05-18T11:44:41Z</time>
</trkpt>
<trkpt lat="49.33157796040177" lon="7.957524983212352">
<ele>269</ele>
<time>2023-05-18T11:44:42Z</time>
</trkpt>
<trkpt lat="49.33154694736004" lon="7.9576449282467365">
<ele>268.79999999999995</ele>
<time>2023-05-18T11:44:43Z</time>
</trkpt>
<trkpt lat="49.33150998316705" lon="7.957761939615011">
<ele>268.6</ele>
<time>2023-05-18T11:44:44Z</time>
</trkpt>
<trkpt lat="49.33147796429694" lon="7.957877945154905">
<ele>268.4</ele>
<time>2023-05-18T11:44:45Z</time>
</trkpt>
<trkpt lat="49.33144795708358" lon="7.957992944866419">
<ele>268.20000000000005</ele>
<time>2023-05-18T11:44:46Z</time>
</trkpt>
<trkpt lat="49.33141694404185" lon="7.958104927092791">
<ele>268</ele>
<time>2023-05-18T11:44:47Z</time>
</trkpt>
<trkpt lat="49.331387942656875" lon="7.958212969824672">
<ele>267.79999999999995</ele>
<time>2023-05-18T11:44:48Z</time>
</trkpt>
<trkpt lat="49.33136195875704" lon="7.9583249520510435">
<ele>267.6</ele>
<time>2023-05-18T11:44:49Z</time>
</trkpt>
<trkpt lat="49.33133698068559" lon="7.958439951762557">
<ele>267.4</ele>
<time>2023-05-18T11:44:50Z</time>
</trkpt>
<trkpt lat="49.33131292462349" lon="7.958546988666058">
<ele>267</ele>
<time>2023-05-18T11:44:51Z</time>
</trkpt>
<trkpt lat="49.33129196986556" lon="7.95865997672081">
<ele>266.79999999999995</ele>
<time>2023-05-18T11:44:52Z</time>
</trkpt>
<trkpt lat="49.33127495460212" lon="7.958776988089085">
<ele>266.6</ele>
<time>2023-05-18T11:44:53Z</time>
</trkpt>
<trkpt lat="49.331257939338684" lon="7.958894921466708">
<ele>266.4</ele>
<time>2023-05-18T11:44:54Z</time>
</trkpt>
<trkpt lat="49.331239918246865" lon="7.959007993340492">
<ele>266</ele>
<time>2023-05-18T11:44:55Z</time>
</trkpt>
<trkpt lat="49.33122198097408" lon="7.959117963910103">
<ele>265.79999999999995</ele>
<time>2023-05-18T11:44:56Z</time>
</trkpt>
<trkpt lat="49.3312069773674" lon="7.959232963621616">
<ele>265.6</ele>
<time>2023-05-18T11:44:57Z</time>
</trkpt>
<trkpt lat="49.3311879504472" lon="7.959351986646652">
<ele>265.20000000000005</ele>
<time>2023-05-18T11:44:58Z</time>
</trkpt>
<trkpt lat="49.33116992935538" lon="7.959471931681037">
<ele>264.79999999999995</ele>
<time>2023-05-18T11:44:59Z</time>
</trkpt>
<trkpt lat="49.33114796876907" lon="7.959594978019595">
<ele>264.6</ele>
<time>2023-05-18T11:45:00Z</time>
</trkpt>
<trkpt lat="49.33112491853535" lon="7.959716934710741">
<ele>264.20000000000005</ele>
<time>2023-05-18T11:45:01Z</time>
</trkpt>
<trkpt lat="49.33110295794904" lon="7.95984199270606">
<ele>263.79999999999995</ele>
<time>2023-05-18T11:45:02Z</time>
</trkpt>
<trkpt lat="49.33107999153435" lon="7.959967972710729">
<ele>263.4</ele>
<time>2023-05-18T11:45:03Z</time>
</trkpt>
<trkpt lat="49.33105794712901" lon="7.960092946887016">
<ele>263</ele>
<time>2023-05-18T11:45:04Z</time>
</trkpt>
<trkpt lat="49.33103799819946" lon="7.960216999053955">
<ele>262.6</ele>
<time>2023-05-18T11:45:05Z</time>
</trkpt>
<trkpt lat="49.33101494796574" lon="7.960342979058623">
<ele>262</ele>
<time>2023-05-18T11:45:06Z</time>
</trkpt>
<trkpt lat="49.33099298737943" lon="7.960471976548433">
<ele>261.6</ele>
<time>2023-05-18T11:45:07Z</time>
</trkpt>
<trkpt lat="49.33096792548895" lon="7.960609942674637">
<ele>261.20000000000005</ele>
<time>2023-05-18T11:45:08Z</time>
</trkpt>
<trkpt lat="49.33094194158912" lon="7.960751932114363">
<ele>260.6</ele>
<time>2023-05-18T11:45:09Z</time>
</trkpt>
<trkpt lat="49.33090698905289" lon="7.960887970402837">
<ele>260.20000000000005</ele>
<time>2023-05-18T11:45:10Z</time>
</trkpt>
<trkpt lat="49.33086298406124" lon="7.961034988984466">
<ele>259.6</ele>
<time>2023-05-18T11:45:11Z</time>
</trkpt>
<trkpt lat="49.33081193827093" lon="7.961169937625527">
<ele>259</ele>
<time>2023-05-18T11:45:12Z</time>
</trkpt>
<trkpt lat="49.3307529296726" lon="7.961299940943718">
<ele>258.4</ele>
<time>2023-05-18T11:45:13Z</time>
</trkpt>
<trkpt lat="49.33069199323654" lon="7.961426926776767">
<ele>257.79999999999995</ele>
<time>2023-05-18T11:45:14Z</time>
</trkpt>
<trkpt lat="49.33062795549631" lon="7.961549973115325">
<ele>257.20000000000005</ele>
<time>2023-05-18T11:45:15Z</time>
</trkpt>
<trkpt lat="49.33056492358446" lon="7.9616729356348515">
<ele>256.6</ele>
<time>2023-05-18T11:45:16Z</time>
</trkpt>
<trkpt lat="49.33049694634974" lon="7.961789947003126">
<ele>255.79999999999995</ele>
<time>2023-05-18T11:45:17Z</time>
</trkpt>
<trkpt lat="49.33042796328664" lon="7.96190494671464">
<ele>255.20000000000005</ele>
<time>2023-05-18T11:45:18Z</time>
</trkpt>
<trkpt lat="49.33036199770868" lon="7.962024975568056">
<ele>254.60000000000002</ele>
<time>2023-05-18T11:45:19Z</time>
</trkpt>
<trkpt lat="49.33029997162521" lon="7.962141986936331">
<ele>254</ele>
<time>2023-05-18T11:45:20Z</time>
</trkpt>
<trkpt lat="49.33024297468364" lon="7.9622619319707155">
<ele>253.39999999999998</ele>
<time>2023-05-18T11:45:21Z</time>
</trkpt>
<trkpt lat="49.33019192889333" lon="7.962396964430809">
<ele>252.79999999999995</ele>
<time>2023-05-18T11:45:22Z</time>
</trkpt>
<trkpt lat="49.330139961093664" lon="7.962534930557013">
<ele>252.20000000000005</ele>
<time>2023-05-18T11:45:23Z</time>
</trkpt>
<trkpt lat="49.330096961930394" lon="7.962672980502248">
<ele>251.39999999999998</ele>
<time>2023-05-18T11:45:24Z</time>
</trkpt>
<trkpt lat="49.33005798608065" lon="7.96280792914331">
<ele>250.79999999999995</ele>
<time>2023-05-18T11:45:25Z</time>
</trkpt>
<trkpt lat="49.33002496138215" lon="7.9629419557750225">
<ele>250</ele>
<time>2023-05-18T11:45:26Z</time>
</trkpt>
<trkpt lat="49.32999797165394" lon="7.963077994063497">
<ele>249.20000000000005</ele>
<time>2023-05-18T11:45:27Z</time>
</trkpt>
<trkpt lat="49.32998296804726" lon="7.963209925219417">
<ele>248.60000000000002</ele>
<time>2023-05-18T11:45:28Z</time>
</trkpt>
<trkpt lat="49.32997793890536" lon="7.963341940194368">
<ele>247.79999999999995</ele>
<time>2023-05-18T11:45:29Z</time>
</trkpt>
<trkpt lat="49.330009957775474" lon="7.9634499829262495">
<ele>247.20000000000005</ele>
<time>2023-05-18T11:45:30Z</time>
</trkpt>
<trkpt lat="49.33001993224025" lon="7.963589960709214">
<ele>246.60000000000002</ele>
<time>2023-05-18T11:45:31Z</time>
</trkpt>
<trkpt lat="49.330036947503686" lon="7.963729938492179">
<ele>246</ele>
<time>2023-05-18T11:45:32Z</time>
</trkpt>
<trkpt lat="49.33005195111036" lon="7.963867988437414">
<ele>245.20000000000005</ele>
<time>2023-05-18T11:45:33Z</time>
</trkpt>
<trkpt lat="49.33006192557514" lon="7.963999919593334">
<ele>244.60000000000002</ele>
<time>2023-05-18T11:45:34Z</time>
</trkpt>
<trkpt lat="49.330079946666956" lon="7.964129922911525">
<ele>244</ele>
<time>2023-05-18T11:45:35Z</time>
</trkpt>
<trkpt lat="49.33008698746562" lon="7.964257998391986">
<ele>243.39999999999998</ele>
<time>2023-05-18T11:45:36Z</time>
</trkpt>
<trkpt lat="49.33010299690068" lon="7.964389929547906">
<ele>242.79999999999995</ele>
<time>2023-05-18T11:45:37Z</time>
</trkpt>
<trkpt lat="49.3301379494369" lon="7.964517921209335">
<ele>242.20000000000005</ele>
<time>2023-05-18T11:45:38Z</time>
</trkpt>
<trkpt lat="49.33017994277179" lon="7.964637950062752">
<ele>241.60000000000002</ele>
<time>2023-05-18T11:45:39Z</time>
</trkpt>
<trkpt lat="49.33023693971336" lon="7.9647549614310265">
<ele>241.20000000000005</ele>
<time>2023-05-18T11:45:40Z</time>
</trkpt>
<trkpt lat="49.33029695414007" lon="7.964856969192624">
<ele>240.60000000000002</ele>
<time>2023-05-18T11:45:41Z</time>
</trkpt>
<trkpt lat="49.33035998605192" lon="7.964962916448712">
<ele>240.20000000000005</ele>
<time>2023-05-18T11:45:42Z</time>
</trkpt>
<trkpt lat="49.33041295967996" lon="7.965067941695452">
<ele>239.79999999999995</ele>
<time>2023-05-18T11:45:43Z</time>
</trkpt>
<trkpt lat="49.33045193552971" lon="7.965181935578585">
<ele>239.39999999999998</ele>
<time>2023-05-18T11:45:44Z</time>
</trkpt>
<trkpt lat="49.3304799310863" lon="7.965301964432001">
<ele>239.20000000000005</ele>
<time>2023-05-18T11:45:45Z</time>
</trkpt>
<trkpt lat="49.33050197549164" lon="7.965427944436669">
<ele>239</ele>
<time>2023-05-18T11:45:46Z</time>
</trkpt>
<trkpt lat="49.3305129557848" lon="7.965554930269718">
<ele>238.79999999999995</ele>
<time>2023-05-18T11:45:47Z</time>
</trkpt>
<trkpt lat="49.3305179849267" lon="7.965676970779896">
<ele>238.60000000000002</ele>
<time>2023-05-18T11:45:48Z</time>
</trkpt>
<trkpt lat="49.3305179849267" lon="7.965786941349506">
<ele>238.39999999999998</ele>
<time>2023-05-18T11:45:49Z</time>
</trkpt>
<trkpt lat="49.33051194995642" lon="7.965897917747498">
<ele>238.39999999999998</ele>
<time>2023-05-18T11:45:50Z</time>
</trkpt>
<trkpt lat="49.33050298132002" lon="7.966004954650998">
<ele>238.39999999999998</ele>
<time>2023-05-18T11:45:51Z</time>
</trkpt>
<trkpt lat="49.33049694634974" lon="7.966111991554499">
<ele>238.39999999999998</ele>
<time>2023-05-18T11:45:52Z</time>
</trkpt>
<trkpt lat="49.330484960228205" lon="7.966219950467348">
<ele>238.39999999999998</ele>
<time>2023-05-18T11:45:53Z</time>
</trkpt>
<trkpt lat="49.33047297410667" lon="7.96633193269372">
<ele>238.20000000000005</ele>
<time>2023-05-18T11:45:54Z</time>
</trkpt>
<trkpt lat="49.33045998215675" lon="7.966444920748472">
<ele>238.20000000000005</ele>
<time>2023-05-18T11:45:55Z</time>
</trkpt>
<trkpt lat="49.33045294135809" lon="7.966544916853309">
<ele>238.20000000000005</ele>
<time>2023-05-18T11:45:56Z</time>
</trkpt>
<trkpt lat="49.330441961064935" lon="7.966649942100048">
<ele>238</ele>
<time>2023-05-18T11:45:57Z</time>
</trkpt>
<trkpt lat="49.330421928316355" lon="7.9667499382048845">
<ele>238</ele>
<time>2023-05-18T11:45:58Z</time>
</trkpt>
<trkpt lat="49.33040197938681" lon="7.966846916824579">
<ele>238</ele>
<time>2023-05-18T11:45:59Z</time>
</trkpt>
<trkpt lat="49.330379934981465" lon="7.966942973434925">
<ele>237.79999999999995</ele>
<time>2023-05-18T11:46:00Z</time>
</trkpt>
<trkpt lat="49.33034799993038" lon="7.967044981196523">
<ele>237.79999999999995</ele>
<time>2023-05-18T11:46:01Z</time>
</trkpt>
<trkpt lat="49.33031799271703" lon="7.967144977301359">
<ele>237.60000000000002</ele>
<time>2023-05-18T11:46:02Z</time>
</trkpt>
<trkpt lat="49.33027499355376" lon="7.967241955921054">
<ele>237.60000000000002</ele>
<time>2023-05-18T11:46:03Z</time>
</trkpt>
<trkpt lat="49.33023291639984" lon="7.967332983389497">
<ele>237.39999999999998</ele>
<time>2023-05-18T11:46:04Z</time>
</trkpt>
<trkpt lat="49.33019796386361" lon="7.967422921210527">
<ele>237.39999999999998</ele>
<time>2023-05-18T11:46:05Z</time>
</trkpt>
<trkpt lat="49.330161921679974" lon="7.967519983649254">
<ele>237.39999999999998</ele>
<time>2023-05-18T11:46:06Z</time>
</trkpt>
<trkpt lat="49.33012696914375" lon="7.96761997975409">
<ele>237.20000000000005</ele>
<time>2023-05-18T11:46:07Z</time>
</trkpt>
<trkpt lat="49.33009495027363" lon="7.967709917575121">
<ele>237.20000000000005</ele>
<time>2023-05-18T11:46:08Z</time>
</trkpt>
<trkpt lat="49.33006293140352" lon="7.967799939215183">
<ele>237</ele>
<time>2023-05-18T11:46:09Z</time>
</trkpt>
<trkpt lat="49.33002797886729" lon="7.9678949899971485">
<ele>237</ele>
<time>2023-05-18T11:46:10Z</time>
</trkpt>
<trkpt lat="49.329992942512035" lon="7.967987945303321">
<ele>236.79999999999995</ele>
<time>2023-05-18T11:46:11Z</time>
</trkpt>
<trkpt lat="49.32995991781354" lon="7.968087941408157">
<ele>236.79999999999995</ele>
<time>2023-05-18T11:46:12Z</time>
</trkpt>
<trkpt lat="49.32992295362055" lon="7.968184920027852">
<ele>236.60000000000002</ele>
<time>2023-05-18T11:46:13Z</time>
</trkpt>
<trkpt lat="49.32987693697214" lon="7.968262955546379">
<ele>236.39999999999998</ele>
<time>2023-05-18T11:46:14Z</time>
</trkpt>
<trkpt lat="49.32983695529401" lon="7.9683499597013">
<ele>236.20000000000005</ele>
<time>2023-05-18T11:46:15Z</time>
</trkpt>
<trkpt lat="49.329797979444265" lon="7.968439981341362">
<ele>236</ele>
<time>2023-05-18T11:46:16Z</time>
</trkpt>
<trkpt lat="49.329754980280995" lon="7.968512987717986">
<ele>235.79999999999995</ele>
<time>2023-05-18T11:46:17Z</time>
</trkpt>
<trkpt lat="49.3297169264406" lon="7.9685979802161455">
<ele>235.60000000000002</ele>
<time>2023-05-18T11:46:18Z</time>
</trkpt>
<trkpt lat="49.329672921448946" lon="7.968677943572402">
<ele>235.39999999999998</ele>
<time>2023-05-18T11:46:19Z</time>
</trkpt>
<trkpt lat="49.32964199222624" lon="7.968764947727323">
<ele>235.20000000000005</ele>
<time>2023-05-18T11:46:20Z</time>
</trkpt>
<trkpt lat="49.3296199478209" lon="7.968856981024146">
<ele>235.20000000000005</ele>
<time>2023-05-18T11:46:21Z</time>
</trkpt>
<trkpt lat="49.329602932557464" lon="7.96892998740077">
<ele>235</ele>
<time>2023-05-18T11:46:22Z</time>
</trkpt>
<trkpt lat="49.329599998891354" lon="7.969009950757027">
<ele>234.79999999999995</ele>
<time>2023-05-18T11:46:23Z</time>
</trkpt>
<trkpt lat="49.32958792895079" lon="7.96910198405385">
<ele>234.79999999999995</ele>
<time>2023-05-18T11:46:24Z</time>
</trkpt>
<trkpt lat="49.32957694865763" lon="7.969204997643828">
<ele>234.60000000000002</ele>
<time>2023-05-18T11:46:25Z</time>
</trkpt>
<trkpt lat="49.3295649625361" lon="7.969314968213439">
<ele>234.60000000000002</ele>
<time>2023-05-18T11:46:26Z</time>
</trkpt>
<trkpt lat="49.32955792173743" lon="7.969421921297908">
<ele>234.39999999999998</ele>
<time>2023-05-18T11:46:27Z</time>
</trkpt>
<trkpt lat="49.32956798002124" lon="7.969521917402744">
<ele>234.39999999999998</ele>
<time>2023-05-18T11:46:28Z</time>
</trkpt>
<trkpt lat="49.329581977799535" lon="7.969612944871187">
<ele>234.39999999999998</ele>
<time>2023-05-18T11:46:29Z</time>
</trkpt>
<trkpt lat="49.32958792895079" lon="7.969706989824772">
<ele>234.39999999999998</ele>
<time>2023-05-18T11:46:30Z</time>
</trkpt>
<trkpt lat="49.32960997335613" lon="7.969799945130944">
<ele>234.20000000000005</ele>
<time>2023-05-18T11:46:31Z</time>
</trkpt>
<trkpt lat="49.32963696308434" lon="7.969881920143962">
<ele>234.20000000000005</ele>
<time>2023-05-18T11:46:32Z</time>
</trkpt>
<trkpt lat="49.32966194115579" lon="7.969956938177347">
<ele>234.20000000000005</ele>
<time>2023-05-18T11:46:33Z</time>
</trkpt>
<trkpt lat="49.32968499138951" lon="7.970036985352635">
<ele>234.20000000000005</ele>
<time>2023-05-18T11:46:34Z</time>
</trkpt>
<trkpt lat="49.329712986946106" lon="7.9701099917292595">
<ele>234</ele>
<time>2023-05-18T11:46:35Z</time>
</trkpt>
<trkpt lat="49.32974793948233" lon="7.970179980620742">
<ele>234</ele>
<time>2023-05-18T11:46:36Z</time>
</trkpt>
<trkpt lat="49.32978792116046" lon="7.970251981168985">
<ele>234</ele>
<time>2023-05-18T11:46:37Z</time>
</trkpt>
<trkpt lat="49.32983192615211" lon="7.9703249875456095">
<ele>234</ele>
<time>2023-05-18T11:46:38Z</time>
</trkpt>
<trkpt lat="49.32987299747765" lon="7.970387935638428">
<ele>234</ele>
<time>2023-05-18T11:46:39Z</time>
</trkpt>
<trkpt lat="49.32991691865027" lon="7.970452979207039">
<ele>234</ele>
<time>2023-05-18T11:46:40Z</time>
</trkpt>
<trkpt lat="49.32995798997581" lon="7.970517938956618">
<ele>234</ele>
<time>2023-05-18T11:46:41Z</time>
</trkpt>
<trkpt lat="49.33000794611871" lon="7.9705829825252295">
<ele>234</ele>
<time>2023-05-18T11:46:42Z</time>
</trkpt>
<trkpt lat="49.33006796054542" lon="7.970641991123557">
<ele>234</ele>
<time>2023-05-18T11:46:43Z</time>
</trkpt>
<trkpt lat="49.330122945830226" lon="7.970696976408362">
<ele>233.79999999999995</ele>
<time>2023-05-18T11:46:44Z</time>
</trkpt>
<trkpt lat="49.33018798939884" lon="7.970764953643084">
<ele>233.79999999999995</ele>
<time>2023-05-18T11:46:45Z</time>
</trkpt>
<trkpt lat="49.33023794554174" lon="7.970816921442747">
<ele>233.79999999999995</ele>
<time>2023-05-18T11:46:46Z</time>
</trkpt>
<trkpt lat="49.330291924998164" lon="7.970874924212694">
<ele>233.79999999999995</ele>
<time>2023-05-18T11:46:47Z</time>
</trkpt>
<trkpt lat="49.33035193942487" lon="7.970926975831389">
<ele>233.79999999999995</ele>
<time>2023-05-18T11:46:48Z</time>
</trkpt>
<trkpt lat="49.33041497133672" lon="7.970987996086478">
<ele>233.79999999999995</ele>
<time>2023-05-18T11:46:49Z</time>
</trkpt>
<trkpt lat="49.33047699742019" lon="7.971037952229381">
<ele>233.79999999999995</ele>
<time>2023-05-18T11:46:50Z</time>
</trkpt>
<trkpt lat="49.33053994551301" lon="7.97107994556427">
<ele>233.79999999999995</ele>
<time>2023-05-18T11:46:51Z</time>
</trkpt>
<trkpt lat="49.33059694245458" lon="7.97112294472754">
<ele>233.79999999999995</ele>
<time>2023-05-18T11:46:52Z</time>
</trkpt>
<trkpt lat="49.33065293356776" lon="7.971167955547571">
<ele>233.79999999999995</ele>
<time>2023-05-18T11:46:53Z</time>
</trkpt>
<trkpt lat="49.33071194216609" lon="7.9712149780243635">
<ele>233.79999999999995</ele>
<time>2023-05-18T11:46:54Z</time>
</trkpt>
<trkpt lat="49.3307719565928" lon="7.97125194221735">
<ele>233.79999999999995</ele>
<time>2023-05-18T11:46:55Z</time>
</trkpt>
<trkpt lat="49.33083297684789" lon="7.971274992451072">
<ele>233.79999999999995</ele>
<time>2023-05-18T11:46:56Z</time>
</trkpt>
<trkpt lat="49.330894919112325" lon="7.971311956644058">
<ele>233.79999999999995</ele>
<time>2023-05-18T11:46:57Z</time>
</trkpt>
<trkpt lat="49.3309619743377" lon="7.971352944150567">
<ele>233.79999999999995</ele>
<time>2023-05-18T11:46:58Z</time>
</trkpt>
<trkpt lat="49.331021988764405" lon="7.971381945535541">
<ele>233.79999999999995</ele>
<time>2023-05-18T11:46:59Z</time>
</trkpt>
<trkpt lat="49.33107496239245" lon="7.971426956355572">
<ele>233.79999999999995</ele>
<time>2023-05-18T11:47:00Z</time>
</trkpt>
<trkpt lat="49.33112299069762" lon="7.971501974388957">
<ele>233.79999999999995</ele>
<time>2023-05-18T11:47:01Z</time>
</trkpt>
<trkpt lat="49.33116498403251" lon="7.971571963280439">
<ele>233.79999999999995</ele>
<time>2023-05-18T11:47:02Z</time>
</trkpt>
<trkpt lat="49.33119993656874" lon="7.971642958000302">
<ele>233.60000000000002</ele>
<time>2023-05-18T11:47:03Z</time>
</trkpt>
<trkpt lat="49.33123296126723" lon="7.971729962155223">
<ele>233.60000000000002</ele>
<time>2023-05-18T11:47:04Z</time>
</trkpt>
<trkpt lat="49.33126296848059" lon="7.971817972138524">
<ele>233.60000000000002</ele>
<time>2023-05-18T11:47:05Z</time>
</trkpt>
<trkpt lat="49.3312899582088" lon="7.971906987950206">
<ele>233.60000000000002</ele>
<time>2023-05-18T11:47:06Z</time>
</trkpt>
<trkpt lat="49.331327928230166" lon="7.972009917721152">
<ele>233.60000000000002</ele>
<time>2023-05-18T11:47:07Z</time>
</trkpt>
<trkpt lat="49.33136195875704" lon="7.9720979277044535">
<ele>233.60000000000002</ele>
<time>2023-05-18T11:47:08Z</time>
</trkpt>
<trkpt lat="49.3313919659704" lon="7.972181998193264">
<ele>233.60000000000002</ele>
<time>2023-05-18T11:47:09Z</time>
</trkpt>
<trkpt lat="49.33141694404185" lon="7.9722699243575335">
<ele>233.60000000000002</ele>
<time>2023-05-18T11:47:10Z</time>
</trkpt>
<trkpt lat="49.33143798261881" lon="7.972342930734158">
<ele>233.60000000000002</ele>
<time>2023-05-18T11:47:11Z</time>
</trkpt>
<trkpt lat="49.33146991766989" lon="7.97241291962564">
<ele>233.60000000000002</ele>
<time>2023-05-18T11:47:12Z</time>
</trkpt>
<trkpt lat="49.33150495402515" lon="7.972489949315786">
<ele>233.60000000000002</ele>
<time>2023-05-18T11:47:13Z</time>
</trkpt>
<trkpt lat="49.3315349612385" lon="7.972569996491075">
<ele>233.60000000000002</ele>
<time>2023-05-18T11:47:14Z</time>
</trkpt>
<trkpt lat="49.331567985937" lon="7.972644930705428">
<ele>233.60000000000002</ele>
<time>2023-05-18T11:47:15Z</time>
</trkpt>
<trkpt lat="49.33159799315035" lon="7.972724977880716">
<ele>233.60000000000002</ele>
<time>2023-05-18T11:47:16Z</time>
</trkpt>
<trkpt lat="49.331622971221805" lon="7.97281994484365">
<ele>233.60000000000002</ele>
<time>2023-05-18T11:47:17Z</time>
</trkpt>
<trkpt lat="49.33165499009192" lon="7.972907954826951">
<ele>233.39999999999998</ele>
<time>2023-05-18T11:47:18Z</time>
</trkpt>
<trkpt lat="49.331689942628145" lon="7.9729879181832075">
<ele>233.39999999999998</ele>
<time>2023-05-18T11:47:19Z</time>
</trkpt>
<trkpt lat="49.33172196149826" lon="7.97307793982327">
<ele>233.39999999999998</ele>
<time>2023-05-18T11:47:20Z</time>
</trkpt>
<trkpt lat="49.331751968711615" lon="7.973162932321429">
<ele>233.39999999999998</ele>
<time>2023-05-18T11:47:21Z</time>
</trkpt>
<trkpt lat="49.33178298175335" lon="7.9732579831033945">
<ele>233.39999999999998</ele>
<time>2023-05-18T11:47:22Z</time>
</trkpt>
<trkpt lat="49.33181491680443" lon="7.973341969773173">
<ele>233.39999999999998</ele>
<time>2023-05-18T11:47:23Z</time>
</trkpt>
<trkpt lat="49.33185196481645" lon="7.973424950614572">
<ele>233.39999999999998</ele>
<time>2023-05-18T11:47:24Z</time>
</trkpt>
<trkpt lat="49.33189295232296" lon="7.97350499778986">
<ele>233.39999999999998</ele>
<time>2023-05-18T11:47:25Z</time>
</trkpt>
<trkpt lat="49.331929916515946" lon="7.97359493561089">
<ele>233.39999999999998</ele>
<time>2023-05-18T11:47:26Z</time>
</trkpt>
<trkpt lat="49.33197299949825" lon="7.973672971129417">
<ele>233.39999999999998</ele>
<time>2023-05-18T11:47:27Z</time>
</trkpt>
<trkpt lat="49.332012981176376" lon="7.973749917000532">
<ele>233.39999999999998</ele>
<time>2023-05-18T11:47:28Z</time>
</trkpt>
<trkpt lat="49.332054974511266" lon="7.9738169722259045">
<ele>233.39999999999998</ele>
<time>2023-05-18T11:47:29Z</time>
</trkpt>
<trkpt lat="49.332094956189394" lon="7.973886961117387">
<ele>233.39999999999998</ele>
<time>2023-05-18T11:47:30Z</time>
</trkpt>
<trkpt lat="49.332137955352664" lon="7.973954938352108">
<ele>233.20000000000005</ele>
<time>2023-05-18T11:47:31Z</time>
</trkpt>
<trkpt lat="49.332184977829456" lon="7.974009923636913">
<ele>233.20000000000005</ele>
<time>2023-05-18T11:47:32Z</time>
</trkpt>
<trkpt lat="49.33223694562912" lon="7.974059963598847">
<ele>233.20000000000005</ele>
<time>2023-05-18T11:47:33Z</time>
</trkpt>
<trkpt lat="49.33228497393429" lon="7.974116960540414">
<ele>233.20000000000005</ele>
<time>2023-05-18T11:47:34Z</time>
</trkpt>
<trkpt lat="49.332332918420434" lon="7.974176974967122">
<ele>233.20000000000005</ele>
<time>2023-05-18T11:47:35Z</time>
</trkpt>
<trkpt lat="49.33238295838237" lon="7.97423698939383">
<ele>233.20000000000005</ele>
<time>2023-05-18T11:47:36Z</time>
</trkpt>
<trkpt lat="49.33243794366717" lon="7.9742769710719585">
<ele>233</ele>
<time>2023-05-18T11:47:37Z</time>
</trkpt>
<trkpt lat="49.3324969522655" lon="7.9743129294365644">
<ele>233</ele>
<time>2023-05-18T11:47:38Z</time>
</trkpt>
<trkpt lat="49.33255495503545" lon="7.974342936649919">
<ele>233</ele>
<time>2023-05-18T11:47:39Z</time>
</trkpt>
<trkpt lat="49.33260792866349" lon="7.974376967176795">
<ele>232.79999999999995</ele>
<time>2023-05-18T11:47:40Z</time>
</trkpt>
<trkpt lat="49.33266199193895" lon="7.974402951076627">
<ele>232.79999999999995</ele>
<time>2023-05-18T11:47:41Z</time>
</trkpt>
<trkpt lat="49.332717983052135" lon="7.974422983825207">
<ele>232.60000000000002</ele>
<time>2023-05-18T11:47:42Z</time>
</trkpt>
<trkpt lat="49.33277196250856" lon="7.974444944411516">
<ele>232.60000000000002</ele>
<time>2023-05-18T11:47:43Z</time>
</trkpt>
<trkpt lat="49.33283298276365" lon="7.974467994645238">
<ele>232.39999999999998</ele>
<time>2023-05-18T11:47:44Z</time>
</trkpt>
<trkpt lat="49.33289794251323" lon="7.974492972716689">
<ele>232.20000000000005</ele>
<time>2023-05-18T11:47:45Z</time>
</trkpt>
<trkpt lat="49.332957956939936" lon="7.974526919424534">
<ele>232.20000000000005</ele>
<time>2023-05-18T11:47:46Z</time>
</trkpt>
<trkpt lat="49.3330149538815" lon="7.97455994412303">
<ele>232</ele>
<time>2023-05-18T11:47:47Z</time>
</trkpt>
<trkpt lat="49.33307697996497" lon="7.974596992135048">
<ele>232</ele>
<time>2023-05-18T11:47:48Z</time>
</trkpt>
<trkpt lat="49.33313498273492" lon="7.974631944671273">
<ele>231.79999999999995</ele>
<time>2023-05-18T11:47:49Z</time>
</trkpt>
<trkpt lat="49.333191979676485" lon="7.974676955491304">
<ele>231.60000000000002</ele>
<time>2023-05-18T11:47:50Z</time>
</trkpt>
<trkpt lat="49.33324696496129" lon="7.97473294660449">
<ele>231.39999999999998</ele>
<time>2023-05-18T11:47:51Z</time>
</trkpt>
<trkpt lat="49.33330496773124" lon="7.974787931889296">
<ele>231.20000000000005</ele>
<time>2023-05-18T11:47:52Z</time>
</trkpt>
<trkpt lat="49.33336799964309" lon="7.974831936880946">
<ele>231</ele>
<time>2023-05-18T11:47:53Z</time>
</trkpt>
<trkpt lat="49.33343497104943" lon="7.974879965186119">
<ele>231</ele>
<time>2023-05-18T11:47:54Z</time>
</trkpt>
<trkpt lat="49.33348995633423" lon="7.974939979612827">
<ele>230.79999999999995</ele>
<time>2023-05-18T11:47:55Z</time>
</trkpt>
<trkpt lat="49.33354997076094" lon="7.975002927705646">
<ele>230.60000000000002</ele>
<time>2023-05-18T11:47:56Z</time>
</trkpt>
<trkpt lat="49.333599926903844" lon="7.97505296766758">
<ele>230.60000000000002</ele>
<time>2023-05-18T11:47:57Z</time>
</trkpt>
<trkpt lat="49.33365197852254" lon="7.975109964609146">
<ele>230.60000000000002</ele>
<time>2023-05-18T11:47:58Z</time>
</trkpt>
<trkpt lat="49.33370193466544" lon="7.975167967379093">
<ele>230.60000000000002</ele>
<time>2023-05-18T11:47:59Z</time>
</trkpt>
<trkpt lat="49.333749962970614" lon="7.975227981805801">
<ele>230.39999999999998</ele>
<time>2023-05-18T11:48:00Z</time>
</trkpt>
<trkpt lat="49.333794973790646" lon="7.975289924070239">
<ele>230.39999999999998</ele>
<time>2023-05-18T11:48:01Z</time>
</trkpt>
<trkpt lat="49.333837972953916" lon="7.975359996780753">
<ele>230.39999999999998</ele>
<time>2023-05-18T11:48:02Z</time>
</trkpt>
<trkpt lat="49.333877954632044" lon="7.9754379484802485">
<ele>230.39999999999998</ele>
<time>2023-05-18T11:48:03Z</time>
</trkpt>
<trkpt lat="49.33390997350216" lon="7.975521935150027">
<ele>230.39999999999998</ele>
<time>2023-05-18T11:48:04Z</time>
</trkpt>
<trkpt lat="49.33393495157361" lon="7.97561296261847">
<ele>230.20000000000005</ele>
<time>2023-05-18T11:48:05Z</time>
</trkpt>
<trkpt lat="49.33395498432219" lon="7.975709941238165">
<ele>230.20000000000005</ele>
<time>2023-05-18T11:48:06Z</time>
</trkpt>
<trkpt lat="49.333967976272106" lon="7.9758119489997625">
<ele>230.20000000000005</ele>
<time>2023-05-18T11:48:07Z</time>
</trkpt>
<trkpt lat="49.33397795073688" lon="7.975914962589741">
<ele>230</ele>
<time>2023-05-18T11:48:08Z</time>
</trkpt>
<trkpt lat="49.333989936858416" lon="7.976021999493241">
<ele>230</ele>
<time>2023-05-18T11:48:09Z</time>
</trkpt>
<trkpt lat="49.33399999514222" lon="7.97612794674933">
<ele>229.79999999999995</ele>
<time>2023-05-18T11:48:10Z</time>
</trkpt>
<trkpt lat="49.33401198126376" lon="7.97623498365283">
<ele>229.60000000000002</ele>
<time>2023-05-18T11:48:11Z</time>
</trkpt>
<trkpt lat="49.33402296155691" lon="7.976341936737299">
<ele>229.39999999999998</ele>
<time>2023-05-18T11:48:12Z</time>
</trkpt>
<trkpt lat="49.334031930193305" lon="7.976446961984038">
<ele>229.20000000000005</ele>
<time>2023-05-18T11:48:13Z</time>
</trkpt>
<trkpt lat="49.33404198847711" lon="7.976551987230778">
<ele>229</ele>
<time>2023-05-18T11:48:14Z</time>
</trkpt>
<trkpt lat="49.33405799791217" lon="7.976654917001724">
<ele>228.79999999999995</ele>
<time>2023-05-18T11:48:15Z</time>
</trkpt>
<trkpt lat="49.334072917699814" lon="7.976759942248464">
<ele>228.60000000000002</ele>
<time>2023-05-18T11:48:16Z</time>
</trkpt>
<trkpt lat="49.33408792130649" lon="7.976867984980345">
<ele>228.39999999999998</ele>
<time>2023-05-18T11:48:17Z</time>
</trkpt>
<trkpt lat="49.33409999124706" lon="7.976977955549955">
<ele>228.20000000000005</ele>
<time>2023-05-18T11:48:18Z</time>
</trkpt>
<trkpt lat="49.33410493656993" lon="7.977084992453456">
<ele>228</ele>
<time>2023-05-18T11:48:19Z</time>
</trkpt>
<trkpt lat="49.33410191908479" lon="7.977192951366305">
<ele>227.79999999999995</ele>
<time>2023-05-18T11:48:20Z</time>
</trkpt>
<trkpt lat="49.33410292491317" lon="7.977301999926567">
<ele>227.60000000000002</ele>
<time>2023-05-18T11:48:21Z</time>
</trkpt>
<trkpt lat="49.3340979795903" lon="7.977407947182655">
<ele>227.39999999999998</ele>
<time>2023-05-18T11:48:22Z</time>
</trkpt>
<trkpt lat="49.33409194462001" lon="7.977517917752266">
<ele>227.20000000000005</ele>
<time>2023-05-18T11:48:23Z</time>
</trkpt>
<trkpt lat="49.33408197015524" lon="7.977621937170625">
<ele>227.20000000000005</ele>
<time>2023-05-18T11:48:24Z</time>
</trkpt>
<trkpt lat="49.33406797237694" lon="7.977727968245745">
<ele>227</ele>
<time>2023-05-18T11:48:25Z</time>
</trkpt>
<trkpt lat="49.334052968770266" lon="7.977841962128878">
<ele>227</ele>
<time>2023-05-18T11:48:26Z</time>
</trkpt>
<trkpt lat="49.33403796516359" lon="7.977951932698488">
<ele>227</ele>
<time>2023-05-18T11:48:27Z</time>
</trkpt>
<trkpt lat="49.33402497321367" lon="7.978062992915511">
<ele>226.79999999999995</ele>
<time>2023-05-18T11:48:28Z</time>
</trkpt>
<trkpt lat="49.334006952121854" lon="7.978171957656741">
<ele>226.79999999999995</ele>
<time>2023-05-18T11:48:29Z</time>
</trkpt>
<trkpt lat="49.33399496600032" lon="7.978279916569591">
<ele>226.79999999999995</ele>
<time>2023-05-18T11:48:30Z</time>
</trkpt>
<trkpt lat="49.333986919373274" lon="7.978392988443375">
<ele>226.60000000000002</ele>
<time>2023-05-18T11:48:31Z</time>
</trkpt>
<trkpt lat="49.3339819740504" lon="7.978504970669746">
<ele>226.60000000000002</ele>
<time>2023-05-18T11:48:32Z</time>
</trkpt>
<trkpt lat="49.33397199958563" lon="7.978629944846034">
<ele>226.39999999999998</ele>
<time>2023-05-18T11:48:33Z</time>
</trkpt>
<trkpt lat="49.3339579179883" lon="7.978751985356212">
<ele>226.39999999999998</ele>
<time>2023-05-18T11:48:34Z</time>
</trkpt>
<trkpt lat="49.333941992372274" lon="7.978867990896106">
<ele>226.20000000000005</ele>
<time>2023-05-18T11:48:35Z</time>
</trkpt>
<trkpt lat="49.33392799459398" lon="7.978984918445349">
<ele>226.20000000000005</ele>
<time>2023-05-18T11:48:36Z</time>
</trkpt>
<trkpt lat="49.33391994796693" lon="7.979097990319133">
<ele>226</ele>
<time>2023-05-18T11:48:37Z</time>
</trkpt>
<trkpt lat="49.33391491882503" lon="7.97920192591846">
<ele>226</ele>
<time>2023-05-18T11:48:38Z</time>
</trkpt>
<trkpt lat="49.333902932703495" lon="7.979314997792244">
<ele>225.79999999999995</ele>
<time>2023-05-18T11:48:39Z</time>
</trkpt>
<trkpt lat="49.333899999037385" lon="7.979422956705093">
<ele>225.79999999999995</ele>
<time>2023-05-18T11:48:40Z</time>
</trkpt>
<trkpt lat="49.33389195241034" lon="7.97954298555851">
<ele>225.60000000000002</ele>
<time>2023-05-18T11:48:41Z</time>
</trkpt>
<trkpt lat="49.33388298377395" lon="7.979657985270023">
<ele>225.60000000000002</ele>
<time>2023-05-18T11:48:42Z</time>
</trkpt>
<trkpt lat="49.333877954632044" lon="7.979771979153156">
<ele>225.39999999999998</ele>
<time>2023-05-18T11:48:43Z</time>
</trkpt>
<trkpt lat="49.3338749371469" lon="7.979881949722767">
<ele>225.39999999999998</ele>
<time>2023-05-18T11:48:44Z</time>
</trkpt>
<trkpt lat="49.33386999182403" lon="7.979979934170842">
<ele>225.20000000000005</ele>
<time>2023-05-18T11:48:45Z</time>
</trkpt>
<trkpt lat="49.333877954632044" lon="7.980072973296046">
<ele>225.20000000000005</ele>
<time>2023-05-18T11:48:46Z</time>
</trkpt>
<trkpt lat="49.33388792909682" lon="7.980171963572502">
<ele>225.20000000000005</ele>
<time>2023-05-18T11:48:47Z</time>
</trkpt>
<trkpt lat="49.3339079618454" lon="7.980269948020577">
<ele>225</ele>
<time>2023-05-18T11:48:48Z</time>
</trkpt>
<trkpt lat="49.33393696323037" lon="7.9803629871457815">
<ele>225</ele>
<time>2023-05-18T11:48:49Z</time>
</trkpt>
<trkpt lat="49.33397493325174" lon="7.9804519191384315">
<ele>224.79999999999995</ele>
<time>2023-05-18T11:48:50Z</time>
</trkpt>
<trkpt lat="49.33401793241501" lon="7.9805329721421">
<ele>224.79999999999995</ele>
<time>2023-05-18T11:48:51Z</time>
</trkpt>
<trkpt lat="49.33406696654856" lon="7.98059793189168">
<ele>224.60000000000002</ele>
<time>2023-05-18T11:48:52Z</time>
</trkpt>
<trkpt lat="49.33412798680365" lon="7.980649983510375">
<ele>224.60000000000002</ele>
<time>2023-05-18T11:48:53Z</time>
</trkpt>
<trkpt lat="49.33419194072485" lon="7.980694994330406">
<ele>224.39999999999998</ele>
<time>2023-05-18T11:48:54Z</time>
</trkpt>
<trkpt lat="49.334247931838036" lon="7.98072793520987">
<ele>224.20000000000005</ele>
<time>2023-05-18T11:48:55Z</time>
</trkpt>
<trkpt lat="49.334309957921505" lon="7.980751991271973">
<ele>224</ele>
<time>2023-05-18T11:48:56Z</time>
</trkpt>
<trkpt lat="49.334372989833355" lon="7.98076992854476">
<ele>224</ele>
<time>2023-05-18T11:48:57Z</time>
</trkpt>
<trkpt lat="49.33444197289646" lon="7.980784932151437">
<ele>223.79999999999995</ele>
<time>2023-05-18T11:48:58Z</time>
</trkpt>
<trkpt lat="49.334506932646036" lon="7.980799935758114">
<ele>223.60000000000002</ele>
<time>2023-05-18T11:48:59Z</time>
</trkpt>
<trkpt lat="49.33457197621465" lon="7.98081292770803">
<ele>223.39999999999998</ele>
<time>2023-05-18T11:49:00Z</time>
</trkpt>
<trkpt lat="49.334632996469736" lon="7.980821980163455">
<ele>223.39999999999998</ele>
<time>2023-05-18T11:49:01Z</time>
</trkpt>
<trkpt lat="49.33469292707741" lon="7.98083296045661">
<ele>223.20000000000005</ele>
<time>2023-05-18T11:49:02Z</time>
</trkpt>
<trkpt lat="49.33474699035287" lon="7.980839917436242">
<ele>223.20000000000005</ele>
<time>2023-05-18T11:49:03Z</time>
</trkpt>
<trkpt lat="49.33479694649577" lon="7.980846958234906">
<ele>223</ele>
<time>2023-05-18T11:49:04Z</time>
</trkpt>
<trkpt lat="49.334846986457705" lon="7.980849975720048">
<ele>223</ele>
<time>2023-05-18T11:49:05Z</time>
</trkpt>
<trkpt lat="49.33489493094385" lon="7.98085299320519">
<ele>223</ele>
<time>2023-05-18T11:49:06Z</time>
</trkpt>
<trkpt lat="49.33493994176388" lon="7.980854921042919">
<ele>223</ele>
<time>2023-05-18T11:49:07Z</time>
</trkpt>
<trkpt lat="49.33498193509877" lon="7.980854921042919">
<ele>222.79999999999995</ele>
<time>2023-05-18T11:49:08Z</time>
</trkpt>
<trkpt lat="49.335021916776896" lon="7.980851987376809">
<ele>222.60000000000002</ele>
<time>2023-05-18T11:49:09Z</time>
</trkpt>
<trkpt lat="49.335061982274055" lon="7.980846958234906">
<ele>222.60000000000002</ele>
<time>2023-05-18T11:49:10Z</time>
</trkpt>
<trkpt lat="49.335101963952184" lon="7.980834972113371">
<ele>222.60000000000002</ele>
<time>2023-05-18T11:49:11Z</time>
</trkpt>
<trkpt lat="49.33514295145869" lon="7.980811921879649">
<ele>222.39999999999998</ele>
<time>2023-05-18T11:49:12Z</time>
</trkpt>
<trkpt lat="49.33518293313682" lon="7.980779986828566">
<ele>222.39999999999998</ele>
<time>2023-05-18T11:49:13Z</time>
</trkpt>
<trkpt lat="49.33521796949208" lon="7.980744950473309">
<ele>222.20000000000005</ele>
<time>2023-05-18T11:49:14Z</time>
</trkpt>
<trkpt lat="49.33525191619992" lon="7.980719972401857">
<ele>222.20000000000005</ele>
<time>2023-05-18T11:49:15Z</time>
</trkpt>
<trkpt lat="49.33529298752546" lon="7.980691976845264">
<ele>222.20000000000005</ele>
<time>2023-05-18T11:49:16Z</time>
</trkpt>
<trkpt lat="49.33533498086035" lon="7.9806719440966845">
<ele>222.20000000000005</ele>
<time>2023-05-18T11:49:17Z</time>
</trkpt>
<trkpt lat="49.335386948660016" lon="7.980634979903698">
<ele>222</ele>
<time>2023-05-18T11:49:18Z</time>
</trkpt>
<trkpt lat="49.33543698862195" lon="7.980609918013215">
<ele>222</ele>
<time>2023-05-18T11:49:19Z</time>
</trkpt>
<trkpt lat="49.33548795059323" lon="7.98059793189168">
<ele>221.79999999999995</ele>
<time>2023-05-18T11:49:20Z</time>
</trkpt>
<trkpt lat="49.33554193004966" lon="7.980576977133751">
<ele>221.79999999999995</ele>
<time>2023-05-18T11:49:21Z</time>
</trkpt>
<trkpt lat="49.33559297583997" lon="7.980566918849945">
<ele>221.60000000000002</ele>
<time>2023-05-18T11:49:22Z</time>
</trkpt>
<trkpt lat="49.33564997278154" lon="7.980566918849945">
<ele>221.60000000000002</ele>
<time>2023-05-18T11:49:23Z</time>
</trkpt>
<trkpt lat="49.33570998720825" lon="7.9805779829621315">
<ele>221.39999999999998</ele>
<time>2023-05-18T11:49:24Z</time>
</trkpt>
<trkpt lat="49.335766984149814" lon="7.980601955205202">
<ele>221.39999999999998</ele>
<time>2023-05-18T11:49:25Z</time>
</trkpt>
<trkpt lat="49.33582699857652" lon="7.980622993782163">
<ele>221.20000000000005</ele>
<time>2023-05-18T11:49:26Z</time>
</trkpt>
<trkpt lat="49.33588994666934" lon="7.980651995167136">
<ele>221.20000000000005</ele>
<time>2023-05-18T11:49:27Z</time>
</trkpt>
<trkpt lat="49.335944931954145" lon="7.980696922168136">
<ele>221.20000000000005</ele>
<time>2023-05-18T11:49:28Z</time>
</trkpt>
<trkpt lat="49.33599698357284" lon="7.980736987665296">
<ele>221</ele>
<time>2023-05-18T11:49:29Z</time>
</trkpt>
<trkpt lat="49.336051968857646" lon="7.980794990435243">
<ele>221</ele>
<time>2023-05-18T11:49:30Z</time>
</trkpt>
<trkpt lat="49.33610695414245" lon="7.980861961841583">
<ele>220.79999999999995</ele>
<time>2023-05-18T11:49:31Z</time>
</trkpt>
<trkpt lat="49.33616294525564" lon="7.980929939076304">
<ele>220.79999999999995</ele>
<time>2023-05-18T11:49:32Z</time>
</trkpt>
<trkpt lat="49.33621499687433" lon="7.980997916311026">
<ele>220.60000000000002</ele>
<time>2023-05-18T11:49:33Z</time>
</trkpt>
<trkpt lat="49.33626797050238" lon="7.981059942394495">
<ele>220.60000000000002</ele>
<time>2023-05-18T11:49:34Z</time>
</trkpt>
<trkpt lat="49.33631792664528" lon="7.981106964871287">
<ele>220.60000000000002</ele>
<time>2023-05-18T11:49:35Z</time>
</trkpt>
<trkpt lat="49.33636494912207" lon="7.98115692101419">
<ele>220.39999999999998</ele>
<time>2023-05-18T11:49:36Z</time>
</trkpt>
<trkpt lat="49.336414989084005" lon="7.98121995292604">
<ele>220.39999999999998</ele>
<time>2023-05-18T11:49:37Z</time>
</trkpt>
<trkpt lat="49.33646695688367" lon="7.98128692433238">
<ele>220.39999999999998</ele>
<time>2023-05-18T11:49:38Z</time>
</trkpt>
<trkpt lat="49.3365119677037" lon="7.981347944587469">
<ele>220.39999999999998</ele>
<time>2023-05-18T11:49:39Z</time>
</trkpt>
<trkpt lat="49.336564941331744" lon="7.98141298815608">
<ele>220.39999999999998</ele>
<time>2023-05-18T11:49:40Z</time>
</trkpt>
<trkpt lat="49.33661992661655" lon="7.981472918763757">
<ele>220.20000000000005</ele>
<time>2023-05-18T11:49:41Z</time>
</trkpt>
<trkpt lat="49.33667499572039" lon="7.981532933190465">
<ele>220.20000000000005</ele>
<time>2023-05-18T11:49:42Z</time>
</trkpt>
<trkpt lat="49.33672998100519" lon="7.98158498480916">
<ele>220.20000000000005</ele>
<time>2023-05-18T11:49:43Z</time>
</trkpt>
<trkpt lat="49.33678697794676" lon="7.981632929295301">
<ele>220.20000000000005</ele>
<time>2023-05-18T11:49:44Z</time>
</trkpt>
<trkpt lat="49.33684699237347" lon="7.98166997730732">
<ele>220.20000000000005</ele>
<time>2023-05-18T11:49:45Z</time>
</trkpt>
<trkpt lat="49.336909940466285" lon="7.981707947328687">
<ele>220.20000000000005</ele>
<time>2023-05-18T11:49:46Z</time>
</trkpt>
<trkpt lat="49.336974984034896" lon="7.98173694871366">
<ele>220</ele>
<time>2023-05-18T11:49:47Z</time>
</trkpt>
<trkpt lat="49.337037932127714" lon="7.981751952320337">
<ele>220</ele>
<time>2023-05-18T11:49:48Z</time>
</trkpt>
<trkpt lat="49.337102975696325" lon="7.981772990897298">
<ele>220</ele>
<time>2023-05-18T11:49:49Z</time>
</trkpt>
<trkpt lat="49.33717195875943" lon="7.9817919339984655">
<ele>220</ele>
<time>2023-05-18T11:49:50Z</time>
</trkpt>
<trkpt lat="49.337232979014516" lon="7.981809955090284">
<ele>220</ele>
<time>2023-05-18T11:49:51Z</time>
</trkpt>
<trkpt lat="49.33729492127895" lon="7.981817917898297">
<ele>220</ele>
<time>2023-05-18T11:49:52Z</time>
</trkpt>
<trkpt lat="49.337359964847565" lon="7.9818319994956255">
<ele>220</ele>
<time>2023-05-18T11:49:53Z</time>
</trkpt>
<trkpt lat="49.33741997927427" lon="7.981852954253554">
<ele>219.79999999999995</ele>
<time>2023-05-18T11:49:54Z</time>
</trkpt>
<trkpt lat="49.33747999370098" lon="7.9818629287183285">
<ele>219.79999999999995</ele>
<time>2023-05-18T11:49:55Z</time>
</trkpt>
<trkpt lat="49.33753799647093" lon="7.981869969516993">
<ele>219.60000000000002</ele>
<time>2023-05-18T11:49:56Z</time>
</trkpt>
<trkpt lat="49.33760195039213" lon="7.98188497312367">
<ele>219.60000000000002</ele>
<time>2023-05-18T11:49:57Z</time>
</trkpt>
<trkpt lat="49.33765794150531" lon="7.981902994215488">
<ele>219.60000000000002</ele>
<time>2023-05-18T11:49:58Z</time>
</trkpt>
<trkpt lat="49.33771292679012" lon="7.981921937316656">
<ele>219.60000000000002</ele>
<time>2023-05-18T11:49:59Z</time>
</trkpt>
<trkpt lat="49.33775793761015" lon="7.981952950358391">
<ele>219.60000000000002</ele>
<time>2023-05-18T11:50:00Z</time>
</trkpt>
<trkpt lat="49.33780294843018" lon="7.981984969228506">
<ele>219.60000000000002</ele>
<time>2023-05-18T11:50:01Z</time>
</trkpt>
<trkpt lat="49.337854916229844" lon="7.98201497644186">
<ele>219.60000000000002</ele>
<time>2023-05-18T11:50:02Z</time>
</trkpt>
<trkpt lat="49.337919959798455" lon="7.982016988098621">
<ele>219.60000000000002</ele>
<time>2023-05-18T11:50:03Z</time>
</trkpt>
<trkpt lat="49.337987937033176" lon="7.982017993927002">
<ele>219.39999999999998</ele>
<time>2023-05-18T11:50:04Z</time>
</trkpt>
<trkpt lat="49.33804493397474" lon="7.982022939249873">
<ele>219.39999999999998</ele>
<time>2023-05-18T11:50:05Z</time>
</trkpt>
<trkpt lat="49.33809799142182" lon="7.98201497644186">
<ele>219.39999999999998</ele>
<time>2023-05-18T11:50:06Z</time>
</trkpt>
<trkpt lat="49.33814199641347" lon="7.982007935643196">
<ele>219.39999999999998</ele>
<time>2023-05-18T11:50:07Z</time>
</trkpt>
<trkpt lat="49.338202932849526" lon="7.98199494369328">
<ele>219.20000000000005</ele>
<time>2023-05-18T11:50:08Z</time>
</trkpt>
<trkpt lat="49.338261941447854" lon="7.981981951743364">
<ele>219.20000000000005</ele>
<time>2023-05-18T11:50:09Z</time>
</trkpt>
<trkpt lat="49.33832296170294" lon="7.98195194453001">
<ele>219.20000000000005</ele>
<time>2023-05-18T11:50:10Z</time>
</trkpt>
<trkpt lat="49.33838498778641" lon="7.981922943145037">
<ele>219.20000000000005</ele>
<time>2023-05-18T11:50:11Z</time>
</trkpt>
<trkpt lat="49.33844693005085" lon="7.981902994215488">
<ele>219</ele>
<time>2023-05-18T11:50:12Z</time>
</trkpt>
<trkpt lat="49.3385049328208" lon="7.981901988387108">
<ele>219</ele>
<time>2023-05-18T11:50:13Z</time>
</trkpt>
<trkpt lat="49.3385599181056" lon="7.98190793953836">
<ele>219</ele>
<time>2023-05-18T11:50:14Z</time>
</trkpt>
<trkpt lat="49.33861792087555" lon="7.981857983395457">
<ele>218.79999999999995</ele>
<time>2023-05-18T11:50:15Z</time>
</trkpt>
<trkpt lat="49.338674917817116" lon="7.98182194121182">
<ele>218.79999999999995</ele>
<time>2023-05-18T11:50:16Z</time>
</trkpt>
<trkpt lat="49.33872495777905" lon="7.981774918735027">
<ele>218.79999999999995</ele>
<time>2023-05-18T11:50:17Z</time>
</trkpt>
<trkpt lat="49.33876695111394" lon="7.981732925400138">
<ele>218.79999999999995</ele>
<time>2023-05-18T11:50:18Z</time>
</trkpt>
<trkpt lat="49.33880693279207" lon="7.981684980913997">
<ele>218.79999999999995</ele>
<time>2023-05-18T11:50:19Z</time>
</trkpt>
<trkpt lat="49.338844986632466" lon="7.98162697814405">
<ele>218.79999999999995</ele>
<time>2023-05-18T11:50:20Z</time>
</trkpt>
<trkpt lat="49.33887792751193" lon="7.9815769381821156">
<ele>218.60000000000002</ele>
<time>2023-05-18T11:50:21Z</time>
</trkpt>
<trkpt lat="49.33891195803881" lon="7.981512984260917">
<ele>218.60000000000002</ele>
<time>2023-05-18T11:50:22Z</time>
</trkpt>
<trkpt lat="49.338929979130626" lon="7.981491945683956">
<ele>218.60000000000002</ele>
<time>2023-05-18T11:50:23Z</time>
</trkpt>
<trkpt lat="49.33896694332361" lon="7.98143494874239">
<ele>218.60000000000002</ele>
<time>2023-05-18T11:50:24Z</time>
</trkpt>
<trkpt lat="49.338992927223444" lon="7.981356997042894">
<ele>218.39999999999998</ele>
<time>2023-05-18T11:50:25Z</time>
</trkpt>
<trkpt lat="49.3390229344368" lon="7.981279967352748">
<ele>218.39999999999998</ele>
<time>2023-05-18T11:50:26Z</time>
</trkpt>
<trkpt lat="49.339056964963675" lon="7.9812029376626015">
<ele>218.39999999999998</ele>
<time>2023-05-18T11:50:27Z</time>
</trkpt>
<trkpt lat="49.33908496052027" lon="7.981139989569783">
<ele>218.20000000000005</ele>
<time>2023-05-18T11:50:28Z</time>
</trkpt>
<trkpt lat="49.33911496773362" lon="7.981082992628217">
<ele>218.20000000000005</ele>
<time>2023-05-18T11:50:29Z</time>
</trkpt>
<trkpt lat="49.33913491666317" lon="7.981017949059606">
<ele>218.20000000000005</ele>
<time>2023-05-18T11:50:30Z</time>
</trkpt>
<trkpt lat="49.339166935533285" lon="7.980954917147756">
<ele>218.20000000000005</ele>
<time>2023-05-18T11:50:31Z</time>
</trkpt>
<trkpt lat="49.33919694274664" lon="7.980897920206189">
<ele>218</ele>
<time>2023-05-18T11:50:32Z</time>
</trkpt>
<trkpt lat="49.33923499658704" lon="7.980842934921384">
<ele>218</ele>
<time>2023-05-18T11:50:33Z</time>
</trkpt>
<trkpt lat="49.339271960780025" lon="7.980804964900017">
<ele>218</ele>
<time>2023-05-18T11:50:34Z</time>
</trkpt>
<trkpt lat="49.339316971600056" lon="7.98076699487865">
<ele>217.79999999999995</ele>
<time>2023-05-18T11:50:35Z</time>
</trkpt>
<trkpt lat="49.339357959106565" lon="7.980734976008534">
<ele>217.79999999999995</ele>
<time>2023-05-18T11:50:36Z</time>
</trkpt>
<trkpt lat="49.33940498158336" lon="7.98070496879518">
<ele>217.60000000000002</ele>
<time>2023-05-18T11:50:37Z</time>
</trkpt>
<trkpt lat="49.339462984353304" lon="7.980674961581826">
<ele>217.60000000000002</ele>
<time>2023-05-18T11:50:38Z</time>
</trkpt>
<trkpt lat="49.33951696380973" lon="7.980656940490007">
<ele>217.39999999999998</ele>
<time>2023-05-18T11:50:39Z</time>
</trkpt>
<trkpt lat="49.33956792578101" lon="7.980646966025233">
<ele>217.39999999999998</ele>
<time>2023-05-18T11:50:40Z</time>
</trkpt>
<trkpt lat="49.33962995186448" lon="7.980632968246937">
<ele>217.39999999999998</ele>
<time>2023-05-18T11:50:41Z</time>
</trkpt>
<trkpt lat="49.339684937149286" lon="7.980624921619892">
<ele>217.20000000000005</ele>
<time>2023-05-18T11:50:42Z</time>
</trkpt>
<trkpt lat="49.33973799459636" lon="7.980631962418556">
<ele>217.20000000000005</ele>
<time>2023-05-18T11:50:43Z</time>
</trkpt>
<trkpt lat="49.339789962396026" lon="7.980647971853614">
<ele>217</ele>
<time>2023-05-18T11:50:44Z</time>
</trkpt>
<trkpt lat="49.339854922145605" lon="7.980692982673645">
<ele>217</ele>
<time>2023-05-18T11:50:45Z</time>
</trkpt>
<trkpt lat="49.33990999124944" lon="7.9807579424232244">
<ele>217</ele>
<time>2023-05-18T11:50:46Z</time>
</trkpt>
<trkpt lat="49.33995793573558" lon="7.980839917436242">
<ele>217</ele>
<time>2023-05-18T11:50:47Z</time>
</trkpt>
<trkpt lat="49.3399949837476" lon="7.980914935469627">
<ele>217</ele>
<time>2023-05-18T11:50:48Z</time>
</trkpt>
<trkpt lat="49.34002993628383" lon="7.980997916311026">
<ele>217</ele>
<time>2023-05-18T11:50:49Z</time>
</trkpt>
<trkpt lat="49.34005793184042" lon="7.981086932122707">
<ele>217</ele>
<time>2023-05-18T11:50:50Z</time>
</trkpt>
<trkpt lat="49.340087939053774" lon="7.981171924620867">
<ele>216.79999999999995</ele>
<time>2023-05-18T11:50:51Z</time>
</trkpt>
<trkpt lat="49.34011694043875" lon="7.981252977624536">
<ele>216.79999999999995</ele>
<time>2023-05-18T11:50:52Z</time>
</trkpt>
<trkpt lat="49.34013797901571" lon="7.981334952637553">
<ele>216.79999999999995</ele>
<time>2023-05-18T11:50:53Z</time>
</trkpt>
<trkpt lat="49.340157927945256" lon="7.981414999812841">
<ele>216.79999999999995</ele>
<time>2023-05-18T11:50:54Z</time>
</trkpt>
<trkpt lat="49.340176954865456" lon="7.981492951512337">
<ele>216.79999999999995</ele>
<time>2023-05-18T11:50:55Z</time>
</trkpt>
<trkpt lat="49.34020495042205" lon="7.9815769381821156">
<ele>216.60000000000002</ele>
<time>2023-05-18T11:50:56Z</time>
</trkpt>
<trkpt lat="49.3402349576354" lon="7.9816629365086555">
<ele>216.60000000000002</ele>
<time>2023-05-18T11:50:57Z</time>
</trkpt>
<trkpt lat="49.3402679823339" lon="7.981751952320337">
<ele>216.60000000000002</ele>
<time>2023-05-18T11:50:58Z</time>
</trkpt>
<trkpt lat="49.34030796401203" lon="7.981832921504974">
<ele>216.39999999999998</ele>
<time>2023-05-18T11:50:59Z</time>
</trkpt>
<trkpt lat="49.34033998288214" lon="7.9819179978221655">
<ele>216.39999999999998</ele>
<time>2023-05-18T11:51:00Z</time>
</trkpt>
<trkpt lat="49.34037694707513" lon="7.982001984491944">
<ele>216.39999999999998</ele>
<time>2023-05-18T11:51:01Z</time>
</trkpt>
<trkpt lat="49.34040192514658" lon="7.98207993619144">
<ele>216.20000000000005</ele>
<time>2023-05-18T11:51:02Z</time>
</trkpt>
<trkpt lat="49.34042799286544" lon="7.982156965881586">
<ele>216.20000000000005</ele>
<time>2023-05-18T11:51:03Z</time>
</trkpt>
<trkpt lat="49.34046193957329" lon="7.982234917581081">
<ele>216</ele>
<time>2023-05-18T11:51:04Z</time>
</trkpt>
<trkpt lat="49.340497981756926" lon="7.982316976413131">
<ele>216</ele>
<time>2023-05-18T11:51:05Z</time>
</trkpt>
<trkpt lat="49.34053293429315" lon="7.982402974739671">
<ele>216</ele>
<time>2023-05-18T11:51:06Z</time>
</trkpt>
<trkpt lat="49.34057199396193" lon="7.982492996379733">
<ele>215.79999999999995</ele>
<time>2023-05-18T11:51:07Z</time>
</trkpt>
<trkpt lat="49.340604934841394" lon="7.982574971392751">
<ele>215.79999999999995</ele>
<time>2023-05-18T11:51:08Z</time>
</trkpt>
<trkpt lat="49.34065195731819" lon="7.982647977769375">
<ele>215.60000000000002</ele>
<time>2023-05-18T11:51:09Z</time>
</trkpt>
<trkpt lat="49.340689927339554" lon="7.98272492364049">
<ele>215.60000000000002</ele>
<time>2023-05-18T11:51:10Z</time>
</trkpt>
<trkpt lat="49.34072295203805" lon="7.982802959159017">
<ele>215.60000000000002</ele>
<time>2023-05-18T11:51:11Z</time>
</trkpt>
<trkpt lat="49.340752959251404" lon="7.982879988849163">
<ele>215.39999999999998</ele>
<time>2023-05-18T11:51:12Z</time>
</trkpt>
<trkpt lat="49.340799981728196" lon="7.982949977740645">
<ele>215.39999999999998</ele>
<time>2023-05-18T11:51:13Z</time>
</trkpt>
<trkpt lat="49.340841975063086" lon="7.983017954975367">
<ele>215.39999999999998</ele>
<time>2023-05-18T11:51:14Z</time>
</trkpt>
<trkpt lat="49.34087499976158" lon="7.983086938038468">
<ele>215.20000000000005</ele>
<time>2023-05-18T11:51:15Z</time>
</trkpt>
<trkpt lat="49.340907940641046" lon="7.983156926929951">
<ele>215.20000000000005</ele>
<time>2023-05-18T11:51:16Z</time>
</trkpt>
<trkpt lat="49.34094691649079" lon="7.983219958841801">
<ele>215.20000000000005</ele>
<time>2023-05-18T11:51:17Z</time>
</trkpt>
<trkpt lat="49.34098295867443" lon="7.98328491859138">
<ele>215</ele>
<time>2023-05-18T11:51:18Z</time>
</trkpt>
<trkpt lat="49.34102294035256" lon="7.983349962159991">
<ele>215</ele>
<time>2023-05-18T11:51:19Z</time>
</trkpt>
<trkpt lat="49.341057976707816" lon="7.983421962708235">
<ele>215</ele>
<time>2023-05-18T11:51:20Z</time>
</trkpt>
<trkpt lat="49.34109192341566" lon="7.983494969084859">
<ele>214.79999999999995</ele>
<time>2023-05-18T11:51:21Z</time>
</trkpt>
<trkpt lat="49.34112695977092" lon="7.983569987118244">
<ele>214.79999999999995</ele>
<time>2023-05-18T11:51:22Z</time>
</trkpt>
<trkpt lat="49.341162918135524" lon="7.983637964352965">
<ele>214.79999999999995</ele>
<time>2023-05-18T11:51:23Z</time>
</trkpt>
<trkpt lat="49.34119996614754" lon="7.983709964901209">
<ele>214.60000000000002</ele>
<time>2023-05-18T11:51:24Z</time>
</trkpt>
<trkpt lat="49.34123994782567" lon="7.983781965449452">
<ele>214.60000000000002</ele>
<time>2023-05-18T11:51:25Z</time>
</trkpt>
<trkpt lat="49.34128194116056" lon="7.983849942684174">
<ele>214.60000000000002</ele>
<time>2023-05-18T11:51:26Z</time>
</trkpt>
<trkpt lat="49.341314965859056" lon="7.983927978202701">
<ele>214.60000000000002</ele>
<time>2023-05-18T11:51:27Z</time>
</trkpt>
<trkpt lat="49.34135193005204" lon="7.983999978750944">
<ele>214.60000000000002</ele>
<time>2023-05-18T11:51:28Z</time>
</trkpt>
<trkpt lat="49.34138294309378" lon="7.984072985127568">
<ele>214.39999999999998</ele>
<time>2023-05-18T11:51:29Z</time>
</trkpt>
<trkpt lat="49.341417979449034" lon="7.984142974019051">
<ele>214.39999999999998</ele>
<time>2023-05-18T11:51:30Z</time>
</trkpt>
<trkpt lat="49.34145494364202" lon="7.984211957082152">
<ele>214.39999999999998</ele>
<time>2023-05-18T11:51:31Z</time>
</trkpt>
<trkpt lat="49.341486962512136" lon="7.984276916831732">
<ele>214.20000000000005</ele>
<time>2023-05-18T11:51:32Z</time>
</trkpt>
<trkpt lat="49.34153197333217" lon="7.98433693125844">
<ele>214.20000000000005</ele>
<time>2023-05-18T11:51:33Z</time>
</trkpt>
<trkpt lat="49.34157497249544" lon="7.984391916543245">
<ele>214.20000000000005</ele>
<time>2023-05-18T11:51:34Z</time>
</trkpt>
<trkpt lat="49.341614954173565" lon="7.984437933191657">
<ele>214.20000000000005</ele>
<time>2023-05-18T11:51:35Z</time>
</trkpt>
<trkpt lat="49.34166298247874" lon="7.984481938183308">
<ele>214.20000000000005</ele>
<time>2023-05-18T11:51:36Z</time>
</trkpt>
<trkpt lat="49.34171193279326" lon="7.984531978145242">
<ele>214</ele>
<time>2023-05-18T11:51:37Z</time>
</trkpt>
<trkpt lat="49.341761972755194" lon="7.984576988965273">
<ele>214</ele>
<time>2023-05-18T11:51:38Z</time>
</trkpt>
<trkpt lat="49.341804971918464" lon="7.984616970643401">
<ele>214</ele>
<time>2023-05-18T11:51:39Z</time>
</trkpt>
<trkpt lat="49.341852916404605" lon="7.984656952321529">
<ele>214</ele>
<time>2023-05-18T11:51:40Z</time>
</trkpt>
<trkpt lat="49.3418999388814" lon="7.9847099259495735">
<ele>214</ele>
<time>2023-05-18T11:51:41Z</time>
</trkpt>
<trkpt lat="49.34194494970143" lon="7.9847499914467335">
<ele>213.79999999999995</ele>
<time>2023-05-18T11:51:42Z</time>
</trkpt>
<trkpt lat="49.34199197217822" lon="7.984779998660088">
<ele>213.79999999999995</ele>
<time>2023-05-18T11:51:43Z</time>
</trkpt>
<trkpt lat="49.34203698299825" lon="7.984821991994977">
<ele>213.79999999999995</ele>
<time>2023-05-18T11:51:44Z</time>
</trkpt>
<trkpt lat="49.342082999646664" lon="7.984854932874441">
<ele>213.79999999999995</ele>
<time>2023-05-18T11:51:45Z</time>
</trkpt>
<trkpt lat="49.342129938304424" lon="7.984887957572937">
<ele>213.79999999999995</ele>
<time>2023-05-18T11:51:46Z</time>
</trkpt>
<trkpt lat="49.342174949124455" lon="7.9849219880998135">
<ele>213.79999999999995</ele>
<time>2023-05-18T11:51:47Z</time>
</trkpt>
<trkpt lat="49.34222197160125" lon="7.984947971999645">
<ele>213.79999999999995</ele>
<time>2023-05-18T11:51:48Z</time>
</trkpt>
<trkpt lat="49.34226798824966" lon="7.9849799908697605">
<ele>213.79999999999995</ele>
<time>2023-05-18T11:51:49Z</time>
</trkpt>
<trkpt lat="49.34231199324131" lon="7.985017960891128">
<ele>213.79999999999995</ele>
<time>2023-05-18T11:51:50Z</time>
</trkpt>
<trkpt lat="49.34235298074782" lon="7.985052997246385">
<ele>213.79999999999995</ele>
<time>2023-05-18T11:51:51Z</time>
</trkpt>
<trkpt lat="49.34239799156785" lon="7.98508794978261">
<ele>213.79999999999995</ele>
<time>2023-05-18T11:51:52Z</time>
</trkpt>
<trkpt lat="49.342432944104075" lon="7.9851169511675835">
<ele>213.79999999999995</ele>
<time>2023-05-18T11:51:53Z</time>
</trkpt>
<trkpt lat="49.342469992116094" lon="7.9851369839161634">
<ele>213.79999999999995</ele>
<time>2023-05-18T11:51:54Z</time>
</trkpt>
<trkpt lat="49.34250796213746" lon="7.985146958380938">
<ele>213.79999999999995</ele>
<time>2023-05-18T11:51:55Z</time>
</trkpt>
<trkpt lat="49.34255498461425" lon="7.985176965594292">
<ele>213.79999999999995</ele>
<time>2023-05-18T11:51:56Z</time>
</trkpt>
<trkpt lat="49.342601923272014" lon="7.985207978636026">
<ele>213.79999999999995</ele>
<time>2023-05-18T11:51:57Z</time>
</trkpt>
<trkpt lat="49.34265196323395" lon="7.985256928950548">
<ele>213.79999999999995</ele>
<time>2023-05-18T11:51:58Z</time>
</trkpt>
<trkpt lat="49.34269999153912" lon="7.985307974740863">
<ele>213.79999999999995</ele>
<time>2023-05-18T11:51:59Z</time>
</trkpt>
<trkpt lat="49.34274198487401" lon="7.985377963632345">
<ele>213.79999999999995</ele>
<time>2023-05-18T11:52:00Z</time>
</trkpt>
<trkpt lat="49.34278297238052" lon="7.985444935038686">
<ele>213.79999999999995</ele>
<time>2023-05-18T11:52:01Z</time>
</trkpt>
<trkpt lat="49.34282496571541" lon="7.985514923930168">
<ele>213.79999999999995</ele>
<time>2023-05-18T11:52:02Z</time>
</trkpt>
<trkpt lat="49.34286494739354" lon="7.9855819791555405">
<ele>213.79999999999995</ele>
<time>2023-05-18T11:52:03Z</time>
</trkpt>
<trkpt lat="49.342901995405555" lon="7.9856479447335005">
<ele>213.79999999999995</ele>
<time>2023-05-18T11:52:04Z</time>
</trkpt>
<trkpt lat="49.34293292462826" lon="7.985711982473731">
<ele>213.79999999999995</ele>
<time>2023-05-18T11:52:05Z</time>
</trkpt>
<trkpt lat="49.34296293184161" lon="7.985777948051691">
<ele>213.60000000000002</ele>
<time>2023-05-18T11:52:06Z</time>
</trkpt>
<trkpt lat="49.342989921569824" lon="7.9858399741351604">
<ele>213.60000000000002</ele>
<time>2023-05-18T11:52:07Z</time>
</trkpt>
<trkpt lat="49.34301791712642" lon="7.985911974683404">
<ele>213.60000000000002</ele>
<time>2023-05-18T11:52:08Z</time>
</trkpt>
<trkpt lat="49.343051947653294" lon="7.985972994938493">
<ele>213.60000000000002</ele>
<time>2023-05-18T11:52:09Z</time>
</trkpt>
<trkpt lat="49.34308497235179" lon="7.986024962738156">
<ele>213.60000000000002</ele>
<time>2023-05-18T11:52:10Z</time>
</trkpt>
<trkpt lat="49.343117997050285" lon="7.986072991043329">
<ele>213.60000000000002</ele>
<time>2023-05-18T11:52:11Z</time>
</trkpt>
<trkpt lat="49.34314792044461" lon="7.986114984378219">
<ele>213.60000000000002</ele>
<time>2023-05-18T11:52:12Z</time>
</trkpt>
<trkpt lat="49.343182956799865" lon="7.986149936914444">
<ele>213.60000000000002</ele>
<time>2023-05-18T11:52:13Z</time>
</trkpt>
<trkpt lat="49.34321497566998" lon="7.986176926642656">
<ele>213.39999999999998</ele>
<time>2023-05-18T11:52:14Z</time>
</trkpt>
<trkpt lat="49.34324297122657" lon="7.986194947734475">
<ele>213.39999999999998</ele>
<time>2023-05-18T11:52:15Z</time>
</trkpt>
<trkpt lat="49.34327297843993" lon="7.986207939684391">
<ele>213.39999999999998</ele>
<time>2023-05-18T11:52:16Z</time>
</trkpt>
<trkpt lat="49.34330793097615" lon="7.986216992139816">
<ele>213.39999999999998</ele>
<time>2023-05-18T11:52:17Z</time>
</trkpt>
<trkpt lat="49.34333994984627" lon="7.986224954947829">
<ele>213.39999999999998</ele>
<time>2023-05-18T11:52:18Z</time>
</trkpt>
<trkpt lat="49.34336995705962" lon="7.986244987696409">
<ele>213.39999999999998</ele>
<time>2023-05-18T11:52:19Z</time>
</trkpt>
<trkpt lat="49.343396946787834" lon="7.986272983253002">
<ele>213.39999999999998</ele>
<time>2023-05-18T11:52:20Z</time>
</trkpt>
<trkpt lat="49.343417985364795" lon="7.98631195910275">
<ele>213.39999999999998</ele>
<time>2023-05-18T11:52:21Z</time>
</trkpt>
<trkpt lat="49.34343298897147" lon="7.986361999064684">
<ele>213.60000000000002</ele>
<time>2023-05-18T11:52:22Z</time>
</trkpt>
<trkpt lat="49.343441957607865" lon="7.986432993784547">
<ele>213.60000000000002</ele>
<time>2023-05-18T11:52:23Z</time>
</trkpt>
<trkpt lat="49.34343692846596" lon="7.9864999651908875">
<ele>213.39999999999998</ele>
<time>2023-05-18T11:52:24Z</time>
</trkpt>
<trkpt lat="49.34343298897147" lon="7.986566936597228">
<ele>213.39999999999998</ele>
<time>2023-05-18T11:52:25Z</time>
</trkpt>
<trkpt lat="49.34342494234443" lon="7.98663298599422">
<ele>213.39999999999998</ele>
<time>2023-05-18T11:52:26Z</time>
</trkpt>
<trkpt lat="49.343416979536414" lon="7.986707920208573">
<ele>213.39999999999998</ele>
<time>2023-05-18T11:52:27Z</time>
</trkpt>
<trkpt lat="49.34340499341488" lon="7.9867929965257645">
<ele>213.39999999999998</ele>
<time>2023-05-18T11:52:28Z</time>
</trkpt>
<trkpt lat="49.3433899898082" lon="7.986874971538782">
<ele>213.39999999999998</ele>
<time>2023-05-18T11:52:29Z</time>
</trkpt>
<trkpt lat="49.34336995705962" lon="7.986954934895039">
<ele>213.39999999999998</ele>
<time>2023-05-18T11:52:30Z</time>
</trkpt>
<trkpt lat="49.34334799647331" lon="7.987041939049959">
<ele>213.39999999999998</ele>
<time>2023-05-18T11:52:31Z</time>
</trkpt>
<trkpt lat="49.34332494623959" lon="7.987126931548119">
<ele>213.39999999999998</ele>
<time>2023-05-18T11:52:32Z</time>
</trkpt>
<trkpt lat="49.34329996816814" lon="7.987207984551787">
<ele>213.39999999999998</ele>
<time>2023-05-18T11:52:33Z</time>
</trkpt>
<trkpt lat="49.34327197261155" lon="7.987289959564805">
<ele>213.39999999999998</ele>
<time>2023-05-18T11:52:34Z</time>
</trkpt>
<trkpt lat="49.343244982883334" lon="7.987371934577823">
<ele>213.39999999999998</ele>
<time>2023-05-18T11:52:35Z</time>
</trkpt>
<trkpt lat="49.34321698732674" lon="7.9874479584395885">
<ele>213.39999999999998</ele>
<time>2023-05-18T11:52:36Z</time>
</trkpt>
<trkpt lat="49.34318798594177" lon="7.987521970644593">
<ele>213.39999999999998</ele>
<time>2023-05-18T11:52:37Z</time>
</trkpt>
<trkpt lat="49.34315697290003" lon="7.987591959536076">
<ele>213.20000000000005</ele>
<time>2023-05-18T11:52:38Z</time>
</trkpt>
<trkpt lat="49.34312797151506" lon="7.987659936770797">
<ele>213.20000000000005</ele>
<time>2023-05-18T11:52:39Z</time>
</trkpt>
<trkpt lat="49.34310198761523" lon="7.987726991996169">
<ele>213.20000000000005</ele>
<time>2023-05-18T11:52:40Z</time>
</trkpt>
<trkpt lat="49.343074997887015" lon="7.987789940088987">
<ele>213.20000000000005</ele>
<time>2023-05-18T11:52:41Z</time>
</trkpt>
<trkpt lat="49.343051947653294" lon="7.987851966172457">
<ele>213.20000000000005</ele>
<time>2023-05-18T11:52:42Z</time>
</trkpt>
<trkpt lat="49.343031998723745" lon="7.987911980599165">
<ele>213.20000000000005</ele>
<time>2023-05-18T11:52:43Z</time>
</trkpt>
<trkpt lat="49.34300299733877" lon="7.98796696588397">
<ele>213</ele>
<time>2023-05-18T11:52:44Z</time>
</trkpt>
<trkpt lat="49.34297692961991" lon="7.988021951168776">
<ele>213.20000000000005</ele>
<time>2023-05-18T11:52:45Z</time>
</trkpt>
<trkpt lat="49.34295195154846" lon="7.988077942281961">
<ele>213.20000000000005</ele>
<time>2023-05-18T11:52:46Z</time>
</trkpt>
<trkpt lat="49.342926973477006" lon="7.988136950880289">
<ele>213.20000000000005</ele>
<time>2023-05-18T11:52:47Z</time>
</trkpt>
<trkpt lat="49.342899983748794" lon="7.988192941993475">
<ele>213.20000000000005</ele>
<time>2023-05-18T11:52:48Z</time>
</trkpt>
<trkpt lat="49.34287693351507" lon="7.988252956420183">
<ele>213.20000000000005</ele>
<time>2023-05-18T11:52:49Z</time>
</trkpt>
<trkpt lat="49.34284994378686" lon="7.988314982503653">
<ele>213.20000000000005</ele>
<time>2023-05-18T11:52:50Z</time>
</trkpt>
<trkpt lat="49.34282295405865" lon="7.988374996930361">
<ele>213.20000000000005</ele>
<time>2023-05-18T11:52:51Z</time>
</trkpt>
<trkpt lat="49.342794958502054" lon="7.988432999700308">
<ele>213.20000000000005</ele>
<time>2023-05-18T11:52:52Z</time>
</trkpt>
<trkpt lat="49.34276696294546" lon="7.988491924479604">
<ele>213.20000000000005</ele>
<time>2023-05-18T11:52:53Z</time>
</trkpt>
<trkpt lat="49.342734944075346" lon="7.988551938906312">
<ele>213.20000000000005</ele>
<time>2023-05-18T11:52:54Z</time>
</trkpt>
<trkpt lat="49.34270191937685" lon="7.98861195333302">
<ele>213.20000000000005</ele>
<time>2023-05-18T11:52:55Z</time>
</trkpt>
<trkpt lat="49.342667972669005" lon="7.988672973588109">
<ele>213.20000000000005</ele>
<time>2023-05-18T11:52:56Z</time>
</trkpt>
<trkpt lat="49.34263193048537" lon="7.9887299705296755">
<ele>213.20000000000005</ele>
<time>2023-05-18T11:52:57Z</time>
</trkpt>
<trkpt lat="49.34259697794914" lon="7.9887879732996225">
<ele>213.20000000000005</ele>
<time>2023-05-18T11:52:58Z</time>
</trkpt>
<trkpt lat="49.342559929937124" lon="7.988841952756047">
<ele>213.20000000000005</ele>
<time>2023-05-18T11:52:59Z</time>
</trkpt>
<trkpt lat="49.34252195991576" lon="7.988894926384091">
<ele>213.20000000000005</ele>
<time>2023-05-18T11:53:00Z</time>
</trkpt>
<trkpt lat="49.34248298406601" lon="7.9889449663460255">
<ele>213.20000000000005</ele>
<time>2023-05-18T11:53:01Z</time>
</trkpt>
<trkpt lat="49.3424419965595" lon="7.988994922488928">
<ele>213.20000000000005</ele>
<time>2023-05-18T11:53:02Z</time>
</trkpt>
<trkpt lat="49.34240193106234" lon="7.989037921652198">
<ele>213.20000000000005</ele>
<time>2023-05-18T11:53:03Z</time>
</trkpt>
<trkpt lat="49.34235499240458" lon="7.989081926643848">
<ele>213.20000000000005</ele>
<time>2023-05-18T11:53:04Z</time>
</trkpt>
<trkpt lat="49.34230796992779" lon="7.989122997969389">
<ele>213.20000000000005</ele>
<time>2023-05-18T11:53:05Z</time>
</trkpt>
<trkpt lat="49.342257929965854" lon="7.989161973819137">
<ele>213.20000000000005</ele>
<time>2023-05-18T11:53:06Z</time>
</trkpt>
<trkpt lat="49.34220797382295" lon="7.989199943840504">
<ele>213.20000000000005</ele>
<time>2023-05-18T11:53:07Z</time>
</trkpt>
<trkpt lat="49.34215793386102" lon="7.989236991852522">
<ele>213.20000000000005</ele>
<time>2023-05-18T11:53:08Z</time>
</trkpt>
<trkpt lat="49.342107977718115" lon="7.989269932731986">
<ele>213.20000000000005</ele>
<time>2023-05-18T11:53:09Z</time>
</trkpt>
<trkpt lat="49.34205793775618" lon="7.98929993994534">
<ele>213.20000000000005</ele>
<time>2023-05-18T11:53:10Z</time>
</trkpt>
<trkpt lat="49.34200798161328" lon="7.989331958815455">
<ele>213</ele>
<time>2023-05-18T11:53:11Z</time>
</trkpt>
<trkpt lat="49.341957941651344" lon="7.989357942715287">
<ele>213</ele>
<time>2023-05-18T11:53:12Z</time>
</trkpt>
<trkpt lat="49.3419049680233" lon="7.989379987120628">
<ele>212.79999999999995</ele>
<time>2023-05-18T11:53:13Z</time>
</trkpt>
<trkpt lat="49.341851994395256" lon="7.9893979243934155">
<ele>212.79999999999995</ele>
<time>2023-05-18T11:53:14Z</time>
</trkpt>
<trkpt lat="49.34179994277656" lon="7.9894129280000925">
<ele>212.79999999999995</ele>
<time>2023-05-18T11:53:15Z</time>
</trkpt>
<trkpt lat="49.3417479749769" lon="7.989421980455518">
<ele>212.60000000000002</ele>
<time>2023-05-18T11:53:16Z</time>
</trkpt>
<trkpt lat="49.34169692918658" lon="7.989426925778389">
<ele>212.60000000000002</ele>
<time>2023-05-18T11:53:17Z</time>
</trkpt>
<trkpt lat="49.34164797887206" lon="7.989431954920292">
<ele>212.60000000000002</ele>
<time>2023-05-18T11:53:18Z</time>
</trkpt>
<trkpt lat="49.34159793891013" lon="7.989431954920292">
<ele>212.60000000000002</ele>
<time>2023-05-18T11:53:19Z</time>
</trkpt>
<trkpt lat="49.341551922261715" lon="7.989429943263531">
<ele>212.60000000000002</ele>
<time>2023-05-18T11:53:20Z</time>
</trkpt>
<trkpt lat="49.341504983603954" lon="7.9894249979406595">
<ele>212.60000000000002</ele>
<time>2023-05-18T11:53:21Z</time>
</trkpt>
<trkpt lat="49.34145796112716" lon="7.989417957141995">
<ele>212.60000000000002</ele>
<time>2023-05-18T11:53:22Z</time>
</trkpt>
<trkpt lat="49.34141295030713" lon="7.989407982677221">
<ele>212.60000000000002</ele>
<time>2023-05-18T11:53:23Z</time>
</trkpt>
<trkpt lat="49.34136995114386" lon="7.989394990727305">
<ele>212.60000000000002</ele>
<time>2023-05-18T11:53:24Z</time>
</trkpt>
<trkpt lat="49.34132292866707" lon="7.989374957978725">
<ele>212.60000000000002</ele>
<time>2023-05-18T11:53:25Z</time>
</trkpt>
<trkpt lat="49.3412799295038" lon="7.989352997392416">
<ele>212.60000000000002</ele>
<time>2023-05-18T11:53:26Z</time>
</trkpt>
<trkpt lat="49.34123491868377" lon="7.9893269296735525">
<ele>212.60000000000002</ele>
<time>2023-05-18T11:53:27Z</time>
</trkpt>
<trkpt lat="49.341186974197626" lon="7.98929993994534">
<ele>212.60000000000002</ele>
<time>2023-05-18T11:53:28Z</time>
</trkpt>
<trkpt lat="49.34113794006407" lon="7.989267921075225">
<ele>212.60000000000002</ele>
<time>2023-05-18T11:53:29Z</time>
</trkpt>
<trkpt lat="49.34108697809279" lon="7.989236991852522">
<ele>212.60000000000002</ele>
<time>2023-05-18T11:53:30Z</time>
</trkpt>
<trkpt lat="49.341036938130856" lon="7.989204972982407">
<ele>212.79999999999995</ele>
<time>2023-05-18T11:53:31Z</time>
</trkpt>
<trkpt lat="49.340989999473095" lon="7.9891749657690525">
<ele>212.79999999999995</ele>
<time>2023-05-18T11:53:32Z</time>
</trkpt>
<trkpt lat="49.340947922319174" lon="7.989144958555698">
<ele>212.79999999999995</ele>
<time>2023-05-18T11:53:33Z</time>
</trkpt>
<trkpt lat="49.340907940641046" lon="7.989114951342344">
<ele>212.79999999999995</ele>
<time>2023-05-18T11:53:34Z</time>
</trkpt>
<trkpt lat="49.34086997061968" lon="7.989086955785751">
<ele>212.79999999999995</ele>
<time>2023-05-18T11:53:35Z</time>
</trkpt>
<trkpt lat="49.34082998894155" lon="7.989057954400778">
<ele>212.79999999999995</ele>
<time>2023-05-18T11:53:36Z</time>
</trkpt>
<trkpt lat="49.34078799560666" lon="7.989031970500946">
<ele>212.79999999999995</ele>
<time>2023-05-18T11:53:37Z</time>
</trkpt>
<trkpt lat="49.3407479301095" lon="7.989004980772734">
<ele>212.79999999999995</ele>
<time>2023-05-18T11:53:38Z</time>
</trkpt>
<trkpt lat="49.340709960088134" lon="7.988977991044521">
<ele>212.79999999999995</ele>
<time>2023-05-18T11:53:39Z</time>
</trkpt>
<trkpt lat="49.34068196453154" lon="7.988947983831167">
<ele>213</ele>
<time>2023-05-18T11:53:40Z</time>
</trkpt>
<trkpt lat="49.340624967589974" lon="7.988894926384091">
<ele>213</ele>
<time>2023-05-18T11:53:41Z</time>
</trkpt>
<trkpt lat="49.34056797064841" lon="7.988857962191105">
<ele>213</ele>
<time>2023-05-18T11:53:42Z</time>
</trkpt>
<trkpt lat="49.3405079562217" lon="7.988829966634512">
<ele>213</ele>
<time>2023-05-18T11:53:43Z</time>
</trkpt>
<trkpt lat="49.34043997898698" lon="7.988792918622494">
<ele>213.20000000000005</ele>
<time>2023-05-18T11:53:44Z</time>
</trkpt>
<trkpt lat="49.34037996456027" lon="7.988771963864565">
<ele>213.20000000000005</ele>
<time>2023-05-18T11:53:45Z</time>
</trkpt>
<trkpt lat="49.34031995013356" lon="7.988757966086268">
<ele>213.20000000000005</ele>
<time>2023-05-18T11:53:46Z</time>
</trkpt>
<trkpt lat="49.34025691822171" lon="7.988747991621494">
<ele>213.20000000000005</ele>
<time>2023-05-18T11:53:47Z</time>
</trkpt>
<trkpt lat="49.340199921280146" lon="7.988751931115985">
<ele>213.20000000000005</ele>
<time>2023-05-18T11:53:48Z</time>
</trkpt>
<trkpt lat="49.34013999067247" lon="7.988749919459224">
<ele>213.39999999999998</ele>
<time>2023-05-18T11:53:49Z</time>
</trkpt>
<trkpt lat="49.34008693322539" lon="7.988761989399791">
<ele>213.39999999999998</ele>
<time>2023-05-18T11:53:50Z</time>
</trkpt>
<trkpt lat="49.34003194794059" lon="7.988776993006468">
<ele>213.39999999999998</ele>
<time>2023-05-18T11:53:51Z</time>
</trkpt>
<trkpt lat="49.339982997626066" lon="7.988797947764397">
<ele>213.39999999999998</ele>
<time>2023-05-18T11:53:52Z</time>
</trkpt>
<trkpt lat="49.339939998462796" lon="7.988831978291273">
<ele>213.39999999999998</ele>
<time>2023-05-18T11:53:53Z</time>
</trkpt>
<trkpt lat="49.339896999299526" lon="7.988864919170737">
<ele>213.60000000000002</ele>
<time>2023-05-18T11:53:54Z</time>
</trkpt>
<trkpt lat="49.339856933802366" lon="7.988897943869233">
<ele>213.60000000000002</ele>
<time>2023-05-18T11:53:55Z</time>
</trkpt>
<trkpt lat="49.33981795795262" lon="7.988941948860884">
<ele>213.60000000000002</ele>
<time>2023-05-18T11:53:56Z</time>
</trkpt>
<trkpt lat="49.33978292159736" lon="7.988992994651198">
<ele>213.60000000000002</ele>
<time>2023-05-18T11:53:57Z</time>
</trkpt>
<trkpt lat="49.339747969061136" lon="7.989051919430494">
<ele>213.60000000000002</ele>
<time>2023-05-18T11:53:58Z</time>
</trkpt>
<trkpt lat="49.33971796184778" lon="7.989119980484247">
<ele>213.60000000000002</ele>
<time>2023-05-18T11:53:59Z</time>
</trkpt>
<trkpt lat="49.33968996629119" lon="7.989192986860871">
<ele>213.79999999999995</ele>
<time>2023-05-18T11:54:00Z</time>
</trkpt>
<trkpt lat="49.33966297656298" lon="7.989269932731986">
<ele>213.79999999999995</ele>
<time>2023-05-18T11:54:01Z</time>
</trkpt>
<trkpt lat="49.339639926329255" lon="7.98934193328023">
<ele>213.79999999999995</ele>
<time>2023-05-18T11:54:02Z</time>
</trkpt>
<trkpt lat="49.33961997739971" lon="7.989414939656854">
<ele>213.79999999999995</ele>
<time>2023-05-18T11:54:03Z</time>
</trkpt>
<trkpt lat="49.33960698544979" lon="7.989496998488903">
<ele>213.79999999999995</ele>
<time>2023-05-18T11:54:04Z</time>
</trkpt>
<trkpt lat="49.33959994465113" lon="7.9895849246531725">
<ele>214</ele>
<time>2023-05-18T11:54:05Z</time>
</trkpt>
<trkpt lat="49.339591981843114" lon="7.989666983485222">
<ele>214</ele>
<time>2023-05-18T11:54:06Z</time>
</trkpt>
<trkpt lat="49.33958494104445" lon="7.989744935184717">
<ele>214</ele>
<time>2023-05-18T11:54:07Z</time>
</trkpt>
<trkpt lat="49.33958494104445" lon="7.989821964874864">
<ele>214</ele>
<time>2023-05-18T11:54:08Z</time>
</trkpt>
<trkpt lat="49.33958695270121" lon="7.9898979887366295">
<ele>214</ele>
<time>2023-05-18T11:54:09Z</time>
</trkpt>
<trkpt lat="49.33958997018635" lon="7.9899719171226025">
<ele>214</ele>
<time>2023-05-18T11:54:10Z</time>
</trkpt>
<trkpt lat="49.339592987671494" lon="7.990044923499227">
<ele>214</ele>
<time>2023-05-18T11:54:11Z</time>
</trkpt>
<trkpt lat="49.339596927165985" lon="7.990117929875851">
<ele>214</ele>
<time>2023-05-18T11:54:12Z</time>
</trkpt>
<trkpt lat="49.33959994465113" lon="7.990191942080855">
<ele>214</ele>
<time>2023-05-18T11:54:13Z</time>
</trkpt>
<trkpt lat="49.339597932994366" lon="7.990262936800718">
<ele>214.20000000000005</ele>
<time>2023-05-18T11:54:14Z</time>
</trkpt>
<trkpt lat="49.33959994465113" lon="7.990334937348962">
<ele>214.20000000000005</ele>
<time>2023-05-18T11:54:15Z</time>
</trkpt>
<trkpt lat="49.33960698544979" lon="7.990407943725586">
<ele>214.20000000000005</ele>
<time>2023-05-18T11:54:16Z</time>
</trkpt>
<trkpt lat="49.33961193077266" lon="7.990481955930591">
<ele>214.20000000000005</ele>
<time>2023-05-18T11:54:17Z</time>
</trkpt>
<trkpt lat="49.339616959914565" lon="7.9905579797923565">
<ele>214.39999999999998</ele>
<time>2023-05-18T11:54:18Z</time>
</trkpt>
<trkpt lat="49.33962794020772" lon="7.990632997825742">
<ele>214.39999999999998</ele>
<time>2023-05-18T11:54:19Z</time>
</trkpt>
<trkpt lat="49.339641937986016" lon="7.990697957575321">
<ele>214.39999999999998</ele>
<time>2023-05-18T11:54:20Z</time>
</trkpt>
<trkpt lat="49.339657947421074" lon="7.9907679464668036">
<ele>214.39999999999998</ele>
<time>2023-05-18T11:54:21Z</time>
</trkpt>
<trkpt lat="49.33967295102775" lon="7.990839947015047">
<ele>214.39999999999998</ele>
<time>2023-05-18T11:54:22Z</time>
</trkpt>
<trkpt lat="49.33968795463443" lon="7.990912953391671">
<ele>214.60000000000002</ele>
<time>2023-05-18T11:54:23Z</time>
</trkpt>
<trkpt lat="49.339704969897866" lon="7.9909879714250565">
<ele>214.60000000000002</ele>
<time>2023-05-18T11:54:24Z</time>
</trkpt>
<trkpt lat="49.339721985161304" lon="7.991066928952932">
<ele>214.60000000000002</ele>
<time>2023-05-18T11:54:25Z</time>
</trkpt>
<trkpt lat="49.33974293991923" lon="7.991141946986318">
<ele>214.60000000000002</ele>
<time>2023-05-18T11:54:26Z</time>
</trkpt>
<trkpt lat="49.33976297266781" lon="7.991216965019703">
<ele>214.60000000000002</ele>
<time>2023-05-18T11:54:27Z</time>
</trkpt>
<trkpt lat="49.33978493325412" lon="7.991291983053088">
<ele>214.79999999999995</ele>
<time>2023-05-18T11:54:28Z</time>
</trkpt>
<trkpt lat="49.3398049660027" lon="7.991359960287809">
<ele>214.79999999999995</ele>
<time>2023-05-18T11:54:29Z</time>
</trkpt>
<trkpt lat="49.33982692658901" lon="7.99142693169415">
<ele>214.79999999999995</ele>
<time>2023-05-18T11:54:30Z</time>
</trkpt>
<trkpt lat="49.33984796516597" lon="7.991489963606">
<ele>214.79999999999995</ele>
<time>2023-05-18T11:54:31Z</time>
</trkpt>
<trkpt lat="49.33986992575228" lon="7.991554923355579">
<ele>214.79999999999995</ele>
<time>2023-05-18T11:54:32Z</time>
</trkpt>
<trkpt lat="49.339894987642765" lon="7.991617955267429">
<ele>214.79999999999995</ele>
<time>2023-05-18T11:54:33Z</time>
</trkpt>
<trkpt lat="49.33992499485612" lon="7.991679981350899">
<ele>215</ele>
<time>2023-05-18T11:54:34Z</time>
</trkpt>
<trkpt lat="49.3399569299072" lon="7.991741923615336">
<ele>215</ele>
<time>2023-05-18T11:54:35Z</time>
</trkpt>
<trkpt lat="49.33999196626246" lon="7.991797998547554">
<ele>215</ele>
<time>2023-05-18T11:54:36Z</time>
</trkpt>
<trkpt lat="49.34003194794059" lon="7.991851978003979">
<ele>215</ele>
<time>2023-05-18T11:54:37Z</time>
</trkpt>
<trkpt lat="49.340069917961955" lon="7.991902939975262">
<ele>215</ele>
<time>2023-05-18T11:54:38Z</time>
</trkpt>
<trkpt lat="49.340111995115876" lon="7.991956919431686">
<ele>215</ele>
<time>2023-05-18T11:54:39Z</time>
</trkpt>
<trkpt lat="49.340154994279146" lon="7.992009976878762">
<ele>215.20000000000005</ele>
<time>2023-05-18T11:54:40Z</time>
</trkpt>
<trkpt lat="49.340199921280146" lon="7.992056999355555">
<ele>215.20000000000005</ele>
<time>2023-05-18T11:54:41Z</time>
</trkpt>
<trkpt lat="49.34024694375694" lon="7.992099998518825">
<ele>215.20000000000005</ele>
<time>2023-05-18T11:54:42Z</time>
</trkpt>
<trkpt lat="49.34029497206211" lon="7.992139980196953">
<ele>215.20000000000005</ele>
<time>2023-05-18T11:54:43Z</time>
</trkpt>
<trkpt lat="49.34034492820501" lon="7.992176944389939">
<ele>215.20000000000005</ele>
<time>2023-05-18T11:54:44Z</time>
</trkpt>
<trkpt lat="49.340392956510186" lon="7.992212986573577">
<ele>215.20000000000005</ele>
<time>2023-05-18T11:54:45Z</time>
</trkpt>
<trkpt lat="49.34044199064374" lon="7.9922449216246605">
<ele>215.20000000000005</ele>
<time>2023-05-18T11:54:46Z</time>
</trkpt>
<trkpt lat="49.34049295261502" lon="7.992269983515143">
<ele>215</ele>
<time>2023-05-18T11:54:47Z</time>
</trkpt>
<trkpt lat="49.34054299257696" lon="7.992294961586595">
<ele>215</ele>
<time>2023-05-18T11:54:48Z</time>
</trkpt>
<trkpt lat="49.34059697203338" lon="7.992319939658046">
<ele>215</ele>
<time>2023-05-18T11:54:49Z</time>
</trkpt>
<trkpt lat="49.340649945661426" lon="7.992344917729497">
<ele>215</ele>
<time>2023-05-18T11:54:50Z</time>
</trkpt>
<trkpt lat="49.34070694260299" lon="7.99236997961998">
<ele>214.79999999999995</ele>
<time>2023-05-18T11:54:51Z</time>
</trkpt>
<trkpt lat="49.34076494537294" lon="7.992399986833334">
<ele>214.79999999999995</ele>
<time>2023-05-18T11:54:52Z</time>
</trkpt>
<trkpt lat="49.34082495979965" lon="7.992426976561546">
<ele>214.79999999999995</ele>
<time>2023-05-18T11:54:53Z</time>
</trkpt>
<trkpt lat="49.340884974226356" lon="7.992452960461378">
<ele>214.60000000000002</ele>
<time>2023-05-18T11:54:54Z</time>
</trkpt>
<trkpt lat="49.340944988653064" lon="7.992476932704449">
<ele>214.60000000000002</ele>
<time>2023-05-18T11:54:55Z</time>
</trkpt>
<trkpt lat="49.34100491926074" lon="7.992504928261042">
<ele>214.39999999999998</ele>
<time>2023-05-18T11:54:56Z</time>
</trkpt>
<trkpt lat="49.34106996282935" lon="7.9925299901515245">
<ele>214.39999999999998</ele>
<time>2023-05-18T11:54:57Z</time>
</trkpt>
<trkpt lat="49.3411329947412" lon="7.992554968222976">
<ele>214.20000000000005</ele>
<time>2023-05-18T11:54:58Z</time>
</trkpt>
<trkpt lat="49.3411969486624" lon="7.99258497543633">
<ele>214</ele>
<time>2023-05-18T11:54:59Z</time>
</trkpt>
<trkpt lat="49.34126199223101" lon="7.992617916315794">
<ele>213.79999999999995</ele>
<time>2023-05-18T11:55:00Z</time>
</trkpt>
<trkpt lat="49.34132494032383" lon="7.992654964327812">
<ele>213.60000000000002</ele>
<time>2023-05-18T11:55:01Z</time>
</trkpt>
<trkpt lat="49.34138797223568" lon="7.9926899168640375">
<ele>213.39999999999998</ele>
<time>2023-05-18T11:55:02Z</time>
</trkpt>
<trkpt lat="49.34144798666239" lon="7.992726964876056">
<ele>213.20000000000005</ele>
<time>2023-05-18T11:55:03Z</time>
</trkpt>
<trkpt lat="49.34151194058359" lon="7.992769964039326">
<ele>212.79999999999995</ele>
<time>2023-05-18T11:55:04Z</time>
</trkpt>
<trkpt lat="49.341571955010295" lon="7.992811957374215">
<ele>212.60000000000002</ele>
<time>2023-05-18T11:55:05Z</time>
</trkpt>
<trkpt lat="49.34162794612348" lon="7.992844982072711">
<ele>212.39999999999998</ele>
<time>2023-05-18T11:55:06Z</time>
</trkpt>
<trkpt lat="49.34168997220695" lon="7.992889992892742">
<ele>212.20000000000005</ele>
<time>2023-05-18T11:55:07Z</time>
</trkpt>
<trkpt lat="49.3417479749769" lon="7.99292997457087">
<ele>212</ele>
<time>2023-05-18T11:55:08Z</time>
</trkpt>
<trkpt lat="49.341807989403605" lon="7.992977919057012">
<ele>211.79999999999995</ele>
<time>2023-05-18T11:55:09Z</time>
</trkpt>
<trkpt lat="49.34186792001128" lon="7.993032988160849">
<ele>211.79999999999995</ele>
<time>2023-05-18T11:55:10Z</time>
</trkpt>
<trkpt lat="49.34192491695285" lon="7.993092918768525">
<ele>211.60000000000002</ele>
<time>2023-05-18T11:55:11Z</time>
</trkpt>
<trkpt lat="49.341977974399924" lon="7.993157962337136">
<ele>211.39999999999998</ele>
<time>2023-05-18T11:55:12Z</time>
</trkpt>
<trkpt lat="49.34202793054283" lon="7.993222922086716">
<ele>211.39999999999998</ele>
<time>2023-05-18T11:55:13Z</time>
</trkpt>
<trkpt lat="49.34207797050476" lon="7.993291988968849">
<ele>211.20000000000005</ele>
<time>2023-05-18T11:55:14Z</time>
</trkpt>
<trkpt lat="49.34212792664766" lon="7.9933619778603315">
<ele>211</ele>
<time>2023-05-18T11:55:15Z</time>
</trkpt>
<trkpt lat="49.34217696078122" lon="7.993436995893717">
<ele>211</ele>
<time>2023-05-18T11:55:16Z</time>
</trkpt>
<trkpt lat="49.34222691692412" lon="7.993514947593212">
<ele>210.79999999999995</ele>
<time>2023-05-18T11:55:17Z</time>
</trkpt>
<trkpt lat="49.34227293357253" lon="7.99359692260623">
<ele>210.79999999999995</ele>
<time>2023-05-18T11:55:18Z</time>
</trkpt>
<trkpt lat="49.34231995604932" lon="7.993674958124757">
<ele>210.60000000000002</ele>
<time>2023-05-18T11:55:19Z</time>
</trkpt>
<trkpt lat="49.342364966869354" lon="7.993752993643284">
<ele>210.60000000000002</ele>
<time>2023-05-18T11:55:20Z</time>
</trkpt>
<trkpt lat="49.342407966032624" lon="7.99383295699954">
<ele>210.60000000000002</ele>
<time>2023-05-18T11:55:21Z</time>
</trkpt>
<trkpt lat="49.342449959367514" lon="7.993914932012558">
<ele>210.39999999999998</ele>
<time>2023-05-18T11:55:22Z</time>
</trkpt>
<trkpt lat="49.34248792938888" lon="7.993997996672988">
<ele>210.39999999999998</ele>
<time>2023-05-18T11:55:23Z</time>
</trkpt>
<trkpt lat="49.34252698905766" lon="7.994084917008877">
<ele>210.39999999999998</ele>
<time>2023-05-18T11:55:24Z</time>
</trkpt>
<trkpt lat="49.342561941593885" lon="7.994172926992178">
<ele>210.39999999999998</ele>
<time>2023-05-18T11:55:25Z</time>
</trkpt>
<trkpt lat="49.34259697794914" lon="7.99426194280386">
<ele>210.20000000000005</ele>
<time>2023-05-18T11:55:26Z</time>
</trkpt>
<trkpt lat="49.34263193048537" lon="7.994352970272303">
<ele>210.20000000000005</ele>
<time>2023-05-18T11:55:27Z</time>
</trkpt>
<trkpt lat="49.342666966840625" lon="7.994441986083984">
<ele>210.20000000000005</ele>
<time>2023-05-18T11:55:28Z</time>
</trkpt>
<trkpt lat="49.34269797988236" lon="7.994532929733396">
<ele>210.20000000000005</ele>
<time>2023-05-18T11:55:29Z</time>
</trkpt>
<trkpt lat="49.34272698126733" lon="7.994624963030219">
<ele>210.20000000000005</ele>
<time>2023-05-18T11:55:30Z</time>
</trkpt>
<trkpt lat="49.342754976823926" lon="7.994714984670281">
<ele>210.20000000000005</ele>
<time>2023-05-18T11:55:31Z</time>
</trkpt>
<trkpt lat="49.34278297238052" lon="7.994801988825202">
<ele>210</ele>
<time>2023-05-18T11:55:32Z</time>
</trkpt>
<trkpt lat="49.34281197376549" lon="7.994891926646233">
<ele>210</ele>
<time>2023-05-18T11:55:33Z</time>
</trkpt>
<trkpt lat="49.342836951836944" lon="7.994981948286295">
<ele>210</ele>
<time>2023-05-18T11:55:34Z</time>
</trkpt>
<trkpt lat="49.342862935736775" lon="7.995067946612835">
<ele>209.79999999999995</ele>
<time>2023-05-18T11:55:35Z</time>
</trkpt>
<trkpt lat="49.34288992546499" lon="7.995152939110994">
<ele>209.79999999999995</ele>
<time>2023-05-18T11:55:36Z</time>
</trkpt>
<trkpt lat="49.34291699901223" lon="7.995237931609154">
<ele>209.60000000000002</ele>
<time>2023-05-18T11:55:37Z</time>
</trkpt>
<trkpt lat="49.34293996542692" lon="7.995321918278933">
<ele>209.60000000000002</ele>
<time>2023-05-18T11:55:38Z</time>
</trkpt>
<trkpt lat="49.34296192601323" lon="7.995406994596124">
<ele>209.60000000000002</ele>
<time>2023-05-18T11:55:39Z</time>
</trkpt>
<trkpt lat="49.34298195876181" lon="7.995501961559057">
<ele>209.39999999999998</ele>
<time>2023-05-18T11:55:40Z</time>
</trkpt>
<trkpt lat="49.3430049251765" lon="7.9955849424004555">
<ele>209.39999999999998</ele>
<time>2023-05-18T11:55:41Z</time>
</trkpt>
<trkpt lat="49.34302696958184" lon="7.995666917413473">
<ele>209.20000000000005</ele>
<time>2023-05-18T11:55:42Z</time>
</trkpt>
<trkpt lat="49.34304792433977" lon="7.995749982073903">
<ele>209.20000000000005</ele>
<time>2023-05-18T11:55:43Z</time>
</trkpt>
<trkpt lat="49.343072986230254" lon="7.995826927945018">
<ele>209.20000000000005</ele>
<time>2023-05-18T11:55:44Z</time>
</trkpt>
<trkpt lat="49.34309997595847" lon="7.995902951806784">
<ele>209.20000000000005</ele>
<time>2023-05-18T11:55:45Z</time>
</trkpt>
<trkpt lat="49.343121936544776" lon="7.995987944304943">
<ele>209.20000000000005</ele>
<time>2023-05-18T11:55:46Z</time>
</trkpt>
<trkpt lat="49.34314792044461" lon="7.996071930974722">
<ele>209.20000000000005</ele>
<time>2023-05-18T11:55:47Z</time>
</trkpt>
<trkpt lat="49.34317499399185" lon="7.996157929301262">
<ele>209.20000000000005</ele>
<time>2023-05-18T11:55:48Z</time>
</trkpt>
<trkpt lat="49.3431999720633" lon="7.996246945112944">
<ele>209.20000000000005</ele>
<time>2023-05-18T11:55:49Z</time>
</trkpt>
<trkpt lat="49.34322293847799" lon="7.996332943439484">
<ele>209.20000000000005</ele>
<time>2023-05-18T11:55:50Z</time>
</trkpt>
<trkpt lat="49.343247916549444" lon="7.996419947594404">
<ele>209.20000000000005</ele>
<time>2023-05-18T11:55:51Z</time>
</trkpt>
<trkpt lat="49.343269960954785" lon="7.996501922607422">
<ele>209.20000000000005</ele>
<time>2023-05-18T11:55:52Z</time>
</trkpt>
<trkpt lat="49.343292927369475" lon="7.996582975611091">
<ele>209.20000000000005</ele>
<time>2023-05-18T11:55:53Z</time>
</trkpt>
<trkpt lat="49.34331698343158" lon="7.996661933138967">
<ele>209.20000000000005</ele>
<time>2023-05-18T11:55:54Z</time>
</trkpt>
<trkpt lat="49.34333994984627" lon="7.996739968657494">
<ele>209.20000000000005</ele>
<time>2023-05-18T11:55:55Z</time>
</trkpt>
<trkpt lat="49.34335998259485" lon="7.996817920356989">
<ele>209.20000000000005</ele>
<time>2023-05-18T11:55:56Z</time>
</trkpt>
<trkpt lat="49.343379931524396" lon="7.996891932561994">
<ele>209.20000000000005</ele>
<time>2023-05-18T11:55:57Z</time>
</trkpt>
<trkpt lat="49.34340298175812" lon="7.996964938938618">
<ele>209.20000000000005</ele>
<time>2023-05-18T11:55:58Z</time>
</trkpt>
<trkpt lat="49.343422930687666" lon="7.997036939486861">
<ele>209.20000000000005</ele>
<time>2023-05-18T11:55:59Z</time>
</trkpt>
<trkpt lat="49.343442963436246" lon="7.997106928378344">
<ele>209.20000000000005</ele>
<time>2023-05-18T11:56:00Z</time>
</trkpt>
<trkpt lat="49.343462996184826" lon="7.9971779230982065">
<ele>209.20000000000005</ele>
<time>2023-05-18T11:56:01Z</time>
</trkpt>
<trkpt lat="49.3434869684279" lon="7.997251935303211">
<ele>209.20000000000005</ele>
<time>2023-05-18T11:56:02Z</time>
</trkpt>
<trkpt lat="49.343507923185825" lon="7.997324941679835">
<ele>209.20000000000005</ele>
<time>2023-05-18T11:56:03Z</time>
</trkpt>
<trkpt lat="49.343526950106025" lon="7.997397948056459">
<ele>209.20000000000005</ele>
<time>2023-05-18T11:56:04Z</time>
</trkpt>
<trkpt lat="49.343546982854605" lon="7.997469948604703">
<ele>209.20000000000005</ele>
<time>2023-05-18T11:56:05Z</time>
</trkpt>
<trkpt lat="49.34356693178415" lon="7.9975419491529465">
<ele>209.20000000000005</ele>
<time>2023-05-18T11:56:06Z</time>
</trkpt>
<trkpt lat="49.34358696453273" lon="7.9976199846714735">
<ele>209.39999999999998</ele>
<time>2023-05-18T11:56:07Z</time>
</trkpt>
<trkpt lat="49.34360791929066" lon="7.997696930542588">
<ele>209.39999999999998</ele>
<time>2023-05-18T11:56:08Z</time>
</trkpt>
<trkpt lat="49.343631975352764" lon="7.9977719485759735">
<ele>209.39999999999998</ele>
<time>2023-05-18T11:56:09Z</time>
</trkpt>
<trkpt lat="49.34365293011069" lon="7.997844954952598">
<ele>209.39999999999998</ele>
<time>2023-05-18T11:56:10Z</time>
</trkpt>
<trkpt lat="49.343677992001176" lon="7.997916955500841">
<ele>209.60000000000002</ele>
<time>2023-05-18T11:56:11Z</time>
</trkpt>
<trkpt lat="49.343697940930724" lon="7.997989961877465">
<ele>209.60000000000002</ele>
<time>2023-05-18T11:56:12Z</time>
</trkpt>
<trkpt lat="49.343717973679304" lon="7.998061962425709">
<ele>209.79999999999995</ele>
<time>2023-05-18T11:56:13Z</time>
</trkpt>
<trkpt lat="49.34373792260885" lon="7.998132957145572">
<ele>209.79999999999995</ele>
<time>2023-05-18T11:56:14Z</time>
</trkpt>
<trkpt lat="49.34375996701419" lon="7.998202946037054">
<ele>210</ele>
<time>2023-05-18T11:56:15Z</time>
</trkpt>
<trkpt lat="49.34377999976277" lon="7.998271929100156">
<ele>210</ele>
<time>2023-05-18T11:56:16Z</time>
</trkpt>
<trkpt lat="49.34380296617746" lon="7.998337978497148">
<ele>210</ele>
<time>2023-05-18T11:56:17Z</time>
</trkpt>
<trkpt lat="49.34382492676377" lon="7.998406961560249">
<ele>210.20000000000005</ele>
<time>2023-05-18T11:56:18Z</time>
</trkpt>
<trkpt lat="49.34384495951235" lon="7.998477956280112">
<ele>210.20000000000005</ele>
<time>2023-05-18T11:56:19Z</time>
</trkpt>
<trkpt lat="49.34386499226093" lon="7.998551968485117">
<ele>210.20000000000005</ele>
<time>2023-05-18T11:56:20Z</time>
</trkpt>
<trkpt lat="49.34388494119048" lon="7.998626986518502">
<ele>210.20000000000005</ele>
<time>2023-05-18T11:56:21Z</time>
</trkpt>
<trkpt lat="49.34390497393906" lon="7.998701920732856">
<ele>210.39999999999998</ele>
<time>2023-05-18T11:56:22Z</time>
</trkpt>
<trkpt lat="49.34392492286861" lon="7.99877492710948">
<ele>210.39999999999998</ele>
<time>2023-05-18T11:56:23Z</time>
</trkpt>
<trkpt lat="49.34394495561719" lon="7.998849945142865">
<ele>210.39999999999998</ele>
<time>2023-05-18T11:56:24Z</time>
</trkpt>
<trkpt lat="49.34396297670901" lon="7.9989249631762505">
<ele>210.39999999999998</ele>
<time>2023-05-18T11:56:25Z</time>
</trkpt>
<trkpt lat="49.34398292563856" lon="7.998999981209636">
<ele>210.39999999999998</ele>
<time>2023-05-18T11:56:26Z</time>
</trkpt>
<trkpt lat="49.34400698170066" lon="7.9990769270807505">
<ele>210.39999999999998</ele>
<time>2023-05-18T11:56:27Z</time>
</trkpt>
<trkpt lat="49.34403195977211" lon="7.999151945114136">
<ele>210.39999999999998</ele>
<time>2023-05-18T11:56:28Z</time>
</trkpt>
<trkpt lat="49.34405794367194" lon="7.999226963147521">
<ele>210.39999999999998</ele>
<time>2023-05-18T11:56:29Z</time>
</trkpt>
<trkpt lat="49.344084933400154" lon="7.999299969524145">
<ele>210.39999999999998</ele>
<time>2023-05-18T11:56:30Z</time>
</trkpt>
<trkpt lat="49.34411292895675" lon="7.999372975900769">
<ele>210.39999999999998</ele>
<time>2023-05-18T11:56:31Z</time>
</trkpt>
<trkpt lat="49.34414494782686" lon="7.999446988105774">
<ele>210.60000000000002</ele>
<time>2023-05-18T11:56:32Z</time>
</trkpt>
<trkpt lat="49.34417797252536" lon="7.999517982825637">
<ele>210.60000000000002</ele>
<time>2023-05-18T11:56:33Z</time>
</trkpt>
<trkpt lat="49.34421292506158" lon="7.999587971717119">
<ele>210.60000000000002</ele>
<time>2023-05-18T11:56:34Z</time>
</trkpt>
<trkpt lat="49.34425198473036" lon="7.999656954780221">
<ele>210.60000000000002</ele>
<time>2023-05-18T11:56:35Z</time>
</trkpt>
<trkpt lat="49.34429297223687" lon="7.999722920358181">
<ele>210.60000000000002</ele>
<time>2023-05-18T11:56:36Z</time>
</trkpt>
<trkpt lat="49.34433496557176" lon="7.999786958098412">
<ele>210.60000000000002</ele>
<time>2023-05-18T11:56:37Z</time>
</trkpt>
<trkpt lat="49.34437796473503" lon="7.9998499900102615">
<ele>210.60000000000002</ele>
<time>2023-05-18T11:56:38Z</time>
</trkpt>
<trkpt lat="49.34442297555506" lon="7.999907992780209">
<ele>210.60000000000002</ele>
<time>2023-05-18T11:56:39Z</time>
</trkpt>
<trkpt lat="49.34446798637509" lon="7.999964989721775">
<ele>210.60000000000002</ele>
<time>2023-05-18T11:56:40Z</time>
</trkpt>
<trkpt lat="49.34450997970998" lon="8.000022992491722">
<ele>210.60000000000002</ele>
<time>2023-05-18T11:56:41Z</time>
</trkpt>
<trkpt lat="49.34455197304487" lon="8.000082923099399">
<ele>210.39999999999998</ele>
<time>2023-05-18T11:56:42Z</time>
</trkpt>
<trkpt lat="49.34459296055138" lon="8.000136986374855">
<ele>210.39999999999998</ele>
<time>2023-05-18T11:56:43Z</time>
</trkpt>
<trkpt lat="49.34463495388627" lon="8.0001899600029">
<ele>210.39999999999998</ele>
<time>2023-05-18T11:56:44Z</time>
</trkpt>
<trkpt lat="49.34467795304954" lon="8.000242933630943">
<ele>210.39999999999998</ele>
<time>2023-05-18T11:56:45Z</time>
</trkpt>
<trkpt lat="49.34472195804119" lon="8.00029993057251">
<ele>210.20000000000005</ele>
<time>2023-05-18T11:56:46Z</time>
</trkpt>
<trkpt lat="49.34475992806256" lon="8.000357933342457">
<ele>210.20000000000005</ele>
<time>2023-05-18T11:56:47Z</time>
</trkpt>
<trkpt lat="49.344796976074576" lon="8.000419959425926">
<ele>210</ele>
<time>2023-05-18T11:56:48Z</time>
</trkpt>
<trkpt lat="49.34482798911631" lon="8.000482991337776">
<ele>210</ele>
<time>2023-05-18T11:56:49Z</time>
</trkpt>
<trkpt lat="49.344861935824156" lon="8.000544933602214">
<ele>210</ele>
<time>2023-05-18T11:56:50Z</time>
</trkpt>
<trkpt lat="49.34489194303751" lon="8.000616934150457">
<ele>209.79999999999995</ele>
<time>2023-05-18T11:56:51Z</time>
</trkpt>
<trkpt lat="49.344921950250864" lon="8.00068692304194">
<ele>209.79999999999995</ele>
<time>2023-05-18T11:56:52Z</time>
</trkpt>
<trkpt lat="49.34494994580746" lon="8.000756995752454">
<ele>209.60000000000002</ele>
<time>2023-05-18T11:56:53Z</time>
</trkpt>
<trkpt lat="49.34497995302081" lon="8.000832935795188">
<ele>209.60000000000002</ele>
<time>2023-05-18T11:56:54Z</time>
</trkpt>
<trkpt lat="49.34500694274902" lon="8.000907953828573">
<ele>209.60000000000002</ele>
<time>2023-05-18T11:56:55Z</time>
</trkpt>
<trkpt lat="49.345031920820475" lon="8.000982971861959">
<ele>209.60000000000002</ele>
<time>2023-05-18T11:56:56Z</time>
</trkpt>
<trkpt lat="49.34504994191229" lon="8.00105296075344">
<ele>209.60000000000002</ele>
<time>2023-05-18T11:56:57Z</time>
</trkpt>
<trkpt lat="49.34506494551897" lon="8.001121943816543">
<ele>209.60000000000002</ele>
<time>2023-05-18T11:56:58Z</time>
</trkpt>
<trkpt lat="49.34507994912565" lon="8.001189921051264">
<ele>209.60000000000002</ele>
<time>2023-05-18T11:56:59Z</time>
</trkpt>
<trkpt lat="49.34509294107556" lon="8.001257982105017">
<ele>209.60000000000002</ele>
<time>2023-05-18T11:57:00Z</time>
</trkpt>
<trkpt lat="49.3451049271971" lon="8.001324953511357">
<ele>209.60000000000002</ele>
<time>2023-05-18T11:57:01Z</time>
</trkpt>
<trkpt lat="49.34511297382414" lon="8.001392930746078">
<ele>209.39999999999998</ele>
<time>2023-05-18T11:57:02Z</time>
</trkpt>
<trkpt lat="49.345117919147015" lon="8.00146291963756">
<ele>209.39999999999998</ele>
<time>2023-05-18T11:57:03Z</time>
</trkpt>
<trkpt lat="49.345119930803776" lon="8.001527963206172">
<ele>209.39999999999998</ele>
<time>2023-05-18T11:57:04Z</time>
</trkpt>
<trkpt lat="49.34511297382414" lon="8.001592922955751">
<ele>209.39999999999998</ele>
<time>2023-05-18T11:57:05Z</time>
</trkpt>
<trkpt lat="49.34509998187423" lon="8.001656960695982">
<ele>209.39999999999998</ele>
<time>2023-05-18T11:57:06Z</time>
</trkpt>
<trkpt lat="49.345077937468886" lon="8.001711945980787">
<ele>209.39999999999998</ele>
<time>2023-05-18T11:57:07Z</time>
</trkpt>
<trkpt lat="49.34505698271096" lon="8.001761985942721">
<ele>209.39999999999998</ele>
<time>2023-05-18T11:57:08Z</time>
</trkpt>
<trkpt lat="49.345029992982745" lon="8.001807918772101">
<ele>209.20000000000005</ele>
<time>2023-05-18T11:57:09Z</time>
</trkpt>
<trkpt lat="49.3450029194355" lon="8.001847984269261">
<ele>209.20000000000005</ele>
<time>2023-05-18T11:57:10Z</time>
</trkpt>
<trkpt lat="49.3449719902128" lon="8.001879919320345">
<ele>209.20000000000005</ele>
<time>2023-05-18T11:57:11Z</time>
</trkpt>
<trkpt lat="49.34493997134268" lon="8.001909926533699">
<ele>209</ele>
<time>2023-05-18T11:57:12Z</time>
</trkpt>
<trkpt lat="49.34490694664419" lon="8.001941945403814">
<ele>209</ele>
<time>2023-05-18T11:57:13Z</time>
</trkpt>
<trkpt lat="49.3448699824512" lon="8.001967929303646">
<ele>209</ele>
<time>2023-05-18T11:57:14Z</time>
</trkpt>
<trkpt lat="49.34483293443918" lon="8.001987962052226">
<ele>209.20000000000005</ele>
<time>2023-05-18T11:57:15Z</time>
</trkpt>
<trkpt lat="49.34479194693267" lon="8.002002965658903">
<ele>209.20000000000005</ele>
<time>2023-05-18T11:57:16Z</time>
</trkpt>
<trkpt lat="49.34474794194102" lon="8.002011934295297">
<ele>209.20000000000005</ele>
<time>2023-05-18T11:57:17Z</time>
</trkpt>
<trkpt lat="49.344706954434514" lon="8.002019980922341">
<ele>209.20000000000005</ele>
<time>2023-05-18T11:57:18Z</time>
</trkpt>
<trkpt lat="49.344664961099625" lon="8.002024926245213">
<ele>209.20000000000005</ele>
<time>2023-05-18T11:57:19Z</time>
</trkpt>
<trkpt lat="49.344622967764735" lon="8.002027943730354">
<ele>209.20000000000005</ele>
<time>2023-05-18T11:57:20Z</time>
</trkpt>
<trkpt lat="49.344581980258226" lon="8.002026937901974">
<ele>209.39999999999998</ele>
<time>2023-05-18T11:57:21Z</time>
</trkpt>
<trkpt lat="49.34454292058945" lon="8.002024926245213">
<ele>209.39999999999998</ele>
<time>2023-05-18T11:57:22Z</time>
</trkpt>
<trkpt lat="49.34450495056808" lon="8.002019980922341">
<ele>209.60000000000002</ele>
<time>2023-05-18T11:57:23Z</time>
</trkpt>
<trkpt lat="49.34446496888995" lon="8.002009922638535">
<ele>209.60000000000002</ele>
<time>2023-05-18T11:57:24Z</time>
</trkpt>
<trkpt lat="49.34442297555506" lon="8.001991985365748">
<ele>209.79999999999995</ele>
<time>2023-05-18T11:57:25Z</time>
</trkpt>
<trkpt lat="49.344382993876934" lon="8.001969940960407">
<ele>210</ele>
<time>2023-05-18T11:57:26Z</time>
</trkpt>
<trkpt lat="49.34434192255139" lon="8.001947980374098">
<ele>210</ele>
<time>2023-05-18T11:57:27Z</time>
</trkpt>
<trkpt lat="49.344299929216504" lon="8.001927947625518">
<ele>210.20000000000005</ele>
<time>2023-05-18T11:57:28Z</time>
</trkpt>
<trkpt lat="49.344256930053234" lon="8.00190799869597">
<ele>210.20000000000005</ele>
<time>2023-05-18T11:57:29Z</time>
</trkpt>
<trkpt lat="49.344214936718345" lon="8.00188796594739">
<ele>210.20000000000005</ele>
<time>2023-05-18T11:57:30Z</time>
</trkpt>
<trkpt lat="49.34417797252536" lon="8.00186994485557">
<ele>210.20000000000005</ele>
<time>2023-05-18T11:57:31Z</time>
</trkpt>
<trkpt lat="49.34413991868496" lon="8.001851923763752">
<ele>210.20000000000005</ele>
<time>2023-05-18T11:57:32Z</time>
</trkpt>
<trkpt lat="49.34410295449197" lon="8.001837925985456">
<ele>210.20000000000005</ele>
<time>2023-05-18T11:57:33Z</time>
</trkpt>
<trkpt lat="49.34406992979348" lon="8.001821916550398">
<ele>210.20000000000005</ele>
<time>2023-05-18T11:57:34Z</time>
</trkpt>
<trkpt lat="49.344041934236884" lon="8.00180196762085">
<ele>210.20000000000005</ele>
<time>2023-05-18T11:57:35Z</time>
</trkpt>
<trkpt lat="49.34400798752904" lon="8.001784952357411">
<ele>210.20000000000005</ele>
<time>2023-05-18T11:57:36Z</time>
</trkpt>
<trkpt lat="49.343976974487305" lon="8.001769948750734">
<ele>210.20000000000005</ele>
<time>2023-05-18T11:57:37Z</time>
</trkpt>
<trkpt lat="49.343936992809176" lon="8.001756956800818">
<ele>210.20000000000005</ele>
<time>2023-05-18T11:57:38Z</time>
</trkpt>
<trkpt lat="49.343891981989145" lon="8.001737929880619">
<ele>210.20000000000005</ele>
<time>2023-05-18T11:57:39Z</time>
</trkpt>
<trkpt lat="49.343846971169114" lon="8.001706916838884">
<ele>210.20000000000005</ele>
<time>2023-05-18T11:57:40Z</time>
</trkpt>
<trkpt lat="49.343804977834225" lon="8.001686967909336">
<ele>210.20000000000005</ele>
<time>2023-05-18T11:57:41Z</time>
</trkpt>
<trkpt lat="49.343766923993826" lon="8.001667940989137">
<ele>210.20000000000005</ele>
<time>2023-05-18T11:57:42Z</time>
</trkpt>
<trkpt lat="49.3437319714576" lon="8.001649919897318">
<ele>210.20000000000005</ele>
<time>2023-05-18T11:57:43Z</time>
</trkpt>
<trkpt lat="49.34368796646595" lon="8.001636927947402">
<ele>210.20000000000005</ele>
<time>2023-05-18T11:57:44Z</time>
</trkpt>
<trkpt lat="49.343656953424215" lon="8.001622930169106">
<ele>210.20000000000005</ele>
<time>2023-05-18T11:57:45Z</time>
</trkpt>
<trkpt lat="49.34362191706896" lon="8.001607926562428">
<ele>210.20000000000005</ele>
<time>2023-05-18T11:57:46Z</time>
</trkpt>
<trkpt lat="49.34358495287597" lon="8.001594934612513">
<ele>210.20000000000005</ele>
<time>2023-05-18T11:57:47Z</time>
</trkpt>
<trkpt lat="49.343547988682985" lon="8.001582948490977">
<ele>210.39999999999998</ele>
<time>2023-05-18T11:57:48Z</time>
</trkpt>
<trkpt lat="49.343504989519715" lon="8.001577919349074">
<ele>210.39999999999998</ele>
<time>2023-05-18T11:57:49Z</time>
</trkpt>
<trkpt lat="49.34345293790102" lon="8.001577919349074">
<ele>210.39999999999998</ele>
<time>2023-05-18T11:57:50Z</time>
</trkpt>
<trkpt lat="49.34340692125261" lon="8.001579931005836">
<ele>210.60000000000002</ele>
<time>2023-05-18T11:57:51Z</time>
</trkpt>
<trkpt lat="49.34335797093809" lon="8.001577919349074">
<ele>210.60000000000002</ele>
<time>2023-05-18T11:57:52Z</time>
</trkpt>
<trkpt lat="49.343311954289675" lon="8.001579931005836">
<ele>210.60000000000002</ele>
<time>2023-05-18T11:57:53Z</time>
</trkpt>
<trkpt lat="49.34326292015612" lon="8.001584960147738">
<ele>210.79999999999995</ele>
<time>2023-05-18T11:57:54Z</time>
</trkpt>
<trkpt lat="49.343227967619896" lon="8.00158797763288">
<ele>210.79999999999995</ele>
<time>2023-05-18T11:57:55Z</time>
</trkpt>
<trkpt lat="49.343182956799865" lon="8.00159191712737">
<ele>211</ele>
<time>2023-05-18T11:57:56Z</time>
</trkpt>
<trkpt lat="49.34313492849469" lon="8.001597952097654">
<ele>211</ele>
<time>2023-05-18T11:57:57Z</time>
</trkpt>
<trkpt lat="49.343094946816564" lon="8.001601975411177">
<ele>211</ele>
<time>2023-05-18T11:57:58Z</time>
</trkpt>
<trkpt lat="49.343054965138435" lon="8.001601975411177">
<ele>211.20000000000005</ele>
<time>2023-05-18T11:57:59Z</time>
</trkpt>
<trkpt lat="49.34300693683326" lon="8.001599963754416">
<ele>211.39999999999998</ele>
<time>2023-05-18T11:58:00Z</time>
</trkpt>
<trkpt lat="49.34296192601323" lon="8.001599963754416">
<ele>211.39999999999998</ele>
<time>2023-05-18T11:58:01Z</time>
</trkpt>
<trkpt lat="49.34291196987033" lon="8.001592922955751">
<ele>211.60000000000002</ele>
<time>2023-05-18T11:58:02Z</time>
</trkpt>
<trkpt lat="49.342861929908395" lon="8.001582948490977">
<ele>211.60000000000002</ele>
<time>2023-05-18T11:58:03Z</time>
</trkpt>
<trkpt lat="49.342816919088364" lon="8.001561993733048">
<ele>211.79999999999995</ele>
<time>2023-05-18T11:58:04Z</time>
</trkpt>
<trkpt lat="49.3427699804306" lon="8.001547995954752">
<ele>212</ele>
<time>2023-05-18T11:58:05Z</time>
</trkpt>
<trkpt lat="49.34272195212543" lon="8.001534920185804">
<ele>212</ele>
<time>2023-05-18T11:58:06Z</time>
</trkpt>
<trkpt lat="49.34267995879054" lon="8.001519916579127">
<ele>212</ele>
<time>2023-05-18T11:58:07Z</time>
</trkpt>
<trkpt lat="49.34263997711241" lon="8.001507930457592">
<ele>212.20000000000005</ele>
<time>2023-05-18T11:58:08Z</time>
</trkpt>
<trkpt lat="49.34260695241392" lon="8.001486975699663">
<ele>212.20000000000005</ele>
<time>2023-05-18T11:58:09Z</time>
</trkpt>
<trkpt lat="49.342581974342465" lon="8.001464931294322">
<ele>212.39999999999998</ele>
<time>2023-05-18T11:58:10Z</time>
</trkpt>
<trkpt lat="49.34254199266434" lon="8.001447999849916">
<ele>212.39999999999998</ele>
<time>2023-05-18T11:58:11Z</time>
</trkpt>
<trkpt lat="49.34249798767269" lon="8.001432996243238">
<ele>212.60000000000002</ele>
<time>2023-05-18T11:58:12Z</time>
</trkpt>
<trkpt lat="49.342456916347146" lon="8.001417992636561">
<ele>212.60000000000002</ele>
<time>2023-05-18T11:58:13Z</time>
</trkpt>
<trkpt lat="49.34241995215416" lon="8.001409946009517">
<ele>212.79999999999995</ele>
<time>2023-05-18T11:58:14Z</time>
</trkpt>
<trkpt lat="49.342386927455664" lon="8.001404916867614">
<ele>212.79999999999995</ele>
<time>2023-05-18T11:58:15Z</time>
</trkpt>
<trkpt lat="49.342347951605916" lon="8.00139494240284">
<ele>213</ele>
<time>2023-05-18T11:58:16Z</time>
</trkpt>
<trkpt lat="49.34233194217086" lon="8.001367952674627">
<ele>213.20000000000005</ele>
<time>2023-05-18T11:58:17Z</time>
</trkpt>
<trkpt lat="49.34229196049273" lon="8.001362923532724">
<ele>213.20000000000005</ele>
<time>2023-05-18T11:58:18Z</time>
</trkpt>
<trkpt lat="49.342257929965854" lon="8.001362923532724">
<ele>213.39999999999998</ele>
<time>2023-05-18T11:58:19Z</time>
</trkpt>
<trkpt lat="49.342214930802584" lon="8.00137298181653">
<ele>213.60000000000002</ele>
<time>2023-05-18T11:58:20Z</time>
</trkpt>
<trkpt lat="49.342172937467694" lon="8.00137692131102">
<ele>213.60000000000002</ele>
<time>2023-05-18T11:58:21Z</time>
</trkpt>
<trkpt lat="49.34213697910309" lon="8.00137298181653">
<ele>213.79999999999995</ele>
<time>2023-05-18T11:58:22Z</time>
</trkpt>
<trkpt lat="49.342082999646664" lon="8.001369964331388">
<ele>214</ele>
<time>2023-05-18T11:58:23Z</time>
</trkpt>
<trkpt lat="49.34204192832112" lon="8.001362923532724">
<ele>214</ele>
<time>2023-05-18T11:58:24Z</time>
</trkpt>
<trkpt lat="49.342002952471375" lon="8.001362923532724">
<ele>214</ele>
<time>2023-05-18T11:58:25Z</time>
</trkpt>
<trkpt lat="49.34196196496487" lon="8.001362923532724">
<ele>214.20000000000005</ele>
<time>2023-05-18T11:58:26Z</time>
</trkpt>
<trkpt lat="49.34191293083131" lon="8.00135294906795">
<ele>214.39999999999998</ele>
<time>2023-05-18T11:58:27Z</time>
</trkpt>
<trkpt lat="49.34186498634517" lon="8.001341968774796">
<ele>214.39999999999998</ele>
<time>2023-05-18T11:58:28Z</time>
</trkpt>
<trkpt lat="49.34183296747506" lon="8.001326965168118">
<ele>214.60000000000002</ele>
<time>2023-05-18T11:58:29Z</time>
</trkpt>
<trkpt lat="49.341807989403605" lon="8.001314979046583">
<ele>214.60000000000002</ele>
<time>2023-05-18T11:58:30Z</time>
</trkpt>
<trkpt lat="49.34177194721997" lon="8.001297963783145">
<ele>214.79999999999995</ele>
<time>2023-05-18T11:58:31Z</time>
</trkpt>
<trkpt lat="49.34172794222832" lon="8.001296957954764">
<ele>214.79999999999995</ele>
<time>2023-05-18T11:58:32Z</time>
</trkpt>
<trkpt lat="49.34168997220695" lon="8.001292934641242">
<ele>215</ele>
<time>2023-05-18T11:58:33Z</time>
</trkpt>
<trkpt lat="49.34164294973016" lon="8.001294946298003">
<ele>215</ele>
<time>2023-05-18T11:58:34Z</time>
</trkpt>
<trkpt lat="49.341596933081746" lon="8.001284971833229">
<ele>215.20000000000005</ele>
<time>2023-05-18T11:58:35Z</time>
</trkpt>
<trkpt lat="49.34155695140362" lon="8.001274997368455">
<ele>215.39999999999998</ele>
<time>2023-05-18T11:58:36Z</time>
</trkpt>
<trkpt lat="49.34151294641197" lon="8.001264939084649">
<ele>215.39999999999998</ele>
<time>2023-05-18T11:58:37Z</time>
</trkpt>
<trkpt lat="49.341462990269065" lon="8.001256976276636">
<ele>215.60000000000002</ele>
<time>2023-05-18T11:58:38Z</time>
</trkpt>
<trkpt lat="49.34141496196389" lon="8.00124792382121">
<ele>215.60000000000002</ele>
<time>2023-05-18T11:58:39Z</time>
</trkpt>
<trkpt lat="49.34136995114386" lon="8.001251947134733">
<ele>215.79999999999995</ele>
<time>2023-05-18T11:58:40Z</time>
</trkpt>
<trkpt lat="49.341337932273746" lon="8.001254964619875">
<ele>216</ele>
<time>2023-05-18T11:58:41Z</time>
</trkpt>
<trkpt lat="49.34130499139428" lon="8.001254964619875">
<ele>216</ele>
<time>2023-05-18T11:58:42Z</time>
</trkpt>
<trkpt lat="49.34126794338226" lon="8.001241972669959">
<ele>216.20000000000005</ele>
<time>2023-05-18T11:58:43Z</time>
</trkpt>
<trkpt lat="49.34123693034053" lon="8.001226969063282">
<ele>216.20000000000005</ele>
<time>2023-05-18T11:58:44Z</time>
</trkpt>
<trkpt lat="49.341202983632684" lon="8.001219928264618">
<ele>216.39999999999998</ele>
<time>2023-05-18T11:58:45Z</time>
</trkpt>
<trkpt lat="49.34116995893419" lon="8.001219928264618">
<ele>216.39999999999998</ele>
<time>2023-05-18T11:58:46Z</time>
</trkpt>
<trkpt lat="49.34113794006407" lon="8.001219928264618">
<ele>216.39999999999998</ele>
<time>2023-05-18T11:58:47Z</time>
</trkpt>
<trkpt lat="49.34110198169947" lon="8.001216994598508">
<ele>216.60000000000002</ele>
<time>2023-05-18T11:58:48Z</time>
</trkpt>
<trkpt lat="49.34106694534421" lon="8.001212971284986">
<ele>216.60000000000002</ele>
<time>2023-05-18T11:58:49Z</time>
</trkpt>
<trkpt lat="49.341039955616" lon="8.001212971284986">
<ele>216.79999999999995</ele>
<time>2023-05-18T11:58:50Z</time>
</trkpt>
<trkpt lat="49.341014977544546" lon="8.001221939921379">
<ele>216.79999999999995</ele>
<time>2023-05-18T11:58:51Z</time>
</trkpt>
<trkpt lat="49.340991927310824" lon="8.001234931871295">
<ele>217</ele>
<time>2023-05-18T11:58:52Z</time>
</trkpt>
<trkpt lat="49.34095798060298" lon="8.001259993761778">
<ele>217</ele>
<time>2023-05-18T11:58:53Z</time>
</trkpt>
<trkpt lat="49.34093199670315" lon="8.001276925206184">
<ele>217.20000000000005</ele>
<time>2023-05-18T11:58:54Z</time>
</trkpt>
<trkpt lat="49.34089997783303" lon="8.00128798931837">
<ele>217.20000000000005</ele>
<time>2023-05-18T11:58:55Z</time>
</trkpt>
<trkpt lat="49.340859996154904" lon="8.001307938247919">
<ele>217.39999999999998</ele>
<time>2023-05-18T11:58:56Z</time>
</trkpt>
<trkpt lat="49.34082495979965" lon="8.00135194323957">
<ele>217.39999999999998</ele>
<time>2023-05-18T11:58:57Z</time>
</trkpt>
<trkpt lat="49.340796964243054" lon="8.001387985423207">
<ele>217.60000000000002</ele>
<time>2023-05-18T11:58:58Z</time>
</trkpt>
<trkpt lat="49.34076494537294" lon="8.001411957666278">
<ele>217.60000000000002</ele>
<time>2023-05-18T11:58:59Z</time>
</trkpt>
<trkpt lat="49.340736949816346" lon="8.001429978758097">
<ele>217.60000000000002</ele>
<time>2023-05-18T11:59:00Z</time>
</trkpt>
<trkpt lat="49.34070493094623" lon="8.001454956829548">
<ele>217.79999999999995</ele>
<time>2023-05-18T11:59:01Z</time>
</trkpt>
<trkpt lat="49.34067492373288" lon="8.001477923244238">
<ele>217.79999999999995</ele>
<time>2023-05-18T11:59:02Z</time>
</trkpt>
<trkpt lat="49.34064491651952" lon="8.001497955992818">
<ele>217.79999999999995</ele>
<time>2023-05-18T11:59:03Z</time>
</trkpt>
<trkpt lat="49.34061993844807" lon="8.001516982913017">
<ele>218</ele>
<time>2023-05-18T11:59:04Z</time>
</trkpt>
<trkpt lat="49.340606946498156" lon="8.001541960984468">
<ele>218</ele>
<time>2023-05-18T11:59:05Z</time>
</trkpt>
<trkpt lat="49.340582974255085" lon="8.001564927399158">
<ele>218</ele>
<time>2023-05-18T11:59:06Z</time>
</trkpt>
<trkpt lat="49.340561935678124" lon="8.00158797763288">
<ele>218.20000000000005</ele>
<time>2023-05-18T11:59:07Z</time>
</trkpt>
<trkpt lat="49.340537963435054" lon="8.001606920734048">
<ele>218.20000000000005</ele>
<time>2023-05-18T11:59:08Z</time>
</trkpt>
<trkpt lat="49.3405129853636" lon="8.001622930169106">
<ele>218.20000000000005</ele>
<time>2023-05-18T11:59:09Z</time>
</trkpt>
<trkpt lat="49.34049194678664" lon="8.001637933775783">
<ele>218.39999999999998</ele>
<time>2023-05-18T11:59:10Z</time>
</trkpt>
<trkpt lat="49.340471997857094" lon="8.001649919897318">
<ele>218.39999999999998</ele>
<time>2023-05-18T11:59:11Z</time>
</trkpt>
<trkpt lat="49.340451965108514" lon="8.001669952645898">
<ele>218.39999999999998</ele>
<time>2023-05-18T11:59:12Z</time>
</trkpt>
<trkpt lat="49.340431932359934" lon="8.001691997051239">
<ele>218.39999999999998</ele>
<time>2023-05-18T11:59:13Z</time>
</trkpt>
<trkpt lat="49.34040192514658" lon="8.001714963465929">
<ele>218.60000000000002</ele>
<time>2023-05-18T11:59:14Z</time>
</trkpt>
<trkpt lat="49.340371917933226" lon="8.001736924052238">
<ele>218.60000000000002</ele>
<time>2023-05-18T11:59:15Z</time>
</trkpt>
<trkpt lat="49.340346939861774" lon="8.001764919608831">
<ele>218.60000000000002</ele>
<time>2023-05-18T11:59:16Z</time>
</trkpt>
<trkpt lat="49.34031693264842" lon="8.001791993156075">
<ele>218.60000000000002</ele>
<time>2023-05-18T11:59:17Z</time>
</trkpt>
<trkpt lat="49.340286925435066" lon="8.001817977055907">
<ele>218.79999999999995</ele>
<time>2023-05-18T11:59:18Z</time>
</trkpt>
<trkpt lat="49.34025691822171" lon="8.001842955127358">
<ele>218.79999999999995</ele>
<time>2023-05-18T11:59:19Z</time>
</trkpt>
<trkpt lat="49.3402299284935" lon="8.00186994485557">
<ele>218.79999999999995</ele>
<time>2023-05-18T11:59:20Z</time>
</trkpt>
<trkpt lat="49.34020495042205" lon="8.001894922927022">
<ele>219</ele>
<time>2023-05-18T11:59:21Z</time>
</trkpt>
<trkpt lat="49.340174943208694" lon="8.001916967332363">
<ele>219</ele>
<time>2023-05-18T11:59:22Z</time>
</trkpt>
<trkpt lat="49.34014493599534" lon="8.001942951232195">
<ele>219</ele>
<time>2023-05-18T11:59:23Z</time>
</trkpt>
<trkpt lat="49.34011694043875" lon="8.001964995637536">
<ele>219</ele>
<time>2023-05-18T11:59:24Z</time>
</trkpt>
<trkpt lat="49.34008693322539" lon="8.001989973708987">
<ele>219.20000000000005</ele>
<time>2023-05-18T11:59:25Z</time>
</trkpt>
<trkpt lat="49.34005692601204" lon="8.002019980922341">
<ele>219.20000000000005</ele>
<time>2023-05-18T11:59:26Z</time>
</trkpt>
<trkpt lat="49.340024990960956" lon="8.002051999792457">
<ele>219.20000000000005</ele>
<time>2023-05-18T11:59:27Z</time>
</trkpt>
<trkpt lat="49.33999699540436" lon="8.00208292901516">
<ele>219.39999999999998</ele>
<time>2023-05-18T11:59:28Z</time>
</trkpt>
<trkpt lat="49.33997293934226" lon="8.002116959542036">
<ele>219.39999999999998</ele>
<time>2023-05-18T11:59:29Z</time>
</trkpt>
<trkpt lat="49.33995491825044" lon="8.002144955098629">
<ele>219.39999999999998</ele>
<time>2023-05-18T11:59:30Z</time>
</trkpt>
<trkpt lat="49.339919965714216" lon="8.002194995060563">
<ele>219.60000000000002</ele>
<time>2023-05-18T11:59:31Z</time>
</trkpt>
<trkpt lat="49.33988995850086" lon="8.002227935940027">
<ele>219.60000000000002</ele>
<time>2023-05-18T11:59:32Z</time>
</trkpt>
<trkpt lat="49.33986296877265" lon="8.002271940931678">
<ele>219.60000000000002</ele>
<time>2023-05-18T11:59:33Z</time>
</trkpt>
<trkpt lat="49.339831955730915" lon="8.002306977286935">
<ele>219.79999999999995</ele>
<time>2023-05-18T11:59:34Z</time>
</trkpt>
<trkpt lat="49.3397999368608" lon="8.002339918166399">
<ele>219.79999999999995</ele>
<time>2023-05-18T11:59:35Z</time>
</trkpt>
<trkpt lat="49.33977294713259" lon="8.002367997542024">
<ele>219.79999999999995</ele>
<time>2023-05-18T11:59:36Z</time>
</trkpt>
<trkpt lat="49.33975492604077" lon="8.00240496173501">
<ele>219.79999999999995</ele>
<time>2023-05-18T11:59:37Z</time>
</trkpt>
<trkpt lat="49.33973992243409" lon="8.002451984211802">
<ele>220</ele>
<time>2023-05-18T11:59:38Z</time>
</trkpt>
<trkpt lat="49.339721985161304" lon="8.00249196588993">
<ele>220</ele>
<time>2023-05-18T11:59:39Z</time>
</trkpt>
<trkpt lat="49.339702958241105" lon="8.002531947568059">
<ele>220</ele>
<time>2023-05-18T11:59:40Z</time>
</trkpt>
<trkpt lat="49.339681919664145" lon="8.002574946731329">
<ele>220</ele>
<time>2023-05-18T11:59:41Z</time>
</trkpt>
<trkpt lat="49.339659959077835" lon="8.002616940066218">
<ele>220</ele>
<time>2023-05-18T11:59:42Z</time>
</trkpt>
<trkpt lat="49.33964696712792" lon="8.002657927572727">
<ele>220</ele>
<time>2023-05-18T11:59:43Z</time>
</trkpt>
<trkpt lat="49.33961997739971" lon="8.002711990848184">
<ele>220</ele>
<time>2023-05-18T11:59:44Z</time>
</trkpt>
<trkpt lat="49.33960497379303" lon="8.002761946991086">
<ele>220</ele>
<time>2023-05-18T11:59:45Z</time>
</trkpt>
<trkpt lat="49.339591981843114" lon="8.002806957811117">
<ele>220</ele>
<time>2023-05-18T11:59:46Z</time>
</trkpt>
<trkpt lat="49.33957798406482" lon="8.002856997773051">
<ele>220</ele>
<time>2023-05-18T11:59:47Z</time>
</trkpt>
<trkpt lat="49.33956298045814" lon="8.002911983057857">
<ele>220</ele>
<time>2023-05-18T11:59:48Z</time>
</trkpt>
<trkpt lat="49.339552922174335" lon="8.002952970564365">
<ele>220</ele>
<time>2023-05-18T11:59:49Z</time>
</trkpt>
<trkpt lat="49.33953993022442" lon="8.003002926707268">
<ele>220</ele>
<time>2023-05-18T11:59:50Z</time>
</trkpt>
<trkpt lat="49.33952492661774" lon="8.003042992204428">
<ele>220</ele>
<time>2023-05-18T11:59:51Z</time>
</trkpt>
<trkpt lat="49.33951495215297" lon="8.003072999417782">
<ele>220</ele>
<time>2023-05-18T11:59:52Z</time>
</trkpt>
<trkpt lat="49.339511934667826" lon="8.003106946125627">
<ele>220.20000000000005</ele>
<time>2023-05-18T11:59:53Z</time>
</trkpt>
<trkpt lat="49.339507995173335" lon="8.00313695333898">
<ele>220.20000000000005</ele>
<time>2023-05-18T11:59:54Z</time>
</trkpt>
<trkpt lat="49.33950497768819" lon="8.003167966380715">
<ele>220.20000000000005</ele>
<time>2023-05-18T11:59:55Z</time>
</trkpt>
<trkpt lat="49.339507995173335" lon="8.00319998525083">
<ele>220.20000000000005</ele>
<time>2023-05-18T11:59:56Z</time>
</trkpt>
<trkpt lat="49.33950497768819" lon="8.003234937787056">
<ele>220.20000000000005</ele>
<time>2023-05-18T11:59:57Z</time>
</trkpt>
<trkpt lat="49.33949994854629" lon="8.00328497774899">
<ele>220.20000000000005</ele>
<time>2023-05-18T11:59:58Z</time>
</trkpt>
<trkpt lat="49.33949994854629" lon="8.003334933891892">
<ele>220.20000000000005</ele>
<time>2023-05-18T11:59:59Z</time>
</trkpt>
<trkpt lat="49.33949491940439" lon="8.003381956368685">
<ele>220.39999999999998</ele>
<time>2023-05-18T12:00:00Z</time>
</trkpt>
<trkpt lat="49.339486956596375" lon="8.003424955531955">
<ele>220.39999999999998</ele>
<time>2023-05-18T12:00:01Z</time>
</trkpt>
<trkpt lat="49.33947798795998" lon="8.003462925553322">
<ele>220.39999999999998</ele>
<time>2023-05-18T12:00:02Z</time>
</trkpt>
<trkpt lat="49.3394719529897" lon="8.003506930544972">
<ele>220.39999999999998</ele>
<time>2023-05-18T12:00:03Z</time>
</trkpt>
<trkpt lat="49.339464996010065" lon="8.003546996042132">
<ele>220.39999999999998</ele>
<time>2023-05-18T12:00:04Z</time>
</trkpt>
<trkpt lat="49.33945694938302" lon="8.003592928871512">
<ele>220.60000000000002</ele>
<time>2023-05-18T12:00:05Z</time>
</trkpt>
<trkpt lat="49.33944999240339" lon="8.00362997688353">
<ele>220.60000000000002</ele>
<time>2023-05-18T12:00:06Z</time>
</trkpt>
<trkpt lat="49.33943792246282" lon="8.003674987703562">
<ele>220.60000000000002</ele>
<time>2023-05-18T12:00:07Z</time>
</trkpt>
<trkpt lat="49.339419985190034" lon="8.003724943846464">
<ele>220.60000000000002</ele>
<time>2023-05-18T12:00:08Z</time>
</trkpt>
<trkpt lat="49.33940992690623" lon="8.003774983808398">
<ele>220.60000000000002</ele>
<time>2023-05-18T12:00:09Z</time>
</trkpt>
<trkpt lat="49.339401964098215" lon="8.00382292829454">
<ele>220.60000000000002</ele>
<time>2023-05-18T12:00:10Z</time>
</trkpt>
<trkpt lat="49.33939198963344" lon="8.003864921629429">
<ele>220.60000000000002</ele>
<time>2023-05-18T12:00:11Z</time>
</trkpt>
<trkpt lat="49.339382937178016" lon="8.003901969641447">
<ele>220.60000000000002</ele>
<time>2023-05-18T12:00:12Z</time>
</trkpt>
<trkpt lat="49.339377991855145" lon="8.003931976854801">
<ele>220.60000000000002</ele>
<time>2023-05-18T12:00:13Z</time>
</trkpt>
<trkpt lat="49.3393699452281" lon="8.003954943269491">
<ele>220.60000000000002</ele>
<time>2023-05-18T12:00:14Z</time>
</trkpt>
<trkpt lat="49.33936692774296" lon="8.003966929391026">
<ele>220.60000000000002</ele>
<time>2023-05-18T12:00:15Z</time>
</trkpt>
<trkpt lat="49.339336920529604" lon="8.004011940211058">
<ele>221.20000000000005</ele>
<time>2023-05-18T12:00:19Z</time>
</trkpt>
<trkpt lat="49.3393199890852" lon="8.00403499044478">
<ele>221.20000000000005</ele>
<time>2023-05-18T12:00:20Z</time>
</trkpt>
<trkpt lat="49.33930297382176" lon="8.004066925495863">
<ele>221.39999999999998</ele>
<time>2023-05-18T12:00:21Z</time>
</trkpt>
<trkpt lat="49.3392869643867" lon="8.004111936315894">
<ele>221.39999999999998</ele>
<time>2023-05-18T12:00:22Z</time>
</trkpt>
<trkpt lat="49.3392679374665" lon="8.004161976277828">
<ele>221.39999999999998</ele>
<time>2023-05-18T12:00:23Z</time>
</trkpt>
<trkpt lat="49.339252933859825" lon="8.00421193242073">
<ele>221.39999999999998</ele>
<time>2023-05-18T12:00:24Z</time>
</trkpt>
<trkpt lat="49.33924991637468" lon="8.004269935190678">
<ele>221.60000000000002</ele>
<time>2023-05-18T12:00:25Z</time>
</trkpt>
<trkpt lat="49.339252933859825" lon="8.004322992637753">
<ele>221.60000000000002</ele>
<time>2023-05-18T12:00:26Z</time>
</trkpt>
<trkpt lat="49.339251928031445" lon="8.004376972094178">
<ele>221.79999999999995</ele>
<time>2023-05-18T12:00:27Z</time>
</trkpt>
<trkpt lat="49.33924698270857" lon="8.00442491658032">
<ele>221.79999999999995</ele>
<time>2023-05-18T12:00:28Z</time>
</trkpt>
<trkpt lat="49.33924295939505" lon="8.00448996014893">
<ele>222</ele>
<time>2023-05-18T12:00:29Z</time>
</trkpt>
<trkpt lat="49.33923994190991" lon="8.004549974575639">
<ele>222.20000000000005</ele>
<time>2023-05-18T12:00:30Z</time>
</trkpt>
<trkpt lat="49.33924195356667" lon="8.00461795181036">
<ele>222.39999999999998</ele>
<time>2023-05-18T12:00:31Z</time>
</trkpt>
<trkpt lat="49.33924195356667" lon="8.004701938480139">
<ele>222.60000000000002</ele>
<time>2023-05-18T12:00:32Z</time>
</trkpt>
<trkpt lat="49.339229967445135" lon="8.004761952906847">
<ele>222.79999999999995</ele>
<time>2023-05-18T12:00:33Z</time>
</trkpt>
<trkpt lat="49.33923298493028" lon="8.004837976768613">
<ele>223</ele>
<time>2023-05-18T12:00:34Z</time>
</trkpt>
<trkpt lat="49.3392179813236" lon="8.004914922639728">
<ele>223.20000000000005</ele>
<time>2023-05-18T12:00:35Z</time>
</trkpt>
<trkpt lat="49.33919996023178" lon="8.004992958158255">
<ele>223.39999999999998</ele>
<time>2023-05-18T12:00:36Z</time>
</trkpt>
<trkpt lat="49.33919493108988" lon="8.005044925957918">
<ele>223.60000000000002</ele>
<time>2023-05-18T12:00:37Z</time>
</trkpt>
<trkpt lat="49.339186968281865" lon="8.005101922899485">
<ele>223.79999999999995</ele>
<time>2023-05-18T12:00:38Z</time>
</trkpt>
<trkpt lat="49.339186968281865" lon="8.005156992003322">
<ele>224</ele>
<time>2023-05-18T12:00:39Z</time>
</trkpt>
<trkpt lat="49.33917196467519" lon="8.005229998379946">
<ele>224.20000000000005</ele>
<time>2023-05-18T12:00:40Z</time>
</trkpt>
<trkpt lat="49.3391799274832" lon="8.00528196617961">
<ele>224.39999999999998</ele>
<time>2023-05-18T12:00:41Z</time>
</trkpt>
<trkpt lat="49.33917799964547" lon="8.005354972556233">
<ele>224.60000000000002</ele>
<time>2023-05-18T12:00:42Z</time>
</trkpt>
<trkpt lat="49.339166935533285" lon="8.005432924255729">
<ele>224.79999999999995</ele>
<time>2023-05-18T12:00:43Z</time>
</trkpt>
<trkpt lat="49.339161990210414" lon="8.005522945895791">
<ele>225</ele>
<time>2023-05-18T12:00:44Z</time>
</trkpt>
<trkpt lat="49.339144974946976" lon="8.005597963929176">
<ele>225.20000000000005</ele>
<time>2023-05-18T12:00:45Z</time>
</trkpt>
<trkpt lat="49.339122930541635" lon="8.00569192506373">
<ele>225.39999999999998</ele>
<time>2023-05-18T12:00:46Z</time>
</trkpt>
<trkpt lat="49.339102981612086" lon="8.005782952532172">
<ele>225.60000000000002</ele>
<time>2023-05-18T12:00:47Z</time>
</trkpt>
<trkpt lat="49.339079931378365" lon="8.005874985828996">
<ele>225.79999999999995</ele>
<time>2023-05-18T12:00:48Z</time>
</trkpt>
<trkpt lat="49.339041961357" lon="8.005942963063717">
<ele>226</ele>
<time>2023-05-18T12:00:49Z</time>
</trkpt>
<trkpt lat="49.33901195414364" lon="8.00601496361196">
<ele>226.20000000000005</ele>
<time>2023-05-18T12:00:50Z</time>
</trkpt>
<trkpt lat="49.33897792361677" lon="8.006082940846682">
<ele>226.39999999999998</ele>
<time>2023-05-18T12:00:51Z</time>
</trkpt>
<trkpt lat="49.33894196525216" lon="8.006149996072054">
<ele>226.39999999999998</ele>
<time>2023-05-18T12:00:52Z</time>
</trkpt>
<trkpt lat="49.33890198357403" lon="8.006211938336492">
<ele>226.60000000000002</ele>
<time>2023-05-18T12:00:53Z</time>
</trkpt>
<trkpt lat="49.33885999023914" lon="8.006264995783567">
<ele>226.79999999999995</ele>
<time>2023-05-18T12:00:54Z</time>
</trkpt>
<trkpt lat="49.33882797136903" lon="8.006327943876386">
<ele>226.79999999999995</ele>
<time>2023-05-18T12:00:55Z</time>
</trkpt>
<trkpt lat="49.33876996859908" lon="8.006407991051674">
<ele>227</ele>
<time>2023-05-18T12:00:56Z</time>
</trkpt>
<trkpt lat="49.338731998577714" lon="8.006454929709435">
<ele>227.20000000000005</ele>
<time>2023-05-18T12:00:57Z</time>
</trkpt>
<trkpt lat="49.338691933080554" lon="8.006492983549833">
<ele>227.20000000000005</ele>
<time>2023-05-18T12:00:58Z</time>
</trkpt>
<trkpt lat="49.338627979159355" lon="8.006562972441316">
<ele>227.39999999999998</ele>
<time>2023-05-18T12:00:59Z</time>
</trkpt>
<trkpt lat="49.338589925318956" lon="8.00659297965467">
<ele>227.39999999999998</ele>
<time>2023-05-18T12:01:00Z</time>
</trkpt>
<trkpt lat="49.338546926155686" lon="8.006617957726121">
<ele>227.60000000000002</ele>
<time>2023-05-18T12:01:01Z</time>
</trkpt>
<trkpt lat="49.33849495835602" lon="8.006652994081378">
<ele>227.60000000000002</ele>
<time>2023-05-18T12:01:02Z</time>
</trkpt>
<trkpt lat="49.33844693005085" lon="8.006689958274364">
<ele>227.79999999999995</ele>
<time>2023-05-18T12:01:03Z</time>
</trkpt>
<trkpt lat="49.3384029250592" lon="8.006727928295732">
<ele>227.79999999999995</ele>
<time>2023-05-18T12:01:04Z</time>
</trkpt>
<trkpt lat="49.33835498057306" lon="8.006759947165847">
<ele>227.79999999999995</ele>
<time>2023-05-18T12:01:05Z</time>
</trkpt>
<trkpt lat="49.338306952267885" lon="8.00680797547102">
<ele>227.79999999999995</ele>
<time>2023-05-18T12:01:06Z</time>
</trkpt>
<trkpt lat="49.33825791813433" lon="8.006852986291051">
<ele>228</ele>
<time>2023-05-18T12:01:07Z</time>
</trkpt>
<trkpt lat="49.33821491897106" lon="8.006899924948812">
<ele>228</ele>
<time>2023-05-18T12:01:08Z</time>
</trkpt>
<trkpt lat="49.33816697448492" lon="8.006949964910746">
<ele>228.20000000000005</ele>
<time>2023-05-18T12:01:09Z</time>
</trkpt>
<trkpt lat="49.33812196366489" lon="8.007004950195551">
<ele>228.20000000000005</ele>
<time>2023-05-18T12:01:10Z</time>
</trkpt>
<trkpt lat="49.33808298781514" lon="8.007067982107401">
<ele>228.39999999999998</ele>
<time>2023-05-18T12:01:11Z</time>
</trkpt>
<trkpt lat="49.33804292231798" lon="8.007134953513741">
<ele>228.60000000000002</ele>
<time>2023-05-18T12:01:12Z</time>
</trkpt>
<trkpt lat="49.33800294063985" lon="8.007202930748463">
<ele>228.60000000000002</ele>
<time>2023-05-18T12:01:13Z</time>
</trkpt>
<trkpt lat="49.337962958961725" lon="8.007267974317074">
<ele>228.79999999999995</ele>
<time>2023-05-18T12:01:14Z</time>
</trkpt>
<trkpt lat="49.337921971455216" lon="8.007331928238273">
<ele>229</ele>
<time>2023-05-18T12:01:15Z</time>
</trkpt>
<trkpt lat="49.33788198977709" lon="8.007394960150123">
<ele>229</ele>
<time>2023-05-18T12:01:16Z</time>
</trkpt>
<trkpt lat="49.33784695342183" lon="8.007466960698366">
<ele>229.20000000000005</ele>
<time>2023-05-18T12:01:17Z</time>
</trkpt>
<trkpt lat="49.3378069717437" lon="8.007532926276326">
<ele>229.20000000000005</ele>
<time>2023-05-18T12:01:18Z</time>
</trkpt>
<trkpt lat="49.337766990065575" lon="8.00760199315846">
<ele>229.20000000000005</ele>
<time>2023-05-18T12:01:19Z</time>
</trkpt>
<trkpt lat="49.33773698285222" lon="8.007661923766136">
<ele>229.39999999999998</ele>
<time>2023-05-18T12:01:20Z</time>
</trkpt>
<trkpt lat="49.33771493844688" lon="8.007732918485999">
<ele>229.39999999999998</ele>
<time>2023-05-18T12:01:21Z</time>
</trkpt>
<trkpt lat="49.337686942890286" lon="8.007801985368133">
<ele>229.60000000000002</ele>
<time>2023-05-18T12:01:22Z</time>
</trkpt>
<trkpt lat="49.33765299618244" lon="8.00786493346095">
<ele>229.60000000000002</ele>
<time>2023-05-18T12:01:23Z</time>
</trkpt>
<trkpt lat="49.33762793429196" lon="8.007919918745756">
<ele>229.79999999999995</ele>
<time>2023-05-18T12:01:24Z</time>
</trkpt>
<trkpt lat="49.33760496787727" lon="8.007981944829226">
<ele>229.79999999999995</ele>
<time>2023-05-18T12:01:25Z</time>
</trkpt>
<trkpt lat="49.33758493512869" lon="8.00803491845727">
<ele>230</ele>
<time>2023-05-18T12:01:26Z</time>
</trkpt>
<trkpt lat="49.33756993152201" lon="8.008086970075965">
<ele>230.20000000000005</ele>
<time>2023-05-18T12:01:27Z</time>
</trkpt>
<trkpt lat="49.337556939572096" lon="8.00814195536077">
<ele>230.39999999999998</ele>
<time>2023-05-18T12:01:28Z</time>
</trkpt>
<trkpt lat="49.3375429417938" lon="8.008189983665943">
<ele>230.60000000000002</ele>
<time>2023-05-18T12:01:29Z</time>
</trkpt>
<trkpt lat="49.337532967329025" lon="8.008252931758761">
<ele>230.79999999999995</ele>
<time>2023-05-18T12:01:30Z</time>
</trkpt>
<trkpt lat="49.337531961500645" lon="8.008341947570443">
<ele>231</ele>
<time>2023-05-18T12:01:31Z</time>
</trkpt>
<trkpt lat="49.33751796372235" lon="8.008404979482293">
<ele>231.20000000000005</ele>
<time>2023-05-18T12:01:32Z</time>
</trkpt>
<trkpt lat="49.33750296011567" lon="8.008474968373775">
<ele>231.39999999999998</ele>
<time>2023-05-18T12:01:33Z</time>
</trkpt>
<trkpt lat="49.33748292736709" lon="8.008534982800484">
<ele>231.60000000000002</ele>
<time>2023-05-18T12:01:34Z</time>
</trkpt>
<trkpt lat="49.337467923760414" lon="8.008604971691966">
<ele>231.79999999999995</ele>
<time>2023-05-18T12:01:35Z</time>
</trkpt>
<trkpt lat="49.3374599609524" lon="8.008667919784784">
<ele>232</ele>
<time>2023-05-18T12:01:36Z</time>
</trkpt>
<trkpt lat="49.33745199814439" lon="8.008732963353395">
<ele>232.20000000000005</ele>
<time>2023-05-18T12:01:37Z</time>
</trkpt>
<trkpt lat="49.33743992820382" lon="8.008792977780104">
<ele>232.39999999999998</ele>
<time>2023-05-18T12:01:38Z</time>
</trkpt>
<trkpt lat="49.337427942082286" lon="8.008861960843205">
<ele>232.60000000000002</ele>
<time>2023-05-18T12:01:39Z</time>
</trkpt>
<trkpt lat="49.33740698732436" lon="8.008919963613153">
<ele>232.79999999999995</ele>
<time>2023-05-18T12:01:40Z</time>
</trkpt>
<trkpt lat="49.33738695457578" lon="8.008981989696622">
<ele>233</ele>
<time>2023-05-18T12:01:41Z</time>
</trkpt>
<trkpt lat="49.3373719509691" lon="8.009036974981427">
<ele>233.20000000000005</ele>
<time>2023-05-18T12:01:42Z</time>
</trkpt>
<trkpt lat="49.33736298233271" lon="8.009101934731007">
<ele>233.39999999999998</ele>
<time>2023-05-18T12:01:43Z</time>
</trkpt>
<trkpt lat="49.3373529240489" lon="8.00917494110763">
<ele>233.39999999999998</ele>
<time>2023-05-18T12:01:44Z</time>
</trkpt>
<trkpt lat="49.33733792044222" lon="8.009239984676242">
<ele>233.60000000000002</ele>
<time>2023-05-18T12:01:45Z</time>
</trkpt>
<trkpt lat="49.33732291683555" lon="8.009297987446189">
<ele>233.79999999999995</ele>
<time>2023-05-18T12:01:46Z</time>
</trkpt>
<trkpt lat="49.3373079970479" lon="8.00936697050929">
<ele>234</ele>
<time>2023-05-18T12:01:47Z</time>
</trkpt>
<trkpt lat="49.337296932935715" lon="8.00942799076438">
<ele>234.20000000000005</ele>
<time>2023-05-18T12:01:48Z</time>
</trkpt>
<trkpt lat="49.33728695847094" lon="8.009496973827481">
<ele>234.20000000000005</ele>
<time>2023-05-18T12:01:49Z</time>
</trkpt>
<trkpt lat="49.337274972349405" lon="8.00955799408257">
<ele>234.39999999999998</ele>
<time>2023-05-18T12:01:50Z</time>
</trkpt>
<trkpt lat="49.3372699432075" lon="8.009617924690247">
<ele>234.79999999999995</ele>
<time>2023-05-18T12:01:51Z</time>
</trkpt>
<trkpt lat="49.33726499788463" lon="8.009679950773716">
<ele>235</ele>
<time>2023-05-18T12:01:52Z</time>
</trkpt>
<trkpt lat="49.33726198039949" lon="8.009737953543663">
<ele>235.20000000000005</ele>
<time>2023-05-18T12:01:53Z</time>
</trkpt>
<trkpt lat="49.33724798262119" lon="8.009807942435145">
<ele>235.20000000000005</ele>
<time>2023-05-18T12:01:54Z</time>
</trkpt>
<trkpt lat="49.33723499067128" lon="8.009874997660518">
<ele>235.39999999999998</ele>
<time>2023-05-18T12:01:55Z</time>
</trkpt>
<trkpt lat="49.3372199870646" lon="8.009952949360013">
<ele>235.60000000000002</ele>
<time>2023-05-18T12:01:56Z</time>
</trkpt>
<trkpt lat="49.33720791712403" lon="8.010024949908257">
<ele>235.79999999999995</ele>
<time>2023-05-18T12:01:57Z</time>
</trkpt>
<trkpt lat="49.33720791712403" lon="8.010106924921274">
<ele>236</ele>
<time>2023-05-18T12:01:58Z</time>
</trkpt>
<trkpt lat="49.33720196597278" lon="8.01018194295466">
<ele>236.20000000000005</ele>
<time>2023-05-18T12:01:59Z</time>
</trkpt>
<trkpt lat="49.33719492517412" lon="8.010256960988045">
<ele>236.39999999999998</ele>
<time>2023-05-18T12:02:00Z</time>
</trkpt>
<trkpt lat="49.33717296458781" lon="8.01033298484981">
<ele>236.39999999999998</ele>
<time>2023-05-18T12:02:01Z</time>
</trkpt>
<trkpt lat="49.33715695515275" lon="8.010399956256151">
<ele>236.60000000000002</ele>
<time>2023-05-18T12:02:02Z</time>
</trkpt>
<trkpt lat="49.33713792823255" lon="8.010467933490872">
<ele>236.79999999999995</ele>
<time>2023-05-18T12:02:03Z</time>
</trkpt>
<trkpt lat="49.337117979303" lon="8.0105269420892">
<ele>237</ele>
<time>2023-05-18T12:02:04Z</time>
</trkpt>
<trkpt lat="49.33709995821118" lon="8.010592991486192">
<ele>237.20000000000005</ele>
<time>2023-05-18T12:02:05Z</time>
</trkpt>
<trkpt lat="49.337081937119365" lon="8.01065493375063">
<ele>237.39999999999998</ele>
<time>2023-05-18T12:02:06Z</time>
</trkpt>
<trkpt lat="49.33706693351269" lon="8.01071796566248">
<ele>237.39999999999998</ele>
<time>2023-05-18T12:02:07Z</time>
</trkpt>
<trkpt lat="49.33704799041152" lon="8.010782925412059">
<ele>237.60000000000002</ele>
<time>2023-05-18T12:02:08Z</time>
</trkpt>
<trkpt lat="49.3370249401778" lon="8.01084696315229">
<ele>237.79999999999995</ele>
<time>2023-05-18T12:02:09Z</time>
</trkpt>
<trkpt lat="49.337014965713024" lon="8.01091292873025">
<ele>238</ele>
<time>2023-05-18T12:02:10Z</time>
</trkpt>
<trkpt lat="49.33698797598481" lon="8.01097696647048">
<ele>238</ele>
<time>2023-05-18T12:02:11Z</time>
</trkpt>
<trkpt lat="49.33696995489299" lon="8.011036980897188">
<ele>238.20000000000005</ele>
<time>2023-05-18T12:02:12Z</time>
</trkpt>
<trkpt lat="49.336954951286316" lon="8.011092972010374">
<ele>238.39999999999998</ele>
<time>2023-05-18T12:02:13Z</time>
</trkpt>
<trkpt lat="49.336931984871626" lon="8.011154998093843">
<ele>238.60000000000002</ele>
<time>2023-05-18T12:02:14Z</time>
</trkpt>
<trkpt lat="49.336909940466285" lon="8.01121199503541">
<ele>238.60000000000002</ele>
<time>2023-05-18T12:02:15Z</time>
</trkpt>
<trkpt lat="49.33689292520285" lon="8.011262957006693">
<ele>238.79999999999995</ele>
<time>2023-05-18T12:02:16Z</time>
</trkpt>
<trkpt lat="49.33688194490969" lon="8.011322971433401">
<ele>239</ele>
<time>2023-05-18T12:02:17Z</time>
</trkpt>
<trkpt lat="49.33686995878816" lon="8.011391954496503">
<ele>239.20000000000005</ele>
<time>2023-05-18T12:02:18Z</time>
</trkpt>
<trkpt lat="49.33685797266662" lon="8.011461943387985">
<ele>239.39999999999998</ele>
<time>2023-05-18T12:02:19Z</time>
</trkpt>
<trkpt lat="49.33683793991804" lon="8.011522963643074">
<ele>239.39999999999998</ele>
<time>2023-05-18T12:02:20Z</time>
</trkpt>
<trkpt lat="49.33682695962489" lon="8.01157996058464">
<ele>239.60000000000002</ele>
<time>2023-05-18T12:02:21Z</time>
</trkpt>
<trkpt lat="49.33681296184659" lon="8.011627988889813">
<ele>239.79999999999995</ele>
<time>2023-05-18T12:02:22Z</time>
</trkpt>
<trkpt lat="49.33679795823991" lon="8.011671993881464">
<ele>240</ele>
<time>2023-05-18T12:02:23Z</time>
</trkpt>
<trkpt lat="49.33677792549133" lon="8.01172798499465">
<ele>240.20000000000005</ele>
<time>2023-05-18T12:02:24Z</time>
</trkpt>
<trkpt lat="49.33676199987531" lon="8.011776935309172">
<ele>240.39999999999998</ele>
<time>2023-05-18T12:02:25Z</time>
</trkpt>
<trkpt lat="49.336732998490334" lon="8.01183795556426">
<ele>240.39999999999998</ele>
<time>2023-05-18T12:02:26Z</time>
</trkpt>
<trkpt lat="49.33670693077147" lon="8.01189998164773">
<ele>240.60000000000002</ele>
<time>2023-05-18T12:02:27Z</time>
</trkpt>
<trkpt lat="49.3366779293865" lon="8.011971982195973">
<ele>240.79999999999995</ele>
<time>2023-05-18T12:02:28Z</time>
</trkpt>
<trkpt lat="49.336651945486665" lon="8.01202998496592">
<ele>241</ele>
<time>2023-05-18T12:02:29Z</time>
</trkpt>
<trkpt lat="49.336629984900355" lon="8.012084970250726">
<ele>241</ele>
<time>2023-05-18T12:02:30Z</time>
</trkpt>
<trkpt lat="49.336606934666634" lon="8.012147918343544">
<ele>241.20000000000005</ele>
<time>2023-05-18T12:02:31Z</time>
</trkpt>
<trkpt lat="49.33659293688834" lon="8.012206926941872">
<ele>241.39999999999998</ele>
<time>2023-05-18T12:02:32Z</time>
</trkpt>
<trkpt lat="49.33657692745328" lon="8.012282950803638">
<ele>241.60000000000002</ele>
<time>2023-05-18T12:02:33Z</time>
</trkpt>
<trkpt lat="49.336564941331744" lon="8.012356963008642">
<ele>241.60000000000002</ele>
<time>2023-05-18T12:02:34Z</time>
</trkpt>
<trkpt lat="49.33653694577515" lon="8.012429969385266">
<ele>241.79999999999995</ele>
<time>2023-05-18T12:02:35Z</time>
</trkpt>
<trkpt lat="49.3365069385618" lon="8.012504987418652">
<ele>241.79999999999995</ele>
<time>2023-05-18T12:02:36Z</time>
</trkpt>
<trkpt lat="49.33648296631873" lon="8.012584950774908">
<ele>242</ele>
<time>2023-05-18T12:02:37Z</time>
</trkpt>
<trkpt lat="49.336457988247275" lon="8.012661980465055">
<ele>242.20000000000005</ele>
<time>2023-05-18T12:02:38Z</time>
</trkpt>
<trkpt lat="49.336437955498695" lon="8.012727946043015">
<ele>242.20000000000005</ele>
<time>2023-05-18T12:02:39Z</time>
</trkpt>
<trkpt lat="49.3364099599421" lon="8.012797934934497">
<ele>242.39999999999998</ele>
<time>2023-05-18T12:02:40Z</time>
</trkpt>
<trkpt lat="49.336391938850284" lon="8.01286499015987">
<ele>242.39999999999998</ele>
<time>2023-05-18T12:02:41Z</time>
</trkpt>
<trkpt lat="49.33637693524361" lon="8.012917963787913">
<ele>242.60000000000002</ele>
<time>2023-05-18T12:02:42Z</time>
</trkpt>
<trkpt lat="49.336349945515394" lon="8.012967919930816">
<ele>242.79999999999995</ele>
<time>2023-05-18T12:02:43Z</time>
</trkpt>
<trkpt lat="49.336331924423575" lon="8.01301795989275">
<ele>242.79999999999995</ele>
<time>2023-05-18T12:02:44Z</time>
</trkpt>
<trkpt lat="49.33631197549403" lon="8.013071939349174">
<ele>243</ele>
<time>2023-05-18T12:02:45Z</time>
</trkpt>
<trkpt lat="49.33629998937249" lon="8.01312793046236">
<ele>243</ele>
<time>2023-05-18T12:02:46Z</time>
</trkpt>
<trkpt lat="49.33627995662391" lon="8.013179982081056">
<ele>243.20000000000005</ele>
<time>2023-05-18T12:02:47Z</time>
</trkpt>
<trkpt lat="49.33625699020922" lon="8.0132329557091">
<ele>243.20000000000005</ele>
<time>2023-05-18T12:02:48Z</time>
</trkpt>
<trkpt lat="49.33622698299587" lon="8.013291964307427">
<ele>243.39999999999998</ele>
<time>2023-05-18T12:02:49Z</time>
</trkpt>
<trkpt lat="49.33620795607567" lon="8.013349967077374">
<ele>243.39999999999998</ele>
<time>2023-05-18T12:02:50Z</time>
</trkpt>
<trkpt lat="49.33618197217584" lon="8.013411993160844">
<ele>243.60000000000002</ele>
<time>2023-05-18T12:02:51Z</time>
</trkpt>
<trkpt lat="49.336154982447624" lon="8.013474941253662">
<ele>243.79999999999995</ele>
<time>2023-05-18T12:02:52Z</time>
</trkpt>
<trkpt lat="49.33612497523427" lon="8.013531938195229">
<ele>243.79999999999995</ele>
<time>2023-05-18T12:02:53Z</time>
</trkpt>
<trkpt lat="49.33609798550606" lon="8.013589940965176">
<ele>244</ele>
<time>2023-05-18T12:02:54Z</time>
</trkpt>
<trkpt lat="49.3360629491508" lon="8.013642998412251">
<ele>244.20000000000005</ele>
<time>2023-05-18T12:02:55Z</time>
</trkpt>
<trkpt lat="49.336027996614575" lon="8.013694966211915">
<ele>244.20000000000005</ele>
<time>2023-05-18T12:02:56Z</time>
</trkpt>
<trkpt lat="49.33599497191608" lon="8.01374995149672">
<ele>244.39999999999998</ele>
<time>2023-05-18T12:02:57Z</time>
</trkpt>
<trkpt lat="49.33595993556082" lon="8.013806948438287">
<ele>244.60000000000002</ele>
<time>2023-05-18T12:02:58Z</time>
</trkpt>
<trkpt lat="49.335922971367836" lon="8.013871992006898">
<ele>244.60000000000002</ele>
<time>2023-05-18T12:02:59Z</time>
</trkpt>
<trkpt lat="49.335879972204566" lon="8.01391993649304">
<ele>244.79999999999995</ele>
<time>2023-05-18T12:03:00Z</time>
</trkpt>
<trkpt lat="49.335836973041296" lon="8.013961929827929">
<ele>245</ele>
<time>2023-05-18T12:03:01Z</time>
</trkpt>
<trkpt lat="49.33580294251442" lon="8.014004928991199">
<ele>245</ele>
<time>2023-05-18T12:03:02Z</time>
</trkpt>
<trkpt lat="49.33577796444297" lon="8.01407198421657">
<ele>245.20000000000005</ele>
<time>2023-05-18T12:03:03Z</time>
</trkpt>
<trkpt lat="49.33575499802828" lon="8.01413794979453">
<ele>245.39999999999998</ele>
<time>2023-05-18T12:03:04Z</time>
</trkpt>
<trkpt lat="49.335729936137795" lon="8.014197964221239">
<ele>245.60000000000002</ele>
<time>2023-05-18T12:03:05Z</time>
</trkpt>
<trkpt lat="49.33569992892444" lon="8.01426694728434">
<ele>245.79999999999995</ele>
<time>2023-05-18T12:03:06Z</time>
</trkpt>
<trkpt lat="49.33566992171109" lon="8.014332996681333">
<ele>245.79999999999995</ele>
<time>2023-05-18T12:03:07Z</time>
</trkpt>
<trkpt lat="49.335641926154494" lon="8.014399968087673">
<ele>246</ele>
<time>2023-05-18T12:03:08Z</time>
</trkpt>
<trkpt lat="49.335621977224946" lon="8.01445797085762">
<ele>246.20000000000005</ele>
<time>2023-05-18T12:03:09Z</time>
</trkpt>
<trkpt lat="49.33560697361827" lon="8.014516979455948">
<ele>246.39999999999998</ele>
<time>2023-05-18T12:03:10Z</time>
</trkpt>
<trkpt lat="49.33558694086969" lon="8.014559978619218">
<ele>246.60000000000002</ele>
<time>2023-05-18T12:03:11Z</time>
</trkpt>
<trkpt lat="49.33558291755617" lon="8.014621920883656">
<ele>246.79999999999995</ele>
<time>2023-05-18T12:03:12Z</time>
</trkpt>
<trkpt lat="49.33556498028338" lon="8.014679923653603">
<ele>247</ele>
<time>2023-05-18T12:03:13Z</time>
</trkpt>
<trkpt lat="49.33553799055517" lon="8.014729963615537">
<ele>247.20000000000005</ele>
<time>2023-05-18T12:03:14Z</time>
</trkpt>
<trkpt lat="49.33552198112011" lon="8.014789978042245">
<ele>247.39999999999998</ele>
<time>2023-05-18T12:03:15Z</time>
</trkpt>
<trkpt lat="49.335492979735136" lon="8.014832977205515">
<ele>247.60000000000002</ele>
<time>2023-05-18T12:03:16Z</time>
</trkpt>
<trkpt lat="49.335466995835304" lon="8.014882933348417">
<ele>248</ele>
<time>2023-05-18T12:03:17Z</time>
</trkpt>
<trkpt lat="49.33543698862195" lon="8.014922998845577">
<ele>248.20000000000005</ele>
<time>2023-05-18T12:03:18Z</time>
</trkpt>
<trkpt lat="49.33541796170175" lon="8.014966920018196">
<ele>248.39999999999998</ele>
<time>2023-05-18T12:03:19Z</time>
</trkpt>
<trkpt lat="49.33539792895317" lon="8.015014948323369">
<ele>248.60000000000002</ele>
<time>2023-05-18T12:03:20Z</time>
</trkpt>
<trkpt lat="49.33538996614516" lon="8.015069933608174">
<ele>248.79999999999995</ele>
<time>2023-05-18T12:03:21Z</time>
</trkpt>
<trkpt lat="49.335382925346494" lon="8.015127936378121">
<ele>249</ele>
<time>2023-05-18T12:03:22Z</time>
</trkpt>
<trkpt lat="49.33537697419524" lon="8.015184933319688">
<ele>249.20000000000005</ele>
<time>2023-05-18T12:03:23Z</time>
</trkpt>
<trkpt lat="49.33536498807371" lon="8.015237990766764">
<ele>249.39999999999998</ele>
<time>2023-05-18T12:03:24Z</time>
</trkpt>
<trkpt lat="49.33535199612379" lon="8.015292976051569">
<ele>249.79999999999995</ele>
<time>2023-05-18T12:03:25Z</time>
</trkpt>
<trkpt lat="49.33534696698189" lon="8.015352990478277">
<ele>250</ele>
<time>2023-05-18T12:03:26Z</time>
</trkpt>
<trkpt lat="49.33533296920359" lon="8.015407975763083">
<ele>250.20000000000005</ele>
<time>2023-05-18T12:03:27Z</time>
</trkpt>
<trkpt lat="49.33532794006169" lon="8.015464972704649">
<ele>250.39999999999998</ele>
<time>2023-05-18T12:03:28Z</time>
</trkpt>
<trkpt lat="49.33532995171845" lon="8.015517946332693">
<ele>250.60000000000002</ele>
<time>2023-05-18T12:03:29Z</time>
</trkpt>
<trkpt lat="49.33532995171845" lon="8.01557494327426">
<ele>250.79999999999995</ele>
<time>2023-05-18T12:03:30Z</time>
</trkpt>
<trkpt lat="49.33533498086035" lon="8.01563998684287">
<ele>251</ele>
<time>2023-05-18T12:03:31Z</time>
</trkpt>
<trkpt lat="49.33532693423331" lon="8.015697989612818">
<ele>251.20000000000005</ele>
<time>2023-05-18T12:03:32Z</time>
</trkpt>
<trkpt lat="49.33532299473882" lon="8.015764961019158">
<ele>251.39999999999998</ele>
<time>2023-05-18T12:03:33Z</time>
</trkpt>
<trkpt lat="49.33531293645501" lon="8.015816928818822">
<ele>251.60000000000002</ele>
<time>2023-05-18T12:03:34Z</time>
</trkpt>
<trkpt lat="49.33532693423331" lon="8.015902927145362">
<ele>252</ele>
<time>2023-05-18T12:03:35Z</time>
</trkpt>
<trkpt lat="49.33533196337521" lon="8.015969982370734">
<ele>252.20000000000005</ele>
<time>2023-05-18T12:03:36Z</time>
</trkpt>
<trkpt lat="49.33533196337521" lon="8.016041982918978">
<ele>252.39999999999998</ele>
<time>2023-05-18T12:03:37Z</time>
</trkpt>
<trkpt lat="49.33532492257655" lon="8.016102919355035">
<ele>252.60000000000002</ele>
<time>2023-05-18T12:03:38Z</time>
</trkpt>
<trkpt lat="49.33531293645501" lon="8.016162933781743">
<ele>252.79999999999995</ele>
<time>2023-05-18T12:03:39Z</time>
</trkpt>
<trkpt lat="49.33531293645501" lon="8.016272988170385">
<ele>253</ele>
<time>2023-05-18T12:03:40Z</time>
</trkpt>
<trkpt lat="49.33530195616186" lon="8.016346916556358">
<ele>253.20000000000005</ele>
<time>2023-05-18T12:03:41Z</time>
</trkpt>
<trkpt lat="49.33528695255518" lon="8.01643299870193">
<ele>253.60000000000002</ele>
<time>2023-05-18T12:03:42Z</time>
</trkpt>
<trkpt lat="49.33526792563498" lon="8.016496952623129">
<ele>253.79999999999995</ele>
<time>2023-05-18T12:03:43Z</time>
</trkpt>
<trkpt lat="49.335256945341825" lon="8.016581945121288">
<ele>254</ele>
<time>2023-05-18T12:03:44Z</time>
</trkpt>
<trkpt lat="49.33523993007839" lon="8.016662998124957">
<ele>254.20000000000005</ele>
<time>2023-05-18T12:03:45Z</time>
</trkpt>
<trkpt lat="49.33522995561361" lon="8.016727957874537">
<ele>254.39999999999998</ele>
<time>2023-05-18T12:03:46Z</time>
</trkpt>
<trkpt lat="49.33522299863398" lon="8.016787972301245">
<ele>254.60000000000002</ele>
<time>2023-05-18T12:03:47Z</time>
</trkpt>
<trkpt lat="49.335214952006936" lon="8.016852932050824">
<ele>255</ele>
<time>2023-05-18T12:03:48Z</time>
</trkpt>
<trkpt lat="49.33520497754216" lon="8.01690498366952">
<ele>255.20000000000005</ele>
<time>2023-05-18T12:03:49Z</time>
</trkpt>
<trkpt lat="49.33519299142063" lon="8.01694999448955">
<ele>255.39999999999998</ele>
<time>2023-05-18T12:03:50Z</time>
</trkpt>
<trkpt lat="49.33517798781395" lon="8.01699198782444">
<ele>255.60000000000002</ele>
<time>2023-05-18T12:03:51Z</time>
</trkpt>
<trkpt lat="49.33515795506537" lon="8.01703792065382">
<ele>255.79999999999995</ele>
<time>2023-05-18T12:03:52Z</time>
</trkpt>
<trkpt lat="49.33513197116554" lon="8.01708192564547">
<ele>256</ele>
<time>2023-05-18T12:03:53Z</time>
</trkpt>
<trkpt lat="49.33511294424534" lon="8.017136994749308">
<ele>256.20000000000005</ele>
<time>2023-05-18T12:03:54Z</time>
</trkpt>
<trkpt lat="49.33509693481028" lon="8.017199942842126">
<ele>256.6</ele>
<time>2023-05-18T12:03:55Z</time>
</trkpt>
<trkpt lat="49.33507799170911" lon="8.017256939783692">
<ele>256.79999999999995</ele>
<time>2023-05-18T12:03:56Z</time>
</trkpt>
<trkpt lat="49.33505795896053" lon="8.017312930896878">
<ele>257</ele>
<time>2023-05-18T12:03:57Z</time>
</trkpt>
<trkpt lat="49.335039937868714" lon="8.017366994172335">
<ele>257.20000000000005</ele>
<time>2023-05-18T12:03:58Z</time>
</trkpt>
<trkpt lat="49.335022922605276" lon="8.017417956143618">
<ele>257.4</ele>
<time>2023-05-18T12:03:59Z</time>
</trkpt>
<trkpt lat="49.33500297367573" lon="8.017471935600042">
<ele>257.6</ele>
<time>2023-05-18T12:04:00Z</time>
</trkpt>
<trkpt lat="49.33498193509877" lon="8.01752993836999">
<ele>257.79999999999995</ele>
<time>2023-05-18T12:04:01Z</time>
</trkpt>
<trkpt lat="49.3349629919976" lon="8.017586935311556">
<ele>258</ele>
<time>2023-05-18T12:04:02Z</time>
</trkpt>
<trkpt lat="49.33494295924902" lon="8.017646949738264">
<ele>258.20000000000005</ele>
<time>2023-05-18T12:04:03Z</time>
</trkpt>
<trkpt lat="49.3349249381572" lon="8.01770193502307">
<ele>258.4</ele>
<time>2023-05-18T12:04:04Z</time>
</trkpt>
<trkpt lat="49.334909934550524" lon="8.01776697859168">
<ele>258.6</ele>
<time>2023-05-18T12:04:05Z</time>
</trkpt>
<trkpt lat="49.33489794842899" lon="8.01783193834126">
<ele>259</ele>
<time>2023-05-18T12:04:06Z</time>
</trkpt>
<trkpt lat="49.334887973964214" lon="8.017887929454446">
<ele>259.20000000000005</ele>
<time>2023-05-18T12:04:07Z</time>
</trkpt>
<trkpt lat="49.33487297035754" lon="8.017947943881154">
<ele>259.4</ele>
<time>2023-05-18T12:04:08Z</time>
</trkpt>
<trkpt lat="49.33485193178058" lon="8.017992954701185">
<ele>259.6</ele>
<time>2023-05-18T12:04:09Z</time>
</trkpt>
<trkpt lat="49.33483198285103" lon="8.018049951642752">
<ele>259.6</ele>
<time>2023-05-18T12:04:10Z</time>
</trkpt>
<trkpt lat="49.334807926788926" lon="8.018106948584318">
<ele>259.79999999999995</ele>
<time>2023-05-18T12:04:11Z</time>
</trkpt>
<trkpt lat="49.334784960374236" lon="8.018162939697504">
<ele>260</ele>
<time>2023-05-18T12:04:12Z</time>
</trkpt>
<trkpt lat="49.334761993959546" lon="8.018224965780973">
<ele>260.20000000000005</ele>
<time>2023-05-18T12:04:13Z</time>
</trkpt>
<trkpt lat="49.334739949554205" lon="8.018286991864443">
<ele>260.20000000000005</ele>
<time>2023-05-18T12:04:14Z</time>
</trkpt>
<trkpt lat="49.334716983139515" lon="8.018342982977629">
<ele>260.4</ele>
<time>2023-05-18T12:04:15Z</time>
</trkpt>
<trkpt lat="49.33469192124903" lon="8.018401991575956">
<ele>260.6</ele>
<time>2023-05-18T12:04:16Z</time>
</trkpt>
<trkpt lat="49.33466794900596" lon="8.018461922183633">
<ele>260.6</ele>
<time>2023-05-18T12:04:17Z</time>
</trkpt>
<trkpt lat="49.33464791625738" lon="8.018514979630709">
<ele>260.79999999999995</ele>
<time>2023-05-18T12:04:18Z</time>
</trkpt>
<trkpt lat="49.33462696149945" lon="8.018569964915514">
<ele>261</ele>
<time>2023-05-18T12:04:19Z</time>
</trkpt>
<trkpt lat="49.33460491709411" lon="8.018627967685461">
<ele>261</ele>
<time>2023-05-18T12:04:20Z</time>
</trkpt>
<trkpt lat="49.3345829565078" lon="8.018679935485125">
<ele>261.20000000000005</ele>
<time>2023-05-18T12:04:21Z</time>
</trkpt>
<trkpt lat="49.33456292375922" lon="8.01873198710382">
<ele>261.4</ele>
<time>2023-05-18T12:04:22Z</time>
</trkpt>
<trkpt lat="49.33454196900129" lon="8.018787978217006">
<ele>261.4</ele>
<time>2023-05-18T12:04:23Z</time>
</trkpt>
<trkpt lat="49.33451799675822" lon="8.018849920481443">
<ele>261.6</ele>
<time>2023-05-18T12:04:24Z</time>
</trkpt>
<trkpt lat="49.33449695818126" lon="8.018914964050055">
<ele>261.79999999999995</ele>
<time>2023-05-18T12:04:25Z</time>
</trkpt>
<trkpt lat="49.33447692543268" lon="8.018979923799634">
<ele>261.79999999999995</ele>
<time>2023-05-18T12:04:26Z</time>
</trkpt>
<trkpt lat="49.334456976503134" lon="8.019039938226342">
<ele>262</ele>
<time>2023-05-18T12:04:27Z</time>
</trkpt>
<trkpt lat="49.33443493209779" lon="8.019089978188276">
<ele>262.20000000000005</ele>
<time>2023-05-18T12:04:28Z</time>
</trkpt>
<trkpt lat="49.334414983168244" lon="8.019149992614985">
<ele>262.20000000000005</ele>
<time>2023-05-18T12:04:29Z</time>
</trkpt>
<trkpt lat="49.334394950419664" lon="8.019209923222661">
<ele>262.4</ele>
<time>2023-05-18T12:04:30Z</time>
</trkpt>
<trkpt lat="49.33437994681299" lon="8.01927194930613">
<ele>262.4</ele>
<time>2023-05-18T12:04:31Z</time>
</trkpt>
<trkpt lat="49.334374917671084" lon="8.019321989268064">
<ele>262.6</ele>
<time>2023-05-18T12:04:32Z</time>
</trkpt>
<trkpt lat="49.33436997234821" lon="8.019372951239347">
<ele>262.6</ele>
<time>2023-05-18T12:04:33Z</time>
</trkpt>
<trkpt lat="49.3343569803983" lon="8.019429948180914">
<ele>262.79999999999995</ele>
<time>2023-05-18T12:04:34Z</time>
</trkpt>
<trkpt lat="49.3343379534781" lon="8.019487950950861">
<ele>262.79999999999995</ele>
<time>2023-05-18T12:04:35Z</time>
</trkpt>
<trkpt lat="49.33430694043636" lon="8.019514940679073">
<ele>263</ele>
<time>2023-05-18T12:04:36Z</time>
</trkpt>
<trkpt lat="49.33429294265807" lon="8.019581995904446">
<ele>263</ele>
<time>2023-05-18T12:04:37Z</time>
</trkpt>
<trkpt lat="49.33426997624338" lon="8.019652990624309">
<ele>263</ele>
<time>2023-05-18T12:04:38Z</time>
</trkpt>
<trkpt lat="49.33423493988812" lon="8.019707975909114">
<ele>263.20000000000005</ele>
<time>2023-05-18T12:04:39Z</time>
</trkpt>
<trkpt lat="49.33420694433153" lon="8.019772935658693">
<ele>263.20000000000005</ele>
<time>2023-05-18T12:04:40Z</time>
</trkpt>
<trkpt lat="49.33417794294655" lon="8.019837979227304">
<ele>263.4</ele>
<time>2023-05-18T12:04:41Z</time>
</trkpt>
<trkpt lat="49.3341529648751" lon="8.019906962290406">
<ele>263.4</ele>
<time>2023-05-18T12:04:42Z</time>
</trkpt>
<trkpt lat="49.33412698097527" lon="8.01997795701027">
<ele>263.4</ele>
<time>2023-05-18T12:04:43Z</time>
</trkpt>
<trkpt lat="49.33408699929714" lon="8.02002196200192">
<ele>263.6</ele>
<time>2023-05-18T12:04:44Z</time>
</trkpt>
<trkpt lat="49.334052968770266" lon="8.020081976428628">
<ele>263.6</ele>
<time>2023-05-18T12:04:45Z</time>
</trkpt>
<trkpt lat="49.33402195572853" lon="8.020146936178207">
<ele>263.6</ele>
<time>2023-05-18T12:04:46Z</time>
</trkpt>
<trkpt lat="49.33399496600032" lon="8.02021692506969">
<ele>263.6</ele>
<time>2023-05-18T12:04:47Z</time>
</trkpt>
<trkpt lat="49.3339629471302" lon="8.020284986123443">
<ele>263.79999999999995</ele>
<time>2023-05-18T12:04:48Z</time>
</trkpt>
<trkpt lat="49.33393293991685" lon="8.0203649494797">
<ele>263.79999999999995</ele>
<time>2023-05-18T12:04:49Z</time>
</trkpt>
<trkpt lat="49.333897987380624" lon="8.02043292671442">
<ele>263.79999999999995</ele>
<time>2023-05-18T12:04:50Z</time>
</trkpt>
<trkpt lat="49.333859933540225" lon="8.020481960847974">
<ele>264</ele>
<time>2023-05-18T12:04:51Z</time>
</trkpt>
<trkpt lat="49.3338199518621" lon="8.02053996361792">
<ele>264</ele>
<time>2023-05-18T12:04:52Z</time>
</trkpt>
<trkpt lat="49.33379698544741" lon="8.02058296278119">
<ele>264</ele>
<time>2023-05-18T12:04:53Z</time>
</trkpt>
<trkpt lat="49.333751974627376" lon="8.020611964166164">
<ele>264.20000000000005</ele>
<time>2023-05-18T12:04:54Z</time>
</trkpt>
<trkpt lat="49.333707969635725" lon="8.020641971379519">
<ele>264.20000000000005</ele>
<time>2023-05-18T12:04:55Z</time>
</trkpt>
<trkpt lat="49.33367192745209" lon="8.020682958886027">
<ele>264.4</ele>
<time>2023-05-18T12:04:56Z</time>
</trkpt>
<trkpt lat="49.33363194577396" lon="8.02070994861424">
<ele>264.4</ele>
<time>2023-05-18T12:04:57Z</time>
</trkpt>
<trkpt lat="49.33358794078231" lon="8.02075294777751">
<ele>264.4</ele>
<time>2023-05-18T12:04:58Z</time>
</trkpt>
<trkpt lat="49.33354292996228" lon="8.02079795859754">
<ele>264.6</ele>
<time>2023-05-18T12:04:59Z</time>
</trkpt>
<trkpt lat="49.3334969971329" lon="8.020836934447289">
<ele>264.6</ele>
<time>2023-05-18T12:05:00Z</time>
</trkpt>
<trkpt lat="49.33345299214125" lon="8.020877921953797">
<ele>264.79999999999995</ele>
<time>2023-05-18T12:05:01Z</time>
</trkpt>
<trkpt lat="49.333404963836074" lon="8.020912958309054">
<ele>264.79999999999995</ele>
<time>2023-05-18T12:05:02Z</time>
</trkpt>
<trkpt lat="49.333361964672804" lon="8.020937936380506">
<ele>264.79999999999995</ele>
<time>2023-05-18T12:05:03Z</time>
</trkpt>
<trkpt lat="49.333319971337914" lon="8.020959980785847">
<ele>265</ele>
<time>2023-05-18T12:05:04Z</time>
</trkpt>
<trkpt lat="49.333276972174644" lon="8.020972972735763">
<ele>265</ele>
<time>2023-05-18T12:05:05Z</time>
</trkpt>
<trkpt lat="49.333239924162626" lon="8.020997950807214">
<ele>265</ele>
<time>2023-05-18T12:05:06Z</time>
</trkpt>
<trkpt lat="49.3331999424845" lon="8.021024940535426">
<ele>265.20000000000005</ele>
<time>2023-05-18T12:05:07Z</time>
</trkpt>
<trkpt lat="49.33316197246313" lon="8.021042961627245">
<ele>265.20000000000005</ele>
<time>2023-05-18T12:05:08Z</time>
</trkpt>
<trkpt lat="49.333121990785" lon="8.021067939698696">
<ele>265.4</ele>
<time>2023-05-18T12:05:09Z</time>
</trkpt>
<trkpt lat="49.33307195082307" lon="8.02109694108367">
<ele>265.4</ele>
<time>2023-05-18T12:05:10Z</time>
</trkpt>
<trkpt lat="49.33302694000304" lon="8.021122924983501">
<ele>265.4</ele>
<time>2023-05-18T12:05:11Z</time>
</trkpt>
<trkpt lat="49.332976983860135" lon="8.021147986873984">
<ele>265.6</ele>
<time>2023-05-18T12:05:12Z</time>
</trkpt>
<trkpt lat="49.33292996138334" lon="8.021177994087338">
<ele>265.6</ele>
<time>2023-05-18T12:05:13Z</time>
</trkpt>
<trkpt lat="49.332892997190356" lon="8.021206995472312">
<ele>265.6</ele>
<time>2023-05-18T12:05:14Z</time>
</trkpt>
<trkpt lat="49.332852931693196" lon="8.021236918866634">
<ele>265.79999999999995</ele>
<time>2023-05-18T12:05:15Z</time>
</trkpt>
<trkpt lat="49.332806998863816" lon="8.021264998242259">
<ele>265.79999999999995</ele>
<time>2023-05-18T12:05:16Z</time>
</trkpt>
<trkpt lat="49.332762993872166" lon="8.021302968263626">
<ele>265.79999999999995</ele>
<time>2023-05-18T12:05:17Z</time>
</trkpt>
<trkpt lat="49.33271194808185" lon="8.0213319696486">
<ele>266</ele>
<time>2023-05-18T12:05:18Z</time>
</trkpt>
<trkpt lat="49.33266492560506" lon="8.021361976861954">
<ele>266</ele>
<time>2023-05-18T12:05:19Z</time>
</trkpt>
<trkpt lat="49.33262192644179" lon="8.021389972418547">
<ele>266</ele>
<time>2023-05-18T12:05:20Z</time>
</trkpt>
<trkpt lat="49.33257297612727" lon="8.021429954096675">
<ele>266</ele>
<time>2023-05-18T12:05:21Z</time>
</trkpt>
<trkpt lat="49.33253198862076" lon="8.02146197296679">
<ele>266.20000000000005</ele>
<time>2023-05-18T12:05:22Z</time>
</trkpt>
<trkpt lat="49.33248798362911" lon="8.021497931331396">
<ele>266.20000000000005</ele>
<time>2023-05-18T12:05:23Z</time>
</trkpt>
<trkpt lat="49.33245294727385" lon="8.021532967686653">
<ele>266.4</ele>
<time>2023-05-18T12:05:24Z</time>
</trkpt>
<trkpt lat="49.3324279692024" lon="8.021557945758104">
<ele>266.4</ele>
<time>2023-05-18T12:05:25Z</time>
</trkpt>
<trkpt lat="49.33240198530257" lon="8.021597927436233">
<ele>266.4</ele>
<time>2023-05-18T12:05:26Z</time>
</trkpt>
<trkpt lat="49.332372983917594" lon="8.021664982661605">
<ele>266.6</ele>
<time>2023-05-18T12:05:27Z</time>
</trkpt>
<trkpt lat="49.33235194534063" lon="8.021731954067945">
<ele>266.79999999999995</ele>
<time>2023-05-18T12:05:28Z</time>
</trkpt>
<trkpt lat="49.33232193812728" lon="8.021794985979795">
<ele>266.79999999999995</ele>
<time>2023-05-18T12:05:29Z</time>
</trkpt>
<trkpt lat="49.332291930913925" lon="8.021842930465937">
<ele>267</ele>
<time>2023-05-18T12:05:30Z</time>
</trkpt>
<trkpt lat="49.33227692730725" lon="8.02189297042787">
<ele>267.20000000000005</ele>
<time>2023-05-18T12:05:31Z</time>
</trkpt>
<trkpt lat="49.33225999586284" lon="8.021937981247902">
<ele>267.4</ele>
<time>2023-05-18T12:05:32Z</time>
</trkpt>
<trkpt lat="49.332247925922275" lon="8.021994978189468">
<ele>267.6</ele>
<time>2023-05-18T12:05:33Z</time>
</trkpt>
<trkpt lat="49.33223191648722" lon="8.022051975131035">
<ele>267.79999999999995</ele>
<time>2023-05-18T12:05:34Z</time>
</trkpt>
<trkpt lat="49.33221498504281" lon="8.022097991779447">
<ele>268</ele>
<time>2023-05-18T12:05:35Z</time>
</trkpt>
<trkpt lat="49.33219796977937" lon="8.022141996771097">
<ele>268.20000000000005</ele>
<time>2023-05-18T12:05:36Z</time>
</trkpt>
<trkpt lat="49.332184977829456" lon="8.022187929600477">
<ele>268.4</ele>
<time>2023-05-18T12:05:37Z</time>
</trkpt>
<trkpt lat="49.33216695673764" lon="8.022231934592128">
<ele>268.4</ele>
<time>2023-05-18T12:05:38Z</time>
</trkpt>
<trkpt lat="49.33214792981744" lon="8.022266970947385">
<ele>268.6</ele>
<time>2023-05-18T12:05:39Z</time>
</trkpt>
<trkpt lat="49.33213192038238" lon="8.02229999564588">
<ele>268.79999999999995</ele>
<time>2023-05-18T12:05:40Z</time>
</trkpt>
<trkpt lat="49.33210291899741" lon="8.022336959838867">
<ele>269</ele>
<time>2023-05-18T12:05:41Z</time>
</trkpt>
<trkpt lat="49.332072995603085" lon="8.022374929860234">
<ele>269</ele>
<time>2023-05-18T12:05:42Z</time>
</trkpt>
<trkpt lat="49.332052962854505" lon="8.022409966215491">
<ele>269.20000000000005</ele>
<time>2023-05-18T12:05:43Z</time>
</trkpt>
<trkpt lat="49.332032930105925" lon="8.022444918751717">
<ele>269.4</ele>
<time>2023-05-18T12:05:44Z</time>
</trkpt>
<trkpt lat="49.33201792649925" lon="8.022484984248877">
<ele>269.6</ele>
<time>2023-05-18T12:05:45Z</time>
</trkpt>
<trkpt lat="49.33199998922646" lon="8.022527983412147">
<ele>269.6</ele>
<time>2023-05-18T12:05:46Z</time>
</trkpt>
<trkpt lat="49.33198297396302" lon="8.022572994232178">
<ele>269.79999999999995</ele>
<time>2023-05-18T12:05:47Z</time>
</trkpt>
<trkpt lat="49.33196294121444" lon="8.022619932889938">
<ele>270</ele>
<time>2023-05-18T12:05:48Z</time>
</trkpt>
<trkpt lat="49.331946931779385" lon="8.02266494370997">
<ele>270.20000000000005</ele>
<time>2023-05-18T12:05:49Z</time>
</trkpt>
<trkpt lat="49.33191994205117" lon="8.022714983671904">
<ele>270.4</ele>
<time>2023-05-18T12:05:50Z</time>
</trkpt>
<trkpt lat="49.33190192095935" lon="8.022757982835174">
<ele>270.6</ele>
<time>2023-05-18T12:05:51Z</time>
</trkpt>
<trkpt lat="49.331882977858186" lon="8.022806933149695">
<ele>270.79999999999995</ele>
<time>2023-05-18T12:05:52Z</time>
</trkpt>
<trkpt lat="49.33185297064483" lon="8.022846998646855">
<ele>271</ele>
<time>2023-05-18T12:05:53Z</time>
</trkpt>
<trkpt lat="49.33183494955301" lon="8.022882957011461">
<ele>271.20000000000005</ele>
<time>2023-05-18T12:05:54Z</time>
</trkpt>
<trkpt lat="49.3318079598248" lon="8.022929979488254">
<ele>271.4</ele>
<time>2023-05-18T12:05:55Z</time>
</trkpt>
<trkpt lat="49.33178692124784" lon="8.022982953116298">
<ele>271.6</ele>
<time>2023-05-18T12:05:56Z</time>
</trkpt>
<trkpt lat="49.33176194317639" lon="8.023036932572722">
<ele>271.6</ele>
<time>2023-05-18T12:05:57Z</time>
</trkpt>
<trkpt lat="49.33173998259008" lon="8.023091917857528">
<ele>271.79999999999995</ele>
<time>2023-05-18T12:05:58Z</time>
</trkpt>
<trkpt lat="49.331714920699596" lon="8.023136928677559">
<ele>272</ele>
<time>2023-05-18T12:05:59Z</time>
</trkpt>
<trkpt lat="49.33169497177005" lon="8.02318193949759">
<ele>272.20000000000005</ele>
<time>2023-05-18T12:06:00Z</time>
</trkpt>
<trkpt lat="49.33167695067823" lon="8.023217981681228">
<ele>272.4</ele>
<time>2023-05-18T12:06:01Z</time>
</trkpt>
<trkpt lat="49.33165691792965" lon="8.023251928389072">
<ele>272.6</ele>
<time>2023-05-18T12:06:02Z</time>
</trkpt>
<trkpt lat="49.33163495734334" lon="8.023292999714613">
<ele>272.79999999999995</ele>
<time>2023-05-18T12:06:03Z</time>
</trkpt>
<trkpt lat="49.33160997927189" lon="8.023346979171038">
<ele>273</ele>
<time>2023-05-18T12:06:04Z</time>
</trkpt>
<trkpt lat="49.331584917381406" lon="8.02339693531394">
<ele>273.20000000000005</ele>
<time>2023-05-18T12:06:05Z</time>
</trkpt>
<trkpt lat="49.331561950966716" lon="8.023449992761016">
<ele>273.4</ele>
<time>2023-05-18T12:06:06Z</time>
</trkpt>
<trkpt lat="49.331541918218136" lon="8.023499948903918">
<ele>273.6</ele>
<time>2023-05-18T12:06:07Z</time>
</trkpt>
<trkpt lat="49.33152792043984" lon="8.023534985259175">
<ele>273.79999999999995</ele>
<time>2023-05-18T12:06:08Z</time>
</trkpt>
<trkpt lat="49.33151492848992" lon="8.023577984422445">
<ele>274</ele>
<time>2023-05-18T12:06:09Z</time>
</trkpt>
<trkpt lat="49.331492967903614" lon="8.023622995242476">
<ele>274.20000000000005</ele>
<time>2023-05-18T12:06:10Z</time>
</trkpt>
<trkpt lat="49.33146991766989" lon="8.023662976920605">
<ele>274.4</ele>
<time>2023-05-18T12:06:11Z</time>
</trkpt>
<trkpt lat="49.3314469512552" lon="8.023701952770352">
<ele>274.6</ele>
<time>2023-05-18T12:06:12Z</time>
</trkpt>
<trkpt lat="49.331427924335" lon="8.023734977468848">
<ele>274.79999999999995</ele>
<time>2023-05-18T12:06:13Z</time>
</trkpt>
<trkpt lat="49.331406969577074" lon="8.023774959146976">
<ele>275</ele>
<time>2023-05-18T12:06:14Z</time>
</trkpt>
<trkpt lat="49.33138492517173" lon="8.02382298745215">
<ele>275.20000000000005</ele>
<time>2023-05-18T12:06:15Z</time>
</trkpt>
<trkpt lat="49.33135793544352" lon="8.023862969130278">
<ele>275.4</ele>
<time>2023-05-18T12:06:16Z</time>
</trkpt>
<trkpt lat="49.33132993988693" lon="8.023914936929941">
<ele>275.6</ele>
<time>2023-05-18T12:06:17Z</time>
</trkpt>
<trkpt lat="49.331304961815476" lon="8.023962965235114">
<ele>275.79999999999995</ele>
<time>2023-05-18T12:06:18Z</time>
</trkpt>
<trkpt lat="49.331282917410135" lon="8.024009987711906">
<ele>276</ele>
<time>2023-05-18T12:06:19Z</time>
</trkpt>
<trkpt lat="49.331261962652206" lon="8.024052986875176">
<ele>276.20000000000005</ele>
<time>2023-05-18T12:06:20Z</time>
</trkpt>
<trkpt lat="49.33124293573201" lon="8.024096991866827">
<ele>276.4</ele>
<time>2023-05-18T12:06:21Z</time>
</trkpt>
<trkpt lat="49.33122793212533" lon="8.02414694800973">
<ele>276.6</ele>
<time>2023-05-18T12:06:22Z</time>
</trkpt>
<trkpt lat="49.331214940175414" lon="8.02419195882976">
<ele>276.79999999999995</ele>
<time>2023-05-18T12:06:23Z</time>
</trkpt>
<trkpt lat="49.331197924911976" lon="8.024226995185018">
<ele>277</ele>
<time>2023-05-18T12:06:24Z</time>
</trkpt>
<trkpt lat="49.3311829213053" lon="8.02425691857934">
<ele>277.20000000000005</ele>
<time>2023-05-18T12:06:25Z</time>
</trkpt>
<trkpt lat="49.33116791769862" lon="8.024282986298203">
<ele>277.4</ele>
<time>2023-05-18T12:06:26Z</time>
</trkpt>
<trkpt lat="49.33114193379879" lon="8.024309976026416">
<ele>277.6</ele>
<time>2023-05-18T12:06:27Z</time>
</trkpt>
<trkpt lat="49.33111293241382" lon="8.024341994896531">
<ele>277.79999999999995</ele>
<time>2023-05-18T12:06:28Z</time>
</trkpt>
<trkpt lat="49.331089965999126" lon="8.024371918290854">
<ele>278</ele>
<time>2023-05-18T12:06:29Z</time>
</trkpt>
<trkpt lat="49.33106197044253" lon="8.024399997666478">
<ele>278.20000000000005</ele>
<time>2023-05-18T12:06:30Z</time>
</trkpt>
<trkpt lat="49.33103498071432" lon="8.024431932717562">
<ele>278.4</ele>
<time>2023-05-18T12:06:31Z</time>
</trkpt>
<trkpt lat="49.33100799098611" lon="8.024452971294522">
<ele>278.6</ele>
<time>2023-05-18T12:06:32Z</time>
</trkpt>
<trkpt lat="49.33098494075239" lon="8.024482978507876">
<ele>278.79999999999995</ele>
<time>2023-05-18T12:06:33Z</time>
</trkpt>
<trkpt lat="49.33094495907426" lon="8.024499993771315">
<ele>279</ele>
<time>2023-05-18T12:06:34Z</time>
</trkpt>
<trkpt lat="49.33090296573937" lon="8.02451197989285">
<ele>279.4</ele>
<time>2023-05-18T12:06:35Z</time>
</trkpt>
<trkpt lat="49.330871952697635" lon="8.024531928822398">
<ele>279.6</ele>
<time>2023-05-18T12:06:36Z</time>
</trkpt>
<trkpt lat="49.330829959362745" lon="8.024561936035752">
<ele>279.79999999999995</ele>
<time>2023-05-18T12:06:37Z</time>
</trkpt>
<trkpt lat="49.330804981291294" lon="8.024587919935584">
<ele>280</ele>
<time>2023-05-18T12:06:38Z</time>
</trkpt>
<trkpt lat="49.3307769857347" lon="8.024617927148938">
<ele>280.20000000000005</ele>
<time>2023-05-18T12:06:39Z</time>
</trkpt>
<trkpt lat="49.330742955207825" lon="8.024637959897518">
<ele>280.20000000000005</ele>
<time>2023-05-18T12:06:40Z</time>
</trkpt>
<trkpt lat="49.33071194216609" lon="8.02466293796897">
<ele>280.4</ele>
<time>2023-05-18T12:06:41Z</time>
</trkpt>
<trkpt lat="49.330679923295975" lon="8.024696968495846">
<ele>280.6</ele>
<time>2023-05-18T12:06:42Z</time>
</trkpt>
<trkpt lat="49.33065293356776" lon="8.024716917425394">
<ele>280.79999999999995</ele>
<time>2023-05-18T12:06:43Z</time>
</trkpt>
<trkpt lat="49.33062292635441" lon="8.024732926860452">
<ele>280.79999999999995</ele>
<time>2023-05-18T12:06:44Z</time>
</trkpt>
<trkpt lat="49.33056299574673" lon="8.02476997487247">
<ele>281</ele>
<time>2023-05-18T12:06:45Z</time>
</trkpt>
<trkpt lat="49.33051496744156" lon="8.024799982085824">
<ele>281.20000000000005</ele>
<time>2023-05-18T12:06:46Z</time>
</trkpt>
<trkpt lat="49.330486971884966" lon="8.024806939065456">
<ele>281.20000000000005</ele>
<time>2023-05-18T12:06:47Z</time>
</trkpt>
<trkpt lat="49.33045294135809" lon="8.02481297403574">
<ele>281.20000000000005</ele>
<time>2023-05-18T12:06:48Z</time>
</trkpt>
<trkpt lat="49.330419916659594" lon="8.024807944893837">
<ele>281.4</ele>
<time>2023-05-18T12:06:49Z</time>
</trkpt>
<trkpt lat="49.330376917496324" lon="8.024804927408695">
<ele>281.4</ele>
<time>2023-05-18T12:06:50Z</time>
</trkpt>
<trkpt lat="49.330336935818195" lon="8.024804927408695">
<ele>281.4</ele>
<time>2023-05-18T12:06:51Z</time>
</trkpt>
<trkpt lat="49.330292930826545" lon="8.024801993742585">
<ele>281.6</ele>
<time>2023-05-18T12:06:52Z</time>
</trkpt>
<trkpt lat="49.330247920006514" lon="8.024794952943921">
<ele>281.6</ele>
<time>2023-05-18T12:06:53Z</time>
</trkpt>
<trkpt lat="49.330207938328385" lon="8.02479294128716">
<ele>281.6</ele>
<time>2023-05-18T12:06:54Z</time>
</trkpt>
<trkpt lat="49.33014993555844" lon="8.024816997349262">
<ele>281.79999999999995</ele>
<time>2023-05-18T12:06:55Z</time>
</trkpt>
<trkpt lat="49.33011498302221" lon="8.024817919358611">
<ele>281.79999999999995</ele>
<time>2023-05-18T12:06:56Z</time>
</trkpt>
<trkpt lat="49.33008497580886" lon="8.024817919358611">
<ele>281.79999999999995</ele>
<time>2023-05-18T12:06:57Z</time>
</trkpt>
<trkpt lat="49.330052956938744" lon="8.024817919358611">
<ele>282</ele>
<time>2023-05-18T12:06:58Z</time>
</trkpt>
<trkpt lat="49.33002194389701" lon="8.024807944893837">
<ele>282</ele>
<time>2023-05-18T12:06:59Z</time>
</trkpt>
<trkpt lat="49.32998497970402" lon="8.024806939065456">
<ele>282.20000000000005</ele>
<time>2023-05-18T12:07:00Z</time>
</trkpt>
<trkpt lat="49.32995698414743" lon="8.024807944893837">
<ele>282.20000000000005</ele>
<time>2023-05-18T12:07:01Z</time>
</trkpt>
<trkpt lat="49.32991993613541" lon="8.02481297403574">
<ele>282.20000000000005</ele>
<time>2023-05-18T12:07:02Z</time>
</trkpt>
<trkpt lat="49.329884983599186" lon="8.024816997349262">
<ele>282.20000000000005</ele>
<time>2023-05-18T12:07:03Z</time>
</trkpt>
<trkpt lat="49.32985296472907" lon="8.024814985692501">
<ele>282.4</ele>
<time>2023-05-18T12:07:04Z</time>
</trkpt>
<trkpt lat="49.32981692254543" lon="8.024817919358611">
<ele>282.4</ele>
<time>2023-05-18T12:07:05Z</time>
</trkpt>
<trkpt lat="49.32976998388767" lon="8.024817919358611">
<ele>282.4</ele>
<time>2023-05-18T12:07:06Z</time>
</trkpt>
<trkpt lat="49.32972497306764" lon="8.024827977642417">
<ele>282.4</ele>
<time>2023-05-18T12:07:07Z</time>
</trkpt>
<trkpt lat="49.329692954197526" lon="8.02483493462205">
<ele>282.6</ele>
<time>2023-05-18T12:07:08Z</time>
</trkpt>
<trkpt lat="49.32965498417616" lon="8.024839963763952">
<ele>282.6</ele>
<time>2023-05-18T12:07:09Z</time>
</trkpt>
<trkpt lat="49.329606955870986" lon="8.024851949885488">
<ele>282.6</ele>
<time>2023-05-18T12:07:10Z</time>
</trkpt>
<trkpt lat="49.32954794727266" lon="8.024867959320545">
<ele>282.79999999999995</ele>
<time>2023-05-18T12:07:11Z</time>
</trkpt>
<trkpt lat="49.329517940059304" lon="8.024882962927222">
<ele>282.79999999999995</ele>
<time>2023-05-18T12:07:12Z</time>
</trkpt>
<trkpt lat="49.329496985301375" lon="8.024876927956939">
<ele>283</ele>
<time>2023-05-18T12:07:13Z</time>
</trkpt>
<trkpt lat="49.32947292923927" lon="8.024864941835403">
<ele>283</ele>
<time>2023-05-18T12:07:14Z</time>
</trkpt>
<trkpt lat="49.32944292202592" lon="8.02485697902739">
<ele>283</ele>
<time>2023-05-18T12:07:15Z</time>
</trkpt>
<trkpt lat="49.32941995561123" lon="8.024849938228726">
<ele>283.20000000000005</ele>
<time>2023-05-18T12:07:16Z</time>
</trkpt>
<trkpt lat="49.329389948397875" lon="8.02485496737063">
<ele>283.20000000000005</ele>
<time>2023-05-18T12:07:17Z</time>
</trkpt>
<trkpt lat="49.32935197837651" lon="8.024861924350262">
<ele>283.4</ele>
<time>2023-05-18T12:07:18Z</time>
</trkpt>
<trkpt lat="49.32931199669838" lon="8.024867959320545">
<ele>283.6</ele>
<time>2023-05-18T12:07:19Z</time>
</trkpt>
<trkpt lat="49.3292729370296" lon="8.02487994544208">
<ele>283.6</ele>
<time>2023-05-18T12:07:20Z</time>
</trkpt>
<trkpt lat="49.329239996150136" lon="8.024891931563616">
<ele>283.79999999999995</ele>
<time>2023-05-18T12:07:21Z</time>
</trkpt>
<trkpt lat="49.32920194230974" lon="8.024896960705519">
<ele>283.79999999999995</ele>
<time>2023-05-18T12:07:22Z</time>
</trkpt>
<trkpt lat="49.329156931489706" lon="8.024907940998673">
<ele>284</ele>
<time>2023-05-18T12:07:23Z</time>
</trkpt>
<trkpt lat="49.32911493815482" lon="8.02491799928248">
<ele>284</ele>
<time>2023-05-18T12:07:24Z</time>
</trkpt>
<trkpt lat="49.32907998561859" lon="8.024929985404015">
<ele>284.20000000000005</ele>
<time>2023-05-18T12:07:25Z</time>
</trkpt>
<trkpt lat="49.329051990062" lon="8.024939959868789">
<ele>284.4</ele>
<time>2023-05-18T12:07:26Z</time>
</trkpt>
<trkpt lat="49.329026928171515" lon="8.024944989010692">
<ele>284.4</ele>
<time>2023-05-18T12:07:27Z</time>
</trkpt>
<trkpt lat="49.32899499312043" lon="8.024944989010692">
<ele>284.6</ele>
<time>2023-05-18T12:07:28Z</time>
</trkpt>
<trkpt lat="49.32896699756384" lon="8.024939959868789">
<ele>284.79999999999995</ele>
<time>2023-05-18T12:07:29Z</time>
</trkpt>
<trkpt lat="49.328939924016595" lon="8.024929985404015">
<ele>285</ele>
<time>2023-05-18T12:07:30Z</time>
</trkpt>
<trkpt lat="49.32891293428838" lon="8.024927973747253">
<ele>285</ele>
<time>2023-05-18T12:07:31Z</time>
</trkpt>
<trkpt lat="49.32888695038855" lon="8.024924956262112">
<ele>285.20000000000005</ele>
<time>2023-05-18T12:07:32Z</time>
</trkpt>
<trkpt lat="49.32885794900358" lon="8.024926967918873">
<ele>285.4</ele>
<time>2023-05-18T12:07:33Z</time>
</trkpt>
<trkpt lat="49.32883498258889" lon="8.024934930726886">
<ele>285.6</ele>
<time>2023-05-18T12:07:34Z</time>
</trkpt>
<trkpt lat="49.32881494984031" lon="8.024947922676802">
<ele>285.79999999999995</ele>
<time>2023-05-18T12:07:35Z</time>
</trkpt>
<trkpt lat="49.32878494262695" lon="8.024956975132227">
<ele>285.79999999999995</ele>
<time>2023-05-18T12:07:36Z</time>
</trkpt>
<trkpt lat="49.328746972605586" lon="8.024952951818705">
<ele>286</ele>
<time>2023-05-18T12:07:37Z</time>
</trkpt>
<trkpt lat="49.32871696539223" lon="8.024956975132227">
<ele>286.20000000000005</ele>
<time>2023-05-18T12:07:38Z</time>
</trkpt>
<trkpt lat="49.32868796400726" lon="8.024947922676802">
<ele>286.20000000000005</ele>
<time>2023-05-18T12:07:39Z</time>
</trkpt>
<trkpt lat="49.3286669254303" lon="8.024952951818705">
<ele>286.4</ele>
<time>2023-05-18T12:07:40Z</time>
</trkpt>
<trkpt lat="49.32862794958055" lon="8.02494297735393">
<ele>286.6</ele>
<time>2023-05-18T12:07:41Z</time>
</trkpt>
<trkpt lat="49.328592997044325" lon="8.024939959868789">
<ele>286.6</ele>
<time>2023-05-18T12:07:42Z</time>
</trkpt>
<trkpt lat="49.32856692932546" lon="8.024949934333563">
<ele>286.79999999999995</ele>
<time>2023-05-18T12:07:43Z</time>
</trkpt>
<trkpt lat="49.32853792794049" lon="8.024946916848421">
<ele>286.79999999999995</ele>
<time>2023-05-18T12:07:44Z</time>
</trkpt>
<trkpt lat="49.32851797901094" lon="8.024944989010692">
<ele>287</ele>
<time>2023-05-18T12:07:45Z</time>
</trkpt>
<trkpt lat="49.32848294265568" lon="8.02494197152555">
<ele>287</ele>
<time>2023-05-18T12:07:46Z</time>
</trkpt>
<trkpt lat="49.328444972634315" lon="8.024944989010692">
<ele>287.20000000000005</ele>
<time>2023-05-18T12:07:47Z</time>
</trkpt>
<trkpt lat="49.3284079246223" lon="8.024946916848421">
<ele>287.4</ele>
<time>2023-05-18T12:07:48Z</time>
</trkpt>
<trkpt lat="49.328379929065704" lon="8.024937948212028">
<ele>287.4</ele>
<time>2023-05-18T12:07:49Z</time>
</trkpt>
<trkpt lat="49.32835293933749" lon="8.024932919070125">
<ele>287.6</ele>
<time>2023-05-18T12:07:50Z</time>
</trkpt>
<trkpt lat="49.328316980972886" lon="8.024932919070125">
<ele>287.6</ele>
<time>2023-05-18T12:07:51Z</time>
</trkpt>
<trkpt lat="49.328289991244674" lon="8.02492193877697">
<ele>287.79999999999995</ele>
<time>2023-05-18T12:07:52Z</time>
</trkpt>
<trkpt lat="49.328251937404275" lon="8.024912970140576">
<ele>288</ele>
<time>2023-05-18T12:07:53Z</time>
</trkpt>
<trkpt lat="49.328207932412624" lon="8.024904923513532">
<ele>288.20000000000005</ele>
<time>2023-05-18T12:07:54Z</time>
</trkpt>
<trkpt lat="49.328167950734496" lon="8.0248979665339">
<ele>288.20000000000005</ele>
<time>2023-05-18T12:07:55Z</time>
</trkpt>
<trkpt lat="49.32813299819827" lon="8.024882962927222">
<ele>288.4</ele>
<time>2023-05-18T12:07:56Z</time>
</trkpt>
<trkpt lat="49.328099973499775" lon="8.024867959320545">
<ele>288.6</ele>
<time>2023-05-18T12:07:57Z</time>
</trkpt>
<trkpt lat="49.32806795462966" lon="8.02485496737063">
<ele>288.6</ele>
<time>2023-05-18T12:07:58Z</time>
</trkpt>
<trkpt lat="49.32802998460829" lon="8.024851949885488">
<ele>288.79999999999995</ele>
<time>2023-05-18T12:07:59Z</time>
</trkpt>
<trkpt lat="49.32798698544502" lon="8.024847926571965">
<ele>289</ele>
<time>2023-05-18T12:08:00Z</time>
</trkpt>
<trkpt lat="49.327949937433004" lon="8.02483493462205">
<ele>289.20000000000005</ele>
<time>2023-05-18T12:08:01Z</time>
</trkpt>
<trkpt lat="49.32791196741164" lon="8.024821942672133">
<ele>289.20000000000005</ele>
<time>2023-05-18T12:08:02Z</time>
</trkpt>
<trkpt lat="49.32787793688476" lon="8.024804927408695">
<ele>289.4</ele>
<time>2023-05-18T12:08:03Z</time>
</trkpt>
<trkpt lat="49.32784792967141" lon="8.024787995964289">
<ele>289.6</ele>
<time>2023-05-18T12:08:04Z</time>
</trkpt>
<trkpt lat="49.327819934114814" lon="8.024761928245425">
<ele>289.6</ele>
<time>2023-05-18T12:08:05Z</time>
</trkpt>
<trkpt lat="49.32778799906373" lon="8.024737956002355">
<ele>289.79999999999995</ele>
<time>2023-05-18T12:08:06Z</time>
</trkpt>
<trkpt lat="49.32774692773819" lon="8.024721946567297">
<ele>290</ele>
<time>2023-05-18T12:08:07Z</time>
</trkpt>
<trkpt lat="49.32770694606006" lon="8.024702919647098">
<ele>290</ele>
<time>2023-05-18T12:08:08Z</time>
</trkpt>
<trkpt lat="49.327669981867075" lon="8.024687999859452">
<ele>290.20000000000005</ele>
<time>2023-05-18T12:08:09Z</time>
</trkpt>
<trkpt lat="49.32763997465372" lon="8.024672996252775">
<ele>290.20000000000005</ele>
<time>2023-05-18T12:08:10Z</time>
</trkpt>
<trkpt lat="49.32761197909713" lon="8.024651957675815">
<ele>290.4</ele>
<time>2023-05-18T12:08:11Z</time>
</trkpt>
<trkpt lat="49.327581971883774" lon="8.024632930755615">
<ele>290.4</ele>
<time>2023-05-18T12:08:12Z</time>
</trkpt>
<trkpt lat="49.32754995301366" lon="8.024612981826067">
<ele>290.4</ele>
<time>2023-05-18T12:08:13Z</time>
</trkpt>
<trkpt lat="49.32751692831516" lon="8.024594960734248">
<ele>290.6</ele>
<time>2023-05-18T12:08:14Z</time>
</trkpt>
<trkpt lat="49.327477952465415" lon="8.024579957127571">
<ele>290.6</ele>
<time>2023-05-18T12:08:15Z</time>
</trkpt>
<trkpt lat="49.32744199410081" lon="8.024562941864133">
<ele>290.6</ele>
<time>2023-05-18T12:08:16Z</time>
</trkpt>
<trkpt lat="49.32739991694689" lon="8.024546932429075">
<ele>290.6</ele>
<time>2023-05-18T12:08:17Z</time>
</trkpt>
<trkpt lat="49.327366976067424" lon="8.024522960186005">
<ele>290.6</ele>
<time>2023-05-18T12:08:18Z</time>
</trkpt>
<trkpt lat="49.327326994389296" lon="8.024497982114553">
<ele>290.6</ele>
<time>2023-05-18T12:08:19Z</time>
</trkpt>
<trkpt lat="49.327287934720516" lon="8.024482978507876">
<ele>290.6</ele>
<time>2023-05-18T12:08:20Z</time>
</trkpt>
<trkpt lat="49.327242923900485" lon="8.024477949365973">
<ele>290.6</ele>
<time>2023-05-18T12:08:21Z</time>
</trkpt>
<trkpt lat="49.327197996899486" lon="8.024471998214722">
<ele>290.4</ele>
<time>2023-05-18T12:08:22Z</time>
</trkpt>
<trkpt lat="49.327154997736216" lon="8.024464957416058">
<ele>290.4</ele>
<time>2023-05-18T12:08:23Z</time>
</trkpt>
<trkpt lat="49.32711996138096" lon="8.024454982951283">
<ele>290.4</ele>
<time>2023-05-18T12:08:24Z</time>
</trkpt>
<trkpt lat="49.32708199135959" lon="8.024434950202703">
<ele>290.4</ele>
<time>2023-05-18T12:08:25Z</time>
</trkpt>
<trkpt lat="49.32704192586243" lon="8.024396980181336">
<ele>290.4</ele>
<time>2023-05-18T12:08:26Z</time>
</trkpt>
<trkpt lat="49.32699792087078" lon="8.024359932169318">
<ele>290.20000000000005</ele>
<time>2023-05-18T12:08:27Z</time>
</trkpt>
<trkpt lat="49.32695299386978" lon="8.02431995049119">
<ele>290.20000000000005</ele>
<time>2023-05-18T12:08:28Z</time>
</trkpt>
<trkpt lat="49.32690798304975" lon="8.024282986298203">
<ele>290.20000000000005</ele>
<time>2023-05-18T12:08:29Z</time>
</trkpt>
<trkpt lat="49.32686699554324" lon="8.024247949942946">
<ele>290.20000000000005</ele>
<time>2023-05-18T12:08:30Z</time>
</trkpt>
<trkpt lat="49.32682793587446" lon="8.024219954386353">
<ele>290.20000000000005</ele>
<time>2023-05-18T12:08:31Z</time>
</trkpt>
<trkpt lat="49.32677797973156" lon="8.024189947173">
<ele>290.20000000000005</ele>
<time>2023-05-18T12:08:32Z</time>
</trkpt>
<trkpt lat="49.326727939769626" lon="8.024164969101548">
<ele>290.20000000000005</ele>
<time>2023-05-18T12:08:33Z</time>
</trkpt>
<trkpt lat="49.326684940606356" lon="8.024109983816743">
<ele>290</ele>
<time>2023-05-18T12:08:34Z</time>
</trkpt>
<trkpt lat="49.326639929786325" lon="8.024064972996712">
<ele>290</ele>
<time>2023-05-18T12:08:35Z</time>
</trkpt>
<trkpt lat="49.326592991128564" lon="8.024024991318583">
<ele>290</ele>
<time>2023-05-18T12:08:36Z</time>
</trkpt>
<trkpt lat="49.32654697448015" lon="8.02397495135665">
<ele>290</ele>
<time>2023-05-18T12:08:37Z</time>
</trkpt>
<trkpt lat="49.3265029694885" lon="8.023922983556986">
<ele>290</ele>
<time>2023-05-18T12:08:38Z</time>
</trkpt>
<trkpt lat="49.32645292952657" lon="8.02386992610991">
<ele>290</ele>
<time>2023-05-18T12:08:39Z</time>
</trkpt>
<trkpt lat="49.326404985040426" lon="8.023817958310246">
<ele>290</ele>
<time>2023-05-18T12:08:40Z</time>
</trkpt>
<trkpt lat="49.32636299170554" lon="8.023772947490215">
<ele>290</ele>
<time>2023-05-18T12:08:41Z</time>
</trkpt>
<trkpt lat="49.326314963400364" lon="8.023734977468848">
<ele>290</ele>
<time>2023-05-18T12:08:42Z</time>
</trkpt>
<trkpt lat="49.32626492343843" lon="8.02369692362845">
<ele>290</ele>
<time>2023-05-18T12:08:43Z</time>
</trkpt>
<trkpt lat="49.32620692066848" lon="8.023657947778702">
<ele>290</ele>
<time>2023-05-18T12:08:44Z</time>
</trkpt>
<trkpt lat="49.32615696452558" lon="8.023622995242476">
<ele>290</ele>
<time>2023-05-18T12:08:45Z</time>
</trkpt>
<trkpt lat="49.326106924563646" lon="8.023591982200742">
<ele>290</ele>
<time>2023-05-18T12:08:46Z</time>
</trkpt>
<trkpt lat="49.32605294510722" lon="8.0235699377954">
<ele>290</ele>
<time>2023-05-18T12:08:47Z</time>
</trkpt>
<trkpt lat="49.325996953994036" lon="8.023551916703582">
<ele>290</ele>
<time>2023-05-18T12:08:48Z</time>
</trkpt>
<trkpt lat="49.32593995705247" lon="8.023541942238808">
<ele>290</ele>
<time>2023-05-18T12:08:49Z</time>
</trkpt>
<trkpt lat="49.3258829601109" lon="8.023536996915936">
<ele>290</ele>
<time>2023-05-18T12:08:50Z</time>
</trkpt>
<trkpt lat="49.32582696899772" lon="8.023537918925285">
<ele>290</ele>
<time>2023-05-18T12:08:51Z</time>
</trkpt>
<trkpt lat="49.325779946520925" lon="8.023531967774034">
<ele>290</ele>
<time>2023-05-18T12:08:52Z</time>
</trkpt>
<trkpt lat="49.325736947357655" lon="8.023532973602414">
<ele>290</ele>
<time>2023-05-18T12:08:53Z</time>
</trkpt>
<trkpt lat="49.32568992488086" lon="8.02354495972395">
<ele>290.20000000000005</ele>
<time>2023-05-18T12:08:54Z</time>
</trkpt>
<trkpt lat="49.3256429862231" lon="8.023541942238808">
<ele>290.20000000000005</ele>
<time>2023-05-18T12:08:55Z</time>
</trkpt>
<trkpt lat="49.32559998705983" lon="8.023539930582047">
<ele>290.20000000000005</ele>
<time>2023-05-18T12:08:56Z</time>
</trkpt>
<trkpt lat="49.32555799372494" lon="8.023536996915936">
<ele>290.4</ele>
<time>2023-05-18T12:08:57Z</time>
</trkpt>
<trkpt lat="49.3255169223994" lon="8.023536996915936">
<ele>290.4</ele>
<time>2023-05-18T12:08:58Z</time>
</trkpt>
<trkpt lat="49.32547291740775" lon="8.023552922531962">
<ele>290.6</ele>
<time>2023-05-18T12:08:59Z</time>
</trkpt>
<trkpt lat="49.325434947386384" lon="8.02356499247253">
<ele>290.79999999999995</ele>
<time>2023-05-18T12:09:00Z</time>
</trkpt>
<trkpt lat="49.32539999485016" lon="8.023576978594065">
<ele>291.20000000000005</ele>
<time>2023-05-18T12:09:01Z</time>
</trkpt>
<trkpt lat="49.32536797598004" lon="8.023586953058839">
<ele>291.4</ele>
<time>2023-05-18T12:09:02Z</time>
</trkpt>
<trkpt lat="49.325332939624786" lon="8.023599945008755">
<ele>291.6</ele>
<time>2023-05-18T12:09:03Z</time>
</trkpt>
<trkpt lat="49.32529295794666" lon="8.023614948615432">
<ele>291.79999999999995</ele>
<time>2023-05-18T12:09:04Z</time>
</trkpt>
<trkpt lat="49.325244929641485" lon="8.023629952222109">
<ele>292</ele>
<time>2023-05-18T12:09:05Z</time>
</trkpt>
<trkpt lat="49.325196985155344" lon="8.023639926686883">
<ele>292.20000000000005</ele>
<time>2023-05-18T12:09:06Z</time>
</trkpt>
<trkpt lat="49.32515298016369" lon="8.023657947778702">
<ele>292.4</ele>
<time>2023-05-18T12:09:07Z</time>
</trkpt>
<trkpt lat="49.32510796934366" lon="8.023676974698901">
<ele>292.6</ele>
<time>2023-05-18T12:09:08Z</time>
</trkpt>
<trkpt lat="49.32504694908857" lon="8.02369792945683">
<ele>292.79999999999995</ele>
<time>2023-05-18T12:09:09Z</time>
</trkpt>
<trkpt lat="49.32499799877405" lon="8.023706981912255">
<ele>293</ele>
<time>2023-05-18T12:09:10Z</time>
</trkpt>
<trkpt lat="49.324962962418795" lon="8.023707987740636">
<ele>293.20000000000005</ele>
<time>2023-05-18T12:09:11Z</time>
</trkpt>
<trkpt lat="49.3249299377203" lon="8.023712933063507">
<ele>293.4</ele>
<time>2023-05-18T12:09:12Z</time>
</trkpt>
<trkpt lat="49.324899930506945" lon="8.023719973862171">
<ele>293.6</ele>
<time>2023-05-18T12:09:13Z</time>
</trkpt>
<trkpt lat="49.32486296631396" lon="8.023724919185042">
<ele>293.79999999999995</ele>
<time>2023-05-18T12:09:14Z</time>
</trkpt>
<trkpt lat="49.3248279299587" lon="8.02373698912561">
<ele>294</ele>
<time>2023-05-18T12:09:15Z</time>
</trkpt>
<trkpt lat="49.32479498907924" lon="8.023732965812087">
<ele>294</ele>
<time>2023-05-18T12:09:16Z</time>
</trkpt>
<trkpt lat="49.32475794106722" lon="8.023731959983706">
<ele>294.20000000000005</ele>
<time>2023-05-18T12:09:17Z</time>
</trkpt>
<trkpt lat="49.324726928025484" lon="8.023727936670184">
<ele>294.4</ele>
<time>2023-05-18T12:09:18Z</time>
</trkpt>
<trkpt lat="49.32469692081213" lon="8.023721985518932">
<ele>294.6</ele>
<time>2023-05-18T12:09:19Z</time>
</trkpt>
<trkpt lat="49.32466993108392" lon="8.02371695637703">
<ele>294.79999999999995</ele>
<time>2023-05-18T12:09:20Z</time>
</trkpt>
<trkpt lat="49.32464797049761" lon="8.02371796220541">
<ele>295</ele>
<time>2023-05-18T12:09:21Z</time>
</trkpt>
<trkpt lat="49.324619974941015" lon="8.023714944720268">
<ele>295</ele>
<time>2023-05-18T12:09:22Z</time>
</trkpt>
<trkpt lat="49.324582926929" lon="8.023712933063507">
<ele>295.20000000000005</ele>
<time>2023-05-18T12:09:23Z</time>
</trkpt>
<trkpt lat="49.32454193942249" lon="8.023724919185042">
<ele>295.4</ele>
<time>2023-05-18T12:09:24Z</time>
</trkpt>
<trkpt lat="49.3244999460876" lon="8.023732965812087">
<ele>295.6</ele>
<time>2023-05-18T12:09:25Z</time>
</trkpt>
<trkpt lat="49.32445795275271" lon="8.02373799495399">
<ele>295.79999999999995</ele>
<time>2023-05-18T12:09:26Z</time>
</trkpt>
<trkpt lat="49.3244119361043" lon="8.02373698912561">
<ele>296</ele>
<time>2023-05-18T12:09:27Z</time>
</trkpt>
<trkpt lat="49.32436692528427" lon="8.023742940276861">
<ele>296.20000000000005</ele>
<time>2023-05-18T12:09:28Z</time>
</trkpt>
<trkpt lat="49.32432199828327" lon="8.023752998560667">
<ele>296.4</ele>
<time>2023-05-18T12:09:29Z</time>
</trkpt>
<trkpt lat="49.32428193278611" lon="8.0237599555403">
<ele>296.6</ele>
<time>2023-05-18T12:09:30Z</time>
</trkpt>
<trkpt lat="49.32425192557275" lon="8.023764984682202">
<ele>296.79999999999995</ele>
<time>2023-05-18T12:09:31Z</time>
</trkpt>
<trkpt lat="49.32422292418778" lon="8.023769930005074">
<ele>296.79999999999995</ele>
<time>2023-05-18T12:09:32Z</time>
</trkpt>
<trkpt lat="49.324191994965076" lon="8.023771941661835">
<ele>297</ele>
<time>2023-05-18T12:09:33Z</time>
</trkpt>
<trkpt lat="49.32415494695306" lon="8.023771941661835">
<ele>297.20000000000005</ele>
<time>2023-05-18T12:09:34Z</time>
</trkpt>
<trkpt lat="49.32412996888161" lon="8.023762973025441">
<ele>297.4</ele>
<time>2023-05-18T12:09:35Z</time>
</trkpt>
<trkpt lat="49.32409795001149" lon="8.023756938055158">
<ele>297.4</ele>
<time>2023-05-18T12:09:36Z</time>
</trkpt>
<trkpt lat="49.324059979990125" lon="8.023762973025441">
<ele>297.6</ele>
<time>2023-05-18T12:09:37Z</time>
</trkpt>
<trkpt lat="49.32401496917009" lon="8.023762973025441">
<ele>297.79999999999995</ele>
<time>2023-05-18T12:09:38Z</time>
</trkpt>
<trkpt lat="49.32396694086492" lon="8.023771941661835">
<ele>297.79999999999995</ele>
<time>2023-05-18T12:09:39Z</time>
</trkpt>
<trkpt lat="49.32391991838813" lon="8.02377998828888">
<ele>298</ele>
<time>2023-05-18T12:09:40Z</time>
</trkpt>
<trkpt lat="49.323869962245226" lon="8.023786945268512">
<ele>298</ele>
<time>2023-05-18T12:09:41Z</time>
</trkpt>
<trkpt lat="49.323824951425195" lon="8.023789962753654">
<ele>298.20000000000005</ele>
<time>2023-05-18T12:09:42Z</time>
</trkpt>
<trkpt lat="49.32377499528229" lon="8.023789962753654">
<ele>298.20000000000005</ele>
<time>2023-05-18T12:09:43Z</time>
</trkpt>
<trkpt lat="49.32372998446226" lon="8.023794991895556">
<ele>298.4</ele>
<time>2023-05-18T12:09:44Z</time>
</trkpt>
<trkpt lat="49.32368497364223" lon="8.02380295470357">
<ele>298.4</ele>
<time>2023-05-18T12:09:45Z</time>
</trkpt>
<trkpt lat="49.323629988357425" lon="8.023816952481866">
<ele>298.4</ele>
<time>2023-05-18T12:09:46Z</time>
</trkpt>
<trkpt lat="49.32357491925359" lon="8.023829944431782">
<ele>298.4</ele>
<time>2023-05-18T12:09:47Z</time>
</trkpt>
<trkpt lat="49.3235329259187" lon="8.023837991058826">
<ele>298.6</ele>
<time>2023-05-18T12:09:48Z</time>
</trkpt>
<trkpt lat="49.32348699308932" lon="8.023842936381698">
<ele>298.6</ele>
<time>2023-05-18T12:09:49Z</time>
</trkpt>
<trkpt lat="49.32344298809767" lon="8.023857939988375">
<ele>298.6</ele>
<time>2023-05-18T12:09:50Z</time>
</trkpt>
<trkpt lat="49.32342295534909" lon="8.023857939988375">
<ele>298.6</ele>
<time>2023-05-18T12:09:51Z</time>
</trkpt>
<trkpt lat="49.323392948135734" lon="8.02386992610991">
<ele>298.79999999999995</ele>
<time>2023-05-18T12:09:52Z</time>
</trkpt>
<trkpt lat="49.323351960629225" lon="8.023886941373348">
<ele>298.79999999999995</ele>
<time>2023-05-18T12:09:53Z</time>
</trkpt>
<trkpt lat="49.323306949809194" lon="8.023902950808406">
<ele>298.79999999999995</ele>
<time>2023-05-18T12:09:54Z</time>
</trkpt>
<trkpt lat="49.323267973959446" lon="8.0239119194448">
<ele>298.79999999999995</ele>
<time>2023-05-18T12:09:55Z</time>
</trkpt>
<trkpt lat="49.32321692816913" lon="8.02393195219338">
<ele>298.79999999999995</ele>
<time>2023-05-18T12:09:56Z</time>
</trkpt>
<trkpt lat="49.32317292317748" lon="8.02395491860807">
<ele>299</ele>
<time>2023-05-18T12:09:57Z</time>
</trkpt>
<trkpt lat="49.32312296703458" lon="8.023971933871508">
<ele>299</ele>
<time>2023-05-18T12:09:58Z</time>
</trkpt>
<trkpt lat="49.32307695038617" lon="8.023979980498552">
<ele>299</ele>
<time>2023-05-18T12:09:59Z</time>
</trkpt>
<trkpt lat="49.32302791625261" lon="8.023991966620088">
<ele>299</ele>
<time>2023-05-18T12:10:00Z</time>
</trkpt>
<trkpt lat="49.322982989251614" lon="8.0239999294281">
<ele>299.20000000000005</ele>
<time>2023-05-18T12:10:01Z</time>
</trkpt>
<trkpt lat="49.32294191792607" lon="8.024006970226765">
<ele>299.20000000000005</ele>
<time>2023-05-18T12:10:02Z</time>
</trkpt>
<trkpt lat="49.32289296761155" lon="8.024016944691539">
<ele>299.20000000000005</ele>
<time>2023-05-18T12:10:03Z</time>
</trkpt>
<trkpt lat="49.32284292764962" lon="8.024029936641455">
<ele>299.20000000000005</ele>
<time>2023-05-18T12:10:04Z</time>
</trkpt>
<trkpt lat="49.32278995402157" lon="8.024057932198048">
<ele>299.4</ele>
<time>2023-05-18T12:10:05Z</time>
</trkpt>
<trkpt lat="49.32273798622191" lon="8.024071929976344">
<ele>299.4</ele>
<time>2023-05-18T12:10:06Z</time>
</trkpt>
<trkpt lat="49.322686940431595" lon="8.024079976603389">
<ele>299.4</ele>
<time>2023-05-18T12:10:07Z</time>
</trkpt>
<trkpt lat="49.32263195514679" lon="8.02408299408853">
<ele>299.4</ele>
<time>2023-05-18T12:10:08Z</time>
</trkpt>
<trkpt lat="49.322576969861984" lon="8.024092968553305">
<ele>299.4</ele>
<time>2023-05-18T12:10:09Z</time>
</trkpt>
<trkpt lat="49.32252198457718" lon="8.024097997695208">
<ele>299.4</ele>
<time>2023-05-18T12:10:10Z</time>
</trkpt>
<trkpt lat="49.32245995849371" lon="8.024109983816743">
<ele>299.4</ele>
<time>2023-05-18T12:10:11Z</time>
</trkpt>
<trkpt lat="49.322399944067" lon="8.024117946624756">
<ele>299.4</ele>
<time>2023-05-18T12:10:12Z</time>
</trkpt>
<trkpt lat="49.322341941297054" lon="8.024122975766659">
<ele>299.4</ele>
<time>2023-05-18T12:10:13Z</time>
</trkpt>
<trkpt lat="49.32229491882026" lon="8.024132950231433">
<ele>299.4</ele>
<time>2023-05-18T12:10:14Z</time>
</trkpt>
<trkpt lat="49.32224697433412" lon="8.02414694800973">
<ele>299.4</ele>
<time>2023-05-18T12:10:15Z</time>
</trkpt>
<trkpt lat="49.32219693437219" lon="8.024159939959645">
<ele>299.4</ele>
<time>2023-05-18T12:10:16Z</time>
</trkpt>
<trkpt lat="49.322151923552155" lon="8.024169998243451">
<ele>299.4</ele>
<time>2023-05-18T12:10:17Z</time>
</trkpt>
<trkpt lat="49.32209995575249" lon="8.02417192608118">
<ele>299.4</ele>
<time>2023-05-18T12:10:18Z</time>
</trkpt>
<trkpt lat="49.32204497046769" lon="8.024184918031096">
<ele>299.4</ele>
<time>2023-05-18T12:10:19Z</time>
</trkpt>
<trkpt lat="49.32199493050575" lon="8.024186929687858">
<ele>299.4</ele>
<time>2023-05-18T12:10:20Z</time>
</trkpt>
<trkpt lat="49.32194497436285" lon="8.024192964658141">
<ele>299.4</ele>
<time>2023-05-18T12:10:21Z</time>
</trkpt>
<trkpt lat="49.32189694605768" lon="8.024189947173">
<ele>299.4</ele>
<time>2023-05-18T12:10:22Z</time>
</trkpt>
<trkpt lat="49.321847995743155" lon="8.024184918031096">
<ele>299.4</ele>
<time>2023-05-18T12:10:23Z</time>
</trkpt>
<trkpt lat="49.321801979094744" lon="8.02416798658669">
<ele>299.4</ele>
<time>2023-05-18T12:10:24Z</time>
</trkpt>
<trkpt lat="49.32175495661795" lon="8.024164969101548">
<ele>299.4</ele>
<time>2023-05-18T12:10:25Z</time>
</trkpt>
<trkpt lat="49.32171195745468" lon="8.024162957444787">
<ele>299.4</ele>
<time>2023-05-18T12:10:26Z</time>
</trkpt>
<trkpt lat="49.32166493497789" lon="8.02417192608118">
<ele>299.4</ele>
<time>2023-05-18T12:10:27Z</time>
</trkpt>
<trkpt lat="49.321612967178226" lon="8.024179972708225">
<ele>299.6</ele>
<time>2023-05-18T12:10:28Z</time>
</trkpt>
<trkpt lat="49.32155798189342" lon="8.024187935516238">
<ele>299.6</ele>
<time>2023-05-18T12:10:29Z</time>
</trkpt>
<trkpt lat="49.321506936103106" lon="8.024192964658141">
<ele>299.6</ele>
<time>2023-05-18T12:10:30Z</time>
</trkpt>
<trkpt lat="49.3214569799602" lon="8.024199921637774">
<ele>299.79999999999995</ele>
<time>2023-05-18T12:10:31Z</time>
</trkpt>
<trkpt lat="49.32141196914017" lon="8.024199921637774">
<ele>299.79999999999995</ele>
<time>2023-05-18T12:10:32Z</time>
</trkpt>
<trkpt lat="49.32136796414852" lon="8.024201933294535">
<ele>300</ele>
<time>2023-05-18T12:10:33Z</time>
</trkpt>
<trkpt lat="49.32132798247039" lon="8.02421492524445">
<ele>300</ele>
<time>2023-05-18T12:10:34Z</time>
</trkpt>
<trkpt lat="49.321292946115136" lon="8.024221966043115">
<ele>300</ele>
<time>2023-05-18T12:10:35Z</time>
</trkpt>
<trkpt lat="49.32125992141664" lon="8.024227917194366">
<ele>300.20000000000005</ele>
<time>2023-05-18T12:10:36Z</time>
</trkpt>
<trkpt lat="49.321226980537176" lon="8.024229928851128">
<ele>300.20000000000005</ele>
<time>2023-05-18T12:10:37Z</time>
</trkpt>
<trkpt lat="49.32119697332382" lon="8.02423495799303">
<ele>300.4</ele>
<time>2023-05-18T12:10:38Z</time>
</trkpt>
<trkpt lat="49.32116696611047" lon="8.024237975478172">
<ele>300.4</ele>
<time>2023-05-18T12:10:39Z</time>
</trkpt>
<trkpt lat="49.32112195529044" lon="8.02421492524445">
<ele>300.6</ele>
<time>2023-05-18T12:10:40Z</time>
</trkpt>
<trkpt lat="49.32110292837024" lon="8.024219954386353">
<ele>300.6</ele>
<time>2023-05-18T12:10:41Z</time>
</trkpt>
<trkpt lat="49.32107996195555" lon="8.02423495799303">
<ele>300.79999999999995</ele>
<time>2023-05-18T12:10:42Z</time>
</trkpt>
<trkpt lat="49.321054983884096" lon="8.024251973256469">
<ele>300.79999999999995</ele>
<time>2023-05-18T12:10:43Z</time>
</trkpt>
<trkpt lat="49.3210219591856" lon="8.02427695132792">
<ele>301</ele>
<time>2023-05-18T12:10:44Z</time>
</trkpt>
<trkpt lat="49.32098197750747" lon="8.024302935227752">
<ele>301</ele>
<time>2023-05-18T12:10:45Z</time>
</trkpt>
<trkpt lat="49.3209529761225" lon="8.024331936612725">
<ele>301.20000000000005</ele>
<time>2023-05-18T12:10:46Z</time>
</trkpt>
<trkpt lat="49.32093294337392" lon="8.024359932169318">
<ele>301.20000000000005</ele>
<time>2023-05-18T12:10:47Z</time>
</trkpt>
<trkpt lat="49.32090796530247" lon="8.024389939382672">
<ele>301.4</ele>
<time>2023-05-18T12:10:48Z</time>
</trkpt>
<trkpt lat="49.32087695226073" lon="8.024432938545942">
<ele>301.4</ele>
<time>2023-05-18T12:10:49Z</time>
</trkpt>
<trkpt lat="49.32085499167442" lon="8.02447292022407">
<ele>301.6</ele>
<time>2023-05-18T12:10:50Z</time>
</trkpt>
<trkpt lat="49.32083294726908" lon="8.02451197989285">
<ele>301.79999999999995</ele>
<time>2023-05-18T12:10:51Z</time>
</trkpt>
<trkpt lat="49.32080998085439" lon="8.024544920772314">
<ele>302</ele>
<time>2023-05-18T12:10:52Z</time>
</trkpt>
<trkpt lat="49.32077997364104" lon="8.024584986269474">
<ele>302.20000000000005</ele>
<time>2023-05-18T12:10:53Z</time>
</trkpt>
<trkpt lat="49.320752983912826" lon="8.024622956290841">
<ele>302.20000000000005</ele>
<time>2023-05-18T12:10:54Z</time>
</trkpt>
<trkpt lat="49.32072197087109" lon="8.024676935747266">
<ele>302.4</ele>
<time>2023-05-18T12:10:55Z</time>
</trkpt>
<trkpt lat="49.32069196365774" lon="8.024722952395678">
<ele>302.6</ele>
<time>2023-05-18T12:10:56Z</time>
</trkpt>
<trkpt lat="49.32067193090916" lon="8.024754971265793">
<ele>302.79999999999995</ele>
<time>2023-05-18T12:10:57Z</time>
</trkpt>
<trkpt lat="49.32065499946475" lon="8.024784978479147">
<ele>303</ele>
<time>2023-05-18T12:10:58Z</time>
</trkpt>
<trkpt lat="49.32063496671617" lon="8.024816997349262">
<ele>303.20000000000005</ele>
<time>2023-05-18T12:10:59Z</time>
</trkpt>
<trkpt lat="49.32061292231083" lon="8.024844992905855">
<ele>303.4</ele>
<time>2023-05-18T12:11:00Z</time>
</trkpt>
<trkpt lat="49.32058995589614" lon="8.024882962927222">
<ele>303.6</ele>
<time>2023-05-18T12:11:01Z</time>
</trkpt>
<trkpt lat="49.320557937026024" lon="8.02491799928248">
<ele>303.79999999999995</ele>
<time>2023-05-18T12:11:02Z</time>
</trkpt>
<trkpt lat="49.32052692398429" lon="8.024946916848421">
<ele>304</ele>
<time>2023-05-18T12:11:03Z</time>
</trkpt>
<trkpt lat="49.32050496339798" lon="8.024979941546917">
<ele>304.20000000000005</ele>
<time>2023-05-18T12:11:04Z</time>
</trkpt>
<trkpt lat="49.32047998532653" lon="8.025017995387316">
<ele>304.4</ele>
<time>2023-05-18T12:11:05Z</time>
</trkpt>
<trkpt lat="49.320449978113174" lon="8.025067951530218">
<ele>304.6</ele>
<time>2023-05-18T12:11:06Z</time>
</trkpt>
<trkpt lat="49.32042198255658" lon="8.025107933208346">
<ele>304.79999999999995</ele>
<time>2023-05-18T12:11:07Z</time>
</trkpt>
<trkpt lat="49.32039792649448" lon="8.025142969563603">
<ele>305</ele>
<time>2023-05-18T12:11:08Z</time>
</trkpt>
<trkpt lat="49.32037496007979" lon="8.025184962898493">
<ele>305.20000000000005</ele>
<time>2023-05-18T12:11:09Z</time>
</trkpt>
<trkpt lat="49.32035492733121" lon="8.02522192709148">
<ele>305.20000000000005</ele>
<time>2023-05-18T12:11:10Z</time>
</trkpt>
<trkpt lat="49.3203329667449" lon="8.02526199258864">
<ele>305.4</ele>
<time>2023-05-18T12:11:11Z</time>
</trkpt>
<trkpt lat="49.32031192816794" lon="8.025311948731542">
<ele>305.6</ele>
<time>2023-05-18T12:11:12Z</time>
</trkpt>
<trkpt lat="49.32029793038964" lon="8.02535193040967">
<ele>305.79999999999995</ele>
<time>2023-05-18T12:11:13Z</time>
</trkpt>
<trkpt lat="49.32028493843973" lon="8.025404987856746">
<ele>306</ele>
<time>2023-05-18T12:11:14Z</time>
</trkpt>
<trkpt lat="49.32026197202504" lon="8.025446981191635">
<ele>306.20000000000005</ele>
<time>2023-05-18T12:11:15Z</time>
</trkpt>
<trkpt lat="49.320239927619696" lon="8.02547698840499">
<ele>306.20000000000005</ele>
<time>2023-05-18T12:11:16Z</time>
</trkpt>
<trkpt lat="49.32021997869015" lon="8.025514958426356">
<ele>306.4</ele>
<time>2023-05-18T12:11:17Z</time>
</trkpt>
<trkpt lat="49.32020195759833" lon="8.025569943711162">
<ele>306.6</ele>
<time>2023-05-18T12:11:18Z</time>
</trkpt>
<trkpt lat="49.32017697952688" lon="8.025619983673096">
<ele>306.79999999999995</ele>
<time>2023-05-18T12:11:19Z</time>
</trkpt>
<trkpt lat="49.3201569467783" lon="8.025639932602644">
<ele>307</ele>
<time>2023-05-18T12:11:20Z</time>
</trkpt>
<trkpt lat="49.32013699784875" lon="8.02565292455256">
<ele>307</ele>
<time>2023-05-18T12:11:21Z</time>
</trkpt>
<trkpt lat="49.32011294178665" lon="8.02567195147276">
<ele>307.20000000000005</ele>
<time>2023-05-18T12:11:22Z</time>
</trkpt>
<trkpt lat="49.32008997537196" lon="8.025704976171255">
<ele>307.20000000000005</ele>
<time>2023-05-18T12:11:23Z</time>
</trkpt>
<trkpt lat="49.32007195428014" lon="8.02573699504137">
<ele>307.4</ele>
<time>2023-05-18T12:11:24Z</time>
</trkpt>
<trkpt lat="49.32005192153156" lon="8.025771947577596">
<ele>307.4</ele>
<time>2023-05-18T12:11:25Z</time>
</trkpt>
<trkpt lat="49.32002794928849" lon="8.025811929255724">
<ele>307.6</ele>
<time>2023-05-18T12:11:26Z</time>
</trkpt>
<trkpt lat="49.32000791653991" lon="8.025861969217658">
<ele>307.6</ele>
<time>2023-05-18T12:11:27Z</time>
</trkpt>
<trkpt lat="49.31998696178198" lon="8.025902956724167">
<ele>307.79999999999995</ele>
<time>2023-05-18T12:11:28Z</time>
</trkpt>
<trkpt lat="49.31996198371053" lon="8.025939920917153">
<ele>307.79999999999995</ele>
<time>2023-05-18T12:11:29Z</time>
</trkpt>
<trkpt lat="49.319937927648425" lon="8.025977974757552">
<ele>308</ele>
<time>2023-05-18T12:11:30Z</time>
</trkpt>
<trkpt lat="49.319912949576974" lon="8.026021979749203">
<ele>308</ele>
<time>2023-05-18T12:11:31Z</time>
</trkpt>
<trkpt lat="49.319891994819045" lon="8.026062967255712">
<ele>308.20000000000005</ele>
<time>2023-05-18T12:11:32Z</time>
</trkpt>
<trkpt lat="49.3198649212718" lon="8.026099931448698">
<ele>308.20000000000005</ele>
<time>2023-05-18T12:11:33Z</time>
</trkpt>
<trkpt lat="49.31983793154359" lon="8.02614494226873">
<ele>308.4</ele>
<time>2023-05-18T12:11:34Z</time>
</trkpt>
<trkpt lat="49.3198149651289" lon="8.026196993887424">
<ele>308.4</ele>
<time>2023-05-18T12:11:35Z</time>
</trkpt>
<trkpt lat="49.319784957915545" lon="8.026249967515469">
<ele>308.6</ele>
<time>2023-05-18T12:11:36Z</time>
</trkpt>
<trkpt lat="49.319762997329235" lon="8.026296989992261">
<ele>308.6</ele>
<time>2023-05-18T12:11:37Z</time>
</trkpt>
<trkpt lat="49.31974992156029" lon="8.026351975277066">
<ele>308.6</ele>
<time>2023-05-18T12:11:38Z</time>
</trkpt>
<trkpt lat="49.31973793543875" lon="8.026406960561872">
<ele>308.79999999999995</ele>
<time>2023-05-18T12:11:39Z</time>
</trkpt>
<trkpt lat="49.31971496902406" lon="8.026457922533154">
<ele>308.79999999999995</ele>
<time>2023-05-18T12:11:40Z</time>
</trkpt>
<trkpt lat="49.319697953760624" lon="8.026519948616624">
<ele>309</ele>
<time>2023-05-18T12:11:41Z</time>
</trkpt>
<trkpt lat="49.319674987345934" lon="8.026577951386571">
<ele>309</ele>
<time>2023-05-18T12:11:42Z</time>
</trkpt>
<trkpt lat="49.31965294294059" lon="8.026642994955182">
<ele>309</ele>
<time>2023-05-18T12:11:43Z</time>
</trkpt>
<trkpt lat="49.31963995099068" lon="8.026696974411607">
<ele>309.20000000000005</ele>
<time>2023-05-18T12:11:44Z</time>
</trkpt>
<trkpt lat="49.31962192989886" lon="8.026751959696412">
<ele>309.20000000000005</ele>
<time>2023-05-18T12:11:45Z</time>
</trkpt>
<trkpt lat="49.31960793212056" lon="8.026792947202921">
<ele>309.4</ele>
<time>2023-05-18T12:11:46Z</time>
</trkpt>
<trkpt lat="49.319589994847775" lon="8.026841981336474">
<ele>309.4</ele>
<time>2023-05-18T12:11:47Z</time>
</trkpt>
<trkpt lat="49.319572979584336" lon="8.026904929429293">
<ele>309.6</ele>
<time>2023-05-18T12:11:48Z</time>
</trkpt>
<trkpt lat="49.319549929350615" lon="8.026952957734466">
<ele>309.6</ele>
<time>2023-05-18T12:11:49Z</time>
</trkpt>
<trkpt lat="49.319527968764305" lon="8.027007943019271">
<ele>309.79999999999995</ele>
<time>2023-05-18T12:11:50Z</time>
</trkpt>
<trkpt lat="49.319506930187345" lon="8.02706996910274">
<ele>309.79999999999995</ele>
<time>2023-05-18T12:11:51Z</time>
</trkpt>
<trkpt lat="49.31948798708618" lon="8.027127971872687">
<ele>310</ele>
<time>2023-05-18T12:11:52Z</time>
</trkpt>
<trkpt lat="49.31947197765112" lon="8.027189997956157">
<ele>310</ele>
<time>2023-05-18T12:11:53Z</time>
</trkpt>
<trkpt lat="49.319459991529584" lon="8.027257975190878">
<ele>310.20000000000005</ele>
<time>2023-05-18T12:11:54Z</time>
</trkpt>
<trkpt lat="49.31945194490254" lon="8.027332993224263">
<ele>310.20000000000005</ele>
<time>2023-05-18T12:11:55Z</time>
</trkpt>
<trkpt lat="49.31944792158902" lon="8.027399964630604">
<ele>310.20000000000005</ele>
<time>2023-05-18T12:11:56Z</time>
</trkpt>
<trkpt lat="49.319441970437765" lon="8.027452938258648">
<ele>310.4</ele>
<time>2023-05-18T12:11:57Z</time>
</trkpt>
<trkpt lat="49.31943694129586" lon="8.027502978220582">
<ele>310.4</ele>
<time>2023-05-18T12:11:58Z</time>
</trkpt>
<trkpt lat="49.31942797265947" lon="8.02756693214178">
<ele>310.6</ele>
<time>2023-05-18T12:11:59Z</time>
</trkpt>
<trkpt lat="49.31941196322441" lon="8.027622923254967">
<ele>310.6</ele>
<time>2023-05-18T12:12:00Z</time>
</trkpt>
<trkpt lat="49.31939494796097" lon="8.027664916589856">
<ele>310.79999999999995</ele>
<time>2023-05-18T12:12:01Z</time>
</trkpt>
<trkpt lat="49.3193849734962" lon="8.027719985693693">
<ele>310.79999999999995</ele>
<time>2023-05-18T12:12:02Z</time>
</trkpt>
<trkpt lat="49.31936795823276" lon="8.027766924351454">
<ele>311</ele>
<time>2023-05-18T12:12:03Z</time>
</trkpt>
<trkpt lat="49.319357983767986" lon="8.02782199345529">
<ele>311</ele>
<time>2023-05-18T12:12:04Z</time>
</trkpt>
<trkpt lat="49.3193469196558" lon="8.027876978740096">
<ele>311.20000000000005</ele>
<time>2023-05-18T12:12:05Z</time>
</trkpt>
<trkpt lat="49.319336945191026" lon="8.027922995388508">
<ele>311.20000000000005</ele>
<time>2023-05-18T12:12:06Z</time>
</trkpt>
<trkpt lat="49.31932797655463" lon="8.027962977066636">
<ele>311.4</ele>
<time>2023-05-18T12:12:07Z</time>
</trkpt>
<trkpt lat="49.319317918270826" lon="8.028006982058287">
<ele>311.4</ele>
<time>2023-05-18T12:12:08Z</time>
</trkpt>
<trkpt lat="49.31930693797767" lon="8.028061967343092">
<ele>311.6</ele>
<time>2023-05-18T12:12:09Z</time>
</trkpt>
<trkpt lat="49.31930299848318" lon="8.028119970113039">
<ele>311.6</ele>
<time>2023-05-18T12:12:10Z</time>
</trkpt>
<trkpt lat="49.31929998099804" lon="8.028174955397844">
<ele>311.79999999999995</ele>
<time>2023-05-18T12:12:11Z</time>
</trkpt>
<trkpt lat="49.31929796934128" lon="8.028239998966455">
<ele>311.79999999999995</ele>
<time>2023-05-18T12:12:12Z</time>
</trkpt>
<trkpt lat="49.319291934370995" lon="8.028302947059274">
<ele>312</ele>
<time>2023-05-18T12:12:13Z</time>
</trkpt>
<trkpt lat="49.3192829657346" lon="8.028361955657601">
<ele>312</ele>
<time>2023-05-18T12:12:14Z</time>
</trkpt>
<trkpt lat="49.31928195990622" lon="8.028431944549084">
<ele>312.20000000000005</ele>
<time>2023-05-18T12:12:15Z</time>
</trkpt>
<trkpt lat="49.3192779365927" lon="8.02848994731903">
<ele>312.20000000000005</ele>
<time>2023-05-18T12:12:16Z</time>
</trkpt>
<trkpt lat="49.31926695629954" lon="8.028536969795823">
<ele>312.4</ele>
<time>2023-05-18T12:12:17Z</time>
</trkpt>
<trkpt lat="49.31925698183477" lon="8.028581980615854">
<ele>312.4</ele>
<time>2023-05-18T12:12:18Z</time>
</trkpt>
<trkpt lat="49.319249941036105" lon="8.028634954243898">
<ele>312.4</ele>
<time>2023-05-18T12:12:19Z</time>
</trkpt>
<trkpt lat="49.31923996657133" lon="8.028674935922027">
<ele>312.6</ele>
<time>2023-05-18T12:12:20Z</time>
</trkpt>
<trkpt lat="49.319231919944286" lon="8.028711983934045">
<ele>312.6</ele>
<time>2023-05-18T12:12:21Z</time>
</trkpt>
<trkpt lat="49.31921993382275" lon="8.028741991147399">
<ele>312.6</ele>
<time>2023-05-18T12:12:22Z</time>
</trkpt>
<trkpt lat="49.31920995935798" lon="8.02876797504723">
<ele>312.79999999999995</ele>
<time>2023-05-18T12:12:23Z</time>
</trkpt>
<trkpt lat="49.319201996549964" lon="8.028806950896978">
<ele>312.79999999999995</ele>
<time>2023-05-18T12:12:24Z</time>
</trkpt>
<trkpt lat="49.31919797323644" lon="8.028827989473939">
<ele>312.79999999999995</ele>
<time>2023-05-18T12:12:25Z</time>
</trkpt>
<trkpt lat="49.31919696740806" lon="8.028872916474938">
<ele>312.79999999999995</ele>
<time>2023-05-18T12:12:26Z</time>
</trkpt>
<trkpt lat="49.31919294409454" lon="8.028902923688293">
<ele>313</ele>
<time>2023-05-18T12:12:27Z</time>
</trkpt>
<trkpt lat="49.31919696740806" lon="8.028911976143718">
<ele>313</ele>
<time>2023-05-18T12:12:28Z</time>
</trkpt>
<trkpt lat="49.31919696740806" lon="8.02891499362886">
<ele>313</ele>
<time>2023-05-18T12:12:29Z</time>
</trkpt>
<trkpt lat="49.319207947701216" lon="8.028936954215169">
<ele>314.4</ele>
<time>2023-05-18T12:12:29Z</time>
</trkpt>
<trkpt lat="49.319206941872835" lon="8.028949946165085">
<ele>314.6</ele>
<time>2023-05-18T12:12:30Z</time>
</trkpt>
<trkpt lat="49.319204930216074" lon="8.028967967256904">
<ele>314.6</ele>
<time>2023-05-18T12:12:31Z</time>
</trkpt>
<trkpt lat="49.319204930216074" lon="8.028989927843213">
<ele>314.6</ele>
<time>2023-05-18T12:12:32Z</time>
</trkpt>
<trkpt lat="49.319204930216074" lon="8.029011972248554">
<ele>314.79999999999995</ele>
<time>2023-05-18T12:12:33Z</time>
</trkpt>
<trkpt lat="49.31919797323644" lon="8.02904499694705">
<ele>314.79999999999995</ele>
<time>2023-05-18T12:12:34Z</time>
</trkpt>
<trkpt lat="49.3191899266094" lon="8.029079949483275">
<ele>315</ele>
<time>2023-05-18T12:12:35Z</time>
</trkpt>
<trkpt lat="49.31918799877167" lon="8.029117919504642">
<ele>315</ele>
<time>2023-05-18T12:12:36Z</time>
</trkpt>
<trkpt lat="49.319184981286526" lon="8.029182963073254">
<ele>315.20000000000005</ele>
<time>2023-05-18T12:12:37Z</time>
</trkpt>
<trkpt lat="49.31918699294329" lon="8.029222944751382">
<ele>315.4</ele>
<time>2023-05-18T12:12:38Z</time>
</trkpt>
<trkpt lat="49.31917794048786" lon="8.029251946136355">
<ele>315.6</ele>
<time>2023-05-18T12:12:39Z</time>
</trkpt>
<trkpt lat="49.31916696019471" lon="8.029272984713316">
<ele>315.79999999999995</ele>
<time>2023-05-18T12:12:40Z</time>
</trkpt>
<trkpt lat="49.319164948537946" lon="8.029332999140024">
<ele>316</ele>
<time>2023-05-18T12:12:41Z</time>
</trkpt>
<trkpt lat="49.31916696019471" lon="8.02938999608159">
<ele>316.20000000000005</ele>
<time>2023-05-18T12:12:42Z</time>
</trkpt>
<trkpt lat="49.31917299516499" lon="8.029436934739351">
<ele>316.4</ele>
<time>2023-05-18T12:12:43Z</time>
</trkpt>
<trkpt lat="49.31916696019471" lon="8.029481945559382">
<ele>316.6</ele>
<time>2023-05-18T12:12:44Z</time>
</trkpt>
<trkpt lat="49.319161931052804" lon="8.029514970257878">
<ele>316.79999999999995</ele>
<time>2023-05-18T12:12:45Z</time>
</trkpt>
<trkpt lat="49.319162936881185" lon="8.029549922794104">
<ele>317.20000000000005</ele>
<time>2023-05-18T12:12:46Z</time>
</trkpt>
<trkpt lat="49.31916796602309" lon="8.029587976634502">
<ele>317.4</ele>
<time>2023-05-18T12:12:47Z</time>
</trkpt>
<trkpt lat="49.31917492300272" lon="8.029622929170728">
<ele>317.6</ele>
<time>2023-05-18T12:12:48Z</time>
</trkpt>
<trkpt lat="49.31917995214462" lon="8.029659977182746">
<ele>318</ele>
<time>2023-05-18T12:12:49Z</time>
</trkpt>
<trkpt lat="49.31917693465948" lon="8.029697947204113">
<ele>318.20000000000005</ele>
<time>2023-05-18T12:12:50Z</time>
</trkpt>
<trkpt lat="49.31916796602309" lon="8.029746981337667">
<ele>318.4</ele>
<time>2023-05-18T12:12:51Z</time>
</trkpt>
<trkpt lat="49.31914994493127" lon="8.029791992157698">
<ele>318.79999999999995</ele>
<time>2023-05-18T12:12:52Z</time>
</trkpt>
<trkpt lat="49.31913192383945" lon="8.029866926372051">
<ele>319</ele>
<time>2023-05-18T12:12:53Z</time>
</trkpt>
<trkpt lat="49.31911692023277" lon="8.029907997697592">
<ele>319.4</ele>
<time>2023-05-18T12:12:54Z</time>
</trkpt>
<trkpt lat="49.319101916626096" lon="8.029944961890578">
<ele>319.6</ele>
<time>2023-05-18T12:12:55Z</time>
</trkpt>
<trkpt lat="49.319076938554645" lon="8.029979998245835">
<ele>320</ele>
<time>2023-05-18T12:12:56Z</time>
</trkpt>
<trkpt lat="49.31905799545348" lon="8.0300129391253">
<ele>320.20000000000005</ele>
<time>2023-05-18T12:12:57Z</time>
</trkpt>
<trkpt lat="49.31904491968453" lon="8.030042946338654">
<ele>320.6</ele>
<time>2023-05-18T12:12:58Z</time>
</trkpt>
<trkpt lat="49.31902798824012" lon="8.030074965208769">
<ele>320.79999999999995</ele>
<time>2023-05-18T12:12:59Z</time>
</trkpt>
<trkpt lat="49.319016924127936" lon="8.030112935230136">
<ele>321.20000000000005</ele>
<time>2023-05-18T12:13:00Z</time>
</trkpt>
<trkpt lat="49.31899999268353" lon="8.030157946050167">
<ele>321.4</ele>
<time>2023-05-18T12:13:01Z</time>
</trkpt>
<trkpt lat="49.31898498907685" lon="8.030189964920282">
<ele>321.6</ele>
<time>2023-05-18T12:13:02Z</time>
</trkpt>
<trkpt lat="49.318967973813415" lon="8.030219972133636">
<ele>322</ele>
<time>2023-05-18T12:13:03Z</time>
</trkpt>
<trkpt lat="49.31895297020674" lon="8.030254924669862">
<ele>322.20000000000005</ele>
<time>2023-05-18T12:13:04Z</time>
</trkpt>
<trkpt lat="49.31893997825682" lon="8.03029197268188">
<ele>322.4</ele>
<time>2023-05-18T12:13:05Z</time>
</trkpt>
<trkpt lat="49.318926986306906" lon="8.030324997380376">
<ele>322.79999999999995</ele>
<time>2023-05-18T12:13:06Z</time>
</trkpt>
<trkpt lat="49.318906953558326" lon="8.030364979058504">
<ele>323</ele>
<time>2023-05-18T12:13:07Z</time>
</trkpt>
<trkpt lat="49.31888993829489" lon="8.030394986271858">
<ele>323.4</ele>
<time>2023-05-18T12:13:08Z</time>
</trkpt>
<trkpt lat="49.31886797770858" lon="8.030426921322942">
<ele>323.6</ele>
<time>2023-05-18T12:13:09Z</time>
</trkpt>
<trkpt lat="49.318841993808746" lon="8.030461957678199">
<ele>324</ele>
<time>2023-05-18T12:13:10Z</time>
</trkpt>
<trkpt lat="49.318821961060166" lon="8.030499927699566">
<ele>324.20000000000005</ele>
<time>2023-05-18T12:13:11Z</time>
</trkpt>
<trkpt lat="49.318799916654825" lon="8.030534964054823">
<ele>324.6</ele>
<time>2023-05-18T12:13:12Z</time>
</trkpt>
<trkpt lat="49.31878793053329" lon="8.030562959611416">
<ele>324.79999999999995</ele>
<time>2023-05-18T12:13:13Z</time>
</trkpt>
<trkpt lat="49.3187699932605" lon="8.03059296682477">
<ele>325.20000000000005</ele>
<time>2023-05-18T12:13:14Z</time>
</trkpt>
<trkpt lat="49.318751972168684" lon="8.030622974038124">
<ele>325.4</ele>
<time>2023-05-18T12:13:15Z</time>
</trkpt>
<trkpt lat="49.31873797439039" lon="8.030652981251478">
<ele>325.79999999999995</ele>
<time>2023-05-18T12:13:16Z</time>
</trkpt>
<trkpt lat="49.31872297078371" lon="8.03067997097969">
<ele>326</ele>
<time>2023-05-18T12:13:17Z</time>
</trkpt>
<trkpt lat="49.31870696134865" lon="8.03070293739438">
<ele>326.4</ele>
<time>2023-05-18T12:13:18Z</time>
</trkpt>
<trkpt lat="49.318691957741976" lon="8.030731938779354">
<ele>326.6</ele>
<time>2023-05-18T12:13:19Z</time>
</trkpt>
<trkpt lat="49.318671924993396" lon="8.030757922679186">
<ele>327</ele>
<time>2023-05-18T12:13:20Z</time>
</trkpt>
<trkpt lat="49.31865197606385" lon="8.030789941549301">
<ele>327.20000000000005</ele>
<time>2023-05-18T12:13:21Z</time>
</trkpt>
<trkpt lat="49.31863697245717" lon="8.030821960419416">
<ele>327.6</ele>
<time>2023-05-18T12:13:22Z</time>
</trkpt>
<trkpt lat="49.31861995719373" lon="8.030857918784022">
<ele>327.79999999999995</ele>
<time>2023-05-18T12:13:23Z</time>
</trkpt>
<trkpt lat="49.318602941930294" lon="8.030882980674505">
<ele>328.20000000000005</ele>
<time>2023-05-18T12:13:24Z</time>
</trkpt>
<trkpt lat="49.31859196163714" lon="8.03091793321073">
<ele>328.4</ele>
<time>2023-05-18T12:13:25Z</time>
</trkpt>
<trkpt lat="49.31857695803046" lon="8.03095992654562">
<ele>328.79999999999995</ele>
<time>2023-05-18T12:13:26Z</time>
</trkpt>
<trkpt lat="49.318562960252166" lon="8.03100292570889">
<ele>329</ele>
<time>2023-05-18T12:13:27Z</time>
</trkpt>
<trkpt lat="49.31854795664549" lon="8.031039973720908">
<ele>329.4</ele>
<time>2023-05-18T12:13:28Z</time>
</trkpt>
<trkpt lat="49.318536976352334" lon="8.031072998419404">
<ele>329.6</ele>
<time>2023-05-18T12:13:29Z</time>
</trkpt>
<trkpt lat="49.3185249902308" lon="8.031101999804378">
<ele>329.79999999999995</ele>
<time>2023-05-18T12:13:30Z</time>
</trkpt>
<trkpt lat="49.31850998662412" lon="8.0311319231987">
<ele>330</ele>
<time>2023-05-18T12:13:31Z</time>
</trkpt>
<trkpt lat="49.318497916683555" lon="8.031164947897196">
<ele>330.4</ele>
<time>2023-05-18T12:13:32Z</time>
</trkpt>
<trkpt lat="49.31848492473364" lon="8.031192943453789">
<ele>330.6</ele>
<time>2023-05-18T12:13:33Z</time>
</trkpt>
<trkpt lat="49.3184729386121" lon="8.031219933182001">
<ele>330.79999999999995</ele>
<time>2023-05-18T12:13:34Z</time>
</trkpt>
<trkpt lat="49.318456929177046" lon="8.031241977587342">
<ele>331</ele>
<time>2023-05-18T12:13:35Z</time>
</trkpt>
<trkpt lat="49.31843798607588" lon="8.031262932345271">
<ele>331.20000000000005</ele>
<time>2023-05-18T12:13:36Z</time>
</trkpt>
<trkpt lat="49.31842197664082" lon="8.03128195926547">
<ele>331.6</ele>
<time>2023-05-18T12:13:37Z</time>
</trkpt>
<trkpt lat="49.31840496137738" lon="8.031296962872148">
<ele>331.79999999999995</ele>
<time>2023-05-18T12:13:38Z</time>
</trkpt>
<trkpt lat="49.31838694028556" lon="8.031319929286838">
<ele>332</ele>
<time>2023-05-18T12:13:39Z</time>
</trkpt>
<trkpt lat="49.318369925022125" lon="8.031341973692179">
<ele>332.20000000000005</ele>
<time>2023-05-18T12:13:40Z</time>
</trkpt>
<trkpt lat="49.31835492141545" lon="8.031356977298856">
<ele>332.4</ele>
<time>2023-05-18T12:13:41Z</time>
</trkpt>
<trkpt lat="49.31833991780877" lon="8.031376926228404">
<ele>332.6</ele>
<time>2023-05-18T12:13:42Z</time>
</trkpt>
<trkpt lat="49.318321980535984" lon="8.031402993947268">
<ele>333</ele>
<time>2023-05-18T12:13:43Z</time>
</trkpt>
<trkpt lat="49.31830697692931" lon="8.031419925391674">
<ele>333.20000000000005</ele>
<time>2023-05-18T12:13:44Z</time>
</trkpt>
<trkpt lat="49.31828996166587" lon="8.031446998938918">
<ele>333.4</ele>
<time>2023-05-18T12:13:45Z</time>
</trkpt>
<trkpt lat="49.318279987201095" lon="8.031457979232073">
<ele>333.6</ele>
<time>2023-05-18T12:13:46Z</time>
</trkpt>
<trkpt lat="49.318262971937656" lon="8.031492931768298">
<ele>333.79999999999995</ele>
<time>2023-05-18T12:13:47Z</time>
</trkpt>
<trkpt lat="49.31825299747288" lon="8.031524950638413">
<ele>334</ele>
<time>2023-05-18T12:13:48Z</time>
</trkpt>
<trkpt lat="49.3182469625026" lon="8.031571973115206">
<ele>334.20000000000005</ele>
<time>2023-05-18T12:13:49Z</time>
</trkpt>
<trkpt lat="49.318239921703935" lon="8.031592927873135">
<ele>334.4</ele>
<time>2023-05-18T12:13:50Z</time>
</trkpt>
<trkpt lat="49.31823195889592" lon="8.03162494674325">
<ele>334.79999999999995</ele>
<time>2023-05-18T12:13:51Z</time>
</trkpt>
<trkpt lat="49.318216955289245" lon="8.031669957563281">
<ele>335</ele>
<time>2023-05-18T12:13:52Z</time>
</trkpt>
<trkpt lat="49.318199940025806" lon="8.031712956726551">
<ele>335.20000000000005</ele>
<time>2023-05-18T12:13:53Z</time>
</trkpt>
<trkpt lat="49.31818694807589" lon="8.031739946454763">
<ele>335.4</ele>
<time>2023-05-18T12:13:54Z</time>
</trkpt>
<trkpt lat="49.318176973611116" lon="8.03177297115326">
<ele>335.6</ele>
<time>2023-05-18T12:13:55Z</time>
</trkpt>
<trkpt lat="49.31816297583282" lon="8.031804990023375">
<ele>335.79999999999995</ele>
<time>2023-05-18T12:13:56Z</time>
</trkpt>
<trkpt lat="49.318152917549014" lon="8.031834997236729">
<ele>336</ele>
<time>2023-05-18T12:13:57Z</time>
</trkpt>
<trkpt lat="49.3181399255991" lon="8.031889982521534">
<ele>336.20000000000005</ele>
<time>2023-05-18T12:13:58Z</time>
</trkpt>
<trkpt lat="49.318129951134324" lon="8.031927952542901">
<ele>336.6</ele>
<time>2023-05-18T12:13:59Z</time>
</trkpt>
<trkpt lat="49.31811997666955" lon="8.031984949484468">
<ele>336.79999999999995</ele>
<time>2023-05-18T12:14:00Z</time>
</trkpt>
<trkpt lat="49.31811494752765" lon="8.032024931162596">
<ele>337</ele>
<time>2023-05-18T12:14:01Z</time>
</trkpt>
<trkpt lat="49.318107990548015" lon="8.032052926719189">
<ele>337.20000000000005</ele>
<time>2023-05-18T12:14:02Z</time>
</trkpt>
<trkpt lat="49.31810195557773" lon="8.03209693171084">
<ele>337.4</ele>
<time>2023-05-18T12:14:03Z</time>
</trkpt>
<trkpt lat="49.31809692643583" lon="8.032132973894477">
<ele>337.6</ele>
<time>2023-05-18T12:14:04Z</time>
</trkpt>
<trkpt lat="49.31809198111296" lon="8.03218293003738">
<ele>338</ele>
<time>2023-05-18T12:14:05Z</time>
</trkpt>
<trkpt lat="49.31807798333466" lon="8.032231964170933">
<ele>338.20000000000005</ele>
<time>2023-05-18T12:14:06Z</time>
</trkpt>
<trkpt lat="49.318066919222474" lon="8.032274963334203">
<ele>338.4</ele>
<time>2023-05-18T12:14:07Z</time>
</trkpt>
<trkpt lat="49.31805199943483" lon="8.032316956669092">
<ele>338.79999999999995</ele>
<time>2023-05-18T12:14:08Z</time>
</trkpt>
<trkpt lat="49.31804194115102" lon="8.032359955832362">
<ele>339</ele>
<time>2023-05-18T12:14:09Z</time>
</trkpt>
<trkpt lat="49.31802995502949" lon="8.032396920025349">
<ele>339.20000000000005</ele>
<time>2023-05-18T12:14:10Z</time>
</trkpt>
<trkpt lat="49.31801495142281" lon="8.03243799135089">
<ele>339.4</ele>
<time>2023-05-18T12:14:11Z</time>
</trkpt>
<trkpt lat="49.31799994781613" lon="8.03248199634254">
<ele>339.79999999999995</ele>
<time>2023-05-18T12:14:12Z</time>
</trkpt>
<trkpt lat="49.317981926724315" lon="8.03252692334354">
<ele>340</ele>
<time>2023-05-18T12:14:13Z</time>
</trkpt>
<trkpt lat="49.31796792894602" lon="8.032572939991951">
<ele>340.20000000000005</ele>
<time>2023-05-18T12:14:14Z</time>
</trkpt>
<trkpt lat="49.317959966138005" lon="8.032607976347208">
<ele>340.6</ele>
<time>2023-05-18T12:14:15Z</time>
</trkpt>
<trkpt lat="49.31794798001647" lon="8.032637983560562">
<ele>340.79999999999995</ele>
<time>2023-05-18T12:14:16Z</time>
</trkpt>
<trkpt lat="49.31793297640979" lon="8.032672936096787">
<ele>341</ele>
<time>2023-05-18T12:14:17Z</time>
</trkpt>
<trkpt lat="49.31791998445988" lon="8.032711995765567">
<ele>341.20000000000005</ele>
<time>2023-05-18T12:14:18Z</time>
</trkpt>
<trkpt lat="49.31790196336806" lon="8.03274292498827">
<ele>341.6</ele>
<time>2023-05-18T12:14:19Z</time>
</trkpt>
<trkpt lat="49.31788695976138" lon="8.032771926373243">
<ele>341.79999999999995</ele>
<time>2023-05-18T12:14:20Z</time>
</trkpt>
<trkpt lat="49.31786198168993" lon="8.032789947465062">
<ele>342</ele>
<time>2023-05-18T12:14:21Z</time>
</trkpt>
<trkpt lat="49.31783993728459" lon="8.032812997698784">
<ele>342.20000000000005</ele>
<time>2023-05-18T12:14:22Z</time>
</trkpt>
<trkpt lat="49.31782493367791" lon="8.032842921093106">
<ele>342.6</ele>
<time>2023-05-18T12:14:23Z</time>
</trkpt>
<trkpt lat="49.31781294755638" lon="8.032877957448363">
<ele>342.79999999999995</ele>
<time>2023-05-18T12:14:24Z</time>
</trkpt>
<trkpt lat="49.31780196726322" lon="8.032909976318479">
<ele>343</ele>
<time>2023-05-18T12:14:25Z</time>
</trkpt>
<trkpt lat="49.31779199279845" lon="8.032944928854704">
<ele>343.20000000000005</ele>
<time>2023-05-18T12:14:26Z</time>
</trkpt>
<trkpt lat="49.31777992285788" lon="8.032972924411297">
<ele>343.4</ele>
<time>2023-05-18T12:14:27Z</time>
</trkpt>
<trkpt lat="49.31777196004987" lon="8.033002931624651">
<ele>343.6</ele>
<time>2023-05-18T12:14:28Z</time>
</trkpt>
<trkpt lat="49.31775997392833" lon="8.033037967979908">
<ele>343.79999999999995</ele>
<time>2023-05-18T12:14:29Z</time>
</trkpt>
<trkpt lat="49.317746981978416" lon="8.033074932172894">
<ele>344</ele>
<time>2023-05-18T12:14:30Z</time>
</trkpt>
<trkpt lat="49.31773692369461" lon="8.03310795687139">
<ele>344.20000000000005</ele>
<time>2023-05-18T12:14:31Z</time>
</trkpt>
<trkpt lat="49.317722925916314" lon="8.033136958256364">
<ele>344.6</ele>
<time>2023-05-18T12:14:32Z</time>
</trkpt>
<trkpt lat="49.31771194562316" lon="8.033159924671054">
<ele>344.79999999999995</ele>
<time>2023-05-18T12:14:33Z</time>
</trkpt>
<trkpt lat="49.31769493035972" lon="8.033187920227647">
<ele>345</ele>
<time>2023-05-18T12:14:34Z</time>
</trkpt>
<trkpt lat="49.317681938409805" lon="8.033207952976227">
<ele>345.20000000000005</ele>
<time>2023-05-18T12:14:35Z</time>
</trkpt>
<trkpt lat="49.31766794063151" lon="8.033227985724807">
<ele>345.4</ele>
<time>2023-05-18T12:14:36Z</time>
</trkpt>
<trkpt lat="49.317659977823496" lon="8.03325497545302">
<ele>345.6</ele>
<time>2023-05-18T12:14:37Z</time>
</trkpt>
<trkpt lat="49.317659977823496" lon="8.033287916332483">
<ele>345.79999999999995</ele>
<time>2023-05-18T12:14:38Z</time>
</trkpt>
<trkpt lat="49.31765494868159" lon="8.033324964344501">
<ele>346.20000000000005</ele>
<time>2023-05-18T12:14:39Z</time>
</trkpt>
<trkpt lat="49.31765293702483" lon="8.033361928537488">
<ele>346.4</ele>
<time>2023-05-18T12:14:40Z</time>
</trkpt>
<trkpt lat="49.31764799170196" lon="8.033394953235984">
<ele>346.6</ele>
<time>2023-05-18T12:14:41Z</time>
</trkpt>
<trkpt lat="49.31764296256006" lon="8.03343191742897">
<ele>346.79999999999995</ele>
<time>2023-05-18T12:14:42Z</time>
</trkpt>
<trkpt lat="49.317637933418155" lon="8.033466953784227">
<ele>347</ele>
<time>2023-05-18T12:14:43Z</time>
</trkpt>
<trkpt lat="49.3176319822669" lon="8.033497966825962">
<ele>347.20000000000005</ele>
<time>2023-05-18T12:14:44Z</time>
</trkpt>
<trkpt lat="49.31762494146824" lon="8.033524956554174">
<ele>347.4</ele>
<time>2023-05-18T12:14:45Z</time>
</trkpt>
<trkpt lat="49.317616978660226" lon="8.033549934625626">
<ele>347.79999999999995</ele>
<time>2023-05-18T12:14:46Z</time>
</trkpt>
<trkpt lat="49.31760499253869" lon="8.033582959324121">
<ele>348</ele>
<time>2023-05-18T12:14:47Z</time>
</trkpt>
<trkpt lat="49.31759292259812" lon="8.033612966537476">
<ele>348.20000000000005</ele>
<time>2023-05-18T12:14:48Z</time>
</trkpt>
<trkpt lat="49.31758697144687" lon="8.033647919073701">
<ele>348.4</ele>
<time>2023-05-18T12:14:49Z</time>
</trkpt>
<trkpt lat="49.317572973668575" lon="8.033676920458674">
<ele>348.6</ele>
<time>2023-05-18T12:14:50Z</time>
</trkpt>
<trkpt lat="49.31756794452667" lon="8.033702988177538">
<ele>348.79999999999995</ele>
<time>2023-05-18T12:14:51Z</time>
</trkpt>
<trkpt lat="49.3175629992038" lon="8.03372997790575">
<ele>349.20000000000005</ele>
<time>2023-05-18T12:14:52Z</time>
</trkpt>
<trkpt lat="49.317549923434854" lon="8.03377297706902">
<ele>349.4</ele>
<time>2023-05-18T12:14:53Z</time>
</trkpt>
<trkpt lat="49.31753793731332" lon="8.033806923776865">
<ele>349.6</ele>
<time>2023-05-18T12:14:54Z</time>
</trkpt>
<trkpt lat="49.31752293370664" lon="8.03383693099022">
<ele>349.79999999999995</ele>
<time>2023-05-18T12:14:55Z</time>
</trkpt>
<trkpt lat="49.317506924271584" lon="8.033876996487379">
<ele>350.20000000000005</ele>
<time>2023-05-18T12:14:56Z</time>
</trkpt>
<trkpt lat="49.31749795563519" lon="8.033909937366843">
<ele>350.4</ele>
<time>2023-05-18T12:14:57Z</time>
</trkpt>
<trkpt lat="49.317487981170416" lon="8.033939944580197">
<ele>350.6</ele>
<time>2023-05-18T12:14:58Z</time>
</trkpt>
<trkpt lat="49.31747691705823" lon="8.033976992592216">
<ele>350.79999999999995</ele>
<time>2023-05-18T12:14:59Z</time>
</trkpt>
<trkpt lat="49.317466942593455" lon="8.03400699980557">
<ele>351.20000000000005</ele>
<time>2023-05-18T12:15:00Z</time>
</trkpt>
<trkpt lat="49.31744992733002" lon="8.03403197787702">
<ele>351.4</ele>
<time>2023-05-18T12:15:01Z</time>
</trkpt>
<trkpt lat="49.31743199005723" lon="8.03407296538353">
<ele>351.6</ele>
<time>2023-05-18T12:15:02Z</time>
</trkpt>
<trkpt lat="49.31741296313703" lon="8.034107917919755">
<ele>351.79999999999995</ele>
<time>2023-05-18T12:15:03Z</time>
</trkpt>
<trkpt lat="49.317401982843876" lon="8.034142954275012">
<ele>352.20000000000005</ele>
<time>2023-05-18T12:15:04Z</time>
</trkpt>
<trkpt lat="49.3173869792372" lon="8.034184947609901">
<ele>352.4</ele>
<time>2023-05-18T12:15:05Z</time>
</trkpt>
<trkpt lat="49.317367952317" lon="8.034236999228597">
<ele>352.6</ele>
<time>2023-05-18T12:15:06Z</time>
</trkpt>
<trkpt lat="49.31734699755907" lon="8.03426994010806">
<ele>352.79999999999995</ele>
<time>2023-05-18T12:15:07Z</time>
</trkpt>
<trkpt lat="49.31732797063887" lon="8.03430799394846">
<ele>353.20000000000005</ele>
<time>2023-05-18T12:15:08Z</time>
</trkpt>
<trkpt lat="49.317311961203814" lon="8.034342946484685">
<ele>353.4</ele>
<time>2023-05-18T12:15:09Z</time>
</trkpt>
<trkpt lat="49.31729695759714" lon="8.034372953698039">
<ele>353.6</ele>
<time>2023-05-18T12:15:10Z</time>
</trkpt>
<trkpt lat="49.31728195399046" lon="8.034404972568154">
<ele>354</ele>
<time>2023-05-18T12:15:11Z</time>
</trkpt>
<trkpt lat="49.31727499701083" lon="8.034426933154464">
<ele>354.20000000000005</ele>
<time>2023-05-18T12:15:12Z</time>
</trkpt>
<trkpt lat="49.317272985354066" lon="8.034447971731424">
<ele>354.4</ele>
<time>2023-05-18T12:15:13Z</time>
</trkpt>
<trkpt lat="49.317269967868924" lon="8.034467920660973">
<ele>354.79999999999995</ele>
<time>2023-05-18T12:15:14Z</time>
</trkpt>
<trkpt lat="49.31725798174739" lon="8.03450295701623">
<ele>355</ele>
<time>2023-05-18T12:15:15Z</time>
</trkpt>
<trkpt lat="49.31724792346358" lon="8.034531958401203">
<ele>355.20000000000005</ele>
<time>2023-05-18T12:15:16Z</time>
</trkpt>
<trkpt lat="49.31723493151367" lon="8.034562971442938">
<ele>355.6</ele>
<time>2023-05-18T12:15:17Z</time>
</trkpt>
<trkpt lat="49.31721699424088" lon="8.034591972827911">
<ele>355.79999999999995</ele>
<time>2023-05-18T12:15:18Z</time>
</trkpt>
<trkpt lat="49.31720299646258" lon="8.03460999391973">
<ele>356</ele>
<time>2023-05-18T12:15:19Z</time>
</trkpt>
<trkpt lat="49.317186987027526" lon="8.034639917314053">
<ele>356.4</ele>
<time>2023-05-18T12:15:20Z</time>
</trkpt>
<trkpt lat="49.31717198342085" lon="8.034666990861297">
<ele>356.6</ele>
<time>2023-05-18T12:15:21Z</time>
</trkpt>
<trkpt lat="49.31715798564255" lon="8.03469699807465">
<ele>356.79999999999995</ele>
<time>2023-05-18T12:15:22Z</time>
</trkpt>
<trkpt lat="49.317142982035875" lon="8.034726921468973">
<ele>357.20000000000005</ele>
<time>2023-05-18T12:15:23Z</time>
</trkpt>
<trkpt lat="49.3171279784292" lon="8.034757934510708">
<ele>357.4</ele>
<time>2023-05-18T12:15:24Z</time>
</trkpt>
<trkpt lat="49.31711498647928" lon="8.034779978916049">
<ele>357.79999999999995</ele>
<time>2023-05-18T12:15:25Z</time>
</trkpt>
<trkpt lat="49.31710492819548" lon="8.0348049569875">
<ele>358</ele>
<time>2023-05-18T12:15:26Z</time>
</trkpt>
<trkpt lat="49.31709193624556" lon="8.03482792340219">
<ele>358.4</ele>
<time>2023-05-18T12:15:27Z</time>
</trkpt>
<trkpt lat="49.31707492098212" lon="8.034851979464293">
<ele>358.6</ele>
<time>2023-05-18T12:15:28Z</time>
</trkpt>
<trkpt lat="49.31706494651735" lon="8.034884920343757">
<ele>358.79999999999995</ele>
<time>2023-05-18T12:15:29Z</time>
</trkpt>
<trkpt lat="49.317054972052574" lon="8.03491492755711">
<ele>359.20000000000005</ele>
<time>2023-05-18T12:15:30Z</time>
</trkpt>
<trkpt lat="49.3170449975878" lon="8.034937977790833">
<ele>359.4</ele>
<time>2023-05-18T12:15:31Z</time>
</trkpt>
<trkpt lat="49.31703192181885" lon="8.03495499305427">
<ele>359.6</ele>
<time>2023-05-18T12:15:32Z</time>
</trkpt>
<trkpt lat="49.31700493209064" lon="8.034984916448593">
<ele>359.79999999999995</ele>
<time>2023-05-18T12:15:33Z</time>
</trkpt>
<trkpt lat="49.3169879168272" lon="8.035009978339076">
<ele>360.20000000000005</ele>
<time>2023-05-18T12:15:34Z</time>
</trkpt>
<trkpt lat="49.31696193292737" lon="8.03503998555243">
<ele>360.4</ele>
<time>2023-05-18T12:15:35Z</time>
</trkpt>
<trkpt lat="49.31694198399782" lon="8.035066975280643">
<ele>360.6</ele>
<time>2023-05-18T12:15:36Z</time>
</trkpt>
<trkpt lat="49.31692195124924" lon="8.035084996372461">
<ele>361</ele>
<time>2023-05-18T12:15:37Z</time>
</trkpt>
<trkpt lat="49.31690996512771" lon="8.035091953352094">
<ele>361.20000000000005</ele>
<time>2023-05-18T12:15:38Z</time>
</trkpt>
<trkpt lat="49.31689294986427" lon="8.035099999979138">
<ele>361.6</ele>
<time>2023-05-18T12:15:39Z</time>
</trkpt>
<trkpt lat="49.31688699871302" lon="8.03510494530201">
<ele>361.79999999999995</ele>
<time>2023-05-18T12:15:40Z</time>
</trkpt>
<trkpt lat="49.31687492877245" lon="8.035112991929054">
<ele>362.20000000000005</ele>
<time>2023-05-18T12:15:41Z</time>
</trkpt>
<trkpt lat="49.31685196235776" lon="8.035131935030222">
<ele>362.4</ele>
<time>2023-05-18T12:15:42Z</time>
</trkpt>
<trkpt lat="49.316819943487644" lon="8.035154985263944">
<ele>362.6</ele>
<time>2023-05-18T12:15:43Z</time>
</trkpt>
<trkpt lat="49.31679295375943" lon="8.035182980820537">
<ele>363</ele>
<time>2023-05-18T12:15:44Z</time>
</trkpt>
<trkpt lat="49.31677292101085" lon="8.03521198220551">
<ele>363.20000000000005</ele>
<time>2023-05-18T12:15:45Z</time>
</trkpt>
<trkpt lat="49.31674492545426" lon="8.035239977762103">
<ele>363.4</ele>
<time>2023-05-18T12:15:46Z</time>
</trkpt>
<trkpt lat="49.31672296486795" lon="8.035269984975457">
<ele>363.79999999999995</ele>
<time>2023-05-18T12:15:47Z</time>
</trkpt>
<trkpt lat="49.31670293211937" lon="8.03529697470367">
<ele>364</ele>
<time>2023-05-18T12:15:48Z</time>
</trkpt>
<trkpt lat="49.31668692268431" lon="8.03531994111836">
<ele>364.4</ele>
<time>2023-05-18T12:15:49Z</time>
</trkpt>
<trkpt lat="49.3166599329561" lon="8.035352965816855">
<ele>364.6</ele>
<time>2023-05-18T12:15:50Z</time>
</trkpt>
<trkpt lat="49.316629925742745" lon="8.035391941666603">
<ele>365</ele>
<time>2023-05-18T12:15:51Z</time>
</trkpt>
<trkpt lat="49.316604947671294" lon="8.035419937223196">
<ele>365.20000000000005</ele>
<time>2023-05-18T12:15:52Z</time>
</trkpt>
<trkpt lat="49.31657795794308" lon="8.035451956093311">
<ele>365.4</ele>
<time>2023-05-18T12:15:53Z</time>
</trkpt>
<trkpt lat="49.31655691936612" lon="8.035466959699988">
<ele>365.79999999999995</ele>
<time>2023-05-18T12:15:54Z</time>
</trkpt>
<trkpt lat="49.316539987921715" lon="8.035487998276949">
<ele>366</ele>
<time>2023-05-18T12:15:55Z</time>
</trkpt>
<trkpt lat="49.31651693768799" lon="8.035519933328032">
<ele>366.20000000000005</ele>
<time>2023-05-18T12:15:56Z</time>
</trkpt>
<trkpt lat="49.31649296544492" lon="8.035551952198148">
<ele>366.6</ele>
<time>2023-05-18T12:15:57Z</time>
</trkpt>
<trkpt lat="49.31644292548299" lon="8.035589922219515">
<ele>366.79999999999995</ele>
<time>2023-05-18T12:15:58Z</time>
</trkpt>
<trkpt lat="49.31642792187631" lon="8.035609954968095">
<ele>367.20000000000005</ele>
<time>2023-05-18T12:15:59Z</time>
</trkpt>
<trkpt lat="49.31640193797648" lon="8.035636944696307">
<ele>367.4</ele>
<time>2023-05-18T12:16:00Z</time>
</trkpt>
<trkpt lat="49.31637494824827" lon="8.035659994930029">
<ele>367.79999999999995</ele>
<time>2023-05-18T12:16:01Z</time>
</trkpt>
<trkpt lat="49.31635298766196" lon="8.03568497300148">
<ele>368</ele>
<time>2023-05-18T12:16:02Z</time>
</trkpt>
<trkpt lat="49.31633496657014" lon="8.035714980214834">
<ele>368.4</ele>
<time>2023-05-18T12:16:03Z</time>
</trkpt>
<trkpt lat="49.31631191633642" lon="8.03575194440782">
<ele>368.6</ele>
<time>2023-05-18T12:16:04Z</time>
</trkpt>
<trkpt lat="49.31628995575011" lon="8.035777928307652">
<ele>369</ele>
<time>2023-05-18T12:16:05Z</time>
</trkpt>
<trkpt lat="49.31626497767866" lon="8.035799972712994">
<ele>369.20000000000005</ele>
<time>2023-05-18T12:16:06Z</time>
</trkpt>
<trkpt lat="49.316236982122064" lon="8.035824950784445">
<ele>369.6</ele>
<time>2023-05-18T12:16:07Z</time>
</trkpt>
<trkpt lat="49.31621192023158" lon="8.035851940512657">
<ele>369.79999999999995</ele>
<time>2023-05-18T12:16:08Z</time>
</trkpt>
<trkpt lat="49.31618694216013" lon="8.035869961604476">
<ele>370.20000000000005</ele>
<time>2023-05-18T12:16:09Z</time>
</trkpt>
<trkpt lat="49.31617193855345" lon="8.035886976867914">
<ele>370.4</ele>
<time>2023-05-18T12:16:10Z</time>
</trkpt>
<trkpt lat="49.316151989623904" lon="8.035907931625843">
<ele>370.79999999999995</ele>
<time>2023-05-18T12:16:11Z</time>
</trkpt>
<trkpt lat="49.31613698601723" lon="8.035932993516326">
<ele>371</ele>
<time>2023-05-18T12:16:12Z</time>
</trkpt>
<trkpt lat="49.31611997075379" lon="8.0359619949013">
<ele>371.4</ele>
<time>2023-05-18T12:16:13Z</time>
</trkpt>
<trkpt lat="49.31610194966197" lon="8.035987978801131">
<ele>371.6</ele>
<time>2023-05-18T12:16:14Z</time>
</trkpt>
<trkpt lat="49.31605995632708" lon="8.036026954650879">
<ele>372</ele>
<time>2023-05-18T12:16:15Z</time>
</trkpt>
<trkpt lat="49.316044952720404" lon="8.03605293855071">
<ele>372.4</ele>
<time>2023-05-18T12:16:16Z</time>
</trkpt>
<trkpt lat="49.316026931628585" lon="8.03609199821949">
<ele>372.6</ele>
<time>2023-05-18T12:16:17Z</time>
</trkpt>
<trkpt lat="49.31600698269904" lon="8.036129968240857">
<ele>373</ele>
<time>2023-05-18T12:16:18Z</time>
</trkpt>
<trkpt lat="49.315982926636934" lon="8.036152934655547">
<ele>373.20000000000005</ele>
<time>2023-05-18T12:16:19Z</time>
</trkpt>
<trkpt lat="49.31595794856548" lon="8.03617799654603">
<ele>373.6</ele>
<time>2023-05-18T12:16:20Z</time>
</trkpt>
<trkpt lat="49.31592693552375" lon="8.036226946860552">
<ele>373.79999999999995</ele>
<time>2023-05-18T12:16:21Z</time>
</trkpt>
<trkpt lat="49.315896928310394" lon="8.03626692853868">
<ele>374.20000000000005</ele>
<time>2023-05-18T12:16:22Z</time>
</trkpt>
<trkpt lat="49.315872956067324" lon="8.036301964893937">
<ele>374.4</ele>
<time>2023-05-18T12:16:23Z</time>
</trkpt>
<trkpt lat="49.31585191749036" lon="8.036337923258543">
<ele>374.6</ele>
<time>2023-05-18T12:16:24Z</time>
</trkpt>
<trkpt lat="49.31583791971207" lon="8.036374971270561">
<ele>375</ele>
<time>2023-05-18T12:16:25Z</time>
</trkpt>
<trkpt lat="49.315831968560815" lon="8.03641495294869">
<ele>375.4</ele>
<time>2023-05-18T12:16:26Z</time>
</trkpt>
<trkpt lat="49.31582492776215" lon="8.03643791936338">
<ele>375.6</ele>
<time>2023-05-18T12:16:27Z</time>
</trkpt>
<trkpt lat="49.315811935812235" lon="8.036466920748353">
<ele>376</ele>
<time>2023-05-18T12:16:28Z</time>
</trkpt>
<trkpt lat="49.3158049788326" lon="8.03650195710361">
<ele>376.20000000000005</ele>
<time>2023-05-18T12:16:29Z</time>
</trkpt>
<trkpt lat="49.31580296717584" lon="8.036531964316964">
<ele>376.6</ele>
<time>2023-05-18T12:16:30Z</time>
</trkpt>
<trkpt lat="49.31581495329738" lon="8.036571945995092">
<ele>376.79999999999995</ele>
<time>2023-05-18T12:16:31Z</time>
</trkpt>
<trkpt lat="49.31583699770272" lon="8.036594996228814">
<ele>377</ele>
<time>2023-05-18T12:16:32Z</time>
</trkpt>
<trkpt lat="49.315852923318744" lon="8.036609999835491">
<ele>377.4</ele>
<time>2023-05-18T12:16:33Z</time>
</trkpt>
<trkpt lat="49.31586692109704" lon="8.03660698235035">
<ele>377.6</ele>
<time>2023-05-18T12:16:34Z</time>
</trkpt>
<trkpt lat="49.31588192470372" lon="8.036604970693588">
<ele>377.79999999999995</ele>
<time>2023-05-18T12:16:35Z</time>
</trkpt>
<trkpt lat="49.315896928310394" lon="8.036594996228814">
<ele>378.20000000000005</ele>
<time>2023-05-18T12:16:36Z</time>
</trkpt>
<trkpt lat="49.31591494940221" lon="8.036596924066544">
<ele>378.4</ele>
<time>2023-05-18T12:16:37Z</time>
</trkpt>
<trkpt lat="49.315939927473664" lon="8.036602959036827">
<ele>378.6</ele>
<time>2023-05-18T12:16:38Z</time>
</trkpt>
<trkpt lat="49.31596792303026" lon="8.036589967086911">
<ele>379</ele>
<time>2023-05-18T12:16:39Z</time>
</trkpt>
<trkpt lat="49.3159949965775" lon="8.036604970693588">
<ele>379.20000000000005</ele>
<time>2023-05-18T12:16:40Z</time>
</trkpt>
<trkpt lat="49.31601997464895" lon="8.03660798817873">
<ele>379.4</ele>
<time>2023-05-18T12:16:41Z</time>
</trkpt>
<trkpt lat="49.316047970205545" lon="8.03661192767322">
<ele>379.79999999999995</ele>
<time>2023-05-18T12:16:42Z</time>
</trkpt>
<trkpt lat="49.31607495993376" lon="8.03660798817873">
<ele>380</ele>
<time>2023-05-18T12:16:43Z</time>
</trkpt>
<trkpt lat="49.31610295549035" lon="8.036599941551685">
<ele>380.4</ele>
<time>2023-05-18T12:16:44Z</time>
</trkpt>
<trkpt lat="49.316132962703705" lon="8.036589967086911">
<ele>380.6</ele>
<time>2023-05-18T12:16:45Z</time>
</trkpt>
<trkpt lat="49.316156934946775" lon="8.036584937945008">
<ele>381</ele>
<time>2023-05-18T12:16:46Z</time>
</trkpt>
<trkpt lat="49.31618199683726" lon="8.036582926288247">
<ele>381.20000000000005</ele>
<time>2023-05-18T12:16:47Z</time>
</trkpt>
<trkpt lat="49.316217955201864" lon="8.036576975136995">
<ele>381.4</ele>
<time>2023-05-18T12:16:48Z</time>
</trkpt>
<trkpt lat="49.31624494493008" lon="8.036569934338331">
<ele>381.79999999999995</ele>
<time>2023-05-18T12:16:49Z</time>
</trkpt>
<trkpt lat="49.31627193465829" lon="8.03656792268157">
<ele>382</ele>
<time>2023-05-18T12:16:50Z</time>
</trkpt>
<trkpt lat="49.31630194187164" lon="8.03656498901546">
<ele>382.4</ele>
<time>2023-05-18T12:16:51Z</time>
</trkpt>
<trkpt lat="49.316329937428236" lon="8.036562977358699">
<ele>382.6</ele>
<time>2023-05-18T12:16:52Z</time>
</trkpt>
<trkpt lat="49.31635499931872" lon="8.036561971530318">
<ele>383</ele>
<time>2023-05-18T12:16:53Z</time>
</trkpt>
<trkpt lat="49.31637796573341" lon="8.03656691685319">
<ele>383.20000000000005</ele>
<time>2023-05-18T12:16:54Z</time>
</trkpt>
<trkpt lat="49.31640696711838" lon="8.03656498901546">
<ele>383.4</ele>
<time>2023-05-18T12:16:55Z</time>
</trkpt>
<trkpt lat="49.31642792187631" lon="8.03656792268157">
<ele>383.79999999999995</ele>
<time>2023-05-18T12:16:56Z</time>
</trkpt>
<trkpt lat="49.31644996628165" lon="8.03656792268157">
<ele>384</ele>
<time>2023-05-18T12:16:57Z</time>
</trkpt>
<trkpt lat="49.31647293269634" lon="8.036577980965376">
<ele>384.4</ele>
<time>2023-05-18T12:16:58Z</time>
</trkpt>
<trkpt lat="49.316499922424555" lon="8.036589967086911">
<ele>384.6</ele>
<time>2023-05-18T12:16:59Z</time>
</trkpt>
<trkpt lat="49.316521966829896" lon="8.036604970693588">
<ele>385</ele>
<time>2023-05-18T12:17:00Z</time>
</trkpt>
<trkpt lat="49.31654694490135" lon="8.03660798817873">
<ele>385.20000000000005</ele>
<time>2023-05-18T12:17:01Z</time>
</trkpt>
<trkpt lat="49.31656999513507" lon="8.036612933501601">
<ele>385.6</ele>
<time>2023-05-18T12:17:02Z</time>
</trkpt>
<trkpt lat="49.31658994406462" lon="8.036624919623137">
<ele>385.79999999999995</ele>
<time>2023-05-18T12:17:03Z</time>
</trkpt>
<trkpt lat="49.31661693379283" lon="8.036641934886575">
<ele>386</ele>
<time>2023-05-18T12:17:04Z</time>
</trkpt>
<trkpt lat="49.31663998402655" lon="8.036661967635155">
<ele>386.4</ele>
<time>2023-05-18T12:17:05Z</time>
</trkpt>
<trkpt lat="49.316669991239905" lon="8.036682922393084">
<ele>386.79999999999995</ele>
<time>2023-05-18T12:17:06Z</time>
</trkpt>
<trkpt lat="49.31670293211937" lon="8.03671695291996">
<ele>387</ele>
<time>2023-05-18T12:17:07Z</time>
</trkpt>
<trkpt lat="49.31673998013139" lon="8.036761963739991">
<ele>387.4</ele>
<time>2023-05-18T12:17:08Z</time>
</trkpt>
<trkpt lat="49.31677292101085" lon="8.036796916276217">
<ele>387.6</ele>
<time>2023-05-18T12:17:09Z</time>
</trkpt>
<trkpt lat="49.31680996902287" lon="8.036834970116615">
<ele>388</ele>
<time>2023-05-18T12:17:10Z</time>
</trkpt>
<trkpt lat="49.31683494709432" lon="8.03686698898673">
<ele>388.20000000000005</ele>
<time>2023-05-18T12:17:11Z</time>
</trkpt>
<trkpt lat="49.31686696596444" lon="8.036906970664859">
<ele>388.6</ele>
<time>2023-05-18T12:17:12Z</time>
</trkpt>
<trkpt lat="49.31689194403589" lon="8.036934966221452">
<ele>388.79999999999995</ele>
<time>2023-05-18T12:17:13Z</time>
</trkpt>
<trkpt lat="49.31691298261285" lon="8.036961955949664">
<ele>389.20000000000005</ele>
<time>2023-05-18T12:17:14Z</time>
</trkpt>
<trkpt lat="49.31692999787629" lon="8.036987939849496">
<ele>389.4</ele>
<time>2023-05-18T12:17:15Z</time>
</trkpt>
<trkpt lat="49.316947935149074" lon="8.03701694123447">
<ele>389.6</ele>
<time>2023-05-18T12:17:16Z</time>
</trkpt>
<trkpt lat="49.31695799343288" lon="8.037034962326288">
<ele>390</ele>
<time>2023-05-18T12:17:17Z</time>
</trkpt>
<trkpt lat="49.31697299703956" lon="8.0370619520545">
<ele>390.20000000000005</ele>
<time>2023-05-18T12:17:18Z</time>
</trkpt>
<trkpt lat="49.316991940140724" lon="8.037091959267855">
<ele>390.4</ele>
<time>2023-05-18T12:17:19Z</time>
</trkpt>
<trkpt lat="49.317011972889304" lon="8.03712498396635">
<ele>390.6</ele>
<time>2023-05-18T12:17:20Z</time>
</trkpt>
<trkpt lat="49.31702798232436" lon="8.037157924845815">
<ele>391</ele>
<time>2023-05-18T12:17:21Z</time>
</trkpt>
<trkpt lat="49.31704198010266" lon="8.03718994371593">
<ele>391.20000000000005</ele>
<time>2023-05-18T12:17:22Z</time>
</trkpt>
<trkpt lat="49.31705195456743" lon="8.037207964807749">
<ele>391.4</ele>
<time>2023-05-18T12:17:23Z</time>
</trkpt>
<trkpt lat="49.31706796400249" lon="8.037246940657496">
<ele>391.6</ele>
<time>2023-05-18T12:17:24Z</time>
</trkpt>
<trkpt lat="49.31708296760917" lon="8.037281977012753">
<ele>391.79999999999995</ele>
<time>2023-05-18T12:17:25Z</time>
</trkpt>
<trkpt lat="49.31709193624556" lon="8.037306955084205">
<ele>392.20000000000005</ele>
<time>2023-05-18T12:17:26Z</time>
</trkpt>
<trkpt lat="49.31710199452937" lon="8.0373399797827">
<ele>392.4</ele>
<time>2023-05-18T12:17:27Z</time>
</trkpt>
<trkpt lat="49.31711792014539" lon="8.037364957854152">
<ele>392.6</ele>
<time>2023-05-18T12:17:28Z</time>
</trkpt>
<trkpt lat="49.31712999008596" lon="8.037396976724267">
<ele>392.79999999999995</ele>
<time>2023-05-18T12:17:29Z</time>
</trkpt>
<trkpt lat="49.31713795289397" lon="8.037419943138957">
<ele>393</ele>
<time>2023-05-18T12:17:30Z</time>
</trkpt>
<trkpt lat="49.31715295650065" lon="8.037462942302227">
<ele>393.20000000000005</ele>
<time>2023-05-18T12:17:31Z</time>
</trkpt>
<trkpt lat="49.31716796010733" lon="8.037492949515581">
<ele>393.4</ele>
<time>2023-05-18T12:17:32Z</time>
</trkpt>
<trkpt lat="49.317184975370765" lon="8.03753293119371">
<ele>393.6</ele>
<time>2023-05-18T12:17:33Z</time>
</trkpt>
<trkpt lat="49.3171969614923" lon="8.037556987255812">
<ele>394</ele>
<time>2023-05-18T12:17:34Z</time>
</trkpt>
<trkpt lat="49.31720492430031" lon="8.037579953670502">
<ele>394.20000000000005</ele>
<time>2023-05-18T12:17:35Z</time>
</trkpt>
<trkpt lat="49.31721196509898" lon="8.037604931741953">
<ele>394.4</ele>
<time>2023-05-18T12:17:36Z</time>
</trkpt>
<trkpt lat="49.31721992790699" lon="8.037631921470165">
<ele>394.6</ele>
<time>2023-05-18T12:17:37Z</time>
</trkpt>
<trkpt lat="49.317226968705654" lon="8.037667963653803">
<ele>394.79999999999995</ele>
<time>2023-05-18T12:17:38Z</time>
</trkpt>
<trkpt lat="49.317226968705654" lon="8.037696965038776">
<ele>395.20000000000005</ele>
<time>2023-05-18T12:17:39Z</time>
</trkpt>
<trkpt lat="49.317227974534035" lon="8.03772496059537">
<ele>395.4</ele>
<time>2023-05-18T12:17:40Z</time>
</trkpt>
<trkpt lat="49.31722495704889" lon="8.03774499334395">
<ele>395.6</ele>
<time>2023-05-18T12:17:41Z</time>
</trkpt>
<trkpt lat="49.317226968705654" lon="8.0377699714154">
<ele>396</ele>
<time>2023-05-18T12:17:42Z</time>
</trkpt>
<trkpt lat="49.317232919856906" lon="8.037814982235432">
<ele>396.20000000000005</ele>
<time>2023-05-18T12:17:43Z</time>
</trkpt>
<trkpt lat="49.31723996065557" lon="8.037856975570321">
<ele>396.4</ele>
<time>2023-05-18T12:17:44Z</time>
</trkpt>
<trkpt lat="49.3172469176352" lon="8.037891928106546">
<ele>396.6</ele>
<time>2023-05-18T12:17:45Z</time>
</trkpt>
<trkpt lat="49.317252952605486" lon="8.037926964461803">
<ele>396.79999999999995</ele>
<time>2023-05-18T12:17:46Z</time>
</trkpt>
<trkpt lat="49.317251946777105" lon="8.037954960018396">
<ele>397.20000000000005</ele>
<time>2023-05-18T12:17:47Z</time>
</trkpt>
<trkpt lat="49.31724792346358" lon="8.037999970838428">
<ele>397.4</ele>
<time>2023-05-18T12:17:48Z</time>
</trkpt>
<trkpt lat="49.31724498979747" lon="8.038031989708543">
<ele>397.6</ele>
<time>2023-05-18T12:17:49Z</time>
</trkpt>
<trkpt lat="49.31724792346358" lon="8.038071971386671">
<ele>397.79999999999995</ele>
<time>2023-05-18T12:17:50Z</time>
</trkpt>
<trkpt lat="49.31724792346358" lon="8.03811295889318">
<ele>398</ele>
<time>2023-05-18T12:17:51Z</time>
</trkpt>
<trkpt lat="49.317249935120344" lon="8.038151934742928">
<ele>398.20000000000005</ele>
<time>2023-05-18T12:17:52Z</time>
</trkpt>
<trkpt lat="49.317251946777105" lon="8.038192922249436">
<ele>398.4</ele>
<time>2023-05-18T12:17:53Z</time>
</trkpt>
<trkpt lat="49.31726795621216" lon="8.038239944726229">
<ele>398.79999999999995</ele>
<time>2023-05-18T12:17:54Z</time>
</trkpt>
<trkpt lat="49.31728295981884" lon="8.038289984688163">
<ele>399</ele>
<time>2023-05-18T12:17:55Z</time>
</trkpt>
<trkpt lat="49.31728991679847" lon="8.038336923345923">
<ele>399.20000000000005</ele>
<time>2023-05-18T12:17:56Z</time>
</trkpt>
<trkpt lat="49.31728698313236" lon="8.038382939994335">
<ele>399.4</ele>
<time>2023-05-18T12:17:57Z</time>
</trkpt>
<trkpt lat="49.3172849714756" lon="8.038419988006353">
<ele>399.6</ele>
<time>2023-05-18T12:17:58Z</time>
</trkpt>
<trkpt lat="49.31728991679847" lon="8.038452928885818">
<ele>400</ele>
<time>2023-05-18T12:17:59Z</time>
</trkpt>
<trkpt lat="49.317292934283614" lon="8.03847991861403">
<ele>400.20000000000005</ele>
<time>2023-05-18T12:18:00Z</time>
</trkpt>
<trkpt lat="49.31730198673904" lon="8.038524929434061">
<ele>400.4</ele>
<time>2023-05-18T12:18:01Z</time>
</trkpt>
<trkpt lat="49.31730492040515" lon="8.038557954132557">
<ele>400.6</ele>
<time>2023-05-18T12:18:02Z</time>
</trkpt>
<trkpt lat="49.31730994954705" lon="8.03860698826611">
<ele>401</ele>
<time>2023-05-18T12:18:03Z</time>
</trkpt>
<trkpt lat="49.317312967032194" lon="8.038644958287477">
<ele>401.20000000000005</ele>
<time>2023-05-18T12:18:04Z</time>
</trkpt>
<trkpt lat="49.317312967032194" lon="8.038676977157593">
<ele>401.4</ele>
<time>2023-05-18T12:18:05Z</time>
</trkpt>
<trkpt lat="49.317314978688955" lon="8.038727939128876">
<ele>401.6</ele>
<time>2023-05-18T12:18:06Z</time>
</trkpt>
<trkpt lat="49.3173179961741" lon="8.038766998797655">
<ele>402</ele>
<time>2023-05-18T12:18:07Z</time>
</trkpt>
<trkpt lat="49.31732495315373" lon="8.038787953555584">
<ele>402.20000000000005</ele>
<time>2023-05-18T12:18:08Z</time>
</trkpt>
<trkpt lat="49.31732998229563" lon="8.03882491774857">
<ele>402.4</ele>
<time>2023-05-18T12:18:09Z</time>
</trkpt>
<trkpt lat="49.317334927618504" lon="8.038859954103827">
<ele>402.6</ele>
<time>2023-05-18T12:18:10Z</time>
</trkpt>
<trkpt lat="49.31734498590231" lon="8.038902953267097">
<ele>403</ele>
<time>2023-05-18T12:18:11Z</time>
</trkpt>
<trkpt lat="49.317357977852225" lon="8.038952993229032">
<ele>403.20000000000005</ele>
<time>2023-05-18T12:18:12Z</time>
</trkpt>
<trkpt lat="49.31735998950899" lon="8.038987945765257">
<ele>403.4</ele>
<time>2023-05-18T12:18:13Z</time>
</trkpt>
<trkpt lat="49.31735998950899" lon="8.039022982120514">
<ele>403.6</ele>
<time>2023-05-18T12:18:14Z</time>
</trkpt>
<trkpt lat="49.31735998950899" lon="8.03905793465674">
<ele>403.79999999999995</ele>
<time>2023-05-18T12:18:15Z</time>
</trkpt>
<trkpt lat="49.317361917346716" lon="8.039116943255067">
<ele>404</ele>
<time>2023-05-18T12:18:16Z</time>
</trkpt>
<trkpt lat="49.31736694648862" lon="8.039157930761576">
<ele>404.20000000000005</ele>
<time>2023-05-18T12:18:17Z</time>
</trkpt>
<trkpt lat="49.3173729814589" lon="8.039202941581607">
<ele>404.6</ele>
<time>2023-05-18T12:18:18Z</time>
</trkpt>
<trkpt lat="49.317377926781774" lon="8.039232948794961">
<ele>404.79999999999995</ele>
<time>2023-05-18T12:18:19Z</time>
</trkpt>
<trkpt lat="49.317379938438535" lon="8.039259938523173">
<ele>405</ele>
<time>2023-05-18T12:18:20Z</time>
</trkpt>
<trkpt lat="49.31738496758044" lon="8.03929497487843">
<ele>405.20000000000005</ele>
<time>2023-05-18T12:18:21Z</time>
</trkpt>
<trkpt lat="49.31738798506558" lon="8.03933696821332">
<ele>405.4</ele>
<time>2023-05-18T12:18:22Z</time>
</trkpt>
<trkpt lat="49.31738999672234" lon="8.039372926577926">
<ele>405.6</ele>
<time>2023-05-18T12:18:23Z</time>
</trkpt>
<trkpt lat="49.31739494204521" lon="8.039394970983267">
<ele>406</ele>
<time>2023-05-18T12:18:24Z</time>
</trkpt>
<trkpt lat="49.317399971187115" lon="8.039419949054718">
<ele>406.20000000000005</ele>
<time>2023-05-18T12:18:25Z</time>
</trkpt>
<trkpt lat="49.31740298867226" lon="8.039472922682762">
<ele>406.4</ele>
<time>2023-05-18T12:18:26Z</time>
</trkpt>
<trkpt lat="49.317404916509986" lon="8.039524974301457">
<ele>406.6</ele>
<time>2023-05-18T12:18:27Z</time>
</trkpt>
<trkpt lat="49.31740692816675" lon="8.039567973464727">
<ele>407</ele>
<time>2023-05-18T12:18:28Z</time>
</trkpt>
<trkpt lat="49.31740994565189" lon="8.039604937657714">
<ele>407.20000000000005</ele>
<time>2023-05-18T12:18:29Z</time>
</trkpt>
<trkpt lat="49.31741799227893" lon="8.039651960134506">
<ele>407.4</ele>
<time>2023-05-18T12:18:30Z</time>
</trkpt>
<trkpt lat="49.317422937601805" lon="8.039696970954537">
<ele>407.6</ele>
<time>2023-05-18T12:18:31Z</time>
</trkpt>
<trkpt lat="49.31742696091533" lon="8.039741981774569">
<ele>407.79999999999995</ele>
<time>2023-05-18T12:18:32Z</time>
</trkpt>
<trkpt lat="49.31743299588561" lon="8.039791937917471">
<ele>408.20000000000005</ele>
<time>2023-05-18T12:18:33Z</time>
</trkpt>
<trkpt lat="49.31743794120848" lon="8.039844995364547">
<ele>408.4</ele>
<time>2023-05-18T12:18:34Z</time>
</trkpt>
<trkpt lat="49.317441964522004" lon="8.039886988699436">
<ele>408.6</ele>
<time>2023-05-18T12:18:35Z</time>
</trkpt>
<trkpt lat="49.317442970350385" lon="8.0399199295789">
<ele>408.79999999999995</ele>
<time>2023-05-18T12:18:36Z</time>
</trkpt>
<trkpt lat="49.31744699366391" lon="8.039977932348847">
<ele>409</ele>
<time>2023-05-18T12:18:37Z</time>
</trkpt>
<trkpt lat="49.31744799949229" lon="8.040011962875724">
<ele>409.20000000000005</ele>
<time>2023-05-18T12:18:38Z</time>
</trkpt>
<trkpt lat="49.31744992733002" lon="8.04004792124033">
<ele>409.6</ele>
<time>2023-05-18T12:18:39Z</time>
</trkpt>
<trkpt lat="49.31744799949229" lon="8.04008798673749">
<ele>409.79999999999995</ele>
<time>2023-05-18T12:18:40Z</time>
</trkpt>
<trkpt lat="49.31745294481516" lon="8.040126962587237">
<ele>410</ele>
<time>2023-05-18T12:18:41Z</time>
</trkpt>
<trkpt lat="49.31745696812868" lon="8.040157975628972">
<ele>410.20000000000005</ele>
<time>2023-05-18T12:18:42Z</time>
</trkpt>
<trkpt lat="49.317461997270584" lon="8.04019695147872">
<ele>410.4</ele>
<time>2023-05-18T12:18:43Z</time>
</trkpt>
<trkpt lat="49.31747197173536" lon="8.040236933156848">
<ele>410.6</ele>
<time>2023-05-18T12:18:44Z</time>
</trkpt>
<trkpt lat="49.3174749892205" lon="8.040274986997247">
<ele>410.79999999999995</ele>
<time>2023-05-18T12:18:45Z</time>
</trkpt>
<trkpt lat="49.3174749892205" lon="8.040322931483388">
<ele>411</ele>
<time>2023-05-18T12:18:46Z</time>
</trkpt>
<trkpt lat="49.31747993454337" lon="8.040366936475039">
<ele>411.20000000000005</ele>
<time>2023-05-18T12:18:47Z</time>
</trkpt>
<trkpt lat="49.317486975342035" lon="8.040422927588224">
<ele>411.4</ele>
<time>2023-05-18T12:18:48Z</time>
</trkpt>
<trkpt lat="49.31749493815005" lon="8.040464920923114">
<ele>411.6</ele>
<time>2023-05-18T12:18:49Z</time>
</trkpt>
<trkpt lat="49.317504996433854" lon="8.040494928136468">
<ele>411.79999999999995</ele>
<time>2023-05-18T12:18:50Z</time>
</trkpt>
<trkpt lat="49.31751497089863" lon="8.040527952834964">
<ele>412</ele>
<time>2023-05-18T12:18:51Z</time>
</trkpt>
<trkpt lat="49.31752293370664" lon="8.04056491702795">
<ele>412.20000000000005</ele>
<time>2023-05-18T12:18:52Z</time>
</trkpt>
<trkpt lat="49.31751798838377" lon="8.04060498252511">
<ele>412.4</ele>
<time>2023-05-18T12:18:53Z</time>
</trkpt>
<trkpt lat="49.3175199162215" lon="8.04064798168838">
<ele>412.6</ele>
<time>2023-05-18T12:18:54Z</time>
</trkpt>
<trkpt lat="49.31752293370664" lon="8.040692992508411">
<ele>412.79999999999995</ele>
<time>2023-05-18T12:18:55Z</time>
</trkpt>
<trkpt lat="49.31752293370664" lon="8.04073791950941">
<ele>413</ele>
<time>2023-05-18T12:18:56Z</time>
</trkpt>
<trkpt lat="49.31751798838377" lon="8.040782930329442">
<ele>413.20000000000005</ele>
<time>2023-05-18T12:18:57Z</time>
</trkpt>
<trkpt lat="49.31751497089863" lon="8.040822995826602">
<ele>413.4</ele>
<time>2023-05-18T12:18:58Z</time>
</trkpt>
<trkpt lat="49.31751195341349" lon="8.04086297750473">
<ele>413.6</ele>
<time>2023-05-18T12:18:59Z</time>
</trkpt>
<trkpt lat="49.317509941756725" lon="8.040901953354478">
<ele>413.79999999999995</ele>
<time>2023-05-18T12:19:00Z</time>
</trkpt>
<trkpt lat="49.317504996433854" lon="8.040939923375845">
<ele>414</ele>
<time>2023-05-18T12:19:01Z</time>
</trkpt>
<trkpt lat="49.31750197894871" lon="8.04097294807434">
<ele>414.4</ele>
<time>2023-05-18T12:19:02Z</time>
</trkpt>
<trkpt lat="49.31750197894871" lon="8.041011923924088">
<ele>414.6</ele>
<time>2023-05-18T12:19:03Z</time>
</trkpt>
<trkpt lat="49.31750197894871" lon="8.041046960279346">
<ele>414.79999999999995</ele>
<time>2023-05-18T12:19:04Z</time>
</trkpt>
<trkpt lat="49.31749996729195" lon="8.041084930300713">
<ele>415</ele>
<time>2023-05-18T12:19:05Z</time>
</trkpt>
<trkpt lat="49.31750197894871" lon="8.041127929463983">
<ele>415.20000000000005</ele>
<time>2023-05-18T12:19:06Z</time>
</trkpt>
<trkpt lat="49.31750197894871" lon="8.041164977476">
<ele>415.4</ele>
<time>2023-05-18T12:19:07Z</time>
</trkpt>
<trkpt lat="49.317504996433854" lon="8.041192973032594">
<ele>415.6</ele>
<time>2023-05-18T12:19:08Z</time>
</trkpt>
<trkpt lat="49.317507930099964" lon="8.041221974417567">
<ele>415.79999999999995</ele>
<time>2023-05-18T12:19:09Z</time>
</trkpt>
<trkpt lat="49.317507930099964" lon="8.041262961924076">
<ele>416.20000000000005</ele>
<time>2023-05-18T12:19:10Z</time>
</trkpt>
<trkpt lat="49.31751295924187" lon="8.041304955258965">
<ele>416.4</ele>
<time>2023-05-18T12:19:11Z</time>
</trkpt>
<trkpt lat="49.31751798838377" lon="8.041344936937094">
<ele>416.6</ele>
<time>2023-05-18T12:19:12Z</time>
</trkpt>
<trkpt lat="49.31752293370664" lon="8.041382990777493">
<ele>416.79999999999995</ele>
<time>2023-05-18T12:19:13Z</time>
</trkpt>
<trkpt lat="49.3175249453634" lon="8.041417943313718">
<ele>417</ele>
<time>2023-05-18T12:19:14Z</time>
</trkpt>
<trkpt lat="49.31753299199045" lon="8.041459936648607">
<ele>417.20000000000005</ele>
<time>2023-05-18T12:19:15Z</time>
</trkpt>
<trkpt lat="49.31753299199045" lon="8.041501929983497">
<ele>417.6</ele>
<time>2023-05-18T12:19:16Z</time>
</trkpt>
<trkpt lat="49.317529974505305" lon="8.041536966338754">
<ele>417.79999999999995</ele>
<time>2023-05-18T12:19:17Z</time>
</trkpt>
<trkpt lat="49.31753299199045" lon="8.041584994643927">
<ele>418</ele>
<time>2023-05-18T12:19:18Z</time>
</trkpt>
<trkpt lat="49.31753198616207" lon="8.041622964665294">
<ele>418.20000000000005</ele>
<time>2023-05-18T12:19:19Z</time>
</trkpt>
<trkpt lat="49.31753299199045" lon="8.041671998798847">
<ele>418.4</ele>
<time>2023-05-18T12:19:20Z</time>
</trkpt>
<trkpt lat="49.31753198616207" lon="8.041711980476975">
<ele>418.6</ele>
<time>2023-05-18T12:19:21Z</time>
</trkpt>
<trkpt lat="49.31753491982818" lon="8.04174299351871">
<ele>418.79999999999995</ele>
<time>2023-05-18T12:19:22Z</time>
</trkpt>
<trkpt lat="49.31754497811198" lon="8.041779957711697">
<ele>419</ele>
<time>2023-05-18T12:19:23Z</time>
</trkpt>
<trkpt lat="49.317549923434854" lon="8.041812982410192">
<ele>419.20000000000005</ele>
<time>2023-05-18T12:19:24Z</time>
</trkpt>
<trkpt lat="49.31755696423352" lon="8.041842989623547">
<ele>419.4</ele>
<time>2023-05-18T12:19:25Z</time>
</trkpt>
<trkpt lat="49.31756794452667" lon="8.041877942159772">
<ele>419.79999999999995</ele>
<time>2023-05-18T12:19:26Z</time>
</trkpt>
<trkpt lat="49.31758194230497" lon="8.041906943544745">
<ele>420</ele>
<time>2023-05-18T12:19:27Z</time>
</trkpt>
<trkpt lat="49.31759292259812" lon="8.04193795658648">
<ele>420.20000000000005</ele>
<time>2023-05-18T12:19:28Z</time>
</trkpt>
<trkpt lat="49.31760298088193" lon="8.041967963799834">
<ele>420.4</ele>
<time>2023-05-18T12:19:29Z</time>
</trkpt>
<trkpt lat="49.31760993786156" lon="8.04200492799282">
<ele>420.6</ele>
<time>2023-05-18T12:19:30Z</time>
</trkpt>
<trkpt lat="49.31762292981148" lon="8.04204792715609">
<ele>420.79999999999995</ele>
<time>2023-05-18T12:19:31Z</time>
</trkpt>
<trkpt lat="49.31764195673168" lon="8.042081957682967">
<ele>421</ele>
<time>2023-05-18T12:19:32Z</time>
</trkpt>
<trkpt lat="49.31764991953969" lon="8.042124956846237">
<ele>421.20000000000005</ele>
<time>2023-05-18T12:19:33Z</time>
</trkpt>
<trkpt lat="49.31765293702483" lon="8.042149934917688">
<ele>421.4</ele>
<time>2023-05-18T12:19:34Z</time>
</trkpt>
<trkpt lat="49.317657966166735" lon="8.042202992364764">
<ele>421.6</ele>
<time>2023-05-18T12:19:35Z</time>
</trkpt>
<trkpt lat="49.31766198948026" lon="8.042227970436215">
<ele>421.6</ele>
<time>2023-05-18T12:19:36Z</time>
</trkpt>
<trkpt lat="49.317677998915315" lon="8.042247919365764">
<ele>421.79999999999995</ele>
<time>2023-05-18T12:19:37Z</time>
</trkpt>
<trkpt lat="49.31769694201648" lon="8.042271975427866">
<ele>422</ele>
<time>2023-05-18T12:19:38Z</time>
</trkpt>
<trkpt lat="49.31772192008793" lon="8.042292930185795">
<ele>422.20000000000005</ele>
<time>2023-05-18T12:19:39Z</time>
</trkpt>
<trkpt lat="49.3177479878068" lon="8.042316986247897">
<ele>422.4</ele>
<time>2023-05-18T12:19:40Z</time>
</trkpt>
<trkpt lat="49.31777196004987" lon="8.042346993461251">
<ele>422.6</ele>
<time>2023-05-18T12:19:41Z</time>
</trkpt>
<trkpt lat="49.31779299862683" lon="8.042361997067928">
<ele>422.79999999999995</ele>
<time>2023-05-18T12:19:42Z</time>
</trkpt>
<trkpt lat="49.31781998835504" lon="8.042356967926025">
<ele>423</ele>
<time>2023-05-18T12:19:43Z</time>
</trkpt>
<trkpt lat="49.31784194894135" lon="8.042342970147729">
<ele>423.20000000000005</ele>
<time>2023-05-18T12:19:44Z</time>
</trkpt>
<trkpt lat="49.31786298751831" lon="8.042334923520684">
<ele>423.4</ele>
<time>2023-05-18T12:19:45Z</time>
</trkpt>
<trkpt lat="49.31788494810462" lon="8.042317992076278">
<ele>423.6</ele>
<time>2023-05-18T12:19:46Z</time>
</trkpt>
<trkpt lat="49.31790196336806" lon="8.042299970984459">
<ele>423.79999999999995</ele>
<time>2023-05-18T12:19:47Z</time>
</trkpt>
<trkpt lat="49.31790799833834" lon="8.04228194989264">
<ele>423.79999999999995</ele>
<time>2023-05-18T12:19:48Z</time>
</trkpt>
<trkpt lat="49.31791294366121" lon="8.04225797764957">
<ele>424</ele>
<time>2023-05-18T12:19:49Z</time>
</trkpt>
<trkpt lat="49.31792199611664" lon="8.042236939072609">
<ele>424.20000000000005</ele>
<time>2023-05-18T12:19:50Z</time>
</trkpt>
<trkpt lat="49.31792995892465" lon="8.042212966829538">
<ele>424.20000000000005</ele>
<time>2023-05-18T12:19:51Z</time>
</trkpt>
<trkpt lat="49.317936999723315" lon="8.042207937687635">
<ele>424.4</ele>
<time>2023-05-18T12:19:52Z</time>
</trkpt>
<trkpt lat="49.317937921732664" lon="8.042184971272945">
<ele>424.6</ele>
<time>2023-05-18T12:19:53Z</time>
</trkpt>
<trkpt lat="49.31794697418809" lon="8.04215295240283">
<ele>424.6</ele>
<time>2023-05-18T12:19:54Z</time>
</trkpt>
<trkpt lat="49.317957954481244" lon="8.042114982381463">
<ele>424.79999999999995</ele>
<time>2023-05-18T12:19:55Z</time>
</trkpt>
<trkpt lat="49.31796499527991" lon="8.04208698682487">
<ele>424.79999999999995</ele>
<time>2023-05-18T12:19:56Z</time>
</trkpt>
<trkpt lat="49.317979998886585" lon="8.042061924934387">
<ele>425</ele>
<time>2023-05-18T12:19:57Z</time>
</trkpt>
<trkpt lat="49.31798997335136" lon="8.042029989883304">
<ele>425.20000000000005</ele>
<time>2023-05-18T12:19:58Z</time>
</trkpt>
<trkpt lat="49.31799994781613" lon="8.041989924386144">
<ele>425.20000000000005</ele>
<time>2023-05-18T12:19:59Z</time>
</trkpt>
<trkpt lat="49.31800799444318" lon="8.041942985728383">
<ele>425.4</ele>
<time>2023-05-18T12:20:00Z</time>
</trkpt>
<trkpt lat="49.31801796890795" lon="8.041881965473294">
<ele>425.6</ele>
<time>2023-05-18T12:20:01Z</time>
</trkpt>
<trkpt lat="49.31802995502949" lon="8.041817927733064">
<ele>425.6</ele>
<time>2023-05-18T12:20:02Z</time>
</trkpt>
<trkpt lat="49.318027943372726" lon="8.041754979640245">
<ele>425.79999999999995</ele>
<time>2023-05-18T12:20:03Z</time>
</trkpt>
<trkpt lat="49.31803196668625" lon="8.041707957163453">
<ele>426</ele>
<time>2023-05-18T12:20:04Z</time>
</trkpt>
<trkpt lat="49.31803699582815" lon="8.04165699519217">
<ele>426</ele>
<time>2023-05-18T12:20:05Z</time>
</trkpt>
<trkpt lat="49.31804194115102" lon="8.0415949691087">
<ele>426.20000000000005</ele>
<time>2023-05-18T12:20:06Z</time>
</trkpt>
<trkpt lat="49.31805199943483" lon="8.041546940803528">
<ele>426.4</ele>
<time>2023-05-18T12:20:07Z</time>
</trkpt>
<trkpt lat="49.31805996224284" lon="8.041514921933413">
<ele>426.4</ele>
<time>2023-05-18T12:20:08Z</time>
</trkpt>
<trkpt lat="49.318069936707616" lon="8.04148692637682">
<ele>426.6</ele>
<time>2023-05-18T12:20:09Z</time>
</trkpt>
<trkpt lat="49.31807697750628" lon="8.041454991325736">
<ele>426.79999999999995</ele>
<time>2023-05-18T12:20:10Z</time>
</trkpt>
<trkpt lat="49.31809198111296" lon="8.04142196662724">
<ele>427</ele>
<time>2023-05-18T12:20:11Z</time>
</trkpt>
<trkpt lat="49.31810497306287" lon="8.041391959413886">
<ele>427.20000000000005</ele>
<time>2023-05-18T12:20:12Z</time>
</trkpt>
<trkpt lat="49.31811796501279" lon="8.041342925280333">
<ele>427.4</ele>
<time>2023-05-18T12:20:13Z</time>
</trkpt>
<trkpt lat="49.318129951134324" lon="8.04129296913743">
<ele>427.6</ele>
<time>2023-05-18T12:20:14Z</time>
</trkpt>
<trkpt lat="49.31814193725586" lon="8.041246952489018">
<ele>427.79999999999995</ele>
<time>2023-05-18T12:20:15Z</time>
</trkpt>
<trkpt lat="49.318156940862536" lon="8.041204959154129">
<ele>428</ele>
<time>2023-05-18T12:20:16Z</time>
</trkpt>
<trkpt lat="49.31816699914634" lon="8.041157936677337">
<ele>428.20000000000005</ele>
<time>2023-05-18T12:20:17Z</time>
</trkpt>
<trkpt lat="49.31817999109626" lon="8.041117954999208">
<ele>428.4</ele>
<time>2023-05-18T12:20:18Z</time>
</trkpt>
<trkpt lat="49.318197928369045" lon="8.041067998856306">
<ele>428.6</ele>
<time>2023-05-18T12:20:19Z</time>
</trkpt>
<trkpt lat="49.318216955289245" lon="8.041012929752469">
<ele>428.79999999999995</ele>
<time>2023-05-18T12:20:20Z</time>
</trkpt>
<trkpt lat="49.3182329647243" lon="8.04097294807434">
<ele>429</ele>
<time>2023-05-18T12:20:21Z</time>
</trkpt>
<trkpt lat="49.3182469625026" lon="8.040926931425929">
<ele>429.20000000000005</ele>
<time>2023-05-18T12:20:22Z</time>
</trkpt>
<trkpt lat="49.318262971937656" lon="8.040874963626266">
<ele>429.4</ele>
<time>2023-05-18T12:20:23Z</time>
</trkpt>
<trkpt lat="49.31827696971595" lon="8.040829952806234">
<ele>429.6</ele>
<time>2023-05-18T12:20:24Z</time>
</trkpt>
<trkpt lat="49.31829297915101" lon="8.040787959471345">
<ele>429.79999999999995</ele>
<time>2023-05-18T12:20:25Z</time>
</trkpt>
<trkpt lat="49.31830697692931" lon="8.040746971964836">
<ele>430</ele>
<time>2023-05-18T12:20:26Z</time>
</trkpt>
<trkpt lat="49.31831192225218" lon="8.04071294143796">
<ele>430.20000000000005</ele>
<time>2023-05-18T12:20:27Z</time>
</trkpt>
<trkpt lat="49.31831996887922" lon="8.040682934224606">
<ele>430.4</ele>
<time>2023-05-18T12:20:28Z</time>
</trkpt>
<trkpt lat="49.318327931687236" lon="8.040652927011251">
<ele>430.6</ele>
<time>2023-05-18T12:20:29Z</time>
</trkpt>
<trkpt lat="49.3183349724859" lon="8.040609927847981">
<ele>430.79999999999995</ele>
<time>2023-05-18T12:20:30Z</time>
</trkpt>
<trkpt lat="49.31834192946553" lon="8.04056298919022">
<ele>431</ele>
<time>2023-05-18T12:20:31Z</time>
</trkpt>
<trkpt lat="49.31835198774934" lon="8.04051999002695">
<ele>431.20000000000005</ele>
<time>2023-05-18T12:20:32Z</time>
</trkpt>
<trkpt lat="49.31835693307221" lon="8.040487971156836">
<ele>431.4</ele>
<time>2023-05-18T12:20:33Z</time>
</trkpt>
<trkpt lat="49.318371936678886" lon="8.04045494645834">
<ele>431.6</ele>
<time>2023-05-18T12:20:34Z</time>
</trkpt>
<trkpt lat="49.31838291697204" lon="8.04041194729507">
<ele>431.79999999999995</ele>
<time>2023-05-18T12:20:35Z</time>
</trkpt>
<trkpt lat="49.31839297525585" lon="8.040362996980548">
<ele>432</ele>
<time>2023-05-18T12:20:36Z</time>
</trkpt>
<trkpt lat="49.31841694749892" lon="8.040317986160517">
<ele>432.20000000000005</ele>
<time>2023-05-18T12:20:37Z</time>
</trkpt>
<trkpt lat="49.318432956933975" lon="8.040272975340486">
<ele>432.4</ele>
<time>2023-05-18T12:20:38Z</time>
</trkpt>
<trkpt lat="49.31843999773264" lon="8.040227964520454">
<ele>432.6</ele>
<time>2023-05-18T12:20:39Z</time>
</trkpt>
<trkpt lat="49.31844997219741" lon="8.040184965357184">
<ele>432.79999999999995</ele>
<time>2023-05-18T12:20:40Z</time>
</trkpt>
<trkpt lat="49.318457935005426" lon="8.040146995335817">
<ele>433</ele>
<time>2023-05-18T12:20:41Z</time>
</trkpt>
<trkpt lat="49.31846698746085" lon="8.040101984515786">
<ele>433.20000000000005</ele>
<time>2023-05-18T12:20:42Z</time>
</trkpt>
<trkpt lat="49.3184729386121" lon="8.040059991180897">
<ele>433.4</ele>
<time>2023-05-18T12:20:43Z</time>
</trkpt>
<trkpt lat="49.3184869363904" lon="8.040014980360866">
<ele>433.6</ele>
<time>2023-05-18T12:20:44Z</time>
</trkpt>
<trkpt lat="49.318497916683555" lon="8.039966952055693">
<ele>433.79999999999995</ele>
<time>2023-05-18T12:20:45Z</time>
</trkpt>
<trkpt lat="49.31850998662412" lon="8.03991699591279">
<ele>434</ele>
<time>2023-05-18T12:20:46Z</time>
</trkpt>
<trkpt lat="49.31852197274566" lon="8.03987491875887">
<ele>434.20000000000005</ele>
<time>2023-05-18T12:20:47Z</time>
</trkpt>
<trkpt lat="49.31852691806853" lon="8.039834937080741">
<ele>434.4</ele>
<time>2023-05-18T12:20:48Z</time>
</trkpt>
<trkpt lat="49.31853496469557" lon="8.039794955402613">
<ele>434.6</ele>
<time>2023-05-18T12:20:49Z</time>
</trkpt>
<trkpt lat="49.31854795664549" lon="8.039749944582582">
<ele>434.79999999999995</ele>
<time>2023-05-18T12:20:50Z</time>
</trkpt>
<trkpt lat="49.31855793111026" lon="8.03970493376255">
<ele>435</ele>
<time>2023-05-18T12:20:51Z</time>
</trkpt>
<trkpt lat="49.3185699172318" lon="8.039669981226325">
<ele>435.20000000000005</ele>
<time>2023-05-18T12:20:52Z</time>
</trkpt>
<trkpt lat="49.318582993000746" lon="8.039634944871068">
<ele>435.4</ele>
<time>2023-05-18T12:20:53Z</time>
</trkpt>
<trkpt lat="49.31859196163714" lon="8.039599992334843">
<ele>435.6</ele>
<time>2023-05-18T12:20:54Z</time>
</trkpt>
<trkpt lat="49.318602941930294" lon="8.039561938494444">
<ele>435.79999999999995</ele>
<time>2023-05-18T12:20:55Z</time>
</trkpt>
<trkpt lat="49.31861291639507" lon="8.03950997069478">
<ele>436</ele>
<time>2023-05-18T12:20:56Z</time>
</trkpt>
<trkpt lat="49.31862196885049" lon="8.039459930732846">
<ele>436.4</ele>
<time>2023-05-18T12:20:57Z</time>
</trkpt>
<trkpt lat="49.31863294914365" lon="8.039412992075086">
<ele>436.6</ele>
<time>2023-05-18T12:20:58Z</time>
</trkpt>
<trkpt lat="49.31864292360842" lon="8.039374938234687">
<ele>436.79999999999995</ele>
<time>2023-05-18T12:20:59Z</time>
</trkpt>
<trkpt lat="49.31865298189223" lon="8.039334956556559">
<ele>437</ele>
<time>2023-05-18T12:21:00Z</time>
</trkpt>
<trkpt lat="49.31865993887186" lon="8.039291957393289">
<ele>437.20000000000005</ele>
<time>2023-05-18T12:21:01Z</time>
</trkpt>
<trkpt lat="49.318671924993396" lon="8.039239989593625">
<ele>437.4</ele>
<time>2023-05-18T12:21:02Z</time>
</trkpt>
<trkpt lat="49.31868298910558" lon="8.039194978773594">
<ele>437.6</ele>
<time>2023-05-18T12:21:03Z</time>
</trkpt>
<trkpt lat="49.31869497522712" lon="8.039146950468421">
<ele>437.79999999999995</ele>
<time>2023-05-18T12:21:04Z</time>
</trkpt>
<trkpt lat="49.31870796717703" lon="8.03910294547677">
<ele>438.20000000000005</ele>
<time>2023-05-18T12:21:05Z</time>
</trkpt>
<trkpt lat="49.31872196495533" lon="8.039054917171597">
<ele>438.4</ele>
<time>2023-05-18T12:21:06Z</time>
</trkpt>
<trkpt lat="49.31872992776334" lon="8.039011918008327">
<ele>438.6</ele>
<time>2023-05-18T12:21:07Z</time>
</trkpt>
<trkpt lat="49.31874291971326" lon="8.038969924673438">
<ele>438.79999999999995</ele>
<time>2023-05-18T12:21:08Z</time>
</trkpt>
<trkpt lat="49.318756917491555" lon="8.038921980187297">
<ele>439</ele>
<time>2023-05-18T12:21:09Z</time>
</trkpt>
<trkpt lat="49.31876697577536" lon="8.038877975195646">
<ele>439.4</ele>
<time>2023-05-18T12:21:10Z</time>
</trkpt>
<trkpt lat="49.318774938583374" lon="8.038836987689137">
<ele>439.6</ele>
<time>2023-05-18T12:21:11Z</time>
</trkpt>
<trkpt lat="49.31878793053329" lon="8.038794994354248">
<ele>439.79999999999995</ele>
<time>2023-05-18T12:21:12Z</time>
</trkpt>
<trkpt lat="49.318797988817096" lon="8.038754928857088">
<ele>440</ele>
<time>2023-05-18T12:21:13Z</time>
</trkpt>
<trkpt lat="49.31880695745349" lon="8.03871494717896">
<ele>440.20000000000005</ele>
<time>2023-05-18T12:21:14Z</time>
</trkpt>
<trkpt lat="49.318817937746644" lon="8.038669936358929">
<ele>440.4</ele>
<time>2023-05-18T12:21:15Z</time>
</trkpt>
<trkpt lat="49.31883193552494" lon="8.03862794302404">
<ele>440.6</ele>
<time>2023-05-18T12:21:16Z</time>
</trkpt>
<trkpt lat="49.318844927474856" lon="8.038581926375628">
<ele>440.79999999999995</ele>
<time>2023-05-18T12:21:17Z</time>
</trkpt>
<trkpt lat="49.31885993108153" lon="8.038534987717867">
<ele>441</ele>
<time>2023-05-18T12:21:18Z</time>
</trkpt>
<trkpt lat="49.31887694634497" lon="8.038491988554597">
<ele>441.20000000000005</ele>
<time>2023-05-18T12:21:19Z</time>
</trkpt>
<trkpt lat="49.31889194995165" lon="8.038446977734566">
<ele>441.4</ele>
<time>2023-05-18T12:21:20Z</time>
</trkpt>
<trkpt lat="49.318904941901565" lon="8.038411941379309">
<ele>441.6</ele>
<time>2023-05-18T12:21:21Z</time>
</trkpt>
<trkpt lat="49.31891298852861" lon="8.038377994671464">
<ele>441.79999999999995</ele>
<time>2023-05-18T12:21:22Z</time>
</trkpt>
<trkpt lat="49.318921957165" lon="8.038337929174304">
<ele>442</ele>
<time>2023-05-18T12:21:23Z</time>
</trkpt>
<trkpt lat="49.31893193162978" lon="8.038296941667795">
<ele>442.20000000000005</ele>
<time>2023-05-18T12:21:24Z</time>
</trkpt>
<trkpt lat="49.31893796660006" lon="8.038254948332906">
<ele>442.4</ele>
<time>2023-05-18T12:21:25Z</time>
</trkpt>
<trkpt lat="49.31894299574196" lon="8.03821798413992">
<ele>442.6</ele>
<time>2023-05-18T12:21:26Z</time>
</trkpt>
<trkpt lat="49.318949952721596" lon="8.038189988583326">
<ele>442.79999999999995</ele>
<time>2023-05-18T12:21:27Z</time>
</trkpt>
<trkpt lat="49.31895297020674" lon="8.038157969713211">
<ele>443</ele>
<time>2023-05-18T12:21:28Z</time>
</trkpt>
<trkpt lat="49.31895992718637" lon="8.038119999691844">
<ele>443.20000000000005</ele>
<time>2023-05-18T12:21:29Z</time>
</trkpt>
<trkpt lat="49.318967973813415" lon="8.038079934194684">
<ele>443.4</ele>
<time>2023-05-18T12:21:30Z</time>
</trkpt>
<trkpt lat="49.31897694244981" lon="8.038034923374653">
<ele>443.6</ele>
<time>2023-05-18T12:21:31Z</time>
</trkpt>
<trkpt lat="49.31898297742009" lon="8.037994941696525">
<ele>443.79999999999995</ele>
<time>2023-05-18T12:21:32Z</time>
</trkpt>
<trkpt lat="49.31898792274296" lon="8.037952948361635">
<ele>444</ele>
<time>2023-05-18T12:21:33Z</time>
</trkpt>
<trkpt lat="49.318992951884866" lon="8.03789695724845">
<ele>444.20000000000005</ele>
<time>2023-05-18T12:21:34Z</time>
</trkpt>
<trkpt lat="49.31900192052126" lon="8.037847923114896">
<ele>444.4</ele>
<time>2023-05-18T12:21:35Z</time>
</trkpt>
<trkpt lat="49.31900694966316" lon="8.037797966971993">
<ele>444.4</ele>
<time>2023-05-18T12:21:36Z</time>
</trkpt>
<trkpt lat="49.31901499629021" lon="8.037752956151962">
<ele>444.6</ele>
<time>2023-05-18T12:21:37Z</time>
</trkpt>
<trkpt lat="49.31902497075498" lon="8.03770693950355">
<ele>444.79999999999995</ele>
<time>2023-05-18T12:21:38Z</time>
</trkpt>
<trkpt lat="49.3190379627049" lon="8.037657989189029">
<ele>445</ele>
<time>2023-05-18T12:21:39Z</time>
</trkpt>
<trkpt lat="49.31904793716967" lon="8.037612978368998">
<ele>445.20000000000005</ele>
<time>2023-05-18T12:21:40Z</time>
</trkpt>
<trkpt lat="49.319052966311574" lon="8.03757299669087">
<ele>445.4</ele>
<time>2023-05-18T12:21:41Z</time>
</trkpt>
<trkpt lat="49.31904994882643" lon="8.037531925365329">
<ele>445.4</ele>
<time>2023-05-18T12:21:42Z</time>
</trkpt>
<trkpt lat="49.31904693134129" lon="8.037477945908904">
<ele>445.6</ele>
<time>2023-05-18T12:21:43Z</time>
</trkpt>
<trkpt lat="49.31904198601842" lon="8.037426983937621">
<ele>445.79999999999995</ele>
<time>2023-05-18T12:21:44Z</time>
</trkpt>
<trkpt lat="49.319034945219755" lon="8.03738197311759">
<ele>446</ele>
<time>2023-05-18T12:21:45Z</time>
</trkpt>
<trkpt lat="49.31903192773461" lon="8.037334950640798">
<ele>446</ele>
<time>2023-05-18T12:21:46Z</time>
</trkpt>
<trkpt lat="49.31902497075498" lon="8.03729698061943">
<ele>446.20000000000005</ele>
<time>2023-05-18T12:21:47Z</time>
</trkpt>
<trkpt lat="49.31901994161308" lon="8.0372519697994">
<ele>446.4</ele>
<time>2023-05-18T12:21:48Z</time>
</trkpt>
<trkpt lat="49.31901499629021" lon="8.037211988121271">
<ele>446.6</ele>
<time>2023-05-18T12:21:49Z</time>
</trkpt>
<trkpt lat="49.319009967148304" lon="8.037169994786382">
<ele>446.6</ele>
<time>2023-05-18T12:21:50Z</time>
</trkpt>
<trkpt lat="49.31900795549154" lon="8.037126995623112">
<ele>446.79999999999995</ele>
<time>2023-05-18T12:21:51Z</time>
</trkpt>
<trkpt lat="49.319011978805065" lon="8.037074944004416">
<ele>447</ele>
<time>2023-05-18T12:21:52Z</time>
</trkpt>
<trkpt lat="49.31901499629021" lon="8.03701794706285">
<ele>447.20000000000005</ele>
<time>2023-05-18T12:21:53Z</time>
</trkpt>
<trkpt lat="49.319016924127936" lon="8.036969918757677">
<ele>447.4</ele>
<time>2023-05-18T12:21:54Z</time>
</trkpt>
<trkpt lat="49.31901792995632" lon="8.036926919594407">
<ele>447.6</ele>
<time>2023-05-18T12:21:55Z</time>
</trkpt>
<trkpt lat="49.31902195326984" lon="8.036874951794744">
<ele>447.79999999999995</ele>
<time>2023-05-18T12:21:56Z</time>
</trkpt>
<trkpt lat="49.31902497075498" lon="8.0368219781667">
<ele>448</ele>
<time>2023-05-18T12:21:57Z</time>
</trkpt>
<trkpt lat="49.319029999896884" lon="8.036771938204765">
<ele>448.20000000000005</ele>
<time>2023-05-18T12:21:58Z</time>
</trkpt>
<trkpt lat="49.319029999896884" lon="8.036727933213115">
<ele>448.4</ele>
<time>2023-05-18T12:21:59Z</time>
</trkpt>
<trkpt lat="49.319036956876516" lon="8.036681916564703">
<ele>448.6</ele>
<time>2023-05-18T12:22:00Z</time>
</trkpt>
<trkpt lat="49.31903997436166" lon="8.036641934886575">
<ele>448.79999999999995</ele>
<time>2023-05-18T12:22:01Z</time>
</trkpt>
<trkpt lat="49.31904491968453" lon="8.03660698235035">
<ele>449</ele>
<time>2023-05-18T12:22:02Z</time>
</trkpt>
<trkpt lat="49.3190429918468" lon="8.03656498901546">
<ele>449.20000000000005</ele>
<time>2023-05-18T12:22:03Z</time>
</trkpt>
<trkpt lat="49.31904198601842" lon="8.036527941003442">
<ele>449.4</ele>
<time>2023-05-18T12:22:04Z</time>
</trkpt>
<trkpt lat="49.31903997436166" lon="8.036496927961707">
<ele>449.6</ele>
<time>2023-05-18T12:22:05Z</time>
</trkpt>
<trkpt lat="49.31904198601842" lon="8.036462981253862">
<ele>449.79999999999995</ele>
<time>2023-05-18T12:22:06Z</time>
</trkpt>
<trkpt lat="49.3190379627049" lon="8.036409923806787">
<ele>450</ele>
<time>2023-05-18T12:22:07Z</time>
</trkpt>
<trkpt lat="49.3190379627049" lon="8.036361979320645">
<ele>450.20000000000005</ele>
<time>2023-05-18T12:22:08Z</time>
</trkpt>
<trkpt lat="49.319036956876516" lon="8.036317974328995">
<ele>450.6</ele>
<time>2023-05-18T12:22:09Z</time>
</trkpt>
<trkpt lat="49.319036956876516" lon="8.036272963508964">
<ele>450.79999999999995</ele>
<time>2023-05-18T12:22:10Z</time>
</trkpt>
<trkpt lat="49.31904198601842" lon="8.036231976002455">
<ele>451</ele>
<time>2023-05-18T12:22:11Z</time>
</trkpt>
<trkpt lat="49.31904994882643" lon="8.036184953525662">
<ele>451.20000000000005</ele>
<time>2023-05-18T12:22:12Z</time>
</trkpt>
<trkpt lat="49.319059923291206" lon="8.036131979897618">
<ele>451.4</ele>
<time>2023-05-18T12:22:13Z</time>
</trkpt>
<trkpt lat="49.31906696408987" lon="8.036082945764065">
<ele>451.6</ele>
<time>2023-05-18T12:22:14Z</time>
</trkpt>
<trkpt lat="49.319076938554645" lon="8.036041958257556">
<ele>451.79999999999995</ele>
<time>2023-05-18T12:22:15Z</time>
</trkpt>
<trkpt lat="49.31908993050456" lon="8.035997953265905">
<ele>452</ele>
<time>2023-05-18T12:22:16Z</time>
</trkpt>
<trkpt lat="49.319102922454476" lon="8.035952942445874">
<ele>452.20000000000005</ele>
<time>2023-05-18T12:22:17Z</time>
</trkpt>
<trkpt lat="49.3191119749099" lon="8.035902986302972">
<ele>452.6</ele>
<time>2023-05-18T12:22:18Z</time>
</trkpt>
<trkpt lat="49.319119937717915" lon="8.035867949947715">
<ele>452.79999999999995</ele>
<time>2023-05-18T12:22:19Z</time>
</trkpt>
<trkpt lat="49.31913494132459" lon="8.03583693690598">
<ele>453</ele>
<time>2023-05-18T12:22:20Z</time>
</trkpt>
<trkpt lat="49.31914793327451" lon="8.035796955227852">
<ele>453.20000000000005</ele>
<time>2023-05-18T12:22:21Z</time>
</trkpt>
<trkpt lat="49.319162936881185" lon="8.035744987428188">
<ele>453.4</ele>
<time>2023-05-18T12:22:22Z</time>
</trkpt>
<trkpt lat="49.31917995214462" lon="8.035702994093299">
<ele>453.79999999999995</ele>
<time>2023-05-18T12:22:23Z</time>
</trkpt>
<trkpt lat="49.3191949557513" lon="8.035662928596139">
<ele>454</ele>
<time>2023-05-18T12:22:24Z</time>
</trkpt>
<trkpt lat="49.319207947701216" lon="8.035629987716675">
<ele>454.20000000000005</ele>
<time>2023-05-18T12:22:25Z</time>
</trkpt>
<trkpt lat="49.31921993382275" lon="8.035592939704657">
<ele>454.4</ele>
<time>2023-05-18T12:22:26Z</time>
</trkpt>
<trkpt lat="49.31923493742943" lon="8.035559998825192">
<ele>454.6</ele>
<time>2023-05-18T12:22:27Z</time>
</trkpt>
<trkpt lat="49.31925295852125" lon="8.035527979955077">
<ele>455</ele>
<time>2023-05-18T12:22:28Z</time>
</trkpt>
<trkpt lat="49.319267962127924" lon="8.035496966913342">
<ele>455.20000000000005</ele>
<time>2023-05-18T12:22:29Z</time>
</trkpt>
<trkpt lat="49.3192829657346" lon="8.035451956093311">
<ele>455.4</ele>
<time>2023-05-18T12:22:30Z</time>
</trkpt>
<trkpt lat="49.3193019926548" lon="8.035404933616519">
<ele>455.6</ele>
<time>2023-05-18T12:22:31Z</time>
</trkpt>
<trkpt lat="49.31932194158435" lon="8.03536294028163">
<ele>455.79999999999995</ele>
<time>2023-05-18T12:22:32Z</time>
</trkpt>
<trkpt lat="49.319334933534265" lon="8.035317929461598">
<ele>456</ele>
<time>2023-05-18T12:22:33Z</time>
</trkpt>
<trkpt lat="49.3193519487977" lon="8.035272918641567">
<ele>456.20000000000005</ele>
<time>2023-05-18T12:22:34Z</time>
</trkpt>
<trkpt lat="49.319357983767986" lon="8.035236960276961">
<ele>456.6</ele>
<time>2023-05-18T12:22:35Z</time>
</trkpt>
<trkpt lat="49.31937198154628" lon="8.035201923921704">
<ele>456.79999999999995</ele>
<time>2023-05-18T12:22:36Z</time>
</trkpt>
<trkpt lat="49.31938296183944" lon="8.035162948071957">
<ele>457</ele>
<time>2023-05-18T12:22:37Z</time>
</trkpt>
<trkpt lat="49.319397965446115" lon="8.03512497805059">
<ele>457.20000000000005</ele>
<time>2023-05-18T12:22:38Z</time>
</trkpt>
<trkpt lat="49.319416992366314" lon="8.035084996372461">
<ele>457.4</ele>
<time>2023-05-18T12:22:39Z</time>
</trkpt>
<trkpt lat="49.31943199597299" lon="8.035044930875301">
<ele>457.4</ele>
<time>2023-05-18T12:22:40Z</time>
</trkpt>
<trkpt lat="49.31945194490254" lon="8.035011989995837">
<ele>457.6</ele>
<time>2023-05-18T12:22:41Z</time>
</trkpt>
<trkpt lat="49.31946996599436" lon="8.03497695364058">
<ele>457.79999999999995</ele>
<time>2023-05-18T12:22:42Z</time>
</trkpt>
<trkpt lat="49.31948798708618" lon="8.034936971962452">
<ele>458</ele>
<time>2023-05-18T12:22:43Z</time>
</trkpt>
<trkpt lat="49.319506930187345" lon="8.034897996112704">
<ele>458.20000000000005</ele>
<time>2023-05-18T12:22:44Z</time>
</trkpt>
<trkpt lat="49.319526962935925" lon="8.03486798889935">
<ele>458.4</ele>
<time>2023-05-18T12:22:45Z</time>
</trkpt>
<trkpt lat="49.31954791769385" lon="8.034841921180487">
<ele>458.6</ele>
<time>2023-05-18T12:22:46Z</time>
</trkpt>
<trkpt lat="49.319572979584336" lon="8.034819960594177">
<ele>458.79999999999995</ele>
<time>2023-05-18T12:22:47Z</time>
</trkpt>
<trkpt lat="49.31959795765579" lon="8.034802945330739">
<ele>459</ele>
<time>2023-05-18T12:22:48Z</time>
</trkpt>
<trkpt lat="49.31962796486914" lon="8.034794982522726">
<ele>459.20000000000005</ele>
<time>2023-05-18T12:22:49Z</time>
</trkpt>
<trkpt lat="49.31965193711221" lon="8.034792970865965">
<ele>459.4</ele>
<time>2023-05-18T12:22:50Z</time>
</trkpt>
<trkpt lat="49.31967297568917" lon="8.034801939502358">
<ele>459.4</ele>
<time>2023-05-18T12:22:51Z</time>
</trkpt>
<trkpt lat="49.319697953760624" lon="8.034822978079319">
<ele>459.6</ele>
<time>2023-05-18T12:22:52Z</time>
</trkpt>
<trkpt lat="49.319717986509204" lon="8.03484795615077">
<ele>459.79999999999995</ele>
<time>2023-05-18T12:22:53Z</time>
</trkpt>
<trkpt lat="49.31973692961037" lon="8.03487192839384">
<ele>460</ele>
<time>2023-05-18T12:22:54Z</time>
</trkpt>
<trkpt lat="49.31975696235895" lon="8.034892966970801">
<ele>460.20000000000005</ele>
<time>2023-05-18T12:22:55Z</time>
</trkpt>
<trkpt lat="49.31977791711688" lon="8.034921968355775">
<ele>460.6</ele>
<time>2023-05-18T12:22:56Z</time>
</trkpt>
<trkpt lat="49.31979996152222" lon="8.034949963912368">
<ele>460.79999999999995</ele>
<time>2023-05-18T12:22:57Z</time>
</trkpt>
<trkpt lat="49.3198149651289" lon="8.03497695364058">
<ele>461</ele>
<time>2023-05-18T12:22:58Z</time>
</trkpt>
<trkpt lat="49.31983198039234" lon="8.035011989995837">
<ele>461.4</ele>
<time>2023-05-18T12:22:59Z</time>
</trkpt>
<trkpt lat="49.319847989827394" lon="8.03503998555243">
<ele>461.6</ele>
<time>2023-05-18T12:23:00Z</time>
</trkpt>
<trkpt lat="49.31986793875694" lon="8.035066975280643">
<ele>461.79999999999995</ele>
<time>2023-05-18T12:23:01Z</time>
</trkpt>
<trkpt lat="49.319889983162284" lon="8.035096982493997">
<ele>462.20000000000005</ele>
<time>2023-05-18T12:23:02Z</time>
</trkpt>
<trkpt lat="49.31990993209183" lon="8.03512698970735">
<ele>462.4</ele>
<time>2023-05-18T12:23:03Z</time>
</trkpt>
<trkpt lat="49.31992694735527" lon="8.035159930586815">
<ele>462.6</ele>
<time>2023-05-18T12:23:04Z</time>
</trkpt>
<trkpt lat="49.31994698010385" lon="8.035202929750085">
<ele>462.79999999999995</ele>
<time>2023-05-18T12:23:05Z</time>
</trkpt>
<trkpt lat="49.3199669290334" lon="8.035237966105342">
<ele>463</ele>
<time>2023-05-18T12:23:06Z</time>
</trkpt>
<trkpt lat="49.31999492458999" lon="8.035287922248244">
<ele>463.4</ele>
<time>2023-05-18T12:23:07Z</time>
</trkpt>
<trkpt lat="49.320019986480474" lon="8.035331927239895">
<ele>463.6</ele>
<time>2023-05-18T12:23:08Z</time>
</trkpt>
<trkpt lat="49.320042952895164" lon="8.035367969423532">
<ele>463.79999999999995</ele>
<time>2023-05-18T12:23:09Z</time>
</trkpt>
<trkpt lat="49.320062985643744" lon="8.035402921959758">
<ele>464</ele>
<time>2023-05-18T12:23:10Z</time>
</trkpt>
<trkpt lat="49.32008293457329" lon="8.035441981628537">
<ele>464.20000000000005</ele>
<time>2023-05-18T12:23:11Z</time>
</trkpt>
<trkpt lat="49.320107996463776" lon="8.035476934164762">
<ele>464.4</ele>
<time>2023-05-18T12:23:12Z</time>
</trkpt>
<trkpt lat="49.320129957050085" lon="8.035514988005161">
<ele>464.79999999999995</ele>
<time>2023-05-18T12:23:13Z</time>
</trkpt>
<trkpt lat="49.320152923464775" lon="8.035551952198148">
<ele>465</ele>
<time>2023-05-18T12:23:14Z</time>
</trkpt>
<trkpt lat="49.32016993872821" lon="8.03557793609798">
<ele>465.20000000000005</ele>
<time>2023-05-18T12:23:15Z</time>
</trkpt>
<trkpt lat="49.32018494233489" lon="8.035602997988462">
<ele>465.4</ele>
<time>2023-05-18T12:23:16Z</time>
</trkpt>
<trkpt lat="49.32020195759833" lon="8.035632921382785">
<ele>465.79999999999995</ele>
<time>2023-05-18T12:23:17Z</time>
</trkpt>
<trkpt lat="49.32021997869015" lon="8.035671981051564">
<ele>466</ele>
<time>2023-05-18T12:23:18Z</time>
</trkpt>
<trkpt lat="49.32024696841836" lon="8.035714980214834">
<ele>466.20000000000005</ele>
<time>2023-05-18T12:23:19Z</time>
</trkpt>
<trkpt lat="49.32026691734791" lon="8.035747921094298">
<ele>466.4</ele>
<time>2023-05-18T12:23:20Z</time>
</trkpt>
<trkpt lat="49.32028795592487" lon="8.035779939964414">
<ele>466.6</ele>
<time>2023-05-18T12:23:21Z</time>
</trkpt>
<trkpt lat="49.320302959531546" lon="8.035807935521007">
<ele>466.79999999999995</ele>
<time>2023-05-18T12:23:22Z</time>
</trkpt>
<trkpt lat="49.320319974794984" lon="8.03583794273436">
<ele>467</ele>
<time>2023-05-18T12:23:23Z</time>
</trkpt>
<trkpt lat="49.32033699005842" lon="8.035867949947715">
<ele>467</ele>
<time>2023-05-18T12:23:24Z</time>
</trkpt>
<trkpt lat="49.32036196812987" lon="8.035902986302972">
<ele>467.20000000000005</ele>
<time>2023-05-18T12:23:25Z</time>
</trkpt>
<trkpt lat="49.32037998922169" lon="8.035932993516326">
<ele>467.4</ele>
<time>2023-05-18T12:23:26Z</time>
</trkpt>
<trkpt lat="49.32039499282837" lon="8.0359619949013">
<ele>467.6</ele>
<time>2023-05-18T12:23:27Z</time>
</trkpt>
<trkpt lat="49.320407984778285" lon="8.035991918295622">
<ele>467.79999999999995</ele>
<time>2023-05-18T12:23:28Z</time>
</trkpt>
<trkpt lat="49.320432962849736" lon="8.036039946600795">
<ele>468</ele>
<time>2023-05-18T12:23:29Z</time>
</trkpt>
<trkpt lat="49.320449978113174" lon="8.036074982956052">
<ele>468.20000000000005</ele>
<time>2023-05-18T12:23:30Z</time>
</trkpt>
<trkpt lat="49.32046297006309" lon="8.036112952977419">
<ele>468.4</ele>
<time>2023-05-18T12:23:31Z</time>
</trkpt>
<trkpt lat="49.32047998532653" lon="8.036142960190773">
<ele>468.6</ele>
<time>2023-05-18T12:23:32Z</time>
</trkpt>
<trkpt lat="49.320491971448064" lon="8.036171961575747">
<ele>468.79999999999995</ele>
<time>2023-05-18T12:23:33Z</time>
</trkpt>
<trkpt lat="49.320497922599316" lon="8.036196939647198">
<ele>469</ele>
<time>2023-05-18T12:23:34Z</time>
</trkpt>
<trkpt lat="49.320514937862754" lon="8.036227952688932">
<ele>469.20000000000005</ele>
<time>2023-05-18T12:23:35Z</time>
</trkpt>
<trkpt lat="49.32052994146943" lon="8.036261983215809">
<ele>469.4</ele>
<time>2023-05-18T12:23:36Z</time>
</trkpt>
<trkpt lat="49.32054695673287" lon="8.036282937973738">
<ele>469.6</ele>
<time>2023-05-18T12:23:37Z</time>
</trkpt>
<trkpt lat="49.32056799530983" lon="8.036312945187092">
<ele>469.79999999999995</ele>
<time>2023-05-18T12:23:38Z</time>
</trkpt>
<trkpt lat="49.320581993088126" lon="8.036337923258543">
<ele>470</ele>
<time>2023-05-18T12:23:39Z</time>
</trkpt>
<trkpt lat="49.32059498503804" lon="8.036374971270561">
<ele>470.20000000000005</ele>
<time>2023-05-18T12:23:40Z</time>
</trkpt>
<trkpt lat="49.320622980594635" lon="8.036412941291928">
<ele>470.4</ele>
<time>2023-05-18T12:23:41Z</time>
</trkpt>
<trkpt lat="49.32063999585807" lon="8.036447977647185">
<ele>470.6</ele>
<time>2023-05-18T12:23:42Z</time>
</trkpt>
<trkpt lat="49.32065499946475" lon="8.036476979032159">
<ele>470.79999999999995</ele>
<time>2023-05-18T12:23:43Z</time>
</trkpt>
<trkpt lat="49.320664973929524" lon="8.036509919911623">
<ele>471</ele>
<time>2023-05-18T12:23:44Z</time>
</trkpt>
<trkpt lat="49.32068198919296" lon="8.036539927124977">
<ele>471.20000000000005</ele>
<time>2023-05-18T12:23:45Z</time>
</trkpt>
<trkpt lat="49.32070193812251" lon="8.03656792268157">
<ele>471.4</ele>
<time>2023-05-18T12:23:46Z</time>
</trkpt>
<trkpt lat="49.32072297669947" lon="8.03660698235035">
<ele>471.6</ele>
<time>2023-05-18T12:23:47Z</time>
</trkpt>
<trkpt lat="49.32073697447777" lon="8.036646964028478">
<ele>471.79999999999995</ele>
<time>2023-05-18T12:23:48Z</time>
</trkpt>
<trkpt lat="49.32075499556959" lon="8.036682922393084">
<ele>472</ele>
<time>2023-05-18T12:23:49Z</time>
</trkpt>
<trkpt lat="49.32078299112618" lon="8.036729944869876">
<ele>472.20000000000005</ele>
<time>2023-05-18T12:23:50Z</time>
</trkpt>
<trkpt lat="49.32080796919763" lon="8.03677998483181">
<ele>472.4</ele>
<time>2023-05-18T12:23:51Z</time>
</trkpt>
<trkpt lat="49.32082791812718" lon="8.036812925711274">
<ele>472.6</ele>
<time>2023-05-18T12:23:52Z</time>
</trkpt>
<trkpt lat="49.32084795087576" lon="8.036839999258518">
<ele>472.79999999999995</ele>
<time>2023-05-18T12:23:53Z</time>
</trkpt>
<trkpt lat="49.3208649661392" lon="8.036867994815111">
<ele>473</ele>
<time>2023-05-18T12:23:54Z</time>
</trkpt>
<trkpt lat="49.320881981402636" lon="8.036906970664859">
<ele>473.20000000000005</ele>
<time>2023-05-18T12:23:55Z</time>
</trkpt>
<trkpt lat="49.32089195586741" lon="8.036937983706594">
<ele>473.4</ele>
<time>2023-05-18T12:23:56Z</time>
</trkpt>
<trkpt lat="49.320902936160564" lon="8.036954998970032">
<ele>473.6</ele>
<time>2023-05-18T12:23:57Z</time>
</trkpt>
<trkpt lat="49.32092992588878" lon="8.036996992304921">
<ele>473.79999999999995</ele>
<time>2023-05-18T12:23:58Z</time>
</trkpt>
<trkpt lat="49.32095498777926" lon="8.037029933184385">
<ele>474</ele>
<time>2023-05-18T12:23:59Z</time>
</trkpt>
<trkpt lat="49.32097996585071" lon="8.037064969539642">
<ele>474.20000000000005</ele>
<time>2023-05-18T12:24:00Z</time>
</trkpt>
<trkpt lat="49.3210029322654" lon="8.037097994238138">
<ele>474.20000000000005</ele>
<time>2023-05-18T12:24:01Z</time>
</trkpt>
<trkpt lat="49.3210219591856" lon="8.037131940945983">
<ele>474.4</ele>
<time>2023-05-18T12:24:02Z</time>
</trkpt>
<trkpt lat="49.32103796862066" lon="8.037162953987718">
<ele>474.6</ele>
<time>2023-05-18T12:24:03Z</time>
</trkpt>
<trkpt lat="49.321057917550206" lon="8.037202935665846">
<ele>474.79999999999995</ele>
<time>2023-05-18T12:24:04Z</time>
</trkpt>
<trkpt lat="49.32107292115688" lon="8.037237972021103">
<ele>475</ele>
<time>2023-05-18T12:24:05Z</time>
</trkpt>
<trkpt lat="49.32109194807708" lon="8.037271918728948">
<ele>475.20000000000005</ele>
<time>2023-05-18T12:24:06Z</time>
</trkpt>
<trkpt lat="49.321116926148534" lon="8.037321958690882">
<ele>475.20000000000005</ele>
<time>2023-05-18T12:24:07Z</time>
</trkpt>
<trkpt lat="49.321136958897114" lon="8.037359928712249">
<ele>475.4</ele>
<time>2023-05-18T12:24:08Z</time>
</trkpt>
<trkpt lat="49.321157997474074" lon="8.037399994209409">
<ele>475.6</ele>
<time>2023-05-18T12:24:09Z</time>
</trkpt>
<trkpt lat="49.321181969717145" lon="8.037439975887537">
<ele>475.79999999999995</ele>
<time>2023-05-18T12:24:10Z</time>
</trkpt>
<trkpt lat="49.32120191864669" lon="8.037472916767001">
<ele>476</ele>
<time>2023-05-18T12:24:11Z</time>
</trkpt>
<trkpt lat="49.32121993973851" lon="8.037502923980355">
<ele>476.20000000000005</ele>
<time>2023-05-18T12:24:12Z</time>
</trkpt>
<trkpt lat="49.32123695500195" lon="8.037527985870838">
<ele>476.4</ele>
<time>2023-05-18T12:24:13Z</time>
</trkpt>
<trkpt lat="49.32126293890178" lon="8.037564950063825">
<ele>476.6</ele>
<time>2023-05-18T12:24:14Z</time>
</trkpt>
<trkpt lat="49.32128791697323" lon="8.037604931741953">
<ele>476.6</ele>
<time>2023-05-18T12:24:15Z</time>
</trkpt>
<trkpt lat="49.32130794972181" lon="8.037646925076842">
<ele>476.79999999999995</ele>
<time>2023-05-18T12:24:16Z</time>
</trkpt>
<trkpt lat="49.321334939450026" lon="8.037684978917241">
<ele>477</ele>
<time>2023-05-18T12:24:17Z</time>
</trkpt>
<trkpt lat="49.32136192917824" lon="8.037717919796705">
<ele>477.20000000000005</ele>
<time>2023-05-18T12:24:18Z</time>
</trkpt>
<trkpt lat="49.32138196192682" lon="8.037751950323582">
<ele>477.4</ele>
<time>2023-05-18T12:24:19Z</time>
</trkpt>
<trkpt lat="49.32140291668475" lon="8.037786986678839">
<ele>477.6</ele>
<time>2023-05-18T12:24:20Z</time>
</trkpt>
<trkpt lat="49.32142496109009" lon="8.037821939215064">
<ele>477.6</ele>
<time>2023-05-18T12:24:21Z</time>
</trkpt>
<trkpt lat="49.32144792750478" lon="8.037856975570321">
<ele>477.79999999999995</ele>
<time>2023-05-18T12:24:22Z</time>
</trkpt>
<trkpt lat="49.321464942768216" lon="8.03787692449987">
<ele>478</ele>
<time>2023-05-18T12:24:23Z</time>
</trkpt>
<trkpt lat="49.321482963860035" lon="8.037912966683507">
<ele>478.4</ele>
<time>2023-05-18T12:24:24Z</time>
</trkpt>
<trkpt lat="49.321504924446344" lon="8.037961916998029">
<ele>478.6</ele>
<time>2023-05-18T12:24:25Z</time>
</trkpt>
<trkpt lat="49.321527974680066" lon="8.03800499998033">
<ele>478.79999999999995</ele>
<time>2023-05-18T12:24:26Z</time>
</trkpt>
<trkpt lat="49.321546917781234" lon="8.038044981658459">
<ele>479</ele>
<time>2023-05-18T12:24:27Z</time>
</trkpt>
<trkpt lat="49.32156192138791" lon="8.038086974993348">
<ele>479.4</ele>
<time>2023-05-18T12:24:28Z</time>
</trkpt>
<trkpt lat="49.32157994247973" lon="8.038129974156618">
<ele>479.6</ele>
<time>2023-05-18T12:24:29Z</time>
</trkpt>
<trkpt lat="49.32160299271345" lon="8.03817498497665">
<ele>479.79999999999995</ele>
<time>2023-05-18T12:24:30Z</time>
</trkpt>
<trkpt lat="49.321622941643" lon="8.03822192363441">
<ele>480.20000000000005</ele>
<time>2023-05-18T12:24:31Z</time>
</trkpt>
<trkpt lat="49.32164297439158" lon="8.038257965818048">
<ele>480.4</ele>
<time>2023-05-18T12:24:32Z</time>
</trkpt>
<trkpt lat="49.32165797799826" lon="8.038294930011034">
<ele>480.6</ele>
<time>2023-05-18T12:24:33Z</time>
</trkpt>
<trkpt lat="49.321674993261695" lon="8.038331978023052">
<ele>480.79999999999995</ele>
<time>2023-05-18T12:24:34Z</time>
</trkpt>
<trkpt lat="49.3216919247061" lon="8.038367936387658">
<ele>481</ele>
<time>2023-05-18T12:24:35Z</time>
</trkpt>
<trkpt lat="49.32170692831278" lon="8.03839492611587">
<ele>481.20000000000005</ele>
<time>2023-05-18T12:24:36Z</time>
</trkpt>
<trkpt lat="49.321722937747836" lon="8.03843297995627">
<ele>481.4</ele>
<time>2023-05-18T12:24:37Z</time>
</trkpt>
<trkpt lat="49.32173299603164" lon="8.038471955806017">
<ele>481.6</ele>
<time>2023-05-18T12:24:38Z</time>
</trkpt>
<trkpt lat="49.32174498215318" lon="8.038509925827384">
<ele>481.79999999999995</ele>
<time>2023-05-18T12:24:39Z</time>
</trkpt>
<trkpt lat="49.321764931082726" lon="8.038546973839402">
<ele>482</ele>
<time>2023-05-18T12:24:40Z</time>
</trkpt>
<trkpt lat="49.321781946346164" lon="8.038579998537898">
<ele>482.20000000000005</ele>
<time>2023-05-18T12:24:41Z</time>
</trkpt>
<trkpt lat="49.32179996743798" lon="8.038616962730885">
<ele>482.4</ele>
<time>2023-05-18T12:24:42Z</time>
</trkpt>
<trkpt lat="49.3218179885298" lon="8.038654932752252">
<ele>482.79999999999995</ele>
<time>2023-05-18T12:24:43Z</time>
</trkpt>
<trkpt lat="49.32183491997421" lon="8.038689969107509">
<ele>483</ele>
<time>2023-05-18T12:24:44Z</time>
</trkpt>
<trkpt lat="49.321849923580885" lon="8.038731962442398">
<ele>483.20000000000005</ele>
<time>2023-05-18T12:24:45Z</time>
</trkpt>
<trkpt lat="49.321869956329465" lon="8.038779990747571">
<ele>483.4</ele>
<time>2023-05-18T12:24:46Z</time>
</trkpt>
<trkpt lat="49.3218869715929" lon="8.038822989910841">
<ele>483.6</ele>
<time>2023-05-18T12:24:47Z</time>
</trkpt>
<trkpt lat="49.32190197519958" lon="8.038869928568602">
<ele>483.79999999999995</ele>
<time>2023-05-18T12:24:48Z</time>
</trkpt>
<trkpt lat="49.32191697880626" lon="8.038914939388633">
<ele>484</ele>
<time>2023-05-18T12:24:49Z</time>
</trkpt>
<trkpt lat="49.32192695327103" lon="8.038952993229032">
<ele>484</ele>
<time>2023-05-18T12:24:50Z</time>
</trkpt>
<trkpt lat="49.321936927735806" lon="8.038994986563921">
<ele>484.20000000000005</ele>
<time>2023-05-18T12:24:51Z</time>
</trkpt>
<trkpt lat="49.32194698601961" lon="8.039039997383952">
<ele>484.4</ele>
<time>2023-05-18T12:24:52Z</time>
</trkpt>
<trkpt lat="49.32195193134248" lon="8.03907796740532">
<ele>484.6</ele>
<time>2023-05-18T12:24:53Z</time>
</trkpt>
<trkpt lat="49.32195997796953" lon="8.039112919941545">
<ele>484.79999999999995</ele>
<time>2023-05-18T12:24:54Z</time>
</trkpt>
<trkpt lat="49.32196693494916" lon="8.039147956296802">
<ele>485</ele>
<time>2023-05-18T12:24:55Z</time>
</trkpt>
<trkpt lat="49.321977999061346" lon="8.039191961288452">
<ele>485.20000000000005</ele>
<time>2023-05-18T12:24:56Z</time>
</trkpt>
<trkpt lat="49.32199199683964" lon="8.039227919653058">
<ele>485.4</ele>
<time>2023-05-18T12:24:57Z</time>
</trkpt>
<trkpt lat="49.321999959647655" lon="8.03927293047309">
<ele>485.6</ele>
<time>2023-05-18T12:24:58Z</time>
</trkpt>
<trkpt lat="49.32200691662729" lon="8.039314923807979">
<ele>485.79999999999995</ele>
<time>2023-05-18T12:24:59Z</time>
</trkpt>
<trkpt lat="49.32201194576919" lon="8.039374938234687">
<ele>486</ele>
<time>2023-05-18T12:25:00Z</time>
</trkpt>
<trkpt lat="49.32201295159757" lon="8.039424978196621">
<ele>486.20000000000005</ele>
<time>2023-05-18T12:25:01Z</time>
</trkpt>
<trkpt lat="49.322019992396235" lon="8.039471916854382">
<ele>486.4</ele>
<time>2023-05-18T12:25:02Z</time>
</trkpt>
<trkpt lat="49.32203197851777" lon="8.039519945159554">
<ele>486.6</ele>
<time>2023-05-18T12:25:03Z</time>
</trkpt>
<trkpt lat="49.32203792966902" lon="8.03955196402967">
<ele>486.79999999999995</ele>
<time>2023-05-18T12:25:04Z</time>
</trkpt>
<trkpt lat="49.322039941325784" lon="8.039576942101121">
<ele>487</ele>
<time>2023-05-18T12:25:05Z</time>
</trkpt>
<trkpt lat="49.322042958810925" lon="8.03961499594152">
<ele>487.4</ele>
<time>2023-05-18T12:25:06Z</time>
</trkpt>
<trkpt lat="49.32205494493246" lon="8.039662940427661">
<ele>487.6</ele>
<time>2023-05-18T12:25:07Z</time>
</trkpt>
<trkpt lat="49.322066931053996" lon="8.03972295485437">
<ele>487.6</ele>
<time>2023-05-18T12:25:08Z</time>
</trkpt>
<trkpt lat="49.3220719601959" lon="8.039776934310794">
<ele>487.79999999999995</ele>
<time>2023-05-18T12:25:09Z</time>
</trkpt>
<trkpt lat="49.32207799516618" lon="8.039824962615967">
<ele>488</ele>
<time>2023-05-18T12:25:10Z</time>
</trkpt>
<trkpt lat="49.32208193466067" lon="8.039856981486082">
<ele>488.20000000000005</ele>
<time>2023-05-18T12:25:11Z</time>
</trkpt>
<trkpt lat="49.32208998128772" lon="8.039892939850688">
<ele>488.4</ele>
<time>2023-05-18T12:25:12Z</time>
</trkpt>
<trkpt lat="49.32209794409573" lon="8.039941973984241">
<ele>488.6</ele>
<time>2023-05-18T12:25:13Z</time>
</trkpt>
<trkpt lat="49.322109930217266" lon="8.039991930127144">
<ele>488.79999999999995</ele>
<time>2023-05-18T12:25:14Z</time>
</trkpt>
<trkpt lat="49.32211797684431" lon="8.040037946775556">
<ele>489</ele>
<time>2023-05-18T12:25:15Z</time>
</trkpt>
<trkpt lat="49.322127951309085" lon="8.040082957595587">
<ele>489.20000000000005</ele>
<time>2023-05-18T12:25:16Z</time>
</trkpt>
<trkpt lat="49.32214194908738" lon="8.04013299755752">
<ele>489.4</ele>
<time>2023-05-18T12:25:17Z</time>
</trkpt>
<trkpt lat="49.322147984057665" lon="8.040192928165197">
<ele>489.6</ele>
<time>2023-05-18T12:25:18Z</time>
</trkpt>
<trkpt lat="49.322149995714426" lon="8.040229976177216">
<ele>489.79999999999995</ele>
<time>2023-05-18T12:25:19Z</time>
</trkpt>
<trkpt lat="49.322152929380536" lon="8.040272975340486">
<ele>490.20000000000005</ele>
<time>2023-05-18T12:25:20Z</time>
</trkpt>
<trkpt lat="49.3221599701792" lon="8.040319997817278">
<ele>490.4</ele>
<time>2023-05-18T12:25:21Z</time>
</trkpt>
<trkpt lat="49.32216692715883" lon="8.04036794230342">
<ele>490.6</ele>
<time>2023-05-18T12:25:22Z</time>
</trkpt>
<trkpt lat="49.32217497378588" lon="8.040427956730127">
<ele>490.79999999999995</ele>
<time>2023-05-18T12:25:23Z</time>
</trkpt>
<trkpt lat="49.32217497378588" lon="8.040481936186552">
<ele>491</ele>
<time>2023-05-18T12:25:24Z</time>
</trkpt>
<trkpt lat="49.322172962129116" lon="8.04054195061326">
<ele>491.20000000000005</ele>
<time>2023-05-18T12:25:25Z</time>
</trkpt>
<trkpt lat="49.32217497378588" lon="8.04060791619122">
<ele>491.6</ele>
<time>2023-05-18T12:25:26Z</time>
</trkpt>
<trkpt lat="49.322172962129116" lon="8.040661979466677">
<ele>491.79999999999995</ele>
<time>2023-05-18T12:25:27Z</time>
</trkpt>
<trkpt lat="49.322172962129116" lon="8.040709923952818">
<ele>492</ele>
<time>2023-05-18T12:25:28Z</time>
</trkpt>
<trkpt lat="49.322171956300735" lon="8.04075694642961">
<ele>492.20000000000005</ele>
<time>2023-05-18T12:25:29Z</time>
</trkpt>
<trkpt lat="49.32216793298721" lon="8.040801957249641">
<ele>492.4</ele>
<time>2023-05-18T12:25:30Z</time>
</trkpt>
<trkpt lat="49.322171956300735" lon="8.04084294475615">
<ele>492.6</ele>
<time>2023-05-18T12:25:31Z</time>
</trkpt>
<trkpt lat="49.32217497378588" lon="8.0408869497478">
<ele>493</ele>
<time>2023-05-18T12:25:32Z</time>
</trkpt>
<trkpt lat="49.322172962129116" lon="8.040924919769168">
<ele>493.20000000000005</ele>
<time>2023-05-18T12:25:33Z</time>
</trkpt>
<trkpt lat="49.322171956300735" lon="8.040951993316412">
<ele>493.4</ele>
<time>2023-05-18T12:25:34Z</time>
</trkpt>
<trkpt lat="49.322171956300735" lon="8.040984934195876">
<ele>493.6</ele>
<time>2023-05-18T12:25:35Z</time>
</trkpt>
<trkpt lat="49.322171956300735" lon="8.041021982207894">
<ele>494</ele>
<time>2023-05-18T12:25:36Z</time>
</trkpt>
<trkpt lat="49.32216793298721" lon="8.041066993027925">
<ele>494.20000000000005</ele>
<time>2023-05-18T12:25:37Z</time>
</trkpt>
<trkpt lat="49.32216692715883" lon="8.041114937514067">
<ele>494.4</ele>
<time>2023-05-18T12:25:38Z</time>
</trkpt>
<trkpt lat="49.32216793298721" lon="8.041154919192195">
<ele>494.79999999999995</ele>
<time>2023-05-18T12:25:39Z</time>
</trkpt>
<trkpt lat="49.32216692715883" lon="8.04118794389069">
<ele>495</ele>
<time>2023-05-18T12:25:40Z</time>
</trkpt>
<trkpt lat="49.32215695269406" lon="8.04122993722558">
<ele>495.20000000000005</ele>
<time>2023-05-18T12:25:41Z</time>
</trkpt>
<trkpt lat="49.322152929380536" lon="8.041274948045611">
<ele>495.4</ele>
<time>2023-05-18T12:25:42Z</time>
</trkpt>
<trkpt lat="49.322151923552155" lon="8.041322976350784">
<ele>495.6</ele>
<time>2023-05-18T12:25:43Z</time>
</trkpt>
<trkpt lat="49.322146978229284" lon="8.041361952200532">
<ele>496</ele>
<time>2023-05-18T12:25:44Z</time>
</trkpt>
<trkpt lat="49.322146978229284" lon="8.041394976899028">
<ele>496.20000000000005</ele>
<time>2023-05-18T12:25:45Z</time>
</trkpt>
<trkpt lat="49.32214295491576" lon="8.041427917778492">
<ele>496.4</ele>
<time>2023-05-18T12:25:46Z</time>
</trkpt>
<trkpt lat="49.32214194908738" lon="8.041466977447271">
<ele>496.6</ele>
<time>2023-05-18T12:25:47Z</time>
</trkpt>
<trkpt lat="49.32213993743062" lon="8.041517939418554">
<ele>496.79999999999995</ele>
<time>2023-05-18T12:25:48Z</time>
</trkpt>
<trkpt lat="49.32213792577386" lon="8.041566973552108">
<ele>497</ele>
<time>2023-05-18T12:25:49Z</time>
</trkpt>
<trkpt lat="49.32213993743062" lon="8.041621958836913">
<ele>497.20000000000005</ele>
<time>2023-05-18T12:25:50Z</time>
</trkpt>
<trkpt lat="49.32213993743062" lon="8.041677949950099">
<ele>497.4</ele>
<time>2023-05-18T12:25:51Z</time>
</trkpt>
<trkpt lat="49.32213792577386" lon="8.041729917749763">
<ele>497.6</ele>
<time>2023-05-18T12:25:52Z</time>
</trkpt>
<trkpt lat="49.32213499210775" lon="8.041774928569794">
<ele>497.79999999999995</ele>
<time>2023-05-18T12:25:53Z</time>
</trkpt>
<trkpt lat="49.32212493382394" lon="8.041817927733064">
<ele>498</ele>
<time>2023-05-18T12:25:54Z</time>
</trkpt>
<trkpt lat="49.32211998850107" lon="8.041859921067953">
<ele>498.20000000000005</ele>
<time>2023-05-18T12:25:55Z</time>
</trkpt>
<trkpt lat="49.32211797684431" lon="8.041907949373126">
<ele>498.4</ele>
<time>2023-05-18T12:25:56Z</time>
</trkpt>
<trkpt lat="49.32211697101593" lon="8.041951954364777">
<ele>498.6</ele>
<time>2023-05-18T12:25:57Z</time>
</trkpt>
<trkpt lat="49.322109930217266" lon="8.041992941871285">
<ele>498.79999999999995</ele>
<time>2023-05-18T12:25:58Z</time>
</trkpt>
<trkpt lat="49.32209693826735" lon="8.042027978226542">
<ele>499</ele>
<time>2023-05-18T12:25:59Z</time>
</trkpt>
<trkpt lat="49.32208193466067" lon="8.042059997096658">
<ele>499.20000000000005</ele>
<time>2023-05-18T12:26:00Z</time>
</trkpt>
<trkpt lat="49.32207296602428" lon="8.04208799265325">
<ele>499.4</ele>
<time>2023-05-18T12:26:01Z</time>
</trkpt>
<trkpt lat="49.322066931053996" lon="8.042122945189476">
<ele>499.6</ele>
<time>2023-05-18T12:26:02Z</time>
</trkpt>
<trkpt lat="49.3220579624176" lon="8.042154964059591">
<ele>500</ele>
<time>2023-05-18T12:26:03Z</time>
</trkpt>
<trkpt lat="49.32204698212445" lon="8.042201986536384">
<ele>500.20000000000005</ele>
<time>2023-05-18T12:26:04Z</time>
</trkpt>
<trkpt lat="49.32203499600291" lon="8.042249931022525">
<ele>500.4</ele>
<time>2023-05-18T12:26:05Z</time>
</trkpt>
<trkpt lat="49.32202996686101" lon="8.0423029884696">
<ele>500.6</ele>
<time>2023-05-18T12:26:06Z</time>
</trkpt>
<trkpt lat="49.322021920233965" lon="8.042349927127361">
<ele>500.79999999999995</ele>
<time>2023-05-18T12:26:07Z</time>
</trkpt>
<trkpt lat="49.322016974911094" lon="8.042402984574437">
<ele>501</ele>
<time>2023-05-18T12:26:08Z</time>
</trkpt>
<trkpt lat="49.32200792245567" lon="8.042442966252565">
<ele>501.4</ele>
<time>2023-05-18T12:26:09Z</time>
</trkpt>
<trkpt lat="49.321997947990894" lon="8.04247791878879">
<ele>501.6</ele>
<time>2023-05-18T12:26:10Z</time>
</trkpt>
<trkpt lat="49.32199199683964" lon="8.042509937658906">
<ele>501.79999999999995</ele>
<time>2023-05-18T12:26:11Z</time>
</trkpt>
<trkpt lat="49.32198495604098" lon="8.042544974014163">
<ele>502.20000000000005</ele>
<time>2023-05-18T12:26:12Z</time>
</trkpt>
<trkpt lat="49.32198294438422" lon="8.042574981227517">
<ele>502.4</ele>
<time>2023-05-18T12:26:13Z</time>
</trkpt>
<trkpt lat="49.32198193855584" lon="8.042621919885278">
<ele>502.6</ele>
<time>2023-05-18T12:26:14Z</time>
</trkpt>
<trkpt lat="49.321974981576204" lon="8.042657962068915">
<ele>502.79999999999995</ele>
<time>2023-05-18T12:26:15Z</time>
</trkpt>
<trkpt lat="49.32196299545467" lon="8.042706996202469">
<ele>503.20000000000005</ele>
<time>2023-05-18T12:26:16Z</time>
</trkpt>
<trkpt lat="49.321954948827624" lon="8.04275494068861">
<ele>503.4</ele>
<time>2023-05-18T12:26:17Z</time>
</trkpt>
<trkpt lat="49.32194296270609" lon="8.042799951508641">
<ele>503.6</ele>
<time>2023-05-18T12:26:18Z</time>
</trkpt>
<trkpt lat="49.321936927735806" lon="8.042844962328672">
<ele>503.79999999999995</ele>
<time>2023-05-18T12:26:19Z</time>
</trkpt>
<trkpt lat="49.32192695327103" lon="8.04288293235004">
<ele>504</ele>
<time>2023-05-18T12:26:20Z</time>
</trkpt>
<trkpt lat="49.32191798463464" lon="8.042919980362058">
<ele>504.20000000000005</ele>
<time>2023-05-18T12:26:21Z</time>
</trkpt>
<trkpt lat="49.32190993800759" lon="8.042966919019818">
<ele>504.4</ele>
<time>2023-05-18T12:26:22Z</time>
</trkpt>
<trkpt lat="49.32189694605768" lon="8.043009918183088">
<ele>504.79999999999995</ele>
<time>2023-05-18T12:26:23Z</time>
</trkpt>
<trkpt lat="49.321881942451" lon="8.04305199533701">
<ele>505</ele>
<time>2023-05-18T12:26:24Z</time>
</trkpt>
<trkpt lat="49.321867944672704" lon="8.043102957308292">
<ele>505.20000000000005</ele>
<time>2023-05-18T12:26:25Z</time>
</trkpt>
<trkpt lat="49.32185696437955" lon="8.043154925107956">
<ele>505.4</ele>
<time>2023-05-18T12:26:26Z</time>
</trkpt>
<trkpt lat="49.321849923580885" lon="8.043201947584748">
<ele>505.6</ele>
<time>2023-05-18T12:26:27Z</time>
</trkpt>
<trkpt lat="49.32184296660125" lon="8.043239917606115">
<ele>505.79999999999995</ele>
<time>2023-05-18T12:26:28Z</time>
</trkpt>
<trkpt lat="49.32183299213648" lon="8.043286940082908">
<ele>506</ele>
<time>2023-05-18T12:26:29Z</time>
</trkpt>
<trkpt lat="49.321826957166195" lon="8.04333295673132">
<ele>506.4</ele>
<time>2023-05-18T12:26:30Z</time>
</trkpt>
<trkpt lat="49.3218179885298" lon="8.04337696172297">
<ele>506.6</ele>
<time>2023-05-18T12:26:31Z</time>
</trkpt>
<trkpt lat="49.32180994190276" lon="8.043426917865872">
<ele>506.79999999999995</ele>
<time>2023-05-18T12:26:32Z</time>
</trkpt>
<trkpt lat="49.321801979094744" lon="8.043464971706271">
<ele>507</ele>
<time>2023-05-18T12:26:33Z</time>
</trkpt>
<trkpt lat="49.32179694995284" lon="8.043497996404767">
<ele>507.20000000000005</ele>
<time>2023-05-18T12:26:34Z</time>
</trkpt>
<trkpt lat="49.32178798131645" lon="8.043532948940992">
<ele>507.4</ele>
<time>2023-05-18T12:26:35Z</time>
</trkpt>
<trkpt lat="49.321781946346164" lon="8.04356798529625">
<ele>507.6</ele>
<time>2023-05-18T12:26:36Z</time>
</trkpt>
<trkpt lat="49.3217799346894" lon="8.043616935610771">
<ele>507.79999999999995</ele>
<time>2023-05-18T12:26:37Z</time>
</trkpt>
<trkpt lat="49.32177498936653" lon="8.04365792311728">
<ele>508</ele>
<time>2023-05-18T12:26:38Z</time>
</trkpt>
<trkpt lat="49.32177197188139" lon="8.043707963079214">
<ele>508.20000000000005</ele>
<time>2023-05-18T12:26:39Z</time>
</trkpt>
<trkpt lat="49.32176694273949" lon="8.043759930878878">
<ele>508.4</ele>
<time>2023-05-18T12:26:40Z</time>
</trkpt>
<trkpt lat="49.321761997416615" lon="8.043799996376038">
<ele>508.6</ele>
<time>2023-05-18T12:26:41Z</time>
</trkpt>
<trkpt lat="49.32175797410309" lon="8.043844923377037">
<ele>508.79999999999995</ele>
<time>2023-05-18T12:26:42Z</time>
</trkpt>
<trkpt lat="49.32175193913281" lon="8.043899992480874">
<ele>509</ele>
<time>2023-05-18T12:26:43Z</time>
</trkpt>
<trkpt lat="49.32174699380994" lon="8.04395497776568">
<ele>509.20000000000005</ele>
<time>2023-05-18T12:26:44Z</time>
</trkpt>
<trkpt lat="49.32174799963832" lon="8.044011974707246">
<ele>509.4</ele>
<time>2023-05-18T12:26:45Z</time>
</trkpt>
<trkpt lat="49.32174799963832" lon="8.044062936678529">
<ele>509.6</ele>
<time>2023-05-18T12:26:46Z</time>
</trkpt>
<trkpt lat="49.32174699380994" lon="8.044111970812082">
<ele>509.79999999999995</ele>
<time>2023-05-18T12:26:47Z</time>
</trkpt>
<trkpt lat="49.321742970496416" lon="8.04416997358203">
<ele>510</ele>
<time>2023-05-18T12:26:48Z</time>
</trkpt>
<trkpt lat="49.321741964668036" lon="8.044231999665499">
<ele>510.20000000000005</ele>
<time>2023-05-18T12:26:49Z</time>
</trkpt>
<trkpt lat="49.321742970496416" lon="8.04427994415164">
<ele>510.4</ele>
<time>2023-05-18T12:26:50Z</time>
</trkpt>
<trkpt lat="49.32173794135451" lon="8.044326966628432">
<ele>510.6</ele>
<time>2023-05-18T12:26:51Z</time>
</trkpt>
<trkpt lat="49.32173299603164" lon="8.044371977448463">
<ele>510.79999999999995</ele>
<time>2023-05-18T12:26:52Z</time>
</trkpt>
<trkpt lat="49.32172696106136" lon="8.044416988268495">
<ele>511</ele>
<time>2023-05-18T12:26:53Z</time>
</trkpt>
<trkpt lat="49.321719920262694" lon="8.044456969946623">
<ele>511.20000000000005</ele>
<time>2023-05-18T12:26:54Z</time>
</trkpt>
<trkpt lat="49.32171296328306" lon="8.044496951624751">
<ele>511.4</ele>
<time>2023-05-18T12:26:55Z</time>
</trkpt>
<trkpt lat="49.32170692831278" lon="8.04453693330288">
<ele>511.6</ele>
<time>2023-05-18T12:26:56Z</time>
</trkpt>
<trkpt lat="49.32170491665602" lon="8.044569958001375">
<ele>511.79999999999995</ele>
<time>2023-05-18T12:26:57Z</time>
</trkpt>
<trkpt lat="49.32170692831278" lon="8.044607928022742">
<ele>512</ele>
<time>2023-05-18T12:26:58Z</time>
</trkpt>
<trkpt lat="49.32170491665602" lon="8.044651933014393">
<ele>512.2</ele>
<time>2023-05-18T12:26:59Z</time>
</trkpt>
<trkpt lat="49.32170198298991" lon="8.044692920520902">
<ele>512.4</ele>
<time>2023-05-18T12:27:00Z</time>
</trkpt>
<trkpt lat="49.32170298881829" lon="8.044736925512552">
<ele>512.6</ele>
<time>2023-05-18T12:27:01Z</time>
</trkpt>
<trkpt lat="49.32170793414116" lon="8.044786965474486">
<ele>512.8</ele>
<time>2023-05-18T12:27:02Z</time>
</trkpt>
<trkpt lat="49.32170692831278" lon="8.044822923839092">
<ele>513</ele>
<time>2023-05-18T12:27:03Z</time>
</trkpt>
<trkpt lat="49.32170793414116" lon="8.044869946315885">
<ele>513.2</ele>
<time>2023-05-18T12:27:04Z</time>
</trkpt>
<trkpt lat="49.32170491665602" lon="8.044916968792677">
<ele>513.4</ele>
<time>2023-05-18T12:27:05Z</time>
</trkpt>
<trkpt lat="49.32170491665602" lon="8.044949993491173">
<ele>513.6</ele>
<time>2023-05-18T12:27:06Z</time>
</trkpt>
<trkpt lat="49.32170692831278" lon="8.044981928542256">
<ele>513.6</ele>
<time>2023-05-18T12:27:07Z</time>
</trkpt>
<trkpt lat="49.32170298881829" lon="8.04501193575561">
<ele>513.8</ele>
<time>2023-05-18T12:27:08Z</time>
</trkpt>
<trkpt lat="49.32170198298991" lon="8.045039931312203">
<ele>514</ele>
<time>2023-05-18T12:27:09Z</time>
</trkpt>
<trkpt lat="49.32170198298991" lon="8.045079996809363">
<ele>514.2</ele>
<time>2023-05-18T12:27:10Z</time>
</trkpt>
<trkpt lat="49.32170198298991" lon="8.04511696100235">
<ele>514.4</ele>
<time>2023-05-18T12:27:11Z</time>
</trkpt>
<trkpt lat="49.32170298881829" lon="8.045164989307523">
<ele>514.6</ele>
<time>2023-05-18T12:27:12Z</time>
</trkpt>
<trkpt lat="49.321697959676385" lon="8.045212933793664">
<ele>514.8</ele>
<time>2023-05-18T12:27:13Z</time>
</trkpt>
<trkpt lat="49.32169293053448" lon="8.045256938785315">
<ele>515</ele>
<time>2023-05-18T12:27:14Z</time>
</trkpt>
<trkpt lat="49.321697959676385" lon="8.045319970697165">
<ele>515.2</ele>
<time>2023-05-18T12:27:15Z</time>
</trkpt>
<trkpt lat="49.321697959676385" lon="8.045364981517196">
<ele>515.4</ele>
<time>2023-05-18T12:27:16Z</time>
</trkpt>
<trkpt lat="49.321697959676385" lon="8.045409992337227">
<ele>515.6</ele>
<time>2023-05-18T12:27:17Z</time>
</trkpt>
<trkpt lat="49.32169494219124" lon="8.045446956530213">
<ele>515.8</ele>
<time>2023-05-18T12:27:18Z</time>
</trkpt>
<trkpt lat="49.321697959676385" lon="8.045491967350245">
<ele>516</ele>
<time>2023-05-18T12:27:19Z</time>
</trkpt>
<trkpt lat="49.32170198298991" lon="8.04554795846343">
<ele>516.2</ele>
<time>2023-05-18T12:27:20Z</time>
</trkpt>
<trkpt lat="49.32170298881829" lon="8.045594980940223">
<ele>516.4</ele>
<time>2023-05-18T12:27:21Z</time>
</trkpt>
<trkpt lat="49.321696953848004" lon="8.045627921819687">
<ele>516.6</ele>
<time>2023-05-18T12:27:22Z</time>
</trkpt>
<trkpt lat="49.32168999686837" lon="8.045677961781621">
<ele>516.8</ele>
<time>2023-05-18T12:27:23Z</time>
</trkpt>
<trkpt lat="49.3216919247061" lon="8.045722972601652">
<ele>517</ele>
<time>2023-05-18T12:27:24Z</time>
</trkpt>
<trkpt lat="49.32169494219124" lon="8.045774940401316">
<ele>517.2</ele>
<time>2023-05-18T12:27:25Z</time>
</trkpt>
<trkpt lat="49.3216919247061" lon="8.045822968706489">
<ele>517.4</ele>
<time>2023-05-18T12:27:26Z</time>
</trkpt>
<trkpt lat="49.32168295606971" lon="8.045874936506152">
<ele>517.6</ele>
<time>2023-05-18T12:27:27Z</time>
</trkpt>
<trkpt lat="49.321677926927805" lon="8.045919947326183">
<ele>517.8</ele>
<time>2023-05-18T12:27:28Z</time>
</trkpt>
<trkpt lat="49.321676921099424" lon="8.045962946489453">
<ele>518</ele>
<time>2023-05-18T12:27:29Z</time>
</trkpt>
<trkpt lat="49.321672981604934" lon="8.046009968966246">
<ele>518.2</ele>
<time>2023-05-18T12:27:30Z</time>
</trkpt>
<trkpt lat="49.32166996411979" lon="8.046052968129516">
<ele>518.4</ele>
<time>2023-05-18T12:27:31Z</time>
</trkpt>
<trkpt lat="49.321672981604934" lon="8.046102924272418">
<ele>518.6</ele>
<time>2023-05-18T12:27:32Z</time>
</trkpt>
<trkpt lat="49.32166694663465" lon="8.046141983941197">
<ele>518.8</ele>
<time>2023-05-18T12:27:33Z</time>
</trkpt>
<trkpt lat="49.32166292332113" lon="8.046171991154552">
<ele>519</ele>
<time>2023-05-18T12:27:34Z</time>
</trkpt>
<trkpt lat="49.32166191749275" lon="8.046204932034016">
<ele>519.2</ele>
<time>2023-05-18T12:27:35Z</time>
</trkpt>
<trkpt lat="49.32165998965502" lon="8.046239968389273">
<ele>519.4</ele>
<time>2023-05-18T12:27:36Z</time>
</trkpt>
<trkpt lat="49.321654960513115" lon="8.046272993087769">
<ele>519.6</ele>
<time>2023-05-18T12:27:37Z</time>
</trkpt>
<trkpt lat="49.321654960513115" lon="8.046314986422658">
<ele>519.8</ele>
<time>2023-05-18T12:27:38Z</time>
</trkpt>
<trkpt lat="49.321656972169876" lon="8.046351950615644">
<ele>520</ele>
<time>2023-05-18T12:27:39Z</time>
</trkpt>
<trkpt lat="49.321652948856354" lon="8.046399978920817">
<ele>520.2</ele>
<time>2023-05-18T12:27:40Z</time>
</trkpt>
<trkpt lat="49.32164993137121" lon="8.046444989740849">
<ele>520.4</ele>
<time>2023-05-18T12:27:41Z</time>
</trkpt>
<trkpt lat="49.32164498604834" lon="8.046479942277074">
<ele>520.8</ele>
<time>2023-05-18T12:27:42Z</time>
</trkpt>
<trkpt lat="49.32163995690644" lon="8.04653299972415">
<ele>521</ele>
<time>2023-05-18T12:27:43Z</time>
</trkpt>
<trkpt lat="49.32164297439158" lon="8.04657993838191">
<ele>521.2</ele>
<time>2023-05-18T12:27:44Z</time>
</trkpt>
<trkpt lat="49.32164498604834" lon="8.046637941151857">
<ele>521.4</ele>
<time>2023-05-18T12:27:45Z</time>
</trkpt>
<trkpt lat="49.32164297439158" lon="8.046691920608282">
<ele>521.6</ele>
<time>2023-05-18T12:27:46Z</time>
</trkpt>
<trkpt lat="49.32163995690644" lon="8.046756964176893">
<ele>521.8</ele>
<time>2023-05-18T12:27:47Z</time>
</trkpt>
<trkpt lat="49.32163794524968" lon="8.046804992482066">
<ele>522.2</ele>
<time>2023-05-18T12:27:48Z</time>
</trkpt>
<trkpt lat="49.32163794524968" lon="8.046864923089743">
<ele>522.4</ele>
<time>2023-05-18T12:27:49Z</time>
</trkpt>
<trkpt lat="49.32163794524968" lon="8.046914963051677">
<ele>522.6</ele>
<time>2023-05-18T12:27:50Z</time>
</trkpt>
<trkpt lat="49.32163995690644" lon="8.04696299135685">
<ele>522.8</ele>
<time>2023-05-18T12:27:51Z</time>
</trkpt>
<trkpt lat="49.32163995690644" lon="8.047016970813274">
<ele>523</ele>
<time>2023-05-18T12:27:52Z</time>
</trkpt>
<trkpt lat="49.321634927764535" lon="8.047062987461686">
<ele>523.4</ele>
<time>2023-05-18T12:27:53Z</time>
</trkpt>
<trkpt lat="49.321629982441664" lon="8.047111937776208">
<ele>523.6</ele>
<time>2023-05-18T12:27:54Z</time>
</trkpt>
<trkpt lat="49.32162193581462" lon="8.047174969688058">
<ele>523.8</ele>
<time>2023-05-18T12:27:55Z</time>
</trkpt>
<trkpt lat="49.32161799632013" lon="8.047226937487721">
<ele>524</ele>
<time>2023-05-18T12:27:56Z</time>
</trkpt>
<trkpt lat="49.321612967178226" lon="8.047269936650991">
<ele>524.2</ele>
<time>2023-05-18T12:27:57Z</time>
</trkpt>
<trkpt lat="49.321609949693084" lon="8.047322994098067">
<ele>524.5999999999999</ele>
<time>2023-05-18T12:27:58Z</time>
</trkpt>
<trkpt lat="49.32160198688507" lon="8.047369932755828">
<ele>524.8</ele>
<time>2023-05-18T12:27:59Z</time>
</trkpt>
<trkpt lat="49.321592934429646" lon="8.047426929697394">
<ele>525</ele>
<time>2023-05-18T12:28:00Z</time>
</trkpt>
<trkpt lat="49.32158295996487" lon="8.047457942739129">
<ele>525.2</ele>
<time>2023-05-18T12:28:01Z</time>
</trkpt>
<trkpt lat="49.32157994247973" lon="8.047499936074018">
<ele>525.4000000000001</ele>
<time>2023-05-18T12:28:02Z</time>
</trkpt>
<trkpt lat="49.32157692499459" lon="8.047542935237288">
<ele>525.8</ele>
<time>2023-05-18T12:28:03Z</time>
</trkpt>
<trkpt lat="49.32157499715686" lon="8.047581994906068">
<ele>526</ele>
<time>2023-05-18T12:28:04Z</time>
</trkpt>
<trkpt lat="49.32157499715686" lon="8.047622982412577">
<ele>526.2</ele>
<time>2023-05-18T12:28:05Z</time>
</trkpt>
<trkpt lat="49.321569968014956" lon="8.047656929120421">
<ele>526.4000000000001</ele>
<time>2023-05-18T12:28:06Z</time>
</trkpt>
<trkpt lat="49.32156292721629" lon="8.047686936333776">
<ele>526.5999999999999</ele>
<time>2023-05-18T12:28:07Z</time>
</trkpt>
<trkpt lat="49.32155194692314" lon="8.047731947153807">
<ele>526.8</ele>
<time>2023-05-18T12:28:08Z</time>
</trkpt>
<trkpt lat="49.32154197245836" lon="8.047769917175174">
<ele>527</ele>
<time>2023-05-18T12:28:09Z</time>
</trkpt>
<trkpt lat="49.32154197245836" lon="8.047829931601882">
<ele>527.2</ele>
<time>2023-05-18T12:28:10Z</time>
</trkpt>
<trkpt lat="49.32154197245836" lon="8.047884916886687">
<ele>527.5999999999999</ele>
<time>2023-05-18T12:28:11Z</time>
</trkpt>
<trkpt lat="49.32153694331646" lon="8.047929927706718">
<ele>527.8</ele>
<time>2023-05-18T12:28:12Z</time>
</trkpt>
<trkpt lat="49.3215349316597" lon="8.04797695018351">
<ele>528</ele>
<time>2023-05-18T12:28:13Z</time>
</trkpt>
<trkpt lat="49.32152193970978" lon="8.048026990145445">
<ele>528.2</ele>
<time>2023-05-18T12:28:14Z</time>
</trkpt>
<trkpt lat="49.32151699438691" lon="8.048092955723405">
<ele>528.4000000000001</ele>
<time>2023-05-18T12:28:15Z</time>
</trkpt>
<trkpt lat="49.32151498273015" lon="8.048151964321733">
<ele>528.5999999999999</ele>
<time>2023-05-18T12:28:16Z</time>
</trkpt>
<trkpt lat="49.32151992805302" lon="8.048201920464635">
<ele>528.8</ele>
<time>2023-05-18T12:28:17Z</time>
</trkpt>
<trkpt lat="49.321526968851686" lon="8.048249948769808">
<ele>529.2</ele>
<time>2023-05-18T12:28:18Z</time>
</trkpt>
<trkpt lat="49.32153199799359" lon="8.048284985125065">
<ele>529.4000000000001</ele>
<time>2023-05-18T12:28:19Z</time>
</trkpt>
<trkpt lat="49.3215349316597" lon="8.048326978459954">
<ele>529.5999999999999</ele>
<time>2023-05-18T12:28:20Z</time>
</trkpt>
<trkpt lat="49.32153794914484" lon="8.04836193099618">
<ele>529.8</ele>
<time>2023-05-18T12:28:21Z</time>
</trkpt>
<trkpt lat="49.32154197245836" lon="8.048392944037914">
<ele>530</ele>
<time>2023-05-18T12:28:22Z</time>
</trkpt>
<trkpt lat="49.321547923609614" lon="8.048421945422888">
<ele>530.2</ele>
<time>2023-05-18T12:28:23Z</time>
</trkpt>
<trkpt lat="49.321547923609614" lon="8.048461927101016">
<ele>530.4000000000001</ele>
<time>2023-05-18T12:28:24Z</time>
</trkpt>
<trkpt lat="49.32154297828674" lon="8.048489922657609">
<ele>530.5999999999999</ele>
<time>2023-05-18T12:28:25Z</time>
</trkpt>
<trkpt lat="49.3215399608016" lon="8.04851297289133">
<ele>530.8</ele>
<time>2023-05-18T12:28:26Z</time>
</trkpt>
<trkpt lat="49.3215399608016" lon="8.048539962619543">
<ele>531</ele>
<time>2023-05-18T12:28:27Z</time>
</trkpt>
<trkpt lat="49.321546917781234" lon="8.0485749989748">
<ele>531</ele>
<time>2023-05-18T12:28:28Z</time>
</trkpt>
<trkpt lat="49.32155194692314" lon="8.048606934025884">
<ele>531.2</ele>
<time>2023-05-18T12:28:29Z</time>
</trkpt>
<trkpt lat="49.32156292721629" lon="8.048634929582477">
<ele>531.2</ele>
<time>2023-05-18T12:28:30Z</time>
</trkpt>
<trkpt lat="49.32157197967172" lon="8.048657979816198">
<ele>531.4000000000001</ele>
<time>2023-05-18T12:28:31Z</time>
</trkpt>
<trkpt lat="49.32158195413649" lon="8.048689998686314">
<ele>531.4000000000001</ele>
<time>2023-05-18T12:28:32Z</time>
</trkpt>
<trkpt lat="49.321592934429646" lon="8.048716988414526">
<ele>531.4000000000001</ele>
<time>2023-05-18T12:28:33Z</time>
</trkpt>
<trkpt lat="49.32159997522831" lon="8.048741966485977">
<ele>531.5999999999999</ele>
<time>2023-05-18T12:28:34Z</time>
</trkpt>
<trkpt lat="49.32160492055118" lon="8.048757975921035">
<ele>531.5999999999999</ele>
<time>2023-05-18T12:28:35Z</time>
</trkpt>
<trkpt lat="49.32160492055118" lon="8.048779936507344">
<ele>531.5999999999999</ele>
<time>2023-05-18T12:28:36Z</time>
</trkpt>
<trkpt lat="49.321609949693084" lon="8.048801980912685">
<ele>531.8</ele>
<time>2023-05-18T12:28:37Z</time>
</trkpt>
<trkpt lat="49.321609949693084" lon="8.048816984519362">
<ele>531.8</ele>
<time>2023-05-18T12:28:38Z</time>
</trkpt>
<trkpt lat="49.321611961349845" lon="8.048822935670614">
<ele>531.8</ele>
<time>2023-05-18T12:28:39Z</time>
</trkpt>
<trkpt lat="49.321612967178226" lon="8.048842968419194">
<ele>531.8</ele>
<time>2023-05-18T12:28:40Z</time>
</trkpt>
<trkpt lat="49.32161992415786" lon="8.048862917348742">
<ele>531.8</ele>
<time>2023-05-18T12:28:41Z</time>
</trkpt>
<trkpt lat="49.32162696495652" lon="8.048886973410845">
<ele>532</ele>
<time>2023-05-18T12:28:42Z</time>
</trkpt>
<trkpt lat="49.321629982441664" lon="8.048907928168774">
<ele>532</ele>
<time>2023-05-18T12:28:43Z</time>
</trkpt>
<trkpt lat="49.321629982441664" lon="8.04892293177545">
<ele>532</ele>
<time>2023-05-18T12:28:44Z</time>
</trkpt>
<trkpt lat="49.321631994098425" lon="8.048946987837553">
<ele>532</ele>
<time>2023-05-18T12:28:45Z</time>
</trkpt>
<trkpt lat="49.321636939421296" lon="8.048991998657584">
<ele>532</ele>
<time>2023-05-18T12:28:46Z</time>
</trkpt>
<trkpt lat="49.321636939421296" lon="8.04902795702219">
<ele>532</ele>
<time>2023-05-18T12:28:47Z</time>
</trkpt>
<trkpt lat="49.321634927764535" lon="8.049066932871938">
<ele>532</ele>
<time>2023-05-18T12:28:48Z</time>
</trkpt>
<trkpt lat="49.321632999926805" lon="8.049086965620518">
<ele>532</ele>
<time>2023-05-18T12:28:49Z</time>
</trkpt>
<trkpt lat="49.321631994098425" lon="8.04911294952035">
<ele>532</ele>
<time>2023-05-18T12:28:50Z</time>
</trkpt>
<trkpt lat="49.321636939421296" lon="8.049139939248562">
<ele>532</ele>
<time>2023-05-18T12:28:51Z</time>
</trkpt>
<trkpt lat="49.32163794524968" lon="8.04917698726058">
<ele>532</ele>
<time>2023-05-18T12:28:52Z</time>
</trkpt>
<trkpt lat="49.32163995690644" lon="8.049221998080611">
<ele>532</ele>
<time>2023-05-18T12:28:53Z</time>
</trkpt>
<trkpt lat="49.3216419685632" lon="8.04926298558712">
<ele>532</ele>
<time>2023-05-18T12:28:54Z</time>
</trkpt>
<trkpt lat="49.3216419685632" lon="8.04930699057877">
<ele>532</ele>
<time>2023-05-18T12:28:55Z</time>
</trkpt>
<trkpt lat="49.3216469977051" lon="8.04934998974204">
<ele>531.8</ele>
<time>2023-05-18T12:28:56Z</time>
</trkpt>
<trkpt lat="49.32164297439158" lon="8.04937195032835">
<ele>531.8</ele>
<time>2023-05-18T12:28:57Z</time>
</trkpt>
<trkpt lat="49.32164297439158" lon="8.049411932006478">
<ele>531.8</ele>
<time>2023-05-18T12:28:58Z</time>
</trkpt>
<trkpt lat="49.32164993137121" lon="8.049464989453554">
<ele>531.8</ele>
<time>2023-05-18T12:28:59Z</time>
</trkpt>
<trkpt lat="49.321652948856354" lon="8.049526931717992">
<ele>531.5999999999999</ele>
<time>2023-05-18T12:29:00Z</time>
</trkpt>
<trkpt lat="49.321652948856354" lon="8.049589963629842">
<ele>531.5999999999999</ele>
<time>2023-05-18T12:29:01Z</time>
</trkpt>
<trkpt lat="49.32164993137121" lon="8.04964997805655">
<ele>531.5999999999999</ele>
<time>2023-05-18T12:29:02Z</time>
</trkpt>
<trkpt lat="49.3216469977051" lon="8.049699934199452">
<ele>531.5999999999999</ele>
<time>2023-05-18T12:29:03Z</time>
</trkpt>
<trkpt lat="49.32163995690644" lon="8.049754919484258">
<ele>531.4000000000001</ele>
<time>2023-05-18T12:29:04Z</time>
</trkpt>
<trkpt lat="49.321629982441664" lon="8.049811916425824">
<ele>531.4000000000001</ele>
<time>2023-05-18T12:29:05Z</time>
</trkpt>
<trkpt lat="49.32161497883499" lon="8.049869919195771">
<ele>531.4000000000001</ele>
<time>2023-05-18T12:29:06Z</time>
</trkpt>
<trkpt lat="49.32159796357155" lon="8.049922976642847">
<ele>531.2</ele>
<time>2023-05-18T12:29:07Z</time>
</trkpt>
<trkpt lat="49.32158497162163" lon="8.04999497719109">
<ele>531.2</ele>
<time>2023-05-18T12:29:08Z</time>
</trkpt>
<trkpt lat="49.321567956358194" lon="8.05005993694067">
<ele>531</ele>
<time>2023-05-18T12:29:09Z</time>
</trkpt>
<trkpt lat="49.32155697606504" lon="8.05012196302414">
<ele>531</ele>
<time>2023-05-18T12:29:10Z</time>
</trkpt>
<trkpt lat="49.321546917781234" lon="8.050199998542666">
<ele>530.8</ele>
<time>2023-05-18T12:29:11Z</time>
</trkpt>
<trkpt lat="49.32153199799359" lon="8.050261940807104">
<ele>530.8</ele>
<time>2023-05-18T12:29:12Z</time>
</trkpt>
<trkpt lat="49.32151297107339" lon="8.050312986597419">
<ele>530.5999999999999</ele>
<time>2023-05-18T12:29:13Z</time>
</trkpt>
<trkpt lat="49.32149997912347" lon="8.05035992525518">
<ele>530.5999999999999</ele>
<time>2023-05-18T12:29:14Z</time>
</trkpt>
<trkpt lat="49.32148799300194" lon="8.050407953560352">
<ele>530.5999999999999</ele>
<time>2023-05-18T12:29:15Z</time>
</trkpt>
<trkpt lat="49.32147298939526" lon="8.0504469294101">
<ele>530.4000000000001</ele>
<time>2023-05-18T12:29:16Z</time>
</trkpt>
<trkpt lat="49.32145496830344" lon="8.050487916916609">
<ele>530.4000000000001</ele>
<time>2023-05-18T12:29:17Z</time>
</trkpt>
<trkpt lat="49.32144298218191" lon="8.05053292773664">
<ele>530.2</ele>
<time>2023-05-18T12:29:18Z</time>
</trkpt>
<trkpt lat="49.32142797857523" lon="8.0506179202348">
<ele>530.2</ele>
<time>2023-05-18T12:29:19Z</time>
</trkpt>
<trkpt lat="49.32141196914017" lon="8.050696961581707">
<ele>530.2</ele>
<time>2023-05-18T12:29:20Z</time>
</trkpt>
<trkpt lat="49.321394953876734" lon="8.050757981836796">
<ele>530</ele>
<time>2023-05-18T12:29:21Z</time>
</trkpt>
<trkpt lat="49.32138699106872" lon="8.050824953243136">
<ele>530</ele>
<time>2023-05-18T12:29:22Z</time>
</trkpt>
<trkpt lat="49.32138196192682" lon="8.050914974883199">
<ele>530</ele>
<time>2023-05-18T12:29:23Z</time>
</trkpt>
<trkpt lat="49.32136997580528" lon="8.050992926582694">
<ele>530</ele>
<time>2023-05-18T12:29:24Z</time>
</trkpt>
<trkpt lat="49.32136494666338" lon="8.051077919080853">
<ele>529.8</ele>
<time>2023-05-18T12:29:25Z</time>
</trkpt>
<trkpt lat="49.32135991752148" lon="8.051159977912903">
<ele>529.8</ele>
<time>2023-05-18T12:29:26Z</time>
</trkpt>
<trkpt lat="49.321352960541844" lon="8.051234995946288">
<ele>529.8</ele>
<time>2023-05-18T12:29:27Z</time>
</trkpt>
<trkpt lat="49.32134692557156" lon="8.051301967352629">
<ele>529.5999999999999</ele>
<time>2023-05-18T12:29:28Z</time>
</trkpt>
<trkpt lat="49.32133996859193" lon="8.051377991214395">
<ele>529.5999999999999</ele>
<time>2023-05-18T12:29:29Z</time>
</trkpt>
<trkpt lat="49.32132496498525" lon="8.051447980105877">
<ele>529.4000000000001</ele>
<time>2023-05-18T12:29:30Z</time>
</trkpt>
<trkpt lat="49.321311973035336" lon="8.051511934027076">
<ele>529.4000000000001</ele>
<time>2023-05-18T12:29:31Z</time>
</trkpt>
<trkpt lat="49.32130794972181" lon="8.051594998687506">
<ele>529.2</ele>
<time>2023-05-18T12:29:32Z</time>
</trkpt>
<trkpt lat="49.32129797525704" lon="8.051679991185665">
<ele>529.2</ele>
<time>2023-05-18T12:29:33Z</time>
</trkpt>
<trkpt lat="49.321292946115136" lon="8.05175693705678">
<ele>529</ele>
<time>2023-05-18T12:29:34Z</time>
</trkpt>
<trkpt lat="49.321292946115136" lon="8.051834972575307">
<ele>529</ele>
<time>2023-05-18T12:29:35Z</time>
</trkpt>
<trkpt lat="49.3212949577719" lon="8.05190496146679">
<ele>528.8</ele>
<time>2023-05-18T12:29:36Z</time>
</trkpt>
<trkpt lat="49.3212949577719" lon="8.051984924823046">
<ele>528.8</ele>
<time>2023-05-18T12:29:37Z</time>
</trkpt>
<trkpt lat="49.3212949577719" lon="8.052051980048418">
<ele>528.8</ele>
<time>2023-05-18T12:29:38Z</time>
</trkpt>
<trkpt lat="49.32130493223667" lon="8.052122974768281">
<ele>528.5999999999999</ele>
<time>2023-05-18T12:29:39Z</time>
</trkpt>
<trkpt lat="49.32132798247039" lon="8.05218793451786">
<ele>528.5999999999999</ele>
<time>2023-05-18T12:29:40Z</time>
</trkpt>
<trkpt lat="49.321334939450026" lon="8.052246943116188">
<ele>528.5999999999999</ele>
<time>2023-05-18T12:29:41Z</time>
</trkpt>
<trkpt lat="49.32134298607707" lon="8.052289942279458">
<ele>528.5999999999999</ele>
<time>2023-05-18T12:29:42Z</time>
</trkpt>
<trkpt lat="49.32135698385537" lon="8.052337970584631">
<ele>528.4000000000001</ele>
<time>2023-05-18T12:29:43Z</time>
</trkpt>
<trkpt lat="49.32136997580528" lon="8.052381975576282">
<ele>528.4000000000001</ele>
<time>2023-05-18T12:29:44Z</time>
</trkpt>
<trkpt lat="49.3213829677552" lon="8.052449952811003">
<ele>528.2</ele>
<time>2023-05-18T12:29:45Z</time>
</trkpt>
<trkpt lat="49.321416998282075" lon="8.05257199332118">
<ele>528.2</ele>
<time>2023-05-18T12:29:46Z</time>
</trkpt>
<trkpt lat="49.3214329238981" lon="8.05265991948545">
<ele>528</ele>
<time>2023-05-18T12:29:47Z</time>
</trkpt>
<trkpt lat="49.3214469216764" lon="8.05274298414588">
<ele>528</ele>
<time>2023-05-18T12:29:48Z</time>
</trkpt>
<trkpt lat="49.321461925283074" lon="8.052822947502136">
<ele>527.8</ele>
<time>2023-05-18T12:29:49Z</time>
</trkpt>
<trkpt lat="49.32147692888975" lon="8.052902994677424">
<ele>527.5999999999999</ele>
<time>2023-05-18T12:29:50Z</time>
</trkpt>
<trkpt lat="49.32149293832481" lon="8.052977928891778">
<ele>527.5999999999999</ele>
<time>2023-05-18T12:29:51Z</time>
</trkpt>
<trkpt lat="49.32151196524501" lon="8.053052946925163">
<ele>527.4000000000001</ele>
<time>2023-05-18T12:29:52Z</time>
</trkpt>
<trkpt lat="49.32152294553816" lon="8.053141962736845">
<ele>527.2</ele>
<time>2023-05-18T12:29:53Z</time>
</trkpt>
<trkpt lat="49.32153694331646" lon="8.053242964670062">
<ele>527.2</ele>
<time>2023-05-18T12:29:54Z</time>
</trkpt>
<trkpt lat="49.321544989943504" lon="8.053342960774899">
<ele>527.2</ele>
<time>2023-05-18T12:29:55Z</time>
</trkpt>
<trkpt lat="49.32155496440828" lon="8.053417978808284">
<ele>527</ele>
<time>2023-05-18T12:29:56Z</time>
</trkpt>
<trkpt lat="49.32157197967172" lon="8.053492996841669">
<ele>527</ele>
<time>2023-05-18T12:29:57Z</time>
</trkpt>
<trkpt lat="49.32158497162163" lon="8.053567931056023">
<ele>526.8</ele>
<time>2023-05-18T12:29:58Z</time>
</trkpt>
<trkpt lat="49.32159494608641" lon="8.053629957139492">
<ele>526.5999999999999</ele>
<time>2023-05-18T12:29:59Z</time>
</trkpt>
<trkpt lat="49.32160492055118" lon="8.053696928545833">
<ele>526.5999999999999</ele>
<time>2023-05-18T12:30:00Z</time>
</trkpt>
<trkpt lat="49.32161497883499" lon="8.053767923265696">
<ele>526.4000000000001</ele>
<time>2023-05-18T12:30:01Z</time>
</trkpt>
<trkpt lat="49.3216279707849" lon="8.053846964612603">
<ele>526.2</ele>
<time>2023-05-18T12:30:02Z</time>
</trkpt>
<trkpt lat="49.321636939421296" lon="8.053936986252666">
<ele>526</ele>
<time>2023-05-18T12:30:03Z</time>
</trkpt>
<trkpt lat="49.32165998965502" lon="8.054067995399237">
<ele>525.8</ele>
<time>2023-05-18T12:30:04Z</time>
</trkpt>
<trkpt lat="49.321674993261695" lon="8.054176960140467">
<ele>525.5999999999999</ele>
<time>2023-05-18T12:30:05Z</time>
</trkpt>
<trkpt lat="49.32168295606971" lon="8.054261952638626">
<ele>525.4000000000001</ele>
<time>2023-05-18T12:30:06Z</time>
</trkpt>
<trkpt lat="49.32168697938323" lon="8.05435499176383">
<ele>525.2</ele>
<time>2023-05-18T12:30:07Z</time>
</trkpt>
<trkpt lat="49.32168999686837" lon="8.054446941241622">
<ele>525</ele>
<time>2023-05-18T12:30:08Z</time>
</trkpt>
<trkpt lat="49.3216919247061" lon="8.05452992208302">
<ele>524.8</ele>
<time>2023-05-18T12:30:09Z</time>
</trkpt>
<trkpt lat="49.32169293053448" lon="8.054622961208224">
<ele>524.5999999999999</ele>
<time>2023-05-18T12:30:10Z</time>
</trkpt>
<trkpt lat="49.321699971333146" lon="8.054761933162808">
<ele>524.4000000000001</ele>
<time>2023-05-18T12:30:11Z</time>
</trkpt>
<trkpt lat="49.321697959676385" lon="8.054854972288013">
<ele>524.2</ele>
<time>2023-05-18T12:30:12Z</time>
</trkpt>
<trkpt lat="49.32169494219124" lon="8.054941976442933">
<ele>523.8</ele>
<time>2023-05-18T12:30:13Z</time>
</trkpt>
<trkpt lat="49.3216919247061" lon="8.055044990032911">
<ele>523.6</ele>
<time>2023-05-18T12:30:14Z</time>
</trkpt>
<trkpt lat="49.32170298881829" lon="8.055141968652606">
<ele>523.4</ele>
<time>2023-05-18T12:30:15Z</time>
</trkpt>
<trkpt lat="49.32171195745468" lon="8.055246993899345">
<ele>523.2</ele>
<time>2023-05-18T12:30:16Z</time>
</trkpt>
<trkpt lat="49.32171195745468" lon="8.055346990004182">
<ele>523.2</ele>
<time>2023-05-18T12:30:17Z</time>
</trkpt>
<trkpt lat="49.32170793414116" lon="8.055436927825212">
<ele>523</ele>
<time>2023-05-18T12:30:18Z</time>
</trkpt>
<trkpt lat="49.32170491665602" lon="8.05553499609232">
<ele>522.8</ele>
<time>2023-05-18T12:30:19Z</time>
</trkpt>
<trkpt lat="49.32170298881829" lon="8.055612947791815">
<ele>522.6</ele>
<time>2023-05-18T12:30:20Z</time>
</trkpt>
<trkpt lat="49.32170298881829" lon="8.055684948340058">
<ele>522.6</ele>
<time>2023-05-18T12:30:21Z</time>
</trkpt>
<trkpt lat="49.32169494219124" lon="8.055786956101656">
<ele>522.4</ele>
<time>2023-05-18T12:30:22Z</time>
</trkpt>
<trkpt lat="49.3216919247061" lon="8.055896926671267">
<ele>522</ele>
<time>2023-05-18T12:30:23Z</time>
</trkpt>
<trkpt lat="49.32169494219124" lon="8.055997928604484">
<ele>521.8</ele>
<time>2023-05-18T12:30:24Z</time>
</trkpt>
<trkpt lat="49.3216919247061" lon="8.056109994649887">
<ele>521.6</ele>
<time>2023-05-18T12:30:25Z</time>
</trkpt>
<trkpt lat="49.32168295606971" lon="8.056221976876259">
<ele>521.4</ele>
<time>2023-05-18T12:30:26Z</time>
</trkpt>
<trkpt lat="49.32167197577655" lon="8.056327924132347">
<ele>521.2</ele>
<time>2023-05-18T12:30:27Z</time>
</trkpt>
<trkpt lat="49.32167197577655" lon="8.056471925228834">
<ele>520.8</ele>
<time>2023-05-18T12:30:28Z</time>
</trkpt>
<trkpt lat="49.32166191749275" lon="8.056577956303954">
<ele>520.6</ele>
<time>2023-05-18T12:30:29Z</time>
</trkpt>
<trkpt lat="49.32164791971445" lon="8.05667795240879">
<ele>520.4</ele>
<time>2023-05-18T12:30:30Z</time>
</trkpt>
<trkpt lat="49.32162696495652" lon="8.05678197182715">
<ele>520.2</ele>
<time>2023-05-18T12:30:31Z</time>
</trkpt>
<trkpt lat="49.32160693220794" lon="8.056882973760366">
<ele>520</ele>
<time>2023-05-18T12:30:32Z</time>
</trkpt>
<trkpt lat="49.321589916944504" lon="8.056969977915287">
<ele>519.8</ele>
<time>2023-05-18T12:30:33Z</time>
</trkpt>
<trkpt lat="49.32157197967172" lon="8.057061927393079">
<ele>519.6</ele>
<time>2023-05-18T12:30:34Z</time>
</trkpt>
<trkpt lat="49.32155295275152" lon="8.057156978175044">
<ele>519.4</ele>
<time>2023-05-18T12:30:35Z</time>
</trkpt>
<trkpt lat="49.32153199799359" lon="8.057249933481216">
<ele>519.2</ele>
<time>2023-05-18T12:30:36Z</time>
</trkpt>
<trkpt lat="49.321502996608615" lon="8.057362921535969">
<ele>518.8</ele>
<time>2023-05-18T12:30:37Z</time>
</trkpt>
<trkpt lat="49.32147491723299" lon="8.05747197009623">
<ele>518.6</ele>
<time>2023-05-18T12:30:38Z</time>
</trkpt>
<trkpt lat="49.3214469216764" lon="8.057577917352319">
<ele>518.4</ele>
<time>2023-05-18T12:30:39Z</time>
</trkpt>
<trkpt lat="49.321414986625314" lon="8.057674979791045">
<ele>518.2</ele>
<time>2023-05-18T12:30:40Z</time>
</trkpt>
<trkpt lat="49.32138196192682" lon="8.057767935097218">
<ele>518</ele>
<time>2023-05-18T12:30:41Z</time>
</trkpt>
<trkpt lat="49.3213499430567" lon="8.05785795673728">
<ele>518</ele>
<time>2023-05-18T12:30:42Z</time>
</trkpt>
<trkpt lat="49.32131691835821" lon="8.0579449608922">
<ele>517.8</ele>
<time>2023-05-18T12:30:43Z</time>
</trkpt>
<trkpt lat="49.32128791697323" lon="8.058034982532263">
<ele>517.6</ele>
<time>2023-05-18T12:30:44Z</time>
</trkpt>
<trkpt lat="49.32125799357891" lon="8.05811494588852">
<ele>517.4</ele>
<time>2023-05-18T12:30:45Z</time>
</trkpt>
<trkpt lat="49.32123192586005" lon="8.05820195004344">
<ele>517.2</ele>
<time>2023-05-18T12:30:46Z</time>
</trkpt>
<trkpt lat="49.32120996527374" lon="8.058289960026741">
<ele>517.2</ele>
<time>2023-05-18T12:30:47Z</time>
</trkpt>
<trkpt lat="49.32118699885905" lon="8.05837294086814">
<ele>517</ele>
<time>2023-05-18T12:30:48Z</time>
</trkpt>
<trkpt lat="49.321159925311804" lon="8.058452988043427">
<ele>516.8</ele>
<time>2023-05-18T12:30:49Z</time>
</trkpt>
<trkpt lat="49.32113192975521" lon="8.058524988591671">
<ele>516.6</ele>
<time>2023-05-18T12:30:50Z</time>
</trkpt>
<trkpt lat="49.32110292837024" lon="8.058596989139915">
<ele>516.6</ele>
<time>2023-05-18T12:30:51Z</time>
</trkpt>
<trkpt lat="49.32108297944069" lon="8.058664966374636">
<ele>516.4</ele>
<time>2023-05-18T12:30:52Z</time>
</trkpt>
<trkpt lat="49.32105992920697" lon="8.058729926124215">
<ele>516.4</ele>
<time>2023-05-18T12:30:53Z</time>
</trkpt>
<trkpt lat="49.32102992199361" lon="8.058806955814362">
<ele>516.4</ele>
<time>2023-05-18T12:30:54Z</time>
</trkpt>
<trkpt lat="49.32100192643702" lon="8.058876944705844">
<ele>516.2</ele>
<time>2023-05-18T12:30:55Z</time>
</trkpt>
<trkpt lat="49.32097694836557" lon="8.058944921940565">
<ele>516.2</ele>
<time>2023-05-18T12:30:56Z</time>
</trkpt>
<trkpt lat="49.320941995829344" lon="8.059004936367273">
<ele>516</ele>
<time>2023-05-18T12:30:57Z</time>
</trkpt>
<trkpt lat="49.32090695947409" lon="8.059066962450743">
<ele>515.8</ele>
<time>2023-05-18T12:30:58Z</time>
</trkpt>
<trkpt lat="49.3208649661392" lon="8.05912496522069">
<ele>515.8</ele>
<time>2023-05-18T12:30:59Z</time>
</trkpt>
<trkpt lat="49.320817943662405" lon="8.059171987697482">
<ele>515.6</ele>
<time>2023-05-18T12:31:00Z</time>
</trkpt>
<trkpt lat="49.32076497003436" lon="8.059231918305159">
<ele>515.6</ele>
<time>2023-05-18T12:31:01Z</time>
</trkpt>
<trkpt lat="49.320709984749556" lon="8.059282964095473">
<ele>515.4</ele>
<time>2023-05-18T12:31:02Z</time>
</trkpt>
<trkpt lat="49.32065692730248" lon="8.059331998229027">
<ele>515.4</ele>
<time>2023-05-18T12:31:03Z</time>
</trkpt>
<trkpt lat="49.32059993036091" lon="8.059374997392297">
<ele>515.2</ele>
<time>2023-05-18T12:31:04Z</time>
</trkpt>
<trkpt lat="49.32054293341935" lon="8.059409949928522">
<ele>515.2</ele>
<time>2023-05-18T12:31:05Z</time>
</trkpt>
<trkpt lat="49.32048694230616" lon="8.059454960748553">
<ele>515.2</ele>
<time>2023-05-18T12:31:06Z</time>
</trkpt>
<trkpt lat="49.320429945364594" lon="8.05949293076992">
<ele>515</ele>
<time>2023-05-18T12:31:07Z</time>
</trkpt>
<trkpt lat="49.32037697173655" lon="8.059517992660403">
<ele>515</ele>
<time>2023-05-18T12:31:08Z</time>
</trkpt>
<trkpt lat="49.32032994925976" lon="8.059537941589952">
<ele>515</ele>
<time>2023-05-18T12:31:09Z</time>
</trkpt>
<trkpt lat="49.32027496397495" lon="8.059557974338531">
<ele>514.8</ele>
<time>2023-05-18T12:31:10Z</time>
</trkpt>
<trkpt lat="49.320217967033386" lon="8.059587981551886">
<ele>514.8</ele>
<time>2023-05-18T12:31:11Z</time>
</trkpt>
<trkpt lat="49.32015795260668" lon="8.059624945744872">
<ele>514.8</ele>
<time>2023-05-18T12:31:12Z</time>
</trkpt>
<trkpt lat="49.32010196149349" lon="8.059664927423">
<ele>514.8</ele>
<time>2023-05-18T12:31:13Z</time>
</trkpt>
<trkpt lat="49.320042952895164" lon="8.059719996526837">
<ele>514.8</ele>
<time>2023-05-18T12:31:14Z</time>
</trkpt>
<trkpt lat="49.31999794207513" lon="8.059779927134514">
<ele>514.8</ele>
<time>2023-05-18T12:31:15Z</time>
</trkpt>
<trkpt lat="49.31996491737664" lon="8.059841953217983">
<ele>514.6</ele>
<time>2023-05-18T12:31:16Z</time>
</trkpt>
<trkpt lat="49.31994698010385" lon="8.059912947937846">
<ele>514.6</ele>
<time>2023-05-18T12:31:17Z</time>
</trkpt>
<trkpt lat="49.319934993982315" lon="8.059992995113134">
<ele>514.6</ele>
<time>2023-05-18T12:31:18Z</time>
</trkpt>
<trkpt lat="49.31992694735527" lon="8.060066923499107">
<ele>514.4</ele>
<time>2023-05-18T12:31:19Z</time>
</trkpt>
<trkpt lat="49.31993197649717" lon="8.060169937089086">
<ele>514.4</ele>
<time>2023-05-18T12:31:20Z</time>
</trkpt>
<trkpt lat="49.319932982325554" lon="8.060292983427644">
<ele>514.2</ele>
<time>2023-05-18T12:31:21Z</time>
</trkpt>
<trkpt lat="49.31994698010385" lon="8.060417957603931">
<ele>514.2</ele>
<time>2023-05-18T12:31:22Z</time>
</trkpt>
<trkpt lat="49.31996198371053" lon="8.060517953708768">
<ele>514</ele>
<time>2023-05-18T12:31:23Z</time>
</trkpt>
<trkpt lat="49.319979920983315" lon="8.060641922056675">
<ele>513.8</ele>
<time>2023-05-18T12:31:24Z</time>
</trkpt>
<trkpt lat="49.31999299675226" lon="8.060746947303414">
<ele>513.6</ele>
<time>2023-05-18T12:31:25Z</time>
</trkpt>
<trkpt lat="49.32000791653991" lon="8.06084694340825">
<ele>513.4</ele>
<time>2023-05-18T12:31:26Z</time>
</trkpt>
<trkpt lat="49.320019986480474" lon="8.060936965048313">
<ele>513.2</ele>
<time>2023-05-18T12:31:27Z</time>
</trkpt>
<trkpt lat="49.32002694346011" lon="8.061041990295053">
<ele>513</ele>
<time>2023-05-18T12:31:28Z</time>
</trkpt>
<trkpt lat="49.320024931803346" lon="8.061152966693044">
<ele>512.8</ele>
<time>2023-05-18T12:31:29Z</time>
</trkpt>
<trkpt lat="49.320024931803346" lon="8.061256986111403">
<ele>512.6</ele>
<time>2023-05-18T12:31:30Z</time>
</trkpt>
<trkpt lat="49.320019986480474" lon="8.061347929760814">
<ele>512.4</ele>
<time>2023-05-18T12:31:31Z</time>
</trkpt>
<trkpt lat="49.32001495733857" lon="8.061434933915734">
<ele>512</ele>
<time>2023-05-18T12:31:32Z</time>
</trkpt>
<trkpt lat="49.32001294568181" lon="8.061526967212558">
<ele>511.79999999999995</ele>
<time>2023-05-18T12:31:33Z</time>
</trkpt>
<trkpt lat="49.32001696899533" lon="8.061629980802536">
<ele>511.6</ele>
<time>2023-05-18T12:31:34Z</time>
</trkpt>
<trkpt lat="49.32003197260201" lon="8.061732994392514">
<ele>511.4</ele>
<time>2023-05-18T12:31:35Z</time>
</trkpt>
<trkpt lat="49.32004798203707" lon="8.061841959133744">
<ele>511.4</ele>
<time>2023-05-18T12:31:36Z</time>
</trkpt>
<trkpt lat="49.32006994262338" lon="8.061954947188497">
<ele>511.20000000000005</ele>
<time>2023-05-18T12:31:37Z</time>
</trkpt>
<trkpt lat="49.32009793817997" lon="8.062056954950094">
<ele>511</ele>
<time>2023-05-18T12:31:38Z</time>
</trkpt>
<trkpt lat="49.32011495344341" lon="8.062139935791492">
<ele>510.79999999999995</ele>
<time>2023-05-18T12:31:39Z</time>
</trkpt>
<trkpt lat="49.32013498619199" lon="8.06221998296678">
<ele>510.79999999999995</ele>
<time>2023-05-18T12:31:40Z</time>
</trkpt>
<trkpt lat="49.32015795260668" lon="8.062301957979798">
<ele>510.79999999999995</ele>
<time>2023-05-18T12:31:41Z</time>
</trkpt>
<trkpt lat="49.32018192484975" lon="8.062377981841564">
<ele>510.6</ele>
<time>2023-05-18T12:31:42Z</time>
</trkpt>
<trkpt lat="49.32020497508347" lon="8.062469931319356">
<ele>510.6</ele>
<time>2023-05-18T12:31:43Z</time>
</trkpt>
<trkpt lat="49.32022693566978" lon="8.062556935474277">
<ele>510.4</ele>
<time>2023-05-18T12:31:44Z</time>
</trkpt>
<trkpt lat="49.32024797424674" lon="8.062639916315675">
<ele>510.4</ele>
<time>2023-05-18T12:31:45Z</time>
</trkpt>
<trkpt lat="49.32027194648981" lon="8.062721975147724">
<ele>510.20000000000005</ele>
<time>2023-05-18T12:31:46Z</time>
</trkpt>
<trkpt lat="49.32029197923839" lon="8.06279699318111">
<ele>510</ele>
<time>2023-05-18T12:31:47Z</time>
</trkpt>
<trkpt lat="49.32031695730984" lon="8.062871927395463">
<ele>509.79999999999995</ele>
<time>2023-05-18T12:31:48Z</time>
</trkpt>
<trkpt lat="49.32034193538129" lon="8.062942922115326">
<ele>509.79999999999995</ele>
<time>2023-05-18T12:31:49Z</time>
</trkpt>
<trkpt lat="49.320364985615015" lon="8.063019951805472">
<ele>509.6</ele>
<time>2023-05-18T12:31:50Z</time>
</trkpt>
<trkpt lat="49.32039499282837" lon="8.063094969838858">
<ele>509.4</ele>
<time>2023-05-18T12:31:51Z</time>
</trkpt>
<trkpt lat="49.32042491622269" lon="8.063191948458552">
<ele>509.4</ele>
<time>2023-05-18T12:31:52Z</time>
</trkpt>
<trkpt lat="49.320454923436046" lon="8.063296973705292">
<ele>509.20000000000005</ele>
<time>2023-05-18T12:31:53Z</time>
</trkpt>
<trkpt lat="49.320474956184626" lon="8.063391940668225">
<ele>509.20000000000005</ele>
<time>2023-05-18T12:31:54Z</time>
</trkpt>
<trkpt lat="49.320496916770935" lon="8.063474921509624">
<ele>509</ele>
<time>2023-05-18T12:31:55Z</time>
</trkpt>
<trkpt lat="49.320516949519515" lon="8.063562931492925">
<ele>508.79999999999995</ele>
<time>2023-05-18T12:31:56Z</time>
</trkpt>
<trkpt lat="49.32053999975324" lon="8.063649935647845">
<ele>508.6</ele>
<time>2023-05-18T12:31:57Z</time>
</trkpt>
<trkpt lat="49.320561960339546" lon="8.063739957287908">
<ele>508.4</ele>
<time>2023-05-18T12:31:58Z</time>
</trkpt>
<trkpt lat="49.3205729406327" lon="8.063822938129306">
<ele>508.20000000000005</ele>
<time>2023-05-18T12:31:59Z</time>
</trkpt>
<trkpt lat="49.32058794423938" lon="8.063922934234142">
<ele>508</ele>
<time>2023-05-18T12:32:00Z</time>
</trkpt>
<trkpt lat="49.320604959502816" lon="8.064026953652501">
<ele>507.79999999999995</ele>
<time>2023-05-18T12:32:01Z</time>
</trkpt>
<trkpt lat="49.32061795145273" lon="8.064132984727621">
<ele>507.6</ele>
<time>2023-05-18T12:32:02Z</time>
</trkpt>
<trkpt lat="49.320627925917506" lon="8.06423993781209">
<ele>507.4</ele>
<time>2023-05-18T12:32:03Z</time>
</trkpt>
<trkpt lat="49.320627925917506" lon="8.064341945573688">
<ele>507.20000000000005</ele>
<time>2023-05-18T12:32:04Z</time>
</trkpt>
<trkpt lat="49.32063295505941" lon="8.064446970820427">
<ele>506.79999999999995</ele>
<time>2023-05-18T12:32:05Z</time>
</trkpt>
<trkpt lat="49.320624992251396" lon="8.064524922519922">
<ele>506.6</ele>
<time>2023-05-18T12:32:06Z</time>
</trkpt>
<trkpt lat="49.32061191648245" lon="8.064607987180352">
<ele>506.20000000000005</ele>
<time>2023-05-18T12:32:07Z</time>
</trkpt>
<trkpt lat="49.320586938411" lon="8.064674958586693">
<ele>506</ele>
<time>2023-05-18T12:32:08Z</time>
</trkpt>
<trkpt lat="49.32054293341935" lon="8.064759951084852">
<ele>505.79999999999995</ele>
<time>2023-05-18T12:32:09Z</time>
</trkpt>
<trkpt lat="49.320491971448064" lon="8.06479792110622">
<ele>505.4</ele>
<time>2023-05-18T12:32:10Z</time>
</trkpt>
<trkpt lat="49.320432962849736" lon="8.064826922491193">
<ele>505.20000000000005</ele>
<time>2023-05-18T12:32:11Z</time>
</trkpt>
<trkpt lat="49.32037194259465" lon="8.064849972724915">
<ele>504.79999999999995</ele>
<time>2023-05-18T12:32:12Z</time>
</trkpt>
<trkpt lat="49.32030991651118" lon="8.064866987988353">
<ele>504.6</ele>
<time>2023-05-18T12:32:13Z</time>
</trkpt>
<trkpt lat="49.3202449567616" lon="8.064872939139605">
<ele>504.4</ele>
<time>2023-05-18T12:32:14Z</time>
</trkpt>
<trkpt lat="49.32017999701202" lon="8.06488492526114">
<ele>504.20000000000005</ele>
<time>2023-05-18T12:32:15Z</time>
</trkpt>
<trkpt lat="49.32011294178665" lon="8.064899928867817">
<ele>503.79999999999995</ele>
<time>2023-05-18T12:32:16Z</time>
</trkpt>
<trkpt lat="49.32004999369383" lon="8.064919961616397">
<ele>503.6</ele>
<time>2023-05-18T12:32:17Z</time>
</trkpt>
<trkpt lat="49.319979920983315" lon="8.064961954951286">
<ele>503.4</ele>
<time>2023-05-18T12:32:18Z</time>
</trkpt>
<trkpt lat="49.319894928485155" lon="8.064999924972653">
<ele>503.20000000000005</ele>
<time>2023-05-18T12:32:19Z</time>
</trkpt>
<trkpt lat="49.319809935986996" lon="8.065037978813052">
<ele>502.79999999999995</ele>
<time>2023-05-18T12:32:20Z</time>
</trkpt>
<trkpt lat="49.319724943488836" lon="8.065072931349277">
<ele>502.6</ele>
<time>2023-05-18T12:32:21Z</time>
</trkpt>
<trkpt lat="49.319636933505535" lon="8.065102938562632">
<ele>502.20000000000005</ele>
<time>2023-05-18T12:32:22Z</time>
</trkpt>
<trkpt lat="49.319549929350615" lon="8.065136969089508">
<ele>502</ele>
<time>2023-05-18T12:32:23Z</time>
</trkpt>
<trkpt lat="49.3194729834795" lon="8.065176950767636">
<ele>501.6</ele>
<time>2023-05-18T12:32:24Z</time>
</trkpt>
<trkpt lat="49.31939494796097" lon="8.065209975466132">
<ele>501.20000000000005</ele>
<time>2023-05-18T12:32:25Z</time>
</trkpt>
<trkpt lat="49.31932697072625" lon="8.065242916345596">
<ele>501</ele>
<time>2023-05-18T12:32:26Z</time>
</trkpt>
<trkpt lat="49.319251952692866" lon="8.065282981842756">
<ele>500.79999999999995</ele>
<time>2023-05-18T12:32:27Z</time>
</trkpt>
<trkpt lat="49.31917794048786" lon="8.06531198322773">
<ele>500.6</ele>
<time>2023-05-18T12:32:28Z</time>
</trkpt>
<trkpt lat="49.31909194216132" lon="8.065332937985659">
<ele>500.4</ele>
<time>2023-05-18T12:32:29Z</time>
</trkpt>
<trkpt lat="49.319012984633446" lon="8.065346935763955">
<ele>500.20000000000005</ele>
<time>2023-05-18T12:32:30Z</time>
</trkpt>
<trkpt lat="49.318927992135286" lon="8.065359927713871">
<ele>500</ele>
<time>2023-05-18T12:32:31Z</time>
</trkpt>
<trkpt lat="49.31885196827352" lon="8.065369985997677">
<ele>499.79999999999995</ele>
<time>2023-05-18T12:32:32Z</time>
</trkpt>
<trkpt lat="49.31878793053329" lon="8.065371997654438">
<ele>499.6</ele>
<time>2023-05-18T12:32:33Z</time>
</trkpt>
<trkpt lat="49.31871995329857" lon="8.06537794880569">
<ele>499.6</ele>
<time>2023-05-18T12:32:34Z</time>
</trkpt>
<trkpt lat="49.31863294914365" lon="8.06537694297731">
<ele>499.4</ele>
<time>2023-05-18T12:32:35Z</time>
</trkpt>
<trkpt lat="49.31855197995901" lon="8.065382977947593">
<ele>499.20000000000005</ele>
<time>2023-05-18T12:32:36Z</time>
</trkpt>
<trkpt lat="49.31847997941077" lon="8.06539697572589">
<ele>499.20000000000005</ele>
<time>2023-05-18T12:32:37Z</time>
</trkpt>
<trkpt lat="49.318411918357015" lon="8.065402926877141">
<ele>499</ele>
<time>2023-05-18T12:32:38Z</time>
</trkpt>
<trkpt lat="49.31835995055735" lon="8.065406950190663">
<ele>498.79999999999995</ele>
<time>2023-05-18T12:32:39Z</time>
</trkpt>
<trkpt lat="49.318301947787404" lon="8.065414996817708">
<ele>498.6</ele>
<time>2023-05-18T12:32:40Z</time>
</trkpt>
<trkpt lat="49.31823195889592" lon="8.065437963232398">
<ele>498.6</ele>
<time>2023-05-18T12:32:41Z</time>
</trkpt>
<trkpt lat="49.31816792115569" lon="8.065481968224049">
<ele>498.4</ele>
<time>2023-05-18T12:32:42Z</time>
</trkpt>
<trkpt lat="49.31811695918441" lon="8.065531924366951">
<ele>498</ele>
<time>2023-05-18T12:32:43Z</time>
</trkpt>
<trkpt lat="49.31807194836438" lon="8.06559294462204">
<ele>498</ele>
<time>2023-05-18T12:32:44Z</time>
</trkpt>
<trkpt lat="49.31803992949426" lon="8.065657988190651">
<ele>497.79999999999995</ele>
<time>2023-05-18T12:32:45Z</time>
</trkpt>
<trkpt lat="49.318021992221475" lon="8.065714985132217">
<ele>497.6</ele>
<time>2023-05-18T12:32:46Z</time>
</trkpt>
<trkpt lat="49.31801193393767" lon="8.065774999558926">
<ele>497.6</ele>
<time>2023-05-18T12:32:47Z</time>
</trkpt>
<trkpt lat="49.31799994781613" lon="8.065824955701828">
<ele>497.6</ele>
<time>2023-05-18T12:32:48Z</time>
</trkpt>
<trkpt lat="49.31799198500812" lon="8.065887987613678">
<ele>497.6</ele>
<time>2023-05-18T12:32:49Z</time>
</trkpt>
<trkpt lat="49.317982932552695" lon="8.065949929878116">
<ele>497.6</ele>
<time>2023-05-18T12:32:50Z</time>
</trkpt>
<trkpt lat="49.31797698140144" lon="8.066001981496811">
<ele>497.79999999999995</ele>
<time>2023-05-18T12:32:51Z</time>
</trkpt>
<trkpt lat="49.31796499527991" lon="8.066046992316842">
<ele>497.79999999999995</ele>
<time>2023-05-18T12:32:52Z</time>
</trkpt>
<trkpt lat="49.31796499527991" lon="8.066114969551563">
<ele>498</ele>
<time>2023-05-18T12:32:53Z</time>
</trkpt>
<trkpt lat="49.317961977794766" lon="8.066177917644382">
<ele>498.20000000000005</ele>
<time>2023-05-18T12:32:54Z</time>
</trkpt>
<trkpt lat="49.317959966138005" lon="8.066224940121174">
<ele>498.4</ele>
<time>2023-05-18T12:32:55Z</time>
</trkpt>
<trkpt lat="49.317959966138005" lon="8.06627992540598">
<ele>498.6</ele>
<time>2023-05-18T12:32:56Z</time>
</trkpt>
<trkpt lat="49.317959966138005" lon="8.066326947882771">
<ele>498.79999999999995</ele>
<time>2023-05-18T12:32:57Z</time>
</trkpt>
<trkpt lat="49.31797195225954" lon="8.066381933167577">
<ele>499</ele>
<time>2023-05-18T12:32:58Z</time>
</trkpt>
<trkpt lat="49.317979998886585" lon="8.066422920674086">
<ele>499.20000000000005</ele>
<time>2023-05-18T12:32:59Z</time>
</trkpt>
<trkpt lat="49.31799491867423" lon="8.066467931494117">
<ele>499.4</ele>
<time>2023-05-18T12:33:00Z</time>
</trkpt>
<trkpt lat="49.31800992228091" lon="8.06651696562767">
<ele>499.6</ele>
<time>2023-05-18T12:33:01Z</time>
</trkpt>
<trkpt lat="49.318026937544346" lon="8.066564993932843">
<ele>499.79999999999995</ele>
<time>2023-05-18T12:33:02Z</time>
</trkpt>
<trkpt lat="49.31805493310094" lon="8.066617967560887">
<ele>500</ele>
<time>2023-05-18T12:33:03Z</time>
</trkpt>
<trkpt lat="49.31807496584952" lon="8.06666691787541">
<ele>500.20000000000005</ele>
<time>2023-05-18T12:33:04Z</time>
</trkpt>
<trkpt lat="49.31809692643583" lon="8.066714946180582">
<ele>500.4</ele>
<time>2023-05-18T12:33:05Z</time>
</trkpt>
<trkpt lat="49.31811796501279" lon="8.066757945343852">
<ele>500.6</ele>
<time>2023-05-18T12:33:06Z</time>
</trkpt>
<trkpt lat="49.31814294308424" lon="8.06679792702198">
<ele>501</ele>
<time>2023-05-18T12:33:07Z</time>
</trkpt>
<trkpt lat="49.31817194446921" lon="8.06684193201363">
<ele>501.20000000000005</ele>
<time>2023-05-18T12:33:08Z</time>
</trkpt>
<trkpt lat="49.318196922540665" lon="8.066886942833662">
<ele>501.4</ele>
<time>2023-05-18T12:33:09Z</time>
</trkpt>
<trkpt lat="49.31821192614734" lon="8.066914938390255">
<ele>501.6</ele>
<time>2023-05-18T12:33:10Z</time>
</trkpt>
<trkpt lat="49.31823195889592" lon="8.066941928118467">
<ele>502</ele>
<time>2023-05-18T12:33:11Z</time>
</trkpt>
<trkpt lat="49.31825492531061" lon="8.066971935331821">
<ele>502.20000000000005</ele>
<time>2023-05-18T12:33:12Z</time>
</trkpt>
<trkpt lat="49.31827797554433" lon="8.067002948373556">
<ele>502.4</ele>
<time>2023-05-18T12:33:13Z</time>
</trkpt>
<trkpt lat="49.318304965272546" lon="8.067034967243671">
<ele>502.6</ele>
<time>2023-05-18T12:33:14Z</time>
</trkpt>
<trkpt lat="49.318329943344" lon="8.067071931436658">
<ele>502.79999999999995</ele>
<time>2023-05-18T12:33:15Z</time>
</trkpt>
<trkpt lat="49.31835492141545" lon="8.067107973620296">
<ele>503</ele>
<time>2023-05-18T12:33:16Z</time>
</trkpt>
<trkpt lat="49.31837797164917" lon="8.067144937813282">
<ele>503.20000000000005</ele>
<time>2023-05-18T12:33:17Z</time>
</trkpt>
<trkpt lat="49.31840294972062" lon="8.06718491949141">
<ele>503.6</ele>
<time>2023-05-18T12:33:18Z</time>
</trkpt>
<trkpt lat="49.31842692196369" lon="8.06722791865468">
<ele>503.79999999999995</ele>
<time>2023-05-18T12:33:19Z</time>
</trkpt>
<trkpt lat="49.31844997219741" lon="8.06727192364633">
<ele>504</ele>
<time>2023-05-18T12:33:20Z</time>
</trkpt>
<trkpt lat="49.31846799328923" lon="8.06731198914349">
<ele>504.20000000000005</ele>
<time>2023-05-18T12:33:21Z</time>
</trkpt>
<trkpt lat="49.31848794221878" lon="8.067342918366194">
<ele>504.4</ele>
<time>2023-05-18T12:33:22Z</time>
</trkpt>
<trkpt lat="49.31850797496736" lon="8.067374937236309">
<ele>504.6</ele>
<time>2023-05-18T12:33:23Z</time>
</trkpt>
<trkpt lat="49.31852993555367" lon="8.067402932792902">
<ele>504.79999999999995</ele>
<time>2023-05-18T12:33:24Z</time>
</trkpt>
<trkpt lat="49.31855197995901" lon="8.067442998290062">
<ele>505.20000000000005</ele>
<time>2023-05-18T12:33:25Z</time>
</trkpt>
<trkpt lat="49.3185749463737" lon="8.067474933341146">
<ele>505.4</ele>
<time>2023-05-18T12:33:26Z</time>
</trkpt>
<trkpt lat="49.31859196163714" lon="8.067502928897738">
<ele>505.6</ele>
<time>2023-05-18T12:33:27Z</time>
</trkpt>
<trkpt lat="49.31861492805183" lon="8.067542994394898">
<ele>506</ele>
<time>2023-05-18T12:33:28Z</time>
</trkpt>
<trkpt lat="49.31863697245717" lon="8.067584987729788">
<ele>506.20000000000005</ele>
<time>2023-05-18T12:33:29Z</time>
</trkpt>
<trkpt lat="49.31865298189223" lon="8.067621951922774">
<ele>506.4</ele>
<time>2023-05-18T12:33:30Z</time>
</trkpt>
<trkpt lat="49.318672930821776" lon="8.067661933600903">
<ele>506.79999999999995</ele>
<time>2023-05-18T12:33:31Z</time>
</trkpt>
<trkpt lat="49.318692963570356" lon="8.067704932764173">
<ele>507</ele>
<time>2023-05-18T12:33:32Z</time>
</trkpt>
<trkpt lat="49.31871693581343" lon="8.067759918048978">
<ele>507.4</ele>
<time>2023-05-18T12:33:33Z</time>
</trkpt>
<trkpt lat="49.31873797439039" lon="8.067819932475686">
<ele>507.6</ele>
<time>2023-05-18T12:33:34Z</time>
</trkpt>
<trkpt lat="49.318757923319936" lon="8.067871984094381">
<ele>507.79999999999995</ele>
<time>2023-05-18T12:33:35Z</time>
</trkpt>
<trkpt lat="49.31877996772528" lon="8.067919928580523">
<ele>508.20000000000005</ele>
<time>2023-05-18T12:33:36Z</time>
</trkpt>
<trkpt lat="49.318797988817096" lon="8.067967956885695">
<ele>508.4</ele>
<time>2023-05-18T12:33:37Z</time>
</trkpt>
<trkpt lat="49.31881198659539" lon="8.068012967705727">
<ele>508.6</ele>
<time>2023-05-18T12:33:38Z</time>
</trkpt>
<trkpt lat="49.31882699020207" lon="8.068069964647293">
<ele>509</ele>
<time>2023-05-18T12:33:39Z</time>
</trkpt>
<trkpt lat="49.318841993808746" lon="8.068132996559143">
<ele>509.20000000000005</ele>
<time>2023-05-18T12:33:40Z</time>
</trkpt>
<trkpt lat="49.31885498575866" lon="8.068191921338439">
<ele>509.4</ele>
<time>2023-05-18T12:33:41Z</time>
</trkpt>
<trkpt lat="49.31886998936534" lon="8.068252941593528">
<ele>509.79999999999995</ele>
<time>2023-05-18T12:33:42Z</time>
</trkpt>
<trkpt lat="49.318882981315255" lon="8.068302981555462">
<ele>510</ele>
<time>2023-05-18T12:33:43Z</time>
</trkpt>
<trkpt lat="49.31889697909355" lon="8.068356961011887">
<ele>510.20000000000005</ele>
<time>2023-05-18T12:33:44Z</time>
</trkpt>
<trkpt lat="49.31890997104347" lon="8.06840792298317">
<ele>510.4</ele>
<time>2023-05-18T12:33:45Z</time>
</trkpt>
<trkpt lat="49.3189169280231" lon="8.068434996530414">
<ele>510.79999999999995</ele>
<time>2023-05-18T12:33:46Z</time>
</trkpt>
<trkpt lat="49.318926986306906" lon="8.068474978208542">
<ele>511</ele>
<time>2023-05-18T12:33:47Z</time>
</trkpt>
<trkpt lat="49.31893796660006" lon="8.06851495988667">
<ele>511.20000000000005</ele>
<time>2023-05-18T12:33:48Z</time>
</trkpt>
<trkpt lat="49.318949952721596" lon="8.068561982363462">
<ele>511.4</ele>
<time>2023-05-18T12:33:49Z</time>
</trkpt>
<trkpt lat="49.31896294467151" lon="8.068616967648268">
<ele>511.79999999999995</ele>
<time>2023-05-18T12:33:50Z</time>
</trkpt>
<trkpt lat="49.31897199712694" lon="8.068676982074976">
<ele>512</ele>
<time>2023-05-18T12:33:51Z</time>
</trkpt>
<trkpt lat="49.31897995993495" lon="8.068726938217878">
<ele>512.2</ele>
<time>2023-05-18T12:33:52Z</time>
</trkpt>
<trkpt lat="49.318992951884866" lon="8.06877194903791">
<ele>512.6</ele>
<time>2023-05-18T12:33:53Z</time>
</trkpt>
<trkpt lat="49.319009967148304" lon="8.068812936544418">
<ele>512.8</ele>
<time>2023-05-18T12:33:54Z</time>
</trkpt>
<trkpt lat="49.31901994161308" lon="8.068852918222547">
<ele>513.2</ele>
<time>2023-05-18T12:33:55Z</time>
</trkpt>
<trkpt lat="49.319032933562994" lon="8.068919973447919">
<ele>513.4</ele>
<time>2023-05-18T12:33:56Z</time>
</trkpt>
<trkpt lat="49.31904491968453" lon="8.06896791793406">
<ele>513.8</ele>
<time>2023-05-18T12:33:57Z</time>
</trkpt>
<trkpt lat="49.319052966311574" lon="8.069019969552755">
<ele>514</ele>
<time>2023-05-18T12:33:58Z</time>
</trkpt>
<trkpt lat="49.31906998157501" lon="8.06909498758614">
<ele>514.2</ele>
<time>2023-05-18T12:33:59Z</time>
</trkpt>
<trkpt lat="49.319079956039786" lon="8.069139998406172">
<ele>514.4</ele>
<time>2023-05-18T12:34:00Z</time>
</trkpt>
<trkpt lat="49.319096971303225" lon="8.069206969812512">
<ele>514.6</ele>
<time>2023-05-18T12:34:01Z</time>
</trkpt>
<trkpt lat="49.31910996325314" lon="8.06926497258246">
<ele>514.8</ele>
<time>2023-05-18T12:34:02Z</time>
</trkpt>
<trkpt lat="49.319122955203056" lon="8.069316940382123">
<ele>515</ele>
<time>2023-05-18T12:34:03Z</time>
</trkpt>
<trkpt lat="49.31913292966783" lon="8.069366980344057">
<ele>515.2</ele>
<time>2023-05-18T12:34:04Z</time>
</trkpt>
<trkpt lat="49.31914793327451" lon="8.069422971457243">
<ele>515.6</ele>
<time>2023-05-18T12:34:05Z</time>
</trkpt>
<trkpt lat="49.31915799155831" lon="8.06948198005557">
<ele>515.8</ele>
<time>2023-05-18T12:34:06Z</time>
</trkpt>
<trkpt lat="49.31917198933661" lon="8.069542916491628">
<ele>516</ele>
<time>2023-05-18T12:34:07Z</time>
</trkpt>
<trkpt lat="49.31918799877167" lon="8.069604942575097">
<ele>516.2</ele>
<time>2023-05-18T12:34:08Z</time>
</trkpt>
<trkpt lat="49.319206941872835" lon="8.06967199780047">
<ele>516.6</ele>
<time>2023-05-18T12:34:09Z</time>
</trkpt>
<trkpt lat="49.31922295130789" lon="8.069741986691952">
<ele>516.8</ele>
<time>2023-05-18T12:34:10Z</time>
</trkpt>
<trkpt lat="49.31923795491457" lon="8.069797977805138">
<ele>517.2</ele>
<time>2023-05-18T12:34:11Z</time>
</trkpt>
<trkpt lat="49.319251952692866" lon="8.06984793394804">
<ele>517.4</ele>
<time>2023-05-18T12:34:12Z</time>
</trkpt>
<trkpt lat="49.31926695629954" lon="8.069902919232845">
<ele>517.6</ele>
<time>2023-05-18T12:34:13Z</time>
</trkpt>
<trkpt lat="49.31927693076432" lon="8.069949941709638">
<ele>518</ele>
<time>2023-05-18T12:34:14Z</time>
</trkpt>
<trkpt lat="49.319292940199375" lon="8.070012973621488">
<ele>518.2</ele>
<time>2023-05-18T12:34:15Z</time>
</trkpt>
<trkpt lat="49.31930492632091" lon="8.070066953077912">
<ele>518.6</ele>
<time>2023-05-18T12:34:16Z</time>
</trkpt>
<trkpt lat="49.319312972947955" lon="8.070116993039846">
<ele>518.8</ele>
<time>2023-05-18T12:34:17Z</time>
</trkpt>
<trkpt lat="49.31931992992759" lon="8.070172984153032">
<ele>519</ele>
<time>2023-05-18T12:34:18Z</time>
</trkpt>
<trkpt lat="49.31932194158435" lon="8.070227969437838">
<ele>519.4</ele>
<time>2023-05-18T12:34:19Z</time>
</trkpt>
<trkpt lat="49.31932294741273" lon="8.070281948894262">
<ele>519.6</ele>
<time>2023-05-18T12:34:20Z</time>
</trkpt>
<trkpt lat="49.31932495906949" lon="8.070322936400771">
<ele>519.8</ele>
<time>2023-05-18T12:34:21Z</time>
</trkpt>
<trkpt lat="49.31932697072625" lon="8.070369958877563">
<ele>520</ele>
<time>2023-05-18T12:34:22Z</time>
</trkpt>
<trkpt lat="49.319337951019406" lon="8.070421926677227">
<ele>520.4</ele>
<time>2023-05-18T12:34:23Z</time>
</trkpt>
<trkpt lat="49.3193469196558" lon="8.070484958589077">
<ele>520.6</ele>
<time>2023-05-18T12:34:24Z</time>
</trkpt>
<trkpt lat="49.319357983767986" lon="8.070551929995418">
<ele>521</ele>
<time>2023-05-18T12:34:25Z</time>
</trkpt>
<trkpt lat="49.31937198154628" lon="8.070612950250506">
<ele>521.2</ele>
<time>2023-05-18T12:34:26Z</time>
</trkpt>
<trkpt lat="49.319377932697535" lon="8.070669947192073">
<ele>521.4</ele>
<time>2023-05-18T12:34:27Z</time>
</trkpt>
<trkpt lat="49.31939193047583" lon="8.07074697688222">
<ele>521.8</ele>
<time>2023-05-18T12:34:28Z</time>
</trkpt>
<trkpt lat="49.31940492242575" lon="8.07081495411694">
<ele>522</ele>
<time>2023-05-18T12:34:29Z</time>
</trkpt>
<trkpt lat="49.319416992366314" lon="8.070884943008423">
<ele>522.2</ele>
<time>2023-05-18T12:34:30Z</time>
</trkpt>
<trkpt lat="49.319421937689185" lon="8.070946969091892">
<ele>522.4</ele>
<time>2023-05-18T12:34:31Z</time>
</trkpt>
<trkpt lat="49.31943291798234" lon="8.07100497186184">
<ele>522.8</ele>
<time>2023-05-18T12:34:32Z</time>
</trkpt>
<trkpt lat="49.31943794712424" lon="8.071057945489883">
<ele>523</ele>
<time>2023-05-18T12:34:33Z</time>
</trkpt>
<trkpt lat="49.31944498792291" lon="8.071111924946308">
<ele>523.2</ele>
<time>2023-05-18T12:34:34Z</time>
</trkpt>
<trkpt lat="49.31945797987282" lon="8.071167999878526">
<ele>523.4</ele>
<time>2023-05-18T12:34:35Z</time>
</trkpt>
<trkpt lat="49.31947197765112" lon="8.071207981556654">
<ele>523.8</ele>
<time>2023-05-18T12:34:36Z</time>
</trkpt>
<trkpt lat="49.31948195211589" lon="8.071237988770008">
<ele>524</ele>
<time>2023-05-18T12:34:37Z</time>
</trkpt>
<trkpt lat="49.31949796155095" lon="8.071267995983362">
<ele>524.2</ele>
<time>2023-05-18T12:34:38Z</time>
</trkpt>
<trkpt lat="49.319507936015725" lon="8.071299931034446">
<ele>524.4000000000001</ele>
<time>2023-05-18T12:34:39Z</time>
</trkpt>
<trkpt lat="49.31951799429953" lon="8.071341924369335">
<ele>524.5999999999999</ele>
<time>2023-05-18T12:34:40Z</time>
</trkpt>
<trkpt lat="49.319529980421066" lon="8.071369919925928">
<ele>525</ele>
<time>2023-05-18T12:34:41Z</time>
</trkpt>
<trkpt lat="49.31953794322908" lon="8.07141493074596">
<ele>525.2</ele>
<time>2023-05-18T12:34:42Z</time>
</trkpt>
<trkpt lat="49.319551941007376" lon="8.07145792990923">
<ele>525.4000000000001</ele>
<time>2023-05-18T12:34:43Z</time>
</trkpt>
<trkpt lat="49.31955998763442" lon="8.07152196764946">
<ele>525.5999999999999</ele>
<time>2023-05-18T12:34:44Z</time>
</trkpt>
<trkpt lat="49.319569962099195" lon="8.071567984297872">
<ele>526</ele>
<time>2023-05-18T12:34:45Z</time>
</trkpt>
<trkpt lat="49.31958194822073" lon="8.071607965976">
<ele>526.2</ele>
<time>2023-05-18T12:34:46Z</time>
</trkpt>
<trkpt lat="49.319591922685504" lon="8.071644930168986">
<ele>526.4000000000001</ele>
<time>2023-05-18T12:34:47Z</time>
</trkpt>
<trkpt lat="49.319611955434084" lon="8.071702932938933">
<ele>526.8</ele>
<time>2023-05-18T12:34:48Z</time>
</trkpt>
<trkpt lat="49.3196299765259" lon="8.071764959022403">
<ele>527</ele>
<time>2023-05-18T12:34:49Z</time>
</trkpt>
<trkpt lat="49.31965193711221" lon="8.071824973449111">
<ele>527.2</ele>
<time>2023-05-18T12:34:50Z</time>
</trkpt>
<trkpt lat="49.31966995820403" lon="8.071879958733916">
<ele>527.4000000000001</ele>
<time>2023-05-18T12:34:51Z</time>
</trkpt>
<trkpt lat="49.31968295015395" lon="8.071921952068806">
<ele>527.8</ele>
<time>2023-05-18T12:34:52Z</time>
</trkpt>
<trkpt lat="49.319699965417385" lon="8.071961933746934">
<ele>528</ele>
<time>2023-05-18T12:34:53Z</time>
</trkpt>
<trkpt lat="49.31971698068082" lon="8.072001999244094">
<ele>528.2</ele>
<time>2023-05-18T12:34:54Z</time>
</trkpt>
<trkpt lat="49.31973692961037" lon="8.072044998407364">
<ele>528.5999999999999</ele>
<time>2023-05-18T12:34:55Z</time>
</trkpt>
<trkpt lat="49.31975293904543" lon="8.072082968428731">
<ele>528.8</ele>
<time>2023-05-18T12:34:56Z</time>
</trkpt>
<trkpt lat="49.319766936823726" lon="8.072119932621717">
<ele>529</ele>
<time>2023-05-18T12:34:57Z</time>
</trkpt>
<trkpt lat="49.31978294625878" lon="8.072157986462116">
<ele>529.2</ele>
<time>2023-05-18T12:34:58Z</time>
</trkpt>
<trkpt lat="49.319806918501854" lon="8.07220995426178">
<ele>529.5999999999999</ele>
<time>2023-05-18T12:34:59Z</time>
</trkpt>
<trkpt lat="49.319826951250434" lon="8.072247924283147">
<ele>529.8</ele>
<time>2023-05-18T12:35:00Z</time>
</trkpt>
<trkpt lat="49.31984497234225" lon="8.072281954810023">
<ele>530</ele>
<time>2023-05-18T12:35:01Z</time>
</trkpt>
<trkpt lat="49.319871962070465" lon="8.072321936488152">
<ele>530.2</ele>
<time>2023-05-18T12:35:02Z</time>
</trkpt>
<trkpt lat="49.319896940141916" lon="8.07235999032855">
<ele>530.4000000000001</ele>
<time>2023-05-18T12:35:03Z</time>
</trkpt>
<trkpt lat="49.31991797871888" lon="8.072399972006679">
<ele>530.5999999999999</ele>
<time>2023-05-18T12:35:04Z</time>
</trkpt>
<trkpt lat="49.319936921820045" lon="8.072434924542904">
<ele>531</ele>
<time>2023-05-18T12:35:05Z</time>
</trkpt>
<trkpt lat="49.31995192542672" lon="8.072462920099497">
<ele>531.2</ele>
<time>2023-05-18T12:35:06Z</time>
</trkpt>
<trkpt lat="49.319976987317204" lon="8.072507930919528">
<ele>531.4000000000001</ele>
<time>2023-05-18T12:35:07Z</time>
</trkpt>
<trkpt lat="49.320002971217036" lon="8.072541961446404">
<ele>531.5999999999999</ele>
<time>2023-05-18T12:35:08Z</time>
</trkpt>
<trkpt lat="49.320024931803346" lon="8.07257791981101">
<ele>531.8</ele>
<time>2023-05-18T12:35:09Z</time>
</trkpt>
<trkpt lat="49.320044964551926" lon="8.072607927024364">
<ele>532</ele>
<time>2023-05-18T12:35:10Z</time>
</trkpt>
<trkpt lat="49.320064997300506" lon="8.072636928409338">
<ele>532.2</ele>
<time>2023-05-18T12:35:11Z</time>
</trkpt>
<trkpt lat="49.320084946230054" lon="8.072654949501157">
<ele>532.4000000000001</ele>
<time>2023-05-18T12:35:12Z</time>
</trkpt>
<trkpt lat="49.32009994983673" lon="8.072671964764595">
<ele>532.8</ele>
<time>2023-05-18T12:35:13Z</time>
</trkpt>
<trkpt lat="49.32012492790818" lon="8.072711946442723">
<ele>533</ele>
<time>2023-05-18T12:35:14Z</time>
</trkpt>
<trkpt lat="49.32013993151486" lon="8.072742959484458">
<ele>533.2</ele>
<time>2023-05-18T12:35:15Z</time>
</trkpt>
<trkpt lat="49.320152923464775" lon="8.072771960869431">
<ele>533.5999999999999</ele>
<time>2023-05-18T12:35:16Z</time>
</trkpt>
<trkpt lat="49.32016792707145" lon="8.072799956426024">
<ele>533.8</ele>
<time>2023-05-18T12:35:17Z</time>
</trkpt>
<trkpt lat="49.32018695399165" lon="8.07283298112452">
<ele>534</ele>
<time>2023-05-18T12:35:18Z</time>
</trkpt>
<trkpt lat="49.32020497508347" lon="8.072857959195971">
<ele>534.2</ele>
<time>2023-05-18T12:35:19Z</time>
</trkpt>
<trkpt lat="49.32022199034691" lon="8.072884948924184">
<ele>534.4000000000001</ele>
<time>2023-05-18T12:35:20Z</time>
</trkpt>
<trkpt lat="49.320239927619696" lon="8.072912944480777">
<ele>534.5999999999999</ele>
<time>2023-05-18T12:35:21Z</time>
</trkpt>
<trkpt lat="49.32026297785342" lon="8.072944963350892">
<ele>534.8</ele>
<time>2023-05-18T12:35:22Z</time>
</trkpt>
<trkpt lat="49.320282926782966" lon="8.072971953079104">
<ele>535</ele>
<time>2023-05-18T12:35:23Z</time>
</trkpt>
<trkpt lat="49.32031293399632" lon="8.07300296612084">
<ele>535.2</ele>
<time>2023-05-18T12:35:24Z</time>
</trkpt>
<trkpt lat="49.320346964523196" lon="8.073051916435361">
<ele>535.4000000000001</ele>
<time>2023-05-18T12:35:25Z</time>
</trkpt>
<trkpt lat="49.320364985615015" lon="8.073076978325844">
<ele>535.5999999999999</ele>
<time>2023-05-18T12:35:26Z</time>
</trkpt>
<trkpt lat="49.3203829228878" lon="8.073102962225676">
<ele>536</ele>
<time>2023-05-18T12:35:27Z</time>
</trkpt>
<trkpt lat="49.320406978949904" lon="8.073144955560565">
<ele>536.2</ele>
<time>2023-05-18T12:35:28Z</time>
</trkpt>
<trkpt lat="49.3204349745065" lon="8.073192983865738">
<ele>536.4000000000001</ele>
<time>2023-05-18T12:35:29Z</time>
</trkpt>
<trkpt lat="49.32046196423471" lon="8.07321997359395">
<ele>536.5999999999999</ele>
<time>2023-05-18T12:35:30Z</time>
</trkpt>
<trkpt lat="49.32048794813454" lon="8.073256937786937">
<ele>536.8</ele>
<time>2023-05-18T12:35:31Z</time>
</trkpt>
<trkpt lat="49.32050295174122" lon="8.073279988020658">
<ele>537</ele>
<time>2023-05-18T12:35:32Z</time>
</trkpt>
<trkpt lat="49.32051996700466" lon="8.073289962485433">
<ele>537.2</ele>
<time>2023-05-18T12:35:33Z</time>
</trkpt>
<trkpt lat="49.320541927590966" lon="8.073316952213645">
<ele>537.5999999999999</ele>
<time>2023-05-18T12:35:34Z</time>
</trkpt>
<trkpt lat="49.32056698948145" lon="8.073346959426999">
<ele>537.8</ele>
<time>2023-05-18T12:35:35Z</time>
</trkpt>
<trkpt lat="49.32059297338128" lon="8.073379984125495">
<ele>538</ele>
<time>2023-05-18T12:35:36Z</time>
</trkpt>
<trkpt lat="49.32061694562435" lon="8.073412925004959">
<ele>538.4000000000001</ele>
<time>2023-05-18T12:35:37Z</time>
</trkpt>
<trkpt lat="49.32063999585807" lon="8.073444943875074">
<ele>538.5999999999999</ele>
<time>2023-05-18T12:35:38Z</time>
</trkpt>
<trkpt lat="49.320666985586286" lon="8.073482997715473">
<ele>538.8</ele>
<time>2023-05-18T12:35:39Z</time>
</trkpt>
<trkpt lat="49.32069992646575" lon="8.073534965515137">
<ele>539.2</ele>
<time>2023-05-18T12:35:40Z</time>
</trkpt>
<trkpt lat="49.32072498835623" lon="8.073557931929827">
<ele>539.4000000000001</ele>
<time>2023-05-18T12:35:41Z</time>
</trkpt>
<trkpt lat="49.320756923407316" lon="8.073602942749858">
<ele>539.5999999999999</ele>
<time>2023-05-18T12:35:42Z</time>
</trkpt>
<trkpt lat="49.32078693062067" lon="8.073641918599606">
<ele>539.8</ele>
<time>2023-05-18T12:35:43Z</time>
</trkpt>
<trkpt lat="49.320812998339534" lon="8.073684917762876">
<ele>540</ele>
<time>2023-05-18T12:35:44Z</time>
</trkpt>
<trkpt lat="49.320836970582604" lon="8.073709979653358">
<ele>540.2</ele>
<time>2023-05-18T12:35:45Z</time>
</trkpt>
<trkpt lat="49.320859936997294" lon="8.073726994916797">
<ele>540.4000000000001</ele>
<time>2023-05-18T12:35:46Z</time>
</trkpt>
<trkpt lat="49.32088994421065" lon="8.07375499047339">
<ele>540.5999999999999</ele>
<time>2023-05-18T12:35:47Z</time>
</trkpt>
<trkpt lat="49.32091693393886" lon="8.07377996854484">
<ele>540.8</ele>
<time>2023-05-18T12:35:48Z</time>
</trkpt>
<trkpt lat="49.320944929495454" lon="8.073816932737827">
<ele>541</ele>
<time>2023-05-18T12:35:49Z</time>
</trkpt>
<trkpt lat="49.320971919223666" lon="8.073846939951181">
<ele>541.2</ele>
<time>2023-05-18T12:35:50Z</time>
</trkpt>
<trkpt lat="49.32099295780063" lon="8.073871918022633">
<ele>541.4000000000001</ele>
<time>2023-05-18T12:35:51Z</time>
</trkpt>
<trkpt lat="49.321011984720826" lon="8.07388499379158">
<ele>541.4000000000001</ele>
<time>2023-05-18T12:35:52Z</time>
</trkpt>
<trkpt lat="49.32103696279228" lon="8.07390796020627">
<ele>541.5999999999999</ele>
<time>2023-05-18T12:35:53Z</time>
</trkpt>
<trkpt lat="49.32105699554086" lon="8.073924975469708">
<ele>541.8</ele>
<time>2023-05-18T12:35:54Z</time>
</trkpt>
<trkpt lat="49.321076944470406" lon="8.073936961591244">
<ele>542</ele>
<time>2023-05-18T12:35:55Z</time>
</trkpt>
<trkpt lat="49.321097983047366" lon="8.073957916349173">
<ele>542.2</ele>
<time>2023-05-18T12:35:56Z</time>
</trkpt>
<trkpt lat="49.32112296111882" lon="8.073991946876049">
<ele>542.4000000000001</ele>
<time>2023-05-18T12:35:57Z</time>
</trkpt>
<trkpt lat="49.321139976382256" lon="8.07401499710977">
<ele>542.5999999999999</ele>
<time>2023-05-18T12:35:58Z</time>
</trkpt>
<trkpt lat="49.32117199525237" lon="8.074052967131138">
<ele>542.8</ele>
<time>2023-05-18T12:35:59Z</time>
</trkpt>
<trkpt lat="49.321202924475074" lon="8.07407995685935">
<ele>543</ele>
<time>2023-05-18T12:36:00Z</time>
</trkpt>
<trkpt lat="49.32123192586005" lon="8.074097977951169">
<ele>543</ele>
<time>2023-05-18T12:36:01Z</time>
</trkpt>
<trkpt lat="49.32125799357891" lon="8.074117926880717">
<ele>543.2</ele>
<time>2023-05-18T12:36:02Z</time>
</trkpt>
<trkpt lat="49.32128791697323" lon="8.074139971286058">
<ele>543.5999999999999</ele>
<time>2023-05-18T12:36:03Z</time>
</trkpt>
<trkpt lat="49.321309961378574" lon="8.074154974892735">
<ele>543.8</ele>
<time>2023-05-18T12:36:04Z</time>
</trkpt>
<trkpt lat="49.32132798247039" lon="8.074167966842651">
<ele>544</ele>
<time>2023-05-18T12:36:05Z</time>
</trkpt>
<trkpt lat="49.32134499773383" lon="8.074174923822284">
<ele>544.2</ele>
<time>2023-05-18T12:36:06Z</time>
</trkpt>
<trkpt lat="49.3213829677552" lon="8.074214989319444">
<ele>544.4000000000001</ele>
<time>2023-05-18T12:36:07Z</time>
</trkpt>
<trkpt lat="49.32142697274685" lon="8.074261927977204">
<ele>544.5999999999999</ele>
<time>2023-05-18T12:36:08Z</time>
</trkpt>
<trkpt lat="49.32144792750478" lon="8.074296964332461">
<ele>544.8</ele>
<time>2023-05-18T12:36:09Z</time>
</trkpt>
<trkpt lat="49.32146695442498" lon="8.074321942403913">
<ele>545</ele>
<time>2023-05-18T12:36:10Z</time>
</trkpt>
<trkpt lat="49.32149193249643" lon="8.074347926303744">
<ele>545.4000000000001</ele>
<time>2023-05-18T12:36:11Z</time>
</trkpt>
<trkpt lat="49.32151699438691" lon="8.074377933517098">
<ele>545.5999999999999</ele>
<time>2023-05-18T12:36:12Z</time>
</trkpt>
<trkpt lat="49.3215349316597" lon="8.074406934902072">
<ele>545.8</ele>
<time>2023-05-18T12:36:13Z</time>
</trkpt>
<trkpt lat="49.32155194692314" lon="8.074432918801904">
<ele>546</ele>
<time>2023-05-18T12:36:14Z</time>
</trkpt>
<trkpt lat="49.321567956358194" lon="8.074456974864006">
<ele>546.2</ele>
<time>2023-05-18T12:36:15Z</time>
</trkpt>
<trkpt lat="49.321591928601265" lon="8.074482958763838">
<ele>546.4000000000001</ele>
<time>2023-05-18T12:36:16Z</time>
</trkpt>
<trkpt lat="49.32160793803632" lon="8.074506931006908">
<ele>546.5999999999999</ele>
<time>2023-05-18T12:36:17Z</time>
</trkpt>
<trkpt lat="49.321622941643" lon="8.07452998124063">
<ele>546.8</ele>
<time>2023-05-18T12:36:18Z</time>
</trkpt>
<trkpt lat="49.32164498604834" lon="8.074574992060661">
<ele>547</ele>
<time>2023-05-18T12:36:19Z</time>
</trkpt>
<trkpt lat="49.32166292332113" lon="8.074602987617254">
<ele>547</ele>
<time>2023-05-18T12:36:20Z</time>
</trkpt>
<trkpt lat="49.32168697938323" lon="8.074641963467002">
<ele>547.2</ele>
<time>2023-05-18T12:36:21Z</time>
</trkpt>
<trkpt lat="49.32170994579792" lon="8.074667947366834">
<ele>547.4000000000001</ele>
<time>2023-05-18T12:36:22Z</time>
</trkpt>
<trkpt lat="49.32173693552613" lon="8.074706923216581">
<ele>547.5999999999999</ele>
<time>2023-05-18T12:36:23Z</time>
</trkpt>
<trkpt lat="49.321764931082726" lon="8.074746988713741">
<ele>547.8</ele>
<time>2023-05-18T12:36:24Z</time>
</trkpt>
<trkpt lat="49.32178999297321" lon="8.074777917936444">
<ele>548</ele>
<time>2023-05-18T12:36:25Z</time>
</trkpt>
<trkpt lat="49.32180994190276" lon="8.074802979826927">
<ele>548.2</ele>
<time>2023-05-18T12:36:26Z</time>
</trkpt>
<trkpt lat="49.32182997465134" lon="8.074832987040281">
<ele>548.4000000000001</ele>
<time>2023-05-18T12:36:27Z</time>
</trkpt>
<trkpt lat="49.321851935237646" lon="8.074857965111732">
<ele>548.5999999999999</ele>
<time>2023-05-18T12:36:28Z</time>
</trkpt>
<trkpt lat="49.32187297381461" lon="8.074882943183184">
<ele>548.8</ele>
<time>2023-05-18T12:36:29Z</time>
</trkpt>
<trkpt lat="49.32189795188606" lon="8.074911944568157">
<ele>549</ele>
<time>2023-05-18T12:36:30Z</time>
</trkpt>
<trkpt lat="49.32192997075617" lon="8.074947986751795">
<ele>549.2</ele>
<time>2023-05-18T12:36:31Z</time>
</trkpt>
<trkpt lat="49.32195997796953" lon="8.07498293928802">
<ele>549.5999999999999</ele>
<time>2023-05-18T12:36:32Z</time>
</trkpt>
<trkpt lat="49.32198193855584" lon="8.075017975643277">
<ele>549.8</ele>
<time>2023-05-18T12:36:33Z</time>
</trkpt>
<trkpt lat="49.32200993411243" lon="8.075056951493025">
<ele>550</ele>
<time>2023-05-18T12:36:34Z</time>
</trkpt>
<trkpt lat="49.32202795520425" lon="8.075094921514392">
<ele>550.2</ele>
<time>2023-05-18T12:36:35Z</time>
</trkpt>
<trkpt lat="49.32204999960959" lon="8.075139932334423">
<ele>550.5999999999999</ele>
<time>2023-05-18T12:36:36Z</time>
</trkpt>
<trkpt lat="49.322062991559505" lon="8.075186954811215">
<ele>550.8</ele>
<time>2023-05-18T12:36:37Z</time>
</trkpt>
<trkpt lat="49.32206994853914" lon="8.075226936489344">
<ele>551</ele>
<time>2023-05-18T12:36:38Z</time>
</trkpt>
<trkpt lat="49.32208796963096" lon="8.0752619728446">
<ele>551.2</ele>
<time>2023-05-18T12:36:39Z</time>
</trkpt>
<trkpt lat="49.322104984894395" lon="8.075296925380826">
<ele>551.4000000000001</ele>
<time>2023-05-18T12:36:40Z</time>
</trkpt>
<trkpt lat="49.32211697101593" lon="8.075331961736083">
<ele>551.5999999999999</ele>
<time>2023-05-18T12:36:41Z</time>
</trkpt>
<trkpt lat="49.322126945480704" lon="8.075367920100689">
<ele>551.8</ele>
<time>2023-05-18T12:36:42Z</time>
</trkpt>
<trkpt lat="49.32213499210775" lon="8.075399938970804">
<ele>552</ele>
<time>2023-05-18T12:36:43Z</time>
</trkpt>
<trkpt lat="49.322147984057665" lon="8.075436986982822">
<ele>552.2</ele>
<time>2023-05-18T12:36:44Z</time>
</trkpt>
<trkpt lat="49.322152929380536" lon="8.075467916205525">
<ele>552.4000000000001</ele>
<time>2023-05-18T12:36:45Z</time>
</trkpt>
<trkpt lat="49.32216198183596" lon="8.075504964217544">
<ele>552.5999999999999</ele>
<time>2023-05-18T12:36:46Z</time>
</trkpt>
<trkpt lat="49.32216198183596" lon="8.075544945895672">
<ele>552.8</ele>
<time>2023-05-18T12:36:47Z</time>
</trkpt>
<trkpt lat="49.32216692715883" lon="8.0755849275738">
<ele>553</ele>
<time>2023-05-18T12:36:48Z</time>
</trkpt>
<trkpt lat="49.32217698544264" lon="8.07562792673707">
<ele>553.2</ele>
<time>2023-05-18T12:36:49Z</time>
</trkpt>
<trkpt lat="49.32218494825065" lon="8.07566799223423">
<ele>553.4000000000001</ele>
<time>2023-05-18T12:36:50Z</time>
</trkpt>
<trkpt lat="49.32218796573579" lon="8.075706968083978">
<ele>553.4000000000001</ele>
<time>2023-05-18T12:36:51Z</time>
</trkpt>
<trkpt lat="49.322192994877696" lon="8.075749967247248">
<ele>553.5999999999999</ele>
<time>2023-05-18T12:36:52Z</time>
</trkpt>
<trkpt lat="49.32220296934247" lon="8.075794978067279">
<ele>553.8</ele>
<time>2023-05-18T12:36:53Z</time>
</trkpt>
<trkpt lat="49.322212943807244" lon="8.075829930603504">
<ele>554</ele>
<time>2023-05-18T12:36:54Z</time>
</trkpt>
<trkpt lat="49.32221998460591" lon="8.075872929766774">
<ele>554.2</ele>
<time>2023-05-18T12:36:55Z</time>
</trkpt>
<trkpt lat="49.32222794741392" lon="8.07590696029365">
<ele>554.4000000000001</ele>
<time>2023-05-18T12:36:56Z</time>
</trkpt>
<trkpt lat="49.322231970727444" lon="8.075942918658257">
<ele>554.4000000000001</ele>
<time>2023-05-18T12:36:57Z</time>
</trkpt>
<trkpt lat="49.322237921878695" lon="8.075984995812178">
<ele>554.5999999999999</ele>
<time>2023-05-18T12:36:58Z</time>
</trkpt>
<trkpt lat="49.32223699986935" lon="8.07603495195508">
<ele>554.8</ele>
<time>2023-05-18T12:36:59Z</time>
</trkpt>
<trkpt lat="49.32223993353546" lon="8.076086919754744">
<ele>555</ele>
<time>2023-05-18T12:37:00Z</time>
</trkpt>
<trkpt lat="49.32224496267736" lon="8.076124973595142">
<ele>555.2</ele>
<time>2023-05-18T12:37:01Z</time>
</trkpt>
<trkpt lat="49.3222429510206" lon="8.076159926131368">
<ele>555.2</ele>
<time>2023-05-18T12:37:02Z</time>
</trkpt>
<trkpt lat="49.32224496267736" lon="8.076214995235205">
<ele>555.4000000000001</ele>
<time>2023-05-18T12:37:03Z</time>
</trkpt>
<trkpt lat="49.3222429510206" lon="8.076276937499642">
<ele>555.5999999999999</ele>
<time>2023-05-18T12:37:04Z</time>
</trkpt>
<trkpt lat="49.32224194519222" lon="8.076327983289957">
<ele>555.8</ele>
<time>2023-05-18T12:37:05Z</time>
</trkpt>
<trkpt lat="49.3222429510206" lon="8.076381962746382">
<ele>555.8</ele>
<time>2023-05-18T12:37:06Z</time>
</trkpt>
<trkpt lat="49.3222429510206" lon="8.076417921110988">
<ele>556</ele>
<time>2023-05-18T12:37:07Z</time>
</trkpt>
<trkpt lat="49.32224194519222" lon="8.076452957466245">
<ele>556.2</ele>
<time>2023-05-18T12:37:08Z</time>
</trkpt>
<trkpt lat="49.32223993353546" lon="8.076497968286276">
<ele>556.2</ele>
<time>2023-05-18T12:37:09Z</time>
</trkpt>
<trkpt lat="49.322234988212585" lon="8.076534932479262">
<ele>556.4000000000001</ele>
<time>2023-05-18T12:37:10Z</time>
</trkpt>
<trkpt lat="49.322231970727444" lon="8.076584972441196">
<ele>556.5999999999999</ele>
<time>2023-05-18T12:37:11Z</time>
</trkpt>
<trkpt lat="49.322231970727444" lon="8.076632916927338">
<ele>556.5999999999999</ele>
<time>2023-05-18T12:37:12Z</time>
</trkpt>
<trkpt lat="49.32222492992878" lon="8.076677927747369">
<ele>556.8</ele>
<time>2023-05-18T12:37:13Z</time>
</trkpt>
<trkpt lat="49.32221797294915" lon="8.076724950224161">
<ele>557</ele>
<time>2023-05-18T12:37:14Z</time>
</trkpt>
<trkpt lat="49.322211937978864" lon="8.076771972700953">
<ele>557.2</ele>
<time>2023-05-18T12:37:15Z</time>
</trkpt>
<trkpt lat="49.322214955464005" lon="8.076832992956042">
<ele>557.4000000000001</ele>
<time>2023-05-18T12:37:16Z</time>
</trkpt>
<trkpt lat="49.32220799848437" lon="8.076877919957042">
<ele>557.5999999999999</ele>
<time>2023-05-18T12:37:17Z</time>
</trkpt>
<trkpt lat="49.32220498099923" lon="8.076919997110963">
<ele>557.5999999999999</ele>
<time>2023-05-18T12:37:18Z</time>
</trkpt>
<trkpt lat="49.32220699265599" lon="8.076951932162046">
<ele>557.8</ele>
<time>2023-05-18T12:37:19Z</time>
</trkpt>
<trkpt lat="49.32220296934247" lon="8.076997948810458">
<ele>558</ele>
<time>2023-05-18T12:37:20Z</time>
</trkpt>
<trkpt lat="49.32219995185733" lon="8.07704497128725">
<ele>558.2</ele>
<time>2023-05-18T12:37:21Z</time>
</trkpt>
<trkpt lat="49.32219693437219" lon="8.077084952965379">
<ele>558.2</ele>
<time>2023-05-18T12:37:22Z</time>
</trkpt>
<trkpt lat="49.322192994877696" lon="8.077119989320636">
<ele>558.4000000000001</ele>
<time>2023-05-18T12:37:23Z</time>
</trkpt>
<trkpt lat="49.32218796573579" lon="8.077162988483906">
<ele>558.5999999999999</ele>
<time>2023-05-18T12:37:24Z</time>
</trkpt>
<trkpt lat="49.32218494825065" lon="8.077206993475556">
<ele>558.8</ele>
<time>2023-05-18T12:37:25Z</time>
</trkpt>
<trkpt lat="49.32218193076551" lon="8.07725795544684">
<ele>558.8</ele>
<time>2023-05-18T12:37:26Z</time>
</trkpt>
<trkpt lat="49.32217497378588" lon="8.077306989580393">
<ele>559</ele>
<time>2023-05-18T12:37:27Z</time>
</trkpt>
<trkpt lat="49.322171956300735" lon="8.077352922409773">
<ele>559.2</ele>
<time>2023-05-18T12:37:28Z</time>
</trkpt>
<trkpt lat="49.32216298766434" lon="8.077401956543326">
<ele>559.4000000000001</ele>
<time>2023-05-18T12:37:29Z</time>
</trkpt>
<trkpt lat="49.322149995714426" lon="8.077456941828132">
<ele>559.5999999999999</ele>
<time>2023-05-18T12:37:30Z</time>
</trkpt>
<trkpt lat="49.322146978229284" lon="8.077501952648163">
<ele>559.8</ele>
<time>2023-05-18T12:37:31Z</time>
</trkpt>
<trkpt lat="49.32214295491576" lon="8.077549980953336">
<ele>559.8</ele>
<time>2023-05-18T12:37:32Z</time>
</trkpt>
<trkpt lat="49.32213298045099" lon="8.077594991773367">
<ele>560</ele>
<time>2023-05-18T12:37:33Z</time>
</trkpt>
<trkpt lat="49.3221219163388" lon="8.077642936259508">
<ele>560.2</ele>
<time>2023-05-18T12:37:34Z</time>
</trkpt>
<trkpt lat="49.32211194187403" lon="8.077684929594398">
<ele>560.4000000000001</ele>
<time>2023-05-18T12:37:35Z</time>
</trkpt>
<trkpt lat="49.32209693826735" lon="8.077717954292893">
<ele>560.4000000000001</ele>
<time>2023-05-18T12:37:36Z</time>
</trkpt>
<trkpt lat="49.32208193466067" lon="8.07775198481977">
<ele>560.5999999999999</ele>
<time>2023-05-18T12:37:37Z</time>
</trkpt>
<trkpt lat="49.3220719601959" lon="8.07779498398304">
<ele>560.8</ele>
<time>2023-05-18T12:37:38Z</time>
</trkpt>
<trkpt lat="49.322062991559505" lon="8.077839994803071">
<ele>561</ele>
<time>2023-05-18T12:37:39Z</time>
</trkpt>
<trkpt lat="49.322061985731125" lon="8.07790495455265">
<ele>561.2</ele>
<time>2023-05-18T12:37:40Z</time>
</trkpt>
<trkpt lat="49.3220579624176" lon="8.077949965372682">
<ele>561.2</ele>
<time>2023-05-18T12:37:41Z</time>
</trkpt>
<trkpt lat="49.32205695658922" lon="8.077997993677855">
<ele>561.4000000000001</ele>
<time>2023-05-18T12:37:42Z</time>
</trkpt>
<trkpt lat="49.32205695658922" lon="8.078037975355983">
<ele>561.5999999999999</ele>
<time>2023-05-18T12:37:43Z</time>
</trkpt>
<trkpt lat="49.322066931053996" lon="8.07807695120573">
<ele>561.8</ele>
<time>2023-05-18T12:37:44Z</time>
</trkpt>
<trkpt lat="49.32206994853914" lon="8.07811793871224">
<ele>561.8</ele>
<time>2023-05-18T12:37:45Z</time>
</trkpt>
<trkpt lat="49.32207296602428" lon="8.078146940097213">
<ele>562</ele>
<time>2023-05-18T12:37:46Z</time>
</trkpt>
<trkpt lat="49.32207296602428" lon="8.078174935653806">
<ele>562.2</ele>
<time>2023-05-18T12:37:47Z</time>
</trkpt>
<trkpt lat="49.32207497768104" lon="8.078211983665824">
<ele>562.4000000000001</ele>
<time>2023-05-18T12:37:48Z</time>
</trkpt>
<trkpt lat="49.32206994853914" lon="8.078242996707559">
<ele>562.4000000000001</ele>
<time>2023-05-18T12:37:49Z</time>
</trkpt>
<trkpt lat="49.32206994853914" lon="8.078294964507222">
<ele>562.5999999999999</ele>
<time>2023-05-18T12:37:50Z</time>
</trkpt>
<trkpt lat="49.32207296602428" lon="8.078337963670492">
<ele>562.8</ele>
<time>2023-05-18T12:37:51Z</time>
</trkpt>
<trkpt lat="49.3220769893378" lon="8.078384986147285">
<ele>563</ele>
<time>2023-05-18T12:37:52Z</time>
</trkpt>
<trkpt lat="49.32208193466067" lon="8.078437959775329">
<ele>563</ele>
<time>2023-05-18T12:37:53Z</time>
</trkpt>
<trkpt lat="49.322082940489054" lon="8.078484982252121">
<ele>563.2</ele>
<time>2023-05-18T12:37:54Z</time>
</trkpt>
<trkpt lat="49.322082940489054" lon="8.078536950051785">
<ele>563.4000000000001</ele>
<time>2023-05-18T12:37:55Z</time>
</trkpt>
<trkpt lat="49.32208796963096" lon="8.078584978356957">
<ele>563.5999999999999</ele>
<time>2023-05-18T12:37:56Z</time>
</trkpt>
<trkpt lat="49.32209299877286" lon="8.078622948378325">
<ele>563.5999999999999</ele>
<time>2023-05-18T12:37:57Z</time>
</trkpt>
<trkpt lat="49.32210196740925" lon="8.078661924228072">
<ele>563.8</ele>
<time>2023-05-18T12:37:58Z</time>
</trkpt>
<trkpt lat="49.322107918560505" lon="8.078704923391342">
<ele>564</ele>
<time>2023-05-18T12:37:59Z</time>
</trkpt>
<trkpt lat="49.32211294770241" lon="8.078744988888502">
<ele>564.2</ele>
<time>2023-05-18T12:38:00Z</time>
</trkpt>
<trkpt lat="49.32211294770241" lon="8.078791927546263">
<ele>564.2</ele>
<time>2023-05-18T12:38:01Z</time>
</trkpt>
<trkpt lat="49.32211797684431" lon="8.078829981386662">
<ele>564.4000000000001</ele>
<time>2023-05-18T12:38:02Z</time>
</trkpt>
<trkpt lat="49.322129962965846" lon="8.078894941136241">
<ele>564.5999999999999</ele>
<time>2023-05-18T12:38:03Z</time>
</trkpt>
<trkpt lat="49.32213499210775" lon="8.078941963613033">
<ele>564.8</ele>
<time>2023-05-18T12:38:04Z</time>
</trkpt>
<trkpt lat="49.32213792577386" lon="8.07897792197764">
<ele>565</ele>
<time>2023-05-18T12:38:05Z</time>
</trkpt>
<trkpt lat="49.32214496657252" lon="8.079027961939573">
<ele>565</ele>
<time>2023-05-18T12:38:06Z</time>
</trkpt>
<trkpt lat="49.322152929380536" lon="8.079079929739237">
<ele>565.2</ele>
<time>2023-05-18T12:38:07Z</time>
</trkpt>
<trkpt lat="49.32216198183596" lon="8.079124940559268">
<ele>565.4000000000001</ele>
<time>2023-05-18T12:38:08Z</time>
</trkpt>
<trkpt lat="49.32217799127102" lon="8.079181937500834">
<ele>565.5999999999999</ele>
<time>2023-05-18T12:38:09Z</time>
</trkpt>
<trkpt lat="49.322189977392554" lon="8.079246981069446">
<ele>565.8</ele>
<time>2023-05-18T12:38:10Z</time>
</trkpt>
<trkpt lat="49.32220296934247" lon="8.079302972182631">
<ele>566</ele>
<time>2023-05-18T12:38:11Z</time>
</trkpt>
<trkpt lat="49.32220799848437" lon="8.079359969124198">
<ele>566.2</ele>
<time>2023-05-18T12:38:12Z</time>
</trkpt>
<trkpt lat="49.32221696712077" lon="8.079416966065764">
<ele>566.4000000000001</ele>
<time>2023-05-18T12:38:13Z</time>
</trkpt>
<trkpt lat="49.32222291827202" lon="8.079459965229034">
<ele>566.5999999999999</ele>
<time>2023-05-18T12:38:14Z</time>
</trkpt>
<trkpt lat="49.32222995907068" lon="8.079507993534207">
<ele>566.8</ele>
<time>2023-05-18T12:38:15Z</time>
</trkpt>
<trkpt lat="49.322231970727444" lon="8.07953699491918">
<ele>567</ele>
<time>2023-05-18T12:38:16Z</time>
</trkpt>
<trkpt lat="49.32224194519222" lon="8.079582927748561">
<ele>567.2</ele>
<time>2023-05-18T12:38:17Z</time>
</trkpt>
<trkpt lat="49.32225292548537" lon="8.079626932740211">
<ele>567.4000000000001</ele>
<time>2023-05-18T12:38:18Z</time>
</trkpt>
<trkpt lat="49.3222619779408" lon="8.079679990187287">
<ele>567.8</ele>
<time>2023-05-18T12:38:19Z</time>
</trkpt>
<trkpt lat="49.32226499542594" lon="8.079721983522177">
<ele>568</ele>
<time>2023-05-18T12:38:20Z</time>
</trkpt>
<trkpt lat="49.32226692326367" lon="8.079756936058402">
<ele>568.2</ele>
<time>2023-05-18T12:38:21Z</time>
</trkpt>
<trkpt lat="49.322277987375855" lon="8.079797923564911">
<ele>568.4000000000001</ele>
<time>2023-05-18T12:38:22Z</time>
</trkpt>
<trkpt lat="49.32228997349739" lon="8.07983798906207">
<ele>568.5999999999999</ele>
<time>2023-05-18T12:38:23Z</time>
</trkpt>
<trkpt lat="49.32230296544731" lon="8.079877970740199">
<ele>569</ele>
<time>2023-05-18T12:38:24Z</time>
</trkpt>
<trkpt lat="49.32231293991208" lon="8.07992298156023">
<ele>569.2</ele>
<time>2023-05-18T12:38:25Z</time>
</trkpt>
<trkpt lat="49.32232299819589" lon="8.07996497489512">
<ele>569.4000000000001</ele>
<time>2023-05-18T12:38:26Z</time>
</trkpt>
<trkpt lat="49.32232995517552" lon="8.079999927431345">
<ele>569.5999999999999</ele>
<time>2023-05-18T12:38:27Z</time>
</trkpt>
<trkpt lat="49.32233699597418" lon="8.080037981271744">
<ele>569.8</ele>
<time>2023-05-18T12:38:28Z</time>
</trkpt>
<trkpt lat="49.32234697043896" lon="8.080079974606633">
<ele>570</ele>
<time>2023-05-18T12:38:29Z</time>
</trkpt>
<trkpt lat="49.32235292159021" lon="8.080114927142859">
<ele>570.4000000000001</ele>
<time>2023-05-18T12:38:30Z</time>
</trkpt>
<trkpt lat="49.32235795073211" lon="8.080149963498116">
<ele>570.5999999999999</ele>
<time>2023-05-18T12:38:31Z</time>
</trkpt>
<trkpt lat="49.322362979874015" lon="8.080197991803288">
<ele>570.8</ele>
<time>2023-05-18T12:38:32Z</time>
</trkpt>
<trkpt lat="49.32237496599555" lon="8.080242918804288">
<ele>571</ele>
<time>2023-05-18T12:38:33Z</time>
</trkpt>
<trkpt lat="49.322384940460324" lon="8.080282984301448">
<ele>571.2</ele>
<time>2023-05-18T12:38:34Z</time>
</trkpt>
<trkpt lat="49.32239298708737" lon="8.080324977636337">
<ele>571.4000000000001</ele>
<time>2023-05-18T12:38:35Z</time>
</trkpt>
<trkpt lat="49.32240296155214" lon="8.080381974577904">
<ele>571.5999999999999</ele>
<time>2023-05-18T12:38:36Z</time>
</trkpt>
<trkpt lat="49.322407990694046" lon="8.080422962084413">
<ele>571.8</ele>
<time>2023-05-18T12:38:37Z</time>
</trkpt>
<trkpt lat="49.32241494767368" lon="8.080464955419302">
<ele>572</ele>
<time>2023-05-18T12:38:38Z</time>
</trkpt>
<trkpt lat="49.32242299430072" lon="8.080506948754191">
<ele>572.2</ele>
<time>2023-05-18T12:38:39Z</time>
</trkpt>
<trkpt lat="49.3224329687655" lon="8.080562939867377">
<ele>572.4000000000001</ele>
<time>2023-05-18T12:38:40Z</time>
</trkpt>
<trkpt lat="49.32244294323027" lon="8.080601999536157">
<ele>572.5999999999999</ele>
<time>2023-05-18T12:38:41Z</time>
</trkpt>
<trkpt lat="49.322447972372174" lon="8.08062999509275">
<ele>572.8</ele>
<time>2023-05-18T12:38:42Z</time>
</trkpt>
<trkpt lat="49.322452917695045" lon="8.080666959285736">
<ele>573</ele>
<time>2023-05-18T12:38:43Z</time>
</trkpt>
<trkpt lat="49.32246197015047" lon="8.080714987590909">
<ele>573.2</ele>
<time>2023-05-18T12:38:44Z</time>
</trkpt>
<trkpt lat="49.32247697375715" lon="8.080772990360856">
<ele>573.4000000000001</ele>
<time>2023-05-18T12:38:45Z</time>
</trkpt>
<trkpt lat="49.3224879540503" lon="8.080822946503758">
<ele>573.5999999999999</ele>
<time>2023-05-18T12:38:46Z</time>
</trkpt>
<trkpt lat="49.32250295765698" lon="8.08086996898055">
<ele>573.8</ele>
<time>2023-05-18T12:38:47Z</time>
</trkpt>
<trkpt lat="49.322514943778515" lon="8.080909950658679">
<ele>574</ele>
<time>2023-05-18T12:38:48Z</time>
</trkpt>
<trkpt lat="49.32252491824329" lon="8.080949932336807">
<ele>574.2</ele>
<time>2023-05-18T12:38:49Z</time>
</trkpt>
<trkpt lat="49.322532964870334" lon="8.080981951206923">
<ele>574.4000000000001</ele>
<time>2023-05-18T12:38:50Z</time>
</trkpt>
<trkpt lat="49.32254696264863" lon="8.081014975905418">
<ele>574.5999999999999</ele>
<time>2023-05-18T12:38:51Z</time>
</trkpt>
<trkpt lat="49.32255199179053" lon="8.081051940098405">
<ele>575</ele>
<time>2023-05-18T12:38:52Z</time>
</trkpt>
<trkpt lat="49.32255492545664" lon="8.081091921776533">
<ele>575.2</ele>
<time>2023-05-18T12:38:53Z</time>
</trkpt>
<trkpt lat="49.32256297208369" lon="8.081136932596564">
<ele>575.2</ele>
<time>2023-05-18T12:38:54Z</time>
</trkpt>
<trkpt lat="49.32256699539721" lon="8.081166939809918">
<ele>575.4000000000001</ele>
<time>2023-05-18T12:38:55Z</time>
</trkpt>
<trkpt lat="49.32256992906332" lon="8.081201976165175">
<ele>575.5999999999999</ele>
<time>2023-05-18T12:38:56Z</time>
</trkpt>
<trkpt lat="49.32256791740656" lon="8.08123298920691">
<ele>575.8</ele>
<time>2023-05-18T12:38:57Z</time>
</trkpt>
<trkpt lat="49.322559954598546" lon="8.081271965056658">
<ele>576</ele>
<time>2023-05-18T12:38:58Z</time>
</trkpt>
<trkpt lat="49.32256297208369" lon="8.08134295977652">
<ele>576.2</ele>
<time>2023-05-18T12:38:59Z</time>
</trkpt>
<trkpt lat="49.32256196625531" lon="8.081391993910074">
<ele>576.4000000000001</ele>
<time>2023-05-18T12:39:00Z</time>
</trkpt>
<trkpt lat="49.32255492545664" lon="8.081432981416583">
<ele>576.5999999999999</ele>
<time>2023-05-18T12:39:01Z</time>
</trkpt>
<trkpt lat="49.32255199179053" lon="8.081476986408234">
<ele>576.8</ele>
<time>2023-05-18T12:39:02Z</time>
</trkpt>
<trkpt lat="49.32254696264863" lon="8.081516968086362">
<ele>577</ele>
<time>2023-05-18T12:39:03Z</time>
</trkpt>
<trkpt lat="49.322534976527095" lon="8.08155694976449">
<ele>577.2</ele>
<time>2023-05-18T12:39:04Z</time>
</trkpt>
<trkpt lat="49.32252491824329" lon="8.081597937270999">
<ele>577.4000000000001</ele>
<time>2023-05-18T12:39:05Z</time>
</trkpt>
<trkpt lat="49.322512932121754" lon="8.081637918949127">
<ele>577.5999999999999</ele>
<time>2023-05-18T12:39:06Z</time>
</trkpt>
<trkpt lat="49.32249792851508" lon="8.081677984446287">
<ele>577.8</ele>
<time>2023-05-18T12:39:07Z</time>
</trkpt>
<trkpt lat="49.32248493656516" lon="8.081719977781177">
<ele>578</ele>
<time>2023-05-18T12:39:08Z</time>
</trkpt>
<trkpt lat="49.32247697375715" lon="8.08174998499453">
<ele>578.2</ele>
<time>2023-05-18T12:39:09Z</time>
</trkpt>
<trkpt lat="49.32246792130172" lon="8.081774963065982">
<ele>578.5999999999999</ele>
<time>2023-05-18T12:39:10Z</time>
</trkpt>
<trkpt lat="49.32245794683695" lon="8.081794995814562">
<ele>578.8</ele>
<time>2023-05-18T12:39:11Z</time>
</trkpt>
<trkpt lat="49.32244495488703" lon="8.081819973886013">
<ele>579</ele>
<time>2023-05-18T12:39:12Z</time>
</trkpt>
<trkpt lat="49.322429951280355" lon="8.081842940300703">
<ele>579.2</ele>
<time>2023-05-18T12:39:13Z</time>
</trkpt>
<trkpt lat="49.322409918531775" lon="8.081864984706044">
<ele>579.4000000000001</ele>
<time>2023-05-18T12:39:14Z</time>
</trkpt>
<trkpt lat="49.32238996960223" lon="8.081887951120734">
<ele>579.5999999999999</ele>
<time>2023-05-18T12:39:15Z</time>
</trkpt>
<trkpt lat="49.32237295433879" lon="8.081907983869314">
<ele>579.8</ele>
<time>2023-05-18T12:39:16Z</time>
</trkpt>
<trkpt lat="49.3223499879241" lon="8.081931956112385">
<ele>580</ele>
<time>2023-05-18T12:39:17Z</time>
</trkpt>
<trkpt lat="49.322321992367506" lon="8.081959951668978">
<ele>580.4000000000001</ele>
<time>2023-05-18T12:39:18Z</time>
</trkpt>
<trkpt lat="49.32229299098253" lon="8.081996999680996">
<ele>580.5999999999999</ele>
<time>2023-05-18T12:39:19Z</time>
</trkpt>
<trkpt lat="49.3222619779408" lon="8.082034969702363">
<ele>580.8</ele>
<time>2023-05-18T12:39:20Z</time>
</trkpt>
<trkpt lat="49.322237921878695" lon="8.082076963037252">
<ele>581</ele>
<time>2023-05-18T12:39:21Z</time>
</trkpt>
<trkpt lat="49.32221696712077" lon="8.082104958593845">
<ele>581.2</ele>
<time>2023-05-18T12:39:22Z</time>
</trkpt>
<trkpt lat="49.32219794020057" lon="8.082126919180155">
<ele>581.5999999999999</ele>
<time>2023-05-18T12:39:23Z</time>
</trkpt>
<trkpt lat="49.32217698544264" lon="8.082146951928735">
<ele>581.8</ele>
<time>2023-05-18T12:39:24Z</time>
</trkpt>
<trkpt lat="49.32215795852244" lon="8.082164973020554">
<ele>582</ele>
<time>2023-05-18T12:39:25Z</time>
</trkpt>
<trkpt lat="49.32213691994548" lon="8.082186933606863">
<ele>582.2</ele>
<time>2023-05-18T12:39:26Z</time>
</trkpt>
<trkpt lat="49.32211194187403" lon="8.082219958305359">
<ele>582.4000000000001</ele>
<time>2023-05-18T12:39:27Z</time>
</trkpt>
<trkpt lat="49.32207992300391" lon="8.082267986610532">
<ele>582.5999999999999</ele>
<time>2023-05-18T12:39:28Z</time>
</trkpt>
<trkpt lat="49.32205494493246" lon="8.082299921661615">
<ele>582.5999999999999</ele>
<time>2023-05-18T12:39:29Z</time>
</trkpt>
<trkpt lat="49.32202493771911" lon="8.082332946360111">
<ele>582.8</ele>
<time>2023-05-18T12:39:30Z</time>
</trkpt>
<trkpt lat="49.32200197130442" lon="8.082361947745085">
<ele>583</ele>
<time>2023-05-18T12:39:31Z</time>
</trkpt>
<trkpt lat="49.32198193855584" lon="8.082389943301678">
<ele>583.2</ele>
<time>2023-05-18T12:39:32Z</time>
</trkpt>
<trkpt lat="49.32196299545467" lon="8.08241693302989">
<ele>583.4000000000001</ele>
<time>2023-05-18T12:39:33Z</time>
</trkpt>
<trkpt lat="49.32192695327103" lon="8.082467978820205">
<ele>583.5999999999999</ele>
<time>2023-05-18T12:39:34Z</time>
</trkpt>
<trkpt lat="49.32189795188606" lon="8.082509972155094">
<ele>583.8</ele>
<time>2023-05-18T12:39:35Z</time>
</trkpt>
<trkpt lat="49.32187498547137" lon="8.08254693634808">
<ele>583.8</ele>
<time>2023-05-18T12:39:36Z</time>
</trkpt>
<trkpt lat="49.32185294106603" lon="8.082594964653254">
<ele>584</ele>
<time>2023-05-18T12:39:37Z</time>
</trkpt>
<trkpt lat="49.321827962994576" lon="8.082642992958426">
<ele>584.2</ele>
<time>2023-05-18T12:39:38Z</time>
</trkpt>
<trkpt lat="49.321807930245996" lon="8.082692949101329">
<ele>584.4000000000001</ele>
<time>2023-05-18T12:39:39Z</time>
</trkpt>
<trkpt lat="49.32179292663932" lon="8.082746928557754">
<ele>584.5999999999999</ele>
<time>2023-05-18T12:39:40Z</time>
</trkpt>
<trkpt lat="49.32177691720426" lon="8.08280199766159">
<ele>584.5999999999999</ele>
<time>2023-05-18T12:39:41Z</time>
</trkpt>
<trkpt lat="49.32177197188139" lon="8.082852959632874">
<ele>584.8</ele>
<time>2023-05-18T12:39:42Z</time>
</trkpt>
<trkpt lat="49.32176794856787" lon="8.082891935482621">
<ele>585</ele>
<time>2023-05-18T12:39:43Z</time>
</trkpt>
<trkpt lat="49.321762919425964" lon="8.082942981272936">
<ele>585</ele>
<time>2023-05-18T12:39:44Z</time>
</trkpt>
<trkpt lat="49.321761997416615" lon="8.082989919930696">
<ele>585.2</ele>
<time>2023-05-18T12:39:45Z</time>
</trkpt>
<trkpt lat="49.321761997416615" lon="8.08303995989263">
<ele>585.4000000000001</ele>
<time>2023-05-18T12:39:46Z</time>
</trkpt>
<trkpt lat="49.32175294496119" lon="8.08310299180448">
<ele>585.4000000000001</ele>
<time>2023-05-18T12:39:47Z</time>
</trkpt>
<trkpt lat="49.32173794135451" lon="8.083164934068918">
<ele>585.5999999999999</ele>
<time>2023-05-18T12:39:48Z</time>
</trkpt>
<trkpt lat="49.321721931919456" lon="8.083216985687613">
<ele>585.8</ele>
<time>2023-05-18T12:39:49Z</time>
</trkpt>
<trkpt lat="49.321699971333146" lon="8.083257973194122">
<ele>585.8</ele>
<time>2023-05-18T12:39:50Z</time>
</trkpt>
<trkpt lat="49.321674993261695" lon="8.083302984014153">
<ele>586</ele>
<time>2023-05-18T12:39:51Z</time>
</trkpt>
<trkpt lat="49.32164993137121" lon="8.083349922671914">
<ele>586</ele>
<time>2023-05-18T12:39:52Z</time>
</trkpt>
<trkpt lat="49.3216279707849" lon="8.083397950977087">
<ele>586.2</ele>
<time>2023-05-18T12:39:53Z</time>
</trkpt>
<trkpt lat="49.32160299271345" lon="8.083461988717318">
<ele>586.4000000000001</ele>
<time>2023-05-18T12:39:54Z</time>
</trkpt>
<trkpt lat="49.32157994247973" lon="8.083507921546698">
<ele>586.4000000000001</ele>
<time>2023-05-18T12:39:55Z</time>
</trkpt>
<trkpt lat="49.32156292721629" lon="8.083544969558716">
<ele>586.5999999999999</ele>
<time>2023-05-18T12:39:56Z</time>
</trkpt>
<trkpt lat="49.321549935266376" lon="8.083594925701618">
<ele>586.8</ele>
<time>2023-05-18T12:39:57Z</time>
</trkpt>
<trkpt lat="49.32153794914484" lon="8.083636919036508">
<ele>586.8</ele>
<time>2023-05-18T12:39:58Z</time>
</trkpt>
<trkpt lat="49.32153292000294" lon="8.083676984533668">
<ele>587</ele>
<time>2023-05-18T12:39:59Z</time>
</trkpt>
<trkpt lat="49.32152193970978" lon="8.083739932626486">
<ele>587.2</ele>
<time>2023-05-18T12:40:00Z</time>
</trkpt>
<trkpt lat="49.32150995358825" lon="8.083804976195097">
<ele>587.2</ele>
<time>2023-05-18T12:40:01Z</time>
</trkpt>
<trkpt lat="49.32148992083967" lon="8.083884939551353">
<ele>587.4000000000001</ele>
<time>2023-05-18T12:40:02Z</time>
</trkpt>
<trkpt lat="49.321484975516796" lon="8.083944953978062">
<ele>587.5999999999999</ele>
<time>2023-05-18T12:40:03Z</time>
</trkpt>
<trkpt lat="49.32147793471813" lon="8.08400496840477">
<ele>587.5999999999999</ele>
<time>2023-05-18T12:40:04Z</time>
</trkpt>
<trkpt lat="49.321461925283074" lon="8.084051990881562">
<ele>587.8</ele>
<time>2023-05-18T12:40:05Z</time>
</trkpt>
<trkpt lat="49.32145295664668" lon="8.084094990044832">
<ele>588</ele>
<time>2023-05-18T12:40:06Z</time>
</trkpt>
<trkpt lat="49.3214469216764" lon="8.084141928702593">
<ele>588</ele>
<time>2023-05-18T12:40:07Z</time>
</trkpt>
<trkpt lat="49.32143493555486" lon="8.084207978099585">
<ele>588.2</ele>
<time>2023-05-18T12:40:08Z</time>
</trkpt>
<trkpt lat="49.32142697274685" lon="8.084266986697912">
<ele>588.2</ele>
<time>2023-05-18T12:40:09Z</time>
</trkpt>
<trkpt lat="49.32142496109009" lon="8.08432993479073">
<ele>588.4000000000001</ele>
<time>2023-05-18T12:40:10Z</time>
</trkpt>
<trkpt lat="49.32142797857523" lon="8.084384920075536">
<ele>588.5999999999999</ele>
<time>2023-05-18T12:40:11Z</time>
</trkpt>
<trkpt lat="49.32142999023199" lon="8.084442922845483">
<ele>588.5999999999999</ele>
<time>2023-05-18T12:40:12Z</time>
</trkpt>
<trkpt lat="49.32142294943333" lon="8.084504948928952">
<ele>588.8</ele>
<time>2023-05-18T12:40:13Z</time>
</trkpt>
<trkpt lat="49.321416998282075" lon="8.084569992497563">
<ele>588.8</ele>
<time>2023-05-18T12:40:14Z</time>
</trkpt>
<trkpt lat="49.321414986625314" lon="8.084614919498563">
<ele>589</ele>
<time>2023-05-18T12:40:15Z</time>
</trkpt>
<trkpt lat="49.32140693999827" lon="8.084659930318594">
<ele>589</ele>
<time>2023-05-18T12:40:16Z</time>
</trkpt>
<trkpt lat="49.321396965533495" lon="8.084704941138625">
<ele>589.2</ele>
<time>2023-05-18T12:40:17Z</time>
</trkpt>
<trkpt lat="49.32138497941196" lon="8.08475498110056">
<ele>589.2</ele>
<time>2023-05-18T12:40:18Z</time>
</trkpt>
<trkpt lat="49.321372993290424" lon="8.084809966385365">
<ele>589.4000000000001</ele>
<time>2023-05-18T12:40:19Z</time>
</trkpt>
<trkpt lat="49.32136293500662" lon="8.084859922528267">
<ele>589.5999999999999</ele>
<time>2023-05-18T12:40:20Z</time>
</trkpt>
<trkpt lat="49.32135991752148" lon="8.084914991632104">
<ele>589.5999999999999</ele>
<time>2023-05-18T12:40:21Z</time>
</trkpt>
<trkpt lat="49.321352960541844" lon="8.084976933896542">
<ele>589.8</ele>
<time>2023-05-18T12:40:22Z</time>
</trkpt>
<trkpt lat="49.32134793139994" lon="8.085022950544953">
<ele>589.8</ele>
<time>2023-05-18T12:40:23Z</time>
</trkpt>
<trkpt lat="49.32134692557156" lon="8.085076930001378">
<ele>590</ele>
<time>2023-05-18T12:40:24Z</time>
</trkpt>
<trkpt lat="49.32133695110679" lon="8.085139961913228">
<ele>590</ele>
<time>2023-05-18T12:40:25Z</time>
</trkpt>
<trkpt lat="49.32133795693517" lon="8.085197964683175">
<ele>590.2</ele>
<time>2023-05-18T12:40:26Z</time>
</trkpt>
<trkpt lat="49.321331921964884" lon="8.0852519441396">
<ele>590.2</ele>
<time>2023-05-18T12:40:27Z</time>
</trkpt>
<trkpt lat="49.32132697664201" lon="8.085309946909547">
<ele>590.4000000000001</ele>
<time>2023-05-18T12:40:28Z</time>
</trkpt>
<trkpt lat="49.32132295332849" lon="8.085369961336255">
<ele>590.4000000000001</ele>
<time>2023-05-18T12:40:29Z</time>
</trkpt>
<trkpt lat="49.32132295332849" lon="8.085437938570976">
<ele>590.5999999999999</ele>
<time>2023-05-18T12:40:30Z</time>
</trkpt>
<trkpt lat="49.32132496498525" lon="8.085484961047769">
<ele>590.8</ele>
<time>2023-05-18T12:40:31Z</time>
</trkpt>
<trkpt lat="49.32132798247039" lon="8.085526954382658">
<ele>590.8</ele>
<time>2023-05-18T12:40:32Z</time>
</trkpt>
<trkpt lat="49.321332927793264" lon="8.085562996566296">
<ele>591</ele>
<time>2023-05-18T12:40:33Z</time>
</trkpt>
<trkpt lat="49.32133795693517" lon="8.08559694327414">
<ele>591</ele>
<time>2023-05-18T12:40:34Z</time>
</trkpt>
<trkpt lat="49.32133996859193" lon="8.085627956315875">
<ele>591.2</ele>
<time>2023-05-18T12:40:35Z</time>
</trkpt>
<trkpt lat="49.32134198024869" lon="8.085666932165623">
<ele>591.4000000000001</ele>
<time>2023-05-18T12:40:36Z</time>
</trkpt>
<trkpt lat="49.32133795693517" lon="8.085742956027389">
<ele>591.4000000000001</ele>
<time>2023-05-18T12:40:37Z</time>
</trkpt>
<trkpt lat="49.321332927793264" lon="8.085807999596">
<ele>591.5999999999999</ele>
<time>2023-05-18T12:40:38Z</time>
</trkpt>
<trkpt lat="49.321329994127154" lon="8.085871953517199">
<ele>591.5999999999999</ele>
<time>2023-05-18T12:40:39Z</time>
</trkpt>
<trkpt lat="49.32132798247039" lon="8.085932973772287">
<ele>591.8</ele>
<time>2023-05-18T12:40:40Z</time>
</trkpt>
<trkpt lat="49.321329994127154" lon="8.085989970713854">
<ele>591.8</ele>
<time>2023-05-18T12:40:41Z</time>
</trkpt>
<trkpt lat="49.32133795693517" lon="8.086056942120194">
<ele>592</ele>
<time>2023-05-18T12:40:42Z</time>
</trkpt>
<trkpt lat="49.32134198024869" lon="8.08613196015358">
<ele>592.2</ele>
<time>2023-05-18T12:40:43Z</time>
</trkpt>
<trkpt lat="49.32133996859193" lon="8.086204966530204">
<ele>592.2</ele>
<time>2023-05-18T12:40:44Z</time>
</trkpt>
<trkpt lat="49.32133695110679" lon="8.08626196347177">
<ele>592.4000000000001</ele>
<time>2023-05-18T12:40:45Z</time>
</trkpt>
<trkpt lat="49.32134298607707" lon="8.086342932656407">
<ele>592.5999999999999</ele>
<time>2023-05-18T12:40:46Z</time>
</trkpt>
<trkpt lat="49.32134793139994" lon="8.086407976225019">
<ele>592.5999999999999</ele>
<time>2023-05-18T12:40:47Z</time>
</trkpt>
<trkpt lat="49.32135698385537" lon="8.086481988430023">
<ele>592.8</ele>
<time>2023-05-18T12:40:48Z</time>
</trkpt>
<trkpt lat="49.32136192917824" lon="8.086556922644377">
<ele>593</ele>
<time>2023-05-18T12:40:49Z</time>
</trkpt>
<trkpt lat="49.32136796414852" lon="8.086629929021">
<ele>593.2</ele>
<time>2023-05-18T12:40:50Z</time>
</trkpt>
<trkpt lat="49.321374921128154" lon="8.086694972589612">
<ele>593.2</ele>
<time>2023-05-18T12:40:51Z</time>
</trkpt>
<trkpt lat="49.3213829677552" lon="8.086752975359559">
<ele>593.4000000000001</ele>
<time>2023-05-18T12:40:52Z</time>
</trkpt>
<trkpt lat="49.3213829677552" lon="8.08680192567408">
<ele>593.5999999999999</ele>
<time>2023-05-18T12:40:53Z</time>
</trkpt>
<trkpt lat="49.3213829677552" lon="8.086847942322493">
<ele>593.8</ele>
<time>2023-05-18T12:40:54Z</time>
</trkpt>
<trkpt lat="49.3213829677552" lon="8.086904939264059">
<ele>594</ele>
<time>2023-05-18T12:40:55Z</time>
</trkpt>
<trkpt lat="49.321377938613296" lon="8.086946932598948">
<ele>594.2</ele>
<time>2023-05-18T12:40:56Z</time>
</trkpt>
<trkpt lat="49.321371987462044" lon="8.08699194341898">
<ele>594.4000000000001</ele>
<time>2023-05-18T12:40:57Z</time>
</trkpt>
<trkpt lat="49.32136796414852" lon="8.087039971724153">
<ele>594.5999999999999</ele>
<time>2023-05-18T12:40:58Z</time>
</trkpt>
<trkpt lat="49.32135991752148" lon="8.087087916210294">
<ele>594.8</ele>
<time>2023-05-18T12:40:59Z</time>
</trkpt>
<trkpt lat="49.32134298607707" lon="8.087131921201944">
<ele>595</ele>
<time>2023-05-18T12:41:00Z</time>
</trkpt>
<trkpt lat="49.32132697664201" lon="8.087176932021976">
<ele>595.2</ele>
<time>2023-05-18T12:41:01Z</time>
</trkpt>
<trkpt lat="49.32130694389343" lon="8.087212974205613">
<ele>595.5999999999999</ele>
<time>2023-05-18T12:41:02Z</time>
</trkpt>
<trkpt lat="49.321286994963884" lon="8.087246920913458">
<ele>595.8</ele>
<time>2023-05-18T12:41:03Z</time>
</trkpt>
<trkpt lat="49.32126495055854" lon="8.087276928126812">
<ele>596</ele>
<time>2023-05-18T12:41:04Z</time>
</trkpt>
<trkpt lat="49.32124198414385" lon="8.08731297031045">
<ele>596.4000000000001</ele>
<time>2023-05-18T12:41:05Z</time>
</trkpt>
<trkpt lat="49.32121499441564" lon="8.087347922846675">
<ele>596.5999999999999</ele>
<time>2023-05-18T12:41:06Z</time>
</trkpt>
<trkpt lat="49.3211929500103" lon="8.08737994171679">
<ele>597</ele>
<time>2023-05-18T12:41:07Z</time>
</trkpt>
<trkpt lat="49.321159925311804" lon="8.087416989728808">
<ele>597.2</ele>
<time>2023-05-18T12:41:08Z</time>
</trkpt>
<trkpt lat="49.32113293558359" lon="8.08744297362864">
<ele>597.5999999999999</ele>
<time>2023-05-18T12:41:09Z</time>
</trkpt>
<trkpt lat="49.321096977218986" lon="8.087462922558188">
<ele>598</ele>
<time>2023-05-18T12:41:10Z</time>
</trkpt>
<trkpt lat="49.32106194086373" lon="8.087481949478388">
<ele>598.2</ele>
<time>2023-05-18T12:41:11Z</time>
</trkpt>
<trkpt lat="49.32102992199361" lon="8.08748697862029">
<ele>598.5999999999999</ele>
<time>2023-05-18T12:41:12Z</time>
</trkpt>
<trkpt lat="49.3210029322654" lon="8.08748697862029">
<ele>598.8</ele>
<time>2023-05-18T12:41:13Z</time>
</trkpt>
<trkpt lat="49.32097996585071" lon="8.087482955306768">
<ele>599.2</ele>
<time>2023-05-18T12:41:14Z</time>
</trkpt>
<trkpt lat="49.32095993310213" lon="8.08748496696353">
<ele>599.4000000000001</ele>
<time>2023-05-18T12:41:15Z</time>
</trkpt>
<trkpt lat="49.320941995829344" lon="8.087476920336485">
<ele>599.8</ele>
<time>2023-05-18T12:41:16Z</time>
</trkpt>
<trkpt lat="49.32091693393886" lon="8.087472980841994">
<ele>600</ele>
<time>2023-05-18T12:41:17Z</time>
</trkpt>
<trkpt lat="49.32088793255389" lon="8.08746694587171">
<ele>600.2</ele>
<time>2023-05-18T12:41:18Z</time>
</trkpt>
<trkpt lat="49.32085197418928" lon="8.087457977235317">
<ele>600.5999999999999</ele>
<time>2023-05-18T12:41:19Z</time>
</trkpt>
<trkpt lat="49.320819955319166" lon="8.087449930608273">
<ele>600.8</ele>
<time>2023-05-18T12:41:20Z</time>
</trkpt>
<trkpt lat="49.32078693062067" lon="8.087444985285401">
<ele>601</ele>
<time>2023-05-18T12:41:21Z</time>
</trkpt>
<trkpt lat="49.3207579292357" lon="8.087439956143498">
<ele>601.2</ele>
<time>2023-05-18T12:41:22Z</time>
</trkpt>
<trkpt lat="49.32072197087109" lon="8.087432999163866">
<ele>601.4000000000001</ele>
<time>2023-05-18T12:41:23Z</time>
</trkpt>
<trkpt lat="49.320689952000976" lon="8.087424952536821">
<ele>601.5999999999999</ele>
<time>2023-05-18T12:41:24Z</time>
</trkpt>
<trkpt lat="49.32065793313086" lon="8.087411960586905">
<ele>602</ele>
<time>2023-05-18T12:41:25Z</time>
</trkpt>
<trkpt lat="49.320622980594635" lon="8.087396956980228">
<ele>602.2</ele>
<time>2023-05-18T12:41:26Z</time>
</trkpt>
<trkpt lat="49.3205969966948" lon="8.087386982515454">
<ele>602.4000000000001</ele>
<time>2023-05-18T12:41:27Z</time>
</trkpt>
<trkpt lat="49.32057193480432" lon="8.087366949766874">
<ele>602.5999999999999</ele>
<time>2023-05-18T12:41:28Z</time>
</trkpt>
<trkpt lat="49.32055693119764" lon="8.087347922846675">
<ele>602.8</ele>
<time>2023-05-18T12:41:29Z</time>
</trkpt>
<trkpt lat="49.320541927590966" lon="8.087327973917127">
<ele>603</ele>
<time>2023-05-18T12:41:30Z</time>
</trkpt>
<trkpt lat="49.320517955347896" lon="8.087302995845675">
<ele>603.2</ele>
<time>2023-05-18T12:41:31Z</time>
</trkpt>
<trkpt lat="49.320496916770935" lon="8.087286986410618">
<ele>603.4000000000001</ele>
<time>2023-05-18T12:41:32Z</time>
</trkpt>
<trkpt lat="49.32046699337661" lon="8.087262930348516">
<ele>603.5999999999999</ele>
<time>2023-05-18T12:41:33Z</time>
</trkpt>
<trkpt lat="49.320429945364594" lon="8.087236946448684">
<ele>604</ele>
<time>2023-05-18T12:41:34Z</time>
</trkpt>
<trkpt lat="49.320401949808" lon="8.087204927578568">
<ele>604.2</ele>
<time>2023-05-18T12:41:35Z</time>
</trkpt>
<trkpt lat="49.32037294842303" lon="8.087176932021976">
<ele>604.4000000000001</ele>
<time>2023-05-18T12:41:36Z</time>
</trkpt>
<trkpt lat="49.32035794481635" lon="8.087159916758537">
<ele>604.5999999999999</ele>
<time>2023-05-18T12:41:37Z</time>
</trkpt>
<trkpt lat="49.32033699005842" lon="8.08714298531413">
<ele>604.8</ele>
<time>2023-05-18T12:41:38Z</time>
</trkpt>
<trkpt lat="49.320319974794984" lon="8.087136950343847">
<ele>605</ele>
<time>2023-05-18T12:41:39Z</time>
</trkpt>
<trkpt lat="49.32030698284507" lon="8.087127981707454">
<ele>605.4000000000001</ele>
<time>2023-05-18T12:41:40Z</time>
</trkpt>
<trkpt lat="49.32027496397495" lon="8.087106943130493">
<ele>605.5999999999999</ele>
<time>2023-05-18T12:41:41Z</time>
</trkpt>
<trkpt lat="49.32024797424674" lon="8.087081965059042">
<ele>605.8</ele>
<time>2023-05-18T12:41:42Z</time>
</trkpt>
<trkpt lat="49.32020992040634" lon="8.087046928703785">
<ele>606</ele>
<time>2023-05-18T12:41:43Z</time>
</trkpt>
<trkpt lat="49.32016792707145" lon="8.087006947025657">
<ele>606.4000000000001</ele>
<time>2023-05-18T12:41:44Z</time>
</trkpt>
<trkpt lat="49.320131968706846" lon="8.086977945640683">
<ele>606.5999999999999</ele>
<time>2023-05-18T12:41:45Z</time>
</trkpt>
<trkpt lat="49.32009693235159" lon="8.086941987276077">
<ele>606.8</ele>
<time>2023-05-18T12:41:46Z</time>
</trkpt>
<trkpt lat="49.32005795650184" lon="8.08688499033451">
<ele>607</ele>
<time>2023-05-18T12:41:47Z</time>
</trkpt>
<trkpt lat="49.32003499008715" lon="8.086846936494112">
<ele>607.4000000000001</ele>
<time>2023-05-18T12:41:48Z</time>
</trkpt>
<trkpt lat="49.32000699453056" lon="8.086807960644364">
<ele>607.5999999999999</ele>
<time>2023-05-18T12:41:49Z</time>
</trkpt>
<trkpt lat="49.319981932640076" lon="8.086772924289107">
<ele>607.8</ele>
<time>2023-05-18T12:41:50Z</time>
</trkpt>
<trkpt lat="49.319959972053766" lon="8.086742917075753">
<ele>608</ele>
<time>2023-05-18T12:41:51Z</time>
</trkpt>
<trkpt lat="49.319932982325554" lon="8.086704947054386">
<ele>608.2</ele>
<time>2023-05-18T12:41:52Z</time>
</trkpt>
<trkpt lat="49.31990993209183" lon="8.086662953719497">
<ele>608.5999999999999</ele>
<time>2023-05-18T12:41:53Z</time>
</trkpt>
<trkpt lat="49.31988495402038" lon="8.086621966212988">
<ele>608.8</ele>
<time>2023-05-18T12:41:54Z</time>
</trkpt>
<trkpt lat="49.31985494680703" lon="8.086574943736196">
<ele>609</ele>
<time>2023-05-18T12:41:55Z</time>
</trkpt>
<trkpt lat="49.319826951250434" lon="8.086534962058067">
<ele>609.2</ele>
<time>2023-05-18T12:41:56Z</time>
</trkpt>
<trkpt lat="49.319804990664124" lon="8.086491962894797">
<ele>609.5999999999999</ele>
<time>2023-05-18T12:41:57Z</time>
</trkpt>
<trkpt lat="49.319787975400686" lon="8.08645692653954">
<ele>609.8</ele>
<time>2023-05-18T12:41:58Z</time>
</trkpt>
<trkpt lat="49.31977498345077" lon="8.086419962346554">
<ele>610</ele>
<time>2023-05-18T12:41:59Z</time>
</trkpt>
<trkpt lat="49.319762997329235" lon="8.086377969011664">
<ele>610.2</ele>
<time>2023-05-18T12:42:00Z</time>
</trkpt>
<trkpt lat="49.31974698789418" lon="8.086339998990297">
<ele>610.4000000000001</ele>
<time>2023-05-18T12:42:01Z</time>
</trkpt>
<trkpt lat="49.31972796097398" lon="8.08630496263504">
<ele>610.8</ele>
<time>2023-05-18T12:42:02Z</time>
</trkpt>
<trkpt lat="49.319701977074146" lon="8.086272943764925">
<ele>611</ele>
<time>2023-05-18T12:42:03Z</time>
</trkpt>
<trkpt lat="49.31968496181071" lon="8.086236985400319">
<ele>611.2</ele>
<time>2023-05-18T12:42:04Z</time>
</trkpt>
<trkpt lat="49.31966794654727" lon="8.08619691990316">
<ele>611.4000000000001</ele>
<time>2023-05-18T12:42:05Z</time>
</trkpt>
<trkpt lat="49.31964992545545" lon="8.086161967366934">
<ele>611.8</ele>
<time>2023-05-18T12:42:06Z</time>
</trkpt>
<trkpt lat="49.319631988182664" lon="8.086117962375283">
<ele>612</ele>
<time>2023-05-18T12:42:07Z</time>
</trkpt>
<trkpt lat="49.319612961262465" lon="8.086082926020026">
<ele>612.2</ele>
<time>2023-05-18T12:42:08Z</time>
</trkpt>
<trkpt lat="49.31959695182741" lon="8.0860479734838">
<ele>612.4000000000001</ele>
<time>2023-05-18T12:42:09Z</time>
</trkpt>
<trkpt lat="49.31957993656397" lon="8.086007991805673">
<ele>612.8</ele>
<time>2023-05-18T12:42:10Z</time>
</trkpt>
<trkpt lat="49.319569962099195" lon="8.085971949622035">
<ele>613</ele>
<time>2023-05-18T12:42:11Z</time>
</trkpt>
<trkpt lat="49.31955797597766" lon="8.085937919095159">
<ele>613.2</ele>
<time>2023-05-18T12:42:12Z</time>
</trkpt>
<trkpt lat="49.319546995684505" lon="8.08589793741703">
<ele>613.4000000000001</ele>
<time>2023-05-18T12:42:13Z</time>
</trkpt>
<trkpt lat="49.3195369374007" lon="8.085859967395663">
<ele>613.5999999999999</ele>
<time>2023-05-18T12:42:14Z</time>
</trkpt>
<trkpt lat="49.3195229396224" lon="8.085837922990322">
<ele>613.8</ele>
<time>2023-05-18T12:42:15Z</time>
</trkpt>
<trkpt lat="49.31950491853058" lon="8.08580992743373">
<ele>614.2</ele>
<time>2023-05-18T12:42:16Z</time>
</trkpt>
<trkpt lat="49.31949192658067" lon="8.085782937705517">
<ele>614.4000000000001</ele>
<time>2023-05-18T12:42:17Z</time>
</trkpt>
<trkpt lat="49.31947197765112" lon="8.08574496768415">
<ele>614.5999999999999</ele>
<time>2023-05-18T12:42:18Z</time>
</trkpt>
<trkpt lat="49.31945295073092" lon="8.085719989612699">
<ele>614.8</ele>
<time>2023-05-18T12:42:19Z</time>
</trkpt>
<trkpt lat="49.31942998431623" lon="8.085687970742583">
<ele>615</ele>
<time>2023-05-18T12:42:20Z</time>
</trkpt>
<trkpt lat="49.31940995156765" lon="8.085664920508862">
<ele>615.2</ele>
<time>2023-05-18T12:42:21Z</time>
</trkpt>
<trkpt lat="49.31938799098134" lon="8.085626950487494">
<ele>615.4000000000001</ele>
<time>2023-05-18T12:42:22Z</time>
</trkpt>
<trkpt lat="49.319374999031425" lon="8.085601972416043">
<ele>615.5999999999999</ele>
<time>2023-05-18T12:42:23Z</time>
</trkpt>
<trkpt lat="49.31936292909086" lon="8.085582945495844">
<ele>615.8</ele>
<time>2023-05-18T12:42:24Z</time>
</trkpt>
<trkpt lat="49.31935999542475" lon="8.085566936060786">
<ele>616</ele>
<time>2023-05-18T12:42:25Z</time>
</trkpt>
<trkpt lat="49.31934792548418" lon="8.085542963817716">
<ele>616.2</ele>
<time>2023-05-18T12:42:26Z</time>
</trkpt>
<trkpt lat="49.319337951019406" lon="8.085516979917884">
<ele>616.4000000000001</ele>
<time>2023-05-18T12:42:27Z</time>
</trkpt>
<trkpt lat="49.31932294741273" lon="8.08548797853291">
<ele>616.5999999999999</ele>
<time>2023-05-18T12:42:28Z</time>
</trkpt>
<trkpt lat="49.31930492632091" lon="8.085469957441092">
<ele>616.8</ele>
<time>2023-05-18T12:42:29Z</time>
</trkpt>
<trkpt lat="49.3192829657346" lon="8.085452942177653">
<ele>617</ele>
<time>2023-05-18T12:42:30Z</time>
</trkpt>
<trkpt lat="49.319267962127924" lon="8.085432993248105">
<ele>617.2</ele>
<time>2023-05-18T12:42:31Z</time>
</trkpt>
<trkpt lat="49.31925295852125" lon="8.085407931357622">
<ele>617.4000000000001</ele>
<time>2023-05-18T12:42:32Z</time>
</trkpt>
<trkpt lat="49.31923694908619" lon="8.085386976599693">
<ele>617.5999999999999</ele>
<time>2023-05-18T12:42:33Z</time>
</trkpt>
<trkpt lat="49.31921691633761" lon="8.085366943851113">
<ele>617.5999999999999</ele>
<time>2023-05-18T12:42:34Z</time>
</trkpt>
<trkpt lat="49.31919294409454" lon="8.085347916930914">
<ele>617.8</ele>
<time>2023-05-18T12:42:35Z</time>
</trkpt>
<trkpt lat="49.31917299516499" lon="8.085334924980998">
<ele>618</ele>
<time>2023-05-18T12:42:36Z</time>
</trkpt>
<trkpt lat="49.31914793327451" lon="8.085312964394689">
<ele>618</ele>
<time>2023-05-18T12:42:37Z</time>
</trkpt>
<trkpt lat="49.31912999600172" lon="8.085292931646109">
<ele>618.2</ele>
<time>2023-05-18T12:42:38Z</time>
</trkpt>
<trkpt lat="49.3191119749099" lon="8.08527197688818">
<ele>618.2</ele>
<time>2023-05-18T12:42:39Z</time>
</trkpt>
<trkpt lat="49.319096971303225" lon="8.085247920826077">
<ele>618.2</ele>
<time>2023-05-18T12:42:40Z</time>
</trkpt>
<trkpt lat="49.31908196769655" lon="8.085237946361303">
<ele>618.2</ele>
<time>2023-05-18T12:42:41Z</time>
</trkpt>
<trkpt lat="49.319077944383025" lon="8.085236940532923">
<ele>618.2</ele>
<time>2023-05-18T12:42:42Z</time>
</trkpt>
<trkpt lat="49.31907492689788" lon="8.0852329172194">
<ele>618.2</ele>
<time>2023-05-18T12:42:43Z</time>
</trkpt>
<trkpt lat="49.31907492689788" lon="8.085231995210052">
<ele>618.2</ele>
<time>2023-05-18T12:42:44Z</time>
</trkpt>
<trkpt lat="49.319079956039786" lon="8.08533794246614">
<ele>617.5999999999999</ele>
<time>2023-05-18T12:42:44Z</time>
</trkpt>
<trkpt lat="49.31910493411124" lon="8.085344983264804">
<ele>617.8</ele>
<time>2023-05-18T12:42:45Z</time>
</trkpt>
<trkpt lat="49.31913292966783" lon="8.085342971608043">
<ele>617.8</ele>
<time>2023-05-18T12:42:46Z</time>
</trkpt>
<trkpt lat="49.319164948537946" lon="8.085351940244436">
<ele>618</ele>
<time>2023-05-18T12:42:47Z</time>
</trkpt>
<trkpt lat="49.31919696740806" lon="8.085361998528242">
<ele>618</ele>
<time>2023-05-18T12:42:48Z</time>
</trkpt>
<trkpt lat="49.31921993382275" lon="8.085364932194352">
<ele>618.2</ele>
<time>2023-05-18T12:42:49Z</time>
</trkpt>
<trkpt lat="49.31923493742943" lon="8.085364932194352">
<ele>618.4000000000001</ele>
<time>2023-05-18T12:42:50Z</time>
</trkpt>
<trkpt lat="49.319251952692866" lon="8.08535696938634">
<ele>618.5999999999999</ele>
<time>2023-05-18T12:42:51Z</time>
</trkpt>
<trkpt lat="49.319269973784685" lon="8.085351940244436">
<ele>618.8</ele>
<time>2023-05-18T12:42:52Z</time>
</trkpt>
<trkpt lat="49.31929998099804" lon="8.085354957729578">
<ele>619</ele>
<time>2023-05-18T12:42:53Z</time>
</trkpt>
<trkpt lat="49.31933996267617" lon="8.08535797521472">
<ele>619.2</ele>
<time>2023-05-18T12:42:54Z</time>
</trkpt>
<trkpt lat="49.31938195601106" lon="8.085366943851113">
<ele>619.4000000000001</ele>
<time>2023-05-18T12:42:55Z</time>
</trkpt>
<trkpt lat="49.319416992366314" lon="8.08538194745779">
<ele>619.8</ele>
<time>2023-05-18T12:42:56Z</time>
</trkpt>
<trkpt lat="49.31945194490254" lon="8.085392927750945">
<ele>620</ele>
<time>2023-05-18T12:42:57Z</time>
</trkpt>
<trkpt lat="49.31949192658067" lon="8.085406925529242">
<ele>620.2</ele>
<time>2023-05-18T12:42:58Z</time>
</trkpt>
<trkpt lat="49.319529980421066" lon="8.085421929135919">
<ele>620.5999999999999</ele>
<time>2023-05-18T12:42:59Z</time>
</trkpt>
<trkpt lat="49.31956694461405" lon="8.085441961884499">
<ele>620.8</ele>
<time>2023-05-18T12:43:00Z</time>
</trkpt>
<trkpt lat="49.31960298679769" lon="8.085462916642427">
<ele>621</ele>
<time>2023-05-18T12:43:01Z</time>
</trkpt>
<trkpt lat="49.319637939333916" lon="8.085492923855782">
<ele>621.4000000000001</ele>
<time>2023-05-18T12:43:02Z</time>
</trkpt>
<trkpt lat="49.319674987345934" lon="8.085519997403026">
<ele>621.5999999999999</ele>
<time>2023-05-18T12:43:03Z</time>
</trkpt>
<trkpt lat="49.31970298290253" lon="8.085537934675813">
<ele>622</ele>
<time>2023-05-18T12:43:04Z</time>
</trkpt>
<trkpt lat="49.31973994709551" lon="8.085554949939251">
<ele>622.2</ele>
<time>2023-05-18T12:43:05Z</time>
</trkpt>
<trkpt lat="49.31978294625878" lon="8.08557196520269">
<ele>622.5999999999999</ele>
<time>2023-05-18T12:43:06Z</time>
</trkpt>
<trkpt lat="49.31982292793691" lon="8.085581939667463">
<ele>622.8</ele>
<time>2023-05-18T12:43:07Z</time>
</trkpt>
<trkpt lat="49.31985796429217" lon="8.085576994344592">
<ele>623.2</ele>
<time>2023-05-18T12:43:08Z</time>
</trkpt>
<trkpt lat="49.319894928485155" lon="8.085549920797348">
<ele>623.4000000000001</ele>
<time>2023-05-18T12:43:09Z</time>
</trkpt>
<trkpt lat="49.31993197649717" lon="8.085526954382658">
<ele>623.8</ele>
<time>2023-05-18T12:43:10Z</time>
</trkpt>
<trkpt lat="49.3199669290334" lon="8.085511950775981">
<ele>624</ele>
<time>2023-05-18T12:43:11Z</time>
</trkpt>
<trkpt lat="49.31999199092388" lon="8.085491918027401">
<ele>624.4000000000001</ele>
<time>2023-05-18T12:43:12Z</time>
</trkpt>
<trkpt lat="49.320022920146585" lon="8.085476998239756">
<ele>624.5999999999999</ele>
<time>2023-05-18T12:43:13Z</time>
</trkpt>
<trkpt lat="49.32004999369383" lon="8.085462916642427">
<ele>624.8</ele>
<time>2023-05-18T12:43:14Z</time>
</trkpt>
<trkpt lat="49.32006994262338" lon="8.08544497936964">
<ele>625</ele>
<time>2023-05-18T12:43:15Z</time>
</trkpt>
<trkpt lat="49.320087963715196" lon="8.085427964106202">
<ele>625.4000000000001</ele>
<time>2023-05-18T12:43:16Z</time>
</trkpt>
<trkpt lat="49.32010296732187" lon="8.085406925529242">
<ele>625.5999999999999</ele>
<time>2023-05-18T12:43:17Z</time>
</trkpt>
<trkpt lat="49.32011998258531" lon="8.085382953286171">
<ele>625.8</ele>
<time>2023-05-18T12:43:18Z</time>
</trkpt>
<trkpt lat="49.32013699784875" lon="8.08533693663776">
<ele>626</ele>
<time>2023-05-18T12:43:19Z</time>
</trkpt>
<trkpt lat="49.320147978141904" lon="8.085296954959631">
<ele>626.4000000000001</ele>
<time>2023-05-18T12:43:20Z</time>
</trkpt>
<trkpt lat="49.32015795260668" lon="8.08525294996798">
<ele>626.5999999999999</ele>
<time>2023-05-18T12:43:21Z</time>
</trkpt>
<trkpt lat="49.320171950384974" lon="8.085217997431755">
<ele>626.8</ele>
<time>2023-05-18T12:43:22Z</time>
</trkpt>
<trkpt lat="49.32018494233489" lon="8.085187990218401">
<ele>627</ele>
<time>2023-05-18T12:43:23Z</time>
</trkpt>
<trkpt lat="49.320192988961935" lon="8.085147924721241">
<ele>627.2</ele>
<time>2023-05-18T12:43:24Z</time>
</trkpt>
<trkpt lat="49.320194916799664" lon="8.085111966356635">
<ele>627.4000000000001</ele>
<time>2023-05-18T12:43:25Z</time>
</trkpt>
<trkpt lat="49.32020296342671" lon="8.085071984678507">
<ele>627.5999999999999</ele>
<time>2023-05-18T12:43:26Z</time>
</trkpt>
<trkpt lat="49.32020799256861" lon="8.085024962201715">
<ele>627.8</ele>
<time>2023-05-18T12:43:27Z</time>
</trkpt>
<trkpt lat="49.32021293789148" lon="8.084979951381683">
<ele>628.2</ele>
<time>2023-05-18T12:43:28Z</time>
</trkpt>
<trkpt lat="49.32021997869015" lon="8.084941981360316">
<ele>628.4000000000001</ele>
<time>2023-05-18T12:43:29Z</time>
</trkpt>
<trkpt lat="49.320237999781966" lon="8.084899988025427">
<ele>628.5999999999999</ele>
<time>2023-05-18T12:43:30Z</time>
</trkpt>
<trkpt lat="49.32025291956961" lon="8.084856988862157">
<ele>628.8</ele>
<time>2023-05-18T12:43:31Z</time>
</trkpt>
<trkpt lat="49.32026691734791" lon="8.08482295833528">
<ele>629.2</ele>
<time>2023-05-18T12:43:32Z</time>
</trkpt>
<trkpt lat="49.32027496397495" lon="8.08477995917201">
<ele>629.4000000000001</ele>
<time>2023-05-18T12:43:33Z</time>
</trkpt>
<trkpt lat="49.320281920954585" lon="8.084744922816753">
<ele>629.5999999999999</ele>
<time>2023-05-18T12:43:34Z</time>
</trkpt>
<trkpt lat="49.320282926782966" lon="8.08471198193729">
<ele>629.8</ele>
<time>2023-05-18T12:43:35Z</time>
</trkpt>
<trkpt lat="49.32028695009649" lon="8.084664959460497">
<ele>630.2</ele>
<time>2023-05-18T12:43:36Z</time>
</trkpt>
<trkpt lat="49.32028695009649" lon="8.084632940590382">
<ele>630.4000000000001</ele>
<time>2023-05-18T12:43:37Z</time>
</trkpt>
<trkpt lat="49.32029197923839" lon="8.084601927548647">
<ele>630.5999999999999</ele>
<time>2023-05-18T12:43:38Z</time>
</trkpt>
<trkpt lat="49.32029692456126" lon="8.08458692394197">
<ele>630.8</ele>
<time>2023-05-18T12:43:39Z</time>
</trkpt>
<trkpt lat="49.320302959531546" lon="8.0845629516989">
<ele>631</ele>
<time>2023-05-18T12:43:40Z</time>
</trkpt>
<trkpt lat="49.32030698284507" lon="8.084532944485545">
<ele>631.2</ele>
<time>2023-05-18T12:43:41Z</time>
</trkpt>
<trkpt lat="49.32030798867345" lon="8.08450193144381">
<ele>631.4000000000001</ele>
<time>2023-05-18T12:43:42Z</time>
</trkpt>
<trkpt lat="49.32031192816794" lon="8.084459938108921">
<ele>631.5999999999999</ele>
<time>2023-05-18T12:43:43Z</time>
</trkpt>
<trkpt lat="49.32031695730984" lon="8.084417944774032">
<ele>631.8</ele>
<time>2023-05-18T12:43:44Z</time>
</trkpt>
<trkpt lat="49.320321986451745" lon="8.084374945610762">
<ele>631.8</ele>
<time>2023-05-18T12:43:45Z</time>
</trkpt>
<trkpt lat="49.320327937603" lon="8.08432792313397">
<ele>632</ele>
<time>2023-05-18T12:43:46Z</time>
</trkpt>
<trkpt lat="49.32032994925976" lon="8.084289953112602">
<ele>632.2</ele>
<time>2023-05-18T12:43:47Z</time>
</trkpt>
<trkpt lat="49.3203329667449" lon="8.08424293063581">
<ele>632.4000000000001</ele>
<time>2023-05-18T12:43:48Z</time>
</trkpt>
<trkpt lat="49.32033497840166" lon="8.084202948957682">
<ele>632.5999999999999</ele>
<time>2023-05-18T12:43:49Z</time>
</trkpt>
<trkpt lat="49.32033699005842" lon="8.08415793813765">
<ele>632.8</ele>
<time>2023-05-18T12:43:50Z</time>
</trkpt>
<trkpt lat="49.320327937603" lon="8.084122985601425">
<ele>633</ele>
<time>2023-05-18T12:43:51Z</time>
</trkpt>
<trkpt lat="49.32032994925976" lon="8.084084931761026">
<ele>633.2</ele>
<time>2023-05-18T12:43:52Z</time>
</trkpt>
<trkpt lat="49.32033699005842" lon="8.08404696173966">
<ele>633.5999999999999</ele>
<time>2023-05-18T12:43:53Z</time>
</trkpt>
<trkpt lat="49.32034998200834" lon="8.084006980061531">
<ele>633.8</ele>
<time>2023-05-18T12:43:54Z</time>
</trkpt>
<trkpt lat="49.32035794481635" lon="8.083964986726642">
<ele>634</ele>
<time>2023-05-18T12:43:55Z</time>
</trkpt>
<trkpt lat="49.320364985615015" lon="8.08393799699843">
<ele>634.2</ele>
<time>2023-05-18T12:43:56Z</time>
</trkpt>
<trkpt lat="49.32037496007979" lon="8.083909917622805">
<ele>634.4000000000001</ele>
<time>2023-05-18T12:43:57Z</time>
</trkpt>
<trkpt lat="49.32038191705942" lon="8.08387697674334">
<ele>634.5999999999999</ele>
<time>2023-05-18T12:43:58Z</time>
</trkpt>
<trkpt lat="49.32039197534323" lon="8.083839928731322">
<ele>634.8</ele>
<time>2023-05-18T12:43:59Z</time>
</trkpt>
<trkpt lat="49.32039993815124" lon="8.083807993680239">
<ele>635</ele>
<time>2023-05-18T12:44:00Z</time>
</trkpt>
<trkpt lat="49.32039993815124" lon="8.08376993983984">
<ele>635.2</ele>
<time>2023-05-18T12:44:01Z</time>
</trkpt>
<trkpt lat="49.32040496729314" lon="8.083736998960376">
<ele>635.4000000000001</ele>
<time>2023-05-18T12:44:02Z</time>
</trkpt>
<trkpt lat="49.32041494175792" lon="8.083696933463216">
<ele>635.5999999999999</ele>
<time>2023-05-18T12:44:03Z</time>
</trkpt>
<trkpt lat="49.32042298838496" lon="8.08365996927023">
<ele>635.8</ele>
<time>2023-05-18T12:44:04Z</time>
</trkpt>
<trkpt lat="49.32041997089982" lon="8.083632979542017">
<ele>636</ele>
<time>2023-05-18T12:44:05Z</time>
</trkpt>
<trkpt lat="49.32041795924306" lon="8.083601966500282">
<ele>636.2</ele>
<time>2023-05-18T12:44:06Z</time>
</trkpt>
<trkpt lat="49.32041695341468" lon="8.08357497677207">
<ele>636.4000000000001</ele>
<time>2023-05-18T12:44:07Z</time>
</trkpt>
<trkpt lat="49.32041695341468" lon="8.083544969558716">
<ele>636.5999999999999</ele>
<time>2023-05-18T12:44:08Z</time>
</trkpt>
<trkpt lat="49.320411924272776" lon="8.083506999537349">
<ele>636.8</ele>
<time>2023-05-18T12:44:09Z</time>
</trkpt>
<trkpt lat="49.32041494175792" lon="8.083462994545698">
<ele>636.8</ele>
<time>2023-05-18T12:44:10Z</time>
</trkpt>
<trkpt lat="49.32042198255658" lon="8.083422929048538">
<ele>637</ele>
<time>2023-05-18T12:44:11Z</time>
</trkpt>
<trkpt lat="49.32042793370783" lon="8.083387976512313">
<ele>637.2</ele>
<time>2023-05-18T12:44:12Z</time>
</trkpt>
<trkpt lat="49.3204349745065" lon="8.083364926278591">
<ele>637.4000000000001</ele>
<time>2023-05-18T12:44:13Z</time>
</trkpt>
<trkpt lat="49.32044293731451" lon="8.083329973742366">
<ele>637.5999999999999</ele>
<time>2023-05-18T12:44:14Z</time>
</trkpt>
<trkpt lat="49.320449978113174" lon="8.08329694904387">
<ele>638</ele>
<time>2023-05-18T12:44:15Z</time>
</trkpt>
<trkpt lat="49.32046196423471" lon="8.083259984850883">
<ele>638.2</ele>
<time>2023-05-18T12:44:16Z</time>
</trkpt>
<trkpt lat="49.320471938699484" lon="8.083216985687613">
<ele>638.4000000000001</ele>
<time>2023-05-18T12:44:17Z</time>
</trkpt>
<trkpt lat="49.32047797366977" lon="8.083169963210821">
<ele>638.5999999999999</ele>
<time>2023-05-18T12:44:18Z</time>
</trkpt>
<trkpt lat="49.32047696784139" lon="8.083134926855564">
<ele>638.8</ele>
<time>2023-05-18T12:44:19Z</time>
</trkpt>
<trkpt lat="49.320471938699484" lon="8.083092933520675">
<ele>639</ele>
<time>2023-05-18T12:44:20Z</time>
</trkpt>
<trkpt lat="49.32047797366977" lon="8.083041971549392">
<ele>639.2</ele>
<time>2023-05-18T12:44:21Z</time>
</trkpt>
<trkpt lat="49.32048794813454" lon="8.082979945465922">
<ele>639.4000000000001</ele>
<time>2023-05-18T12:44:22Z</time>
</trkpt>
<trkpt lat="49.32050697505474" lon="8.082924960181117">
<ele>639.5999999999999</ele>
<time>2023-05-18T12:44:23Z</time>
</trkpt>
<trkpt lat="49.3205229844898" lon="8.082874920219183">
<ele>640</ele>
<time>2023-05-18T12:44:24Z</time>
</trkpt>
<trkpt lat="49.32053999975324" lon="8.08282496407628">
<ele>640.2</ele>
<time>2023-05-18T12:44:25Z</time>
</trkpt>
<trkpt lat="49.320557937026024" lon="8.082776935771108">
<ele>640.4000000000001</ele>
<time>2023-05-18T12:44:26Z</time>
</trkpt>
<trkpt lat="49.3205729406327" lon="8.08273695409298">
<ele>640.5999999999999</ele>
<time>2023-05-18T12:44:27Z</time>
</trkpt>
<trkpt lat="49.320584926754236" lon="8.082696972414851">
<ele>641</ele>
<time>2023-05-18T12:44:28Z</time>
</trkpt>
<trkpt lat="49.32059297338128" lon="8.082659924402833">
<ele>641.2</ele>
<time>2023-05-18T12:44:29Z</time>
</trkpt>
<trkpt lat="49.32059993036091" lon="8.082624971866608">
<ele>641.4000000000001</ele>
<time>2023-05-18T12:44:30Z</time>
</trkpt>
<trkpt lat="49.32060697115958" lon="8.08258499018848">
<ele>641.5999999999999</ele>
<time>2023-05-18T12:44:31Z</time>
</trkpt>
<trkpt lat="49.32060998864472" lon="8.082549953833222">
<ele>641.8</ele>
<time>2023-05-18T12:44:32Z</time>
</trkpt>
<trkpt lat="49.32061191648245" lon="8.082509972155094">
<ele>642.2</ele>
<time>2023-05-18T12:44:33Z</time>
</trkpt>
<trkpt lat="49.32061191648245" lon="8.082477953284979">
<ele>642.4000000000001</ele>
<time>2023-05-18T12:44:34Z</time>
</trkpt>
<trkpt lat="49.32061493396759" lon="8.082444928586483">
<ele>642.5999999999999</ele>
<time>2023-05-18T12:44:35Z</time>
</trkpt>
<trkpt lat="49.32061795145273" lon="8.082401929423213">
<ele>643</ele>
<time>2023-05-18T12:44:36Z</time>
</trkpt>
<trkpt lat="49.320621974766254" lon="8.082359936088324">
<ele>643.2</ele>
<time>2023-05-18T12:44:37Z</time>
</trkpt>
<trkpt lat="49.320624992251396" lon="8.082321966066957">
<ele>643.4000000000001</ele>
<time>2023-05-18T12:44:38Z</time>
</trkpt>
<trkpt lat="49.32062993757427" lon="8.08228793554008">
<ele>643.5999999999999</ele>
<time>2023-05-18T12:44:39Z</time>
</trkpt>
<trkpt lat="49.32063798420131" lon="8.082251977175474">
<ele>643.8</ele>
<time>2023-05-18T12:44:40Z</time>
</trkpt>
<trkpt lat="49.32064997032285" lon="8.082207972183824">
<ele>644.2</ele>
<time>2023-05-18T12:44:41Z</time>
</trkpt>
<trkpt lat="49.32065793313086" lon="8.082166984677315">
<ele>644.4000000000001</ele>
<time>2023-05-18T12:44:42Z</time>
</trkpt>
<trkpt lat="49.32067193090916" lon="8.082109987735748">
<ele>644.5999999999999</ele>
<time>2023-05-18T12:44:43Z</time>
</trkpt>
<trkpt lat="49.32068299502134" lon="8.082069922238588">
<ele>644.8</ele>
<time>2023-05-18T12:44:44Z</time>
</trkpt>
<trkpt lat="49.32069296948612" lon="8.082024995237589">
<ele>645</ele>
<time>2023-05-18T12:44:45Z</time>
</trkpt>
<trkpt lat="49.32070193812251" lon="8.081981996074319">
<ele>645.4000000000001</ele>
<time>2023-05-18T12:44:46Z</time>
</trkpt>
<trkpt lat="49.32071199640632" lon="8.081926926970482">
<ele>645.5999999999999</ele>
<time>2023-05-18T12:44:47Z</time>
</trkpt>
<trkpt lat="49.32071493007243" lon="8.081879988312721">
<ele>645.8</ele>
<time>2023-05-18T12:44:48Z</time>
</trkpt>
<trkpt lat="49.32072498835623" lon="8.081837994977832">
<ele>646</ele>
<time>2023-05-18T12:44:49Z</time>
</trkpt>
<trkpt lat="49.320732951164246" lon="8.081801952794194">
<ele>646.4000000000001</ele>
<time>2023-05-18T12:44:50Z</time>
</trkpt>
<trkpt lat="49.32073798030615" lon="8.08177295140922">
<ele>646.5999999999999</ele>
<time>2023-05-18T12:44:51Z</time>
</trkpt>
<trkpt lat="49.32074292562902" lon="8.081734981387854">
<ele>646.8</ele>
<time>2023-05-18T12:44:52Z</time>
</trkpt>
<trkpt lat="49.320749966427684" lon="8.081689970567822">
<ele>647</ele>
<time>2023-05-18T12:44:53Z</time>
</trkpt>
<trkpt lat="49.320749966427684" lon="8.081651916727424">
<ele>647.2</ele>
<time>2023-05-18T12:44:54Z</time>
</trkpt>
<trkpt lat="49.320749966427684" lon="8.081621993333101">
<ele>647.4000000000001</ele>
<time>2023-05-18T12:44:55Z</time>
</trkpt>
<trkpt lat="49.32075499556959" lon="8.081582933664322">
<ele>647.5999999999999</ele>
<time>2023-05-18T12:44:56Z</time>
</trkpt>
<trkpt lat="49.320749966427684" lon="8.08155795559287">
<ele>647.8</ele>
<time>2023-05-18T12:44:57Z</time>
</trkpt>
<trkpt lat="49.320749966427684" lon="8.081522919237614">
<ele>648</ele>
<time>2023-05-18T12:44:58Z</time>
</trkpt>
<trkpt lat="49.32074795477092" lon="8.081481931731105">
<ele>648.2</ele>
<time>2023-05-18T12:44:59Z</time>
</trkpt>
<trkpt lat="49.32074191980064" lon="8.081431975588202">
<ele>648.5999999999999</ele>
<time>2023-05-18T12:45:00Z</time>
</trkpt>
<trkpt lat="49.320732951164246" lon="8.081394927576184">
<ele>648.8</ele>
<time>2023-05-18T12:45:01Z</time>
</trkpt>
<trkpt lat="49.32072498835623" lon="8.081357963383198">
<ele>649</ele>
<time>2023-05-18T12:45:02Z</time>
</trkpt>
<trkpt lat="49.32072691619396" lon="8.081307923421264">
<ele>649.2</ele>
<time>2023-05-18T12:45:03Z</time>
</trkpt>
<trkpt lat="49.32072792202234" lon="8.081267941743135">
<ele>649.4000000000001</ele>
<time>2023-05-18T12:45:04Z</time>
</trkpt>
<trkpt lat="49.320731945335865" lon="8.081214968115091">
<ele>649.5999999999999</ele>
<time>2023-05-18T12:45:05Z</time>
</trkpt>
<trkpt lat="49.32073496282101" lon="8.081166939809918">
<ele>649.8</ele>
<time>2023-05-18T12:45:06Z</time>
</trkpt>
<trkpt lat="49.320731945335865" lon="8.081117989495397">
<ele>650</ele>
<time>2023-05-18T12:45:07Z</time>
</trkpt>
<trkpt lat="49.320732951164246" lon="8.081069961190224">
<ele>650.2</ele>
<time>2023-05-18T12:45:08Z</time>
</trkpt>
<trkpt lat="49.320731945335865" lon="8.081011958420277">
<ele>650.4000000000001</ele>
<time>2023-05-18T12:45:09Z</time>
</trkpt>
<trkpt lat="49.32072498835623" lon="8.080951943993568">
<ele>650.8</ele>
<time>2023-05-18T12:45:10Z</time>
</trkpt>
<trkpt lat="49.32071493007243" lon="8.080904921516776">
<ele>651</ele>
<time>2023-05-18T12:45:11Z</time>
</trkpt>
<trkpt lat="49.320707973092794" lon="8.080852953717113">
<ele>651.2</ele>
<time>2023-05-18T12:45:12Z</time>
</trkpt>
<trkpt lat="49.320706967264414" lon="8.080796962603927">
<ele>651.4000000000001</ele>
<time>2023-05-18T12:45:13Z</time>
</trkpt>
<trkpt lat="49.320707973092794" lon="8.080749940127134">
<ele>651.5999999999999</ele>
<time>2023-05-18T12:45:14Z</time>
</trkpt>
<trkpt lat="49.32071199640632" lon="8.080702917650342">
<ele>651.8</ele>
<time>2023-05-18T12:45:15Z</time>
</trkpt>
<trkpt lat="49.32071493007243" lon="8.080651955679059">
<ele>652</ele>
<time>2023-05-18T12:45:16Z</time>
</trkpt>
<trkpt lat="49.32071794755757" lon="8.080597976222634">
<ele>652.2</ele>
<time>2023-05-18T12:45:17Z</time>
</trkpt>
<trkpt lat="49.32072197087109" lon="8.08054693043232">
<ele>652.4000000000001</ele>
<time>2023-05-18T12:45:18Z</time>
</trkpt>
<trkpt lat="49.32072197087109" lon="8.080502925440669">
<ele>652.5999999999999</ele>
<time>2023-05-18T12:45:19Z</time>
</trkpt>
<trkpt lat="49.32071493007243" lon="8.080466967076063">
<ele>652.8</ele>
<time>2023-05-18T12:45:20Z</time>
</trkpt>
<trkpt lat="49.320706967264414" lon="8.080441989004612">
<ele>653.2</ele>
<time>2023-05-18T12:45:21Z</time>
</trkpt>
<trkpt lat="49.32069498114288" lon="8.0804149992764">
<ele>653.4000000000001</ele>
<time>2023-05-18T12:45:22Z</time>
</trkpt>
<trkpt lat="49.320687940344214" lon="8.080376945436">
<ele>653.5999999999999</ele>
<time>2023-05-18T12:45:23Z</time>
</trkpt>
<trkpt lat="49.32068299502134" lon="8.080339981243014">
<ele>653.8</ele>
<time>2023-05-18T12:45:24Z</time>
</trkpt>
<trkpt lat="49.3206799775362" lon="8.080296982079744">
<ele>654.2</ele>
<time>2023-05-18T12:45:25Z</time>
</trkpt>
<trkpt lat="49.32067293673754" lon="8.080251971259713">
<ele>654.4000000000001</ele>
<time>2023-05-18T12:45:26Z</time>
</trkpt>
<trkpt lat="49.320664973929524" lon="8.08020494878292">
<ele>654.5999999999999</ele>
<time>2023-05-18T12:45:27Z</time>
</trkpt>
<trkpt lat="49.32065499946475" lon="8.080154992640018">
<ele>654.8</ele>
<time>2023-05-18T12:45:28Z</time>
</trkpt>
<trkpt lat="49.3206419236958" lon="8.080107970163226">
<ele>655</ele>
<time>2023-05-18T12:45:29Z</time>
</trkpt>
<trkpt lat="49.32063496671617" lon="8.080071927979589">
<ele>655.2</ele>
<time>2023-05-18T12:45:30Z</time>
</trkpt>
<trkpt lat="49.32063496671617" lon="8.080027922987938">
<ele>655.4000000000001</ele>
<time>2023-05-18T12:45:31Z</time>
</trkpt>
<trkpt lat="49.32062993757427" lon="8.079992970451713">
<ele>655.8</ele>
<time>2023-05-18T12:45:32Z</time>
</trkpt>
<trkpt lat="49.320624992251396" lon="8.079951982945204">
<ele>656</ele>
<time>2023-05-18T12:45:33Z</time>
</trkpt>
<trkpt lat="49.32061191648245" lon="8.079916946589947">
<ele>656.2</ele>
<time>2023-05-18T12:45:34Z</time>
</trkpt>
<trkpt lat="49.320604959502816" lon="8.079872941598296">
<ele>656.4000000000001</ele>
<time>2023-05-18T12:45:35Z</time>
</trkpt>
<trkpt lat="49.32059297338128" lon="8.079849975183606">
<ele>656.5999999999999</ele>
<time>2023-05-18T12:45:36Z</time>
</trkpt>
<trkpt lat="49.32057495228946" lon="8.079819967970252">
<ele>656.8</ele>
<time>2023-05-18T12:45:37Z</time>
</trkpt>
<trkpt lat="49.32055693119764" lon="8.079787949100137">
<ele>657</ele>
<time>2023-05-18T12:45:38Z</time>
</trkpt>
<trkpt lat="49.32053195312619" lon="8.079754924401641">
<ele>657.2</ele>
<time>2023-05-18T12:45:39Z</time>
</trkpt>
<trkpt lat="49.32051292620599" lon="8.079726928845048">
<ele>657.4000000000001</ele>
<time>2023-05-18T12:45:40Z</time>
</trkpt>
<trkpt lat="49.32050295174122" lon="8.079689964652061">
<ele>657.5999999999999</ele>
<time>2023-05-18T12:45:41Z</time>
</trkpt>
<trkpt lat="49.3204899597913" lon="8.079662974923849">
<ele>657.8</ele>
<time>2023-05-18T12:45:42Z</time>
</trkpt>
<trkpt lat="49.320472944527864" lon="8.079647971317172">
<ele>658</ele>
<time>2023-05-18T12:45:43Z</time>
</trkpt>
<trkpt lat="49.32046498171985" lon="8.079627938568592">
<ele>658.4000000000001</ele>
<time>2023-05-18T12:45:44Z</time>
</trkpt>
<trkpt lat="49.32044293731451" lon="8.07962198741734">
<ele>658.5999999999999</ele>
<time>2023-05-18T12:45:45Z</time>
</trkpt>
<trkpt lat="49.32041695341468" lon="8.079617964103818">
<ele>658.8</ele>
<time>2023-05-18T12:45:46Z</time>
</trkpt>
<trkpt lat="49.32039298117161" lon="8.079612934961915">
<ele>659</ele>
<time>2023-05-18T12:45:47Z</time>
</trkpt>
<trkpt lat="49.32037294842303" lon="8.079604972153902">
<ele>659.2</ele>
<time>2023-05-18T12:45:48Z</time>
</trkpt>
<trkpt lat="49.3203519936651" lon="8.079597931355238">
<ele>659.4000000000001</ele>
<time>2023-05-18T12:45:49Z</time>
</trkpt>
<trkpt lat="49.320327937603" lon="8.079589968547225">
<ele>659.5999999999999</ele>
<time>2023-05-18T12:45:50Z</time>
</trkpt>
<trkpt lat="49.320301953703165" lon="8.07957697659731">
<ele>659.5999999999999</ele>
<time>2023-05-18T12:45:51Z</time>
</trkpt>
<trkpt lat="49.320281920954585" lon="8.079571947455406">
<ele>659.8</ele>
<time>2023-05-18T12:45:52Z</time>
</trkpt>
<trkpt lat="49.32026197202504" lon="8.079569935798645">
<ele>660</ele>
<time>2023-05-18T12:45:53Z</time>
</trkpt>
<trkpt lat="49.32024294510484" lon="8.079569935798645">
<ele>660</ele>
<time>2023-05-18T12:45:54Z</time>
</trkpt>
<trkpt lat="49.32022199034691" lon="8.07955996133387">
<ele>671.2</ele>
<time>2023-05-18T12:47:19Z</time>
</trkpt>
<trkpt lat="49.3184179533273" lon="8.082431936636567">
<ele>671.4000000000001</ele>
<time>2023-05-18T12:47:20Z</time>
</trkpt>
<trkpt lat="49.318434968590736" lon="8.082471918314695">
<ele>671.5999999999999</ele>
<time>2023-05-18T12:47:21Z</time>
</trkpt>
<trkpt lat="49.318452989682555" lon="8.08249999769032">
<ele>671.8</ele>
<time>2023-05-18T12:47:22Z</time>
</trkpt>
<trkpt lat="49.31846799328923" lon="8.082529921084642">
<ele>672.2</ele>
<time>2023-05-18T12:47:23Z</time>
</trkpt>
<trkpt lat="49.31848794221878" lon="8.082547942176461">
<ele>672.4000000000001</ele>
<time>2023-05-18T12:47:24Z</time>
</trkpt>
<trkpt lat="49.31851292029023" lon="8.082577949389815">
<ele>672.5999999999999</ele>
<time>2023-05-18T12:47:25Z</time>
</trkpt>
<trkpt lat="49.31853496469557" lon="8.082602927461267">
<ele>672.8</ele>
<time>2023-05-18T12:47:26Z</time>
</trkpt>
<trkpt lat="49.31855793111026" lon="8.082634946331382">
<ele>673</ele>
<time>2023-05-18T12:47:27Z</time>
</trkpt>
<trkpt lat="49.31859196163714" lon="8.08267492800951">
<ele>673.4000000000001</ele>
<time>2023-05-18T12:47:28Z</time>
</trkpt>
<trkpt lat="49.318624986335635" lon="8.082711976021528">
<ele>673.5999999999999</ele>
<time>2023-05-18T12:47:29Z</time>
</trkpt>
<trkpt lat="49.31865692138672" lon="8.082747934386134">
<ele>673.8</ele>
<time>2023-05-18T12:47:30Z</time>
</trkpt>
<trkpt lat="49.31868692860007" lon="8.08278196491301">
<ele>674.2</ele>
<time>2023-05-18T12:47:31Z</time>
</trkpt>
<trkpt lat="49.318712996318936" lon="8.082812977954745">
<ele>674.4000000000001</ele>
<time>2023-05-18T12:47:32Z</time>
</trkpt>
<trkpt lat="49.31873696856201" lon="8.082841979339719">
<ele>674.5999999999999</ele>
<time>2023-05-18T12:47:33Z</time>
</trkpt>
<trkpt lat="49.31876295246184" lon="8.082876931875944">
<ele>674.8</ele>
<time>2023-05-18T12:47:34Z</time>
</trkpt>
<trkpt lat="49.31878994219005" lon="8.082907944917679">
<ele>675.2</ele>
<time>2023-05-18T12:47:35Z</time>
</trkpt>
<trkpt lat="49.31881693191826" lon="8.08293292298913">
<ele>675.4000000000001</ele>
<time>2023-05-18T12:47:36Z</time>
</trkpt>
<trkpt lat="49.31884299963713" lon="8.082954967394471">
<ele>675.5999999999999</ele>
<time>2023-05-18T12:47:37Z</time>
</trkpt>
<trkpt lat="49.31887191720307" lon="8.08297298848629">
<ele>675.8</ele>
<time>2023-05-18T12:47:38Z</time>
</trkpt>
<trkpt lat="49.31889798492193" lon="8.082992937415838">
<ele>676</ele>
<time>2023-05-18T12:47:39Z</time>
</trkpt>
<trkpt lat="49.318927992135286" lon="8.083011964336038">
<ele>676.2</ele>
<time>2023-05-18T12:47:40Z</time>
</trkpt>
<trkpt lat="49.31895799934864" lon="8.083031997084618">
<ele>676.4000000000001</ele>
<time>2023-05-18T12:47:41Z</time>
</trkpt>
<trkpt lat="49.31898691691458" lon="8.083051946014166">
<ele>676.5999999999999</ele>
<time>2023-05-18T12:47:42Z</time>
</trkpt>
<trkpt lat="49.319016924127936" lon="8.083067955449224">
<ele>676.8</ele>
<time>2023-05-18T12:47:43Z</time>
</trkpt>
<trkpt lat="49.31904491968453" lon="8.0830829590559">
<ele>677</ele>
<time>2023-05-18T12:47:44Z</time>
</trkpt>
<trkpt lat="49.31907492689788" lon="8.083094945177436">
<ele>677.2</ele>
<time>2023-05-18T12:47:45Z</time>
</trkpt>
<trkpt lat="49.319102922454476" lon="8.083107937127352">
<ele>677.5999999999999</ele>
<time>2023-05-18T12:47:46Z</time>
</trkpt>
<trkpt lat="49.31912496685982" lon="8.083122940734029">
<ele>677.8</ele>
<time>2023-05-18T12:47:47Z</time>
</trkpt>
<trkpt lat="49.31914994493127" lon="8.083132999017835">
<ele>678</ele>
<time>2023-05-18T12:47:48Z</time>
</trkpt>
<trkpt lat="49.31917492300272" lon="8.083142973482609">
<ele>678.2</ele>
<time>2023-05-18T12:47:49Z</time>
</trkpt>
<trkpt lat="49.3191999848932" lon="8.083152947947383">
<ele>678.4000000000001</ele>
<time>2023-05-18T12:47:50Z</time>
</trkpt>
<trkpt lat="49.319224962964654" lon="8.08316795155406">
<ele>678.5999999999999</ele>
<time>2023-05-18T12:47:51Z</time>
</trkpt>
<trkpt lat="49.31925295852125" lon="8.08318697847426">
<ele>678.8</ele>
<time>2023-05-18T12:47:52Z</time>
</trkpt>
<trkpt lat="49.31928195990622" lon="8.083197958767414">
<ele>679</ele>
<time>2023-05-18T12:47:53Z</time>
</trkpt>
<trkpt lat="49.31930693797767" lon="8.083202987909317">
<ele>679.2</ele>
<time>2023-05-18T12:47:54Z</time>
</trkpt>
<trkpt lat="49.3193329218775" lon="8.083204999566078">
<ele>679.4000000000001</ele>
<time>2023-05-18T12:47:55Z</time>
</trkpt>
<trkpt lat="49.31935999542475" lon="8.083202987909317">
<ele>679.5999999999999</ele>
<time>2023-05-18T12:47:56Z</time>
</trkpt>
<trkpt lat="49.3193849734962" lon="8.083199970424175">
<ele>679.8</ele>
<time>2023-05-18T12:47:57Z</time>
</trkpt>
<trkpt lat="49.31940995156765" lon="8.083197958767414">
<ele>679.8</ele>
<time>2023-05-18T12:47:58Z</time>
</trkpt>
<trkpt lat="49.31943199597299" lon="8.08318798430264">
<ele>680</ele>
<time>2023-05-18T12:47:59Z</time>
</trkpt>
<trkpt lat="49.31945697404444" lon="8.08316795155406">
<ele>680.2</ele>
<time>2023-05-18T12:48:00Z</time>
</trkpt>
<trkpt lat="49.31947792880237" lon="8.083141967654228">
<ele>680.4000000000001</ele>
<time>2023-05-18T12:48:01Z</time>
</trkpt>
<trkpt lat="49.31949192658067" lon="8.083112966269255">
<ele>680.4000000000001</ele>
<time>2023-05-18T12:48:02Z</time>
</trkpt>
<trkpt lat="49.319502990692854" lon="8.083084970712662">
<ele>680.5999999999999</ele>
<time>2023-05-18T12:48:03Z</time>
</trkpt>
<trkpt lat="49.31951698847115" lon="8.083054963499308">
<ele>680.8</ele>
<time>2023-05-18T12:48:04Z</time>
</trkpt>
<trkpt lat="49.319527968764305" lon="8.083027973771095">
<ele>681</ele>
<time>2023-05-18T12:48:05Z</time>
</trkpt>
<trkpt lat="49.3195369374007" lon="8.08299696072936">
<ele>681</ele>
<time>2023-05-18T12:48:06Z</time>
</trkpt>
<trkpt lat="49.31954297237098" lon="8.082964941859245">
<ele>681.2</ele>
<time>2023-05-18T12:48:07Z</time>
</trkpt>
<trkpt lat="49.319549929350615" lon="8.082939963787794">
<ele>681.2</ele>
<time>2023-05-18T12:48:08Z</time>
</trkpt>
<trkpt lat="49.31955797597766" lon="8.082921942695975">
<ele>681.4000000000001</ele>
<time>2023-05-18T12:48:09Z</time>
</trkpt>
<trkpt lat="49.31956493295729" lon="8.082906939089298">
<ele>681.4000000000001</ele>
<time>2023-05-18T12:48:10Z</time>
</trkpt>
<trkpt lat="49.319571973755956" lon="8.082869974896312">
<ele>681.5999999999999</ele>
<time>2023-05-18T12:48:11Z</time>
</trkpt>
<trkpt lat="49.31957792490721" lon="8.082837956026196">
<ele>681.5999999999999</ele>
<time>2023-05-18T12:48:12Z</time>
</trkpt>
<trkpt lat="49.31958496570587" lon="8.082806942984462">
<ele>681.8</ele>
<time>2023-05-18T12:48:13Z</time>
</trkpt>
<trkpt lat="49.319592928513885" lon="8.082766961306334">
<ele>681.8</ele>
<time>2023-05-18T12:48:14Z</time>
</trkpt>
<trkpt lat="49.31960198096931" lon="8.0827169213444">
<ele>682</ele>
<time>2023-05-18T12:48:15Z</time>
</trkpt>
<trkpt lat="49.31960793212056" lon="8.082669982686639">
<ele>682.2</ele>
<time>2023-05-18T12:48:16Z</time>
</trkpt>
<trkpt lat="49.319614972919226" lon="8.08262798935175">
<ele>682.2</ele>
<time>2023-05-18T12:48:17Z</time>
</trkpt>
<trkpt lat="49.31962192989886" lon="8.082591947168112">
<ele>682.4000000000001</ele>
<time>2023-05-18T12:48:18Z</time>
</trkpt>
<trkpt lat="49.31962796486914" lon="8.082562945783138">
<ele>682.4000000000001</ele>
<time>2023-05-18T12:48:19Z</time>
</trkpt>
<trkpt lat="49.3196299765259" lon="8.082532938569784">
<ele>682.5999999999999</ele>
<time>2023-05-18T12:48:20Z</time>
</trkpt>
<trkpt lat="49.3196299765259" lon="8.082494968548417">
<ele>682.8</ele>
<time>2023-05-18T12:48:21Z</time>
</trkpt>
<trkpt lat="49.31962695904076" lon="8.082449957728386">
<ele>682.8</ele>
<time>2023-05-18T12:48:22Z</time>
</trkpt>
<trkpt lat="49.31962695904076" lon="8.082407964393497">
<ele>683</ele>
<time>2023-05-18T12:48:23Z</time>
</trkpt>
<trkpt lat="49.31962192989886" lon="8.08236999437213">
<ele>683.4000000000001</ele>
<time>2023-05-18T12:48:24Z</time>
</trkpt>
<trkpt lat="49.3196199182421" lon="8.082339987158775">
<ele>683.5999999999999</ele>
<time>2023-05-18T12:48:25Z</time>
</trkpt>
<trkpt lat="49.31961799040437" lon="8.082319954410195">
<ele>683.8</ele>
<time>2023-05-18T12:48:26Z</time>
</trkpt>
<trkpt lat="49.319612961262465" lon="8.082297993823886">
<ele>684.2</ele>
<time>2023-05-18T12:48:27Z</time>
</trkpt>
<trkpt lat="49.31959695182741" lon="8.082266980782151">
<ele>684.4000000000001</ele>
<time>2023-05-18T12:48:28Z</time>
</trkpt>
<trkpt lat="49.31957993656397" lon="8.082247953861952">
<ele>684.8</ele>
<time>2023-05-18T12:48:29Z</time>
</trkpt>
<trkpt lat="49.31955998763442" lon="8.082242924720049">
<ele>685.2</ele>
<time>2023-05-18T12:48:30Z</time>
</trkpt>
<trkpt lat="49.31953299790621" lon="8.082257928326726">
<ele>685.5999999999999</ele>
<time>2023-05-18T12:48:31Z</time>
</trkpt>
<trkpt lat="49.31951195932925" lon="8.082272931933403">
<ele>685.8</ele>
<time>2023-05-18T12:48:32Z</time>
</trkpt>
<trkpt lat="49.31950491853058" lon="8.082274943590164">
<ele>686.2</ele>
<time>2023-05-18T12:48:33Z</time>
</trkpt>
<trkpt lat="49.31949192658067" lon="8.082282990217209">
<ele>686.5999999999999</ele>
<time>2023-05-18T12:48:34Z</time>
</trkpt>
<trkpt lat="49.31947499513626" lon="8.082314925268292">
<ele>686.8</ele>
<time>2023-05-18T12:48:35Z</time>
</trkpt>
<trkpt lat="49.319459991529584" lon="8.082336969673634">
<ele>687.2</ele>
<time>2023-05-18T12:48:36Z</time>
</trkpt>
<trkpt lat="49.319441970437765" lon="8.082359936088324">
<ele>687.4000000000001</ele>
<time>2023-05-18T12:48:37Z</time>
</trkpt>
<trkpt lat="49.319419926032424" lon="8.082374939695">
<ele>687.5999999999999</ele>
<time>2023-05-18T12:48:38Z</time>
</trkpt>
<trkpt lat="49.319399977102876" lon="8.08239497244358">
<ele>688</ele>
<time>2023-05-18T12:48:39Z</time>
</trkpt>
<trkpt lat="49.31938296183944" lon="8.082422968000174">
<ele>688</ele>
<time>2023-05-18T12:48:40Z</time>
</trkpt>
<trkpt lat="49.31936795823276" lon="8.082457920536399">
<ele>688.2</ele>
<time>2023-05-18T12:48:41Z</time>
</trkpt>
<trkpt lat="49.31936192326248" lon="8.082492956891656">
<ele>688.4000000000001</ele>
<time>2023-05-18T12:48:42Z</time>
</trkpt>
<trkpt lat="49.31935999542475" lon="8.082534950226545">
<ele>688.5999999999999</ele>
<time>2023-05-18T12:48:43Z</time>
</trkpt>
<trkpt lat="49.319356977939606" lon="8.082567974925041">
<ele>688.5999999999999</ele>
<time>2023-05-18T12:48:44Z</time>
</trkpt>
<trkpt lat="49.31935295462608" lon="8.082599993795156">
<ele>688.8</ele>
<time>2023-05-18T12:48:45Z</time>
</trkpt>
<trkpt lat="49.31934792548418" lon="8.08262798935175">
<ele>688.8</ele>
<time>2023-05-18T12:48:46Z</time>
</trkpt>
<trkpt lat="49.31933996267617" lon="8.082649949938059">
<ele>689</ele>
<time>2023-05-18T12:48:47Z</time>
</trkpt>
<trkpt lat="49.3193329218775" lon="8.082672916352749">
<ele>689</ele>
<time>2023-05-18T12:48:48Z</time>
</trkpt>
<trkpt lat="49.319331999868155" lon="8.082704935222864">
<ele>689.2</ele>
<time>2023-05-18T12:48:49Z</time>
</trkpt>
<trkpt lat="49.31932797655463" lon="8.082727985456586">
<ele>689.2</ele>
<time>2023-05-18T12:48:50Z</time>
</trkpt>
<trkpt lat="49.31932495906949" lon="8.082749946042895">
<ele>689.4000000000001</ele>
<time>2023-05-18T12:48:51Z</time>
</trkpt>
<trkpt lat="49.31931699626148" lon="8.082769978791475">
<ele>689.4000000000001</ele>
<time>2023-05-18T12:48:52Z</time>
</trkpt>
<trkpt lat="49.31930299848318" lon="8.082784982398152">
<ele>689.5999999999999</ele>
<time>2023-05-18T12:48:53Z</time>
</trkpt>
<trkpt lat="49.319287994876504" lon="8.082807948812842">
<ele>689.5999999999999</ele>
<time>2023-05-18T12:48:54Z</time>
</trkpt>
<trkpt lat="49.319271985441446" lon="8.082827981561422">
<ele>689.8</ele>
<time>2023-05-18T12:48:55Z</time>
</trkpt>
<trkpt lat="49.31926293298602" lon="8.082837956026196">
<ele>689.8</ele>
<time>2023-05-18T12:48:56Z</time>
</trkpt>
<trkpt lat="49.319249941036105" lon="8.082851953804493">
<ele>689.8</ele>
<time>2023-05-18T12:48:57Z</time>
</trkpt>
<trkpt lat="49.319244995713234" lon="8.082862934097648">
<ele>689.8</ele>
<time>2023-05-18T12:48:58Z</time>
</trkpt>
<trkpt lat="49.319244995713234" lon="8.082864945754409">
<ele>689.8</ele>
<time>2023-05-18T12:48:59Z</time>
</trkpt>
<trkpt lat="49.31924692355096" lon="8.08286695741117">
<ele>690</ele>
<time>2023-05-18T12:49:00Z</time>
</trkpt>
<trkpt lat="49.319247929379344" lon="8.08286695741117">
<ele>690</ele>
<time>2023-05-18T12:49:01Z</time>
</trkpt>
<trkpt lat="49.31924692355096" lon="8.082871986553073">
<ele>689.8</ele>
<time>2023-05-18T12:49:01Z</time>
</trkpt>
<trkpt lat="49.31924692355096" lon="8.08286695741117">
<ele>689.8</ele>
<time>2023-05-18T12:49:02Z</time>
</trkpt>
<trkpt lat="49.319249941036105" lon="8.082859916612506">
<ele>689.8</ele>
<time>2023-05-18T12:49:03Z</time>
</trkpt>
<trkpt lat="49.319251952692866" lon="8.082851953804493">
<ele>689.8</ele>
<time>2023-05-18T12:49:04Z</time>
</trkpt>
<trkpt lat="49.31925295852125" lon="8.082841979339719">
<ele>689.8</ele>
<time>2023-05-18T12:49:05Z</time>
</trkpt>
<trkpt lat="49.31925295852125" lon="8.082836950197816">
<ele>689.8</ele>
<time>2023-05-18T12:49:06Z</time>
</trkpt>
<trkpt lat="49.31925295852125" lon="8.082832926884294">
<ele>689.8</ele>
<time>2023-05-18T12:49:07Z</time>
</trkpt>
<trkpt lat="49.319251952692866" lon="8.082826975733042">
<ele>689.8</ele>
<time>2023-05-18T12:49:08Z</time>
</trkpt>
<trkpt lat="49.31925295852125" lon="8.082817923277617">
<ele>689.8</ele>
<time>2023-05-18T12:49:09Z</time>
</trkpt>
<trkpt lat="49.31926192715764" lon="8.082806942984462">
<ele>689.8</ele>
<time>2023-05-18T12:49:10Z</time>
</trkpt>
<trkpt lat="49.319267962127924" lon="8.082796968519688">
<ele>689.8</ele>
<time>2023-05-18T12:49:11Z</time>
</trkpt>
<trkpt lat="49.31927994824946" lon="8.082787999883294">
<ele>689.8</ele>
<time>2023-05-18T12:49:12Z</time>
</trkpt>
<trkpt lat="49.319287994876504" lon="8.082777941599488">
<ele>689.8</ele>
<time>2023-05-18T12:49:13Z</time>
</trkpt>
<trkpt lat="49.319291934370995" lon="8.082771990448236">
<ele>689.8</ele>
<time>2023-05-18T12:49:14Z</time>
</trkpt>
<trkpt lat="49.319292940199375" lon="8.082774924114347">
<ele>689.8</ele>
<time>2023-05-18T12:49:15Z</time>
</trkpt>
<trkpt lat="49.31928992271423" lon="8.082772996276617">
<ele>689.8</ele>
<time>2023-05-18T12:49:16Z</time>
</trkpt>
<trkpt lat="49.31913695298135" lon="8.082791939377785">
<ele>688.5999999999999</ele>
<time>2023-05-18T12:49:16Z</time>
</trkpt>
<trkpt lat="49.31913494132459" lon="8.082796968519688">
<ele>688.5999999999999</ele>
<time>2023-05-18T12:49:17Z</time>
</trkpt>
<trkpt lat="49.31913494132459" lon="8.08279998600483">
<ele>688.5999999999999</ele>
<time>2023-05-18T12:49:18Z</time>
</trkpt>
<trkpt lat="49.3190879188478" lon="8.082732930779457">
<ele>690.4000000000001</ele>
<time>2023-05-18T12:49:18Z</time>
</trkpt>
<trkpt lat="49.31908196769655" lon="8.082722956314683">
<ele>690.4000000000001</ele>
<time>2023-05-18T12:49:19Z</time>
</trkpt>
<trkpt lat="49.319072999060154" lon="8.082724967971444">
<ele>690.4000000000001</ele>
<time>2023-05-18T12:49:20Z</time>
</trkpt>
<trkpt lat="49.31906696408987" lon="8.0827169213444">
<ele>690.4000000000001</ele>
<time>2023-05-18T12:49:21Z</time>
</trkpt>
<trkpt lat="49.319059923291206" lon="8.082707952708006">
<ele>690.4000000000001</ele>
<time>2023-05-18T12:49:22Z</time>
</trkpt>
<trkpt lat="49.31906495243311" lon="8.082702923566103">
<ele>690.4000000000001</ele>
<time>2023-05-18T12:49:23Z</time>
</trkpt>
<trkpt lat="49.31906696408987" lon="8.082692949101329">
<ele>690.4000000000001</ele>
<time>2023-05-18T12:49:24Z</time>
</trkpt>
<trkpt lat="49.31906998157501" lon="8.082687919959426">
<ele>690.5999999999999</ele>
<time>2023-05-18T12:49:25Z</time>
</trkpt>
<trkpt lat="49.31906998157501" lon="8.082686997950077">
<ele>690.5999999999999</ele>
<time>2023-05-18T12:49:26Z</time>
</trkpt>
<trkpt lat="49.31907199323177" lon="8.082682974636555">
<ele>690.5999999999999</ele>
<time>2023-05-18T12:49:27Z</time>
</trkpt>
<trkpt lat="49.319072999060154" lon="8.08267492800951">
<ele>690.8</ele>
<time>2023-05-18T12:49:28Z</time>
</trkpt>
<trkpt lat="49.319077944383025" lon="8.082666965201497">
<ele>690.8</ele>
<time>2023-05-18T12:49:29Z</time>
</trkpt>
<trkpt lat="49.31908297352493" lon="8.082657996565104">
<ele>690.8</ele>
<time>2023-05-18T12:49:30Z</time>
</trkpt>
<trkpt lat="49.31908699683845" lon="8.082647938281298">
<ele>691</ele>
<time>2023-05-18T12:49:31Z</time>
</trkpt>
<trkpt lat="49.31908993050456" lon="8.082641987130046">
<ele>691.2</ele>
<time>2023-05-18T12:49:32Z</time>
</trkpt>
<trkpt lat="49.31908993050456" lon="8.082639975473285">
<ele>691.4000000000001</ele>
<time>2023-05-18T12:49:33Z</time>
</trkpt>
<trkpt lat="49.31908993050456" lon="8.082634946331382">
<ele>691.4000000000001</ele>
<time>2023-05-18T12:49:34Z</time>
</trkpt>
<trkpt lat="49.31908993050456" lon="8.08262798935175">
<ele>691.5999999999999</ele>
<time>2023-05-18T12:49:35Z</time>
</trkpt>
<trkpt lat="49.3190049380064" lon="8.082516929134727">
<ele>692.5999999999999</ele>
<time>2023-05-18T12:49:35Z</time>
</trkpt>
<trkpt lat="49.31900292634964" lon="8.08252195827663">
<ele>692.5999999999999</ele>
<time>2023-05-18T12:49:36Z</time>
</trkpt>
<trkpt lat="49.31899999268353" lon="8.082526987418532">
<ele>692.5999999999999</ele>
<time>2023-05-18T12:49:37Z</time>
</trkpt>
<trkpt lat="49.319011978805065" lon="8.082616925239563">
<ele>692.4000000000001</ele>
<time>2023-05-18T12:49:37Z</time>
</trkpt>
<trkpt lat="49.31902195326984" lon="8.082629917189479">
<ele>692.4000000000001</ele>
<time>2023-05-18T12:49:38Z</time>
</trkpt>
<trkpt lat="49.319034945219755" lon="8.082637963816524">
<ele>692.2</ele>
<time>2023-05-18T12:49:39Z</time>
</trkpt>
<trkpt lat="49.31904693134129" lon="8.082646932452917">
<ele>692.2</ele>
<time>2023-05-18T12:49:40Z</time>
</trkpt>
<trkpt lat="49.31905799545348" lon="8.0826529674232">
<ele>692</ele>
<time>2023-05-18T12:49:41Z</time>
</trkpt>
<trkpt lat="49.31906998157501" lon="8.082664953544736">
<ele>691.8</ele>
<time>2023-05-18T12:49:42Z</time>
</trkpt>
<trkpt lat="49.31908297352493" lon="8.082672916352749">
<ele>691.5999999999999</ele>
<time>2023-05-18T12:49:43Z</time>
</trkpt>
<trkpt lat="49.319097977131605" lon="8.082684986293316">
<ele>691.4000000000001</ele>
<time>2023-05-18T12:49:44Z</time>
</trkpt>
<trkpt lat="49.31910996325314" lon="8.082697978243232">
<ele>691.2</ele>
<time>2023-05-18T12:49:45Z</time>
</trkpt>
<trkpt lat="49.31911692023277" lon="8.082711976021528">
<ele>691.2</ele>
<time>2023-05-18T12:49:46Z</time>
</trkpt>
<trkpt lat="49.31912496685982" lon="8.0827169213444">
<ele>691.2</ele>
<time>2023-05-18T12:49:47Z</time>
</trkpt>
<trkpt lat="49.31913494132459" lon="8.082731924951077">
<ele>691</ele>
<time>2023-05-18T12:49:48Z</time>
</trkpt>
<trkpt lat="49.319139970466495" lon="8.082746928557754">
<ele>691</ele>
<time>2023-05-18T12:49:49Z</time>
</trkpt>
<trkpt lat="49.3191449996084" lon="8.082754975184798">
<ele>691</ele>
<time>2023-05-18T12:49:50Z</time>
</trkpt>
<trkpt lat="49.31914793327451" lon="8.08275992050767">
<ele>690.8</ele>
<time>2023-05-18T12:49:51Z</time>
</trkpt>
<trkpt lat="49.31914994493127" lon="8.082762937992811">
<ele>690.8</ele>
<time>2023-05-18T12:49:52Z</time>
</trkpt>
<trkpt lat="49.31914793327451" lon="8.082764949649572">
<ele>690.8</ele>
<time>2023-05-18T12:49:54Z</time>
</trkpt>
<trkpt lat="49.31914692744613" lon="8.082772996276617">
<ele>690.5999999999999</ele>
<time>2023-05-18T12:49:55Z</time>
</trkpt>
<trkpt lat="49.3191449996084" lon="8.082777941599488">
<ele>690.5999999999999</ele>
<time>2023-05-18T12:49:56Z</time>
</trkpt>
<trkpt lat="49.319142987951636" lon="8.082784982398152">
<ele>690.5999999999999</ele>
<time>2023-05-18T12:49:57Z</time>
</trkpt>
<trkpt lat="49.319141982123256" lon="8.082789927721024">
<ele>690.5999999999999</ele>
<time>2023-05-18T12:49:59Z</time>
</trkpt>
<trkpt lat="49.31917299516499" lon="8.08278196491301">
<ele>690.5999999999999</ele>
<time>2023-05-18T12:50:00Z</time>
</trkpt>
<trkpt lat="49.319182969629765" lon="8.08277995325625">
<ele>690.5999999999999</ele>
<time>2023-05-18T12:50:01Z</time>
</trkpt>
<trkpt lat="49.3191899266094" lon="8.08277995325625">
<ele>690.5999999999999</ele>
<time>2023-05-18T12:50:02Z</time>
</trkpt>
<trkpt lat="49.31919797323644" lon="8.08277995325625">
<ele>690.5999999999999</ele>
<time>2023-05-18T12:50:03Z</time>
</trkpt>
<trkpt lat="49.319206941872835" lon="8.082782970741391">
<ele>690.4000000000001</ele>
<time>2023-05-18T12:50:04Z</time>
</trkpt>
<trkpt lat="49.31921792216599" lon="8.082777941599488">
<ele>690.4000000000001</ele>
<time>2023-05-18T12:50:05Z</time>
</trkpt>
<trkpt lat="49.319226974621415" lon="8.082774924114347">
<ele>690.4000000000001</ele>
<time>2023-05-18T12:50:06Z</time>
</trkpt>
<trkpt lat="49.31923493742943" lon="8.082771990448236">
<ele>690.2</ele>
<time>2023-05-18T12:50:07Z</time>
</trkpt>
<trkpt lat="49.31923795491457" lon="8.082767967134714">
<ele>690.2</ele>
<time>2023-05-18T12:50:08Z</time>
</trkpt>
<trkpt lat="49.319244995713234" lon="8.08276193216443">
<ele>690.2</ele>
<time>2023-05-18T12:50:09Z</time>
</trkpt>
<trkpt lat="49.319247929379344" lon="8.08275698684156">
<ele>690</ele>
<time>2023-05-18T12:50:10Z</time>
</trkpt>
<trkpt lat="49.31925497017801" lon="8.082752963528037">
<ele>690</ele>
<time>2023-05-18T12:50:11Z</time>
</trkpt>
<trkpt lat="49.31925798766315" lon="8.082754975184798">
<ele>690</ele>
<time>2023-05-18T12:50:12Z</time>
</trkpt>
<trkpt lat="49.31925999931991" lon="8.082749946042895">
<ele>690</ele>
<time>2023-05-18T12:50:13Z</time>
</trkpt>
<trkpt lat="49.31925999931991" lon="8.082751957699656">
<ele>690</ele>
<time>2023-05-18T12:50:14Z</time>
</trkpt>
<trkpt lat="49.31928992271423" lon="8.082797974348068">
<ele>690.5999999999999</ele>
<time>2023-05-18T12:50:14Z</time>
</trkpt>
<trkpt lat="49.3193019926548" lon="8.082794956862926">
<ele>690.5999999999999</ele>
<time>2023-05-18T12:50:15Z</time>
</trkpt>
<trkpt lat="49.319312972947955" lon="8.082782970741391">
<ele>690.5999999999999</ele>
<time>2023-05-18T12:50:16Z</time>
</trkpt>
<trkpt lat="49.31932495906949" lon="8.08276193216443">
<ele>690.5999999999999</ele>
<time>2023-05-18T12:50:17Z</time>
</trkpt>
<trkpt lat="49.31932797655463" lon="8.082739971578121">
<ele>690.5999999999999</ele>
<time>2023-05-18T12:50:18Z</time>
</trkpt>
<trkpt lat="49.319331999868155" lon="8.082707952708006">
<ele>690.5999999999999</ele>
<time>2023-05-18T12:50:19Z</time>
</trkpt>
<trkpt lat="49.319334933534265" lon="8.08267492800951">
<ele>690.5999999999999</ele>
<time>2023-05-18T12:50:20Z</time>
</trkpt>
<trkpt lat="49.319334933534265" lon="8.082644920796156">
<ele>690.5999999999999</ele>
<time>2023-05-18T12:50:21Z</time>
</trkpt>
<trkpt lat="49.319336945191026" lon="8.082617931067944">
<ele>690.5999999999999</ele>
<time>2023-05-18T12:50:22Z</time>
</trkpt>
<trkpt lat="49.31933996267617" lon="8.082592952996492">
<ele>690.5999999999999</ele>
<time>2023-05-18T12:50:23Z</time>
</trkpt>
<trkpt lat="49.31934197433293" lon="8.082562945783138">
<ele>690.5999999999999</ele>
<time>2023-05-18T12:50:24Z</time>
</trkpt>
<trkpt lat="49.31934197433293" lon="8.082531932741404">
<ele>690.5999999999999</ele>
<time>2023-05-18T12:50:25Z</time>
</trkpt>
<trkpt lat="49.31934499181807" lon="8.082497986033559">
<ele>690.4000000000001</ele>
<time>2023-05-18T12:50:26Z</time>
</trkpt>
<trkpt lat="49.31934993714094" lon="8.082462949678302">
<ele>690.4000000000001</ele>
<time>2023-05-18T12:50:27Z</time>
</trkpt>
<trkpt lat="49.319357983767986" lon="8.082429924979806">
<ele>690.2</ele>
<time>2023-05-18T12:50:28Z</time>
</trkpt>
<trkpt lat="49.31936795823276" lon="8.082404946908355">
<ele>690.2</ele>
<time>2023-05-18T12:50:29Z</time>
</trkpt>
<trkpt lat="49.319379944354296" lon="8.082381980493665">
<ele>690</ele>
<time>2023-05-18T12:50:30Z</time>
</trkpt>
<trkpt lat="49.31939193047583" lon="8.082357924431562">
<ele>690</ele>
<time>2023-05-18T12:50:31Z</time>
</trkpt>
<trkpt lat="49.31940198875964" lon="8.082336969673634">
<ele>689.8</ele>
<time>2023-05-18T12:50:32Z</time>
</trkpt>
<trkpt lat="49.319416992366314" lon="8.082311991602182">
<ele>689.5999999999999</ele>
<time>2023-05-18T12:50:33Z</time>
</trkpt>
<trkpt lat="49.31943291798234" lon="8.0822869297117">
<ele>689.4000000000001</ele>
<time>2023-05-18T12:50:34Z</time>
</trkpt>
<trkpt lat="49.31944699957967" lon="8.082262957468629">
<ele>689.4000000000001</ele>
<time>2023-05-18T12:50:35Z</time>
</trkpt>
<trkpt lat="49.31945797987282" lon="8.082246948033571">
<ele>689.2</ele>
<time>2023-05-18T12:50:36Z</time>
</trkpt>
<trkpt lat="49.31946996599436" lon="8.082236973568797">
<ele>689</ele>
<time>2023-05-18T12:50:37Z</time>
</trkpt>
<trkpt lat="49.319486981257796" lon="8.082227921113372">
<ele>688.8</ele>
<time>2023-05-18T12:50:38Z</time>
</trkpt>
<trkpt lat="49.31950198486447" lon="8.082224987447262">
<ele>688.5999999999999</ele>
<time>2023-05-18T12:50:39Z</time>
</trkpt>
<trkpt lat="49.31951497681439" lon="8.082224987447262">
<ele>688.4000000000001</ele>
<time>2023-05-18T12:50:40Z</time>
</trkpt>
<trkpt lat="49.3195229396224" lon="8.082227921113372">
<ele>688.2</ele>
<time>2023-05-18T12:50:41Z</time>
</trkpt>
<trkpt lat="49.3195369374007" lon="8.082227921113372">
<ele>688</ele>
<time>2023-05-18T12:50:42Z</time>
</trkpt>
<trkpt lat="49.3195419665426" lon="8.082232950255275">
<ele>687.8</ele>
<time>2023-05-18T12:50:43Z</time>
</trkpt>
<trkpt lat="49.31954791769385" lon="8.082241918891668">
<ele>687.5999999999999</ele>
<time>2023-05-18T12:50:44Z</time>
</trkpt>
<trkpt lat="49.319551941007376" lon="8.082247953861952">
<ele>687.2</ele>
<time>2023-05-18T12:50:45Z</time>
</trkpt>
<trkpt lat="49.31955998763442" lon="8.08226496912539">
<ele>687</ele>
<time>2023-05-18T12:50:46Z</time>
</trkpt>
<trkpt lat="49.319571973755956" lon="8.082276955246925">
<ele>686.8</ele>
<time>2023-05-18T12:50:47Z</time>
</trkpt>
<trkpt lat="49.31958194822073" lon="8.082289947196841">
<ele>686.5999999999999</ele>
<time>2023-05-18T12:50:48Z</time>
</trkpt>
<trkpt lat="49.319591922685504" lon="8.082311991602182">
<ele>686.4000000000001</ele>
<time>2023-05-18T12:50:49Z</time>
</trkpt>
<trkpt lat="49.31959795765579" lon="8.082336969673634">
<ele>686</ele>
<time>2023-05-18T12:50:50Z</time>
</trkpt>
<trkpt lat="49.31960499845445" lon="8.08236999437213">
<ele>685.8</ele>
<time>2023-05-18T12:50:51Z</time>
</trkpt>
<trkpt lat="49.31960793212056" lon="8.082407964393497">
<ele>685.5999999999999</ele>
<time>2023-05-18T12:50:52Z</time>
</trkpt>
<trkpt lat="49.319611955434084" lon="8.082444928586483">
<ele>685.4000000000001</ele>
<time>2023-05-18T12:50:53Z</time>
</trkpt>
<trkpt lat="49.31960994377732" lon="8.082484994083643">
<ele>685.2</ele>
<time>2023-05-18T12:50:54Z</time>
</trkpt>
<trkpt lat="49.31960499845445" lon="8.082531932741404">
<ele>684.8</ele>
<time>2023-05-18T12:50:55Z</time>
</trkpt>
<trkpt lat="49.319594940170646" lon="8.082576943561435">
<ele>684.5999999999999</ele>
<time>2023-05-18T12:50:56Z</time>
</trkpt>
<trkpt lat="49.31958697736263" lon="8.08262798935175">
<ele>684.5999999999999</ele>
<time>2023-05-18T12:50:57Z</time>
</trkpt>
<trkpt lat="49.31957993656397" lon="8.082681968808174">
<ele>684.4000000000001</ele>
<time>2023-05-18T12:50:58Z</time>
</trkpt>
<trkpt lat="49.319569962099195" lon="8.082726979628205">
<ele>684.2</ele>
<time>2023-05-18T12:50:59Z</time>
</trkpt>
<trkpt lat="49.31955998763442" lon="8.082774924114347">
<ele>684</ele>
<time>2023-05-18T12:51:00Z</time>
</trkpt>
<trkpt lat="49.319546995684505" lon="8.08282295241952">
<ele>683.8</ele>
<time>2023-05-18T12:51:01Z</time>
</trkpt>
<trkpt lat="49.31953794322908" lon="8.08286695741117">
<ele>683.5999999999999</ele>
<time>2023-05-18T12:51:02Z</time>
</trkpt>
<trkpt lat="49.31951698847115" lon="8.082926971837878">
<ele>683.4000000000001</ele>
<time>2023-05-18T12:51:03Z</time>
</trkpt>
<trkpt lat="49.31949695572257" lon="8.082991931587458">
<ele>683.2</ele>
<time>2023-05-18T12:51:04Z</time>
</trkpt>
<trkpt lat="49.31947499513626" lon="8.083044989034534">
<ele>683</ele>
<time>2023-05-18T12:51:05Z</time>
</trkpt>
<trkpt lat="49.31943291798234" lon="8.083071978762746">
<ele>682.8</ele>
<time>2023-05-18T12:51:06Z</time>
</trkpt>
<trkpt lat="49.31940198875964" lon="8.083092933520675">
<ele>682.5999999999999</ele>
<time>2023-05-18T12:51:07Z</time>
</trkpt>
<trkpt lat="49.31937198154628" lon="8.083117995411158">
<ele>682.5999999999999</ele>
<time>2023-05-18T12:51:08Z</time>
</trkpt>
<trkpt lat="49.31933996267617" lon="8.083121934905648">
<ele>682.4000000000001</ele>
<time>2023-05-18T12:51:09Z</time>
</trkpt>
<trkpt lat="49.31930299848318" lon="8.08312495239079">
<ele>682.2</ele>
<time>2023-05-18T12:51:10Z</time>
</trkpt>
<trkpt lat="49.319269973784685" lon="8.083127969875932">
<ele>682</ele>
<time>2023-05-18T12:51:11Z</time>
</trkpt>
<trkpt lat="49.31923694908619" lon="8.083119923248887">
<ele>681.8</ele>
<time>2023-05-18T12:51:12Z</time>
</trkpt>
<trkpt lat="49.31920291855931" lon="8.083114977926016">
<ele>681.5999999999999</ele>
<time>2023-05-18T12:51:13Z</time>
</trkpt>
<trkpt lat="49.31916997767985" lon="8.08310299180448">
<ele>681.4000000000001</ele>
<time>2023-05-18T12:51:14Z</time>
</trkpt>
<trkpt lat="49.31913795880973" lon="8.083091927692294">
<ele>681.2</ele>
<time>2023-05-18T12:51:15Z</time>
</trkpt>
<trkpt lat="49.319101916626096" lon="8.083077929913998">
<ele>681</ele>
<time>2023-05-18T12:51:16Z</time>
</trkpt>
<trkpt lat="49.31906998157501" lon="8.08306292630732">
<ele>680.8</ele>
<time>2023-05-18T12:51:17Z</time>
</trkpt>
<trkpt lat="49.31903997436166" lon="8.083051946014166">
<ele>680.5999999999999</ele>
<time>2023-05-18T12:51:18Z</time>
</trkpt>
<trkpt lat="49.31900795549154" lon="8.083034930750728">
<ele>680.4000000000001</ele>
<time>2023-05-18T12:51:19Z</time>
</trkpt>
<trkpt lat="49.31897794827819" lon="8.08301699347794">
<ele>680.2</ele>
<time>2023-05-18T12:51:20Z</time>
</trkpt>
<trkpt lat="49.318946935236454" lon="8.082997966557741">
<ele>680</ele>
<time>2023-05-18T12:51:21Z</time>
</trkpt>
<trkpt lat="49.31891793385148" lon="8.082981957122684">
<ele>679.8</ele>
<time>2023-05-18T12:51:22Z</time>
</trkpt>
<trkpt lat="49.318886920809746" lon="8.082961924374104">
<ele>679.5999999999999</ele>
<time>2023-05-18T12:51:23Z</time>
</trkpt>
<trkpt lat="49.31885498575866" lon="8.082936946302652">
<ele>679.4000000000001</ele>
<time>2023-05-18T12:51:24Z</time>
</trkpt>
<trkpt lat="49.31882497854531" lon="8.082904927432537">
<ele>679.2</ele>
<time>2023-05-18T12:51:25Z</time>
</trkpt>
<trkpt lat="49.318796982988715" lon="8.082871986553073">
<ele>679</ele>
<time>2023-05-18T12:51:26Z</time>
</trkpt>
<trkpt lat="49.31876697577536" lon="8.082837956026196">
<ele>678.8</ele>
<time>2023-05-18T12:51:27Z</time>
</trkpt>
<trkpt lat="49.318734956905246" lon="8.082809960469604">
<ele>678.5999999999999</ele>
<time>2023-05-18T12:51:28Z</time>
</trkpt>
<trkpt lat="49.31870193220675" lon="8.082784982398152">
<ele>678.4000000000001</ele>
<time>2023-05-18T12:51:29Z</time>
</trkpt>
<trkpt lat="49.318669997155666" lon="8.08275992050767">
<ele>678.2</ele>
<time>2023-05-18T12:51:30Z</time>
</trkpt>
<trkpt lat="49.31864493526518" lon="8.08273695409298">
<ele>678</ele>
<time>2023-05-18T12:51:31Z</time>
</trkpt>
<trkpt lat="49.318622974678874" lon="8.08271499350667">
<ele>677.8</ele>
<time>2023-05-18T12:51:32Z</time>
</trkpt>
<trkpt lat="49.318602941930294" lon="8.082692949101329">
<ele>677.5999999999999</ele>
<time>2023-05-18T12:51:33Z</time>
</trkpt>
<trkpt lat="49.318584920838475" lon="8.0826719943434">
<ele>677.2</ele>
<time>2023-05-18T12:51:34Z</time>
</trkpt>
<trkpt lat="49.31856798939407" lon="8.082646932452917">
<ele>677</ele>
<time>2023-05-18T12:51:35Z</time>
</trkpt>
<trkpt lat="49.31854795664549" lon="8.082621954381466">
<ele>676.8</ele>
<time>2023-05-18T12:51:36Z</time>
</trkpt>
<trkpt lat="49.31852297857404" lon="8.082591947168112">
<ele>676.5999999999999</ele>
<time>2023-05-18T12:51:37Z</time>
</trkpt>
<trkpt lat="49.318499928340316" lon="8.082561939954758">
<ele>676.4000000000001</ele>
<time>2023-05-18T12:51:38Z</time>
</trkpt>
<trkpt lat="49.318477967754006" lon="8.082534950226545">
<ele>676.2</ele>
<time>2023-05-18T12:51:39Z</time>
</trkpt>
<trkpt lat="49.31845994666219" lon="8.082511983811855">
<ele>676</ele>
<time>2023-05-18T12:51:40Z</time>
</trkpt>
<trkpt lat="49.31844192557037" lon="8.082492956891656">
<ele>675.8</ele>
<time>2023-05-18T12:51:41Z</time>
</trkpt>
<trkpt lat="49.31842692196369" lon="8.082467978820205">
<ele>675.4000000000001</ele>
<time>2023-05-18T12:51:42Z</time>
</trkpt>
<trkpt lat="49.318409990519285" lon="8.082441994920373">
<ele>675.2</ele>
<time>2023-05-18T12:51:43Z</time>
</trkpt>
<trkpt lat="49.31839993223548" lon="8.082409976050258">
<ele>675</ele>
<time>2023-05-18T12:51:44Z</time>
</trkpt>
<trkpt lat="49.318391969427466" lon="8.082374939695">
<ele>674.8</ele>
<time>2023-05-18T12:51:45Z</time>
</trkpt>
<trkpt lat="49.318369925022125" lon="8.082327917218208">
<ele>674.5999999999999</ele>
<time>2023-05-18T12:51:46Z</time>
</trkpt>
<trkpt lat="49.318364979699254" lon="8.082294976338744">
<ele>674.4000000000001</ele>
<time>2023-05-18T12:51:47Z</time>
</trkpt>
<trkpt lat="49.31835995055735" lon="8.082261951640248">
<ele>674.2</ele>
<time>2023-05-18T12:51:48Z</time>
</trkpt>
<trkpt lat="49.31836296804249" lon="8.082226999104023">
<ele>673.8</ele>
<time>2023-05-18T12:51:49Z</time>
</trkpt>
<trkpt lat="49.318369925022125" lon="8.082189951092005">
<ele>673.5999999999999</ele>
<time>2023-05-18T12:51:50Z</time>
</trkpt>
<trkpt lat="49.31837294250727" lon="8.082151981070638">
<ele>673.4000000000001</ele>
<time>2023-05-18T12:51:51Z</time>
</trkpt>
<trkpt lat="49.31837797164917" lon="8.08211199939251">
<ele>673.2</ele>
<time>2023-05-18T12:51:52Z</time>
</trkpt>
<trkpt lat="49.31838291697204" lon="8.082077968865633">
<ele>673</ele>
<time>2023-05-18T12:51:53Z</time>
</trkpt>
<trkpt lat="49.31838291697204" lon="8.082041926681995">
<ele>672.8</ele>
<time>2023-05-18T12:51:54Z</time>
</trkpt>
<trkpt lat="49.3183849286288" lon="8.082004962489009">
<ele>672.5999999999999</ele>
<time>2023-05-18T12:51:55Z</time>
</trkpt>
<trkpt lat="49.318391969427466" lon="8.081971937790513">
<ele>672.4000000000001</ele>
<time>2023-05-18T12:51:56Z</time>
</trkpt>
<trkpt lat="49.31839993223548" lon="8.0819449480623">
<ele>672.2</ele>
<time>2023-05-18T12:51:57Z</time>
</trkpt>
<trkpt lat="49.318407978862524" lon="8.081914940848947">
<ele>672</ele>
<time>2023-05-18T12:51:58Z</time>
</trkpt>
<trkpt lat="49.31842499412596" lon="8.081884933635592">
<ele>671.8</ele>
<time>2023-05-18T12:51:59Z</time>
</trkpt>
<trkpt lat="49.31844192557037" lon="8.081856938079">
<ele>671.5999999999999</ele>
<time>2023-05-18T12:52:00Z</time>
</trkpt>
<trkpt lat="49.318456929177046" lon="8.081831960007548">
<ele>671.2</ele>
<time>2023-05-18T12:52:01Z</time>
</trkpt>
<trkpt lat="49.318476961925626" lon="8.081811927258968">
<ele>671</ele>
<time>2023-05-18T12:52:02Z</time>
</trkpt>
<trkpt lat="49.318499928340316" lon="8.081786949187517">
<ele>670.8</ele>
<time>2023-05-18T12:52:03Z</time>
</trkpt>
<trkpt lat="49.31852792389691" lon="8.081746967509389">
<ele>670.4000000000001</ele>
<time>2023-05-18T12:52:04Z</time>
</trkpt>
<trkpt lat="49.318562960252166" lon="8.08170698583126">
<ele>670.2</ele>
<time>2023-05-18T12:52:05Z</time>
</trkpt>
<trkpt lat="49.31859992444515" lon="8.081654934212565">
<ele>669.8</ele>
<time>2023-05-18T12:52:06Z</time>
</trkpt>
<trkpt lat="49.31863797828555" lon="8.08159994892776">
<ele>669.4000000000001</ele>
<time>2023-05-18T12:52:07Z</time>
</trkpt>
<trkpt lat="49.3186769541353" lon="8.081541946157813">
<ele>669.2</ele>
<time>2023-05-18T12:52:08Z</time>
</trkpt>
<trkpt lat="49.318712996318936" lon="8.081486960873008">
<ele>668.8</ele>
<time>2023-05-18T12:52:09Z</time>
</trkpt>
<trkpt lat="49.3187649641186" lon="8.081391993910074">
<ele>668.5999999999999</ele>
<time>2023-05-18T12:52:10Z</time>
</trkpt>
<trkpt lat="49.31880796328187" lon="8.081347988918424">
<ele>668.2</ele>
<time>2023-05-18T12:52:11Z</time>
</trkpt>
<trkpt lat="49.31885699741542" lon="8.081301972270012">
<ele>667.8</ele>
<time>2023-05-18T12:52:12Z</time>
</trkpt>
<trkpt lat="49.318907959386706" lon="8.08123198337853">
<ele>667.4000000000001</ele>
<time>2023-05-18T12:52:13Z</time>
</trkpt>
<trkpt lat="49.31895799934864" lon="8.081167945638299">
<ele>667</ele>
<time>2023-05-18T12:52:14Z</time>
</trkpt>
<trkpt lat="49.31900192052126" lon="8.081117989495397">
<ele>666.8</ele>
<time>2023-05-18T12:52:15Z</time>
</trkpt>
<trkpt lat="49.31904198601842" lon="8.081069961190224">
<ele>666.4000000000001</ele>
<time>2023-05-18T12:52:16Z</time>
</trkpt>
<trkpt lat="49.31908699683845" lon="8.080999972298741">
<ele>666</ele>
<time>2023-05-18T12:52:17Z</time>
</trkpt>
<trkpt lat="49.31912496685982" lon="8.080956973135471">
<ele>665.5999999999999</ele>
<time>2023-05-18T12:52:18Z</time>
</trkpt>
<trkpt lat="49.31915991939604" lon="8.080904921516776">
<ele>665.2</ele>
<time>2023-05-18T12:52:19Z</time>
</trkpt>
<trkpt lat="49.319201996549964" lon="8.08084792457521">
<ele>664.8</ele>
<time>2023-05-18T12:52:20Z</time>
</trkpt>
<trkpt lat="49.31924298405647" lon="8.080796962603927">
<ele>664.5999999999999</ele>
<time>2023-05-18T12:52:21Z</time>
</trkpt>
<trkpt lat="49.3192829657346" lon="8.080749940127134">
<ele>664.4000000000001</ele>
<time>2023-05-18T12:52:22Z</time>
</trkpt>
<trkpt lat="49.31931992992759" lon="8.080701995640993">
<ele>664</ele>
<time>2023-05-18T12:52:23Z</time>
</trkpt>
<trkpt lat="49.31935295462608" lon="8.0806549731642">
<ele>663.8</ele>
<time>2023-05-18T12:52:24Z</time>
</trkpt>
<trkpt lat="49.31938698515296" lon="8.08060996234417">
<ele>663.5999999999999</ele>
<time>2023-05-18T12:52:25Z</time>
</trkpt>
<trkpt lat="49.319422943517566" lon="8.08056796900928">
<ele>663.5999999999999</ele>
<time>2023-05-18T12:52:26Z</time>
</trkpt>
<trkpt lat="49.31945295073092" lon="8.080519940704107">
<ele>663.4000000000001</ele>
<time>2023-05-18T12:52:27Z</time>
</trkpt>
<trkpt lat="49.319482957944274" lon="8.08046294376254">
<ele>663.2</ele>
<time>2023-05-18T12:52:28Z</time>
</trkpt>
<trkpt lat="49.319506930187345" lon="8.080429919064045">
<ele>663</ele>
<time>2023-05-18T12:52:29Z</time>
</trkpt>
<trkpt lat="49.31953492574394" lon="8.080397984012961">
<ele>663</ele>
<time>2023-05-18T12:52:30Z</time>
</trkpt>
<trkpt lat="49.31955697014928" lon="8.080366970971227">
<ele>662.8</ele>
<time>2023-05-18T12:52:31Z</time>
</trkpt>
<trkpt lat="49.3195749912411" lon="8.080336963757873">
<ele>662.8</ele>
<time>2023-05-18T12:52:32Z</time>
</trkpt>
<trkpt lat="49.319592928513885" lon="8.080304944887757">
<ele>662.5999999999999</ele>
<time>2023-05-18T12:52:33Z</time>
</trkpt>
<trkpt lat="49.319612961262465" lon="8.080264963209629">
<ele>662.5999999999999</ele>
<time>2023-05-18T12:52:34Z</time>
</trkpt>
<trkpt lat="49.319634921848774" lon="8.080227999016643">
<ele>662.4000000000001</ele>
<time>2023-05-18T12:52:35Z</time>
</trkpt>
<trkpt lat="49.31965998373926" lon="8.080192962661386">
<ele>662.4000000000001</ele>
<time>2023-05-18T12:52:36Z</time>
</trkpt>
<trkpt lat="49.319677921012044" lon="8.08016194961965">
<ele>662.2</ele>
<time>2023-05-18T12:52:37Z</time>
</trkpt>
<trkpt lat="49.31969694793224" lon="8.080122973769903">
<ele>662.2</ele>
<time>2023-05-18T12:52:38Z</time>
</trkpt>
<trkpt lat="49.31971698068082" lon="8.080079974606633">
<ele>662.2</ele>
<time>2023-05-18T12:52:39Z</time>
</trkpt>
<trkpt lat="49.31973299011588" lon="8.080041920766234">
<ele>662.2</ele>
<time>2023-05-18T12:52:40Z</time>
</trkpt>
<trkpt lat="49.31975193321705" lon="8.080011997371912">
<ele>662.2</ele>
<time>2023-05-18T12:52:41Z</time>
</trkpt>
<trkpt lat="49.31977196596563" lon="8.079979978501797">
<ele>662</ele>
<time>2023-05-18T12:52:42Z</time>
</trkpt>
<trkpt lat="49.319787975400686" lon="8.079954916611314">
<ele>662</ele>
<time>2023-05-18T12:52:43Z</time>
</trkpt>
<trkpt lat="49.319806918501854" lon="8.07992298156023">
<ele>662</ele>
<time>2023-05-18T12:52:44Z</time>
</trkpt>
<trkpt lat="49.319827957078815" lon="8.079882999882102">
<ele>662</ele>
<time>2023-05-18T12:52:45Z</time>
</trkpt>
<trkpt lat="49.319849917665124" lon="8.079834971576929">
<ele>662</ele>
<time>2023-05-18T12:52:46Z</time>
</trkpt>
<trkpt lat="49.31988193653524" lon="8.07977294549346">
<ele>662</ele>
<time>2023-05-18T12:52:47Z</time>
</trkpt>
<trkpt lat="49.31990699842572" lon="8.079746961593628">
<ele>662</ele>
<time>2023-05-18T12:52:48Z</time>
</trkpt>
<trkpt lat="49.319934993982315" lon="8.079722989350557">
<ele>662</ele>
<time>2023-05-18T12:52:49Z</time>
</trkpt>
<trkpt lat="49.31997296400368" lon="8.079672949388623">
<ele>662.2</ele>
<time>2023-05-18T12:52:50Z</time>
</trkpt>
<trkpt lat="49.32000791653991" lon="8.079637996852398">
<ele>662.2</ele>
<time>2023-05-18T12:52:51Z</time>
</trkpt>
<trkpt lat="49.320044964551926" lon="8.079611929133534">
<ele>662.2</ele>
<time>2023-05-18T12:52:52Z</time>
</trkpt>
<trkpt lat="49.32007798925042" lon="8.079607989639044">
<ele>662.2</ele>
<time>2023-05-18T12:52:53Z</time>
</trkpt>
<trkpt lat="49.320109924301505" lon="8.079606983810663">
<ele>662.2</ele>
<time>2023-05-18T12:52:54Z</time>
</trkpt>
<trkpt lat="49.32014194317162" lon="8.07960195466876">
<ele>662.4000000000001</ele>
<time>2023-05-18T12:52:55Z</time>
</trkpt>
<trkpt lat="49.32017798535526" lon="8.079592986032367">
<ele>662.4000000000001</ele>
<time>2023-05-18T12:52:56Z</time>
</trkpt>
<trkpt lat="49.320216961205006" lon="8.079587956890464">
<ele>662.4000000000001</ele>
<time>2023-05-18T12:52:57Z</time>
</trkpt>
<trkpt lat="49.32025493122637" lon="8.07960296049714">
<ele>662.4000000000001</ele>
<time>2023-05-18T12:52:58Z</time>
</trkpt>
<trkpt lat="49.32029298506677" lon="8.07962299324572">
<ele>662.2</ele>
<time>2023-05-18T12:52:59Z</time>
</trkpt>
<trkpt lat="49.32033196091652" lon="8.079649982973933">
<ele>662.2</ele>
<time>2023-05-18T12:53:00Z</time>
</trkpt>
<trkpt lat="49.320366997271776" lon="8.079677978530526">
<ele>662.2</ele>
<time>2023-05-18T12:53:01Z</time>
</trkpt>
<trkpt lat="49.32039499282837" lon="8.079711925238371">
<ele>662.2</ele>
<time>2023-05-18T12:53:02Z</time>
</trkpt>
<trkpt lat="49.32041695341468" lon="8.079752996563911">
<ele>662</ele>
<time>2023-05-18T12:53:03Z</time>
</trkpt>
<trkpt lat="49.320432962849736" lon="8.079804964363575">
<ele>662</ele>
<time>2023-05-18T12:53:04Z</time>
</trkpt>
<trkpt lat="49.32044796645641" lon="8.079869924113154">
<ele>661.8</ele>
<time>2023-05-18T12:53:05Z</time>
</trkpt>
<trkpt lat="49.32046498171985" lon="8.0799469538033">
<ele>661.4000000000001</ele>
<time>2023-05-18T12:53:06Z</time>
</trkpt>
<trkpt lat="49.3204849306494" lon="8.08003194630146">
<ele>661.2</ele>
<time>2023-05-18T12:53:07Z</time>
</trkpt>
<trkpt lat="49.32052197866142" lon="8.080144934356213">
<ele>660.8</ele>
<time>2023-05-18T12:53:08Z</time>
</trkpt>
<trkpt lat="49.32054695673287" lon="8.080227999016643">
<ele>660.4000000000001</ele>
<time>2023-05-18T12:53:09Z</time>
</trkpt>
<trkpt lat="49.3205729406327" lon="8.080302933230996">
<ele>659.8</ele>
<time>2023-05-18T12:53:10Z</time>
</trkpt>
<trkpt lat="49.320604959502816" lon="8.080402929335833">
<ele>659.2</ele>
<time>2023-05-18T12:53:11Z</time>
</trkpt>
<trkpt lat="49.32061996310949" lon="8.080492950975895">
<ele>658.8</ele>
<time>2023-05-18T12:53:12Z</time>
</trkpt>
<trkpt lat="49.32063295505941" lon="8.08059194125235">
<ele>658.2</ele>
<time>2023-05-18T12:53:13Z</time>
</trkpt>
<trkpt lat="49.32063999585807" lon="8.080684980377555">
<ele>657.8</ele>
<time>2023-05-18T12:53:14Z</time>
</trkpt>
<trkpt lat="49.32065198197961" lon="8.080776929855347">
<ele>657.2</ele>
<time>2023-05-18T12:53:15Z</time>
</trkpt>
<trkpt lat="49.32065692730248" lon="8.080871980637312">
<ele>656.8</ele>
<time>2023-05-18T12:53:16Z</time>
</trkpt>
<trkpt lat="49.32066296227276" lon="8.080964935943484">
<ele>656.2</ele>
<time>2023-05-18T12:53:17Z</time>
</trkpt>
<trkpt lat="49.320667991414666" lon="8.081047916784883">
<ele>655.8</ele>
<time>2023-05-18T12:53:18Z</time>
</trkpt>
<trkpt lat="49.320667991414666" lon="8.08112796396017">
<ele>655.4000000000001</ele>
<time>2023-05-18T12:53:19Z</time>
</trkpt>
<trkpt lat="49.320664973929524" lon="8.08121295645833">
<ele>654.8</ele>
<time>2023-05-18T12:53:20Z</time>
</trkpt>
<trkpt lat="49.320647958666086" lon="8.081284957006574">
<ele>654.4000000000001</ele>
<time>2023-05-18T12:53:21Z</time>
</trkpt>
<trkpt lat="49.32063295505941" lon="8.081357963383198">
<ele>654</ele>
<time>2023-05-18T12:53:22Z</time>
</trkpt>
<trkpt lat="49.32061694562435" lon="8.081436920911074">
<ele>653.4000000000001</ele>
<time>2023-05-18T12:53:23Z</time>
</trkpt>
<trkpt lat="49.3205969966948" lon="8.081519985571504">
<ele>653</ele>
<time>2023-05-18T12:53:24Z</time>
</trkpt>
<trkpt lat="49.320586938411" lon="8.081616964191198">
<ele>652.5999999999999</ele>
<time>2023-05-18T12:53:25Z</time>
</trkpt>
<trkpt lat="49.320579981431365" lon="8.081716960296035">
<ele>652.2</ele>
<time>2023-05-18T12:53:26Z</time>
</trkpt>
<trkpt lat="49.32056992314756" lon="8.081807987764478">
<ele>651.5999999999999</ele>
<time>2023-05-18T12:53:27Z</time>
</trkpt>
<trkpt lat="49.32056296616793" lon="8.081892980262637">
<ele>651.2</ele>
<time>2023-05-18T12:53:28Z</time>
</trkpt>
<trkpt lat="49.32054796256125" lon="8.081976966932416">
<ele>650.8</ele>
<time>2023-05-18T12:53:29Z</time>
</trkpt>
<trkpt lat="49.320541927590966" lon="8.08204997330904">
<ele>650.4000000000001</ele>
<time>2023-05-18T12:53:30Z</time>
</trkpt>
<trkpt lat="49.320534970611334" lon="8.0821349658072">
<ele>650</ele>
<time>2023-05-18T12:53:31Z</time>
</trkpt>
<trkpt lat="49.32052499614656" lon="8.082199925556779">
<ele>649.4000000000001</ele>
<time>2023-05-18T12:53:32Z</time>
</trkpt>
<trkpt lat="49.32051292620599" lon="8.082266980782151">
<ele>649</ele>
<time>2023-05-18T12:53:33Z</time>
</trkpt>
<trkpt lat="49.32050496339798" lon="8.082336969673634">
<ele>648.4000000000001</ele>
<time>2023-05-18T12:53:34Z</time>
</trkpt>
<trkpt lat="49.320494988933206" lon="8.08241693302989">
<ele>648</ele>
<time>2023-05-18T12:53:35Z</time>
</trkpt>
<trkpt lat="49.32048199698329" lon="8.082494968548417">
<ele>647.5999999999999</ele>
<time>2023-05-18T12:53:36Z</time>
</trkpt>
<trkpt lat="49.32046699337661" lon="8.082576943561435">
<ele>647.2</ele>
<time>2023-05-18T12:53:37Z</time>
</trkpt>
<trkpt lat="49.32044494897127" lon="8.0826719943434">
<ele>646.5999999999999</ele>
<time>2023-05-18T12:53:38Z</time>
</trkpt>
<trkpt lat="49.320431957021356" lon="8.08276193216443">
<ele>646.2</ele>
<time>2023-05-18T12:53:39Z</time>
</trkpt>
<trkpt lat="49.32041494175792" lon="8.08284692466259">
<ele>645.8</ele>
<time>2023-05-18T12:53:40Z</time>
</trkpt>
<trkpt lat="49.320401949808" lon="8.082924960181117">
<ele>645.4000000000001</ele>
<time>2023-05-18T12:53:41Z</time>
</trkpt>
<trkpt lat="49.3203969206661" lon="8.083007941022515">
<ele>645</ele>
<time>2023-05-18T12:53:42Z</time>
</trkpt>
<trkpt lat="49.32039298117161" lon="8.083084970712662">
<ele>644.5999999999999</ele>
<time>2023-05-18T12:53:43Z</time>
</trkpt>
<trkpt lat="49.32039499282837" lon="8.083182955160737">
<ele>644</ele>
<time>2023-05-18T12:53:44Z</time>
</trkpt>
<trkpt lat="49.3203829228878" lon="8.083257973194122">
<ele>643.5999999999999</ele>
<time>2023-05-18T12:53:45Z</time>
</trkpt>
<trkpt lat="49.320367919281125" lon="8.083334919065237">
<ele>643.2</ele>
<time>2023-05-18T12:53:46Z</time>
</trkpt>
<trkpt lat="49.32035794481635" lon="8.083407925441861">
<ele>642.8</ele>
<time>2023-05-18T12:53:47Z</time>
</trkpt>
<trkpt lat="49.32034998200834" lon="8.083479925990105">
<ele>642.4000000000001</ele>
<time>2023-05-18T12:53:48Z</time>
</trkpt>
<trkpt lat="49.32033992372453" lon="8.083546981215477">
<ele>642</ele>
<time>2023-05-18T12:53:49Z</time>
</trkpt>
<trkpt lat="49.320326931774616" lon="8.083602972328663">
<ele>641.5999999999999</ele>
<time>2023-05-18T12:53:50Z</time>
</trkpt>
<trkpt lat="49.32031796313822" lon="8.08366198092699">
<ele>641.2</ele>
<time>2023-05-18T12:53:51Z</time>
</trkpt>
<trkpt lat="49.32031293399632" lon="8.083721995353699">
<ele>640.8</ele>
<time>2023-05-18T12:53:52Z</time>
</trkpt>
<trkpt lat="49.320301953703165" lon="8.083782931789756">
<ele>640.4000000000001</ele>
<time>2023-05-18T12:53:53Z</time>
</trkpt>
<trkpt lat="49.32029298506677" lon="8.083862978965044">
<ele>640</ele>
<time>2023-05-18T12:53:54Z</time>
</trkpt>
<trkpt lat="49.32028695009649" lon="8.083926932886243">
<ele>639.8</ele>
<time>2023-05-18T12:53:55Z</time>
</trkpt>
<trkpt lat="49.320281920954585" lon="8.083986947312951">
<ele>639.4000000000001</ele>
<time>2023-05-18T12:53:56Z</time>
</trkpt>
<trkpt lat="49.32028695009649" lon="8.084056936204433">
<ele>639</ele>
<time>2023-05-18T12:53:57Z</time>
</trkpt>
<trkpt lat="49.320281920954585" lon="8.084117956459522">
<ele>638.5999999999999</ele>
<time>2023-05-18T12:53:58Z</time>
</trkpt>
<trkpt lat="49.320279993116856" lon="8.084171935915947">
<ele>638.2</ele>
<time>2023-05-18T12:53:59Z</time>
</trkpt>
<trkpt lat="49.32027194648981" lon="8.0842399969697">
<ele>637.8</ele>
<time>2023-05-18T12:54:00Z</time>
</trkpt>
<trkpt lat="49.32027496397495" lon="8.084312919527292">
<ele>637.4000000000001</ele>
<time>2023-05-18T12:54:01Z</time>
</trkpt>
<trkpt lat="49.32026792317629" lon="8.084384920075536">
<ele>637.2</ele>
<time>2023-05-18T12:54:02Z</time>
</trkpt>
<trkpt lat="49.320257948711514" lon="8.084451975300908">
<ele>636.8</ele>
<time>2023-05-18T12:54:03Z</time>
</trkpt>
<trkpt lat="49.32024193927646" lon="8.084512995555997">
<ele>636.4000000000001</ele>
<time>2023-05-18T12:54:04Z</time>
</trkpt>
<trkpt lat="49.320237999781966" lon="8.084559934213758">
<ele>636</ele>
<time>2023-05-18T12:54:05Z</time>
</trkpt>
<trkpt lat="49.320234982296824" lon="8.084609974175692">
<ele>635.5999999999999</ele>
<time>2023-05-18T12:54:06Z</time>
</trkpt>
<trkpt lat="49.32022794149816" lon="8.084676945582032">
<ele>635.4000000000001</ele>
<time>2023-05-18T12:54:07Z</time>
</trkpt>
<trkpt lat="49.320216961205006" lon="8.084741989150643">
<ele>635</ele>
<time>2023-05-18T12:54:08Z</time>
</trkpt>
<trkpt lat="49.32020992040634" lon="8.084794962778687">
<ele>634.5999999999999</ele>
<time>2023-05-18T12:54:09Z</time>
</trkpt>
<trkpt lat="49.32020497508347" lon="8.084849948063493">
<ele>634.2</ele>
<time>2023-05-18T12:54:10Z</time>
</trkpt>
<trkpt lat="49.320191983133554" lon="8.084919936954975">
<ele>633.8</ele>
<time>2023-05-18T12:54:11Z</time>
</trkpt>
<trkpt lat="49.32018192484975" lon="8.084979951381683">
<ele>633.4000000000001</ele>
<time>2023-05-18T12:54:12Z</time>
</trkpt>
<trkpt lat="49.32016792707145" lon="8.085031919181347">
<ele>633</ele>
<time>2023-05-18T12:54:13Z</time>
</trkpt>
<trkpt lat="49.3201569467783" lon="8.085077935829759">
<ele>632.8</ele>
<time>2023-05-18T12:54:14Z</time>
</trkpt>
<trkpt lat="49.320149989798665" lon="8.08512294664979">
<ele>632.4000000000001</ele>
<time>2023-05-18T12:54:15Z</time>
</trkpt>
<trkpt lat="49.32013699784875" lon="8.085177931934595">
<ele>632.2</ele>
<time>2023-05-18T12:54:16Z</time>
</trkpt>
<trkpt lat="49.32011797092855" lon="8.085217997431755">
<ele>631.8</ele>
<time>2023-05-18T12:54:17Z</time>
</trkpt>
<trkpt lat="49.32008997537196" lon="8.085264936089516">
<ele>631.4000000000001</ele>
<time>2023-05-18T12:54:18Z</time>
</trkpt>
<trkpt lat="49.320061979815364" lon="8.085304917767644">
<ele>631.2</ele>
<time>2023-05-18T12:54:19Z</time>
</trkpt>
<trkpt lat="49.32002996094525" lon="8.08533693663776">
<ele>630.8</ele>
<time>2023-05-18T12:54:20Z</time>
</trkpt>
<trkpt lat="49.31999693624675" lon="8.085362920537591">
<ele>630.4000000000001</ele>
<time>2023-05-18T12:54:21Z</time>
</trkpt>
<trkpt lat="49.31995192542672" lon="8.085402986034751">
<ele>630</ele>
<time>2023-05-18T12:54:22Z</time>
</trkpt>
<trkpt lat="49.31991194374859" lon="8.085412960499525">
<ele>629.5999999999999</ele>
<time>2023-05-18T12:54:23Z</time>
</trkpt>
<trkpt lat="49.31986693292856" lon="8.085429975762963">
<ele>629.2</ele>
<time>2023-05-18T12:54:24Z</time>
</trkpt>
<trkpt lat="49.31982292793691" lon="8.0854229349643">
<ele>628.8</ele>
<time>2023-05-18T12:54:25Z</time>
</trkpt>
<trkpt lat="49.31978294625878" lon="8.085407931357622">
<ele>628.4000000000001</ele>
<time>2023-05-18T12:54:26Z</time>
</trkpt>
<trkpt lat="49.31974992156029" lon="8.085394939407706">
<ele>628</ele>
<time>2023-05-18T12:54:27Z</time>
</trkpt>
<trkpt lat="49.31971698068082" lon="8.08537993580103">
<ele>627.8</ele>
<time>2023-05-18T12:54:28Z</time>
</trkpt>
<trkpt lat="49.31968797929585" lon="8.085366943851113">
<ele>627.4000000000001</ele>
<time>2023-05-18T12:54:29Z</time>
</trkpt>
<trkpt lat="49.319656966254115" lon="8.085352946072817">
<ele>627</ele>
<time>2023-05-18T12:54:30Z</time>
</trkpt>
<trkpt lat="49.31962695904076" lon="8.08533794246614">
<ele>626.5999999999999</ele>
<time>2023-05-18T12:54:31Z</time>
</trkpt>
<trkpt lat="49.319589994847775" lon="8.085324950516224">
<ele>626.2</ele>
<time>2023-05-18T12:54:32Z</time>
</trkpt>
<trkpt lat="49.319549929350615" lon="8.085311958566308">
<ele>625.8</ele>
<time>2023-05-18T12:54:33Z</time>
</trkpt>
<trkpt lat="49.31950198486447" lon="8.085304917767644">
<ele>625.5999999999999</ele>
<time>2023-05-18T12:54:34Z</time>
</trkpt>
<trkpt lat="49.31945797987282" lon="8.085301984101534">
<ele>625.2</ele>
<time>2023-05-18T12:54:35Z</time>
</trkpt>
<trkpt lat="49.319417998194695" lon="8.085292931646109">
<ele>625</ele>
<time>2023-05-18T12:54:36Z</time>
</trkpt>
<trkpt lat="49.319379944354296" lon="8.085281951352954">
<ele>624.5999999999999</ele>
<time>2023-05-18T12:54:37Z</time>
</trkpt>
<trkpt lat="49.31934197433293" lon="8.085266947746277">
<ele>624.2</ele>
<time>2023-05-18T12:54:38Z</time>
</trkpt>
<trkpt lat="49.3193019926548" lon="8.085261918604374">
<ele>624</ele>
<time>2023-05-18T12:54:39Z</time>
</trkpt>
<trkpt lat="49.31925295852125" lon="8.08525294996798">
<ele>623.5999999999999</ele>
<time>2023-05-18T12:54:40Z</time>
</trkpt>
<trkpt lat="49.31921297684312" lon="8.0852519441396">
<ele>623.2</ele>
<time>2023-05-18T12:54:41Z</time>
</trkpt>
<trkpt lat="49.31917198933661" lon="8.085249932482839">
<ele>622.8</ele>
<time>2023-05-18T12:54:42Z</time>
</trkpt>
<trkpt lat="49.31912697851658" lon="8.085231995210052">
<ele>622.5999999999999</ele>
<time>2023-05-18T12:54:43Z</time>
</trkpt>
<trkpt lat="49.319101916626096" lon="8.085222942754626">
<ele>622.2</ele>
<time>2023-05-18T12:54:44Z</time>
</trkpt>
<trkpt lat="49.319079956039786" lon="8.085222942754626">
<ele>621.8</ele>
<time>2023-05-18T12:54:45Z</time>
</trkpt>
<trkpt lat="49.31906294077635" lon="8.085219925269485">
<ele>621.5999999999999</ele>
<time>2023-05-18T12:54:46Z</time>
</trkpt>
<trkpt lat="49.31904491968453" lon="8.085214979946613">
<ele>621.2</ele>
<time>2023-05-18T12:54:47Z</time>
</trkpt>
<trkpt lat="49.3190379627049" lon="8.085211962461472">
<ele>621</ele>
<time>2023-05-18T12:54:48Z</time>
</trkpt>
<trkpt lat="49.3190379627049" lon="8.08520995080471">
<ele>620.8</ele>
<time>2023-05-18T12:54:49Z</time>
</trkpt>
<trkpt lat="49.319036956876516" lon="8.085206933319569">
<ele>620.5999999999999</ele>
<time>2023-05-18T12:54:50Z</time>
</trkpt>
<trkpt lat="49.319029999896884" lon="8.085204921662807">
<ele>620.4000000000001</ele>
<time>2023-05-18T12:54:51Z</time>
</trkpt>
<trkpt lat="49.31905196048319" lon="8.085201987996697">
<ele>619.5999999999999</ele>
<time>2023-05-18T12:54:51Z</time>
</trkpt>
<trkpt lat="49.319052966311574" lon="8.085219925269485">
<ele>619.5999999999999</ele>
<time>2023-05-18T12:54:52Z</time>
</trkpt>
<trkpt lat="49.319056989625096" lon="8.085236940532923">
<ele>619.5999999999999</ele>
<time>2023-05-18T12:54:53Z</time>
</trkpt>
<trkpt lat="49.31906193494797" lon="8.085247920826077">
<ele>619.5999999999999</ele>
<time>2023-05-18T12:54:54Z</time>
</trkpt>
<trkpt lat="49.31906193494797" lon="8.085276922211051">
<ele>619.8</ele>
<time>2023-05-18T12:54:55Z</time>
</trkpt>
<trkpt lat="49.31906294077635" lon="8.085304917767644">
<ele>619.8</ele>
<time>2023-05-18T12:54:56Z</time>
</trkpt>
<trkpt lat="49.31906495243311" lon="8.085312964394689">
<ele>619.8</ele>
<time>2023-05-18T12:54:57Z</time>
</trkpt>
<trkpt lat="49.31906696408987" lon="8.085316987708211">
<ele>619.8</ele>
<time>2023-05-18T12:54:58Z</time>
</trkpt>
<trkpt lat="49.319072999060154" lon="8.085322938859463">
<ele>620</ele>
<time>2023-05-18T12:54:59Z</time>
</trkpt>
<trkpt lat="49.319076938554645" lon="8.085324950516224">
<ele>620</ele>
<time>2023-05-18T12:55:00Z</time>
</trkpt>
<trkpt lat="49.31907492689788" lon="8.085322938859463">
<ele>620</ele>
<time>2023-05-18T12:55:01Z</time>
</trkpt>
<trkpt lat="49.31907492689788" lon="8.085324950516224">
<ele>620</ele>
<time>2023-05-18T12:55:02Z</time>
</trkpt>
<trkpt lat="49.31907492689788" lon="8.085322938859463">
<ele>620</ele>
<time>2023-05-18T12:55:03Z</time>
</trkpt>
<trkpt lat="49.319122955203056" lon="8.085354957729578">
<ele>620.4000000000001</ele>
<time>2023-05-18T12:55:04Z</time>
</trkpt>
<trkpt lat="49.3191449996084" lon="8.085366943851113">
<ele>620.4000000000001</ele>
<time>2023-05-18T12:55:05Z</time>
</trkpt>
<trkpt lat="49.31916796602309" lon="8.085382953286171">
<ele>620.4000000000001</ele>
<time>2023-05-18T12:55:06Z</time>
</trkpt>
<trkpt lat="49.3191899266094" lon="8.08539996854961">
<ele>620.4000000000001</ele>
<time>2023-05-18T12:55:07Z</time>
</trkpt>
<trkpt lat="49.31921297684312" lon="8.0854229349643">
<ele>620.4000000000001</ele>
<time>2023-05-18T12:55:08Z</time>
</trkpt>
<trkpt lat="49.31923996657133" lon="8.085446991026402">
<ele>620.4000000000001</ele>
<time>2023-05-18T12:55:09Z</time>
</trkpt>
<trkpt lat="49.31927299126983" lon="8.08546794578433">
<ele>620.4000000000001</ele>
<time>2023-05-18T12:55:10Z</time>
</trkpt>
<trkpt lat="49.31930693797767" lon="8.085496947169304">
<ele>620.2</ele>
<time>2023-05-18T12:55:11Z</time>
</trkpt>
<trkpt lat="49.319337951019406" lon="8.085526954382658">
<ele>620.2</ele>
<time>2023-05-18T12:55:12Z</time>
</trkpt>
<trkpt lat="49.31936494074762" lon="8.085564924404025">
<ele>620</ele>
<time>2023-05-18T12:55:13Z</time>
</trkpt>
<trkpt lat="49.31939293630421" lon="8.085607923567295">
<ele>619.8</ele>
<time>2023-05-18T12:55:14Z</time>
</trkpt>
<trkpt lat="49.319421937689185" lon="8.08565796352923">
<ele>619.5999999999999</ele>
<time>2023-05-18T12:55:15Z</time>
</trkpt>
<trkpt lat="49.31945194490254" lon="8.085709931328893">
<ele>619.4000000000001</ele>
<time>2023-05-18T12:55:16Z</time>
</trkpt>
<trkpt lat="49.31947994045913" lon="8.085772963240743">
<ele>619</ele>
<time>2023-05-18T12:55:17Z</time>
</trkpt>
<trkpt lat="49.31951195932925" lon="8.08582996018231">
<ele>618.5999999999999</ele>
<time>2023-05-18T12:55:18Z</time>
</trkpt>
<trkpt lat="49.31953492574394" lon="8.085889974609017">
<ele>618.4000000000001</ele>
<time>2023-05-18T12:55:19Z</time>
</trkpt>
<trkpt lat="49.31955998763442" lon="8.085954934358597">
<ele>618</ele>
<time>2023-05-18T12:55:20Z</time>
</trkpt>
<trkpt lat="49.319589994847775" lon="8.08602693490684">
<ele>617.5999999999999</ele>
<time>2023-05-18T12:55:21Z</time>
</trkpt>
<trkpt lat="49.31961698457599" lon="8.086102958768606">
<ele>617.2</ele>
<time>2023-05-18T12:55:22Z</time>
</trkpt>
<trkpt lat="49.319637939333916" lon="8.086171941831708">
<ele>616.8</ele>
<time>2023-05-18T12:55:23Z</time>
</trkpt>
<trkpt lat="49.31966492906213" lon="8.086244948208332">
<ele>616.4000000000001</ele>
<time>2023-05-18T12:55:24Z</time>
</trkpt>
<trkpt lat="49.31969191879034" lon="8.086314937099814">
<ele>616</ele>
<time>2023-05-18T12:55:25Z</time>
</trkpt>
<trkpt lat="49.31971698068082" lon="8.086376963183284">
<ele>615.5999999999999</ele>
<time>2023-05-18T12:55:26Z</time>
</trkpt>
<trkpt lat="49.31975495070219" lon="8.086449969559908">
<ele>615.2</ele>
<time>2023-05-18T12:55:27Z</time>
</trkpt>
<trkpt lat="49.31978294625878" lon="8.086507972329855">
<ele>615</ele>
<time>2023-05-18T12:55:28Z</time>
</trkpt>
<trkpt lat="49.31981194764376" lon="8.086564969271421">
<ele>614.5999999999999</ele>
<time>2023-05-18T12:55:29Z</time>
</trkpt>
<trkpt lat="49.31984195485711" lon="8.086612997576594">
<ele>614.2</ele>
<time>2023-05-18T12:55:30Z</time>
</trkpt>
<trkpt lat="49.31987799704075" lon="8.086664965376258">
<ele>613.8</ele>
<time>2023-05-18T12:55:31Z</time>
</trkpt>
<trkpt lat="49.319916972890496" lon="8.086726991459727">
<ele>613.4000000000001</ele>
<time>2023-05-18T12:55:32Z</time>
</trkpt>
<trkpt lat="49.319956954568624" lon="8.086799997836351">
<ele>613.2</ele>
<time>2023-05-18T12:55:33Z</time>
</trkpt>
<trkpt lat="49.31999199092388" lon="8.086857916787267">
<ele>612.8</ele>
<time>2023-05-18T12:55:34Z</time>
</trkpt>
<trkpt lat="49.32002694346011" lon="8.086909968405962">
<ele>612.4000000000001</ele>
<time>2023-05-18T12:55:35Z</time>
</trkpt>
<trkpt lat="49.320064997300506" lon="8.086961936205626">
<ele>612</ele>
<time>2023-05-18T12:55:36Z</time>
</trkpt>
<trkpt lat="49.320106990635395" lon="8.087004935368896">
<ele>611.5999999999999</ele>
<time>2023-05-18T12:55:37Z</time>
</trkpt>
<trkpt lat="49.32014697231352" lon="8.087039971724153">
<ele>611.2</ele>
<time>2023-05-18T12:55:38Z</time>
</trkpt>
<trkpt lat="49.32018494233489" lon="8.087074924260378">
<ele>610.8</ele>
<time>2023-05-18T12:55:39Z</time>
</trkpt>
<trkpt lat="49.32022199034691" lon="8.087106943130493">
<ele>610.4000000000001</ele>
<time>2023-05-18T12:55:40Z</time>
</trkpt>
<trkpt lat="49.32025199756026" lon="8.087129993364215">
<ele>609.8</ele>
<time>2023-05-18T12:55:41Z</time>
</trkpt>
<trkpt lat="49.320277981460094" lon="8.087152959778905">
<ele>609.5999999999999</ele>
<time>2023-05-18T12:55:42Z</time>
</trkpt>
<trkpt lat="49.320302959531546" lon="8.087177937850356">
<ele>609.2</ele>
<time>2023-05-18T12:55:43Z</time>
</trkpt>
<trkpt lat="49.320324920117855" lon="8.087201993912458">
<ele>608.8</ele>
<time>2023-05-18T12:55:44Z</time>
</trkpt>
<trkpt lat="49.3203519936651" lon="8.08722797781229">
<ele>608.4000000000001</ele>
<time>2023-05-18T12:55:45Z</time>
</trkpt>
<trkpt lat="49.3203829228878" lon="8.087247926741838">
<ele>608.2</ele>
<time>2023-05-18T12:55:46Z</time>
</trkpt>
<trkpt lat="49.32041997089982" lon="8.087266953662038">
<ele>607.8</ele>
<time>2023-05-18T12:55:47Z</time>
</trkpt>
<trkpt lat="49.32045794092119" lon="8.08729293756187">
<ele>607.4000000000001</ele>
<time>2023-05-18T12:55:48Z</time>
</trkpt>
<trkpt lat="49.32048794813454" lon="8.087316993623972">
<ele>607.2</ele>
<time>2023-05-18T12:55:49Z</time>
</trkpt>
<trkpt lat="49.32051192037761" lon="8.087332919239998">
<ele>607</ele>
<time>2023-05-18T12:55:50Z</time>
</trkpt>
<trkpt lat="49.32052197866142" lon="8.087344989180565">
<ele>606.8</ele>
<time>2023-05-18T12:55:51Z</time>
</trkpt>
<trkpt lat="49.32052197866142" lon="8.087346917018294">
<ele>606.5999999999999</ele>
<time>2023-05-18T12:55:52Z</time>
</trkpt>
<trkpt lat="49.32052197866142" lon="8.087347922846675">
<ele>606.4000000000001</ele>
<time>2023-05-18T12:55:53Z</time>
</trkpt>
<trkpt lat="49.3205229844898" lon="8.087324956431985">
<ele>603.5999999999999</ele>
<time>2023-05-18T12:55:54Z</time>
</trkpt>
<trkpt lat="49.320514937862754" lon="8.08731297031045">
<ele>603.5999999999999</ele>
<time>2023-05-18T12:55:55Z</time>
</trkpt>
<trkpt lat="49.32050999253988" lon="8.087304923683405">
<ele>603.8</ele>
<time>2023-05-18T12:55:56Z</time>
</trkpt>
<trkpt lat="49.32050194591284" lon="8.087297966703773">
<ele>604</ele>
<time>2023-05-18T12:55:57Z</time>
</trkpt>
<trkpt lat="49.32048794813454" lon="8.08729293756187">
<ele>604.4000000000001</ele>
<time>2023-05-18T12:55:58Z</time>
</trkpt>
<trkpt lat="49.320474956184626" lon="8.087286986410618">
<ele>604.5999999999999</ele>
<time>2023-05-18T12:55:59Z</time>
</trkpt>
<trkpt lat="49.32045794092119" lon="8.087279945611954">
<ele>604.8</ele>
<time>2023-05-18T12:56:00Z</time>
</trkpt>
<trkpt lat="49.32043991982937" lon="8.087272988632321">
<ele>605</ele>
<time>2023-05-18T12:56:01Z</time>
</trkpt>
<trkpt lat="49.32041695341468" lon="8.087257985025644">
<ele>605.2</ele>
<time>2023-05-18T12:56:02Z</time>
</trkpt>
<trkpt lat="49.32039993815124" lon="8.087241975590587">
<ele>605.4000000000001</ele>
<time>2023-05-18T12:56:03Z</time>
</trkpt>
<trkpt lat="49.32039197534323" lon="8.087222948670387">
<ele>605.8</ele>
<time>2023-05-18T12:56:04Z</time>
</trkpt>
<trkpt lat="49.32037496007979" lon="8.08720693923533">
<ele>606</ele>
<time>2023-05-18T12:56:05Z</time>
</trkpt>
<trkpt lat="49.32035492733121" lon="8.087186990305781">
<ele>606.2</ele>
<time>2023-05-18T12:56:06Z</time>
</trkpt>
<trkpt lat="49.3203329667449" lon="8.087166957557201">
<ele>606.4000000000001</ele>
<time>2023-05-18T12:56:07Z</time>
</trkpt>
<trkpt lat="49.32031192816794" lon="8.087147930637002">
<ele>606.5999999999999</ele>
<time>2023-05-18T12:56:08Z</time>
</trkpt>
<trkpt lat="49.32029197923839" lon="8.087126975879073">
<ele>606.8</ele>
<time>2023-05-18T12:56:09Z</time>
</trkpt>
<trkpt lat="49.32027194648981" lon="8.08710291981697">
<ele>607.2</ele>
<time>2023-05-18T12:56:10Z</time>
</trkpt>
<trkpt lat="49.320256942883134" lon="8.087076935917139">
<ele>607.4000000000001</ele>
<time>2023-05-18T12:56:11Z</time>
</trkpt>
<trkpt lat="49.32024193927646" lon="8.087052963674068">
<ele>607.5999999999999</ele>
<time>2023-05-18T12:56:12Z</time>
</trkpt>
<trkpt lat="49.320214949548244" lon="8.087027985602617">
<ele>607.8</ele>
<time>2023-05-18T12:56:13Z</time>
</trkpt>
<trkpt lat="49.32018795982003" lon="8.086997978389263">
<ele>608</ele>
<time>2023-05-18T12:56:14Z</time>
</trkpt>
<trkpt lat="49.32016298174858" lon="8.086971994489431">
<ele>608.2</ele>
<time>2023-05-18T12:56:15Z</time>
</trkpt>
<trkpt lat="49.32012492790818" lon="8.086931928992271">
<ele>608.5999999999999</ele>
<time>2023-05-18T12:56:16Z</time>
</trkpt>
<trkpt lat="49.32010196149349" lon="8.086899993941188">
<ele>608.8</ele>
<time>2023-05-18T12:56:17Z</time>
</trkpt>
<trkpt lat="49.320066925138235" lon="8.086842996999621">
<ele>609</ele>
<time>2023-05-18T12:56:18Z</time>
</trkpt>
<trkpt lat="49.32003297843039" lon="8.086792957037687">
<ele>609.2</ele>
<time>2023-05-18T12:56:19Z</time>
</trkpt>
<trkpt lat="49.32001294568181" lon="8.08675792068243">
<ele>609.5999999999999</ele>
<time>2023-05-18T12:56:20Z</time>
</trkpt>
<trkpt lat="49.31998796761036" lon="8.086719950661063">
<ele>609.8</ele>
<time>2023-05-18T12:56:21Z</time>
</trkpt>
<trkpt lat="49.31996793486178" lon="8.086679968982935">
<ele>610</ele>
<time>2023-05-18T12:56:22Z</time>
</trkpt>
<trkpt lat="49.31994195096195" lon="8.086634958162904">
<ele>610.4000000000001</ele>
<time>2023-05-18T12:56:23Z</time>
</trkpt>
<trkpt lat="49.31991194374859" lon="8.086587935686111">
<ele>610.5999999999999</ele>
<time>2023-05-18T12:56:24Z</time>
</trkpt>
<trkpt lat="49.319894928485155" lon="8.086547954007983">
<ele>611</ele>
<time>2023-05-18T12:56:25Z</time>
</trkpt>
<trkpt lat="49.319871962070465" lon="8.086512917652726">
<ele>611.2</ele>
<time>2023-05-18T12:56:26Z</time>
</trkpt>
<trkpt lat="49.319847989827394" lon="8.086472935974598">
<ele>611.4000000000001</ele>
<time>2023-05-18T12:56:27Z</time>
</trkpt>
<trkpt lat="49.31983499787748" lon="8.086431948468089">
<ele>611.5999999999999</ele>
<time>2023-05-18T12:56:28Z</time>
</trkpt>
<trkpt lat="49.31981798261404" lon="8.086384925991297">
<ele>612</ele>
<time>2023-05-18T12:56:29Z</time>
</trkpt>
<trkpt lat="49.31980297900736" lon="8.08634695596993">
<ele>612.2</ele>
<time>2023-05-18T12:56:30Z</time>
</trkpt>
<trkpt lat="49.319784957915545" lon="8.086311919614673">
<ele>612.4000000000001</ele>
<time>2023-05-18T12:56:31Z</time>
</trkpt>
<trkpt lat="49.319766936823726" lon="8.086276967078447">
<ele>612.8</ele>
<time>2023-05-18T12:56:32Z</time>
</trkpt>
<trkpt lat="49.31975193321705" lon="8.08623991906643">
<ele>613</ele>
<time>2023-05-18T12:56:33Z</time>
</trkpt>
<trkpt lat="49.31973793543875" lon="8.08619499206543">
<ele>613.4000000000001</ele>
<time>2023-05-18T12:56:34Z</time>
</trkpt>
<trkpt lat="49.3197269551456" lon="8.08615299873054">
<ele>613.5999999999999</ele>
<time>2023-05-18T12:56:35Z</time>
</trkpt>
<trkpt lat="49.3197129573673" lon="8.08610999956727">
<ele>613.8</ele>
<time>2023-05-18T12:56:36Z</time>
</trkpt>
<trkpt lat="49.319681944325566" lon="8.086059959605336">
<ele>614</ele>
<time>2023-05-18T12:56:37Z</time>
</trkpt>
<trkpt lat="49.31966995820403" lon="8.08602198958397">
<ele>614.4000000000001</ele>
<time>2023-05-18T12:56:38Z</time>
</trkpt>
<trkpt lat="49.319656966254115" lon="8.085992988198996">
<ele>614.5999999999999</ele>
<time>2023-05-18T12:56:39Z</time>
</trkpt>
<trkpt lat="49.31964799761772" lon="8.085962980985641">
<ele>614.8</ele>
<time>2023-05-18T12:56:40Z</time>
</trkpt>
<trkpt lat="49.3196299765259" lon="8.085921993479133">
<ele>615.2</ele>
<time>2023-05-18T12:56:41Z</time>
</trkpt>
<trkpt lat="49.31961698457599" lon="8.085882933810353">
<ele>615.4000000000001</ele>
<time>2023-05-18T12:56:42Z</time>
</trkpt>
<trkpt lat="49.31959795765579" lon="8.085847981274128">
<ele>615.5999999999999</ele>
<time>2023-05-18T12:56:43Z</time>
</trkpt>
<trkpt lat="49.31956694461405" lon="8.085797941312194">
<ele>615.8</ele>
<time>2023-05-18T12:56:44Z</time>
</trkpt>
<trkpt lat="49.319549929350615" lon="8.085761982947588">
<ele>616</ele>
<time>2023-05-18T12:56:45Z</time>
</trkpt>
<trkpt lat="49.31953492574394" lon="8.085731975734234">
<ele>616.4000000000001</ele>
<time>2023-05-18T12:56:46Z</time>
</trkpt>
<trkpt lat="49.31951799429953" lon="8.08570297434926">
<ele>616.5999999999999</ele>
<time>2023-05-18T12:56:47Z</time>
</trkpt>
<trkpt lat="49.31949293240905" lon="8.085672967135906">
<ele>616.8</ele>
<time>2023-05-18T12:56:48Z</time>
</trkpt>
<trkpt lat="49.31944993324578" lon="8.085629967972636">
<ele>617</ele>
<time>2023-05-18T12:56:49Z</time>
</trkpt>
<trkpt lat="49.31941498070955" lon="8.085592919960618">
<ele>617.2</ele>
<time>2023-05-18T12:56:50Z</time>
</trkpt>
<trkpt lat="49.31938195601106" lon="8.085561990737915">
<ele>617.5999999999999</ele>
<time>2023-05-18T12:56:51Z</time>
</trkpt>
<trkpt lat="49.319354966282845" lon="8.085541957989335">
<ele>617.8</ele>
<time>2023-05-18T12:56:52Z</time>
</trkpt>
<trkpt lat="49.31932495906949" lon="8.085514968261123">
<ele>618</ele>
<time>2023-05-18T12:56:53Z</time>
</trkpt>
<trkpt lat="49.319292940199375" lon="8.085491918027401">
<ele>618.4000000000001</ele>
<time>2023-05-18T12:56:54Z</time>
</trkpt>
<trkpt lat="49.31926695629954" lon="8.08546794578433">
<ele>618.5999999999999</ele>
<time>2023-05-18T12:56:55Z</time>
</trkpt>
<trkpt lat="49.31921993382275" lon="8.085426958277822">
<ele>618.8</ele>
<time>2023-05-18T12:56:56Z</time>
</trkpt>
<trkpt lat="49.3191899266094" lon="8.085392927750945">
<ele>619</ele>
<time>2023-05-18T12:56:57Z</time>
</trkpt>
<trkpt lat="49.31916696019471" lon="8.085364932194352">
<ele>619.2</ele>
<time>2023-05-18T12:56:58Z</time>
</trkpt>
<trkpt lat="49.319142987951636" lon="8.085342971608043">
<ele>619.4000000000001</ele>
<time>2023-05-18T12:56:59Z</time>
</trkpt>
<trkpt lat="49.3191119749099" lon="8.085312964394689">
<ele>619.4000000000001</ele>
<time>2023-05-18T12:57:00Z</time>
</trkpt>
<trkpt lat="49.319072999060154" lon="8.085284968838096">
<ele>619.5999999999999</ele>
<time>2023-05-18T12:57:01Z</time>
</trkpt>
<trkpt lat="49.319029999896884" lon="8.085254961624742">
<ele>619.5999999999999</ele>
<time>2023-05-18T12:57:02Z</time>
</trkpt>
<trkpt lat="49.31898498907685" lon="8.085224954411387">
<ele>619.4000000000001</ele>
<time>2023-05-18T12:57:03Z</time>
</trkpt>
<trkpt lat="49.31895196437836" lon="8.08520793914795">
<ele>619.4000000000001</ele>
<time>2023-05-18T12:57:04Z</time>
</trkpt>
<trkpt lat="49.31890997104347" lon="8.08518991805613">
<ele>619</ele>
<time>2023-05-18T12:57:05Z</time>
</trkpt>
<trkpt lat="49.31885993108153" lon="8.08516695164144">
<ele>618.8</ele>
<time>2023-05-18T12:57:06Z</time>
</trkpt>
<trkpt lat="49.31881198659539" lon="8.08514691889286">
<ele>618.5999999999999</ele>
<time>2023-05-18T12:57:07Z</time>
</trkpt>
<trkpt lat="49.31876798160374" lon="8.085117917507887">
<ele>618.5999999999999</ele>
<time>2023-05-18T12:57:08Z</time>
</trkpt>
<trkpt lat="49.31872498244047" lon="8.085087994113564">
<ele>618.4000000000001</ele>
<time>2023-05-18T12:57:09Z</time>
</trkpt>
<trkpt lat="49.31868298910558" lon="8.085059998556972">
<ele>618.2</ele>
<time>2023-05-18T12:57:10Z</time>
</trkpt>
<trkpt lat="49.318627920001745" lon="8.085022950544953">
<ele>618</ele>
<time>2023-05-18T12:57:11Z</time>
</trkpt>
<trkpt lat="49.318582993000746" lon="8.084987998008728">
<ele>617.8</ele>
<time>2023-05-18T12:57:12Z</time>
</trkpt>
<trkpt lat="49.31852197274566" lon="8.084936952218413">
<ele>617.4000000000001</ele>
<time>2023-05-18T12:57:13Z</time>
</trkpt>
<trkpt lat="49.3184729386121" lon="8.084892947226763">
<ele>617</ele>
<time>2023-05-18T12:57:14Z</time>
</trkpt>
<trkpt lat="49.318411918357015" lon="8.08484299108386">
<ele>616.4000000000001</ele>
<time>2023-05-18T12:57:15Z</time>
</trkpt>
<trkpt lat="49.31833698414266" lon="8.084794962778687">
<ele>616</ele>
<time>2023-05-18T12:57:16Z</time>
</trkpt>
<trkpt lat="49.318284932523966" lon="8.084747940301895">
<ele>615.4000000000001</ele>
<time>2023-05-18T12:57:17Z</time>
</trkpt>
<trkpt lat="49.31822994723916" lon="8.084697984158993">
<ele>614.8</ele>
<time>2023-05-18T12:57:18Z</time>
</trkpt>
<trkpt lat="49.31818292476237" lon="8.084657918661833">
<ele>614.4000000000001</ele>
<time>2023-05-18T12:57:19Z</time>
</trkpt>
<trkpt lat="49.318132968619466" lon="8.084604945033789">
<ele>613.8</ele>
<time>2023-05-18T12:57:20Z</time>
</trkpt>
<trkpt lat="49.31807496584952" lon="8.084546942263842">
<ele>613.2</ele>
<time>2023-05-18T12:57:21Z</time>
</trkpt>
<trkpt lat="49.318004976958036" lon="8.084484916180372">
<ele>612.8</ele>
<time>2023-05-18T12:57:22Z</time>
</trkpt>
<trkpt lat="49.31795191951096" lon="8.084437977522612">
<ele>612.2</ele>
<time>2023-05-18T12:57:23Z</time>
</trkpt>
<trkpt lat="49.31788494810462" lon="8.084387937560678">
<ele>611.5999999999999</ele>
<time>2023-05-18T12:57:24Z</time>
</trkpt>
<trkpt lat="49.317829962819815" lon="8.084337981417775">
<ele>611</ele>
<time>2023-05-18T12:57:25Z</time>
</trkpt>
<trkpt lat="49.31773994117975" lon="8.084269920364022">
<ele>610.4000000000001</ele>
<time>2023-05-18T12:57:26Z</time>
</trkpt>
<trkpt lat="49.31764799170196" lon="8.084204960614443">
<ele>610</ele>
<time>2023-05-18T12:57:27Z</time>
</trkpt>
<trkpt lat="49.317571967840195" lon="8.084151986986399">
<ele>609.4000000000001</ele>
<time>2023-05-18T12:57:28Z</time>
</trkpt>
<trkpt lat="49.31749292649329" lon="8.084097923710942">
<ele>608.8</ele>
<time>2023-05-18T12:57:29Z</time>
</trkpt>
<trkpt lat="49.317421931773424" lon="8.084056936204433">
<ele>608.4000000000001</ele>
<time>2023-05-18T12:57:30Z</time>
</trkpt>
<trkpt lat="49.31733995676041" lon="8.084019972011447">
<ele>607.8</ele>
<time>2023-05-18T12:57:31Z</time>
</trkpt>
<trkpt lat="49.31726795621216" lon="8.083986947312951">
<ele>607.2</ele>
<time>2023-05-18T12:57:32Z</time>
</trkpt>
<trkpt lat="49.31719494983554" lon="8.083951994776726">
<ele>606.5999999999999</ele>
<time>2023-05-18T12:57:33Z</time>
</trkpt>
<trkpt lat="49.31711699813604" lon="8.08391997590661">
<ele>606</ele>
<time>2023-05-18T12:57:34Z</time>
</trkpt>
<trkpt lat="49.31702999398112" lon="8.083882927894592">
<ele>605.5999999999999</ele>
<time>2023-05-18T12:57:35Z</time>
</trkpt>
<trkpt lat="49.316947935149074" lon="8.083852920681238">
<ele>605</ele>
<time>2023-05-18T12:57:36Z</time>
</trkpt>
<trkpt lat="49.31686797179282" lon="8.08383196592331">
<ele>604.4000000000001</ele>
<time>2023-05-18T12:57:37Z</time>
</trkpt>
<trkpt lat="49.31678993627429" lon="8.08381293900311">
<ele>604</ele>
<time>2023-05-18T12:57:38Z</time>
</trkpt>
<trkpt lat="49.316712990403175" lon="8.083797935396433">
<ele>603.4000000000001</ele>
<time>2023-05-18T12:57:39Z</time>
</trkpt>
<trkpt lat="49.31663998402655" lon="8.083784943446517">
<ele>602.8</ele>
<time>2023-05-18T12:57:40Z</time>
</trkpt>
<trkpt lat="49.31655993685126" lon="8.083766922354698">
<ele>602.2</ele>
<time>2023-05-18T12:57:41Z</time>
</trkpt>
<trkpt lat="49.316476956009865" lon="8.083752924576402">
<ele>601.5999999999999</ele>
<time>2023-05-18T12:57:42Z</time>
</trkpt>
<trkpt lat="49.316389951854944" lon="8.083739932626486">
<ele>601</ele>
<time>2023-05-18T12:57:43Z</time>
</trkpt>
<trkpt lat="49.316302947700024" lon="8.08372694067657">
<ele>600.4000000000001</ele>
<time>2023-05-18T12:57:44Z</time>
</trkpt>
<trkpt lat="49.31621292605996" lon="8.083717972040176">
<ele>599.8</ele>
<time>2023-05-18T12:57:45Z</time>
</trkpt>
<trkpt lat="49.31611795909703" lon="8.083711937069893">
<ele>599.2</ele>
<time>2023-05-18T12:57:46Z</time>
</trkpt>
<trkpt lat="49.31602994911373" lon="8.083706991747022">
<ele>598.5999999999999</ele>
<time>2023-05-18T12:57:47Z</time>
</trkpt>
<trkpt lat="49.315942944958806" lon="8.083701962605119">
<ele>597.8</ele>
<time>2023-05-18T12:57:48Z</time>
</trkpt>
<trkpt lat="49.31586692109704" lon="8.083691988140345">
<ele>597.2</ele>
<time>2023-05-18T12:57:49Z</time>
</trkpt>
<trkpt lat="49.315787963569164" lon="8.083679918199778">
<ele>596.5999999999999</ele>
<time>2023-05-18T12:57:50Z</time>
</trkpt>
<trkpt lat="49.31571797467768" lon="8.083669943735003">
<ele>596</ele>
<time>2023-05-18T12:57:51Z</time>
</trkpt>
<trkpt lat="49.315641950815916" lon="8.08365996927023">
<ele>595.4000000000001</ele>
<time>2023-05-18T12:57:52Z</time>
</trkpt>
<trkpt lat="49.315574979409575" lon="8.083654940128326">
<ele>594.8</ele>
<time>2023-05-18T12:57:53Z</time>
</trkpt>
<trkpt lat="49.31549794971943" lon="8.083656951785088">
<ele>594</ele>
<time>2023-05-18T12:57:54Z</time>
</trkpt>
<trkpt lat="49.31541698053479" lon="8.083657957613468">
<ele>593.4000000000001</ele>
<time>2023-05-18T12:57:55Z</time>
</trkpt>
<trkpt lat="49.315339950844646" lon="8.083656951785088">
<ele>592.8</ele>
<time>2023-05-18T12:57:56Z</time>
</trkpt>
<trkpt lat="49.315254958346486" lon="8.083657957613468">
<ele>592.2</ele>
<time>2023-05-18T12:57:57Z</time>
</trkpt>
<trkpt lat="49.31517692282796" lon="8.08366198092699">
<ele>591.5999999999999</ele>
<time>2023-05-18T12:57:58Z</time>
</trkpt>
<trkpt lat="49.31509796530008" lon="8.083667932078242">
<ele>591</ele>
<time>2023-05-18T12:57:59Z</time>
</trkpt>
<trkpt lat="49.315019929781556" lon="8.08368494734168">
<ele>590.4000000000001</ele>
<time>2023-05-18T12:58:00Z</time>
</trkpt>
<trkpt lat="49.314951952546835" lon="8.08370498009026">
<ele>589.8</ele>
<time>2023-05-18T12:58:01Z</time>
</trkpt>
<trkpt lat="49.31487794034183" lon="8.083731969818473">
<ele>589</ele>
<time>2023-05-18T12:58:02Z</time>
</trkpt>
<trkpt lat="49.31480996310711" lon="8.083764994516969">
<ele>588.5999999999999</ele>
<time>2023-05-18T12:58:03Z</time>
</trkpt>
<trkpt lat="49.31473997421563" lon="8.083801958709955">
<ele>588</ele>
<time>2023-05-18T12:58:04Z</time>
</trkpt>
<trkpt lat="49.314674930647016" lon="8.083836995065212">
<ele>587.4000000000001</ele>
<time>2023-05-18T12:58:05Z</time>
</trkpt>
<trkpt lat="49.3146119825542" lon="8.08387496508658">
<ele>586.5999999999999</ele>
<time>2023-05-18T12:58:06Z</time>
</trkpt>
<trkpt lat="49.314539982005954" lon="8.083944953978062">
<ele>586</ele>
<time>2023-05-18T12:58:07Z</time>
</trkpt>
<trkpt lat="49.31447493843734" lon="8.084009997546673">
<ele>585.4000000000001</ele>
<time>2023-05-18T12:58:08Z</time>
</trkpt>
<trkpt lat="49.31439698673785" lon="8.084077974781394">
<ele>584.8</ele>
<time>2023-05-18T12:58:09Z</time>
</trkpt>
<trkpt lat="49.314326997846365" lon="8.084127930924296">
<ele>584</ele>
<time>2023-05-18T12:58:10Z</time>
</trkpt>
<trkpt lat="49.31424695067108" lon="8.08417696505785">
<ele>583.4000000000001</ele>
<time>2023-05-18T12:58:11Z</time>
</trkpt>
<trkpt lat="49.31416698731482" lon="8.084217952564359">
<ele>582.5999999999999</ele>
<time>2023-05-18T12:58:12Z</time>
</trkpt>
<trkpt lat="49.31410194374621" lon="8.084251983091235">
<ele>582</ele>
<time>2023-05-18T12:58:13Z</time>
</trkpt>
<trkpt lat="49.31403698399663" lon="8.08428693562746">
<ele>581.4000000000001</ele>
<time>2023-05-18T12:58:14Z</time>
</trkpt>
<trkpt lat="49.31397495791316" lon="8.084316942840815">
<ele>580.5999999999999</ele>
<time>2023-05-18T12:58:15Z</time>
</trkpt>
<trkpt lat="49.313901951536536" lon="8.084354996681213">
<ele>580</ele>
<time>2023-05-18T12:58:16Z</time>
</trkpt>
<trkpt lat="49.313832968473434" lon="8.08436798863113">
<ele>579.4000000000001</ele>
<time>2023-05-18T12:58:17Z</time>
</trkpt>
<trkpt lat="49.31376691907644" lon="8.084372933954">
<ele>578.8</ele>
<time>2023-05-18T12:58:18Z</time>
</trkpt>
<trkpt lat="49.31369693018496" lon="8.084381986409426">
<ele>578.2</ele>
<time>2023-05-18T12:58:19Z</time>
</trkpt>
<trkpt lat="49.31362995877862" lon="8.0843919608742">
<ele>577.5999999999999</ele>
<time>2023-05-18T12:58:20Z</time>
</trkpt>
<trkpt lat="49.31357296183705" lon="8.084399923682213">
<ele>577</ele>
<time>2023-05-18T12:58:21Z</time>
</trkpt>
<trkpt lat="49.31351797655225" lon="8.084402941167355">
<ele>576.4000000000001</ele>
<time>2023-05-18T12:58:22Z</time>
</trkpt>
<trkpt lat="49.31345695629716" lon="8.084409981966019">
<ele>575.8</ele>
<time>2023-05-18T12:58:23Z</time>
</trkpt>
<trkpt lat="49.31339199654758" lon="8.084416938945651">
<ele>575.2</ele>
<time>2023-05-18T12:58:24Z</time>
</trkpt>
<trkpt lat="49.31332494132221" lon="8.084417944774032">
<ele>574.5999999999999</ele>
<time>2023-05-18T12:58:25Z</time>
</trkpt>
<trkpt lat="49.31324992328882" lon="8.084429930895567">
<ele>574</ele>
<time>2023-05-18T12:58:26Z</time>
</trkpt>
<trkpt lat="49.313189992681146" lon="8.084439989179373">
<ele>573.4000000000001</ele>
<time>2023-05-18T12:58:27Z</time>
</trkpt>
<trkpt lat="49.313127966597676" lon="8.084449963644147">
<ele>572.8</ele>
<time>2023-05-18T12:58:28Z</time>
</trkpt>
<trkpt lat="49.31305294856429" lon="8.08447695337236">
<ele>572.2</ele>
<time>2023-05-18T12:58:29Z</time>
</trkpt>
<trkpt lat="49.312977930530906" lon="8.084516935050488">
<ele>571.5999999999999</ele>
<time>2023-05-18T12:58:30Z</time>
</trkpt>
<trkpt lat="49.31289997883141" lon="8.084571920335293">
<ele>570.8</ele>
<time>2023-05-18T12:58:31Z</time>
</trkpt>
<trkpt lat="49.312842981889844" lon="8.084631934762001">
<ele>570.2</ele>
<time>2023-05-18T12:58:32Z</time>
</trkpt>
<trkpt lat="49.312779949977994" lon="8.084732936695218">
<ele>569.5999999999999</ele>
<time>2023-05-18T12:58:33Z</time>
</trkpt>
<trkpt lat="49.31273192167282" lon="8.08484299108386">
<ele>569</ele>
<time>2023-05-18T12:58:34Z</time>
</trkpt>
<trkpt lat="49.312677942216396" lon="8.084961930289865">
<ele>568.4000000000001</ele>
<time>2023-05-18T12:58:35Z</time>
</trkpt>
<trkpt lat="49.312629997730255" lon="8.085089921951294">
<ele>567.5999999999999</ele>
<time>2023-05-18T12:58:36Z</time>
</trkpt>
<trkpt lat="49.31259697303176" lon="8.085199976339936">
<ele>567</ele>
<time>2023-05-18T12:58:37Z</time>
</trkpt>
<trkpt lat="49.31255196221173" lon="8.085332997143269">
<ele>566.4000000000001</ele>
<time>2023-05-18T12:58:38Z</time>
</trkpt>
<trkpt lat="49.31251692585647" lon="8.08544497936964">
<ele>565.8</ele>
<time>2023-05-18T12:58:39Z</time>
</trkpt>
<trkpt lat="49.31248499080539" lon="8.08555293828249">
<ele>565</ele>
<time>2023-05-18T12:58:40Z</time>
</trkpt>
<trkpt lat="49.31245498359203" lon="8.085664920508862">
<ele>564.4000000000001</ele>
<time>2023-05-18T12:58:41Z</time>
</trkpt>
<trkpt lat="49.31242799386382" lon="8.08578696101904">
<ele>563.8</ele>
<time>2023-05-18T12:58:42Z</time>
</trkpt>
<trkpt lat="49.31240293197334" lon="8.085914952680469">
<ele>563.2</ele>
<time>2023-05-18T12:58:43Z</time>
</trkpt>
<trkpt lat="49.31238692253828" lon="8.086037999019027">
<ele>562.5999999999999</ele>
<time>2023-05-18T12:58:44Z</time>
</trkpt>
<trkpt lat="49.312369991093874" lon="8.086164984852076">
<ele>562</ele>
<time>2023-05-18T12:58:45Z</time>
</trkpt>
<trkpt lat="49.31234694086015" lon="8.086297921836376">
<ele>561.4000000000001</ele>
<time>2023-05-18T12:58:46Z</time>
</trkpt>
<trkpt lat="49.312307965010405" lon="8.086429936811328">
<ele>560.8</ele>
<time>2023-05-18T12:58:47Z</time>
</trkpt>
<trkpt lat="49.31225197389722" lon="8.086544936522841">
<ele>560.4000000000001</ele>
<time>2023-05-18T12:58:48Z</time>
</trkpt>
<trkpt lat="49.31219195947051" lon="8.086652979254723">
<ele>559.8</ele>
<time>2023-05-18T12:58:49Z</time>
</trkpt>
<trkpt lat="49.31212993338704" lon="8.08675792068243">
<ele>559.4000000000001</ele>
<time>2023-05-18T12:58:50Z</time>
</trkpt>
<trkpt lat="49.31205994449556" lon="8.086861940100789">
<ele>558.8</ele>
<time>2023-05-18T12:58:51Z</time>
</trkpt>
<trkpt lat="49.31199699640274" lon="8.086954979225993">
<ele>558.4000000000001</ele>
<time>2023-05-18T12:58:52Z</time>
</trkpt>
<trkpt lat="49.3119419272989" lon="8.087042989209294">
<ele>558</ele>
<time>2023-05-18T12:58:53Z</time>
</trkpt>
<trkpt lat="49.3118869420141" lon="8.087124964222312">
<ele>557.4000000000001</ele>
<time>2023-05-18T12:58:54Z</time>
</trkpt>
<trkpt lat="49.31182793341577" lon="8.087212974205613">
<ele>557</ele>
<time>2023-05-18T12:58:55Z</time>
</trkpt>
<trkpt lat="49.31176791898906" lon="8.08731297031045">
<ele>556.5999999999999</ele>
<time>2023-05-18T12:58:56Z</time>
</trkpt>
<trkpt lat="49.311704970896244" lon="8.087406931445003">
<ele>556.2</ele>
<time>2023-05-18T12:58:57Z</time>
</trkpt>
<trkpt lat="49.31164797395468" lon="8.087501982226968">
<ele>555.8</ele>
<time>2023-05-18T12:58:58Z</time>
</trkpt>
<trkpt lat="49.31158997118473" lon="8.087592925876379">
<ele>555.4000000000001</ele>
<time>2023-05-18T12:58:59Z</time>
</trkpt>
<trkpt lat="49.311536997556686" lon="8.08767699636519">
<ele>554.8</ele>
<time>2023-05-18T12:59:00Z</time>
</trkpt>
<trkpt lat="49.311489975079894" lon="8.087754948064685">
<ele>554.5999999999999</ele>
<time>2023-05-18T12:59:01Z</time>
</trkpt>
<trkpt lat="49.31144194677472" lon="8.087837928906083">
<ele>554.2</ele>
<time>2023-05-18T12:59:02Z</time>
</trkpt>
<trkpt lat="49.311404982581735" lon="8.087919987738132">
<ele>554</ele>
<time>2023-05-18T12:59:03Z</time>
</trkpt>
<trkpt lat="49.31137296371162" lon="8.087997939437628">
<ele>553.5999999999999</ele>
<time>2023-05-18T12:59:04Z</time>
</trkpt>
<trkpt lat="49.3113549426198" lon="8.088077986612916">
<ele>553.4000000000001</ele>
<time>2023-05-18T12:59:05Z</time>
</trkpt>
<trkpt lat="49.31135293096304" lon="8.08815199881792">
<ele>553.2</ele>
<time>2023-05-18T12:59:06Z</time>
</trkpt>
<trkpt lat="49.311364917084575" lon="8.088231962174177">
<ele>553</ele>
<time>2023-05-18T12:59:07Z</time>
</trkpt>
<trkpt lat="49.31138193234801" lon="8.088312931358814">
<ele>552.8</ele>
<time>2023-05-18T12:59:08Z</time>
</trkpt>
<trkpt lat="49.311404982581735" lon="8.08838996104896">
<ele>552.4000000000001</ele>
<time>2023-05-18T12:59:09Z</time>
</trkpt>
<trkpt lat="49.31143993511796" lon="8.088447963818908">
<ele>552.2</ele>
<time>2023-05-18T12:59:10Z</time>
</trkpt>
<trkpt lat="49.31148796342313" lon="8.088486939668655">
<ele>551.8</ele>
<time>2023-05-18T12:59:11Z</time>
</trkpt>
<trkpt lat="49.3115449603647" lon="8.088502949103713">
<ele>551.4000000000001</ele>
<time>2023-05-18T12:59:12Z</time>
</trkpt>
<trkpt lat="49.31159793399274" lon="8.088501943275332">
<ele>551</ele>
<time>2023-05-18T12:59:13Z</time>
</trkpt>
<trkpt lat="49.31165493093431" lon="8.08847495354712">
<ele>550.5999999999999</ele>
<time>2023-05-18T12:59:14Z</time>
</trkpt>
<trkpt lat="49.311711927875876" lon="8.088437989354134">
<ele>550.2</ele>
<time>2023-05-18T12:59:15Z</time>
</trkpt>
<trkpt lat="49.31176498532295" lon="8.088397923856974">
<ele>550</ele>
<time>2023-05-18T12:59:16Z</time>
</trkpt>
<trkpt lat="49.3118229880929" lon="8.088352996855974">
<ele>549.5999999999999</ele>
<time>2023-05-18T12:59:17Z</time>
</trkpt>
<trkpt lat="49.31188493035734" lon="8.088307986035943">
<ele>549.2</ele>
<time>2023-05-18T12:59:18Z</time>
</trkpt>
<trkpt lat="49.311946956440806" lon="8.088267920538783">
<ele>548.8</ele>
<time>2023-05-18T12:59:19Z</time>
</trkpt>
<trkpt lat="49.31200495921075" lon="8.088231962174177">
<ele>548.4000000000001</ele>
<time>2023-05-18T12:59:20Z</time>
</trkpt>
<trkpt lat="49.3120629619807" lon="8.088191980496049">
<ele>547.8</ele>
<time>2023-05-18T12:59:21Z</time>
</trkpt>
<trkpt lat="49.31211995892227" lon="8.08815199881792">
<ele>547.2</ele>
<time>2023-05-18T12:59:22Z</time>
</trkpt>
<trkpt lat="49.31217695586383" lon="8.088112939149141">
<ele>546.5999999999999</ele>
<time>2023-05-18T12:59:23Z</time>
</trkpt>
<trkpt lat="49.31223697029054" lon="8.088076980784535">
<ele>546.2</ele>
<time>2023-05-18T12:59:24Z</time>
</trkpt>
<trkpt lat="49.31230193004012" lon="8.088034987449646">
<ele>545.5999999999999</ele>
<time>2023-05-18T12:59:25Z</time>
</trkpt>
<trkpt lat="49.312369991093874" lon="8.087989976629615">
<ele>545</ele>
<time>2023-05-18T12:59:26Z</time>
</trkpt>
<trkpt lat="49.3124429974705" lon="8.087942954152822">
<ele>544.5999999999999</ele>
<time>2023-05-18T12:59:27Z</time>
</trkpt>
<trkpt lat="49.31251994334161" lon="8.08789492584765">
<ele>544</ele>
<time>2023-05-18T12:59:28Z</time>
</trkpt>
<trkpt lat="49.312589932233095" lon="8.087842958047986">
<ele>543.4000000000001</ele>
<time>2023-05-18T12:59:29Z</time>
</trkpt>
<trkpt lat="49.31265992112458" lon="8.087792918086052">
<ele>542.8</ele>
<time>2023-05-18T12:59:30Z</time>
</trkpt>
<trkpt lat="49.31273493915796" lon="8.087737932801247">
<ele>542.4000000000001</ele>
<time>2023-05-18T12:59:31Z</time>
</trkpt>
<trkpt lat="49.31281297467649" lon="8.087691999971867">
<ele>541.5999999999999</ele>
<time>2023-05-18T12:59:32Z</time>
</trkpt>
<trkpt lat="49.312889920547605" lon="8.087646989151835">
<ele>541</ele>
<time>2023-05-18T12:59:33Z</time>
</trkpt>
<trkpt lat="49.31295798160136" lon="8.087604995816946">
<ele>540.4000000000001</ele>
<time>2023-05-18T12:59:34Z</time>
</trkpt>
<trkpt lat="49.31303199380636" lon="8.087561996653676">
<ele>539.8</ele>
<time>2023-05-18T12:59:35Z</time>
</trkpt>
<trkpt lat="49.31311195716262" lon="8.087517991662025">
<ele>539</ele>
<time>2023-05-18T12:59:36Z</time>
</trkpt>
<trkpt lat="49.31318496353924" lon="8.087487984448671">
<ele>538.4000000000001</ele>
<time>2023-05-18T12:59:37Z</time>
</trkpt>
<trkpt lat="49.313256964087486" lon="8.087462922558188">
<ele>537.8</ele>
<time>2023-05-18T12:59:38Z</time>
</trkpt>
<trkpt lat="49.31333692744374" lon="8.087437944486737">
<ele>537</ele>
<time>2023-05-18T12:59:39Z</time>
</trkpt>
<trkpt lat="49.31341496296227" lon="8.087416989728808">
<ele>536.4000000000001</ele>
<time>2023-05-18T12:59:40Z</time>
</trkpt>
<trkpt lat="49.31349693797529" lon="8.08739997446537">
<ele>535.8</ele>
<time>2023-05-18T12:59:41Z</time>
</trkpt>
<trkpt lat="49.31357296183705" lon="8.087387988343835">
<ele>535</ele>
<time>2023-05-18T12:59:42Z</time>
</trkpt>
<trkpt lat="49.31365292519331" lon="8.087381953373551">
<ele>534.4000000000001</ele>
<time>2023-05-18T12:59:43Z</time>
</trkpt>
<trkpt lat="49.313729954883456" lon="8.087381953373551">
<ele>533.8</ele>
<time>2023-05-18T12:59:44Z</time>
</trkpt>
<trkpt lat="49.31380991823971" lon="8.08737994171679">
<ele>533</ele>
<time>2023-05-18T12:59:45Z</time>
</trkpt>
<trkpt lat="49.313899939879775" lon="8.087376924231648">
<ele>532.4000000000001</ele>
<time>2023-05-18T12:59:46Z</time>
</trkpt>
<trkpt lat="49.31399499066174" lon="8.087369967252016">
<ele>531.5999999999999</ele>
<time>2023-05-18T12:59:47Z</time>
</trkpt>
<trkpt lat="49.31408492848277" lon="8.0873569753021">
<ele>531</ele>
<time>2023-05-18T12:59:48Z</time>
</trkpt>
<trkpt lat="49.31417293846607" lon="8.087344989180565">
<ele>530.2</ele>
<time>2023-05-18T12:59:49Z</time>
</trkpt>
<trkpt lat="49.31425994262099" lon="8.087341971695423">
<ele>529.4000000000001</ele>
<time>2023-05-18T12:59:50Z</time>
</trkpt>
<trkpt lat="49.3143529817462" lon="8.087331997230649">
<ele>528.5999999999999</ele>
<time>2023-05-18T12:59:51Z</time>
</trkpt>
<trkpt lat="49.31444794870913" lon="8.087316993623972">
<ele>527.8</ele>
<time>2023-05-18T12:59:52Z</time>
</trkpt>
<trkpt lat="49.31453797034919" lon="8.087302995845675">
<ele>527</ele>
<time>2023-05-18T12:59:53Z</time>
</trkpt>
<trkpt lat="49.314631931483746" lon="8.087291931733489">
<ele>526.2</ele>
<time>2023-05-18T12:59:54Z</time>
</trkpt>
<trkpt lat="49.31473192758858" lon="8.08727198280394">
<ele>525.4000000000001</ele>
<time>2023-05-18T12:59:55Z</time>
</trkpt>
<trkpt lat="49.31482697837055" lon="8.087254967540503">
<ele>524.5999999999999</ele>
<time>2023-05-18T12:59:56Z</time>
</trkpt>
<trkpt lat="49.31492496281862" lon="8.087237952277064">
<ele>524</ele>
<time>2023-05-18T12:59:57Z</time>
</trkpt>
<trkpt lat="49.315016996115446" lon="8.087229989469051">
<ele>523.2</ele>
<time>2023-05-18T12:59:58Z</time>
</trkpt>
<trkpt lat="49.315102994441986" lon="8.087229989469051">
<ele>522.4</ele>
<time>2023-05-18T12:59:59Z</time>
</trkpt>
<trkpt lat="49.315186981111765" lon="8.087234934791923">
<ele>521.6</ele>
<time>2023-05-18T13:00:00Z</time>
</trkpt>
<trkpt lat="49.31526694446802" lon="8.087234934791923">
<ele>520.8</ele>
<time>2023-05-18T13:00:01Z</time>
</trkpt>
<trkpt lat="49.315339950844646" lon="8.087224960327148">
<ele>520</ele>
<time>2023-05-18T13:00:02Z</time>
</trkpt>
<trkpt lat="49.315406922250986" lon="8.087221942842007">
<ele>519.4</ele>
<time>2023-05-18T13:00:03Z</time>
</trkpt>
<trkpt lat="49.3154719658196" lon="8.087214985862374">
<ele>518.6</ele>
<time>2023-05-18T13:00:04Z</time>
</trkpt>
<trkpt lat="49.31553692556918" lon="8.087209956720471">
<ele>517.8</ele>
<time>2023-05-18T13:00:05Z</time>
</trkpt>
<trkpt lat="49.315597945824265" lon="8.087222948670387">
<ele>517.2</ele>
<time>2023-05-18T13:00:06Z</time>
</trkpt>
<trkpt lat="49.31569299660623" lon="8.087247926741838">
<ele>516.6</ele>
<time>2023-05-18T13:00:07Z</time>
</trkpt>
<trkpt lat="49.31575996801257" lon="8.087277933955193">
<ele>516</ele>
<time>2023-05-18T13:00:08Z</time>
</trkpt>
<trkpt lat="49.31584797799587" lon="8.087334930896759">
<ele>515.4</ele>
<time>2023-05-18T13:00:09Z</time>
</trkpt>
<trkpt lat="49.31594495661557" lon="8.087401986122131">
<ele>514.6</ele>
<time>2023-05-18T13:00:10Z</time>
</trkpt>
<trkpt lat="49.31601695716381" lon="8.087452948093414">
<ele>514</ele>
<time>2023-05-18T13:00:11Z</time>
</trkpt>
<trkpt lat="49.31611997075379" lon="8.087511956691742">
<ele>513.2</ele>
<time>2023-05-18T13:00:12Z</time>
</trkpt>
<trkpt lat="49.316176967695355" lon="8.087561996653676">
<ele>512.4</ele>
<time>2023-05-18T13:00:13Z</time>
</trkpt>
<trkpt lat="49.31626992300153" lon="8.087609941139817">
<ele>511.79999999999995</ele>
<time>2023-05-18T13:00:14Z</time>
</trkpt>
<trkpt lat="49.316331949085" lon="8.087654951959848">
<ele>511</ele>
<time>2023-05-18T13:00:15Z</time>
</trkpt>
<trkpt lat="49.316391963511705" lon="8.087709937244654">
<ele>510.4</ele>
<time>2023-05-18T13:00:16Z</time>
</trkpt>
<trkpt lat="49.31646295823157" lon="8.087796941399574">
<ele>509.79999999999995</ele>
<time>2023-05-18T13:00:17Z</time>
</trkpt>
<trkpt lat="49.316517943516374" lon="8.08789492584765">
<ele>509.20000000000005</ele>
<time>2023-05-18T13:00:18Z</time>
</trkpt>
<trkpt lat="49.31656798347831" lon="8.087997939437628">
<ele>508.6</ele>
<time>2023-05-18T13:00:19Z</time>
</trkpt>
<trkpt lat="49.316607965156436" lon="8.088102964684367">
<ele>508</ele>
<time>2023-05-18T13:00:20Z</time>
</trkpt>
<trkpt lat="49.31663495488465" lon="8.088212935253978">
<ele>507.6</ele>
<time>2023-05-18T13:00:21Z</time>
</trkpt>
<trkpt lat="49.31664492934942" lon="8.08832198381424">
<ele>507</ele>
<time>2023-05-18T13:00:22Z</time>
</trkpt>
<trkpt lat="49.31662196293473" lon="8.08840999379754">
<ele>506.6</ele>
<time>2023-05-18T13:00:23Z</time>
</trkpt>
<trkpt lat="49.316581981256604" lon="8.088496997952461">
<ele>506</ele>
<time>2023-05-18T13:00:24Z</time>
</trkpt>
<trkpt lat="49.31653294712305" lon="8.088572937995195">
<ele>505.4</ele>
<time>2023-05-18T13:00:25Z</time>
</trkpt>
<trkpt lat="49.316476956009865" lon="8.088654996827245">
<ele>504.79999999999995</ele>
<time>2023-05-18T13:00:26Z</time>
</trkpt>
<trkpt lat="49.31641794741154" lon="8.088729931041598">
<ele>504.20000000000005</ele>
<time>2023-05-18T13:00:27Z</time>
</trkpt>
<trkpt lat="49.31635994464159" lon="8.088807966560125">
<ele>503.6</ele>
<time>2023-05-18T13:00:28Z</time>
</trkpt>
<trkpt lat="49.31629699654877" lon="8.088886924088001">
<ele>503</ele>
<time>2023-05-18T13:00:29Z</time>
</trkpt>
<trkpt lat="49.31624494493008" lon="8.088972922414541">
<ele>502.20000000000005</ele>
<time>2023-05-18T13:00:30Z</time>
</trkpt>
<trkpt lat="49.316194988787174" lon="8.089064955711365">
<ele>501.6</ele>
<time>2023-05-18T13:00:31Z</time>
</trkpt>
<trkpt lat="49.31614494882524" lon="8.089154977351427">
<ele>501</ele>
<time>2023-05-18T13:00:32Z</time>
</trkpt>
<trkpt lat="49.31609792634845" lon="8.08924499899149">
<ele>500.6</ele>
<time>2023-05-18T13:00:33Z</time>
</trkpt>
<trkpt lat="49.316047970205545" lon="8.089329991489649">
<ele>500</ele>
<time>2023-05-18T13:00:34Z</time>
</trkpt>
<trkpt lat="49.31599692441523" lon="8.08941992931068">
<ele>499.20000000000005</ele>
<time>2023-05-18T13:00:35Z</time>
</trkpt>
<trkpt lat="49.315936993807554" lon="8.089522942900658">
<ele>498.6</ele>
<time>2023-05-18T13:00:36Z</time>
</trkpt>
<trkpt lat="49.31587999686599" lon="8.089624950662255">
<ele>498</ele>
<time>2023-05-18T13:00:37Z</time>
</trkpt>
<trkpt lat="49.31582794524729" lon="8.089727964252234">
<ele>497.6</ele>
<time>2023-05-18T13:00:38Z</time>
</trkpt>
<trkpt lat="49.31577991694212" lon="8.089832989498973">
<ele>497</ele>
<time>2023-05-18T13:00:39Z</time>
</trkpt>
<trkpt lat="49.31573197245598" lon="8.08993793092668">
<ele>496.6</ele>
<time>2023-05-18T13:00:40Z</time>
</trkpt>
<trkpt lat="49.31568997912109" lon="8.090046979486942">
<ele>496</ele>
<time>2023-05-18T13:00:41Z</time>
</trkpt>
<trkpt lat="49.31564697995782" lon="8.090161979198456">
<ele>495.4</ele>
<time>2023-05-18T13:00:42Z</time>
</trkpt>
<trkpt lat="49.315596939995885" lon="8.090271949768066">
<ele>494.79999999999995</ele>
<time>2023-05-18T13:00:43Z</time>
</trkpt>
<trkpt lat="49.31554991751909" lon="8.090382926166058">
<ele>494</ele>
<time>2023-05-18T13:00:44Z</time>
</trkpt>
<trkpt lat="49.3155079241842" lon="8.09049197472632">
<ele>493.4</ele>
<time>2023-05-18T13:00:45Z</time>
</trkpt>
<trkpt lat="49.31546492502093" lon="8.090599933639169">
<ele>492.79999999999995</ele>
<time>2023-05-18T13:00:46Z</time>
</trkpt>
<trkpt lat="49.315422931686044" lon="8.09070797637105">
<ele>492</ele>
<time>2023-05-18T13:00:47Z</time>
</trkpt>
<trkpt lat="49.315379932522774" lon="8.090819958597422">
<ele>491.4</ele>
<time>2023-05-18T13:00:48Z</time>
</trkpt>
<trkpt lat="49.31533492170274" lon="8.090932946652174">
<ele>490.79999999999995</ele>
<time>2023-05-18T13:00:49Z</time>
</trkpt>
<trkpt lat="49.31528798304498" lon="8.09105196967721">
<ele>490.20000000000005</ele>
<time>2023-05-18T13:00:50Z</time>
</trkpt>
<trkpt lat="49.31524196639657" lon="8.091171998530626">
<ele>489.4</ele>
<time>2023-05-18T13:00:51Z</time>
</trkpt>
<trkpt lat="49.31519494391978" lon="8.091292949393392">
<ele>488.79999999999995</ele>
<time>2023-05-18T13:00:52Z</time>
</trkpt>
<trkpt lat="49.31514993309975" lon="8.09141498990357">
<ele>488</ele>
<time>2023-05-18T13:00:53Z</time>
</trkpt>
<trkpt lat="49.315102994441986" lon="8.091537952423096">
<ele>487.4</ele>
<time>2023-05-18T13:00:54Z</time>
</trkpt>
<trkpt lat="49.31506494060159" lon="8.091657981276512">
<ele>486.79999999999995</ele>
<time>2023-05-18T13:00:55Z</time>
</trkpt>
<trkpt lat="49.31502194143832" lon="8.091772980988026">
<ele>486.20000000000005</ele>
<time>2023-05-18T13:00:56Z</time>
</trkpt>
<trkpt lat="49.314976930618286" lon="8.091882951557636">
<ele>485.6</ele>
<time>2023-05-18T13:00:57Z</time>
</trkpt>
<trkpt lat="49.31494298391044" lon="8.091982947662473">
<ele>484.79999999999995</ele>
<time>2023-05-18T13:00:58Z</time>
</trkpt>
<trkpt lat="49.31490199640393" lon="8.092089984565973">
<ele>484.20000000000005</ele>
<time>2023-05-18T13:00:59Z</time>
</trkpt>
<trkpt lat="49.31486193090677" lon="8.092196937650442">
<ele>483.4</ele>
<time>2023-05-18T13:01:00Z</time>
</trkpt>
<trkpt lat="49.31481792591512" lon="8.092307997867465">
<ele>482.79999999999995</ele>
<time>2023-05-18T13:01:01Z</time>
</trkpt>
<trkpt lat="49.31476998142898" lon="8.092424925416708">
<ele>482</ele>
<time>2023-05-18T13:01:02Z</time>
</trkpt>
<trkpt lat="49.314714996144176" lon="8.09253497980535">
<ele>481.20000000000005</ele>
<time>2023-05-18T13:01:03Z</time>
</trkpt>
<trkpt lat="49.31465699337423" lon="8.092651991173625">
<ele>480.6</ele>
<time>2023-05-18T13:01:04Z</time>
</trkpt>
<trkpt lat="49.31459999643266" lon="8.092767996713519">
<ele>480</ele>
<time>2023-05-18T13:01:05Z</time>
</trkpt>
<trkpt lat="49.314544927328825" lon="8.092876961454749">
<ele>479.20000000000005</ele>
<time>2023-05-18T13:01:06Z</time>
</trkpt>
<trkpt lat="49.31448793038726" lon="8.092982992529869">
<ele>478.6</ele>
<time>2023-05-18T13:01:07Z</time>
</trkpt>
<trkpt lat="49.314434956759214" lon="8.093089945614338">
<ele>478</ele>
<time>2023-05-18T13:01:08Z</time>
</trkpt>
<trkpt lat="49.31438198313117" lon="8.09320293366909">
<ele>477.20000000000005</ele>
<time>2023-05-18T13:01:09Z</time>
</trkpt>
<trkpt lat="49.31433294899762" lon="8.093314999714494">
<ele>476.6</ele>
<time>2023-05-18T13:01:10Z</time>
</trkpt>
<trkpt lat="49.314286932349205" lon="8.093431927263737">
<ele>475.79999999999995</ele>
<time>2023-05-18T13:01:11Z</time>
</trkpt>
<trkpt lat="49.31423798203468" lon="8.09354499913752">
<ele>475.20000000000005</ele>
<time>2023-05-18T13:01:12Z</time>
</trkpt>
<trkpt lat="49.31418794207275" lon="8.093656981363893">
<ele>474.4</ele>
<time>2023-05-18T13:01:13Z</time>
</trkpt>
<trkpt lat="49.31413999758661" lon="8.093772986903787">
<ele>473.6</ele>
<time>2023-05-18T13:01:14Z</time>
</trkpt>
<trkpt lat="49.31408794596791" lon="8.093889998272061">
<ele>473</ele>
<time>2023-05-18T13:01:15Z</time>
</trkpt>
<trkpt lat="49.3140419293195" lon="8.094004997983575">
<ele>472.20000000000005</ele>
<time>2023-05-18T13:01:16Z</time>
</trkpt>
<trkpt lat="49.31399691849947" lon="8.094109939411283">
<ele>471.6</ele>
<time>2023-05-18T13:01:17Z</time>
</trkpt>
<trkpt lat="49.31394796818495" lon="8.094226950779557">
<ele>471</ele>
<time>2023-05-18T13:01:18Z</time>
</trkpt>
<trkpt lat="49.31390496902168" lon="8.094342956319451">
<ele>470.4</ele>
<time>2023-05-18T13:01:19Z</time>
</trkpt>
<trkpt lat="49.31386699900031" lon="8.094459967687726">
<ele>469.79999999999995</ele>
<time>2023-05-18T13:01:20Z</time>
</trkpt>
<trkpt lat="49.31382995098829" lon="8.094571949914098">
<ele>469</ele>
<time>2023-05-18T13:01:21Z</time>
</trkpt>
<trkpt lat="49.31379499845207" lon="8.094682926312089">
<ele>468.4</ele>
<time>2023-05-18T13:01:22Z</time>
</trkpt>
<trkpt lat="49.31376197375357" lon="8.094796920195222">
<ele>467.6</ele>
<time>2023-05-18T13:01:23Z</time>
</trkpt>
<trkpt lat="49.313729954883456" lon="8.094909992069006">
<ele>466.79999999999995</ele>
<time>2023-05-18T13:01:24Z</time>
</trkpt>
<trkpt lat="49.313702965155244" lon="8.095026919618249">
<ele>466.20000000000005</ele>
<time>2023-05-18T13:01:25Z</time>
</trkpt>
<trkpt lat="49.31367698125541" lon="8.095146948471665">
<ele>465.6</ele>
<time>2023-05-18T13:01:26Z</time>
</trkpt>
<trkpt lat="49.31365191936493" lon="8.095271922647953">
<ele>464.79999999999995</ele>
<time>2023-05-18T13:01:27Z</time>
</trkpt>
<trkpt lat="49.31362995877862" lon="8.095396980643272">
<ele>464.20000000000005</ele>
<time>2023-05-18T13:01:28Z</time>
</trkpt>
<trkpt lat="49.31361294351518" lon="8.095526983961463">
<ele>463.6</ele>
<time>2023-05-18T13:01:29Z</time>
</trkpt>
<trkpt lat="49.31360498070717" lon="8.095662938430905">
<ele>462.79999999999995</ele>
<time>2023-05-18T13:01:30Z</time>
</trkpt>
<trkpt lat="49.313597939908504" lon="8.09579998254776">
<ele>462.20000000000005</ele>
<time>2023-05-18T13:01:31Z</time>
</trkpt>
<trkpt lat="49.31358796544373" lon="8.095936942845583">
<ele>461.6</ele>
<time>2023-05-18T13:01:32Z</time>
</trkpt>
<trkpt lat="49.313579918816686" lon="8.096071975305676">
<ele>460.79999999999995</ele>
<time>2023-05-18T13:01:33Z</time>
</trkpt>
<trkpt lat="49.313576985150576" lon="8.096204996109009">
<ele>460.20000000000005</ele>
<time>2023-05-18T13:01:34Z</time>
</trkpt>
<trkpt lat="49.313579918816686" lon="8.09633793309331">
<ele>459.4</ele>
<time>2023-05-18T13:01:35Z</time>
</trkpt>
<trkpt lat="49.31358796544373" lon="8.096471959725022">
<ele>458.79999999999995</ele>
<time>2023-05-18T13:01:36Z</time>
</trkpt>
<trkpt lat="49.31359492242336" lon="8.096602968871593">
<ele>458.20000000000005</ele>
<time>2023-05-18T13:01:37Z</time>
</trkpt>
<trkpt lat="49.31360498070717" lon="8.096736995503306">
<ele>457.6</ele>
<time>2023-05-18T13:01:38Z</time>
</trkpt>
<trkpt lat="49.31361495517194" lon="8.096869932487607">
<ele>457</ele>
<time>2023-05-18T13:01:39Z</time>
</trkpt>
<trkpt lat="49.313622917979956" lon="8.0970049649477">
<ele>456.4</ele>
<time>2023-05-18T13:01:40Z</time>
</trkpt>
<trkpt lat="49.31363197043538" lon="8.097139997407794">
<ele>455.79999999999995</ele>
<time>2023-05-18T13:01:41Z</time>
</trkpt>
<trkpt lat="49.313642950728536" lon="8.097271928563714">
<ele>455.20000000000005</ele>
<time>2023-05-18T13:01:42Z</time>
</trkpt>
<trkpt lat="49.31365292519331" lon="8.097404949367046">
<ele>454.6</ele>
<time>2023-05-18T13:01:43Z</time>
</trkpt>
<trkpt lat="49.31366499513388" lon="8.097541993483901">
<ele>453.79999999999995</ele>
<time>2023-05-18T13:01:44Z</time>
</trkpt>
<trkpt lat="49.31366994045675" lon="8.097676942124963">
<ele>453.20000000000005</ele>
<time>2023-05-18T13:01:45Z</time>
</trkpt>
<trkpt lat="49.31367496959865" lon="8.097812980413437">
<ele>452.4</ele>
<time>2023-05-18T13:01:46Z</time>
</trkpt>
<trkpt lat="49.31368192657828" lon="8.097952958196402">
<ele>451.79999999999995</ele>
<time>2023-05-18T13:01:47Z</time>
</trkpt>
<trkpt lat="49.313684944063425" lon="8.098096959292889">
<ele>451</ele>
<time>2023-05-18T13:01:48Z</time>
</trkpt>
<trkpt lat="49.31368796154857" lon="8.098242972046137">
<ele>450.4</ele>
<time>2023-05-18T13:01:49Z</time>
</trkpt>
<trkpt lat="49.3136949185282" lon="8.098384961485863">
<ele>449.79999999999995</ele>
<time>2023-05-18T13:01:50Z</time>
</trkpt>
<trkpt lat="49.31370195932686" lon="8.098524939268827">
<ele>449</ele>
<time>2023-05-18T13:01:51Z</time>
</trkpt>
<trkpt lat="49.31371193379164" lon="8.09865796007216">
<ele>448.20000000000005</ele>
<time>2023-05-18T13:01:52Z</time>
</trkpt>
<trkpt lat="49.31371998041868" lon="8.098784945905209">
<ele>447.6</ele>
<time>2023-05-18T13:01:53Z</time>
</trkpt>
<trkpt lat="49.3137329723686" lon="8.098909920081496">
<ele>446.79999999999995</ele>
<time>2023-05-18T13:01:54Z</time>
</trkpt>
<trkpt lat="49.31373791769147" lon="8.099036989733577">
<ele>446</ele>
<time>2023-05-18T13:01:55Z</time>
</trkpt>
<trkpt lat="49.31373699568212" lon="8.099164981395006">
<ele>445.4</ele>
<time>2023-05-18T13:01:56Z</time>
</trkpt>
<trkpt lat="49.313729954883456" lon="8.099289955571294">
<ele>444.6</ele>
<time>2023-05-18T13:01:57Z</time>
</trkpt>
<trkpt lat="49.31371696293354" lon="8.099414929747581">
<ele>444</ele>
<time>2023-05-18T13:01:58Z</time>
</trkpt>
<trkpt lat="49.313706988468766" lon="8.099536970257759">
<ele>443.4</ele>
<time>2023-05-18T13:01:59Z</time>
</trkpt>
<trkpt lat="49.31369299069047" lon="8.099656999111176">
<ele>442.79999999999995</ele>
<time>2023-05-18T13:02:00Z</time>
</trkpt>
<trkpt lat="49.313679998740554" lon="8.099772920832038">
<ele>442.20000000000005</ele>
<time>2023-05-18T13:02:01Z</time>
</trkpt>
<trkpt lat="49.31365795433521" lon="8.099892949685454">
<ele>441.6</ele>
<time>2023-05-18T13:02:02Z</time>
</trkpt>
<trkpt lat="49.31363297626376" lon="8.100019935518503">
<ele>441</ele>
<time>2023-05-18T13:02:03Z</time>
</trkpt>
<trkpt lat="49.31360992603004" lon="8.100144993513823">
<ele>440.4</ele>
<time>2023-05-18T13:02:04Z</time>
</trkpt>
<trkpt lat="49.31358695961535" lon="8.100281953811646">
<ele>439.79999999999995</ele>
<time>2023-05-18T13:02:05Z</time>
</trkpt>
<trkpt lat="49.31356692686677" lon="8.10041799210012">
<ele>439.20000000000005</ele>
<time>2023-05-18T13:02:06Z</time>
</trkpt>
<trkpt lat="49.31355192326009" lon="8.100556964054704">
<ele>438.4</ele>
<time>2023-05-18T13:02:07Z</time>
</trkpt>
<trkpt lat="49.31353993713856" lon="8.100694930180907">
<ele>437.79999999999995</ele>
<time>2023-05-18T13:02:08Z</time>
</trkpt>
<trkpt lat="49.31352795101702" lon="8.100832980126143">
<ele>437.20000000000005</ele>
<time>2023-05-18T13:02:09Z</time>
</trkpt>
<trkpt lat="49.31351998820901" lon="8.100967928767204">
<ele>436.4</ele>
<time>2023-05-18T13:02:10Z</time>
</trkpt>
<trkpt lat="49.313512947410345" lon="8.101102961227298">
<ele>435.79999999999995</ele>
<time>2023-05-18T13:02:11Z</time>
</trkpt>
<trkpt lat="49.31350791826844" lon="8.10123992152512">
<ele>435</ele>
<time>2023-05-18T13:02:12Z</time>
</trkpt>
<trkpt lat="49.31350297294557" lon="8.101379983127117">
<ele>434.20000000000005</ele>
<time>2023-05-18T13:02:13Z</time>
</trkpt>
<trkpt lat="49.31350297294557" lon="8.101519960910082">
<ele>433.4</ele>
<time>2023-05-18T13:02:14Z</time>
</trkpt>
<trkpt lat="49.31350498460233" lon="8.101661950349808">
<ele>432.6</ele>
<time>2023-05-18T13:02:15Z</time>
</trkpt>
<trkpt lat="49.31350699625909" lon="8.101802933961153">
<ele>431.79999999999995</ele>
<time>2023-05-18T13:02:16Z</time>
</trkpt>
<trkpt lat="49.313511941581964" lon="8.101949952542782">
<ele>431</ele>
<time>2023-05-18T13:02:17Z</time>
</trkpt>
<trkpt lat="49.313514959067106" lon="8.102077944204211">
<ele>430.20000000000005</ele>
<time>2023-05-18T13:02:18Z</time>
</trkpt>
<trkpt lat="49.31352199986577" lon="8.102209959179163">
<ele>429.4</ele>
<time>2023-05-18T13:02:19Z</time>
</trkpt>
<trkpt lat="49.31352694518864" lon="8.102344991639256">
<ele>428.6</ele>
<time>2023-05-18T13:02:20Z</time>
</trkpt>
<trkpt lat="49.31352795101702" lon="8.102477928623557">
<ele>427.6</ele>
<time>2023-05-18T13:02:21Z</time>
</trkpt>
<trkpt lat="49.313531974330544" lon="8.10261195525527">
<ele>426.79999999999995</ele>
<time>2023-05-18T13:02:22Z</time>
</trkpt>
<trkpt lat="49.313536919653416" lon="8.102737935259938">
<ele>425.79999999999995</ele>
<time>2023-05-18T13:02:23Z</time>
</trkpt>
<trkpt lat="49.31354697793722" lon="8.102856958284974">
<ele>425</ele>
<time>2023-05-18T13:02:24Z</time>
</trkpt>
<trkpt lat="49.313554940745234" lon="8.102981932461262">
<ele>424</ele>
<time>2023-05-18T13:02:25Z</time>
</trkpt>
<trkpt lat="49.31356298737228" lon="8.103107996284962">
<ele>423.20000000000005</ele>
<time>2023-05-18T13:02:26Z</time>
</trkpt>
<trkpt lat="49.313576985150576" lon="8.103229952976108">
<ele>422.20000000000005</ele>
<time>2023-05-18T13:02:27Z</time>
</trkpt>
<trkpt lat="49.31359198875725" lon="8.103356938809156">
<ele>421.4</ele>
<time>2023-05-18T13:02:28Z</time>
</trkpt>
<trkpt lat="49.31360498070717" lon="8.103479985147715">
<ele>420.4</ele>
<time>2023-05-18T13:02:29Z</time>
</trkpt>
<trkpt lat="49.31362492963672" lon="8.103604959324002">
<ele>419.6</ele>
<time>2023-05-18T13:02:30Z</time>
</trkpt>
<trkpt lat="49.31364797987044" lon="8.103731945157051">
<ele>418.79999999999995</ele>
<time>2023-05-18T13:02:31Z</time>
</trkpt>
<trkpt lat="49.313666922971606" lon="8.10385792516172">
<ele>417.79999999999995</ele>
<time>2023-05-18T13:02:32Z</time>
</trkpt>
<trkpt lat="49.31368192657828" lon="8.103982983157039">
<ele>417</ele>
<time>2023-05-18T13:02:33Z</time>
</trkpt>
<trkpt lat="49.31369793601334" lon="8.104097982868552">
<ele>416.20000000000005</ele>
<time>2023-05-18T13:02:34Z</time>
</trkpt>
<trkpt lat="49.31368997320533" lon="8.104187920689583">
<ele>415.4</ele>
<time>2023-05-18T13:02:35Z</time>
</trkpt>
<trkpt lat="49.31369299069047" lon="8.104302920401096">
<ele>414.6</ele>
<time>2023-05-18T13:02:36Z</time>
</trkpt>
<trkpt lat="49.31369299069047" lon="8.104419931769371">
<ele>413.79999999999995</ele>
<time>2023-05-18T13:02:37Z</time>
</trkpt>
<trkpt lat="49.313682932406664" lon="8.104534931480885">
<ele>413.20000000000005</ele>
<time>2023-05-18T13:02:38Z</time>
</trkpt>
<trkpt lat="49.31367496959865" lon="8.104644985869527">
<ele>412.4</ele>
<time>2023-05-18T13:02:39Z</time>
</trkpt>
<trkpt lat="49.31367295794189" lon="8.104746993631124">
<ele>411.79999999999995</ele>
<time>2023-05-18T13:02:40Z</time>
</trkpt>
<trkpt lat="49.313679998740554" lon="8.104849923402071">
<ele>411.20000000000005</ele>
<time>2023-05-18T13:02:41Z</time>
</trkpt>
<trkpt lat="49.3136949185282" lon="8.104942962527275">
<ele>410.6</ele>
<time>2023-05-18T13:02:42Z</time>
</trkpt>
<trkpt lat="49.31371293962002" lon="8.105047987774014">
<ele>409.79999999999995</ele>
<time>2023-05-18T13:02:43Z</time>
</trkpt>
<trkpt lat="49.31373699568212" lon="8.10514496639371">
<ele>409.20000000000005</ele>
<time>2023-05-18T13:02:44Z</time>
</trkpt>
<trkpt lat="49.31376197375357" lon="8.105237921699882">
<ele>408.6</ele>
<time>2023-05-18T13:02:45Z</time>
</trkpt>
<trkpt lat="49.313791980966926" lon="8.10533992946148">
<ele>407.79999999999995</ele>
<time>2023-05-18T13:02:46Z</time>
</trkpt>
<trkpt lat="49.31380991823971" lon="8.105441937223077">
<ele>407.20000000000005</ele>
<time>2023-05-18T13:02:47Z</time>
</trkpt>
<trkpt lat="49.31382995098829" lon="8.105542939156294">
<ele>406.4</ele>
<time>2023-05-18T13:02:48Z</time>
</trkpt>
<trkpt lat="49.31384294293821" lon="8.105654921382666">
<ele>405.79999999999995</ele>
<time>2023-05-18T13:02:49Z</time>
</trkpt>
<trkpt lat="49.31384294293821" lon="8.10576992109418">
<ele>405.20000000000005</ele>
<time>2023-05-18T13:02:50Z</time>
</trkpt>
<trkpt lat="49.31383799761534" lon="8.105887938290834">
<ele>404.4</ele>
<time>2023-05-18T13:02:51Z</time>
</trkpt>
<trkpt lat="49.31382198818028" lon="8.10600494965911">
<ele>403.79999999999995</ele>
<time>2023-05-18T13:02:52Z</time>
</trkpt>
<trkpt lat="49.3138069845736" lon="8.10611492022872">
<ele>403</ele>
<time>2023-05-18T13:02:53Z</time>
</trkpt>
<trkpt lat="49.31378192268312" lon="8.106231931596994">
<ele>402.4</ele>
<time>2023-05-18T13:02:54Z</time>
</trkpt>
<trkpt lat="49.3137519992888" lon="8.106339974328876">
<ele>401.6</ele>
<time>2023-05-18T13:02:55Z</time>
</trkpt>
<trkpt lat="49.31372199207544" lon="8.106442987918854">
<ele>401</ele>
<time>2023-05-18T13:02:56Z</time>
</trkpt>
<trkpt lat="49.31369198486209" lon="8.106562932953238">
<ele>400.20000000000005</ele>
<time>2023-05-18T13:02:57Z</time>
</trkpt>
<trkpt lat="49.313662983477116" lon="8.106666952371597">
<ele>399.6</ele>
<time>2023-05-18T13:02:58Z</time>
</trkpt>
<trkpt lat="49.31363197043538" lon="8.106762925162911">
<ele>398.79999999999995</ele>
<time>2023-05-18T13:02:59Z</time>
</trkpt>
<trkpt lat="49.31359198875725" lon="8.106857975944877">
<ele>398.20000000000005</ele>
<time>2023-05-18T13:03:00Z</time>
</trkpt>
<trkpt lat="49.3135479837656" lon="8.10695193707943">
<ele>397.4</ele>
<time>2023-05-18T13:03:01Z</time>
</trkpt>
<trkpt lat="49.313512947410345" lon="8.107042964547873">
<ele>396.6</ele>
<time>2023-05-18T13:03:02Z</time>
</trkpt>
<trkpt lat="49.31347296573222" lon="8.107137931510806">
<ele>396</ele>
<time>2023-05-18T13:03:03Z</time>
</trkpt>
<trkpt lat="49.31342996656895" lon="8.10722996480763">
<ele>395.20000000000005</ele>
<time>2023-05-18T13:03:04Z</time>
</trkpt>
<trkpt lat="49.31338696740568" lon="8.107309928163886">
<ele>394.6</ele>
<time>2023-05-18T13:03:05Z</time>
</trkpt>
<trkpt lat="49.313342962414026" lon="8.107391986995935">
<ele>394</ele>
<time>2023-05-18T13:03:06Z</time>
</trkpt>
<trkpt lat="49.313297951593995" lon="8.107466921210289">
<ele>393.20000000000005</ele>
<time>2023-05-18T13:03:07Z</time>
</trkpt>
<trkpt lat="49.31325193494558" lon="8.107534982264042">
<ele>392.6</ele>
<time>2023-05-18T13:03:08Z</time>
</trkpt>
<trkpt lat="49.31320298463106" lon="8.107599942013621">
<ele>391.79999999999995</ele>
<time>2023-05-18T13:03:09Z</time>
</trkpt>
<trkpt lat="49.31315193884075" lon="8.107667919248343">
<ele>391</ele>
<time>2023-05-18T13:03:10Z</time>
</trkpt>
<trkpt lat="49.31308999657631" lon="8.107734974473715">
<ele>390.4</ele>
<time>2023-05-18T13:03:11Z</time>
</trkpt>
<trkpt lat="49.31303492747247" lon="8.107796916738153">
<ele>389.6</ele>
<time>2023-05-18T13:03:12Z</time>
</trkpt>
<trkpt lat="49.312972985208035" lon="8.10785198584199">
<ele>389</ele>
<time>2023-05-18T13:03:13Z</time>
</trkpt>
<trkpt lat="49.312911964952946" lon="8.107902947813272">
<ele>388.20000000000005</ele>
<time>2023-05-18T13:03:14Z</time>
</trkpt>
<trkpt lat="49.31284197606146" lon="8.107959944754839">
<ele>387.6</ele>
<time>2023-05-18T13:03:15Z</time>
</trkpt>
<trkpt lat="49.312779949977994" lon="8.108001938089728">
<ele>387</ele>
<time>2023-05-18T13:03:16Z</time>
</trkpt>
<trkpt lat="49.312714990228415" lon="8.108032951131463">
<ele>386.20000000000005</ele>
<time>2023-05-18T13:03:17Z</time>
</trkpt>
<trkpt lat="49.31264692917466" lon="8.108052983880043">
<ele>385.6</ele>
<time>2023-05-18T13:03:18Z</time>
</trkpt>
<trkpt lat="49.31255196221173" lon="8.108057929202914">
<ele>384.79999999999995</ele>
<time>2023-05-18T13:03:19Z</time>
</trkpt>
<trkpt lat="49.31244693696499" lon="8.108072932809591">
<ele>384.20000000000005</ele>
<time>2023-05-18T13:03:20Z</time>
</trkpt>
<trkpt lat="49.312372924759984" lon="8.108074944466352">
<ele>383.4</ele>
<time>2023-05-18T13:03:21Z</time>
</trkpt>
<trkpt lat="49.31230494752526" lon="8.108072932809591">
<ele>382.79999999999995</ele>
<time>2023-05-18T13:03:22Z</time>
</trkpt>
<trkpt lat="49.31223697029054" lon="8.10806698165834">
<ele>382</ele>
<time>2023-05-18T13:03:23Z</time>
</trkpt>
<trkpt lat="49.31216798722744" lon="8.108049966394901">
<ele>381.4</ele>
<time>2023-05-18T13:03:24Z</time>
</trkpt>
<trkpt lat="49.312094980850816" lon="8.10802498832345">
<ele>380.79999999999995</ele>
<time>2023-05-18T13:03:25Z</time>
</trkpt>
<trkpt lat="49.31202197447419" lon="8.107986934483051">
<ele>380</ele>
<time>2023-05-18T13:03:26Z</time>
</trkpt>
<trkpt lat="49.311944944784045" lon="8.1079429294914">
<ele>379.4</ele>
<time>2023-05-18T13:03:27Z</time>
</trkpt>
<trkpt lat="49.31185492314398" lon="8.107884926721454">
<ele>378.79999999999995</ele>
<time>2023-05-18T13:03:28Z</time>
</trkpt>
<trkpt lat="49.311771942302585" lon="8.10783195309341">
<ele>378.20000000000005</ele>
<time>2023-05-18T13:03:29Z</time>
</trkpt>
<trkpt lat="49.31169499643147" lon="8.107777973636985">
<ele>377.6</ele>
<time>2023-05-18T13:03:30Z</time>
</trkpt>
<trkpt lat="49.31161494925618" lon="8.107734974473715">
<ele>376.79999999999995</ele>
<time>2023-05-18T13:03:31Z</time>
</trkpt>
<trkpt lat="49.31155292317271" lon="8.107697926461697">
<ele>376.20000000000005</ele>
<time>2023-05-18T13:03:32Z</time>
</trkpt>
<trkpt lat="49.31150296702981" lon="8.107656938955188">
<ele>375.6</ele>
<time>2023-05-18T13:03:33Z</time>
</trkpt>
<trkpt lat="49.311452927067876" lon="8.10759692452848">
<ele>375</ele>
<time>2023-05-18T13:03:34Z</time>
</trkpt>
<trkpt lat="49.31141193956137" lon="8.107522996142507">
<ele>374.4</ele>
<time>2023-05-18T13:03:35Z</time>
</trkpt>
<trkpt lat="49.31137497536838" lon="8.107439931482077">
<ele>374</ele>
<time>2023-05-18T13:03:36Z</time>
</trkpt>
<trkpt lat="49.31134697981179" lon="8.10733993537724">
<ele>373.4</ele>
<time>2023-05-18T13:03:37Z</time>
</trkpt>
<trkpt lat="49.31132996454835" lon="8.107239939272404">
<ele>372.79999999999995</ele>
<time>2023-05-18T13:03:38Z</time>
</trkpt>
<trkpt lat="49.31130699813366" lon="8.107131980359554">
<ele>372.20000000000005</ele>
<time>2023-05-18T13:03:39Z</time>
</trkpt>
<trkpt lat="49.31129199452698" lon="8.107031984254718">
<ele>371.4</ele>
<time>2023-05-18T13:03:40Z</time>
</trkpt>
<trkpt lat="49.311276990920305" lon="8.10692997649312">
<ele>370.79999999999995</ele>
<time>2023-05-18T13:03:41Z</time>
</trkpt>
<trkpt lat="49.3112669326365" lon="8.106831992045045">
<ele>370.20000000000005</ele>
<time>2023-05-18T13:03:42Z</time>
</trkpt>
<trkpt lat="49.31126299314201" lon="8.106727972626686">
<ele>369.6</ele>
<time>2023-05-18T13:03:43Z</time>
</trkpt>
<trkpt lat="49.31126995012164" lon="8.106622947379947">
<ele>368.79999999999995</ele>
<time>2023-05-18T13:03:44Z</time>
</trkpt>
<trkpt lat="49.31128495372832" lon="8.10652295127511">
<ele>368.20000000000005</ele>
<time>2023-05-18T13:03:45Z</time>
</trkpt>
<trkpt lat="49.3113049864769" lon="8.106427984312177">
<ele>367.6</ele>
<time>2023-05-18T13:03:46Z</time>
</trkpt>
<trkpt lat="49.31133197620511" lon="8.106332933530211">
<ele>367</ele>
<time>2023-05-18T13:03:47Z</time>
</trkpt>
<trkpt lat="49.31136793456972" lon="8.106239978224039">
<ele>366.4</ele>
<time>2023-05-18T13:03:48Z</time>
</trkpt>
<trkpt lat="49.31141193956137" lon="8.106151968240738">
<ele>365.79999999999995</ele>
<time>2023-05-18T13:03:49Z</time>
</trkpt>
<trkpt lat="49.31146692484617" lon="8.10606999322772">
<ele>365.20000000000005</ele>
<time>2023-05-18T13:03:50Z</time>
</trkpt>
<trkpt lat="49.31151998229325" lon="8.105987934395671">
<ele>364.6</ele>
<time>2023-05-18T13:03:51Z</time>
</trkpt>
<trkpt lat="49.31157195009291" lon="8.105904953554273">
<ele>364</ele>
<time>2023-05-18T13:03:52Z</time>
</trkpt>
<trkpt lat="49.311622995883226" lon="8.105816943570971">
<ele>363.4</ele>
<time>2023-05-18T13:03:53Z</time>
</trkpt>
<trkpt lat="49.31166993454099" lon="8.10572692193091">
<ele>362.79999999999995</ele>
<time>2023-05-18T13:03:54Z</time>
</trkpt>
<trkpt lat="49.311711927875876" lon="8.105629943311214">
<ele>362</ele>
<time>2023-05-18T13:03:55Z</time>
</trkpt>
<trkpt lat="49.311749981716275" lon="8.105526929721236">
<ele>361.4</ele>
<time>2023-05-18T13:03:56Z</time>
</trkpt>
<trkpt lat="49.31178694590926" lon="8.105419976636767">
<ele>360.79999999999995</ele>
<time>2023-05-18T13:03:57Z</time>
</trkpt>
<trkpt lat="49.31181997060776" lon="8.10531696304679">
<ele>360.20000000000005</ele>
<time>2023-05-18T13:03:58Z</time>
</trkpt>
<trkpt lat="49.31185299530625" lon="8.10521193780005">
<ele>359.6</ele>
<time>2023-05-18T13:03:59Z</time>
</trkpt>
<trkpt lat="49.311882918700576" lon="8.105109930038452">
<ele>358.79999999999995</ele>
<time>2023-05-18T13:04:00Z</time>
</trkpt>
<trkpt lat="49.31191292591393" lon="8.105004988610744">
<ele>358.20000000000005</ele>
<time>2023-05-18T13:04:01Z</time>
</trkpt>
<trkpt lat="49.31193295866251" lon="8.104901975020766">
<ele>357.6</ele>
<time>2023-05-18T13:04:02Z</time>
</trkpt>
<trkpt lat="49.31195299141109" lon="8.104786975309253">
<ele>357</ele>
<time>2023-05-18T13:04:03Z</time>
</trkpt>
<trkpt lat="49.3119749519974" lon="8.104667952284217">
<ele>356.6</ele>
<time>2023-05-18T13:04:04Z</time>
</trkpt>
<trkpt lat="49.31199196726084" lon="8.104549935087562">
<ele>356</ele>
<time>2023-05-18T13:04:05Z</time>
</trkpt>
<trkpt lat="49.31199993006885" lon="8.104422949254513">
<ele>355.4</ele>
<time>2023-05-18T13:04:06Z</time>
</trkpt>
<trkpt lat="49.312007976695895" lon="8.104301998391747">
<ele>354.79999999999995</ele>
<time>2023-05-18T13:04:07Z</time>
</trkpt>
<trkpt lat="49.312012922018766" lon="8.104176940396428">
<ele>354.20000000000005</ele>
<time>2023-05-18T13:04:08Z</time>
</trkpt>
<trkpt lat="49.312012922018766" lon="8.104059929028153">
<ele>353.4</ele>
<time>2023-05-18T13:04:09Z</time>
</trkpt>
<trkpt lat="49.312009988352656" lon="8.103937972337008">
<ele>352.79999999999995</ele>
<time>2023-05-18T13:04:10Z</time>
</trkpt>
<trkpt lat="49.31200294755399" lon="8.103807969018817">
<ele>352.20000000000005</ele>
<time>2023-05-18T13:04:11Z</time>
</trkpt>
<trkpt lat="49.31199699640274" lon="8.10368693433702">
<ele>351.6</ele>
<time>2023-05-18T13:04:12Z</time>
</trkpt>
<trkpt lat="49.31198199279606" lon="8.103561960160732">
<ele>350.79999999999995</ele>
<time>2023-05-18T13:04:13Z</time>
</trkpt>
<trkpt lat="49.3119749519974" lon="8.10342994518578">
<ele>350.20000000000005</ele>
<time>2023-05-18T13:04:14Z</time>
</trkpt>
<trkpt lat="49.311969922855496" lon="8.103292984887958">
<ele>349.6</ele>
<time>2023-05-18T13:04:15Z</time>
</trkpt>
<trkpt lat="49.311962965875864" lon="8.103162981569767">
<ele>348.79999999999995</ele>
<time>2023-05-18T13:04:16Z</time>
</trkpt>
<trkpt lat="49.31195793673396" lon="8.103037923574448">
<ele>348</ele>
<time>2023-05-18T13:04:17Z</time>
</trkpt>
<trkpt lat="49.311946956440806" lon="8.102914961054921">
<ele>347.4</ele>
<time>2023-05-18T13:04:18Z</time>
</trkpt>
<trkpt lat="49.31192994117737" lon="8.10278294607997">
<ele>346.6</ele>
<time>2023-05-18T13:04:19Z</time>
</trkpt>
<trkpt lat="49.31191493757069" lon="8.102651936933398">
<ele>345.79999999999995</ele>
<time>2023-05-18T13:04:20Z</time>
</trkpt>
<trkpt lat="49.311902951449156" lon="8.10252696275711">
<ele>345.20000000000005</ele>
<time>2023-05-18T13:04:21Z</time>
</trkpt>
<trkpt lat="49.31189498864114" lon="8.102394947782159">
<ele>344.4</ele>
<time>2023-05-18T13:04:22Z</time>
</trkpt>
<trkpt lat="49.31188493035734" lon="8.102259999141097">
<ele>343.6</ele>
<time>2023-05-18T13:04:23Z</time>
</trkpt>
<trkpt lat="49.31187193840742" lon="8.102129995822906">
<ele>342.79999999999995</ele>
<time>2023-05-18T13:04:24Z</time>
</trkpt>
<trkpt lat="49.31186296977103" lon="8.102011978626251">
<ele>342.20000000000005</ele>
<time>2023-05-18T13:04:25Z</time>
</trkpt>
<trkpt lat="49.31185492314398" lon="8.101892955601215">
<ele>341.4</ele>
<time>2023-05-18T13:04:26Z</time>
</trkpt>
<trkpt lat="49.311839919537306" lon="8.101777955889702">
<ele>340.6</ele>
<time>2023-05-18T13:04:27Z</time>
</trkpt>
<trkpt lat="49.31182499974966" lon="8.101662956178188">
<ele>339.79999999999995</ele>
<time>2023-05-18T13:04:28Z</time>
</trkpt>
<trkpt lat="49.31180999614298" lon="8.101546950638294">
<ele>339.20000000000005</ele>
<time>2023-05-18T13:04:29Z</time>
</trkpt>
<trkpt lat="49.31178795173764" lon="8.101439997553825">
<ele>338.6</ele>
<time>2023-05-18T13:04:30Z</time>
</trkpt>
<trkpt lat="49.31176297366619" lon="8.101332960650325">
<ele>337.79999999999995</ele>
<time>2023-05-18T13:04:31Z</time>
</trkpt>
<trkpt lat="49.31174696423113" lon="8.10123497620225">
<ele>337.20000000000005</ele>
<time>2023-05-18T13:04:32Z</time>
</trkpt>
<trkpt lat="49.31173296645284" lon="8.101142942905426">
<ele>336.6</ele>
<time>2023-05-18T13:04:33Z</time>
</trkpt>
<trkpt lat="49.31172693148255" lon="8.101057950407267">
<ele>336</ele>
<time>2023-05-18T13:04:34Z</time>
</trkpt>
<trkpt lat="49.31171796284616" lon="8.100979998707771">
<ele>335.4</ele>
<time>2023-05-18T13:04:35Z</time>
</trkpt>
<trkpt lat="49.311709916219115" lon="8.100897939875722">
<ele>335</ele>
<time>2023-05-18T13:04:36Z</time>
</trkpt>
<trkpt lat="49.31170295923948" lon="8.100824933499098">
<ele>334.4</ele>
<time>2023-05-18T13:04:37Z</time>
</trkpt>
<trkpt lat="49.31169298477471" lon="8.100752932950854">
<ele>334</ele>
<time>2023-05-18T13:04:38Z</time>
</trkpt>
<trkpt lat="49.31167798116803" lon="8.100692918524146">
<ele>333.6</ele>
<time>2023-05-18T13:04:39Z</time>
</trkpt>
<trkpt lat="49.31165493093431" lon="8.100639944896102">
<ele>333.20000000000005</ele>
<time>2023-05-18T13:04:40Z</time>
</trkpt>
<trkpt lat="49.311622995883226" lon="8.100609937682748">
<ele>333</ele>
<time>2023-05-18T13:04:41Z</time>
</trkpt>
<trkpt lat="49.31158695369959" lon="8.100604992359877">
<ele>332.6</ele>
<time>2023-05-18T13:04:42Z</time>
</trkpt>
<trkpt lat="49.311557952314615" lon="8.100626952946186">
<ele>332.20000000000005</ele>
<time>2023-05-18T13:04:43Z</time>
</trkpt>
<trkpt lat="49.311534985899925" lon="8.100669952109456">
<ele>332</ele>
<time>2023-05-18T13:04:44Z</time>
</trkpt>
<trkpt lat="49.311516964808106" lon="8.100724937394261">
<ele>331.6</ele>
<time>2023-05-18T13:04:45Z</time>
</trkpt>
<trkpt lat="49.31150296702981" lon="8.100789980962873">
<ele>331.4</ele>
<time>2023-05-18T13:04:46Z</time>
</trkpt>
<trkpt lat="49.311491986736655" lon="8.100859969854355">
<ele>331</ele>
<time>2023-05-18T13:04:47Z</time>
</trkpt>
<trkpt lat="49.31149793788791" lon="8.100949991494417">
<ele>330.79999999999995</ele>
<time>2023-05-18T13:04:48Z</time>
</trkpt>
<trkpt lat="49.31149994954467" lon="8.101051999256015">
<ele>330.4</ele>
<time>2023-05-18T13:04:49Z</time>
</trkpt>
<trkpt lat="49.311491986736655" lon="8.1011529173702">
<ele>330</ele>
<time>2023-05-18T13:04:50Z</time>
</trkpt>
<trkpt lat="49.31148293428123" lon="8.1012599542737">
<ele>329.6</ele>
<time>2023-05-18T13:04:51Z</time>
</trkpt>
<trkpt lat="49.31146793067455" lon="8.101366991177201">
<ele>329.20000000000005</ele>
<time>2023-05-18T13:04:52Z</time>
</trkpt>
<trkpt lat="49.311447981745005" lon="8.101466987282038">
<ele>328.79999999999995</ele>
<time>2023-05-18T13:04:53Z</time>
</trkpt>
<trkpt lat="49.31141797453165" lon="8.101557930931449">
<ele>328.4</ele>
<time>2023-05-18T13:04:54Z</time>
</trkpt>
<trkpt lat="49.311384949833155" lon="8.101651975885034">
<ele>327.79999999999995</ele>
<time>2023-05-18T13:04:55Z</time>
</trkpt>
<trkpt lat="49.3113549426198" lon="8.101747948676348">
<ele>327.4</ele>
<time>2023-05-18T13:04:56Z</time>
</trkpt>
<trkpt lat="49.31131697259843" lon="8.101831935346127">
<ele>326.79999999999995</ele>
<time>2023-05-18T13:04:57Z</time>
</trkpt>
<trkpt lat="49.311277996748686" lon="8.101911982521415">
<ele>326.20000000000005</ele>
<time>2023-05-18T13:04:58Z</time>
</trkpt>
<trkpt lat="49.31124296039343" lon="8.101994963362813">
<ele>325.6</ele>
<time>2023-05-18T13:04:59Z</time>
</trkpt>
<trkpt lat="49.311211947351694" lon="8.102082973346114">
<ele>325</ele>
<time>2023-05-18T13:05:00Z</time>
</trkpt>
<trkpt lat="49.31117992848158" lon="8.10218196362257">
<ele>324.4</ele>
<time>2023-05-18T13:05:01Z</time>
</trkpt>
<trkpt lat="49.311149921268225" lon="8.102284977212548">
<ele>324</ele>
<time>2023-05-18T13:05:02Z</time>
</trkpt>
<trkpt lat="49.31112293154001" lon="8.102401988580823">
<ele>323.4</ele>
<time>2023-05-18T13:05:03Z</time>
</trkpt>
<trkpt lat="49.31109493598342" lon="8.102516988292336">
<ele>322.79999999999995</ele>
<time>2023-05-18T13:05:04Z</time>
</trkpt>
<trkpt lat="49.31106694042683" lon="8.10263492166996">
<ele>322.20000000000005</ele>
<time>2023-05-18T13:05:05Z</time>
</trkpt>
<trkpt lat="49.31103693321347" lon="8.102757968008518">
<ele>321.4</ele>
<time>2023-05-18T13:05:06Z</time>
</trkpt>
<trkpt lat="49.31100994348526" lon="8.102876991033554">
<ele>320.79999999999995</ele>
<time>2023-05-18T13:05:07Z</time>
</trkpt>
<trkpt lat="49.310974990949035" lon="8.102991990745068">
<ele>320</ele>
<time>2023-05-18T13:05:08Z</time>
</trkpt>
<trkpt lat="49.31092796847224" lon="8.103097938001156">
<ele>319.20000000000005</ele>
<time>2023-05-18T13:05:09Z</time>
</trkpt>
<trkpt lat="49.310869965702295" lon="8.103197934105992">
<ele>318.4</ele>
<time>2023-05-18T13:05:10Z</time>
</trkpt>
<trkpt lat="49.310804922133684" lon="8.103289967402816">
<ele>317.6</ele>
<time>2023-05-18T13:05:11Z</time>
</trkpt>
<trkpt lat="49.31074297986925" lon="8.103379989042878">
<ele>316.6</ele>
<time>2023-05-18T13:05:12Z</time>
</trkpt>
<trkpt lat="49.31068195961416" lon="8.103474956005812">
<ele>315.79999999999995</ele>
<time>2023-05-18T13:05:13Z</time>
</trkpt>
<trkpt lat="49.310611970722675" lon="8.103569922968745">
<ele>315</ele>
<time>2023-05-18T13:05:14Z</time>
</trkpt>
<trkpt lat="49.31054198183119" lon="8.103666985407472">
<ele>314.20000000000005</ele>
<time>2023-05-18T13:05:15Z</time>
</trkpt>
<trkpt lat="49.31047299876809" lon="8.103767987340689">
<ele>313.4</ele>
<time>2023-05-18T13:05:16Z</time>
</trkpt>
<trkpt lat="49.31040292605758" lon="8.103869995102286">
<ele>312.4</ele>
<time>2023-05-18T13:05:17Z</time>
</trkpt>
<trkpt lat="49.310332937166095" lon="8.103972924873233">
<ele>311.6</ele>
<time>2023-05-18T13:05:18Z</time>
</trkpt>
<trkpt lat="49.310264959931374" lon="8.104082979261875">
<ele>310.6</ele>
<time>2023-05-18T13:05:19Z</time>
</trkpt>
<trkpt lat="49.31019497103989" lon="8.10420292429626">
<ele>309.4</ele>
<time>2023-05-18T13:05:20Z</time>
</trkpt>
<trkpt lat="49.31012799963355" lon="8.10433192178607">
<ele>308.4</ele>
<time>2023-05-18T13:05:21Z</time>
</trkpt>
<trkpt lat="49.31006295606494" lon="8.104459997266531">
<ele>307.20000000000005</ele>
<time>2023-05-18T13:05:22Z</time>
</trkpt>
<trkpt lat="49.31000294163823" lon="8.104594945907593">
<ele>306.20000000000005</ele>
<time>2023-05-18T13:05:23Z</time>
</trkpt>
<trkpt lat="49.30995197966695" lon="8.104734923690557">
<ele>305.4</ele>
<time>2023-05-18T13:05:24Z</time>
</trkpt>
<trkpt lat="49.30990998633206" lon="8.104877918958664">
<ele>304.4</ele>
<time>2023-05-18T13:05:25Z</time>
</trkpt>
<trkpt lat="49.30986497551203" lon="8.105026949197054">
<ele>303.4</ele>
<time>2023-05-18T13:05:26Z</time>
</trkpt>
<trkpt lat="49.30982692167163" lon="8.105161981657147">
<ele>302.6</ele>
<time>2023-05-18T13:05:27Z</time>
</trkpt>
<trkpt lat="49.309791969135404" lon="8.10529693029821">
<ele>301.6</ele>
<time>2023-05-18T13:05:28Z</time>
</trkpt>
<trkpt lat="49.30975995026529" lon="8.105431962758303">
<ele>300.79999999999995</ele>
<time>2023-05-18T13:05:29Z</time>
</trkpt>
<trkpt lat="49.309732960537076" lon="8.105571940541267">
<ele>300</ele>
<time>2023-05-18T13:05:30Z</time>
</trkpt>
<trkpt lat="49.30970194749534" lon="8.1057049613446">
<ele>299.20000000000005</ele>
<time>2023-05-18T13:05:31Z</time>
</trkpt>
<trkpt lat="49.309667916968465" lon="8.105836976319551">
<ele>298.6</ele>
<time>2023-05-18T13:05:32Z</time>
</trkpt>
<trkpt lat="49.30963799357414" lon="8.105966979637742">
<ele>297.79999999999995</ele>
<time>2023-05-18T13:05:33Z</time>
</trkpt>
<trkpt lat="49.30961494334042" lon="8.106099916622043">
<ele>297.20000000000005</ele>
<time>2023-05-18T13:05:34Z</time>
</trkpt>
<trkpt lat="49.30959499441087" lon="8.106239978224039">
<ele>296.6</ele>
<time>2023-05-18T13:05:35Z</time>
</trkpt>
<trkpt lat="49.30956498719752" lon="8.106387918815017">
<ele>295.79999999999995</ele>
<time>2023-05-18T13:05:36Z</time>
</trkpt>
<trkpt lat="49.30952492170036" lon="8.106524962931871">
<ele>295.20000000000005</ele>
<time>2023-05-18T13:05:37Z</time>
</trkpt>
<trkpt lat="49.309497931972146" lon="8.106666952371597">
<ele>294.6</ele>
<time>2023-05-18T13:05:38Z</time>
</trkpt>
<trkpt lat="49.30947999469936" lon="8.106806930154562">
<ele>294</ele>
<time>2023-05-18T13:05:39Z</time>
</trkpt>
<trkpt lat="49.30946197360754" lon="8.106937939301133">
<ele>293.4</ele>
<time>2023-05-18T13:05:40Z</time>
</trkpt>
<trkpt lat="49.30944194085896" lon="8.107097949832678">
<ele>292.79999999999995</ele>
<time>2023-05-18T13:05:41Z</time>
</trkpt>
<trkpt lat="49.309427943080664" lon="8.107232982292771">
<ele>292.4</ele>
<time>2023-05-18T13:05:42Z</time>
</trkpt>
<trkpt lat="49.30941796861589" lon="8.107389975339174">
<ele>291.79999999999995</ele>
<time>2023-05-18T13:05:43Z</time>
</trkpt>
<trkpt lat="49.309407994151115" lon="8.10755199752748">
<ele>291.20000000000005</ele>
<time>2023-05-18T13:05:44Z</time>
</trkpt>
<trkpt lat="49.30939198471606" lon="8.10770496726036">
<ele>290.6</ele>
<time>2023-05-18T13:05:45Z</time>
</trkpt>
<trkpt lat="49.30937698110938" lon="8.107847962528467">
<ele>290</ele>
<time>2023-05-18T13:05:46Z</time>
</trkpt>
<trkpt lat="49.30934999138117" lon="8.107971930876374">
<ele>289.4</ele>
<time>2023-05-18T13:05:47Z</time>
</trkpt>
<trkpt lat="49.30933197028935" lon="8.108119955286384">
<ele>288.6</ele>
<time>2023-05-18T13:05:48Z</time>
</trkpt>
<trkpt lat="49.30930799804628" lon="8.108267979696393">
<ele>288</ele>
<time>2023-05-18T13:05:49Z</time>
</trkpt>
<trkpt lat="49.309276985004544" lon="8.108426984399557">
<ele>287.20000000000005</ele>
<time>2023-05-18T13:05:50Z</time>
</trkpt>
<trkpt lat="49.30924295447767" lon="8.108571991324425">
<ele>286.4</ele>
<time>2023-05-18T13:05:51Z</time>
</trkpt>
<trkpt lat="49.30920791812241" lon="8.108719931915402">
<ele>285.79999999999995</ele>
<time>2023-05-18T13:05:52Z</time>
</trkpt>
<trkpt lat="49.30916793644428" lon="8.108867956325412">
<ele>285</ele>
<time>2023-05-18T13:05:53Z</time>
</trkpt>
<trkpt lat="49.30913792923093" lon="8.109007934108377">
<ele>284.4</ele>
<time>2023-05-18T13:05:54Z</time>
</trkpt>
<trkpt lat="49.30910197086632" lon="8.109147995710373">
<ele>283.79999999999995</ele>
<time>2023-05-18T13:05:55Z</time>
</trkpt>
<trkpt lat="49.309062995016575" lon="8.109297947958112">
<ele>283</ele>
<time>2023-05-18T13:05:56Z</time>
</trkpt>
<trkpt lat="49.30902997031808" lon="8.109446978196502">
<ele>282.4</ele>
<time>2023-05-18T13:05:57Z</time>
</trkpt>
<trkpt lat="49.30899493396282" lon="8.109584944322705">
<ele>281.79999999999995</ele>
<time>2023-05-18T13:05:58Z</time>
</trkpt>
<trkpt lat="49.30896794423461" lon="8.109731962904334">
<ele>281</ele>
<time>2023-05-18T13:05:59Z</time>
</trkpt>
<trkpt lat="49.30894296616316" lon="8.10987294651568">
<ele>280</ele>
<time>2023-05-18T13:06:00Z</time>
</trkpt>
<trkpt lat="49.30891999974847" lon="8.110019965097308">
<ele>279.20000000000005</ele>
<time>2023-05-18T13:06:01Z</time>
</trkpt>
<trkpt lat="49.30890499614179" lon="8.110161954537034">
<ele>278.20000000000005</ele>
<time>2023-05-18T13:06:02Z</time>
</trkpt>
<trkpt lat="49.308889992535114" lon="8.110299920663238">
<ele>277.4</ele>
<time>2023-05-18T13:06:03Z</time>
</trkpt>
<trkpt lat="49.30886199697852" lon="8.110441993921995">
<ele>276.6</ele>
<time>2023-05-18T13:06:04Z</time>
</trkpt>
<trkpt lat="49.30883693508804" lon="8.110597981140018">
<ele>275.79999999999995</ele>
<time>2023-05-18T13:06:05Z</time>
</trkpt>
<trkpt lat="49.3088199198246" lon="8.110751956701279">
<ele>275</ele>
<time>2023-05-18T13:06:06Z</time>
</trkpt>
<trkpt lat="49.30879795923829" lon="8.110894951969385">
<ele>274</ele>
<time>2023-05-18T13:06:07Z</time>
</trkpt>
<trkpt lat="49.30877197533846" lon="8.111044988036156">
<ele>273.20000000000005</ele>
<time>2023-05-18T13:06:08Z</time>
</trkpt>
<trkpt lat="49.308742973953485" lon="8.111192928627133">
<ele>272.20000000000005</ele>
<time>2023-05-18T13:06:09Z</time>
</trkpt>
<trkpt lat="49.30871497839689" lon="8.111352939158678">
<ele>271.4</ele>
<time>2023-05-18T13:06:10Z</time>
</trkpt>
<trkpt lat="49.30867197923362" lon="8.111489983275533">
<ele>270.6</ele>
<time>2023-05-18T13:06:11Z</time>
</trkpt>
<trkpt lat="49.30862294510007" lon="8.11163691803813">
<ele>269.6</ele>
<time>2023-05-18T13:06:12Z</time>
</trkpt>
<trkpt lat="49.30856695398688" lon="8.111792989075184">
<ele>268.79999999999995</ele>
<time>2023-05-18T13:06:13Z</time>
</trkpt>
<trkpt lat="49.30851791985333" lon="8.111926931887865">
<ele>267.79999999999995</ele>
<time>2023-05-18T13:06:14Z</time>
</trkpt>
<trkpt lat="49.30846997536719" lon="8.112076967954636">
<ele>266.79999999999995</ele>
<time>2023-05-18T13:06:15Z</time>
</trkpt>
<trkpt lat="49.30841691792011" lon="8.1122169457376">
<ele>265.79999999999995</ele>
<time>2023-05-18T13:06:16Z</time>
</trkpt>
<trkpt lat="49.30836495012045" lon="8.112372932955623">
<ele>264.79999999999995</ele>
<time>2023-05-18T13:06:17Z</time>
</trkpt>
<trkpt lat="49.30832195095718" lon="8.112531937658787">
<ele>263.79999999999995</ele>
<time>2023-05-18T13:06:18Z</time>
</trkpt>
<trkpt lat="49.308291943743825" lon="8.11266697011888">
<ele>263</ele>
<time>2023-05-18T13:06:19Z</time>
</trkpt>
<trkpt lat="49.308272916823626" lon="8.11281993985176">
<ele>262</ele>
<time>2023-05-18T13:06:20Z</time>
</trkpt>
<trkpt lat="49.3082519620657" lon="8.112969975918531">
<ele>261</ele>
<time>2023-05-18T13:06:21Z</time>
</trkpt>
<trkpt lat="49.3082379642874" lon="8.113114982843399">
<ele>260.20000000000005</ele>
<time>2023-05-18T13:06:22Z</time>
</trkpt>
<trkpt lat="49.3082329351455" lon="8.113252948969603">
<ele>259.20000000000005</ele>
<time>2023-05-18T13:06:23Z</time>
</trkpt>
<trkpt lat="49.30823494680226" lon="8.113392926752567">
<ele>258.4</ele>
<time>2023-05-18T13:06:24Z</time>
</trkpt>
<trkpt lat="49.30823695845902" lon="8.113522930070758">
<ele>257.6</ele>
<time>2023-05-18T13:06:25Z</time>
</trkpt>
<trkpt lat="49.30823997594416" lon="8.113644970580935">
<ele>256.79999999999995</ele>
<time>2023-05-18T13:06:26Z</time>
</trkpt>
<trkpt lat="49.30824198760092" lon="8.113766927272081">
<ele>256.20000000000005</ele>
<time>2023-05-18T13:06:27Z</time>
</trkpt>
<trkpt lat="49.3082429934293" lon="8.113882932811975">
<ele>255.60000000000002</ele>
<time>2023-05-18T13:06:28Z</time>
</trkpt>
<trkpt lat="49.30824492126703" lon="8.113992987200618">
<ele>254.79999999999995</ele>
<time>2023-05-18T13:06:29Z</time>
</trkpt>
<trkpt lat="49.308246932923794" lon="8.114097928628325">
<ele>254.20000000000005</ele>
<time>2023-05-18T13:06:30Z</time>
</trkpt>
<trkpt lat="49.308246932923794" lon="8.114202953875065">
<ele>253.39999999999998</ele>
<time>2023-05-18T13:06:31Z</time>
</trkpt>
<trkpt lat="49.30823997594416" lon="8.114306973293424">
<ele>252.60000000000002</ele>
<time>2023-05-18T13:06:32Z</time>
</trkpt>
<trkpt lat="49.308227989822626" lon="8.11440797522664">
<ele>252</ele>
<time>2023-05-18T13:06:33Z</time>
</trkpt>
<trkpt lat="49.30821793153882" lon="8.114511994645">
<ele>251.39999999999998</ele>
<time>2023-05-18T13:06:34Z</time>
</trkpt>
<trkpt lat="49.308207957074046" lon="8.114612996578217">
<ele>250.60000000000002</ele>
<time>2023-05-18T13:06:35Z</time>
</trkpt>
<trkpt lat="49.30819496512413" lon="8.114711986854672">
<ele>250.20000000000005</ele>
<time>2023-05-18T13:06:36Z</time>
</trkpt>
<trkpt lat="49.30817996151745" lon="8.114809971302748">
<ele>249.60000000000002</ele>
<time>2023-05-18T13:06:37Z</time>
</trkpt>
<trkpt lat="49.30816696956754" lon="8.11490292660892">
<ele>249</ele>
<time>2023-05-18T13:06:38Z</time>
</trkpt>
<trkpt lat="49.308154983446" lon="8.114992948248982">
<ele>248.60000000000002</ele>
<time>2023-05-18T13:06:39Z</time>
</trkpt>
<trkpt lat="49.308144925162196" lon="8.115081964060664">
<ele>248</ele>
<time>2023-05-18T13:06:40Z</time>
</trkpt>
<trkpt lat="49.308137968182564" lon="8.115171985700727">
<ele>247.39999999999998</ele>
<time>2023-05-18T13:06:41Z</time>
</trkpt>
<trkpt lat="49.30813293904066" lon="8.115252954885364">
<ele>247</ele>
<time>2023-05-18T13:06:42Z</time>
</trkpt>
<trkpt lat="49.30812698788941" lon="8.115331996232271">
<ele>246.39999999999998</ele>
<time>2023-05-18T13:06:43Z</time>
</trkpt>
<trkpt lat="49.30812296457589" lon="8.115404918789864">
<ele>245.79999999999995</ele>
<time>2023-05-18T13:06:44Z</time>
</trkpt>
<trkpt lat="49.30812497623265" lon="8.115471974015236">
<ele>245.20000000000005</ele>
<time>2023-05-18T13:06:45Z</time>
</trkpt>
<trkpt lat="49.30812799371779" lon="8.115536933764815">
<ele>244.79999999999995</ele>
<time>2023-05-18T13:06:46Z</time>
</trkpt>
<trkpt lat="49.30812992155552" lon="8.115596948191524">
<ele>244.20000000000005</ele>
<time>2023-05-18T13:06:47Z</time>
</trkpt>
<trkpt lat="49.30813293904066" lon="8.11565293930471">
<ele>243.79999999999995</ele>
<time>2023-05-18T13:06:48Z</time>
</trkpt>
<trkpt lat="49.30813495069742" lon="8.115704990923405">
<ele>243.39999999999998</ele>
<time>2023-05-18T13:06:49Z</time>
</trkpt>
<trkpt lat="49.308137968182564" lon="8.115754947066307">
<ele>243</ele>
<time>2023-05-18T13:06:50Z</time>
</trkpt>
<trkpt lat="49.30814299732447" lon="8.115799957886338">
<ele>242.79999999999995</ele>
<time>2023-05-18T13:06:51Z</time>
</trkpt>
<trkpt lat="49.308141991496086" lon="8.115836922079325">
<ele>242.39999999999998</ele>
<time>2023-05-18T13:06:52Z</time>
</trkpt>
<trkpt lat="49.308139979839325" lon="8.11586994677782">
<ele>242.20000000000005</ele>
<time>2023-05-18T13:06:53Z</time>
</trkpt>
<trkpt lat="49.308139979839325" lon="8.115891991183162">
<ele>242</ele>
<time>2023-05-18T13:06:54Z</time>
</trkpt>
<trkpt lat="49.308139979839325" lon="8.115897942334414">
<ele>241.79999999999995</ele>
<time>2023-05-18T13:06:55Z</time>
</trkpt>
<trkpt lat="49.308139979839325" lon="8.115896936506033">
<ele>241.39999999999998</ele>
<time>2023-05-18T13:06:57Z</time>
</trkpt>
<trkpt lat="49.30812497623265" lon="8.115791995078325">
<ele>240.60000000000002</ele>
<time>2023-05-18T13:06:57Z</time>
</trkpt>
<trkpt lat="49.308121958747506" lon="8.115774979814887">
<ele>240.60000000000002</ele>
<time>2023-05-18T13:06:58Z</time>
</trkpt>
<trkpt lat="49.308117935433984" lon="8.115756958723068">
<ele>240.60000000000002</ele>
<time>2023-05-18T13:06:59Z</time>
</trkpt>
<trkpt lat="49.3081169296056" lon="8.115732986479998">
<ele>240.60000000000002</ele>
<time>2023-05-18T13:07:00Z</time>
</trkpt>
<trkpt lat="49.30811198428273" lon="8.115707924589515">
<ele>240.60000000000002</ele>
<time>2023-05-18T13:07:01Z</time>
</trkpt>
<trkpt lat="49.30810494348407" lon="8.115686969831586">
<ele>240.79999999999995</ele>
<time>2023-05-18T13:07:02Z</time>
</trkpt>
<trkpt lat="49.308094969019294" lon="8.115661991760135">
<ele>240.79999999999995</ele>
<time>2023-05-18T13:07:03Z</time>
</trkpt>
<trkpt lat="49.30808298289776" lon="8.11563491821289">
<ele>240.79999999999995</ele>
<time>2023-05-18T13:07:04Z</time>
</trkpt>
<trkpt lat="49.30806999094784" lon="8.115607928484678">
<ele>240.79999999999995</ele>
<time>2023-05-18T13:07:05Z</time>
</trkpt>
<trkpt lat="49.30805993266404" lon="8.115582950413227">
<ele>240.79999999999995</ele>
<time>2023-05-18T13:07:06Z</time>
</trkpt>
<trkpt lat="49.3080479465425" lon="8.115556966513395">
<ele>241</ele>
<time>2023-05-18T13:07:07Z</time>
</trkpt>
<trkpt lat="49.308032942935824" lon="8.115541962906718">
<ele>241</ele>
<time>2023-05-18T13:07:08Z</time>
</trkpt>
<trkpt lat="49.308014921844006" lon="8.115539951249957">
<ele>241</ele>
<time>2023-05-18T13:07:09Z</time>
</trkpt>
<trkpt lat="49.30799497291446" lon="8.11554498039186">
<ele>241</ele>
<time>2023-05-18T13:07:10Z</time>
</trkpt>
<trkpt lat="49.307969994843006" lon="8.115551937371492">
<ele>241</ele>
<time>2023-05-18T13:07:11Z</time>
</trkpt>
<trkpt lat="49.30794199928641" lon="8.115559983998537">
<ele>241</ele>
<time>2023-05-18T13:07:12Z</time>
</trkpt>
<trkpt lat="49.30791199207306" lon="8.11556794680655">
<ele>241</ele>
<time>2023-05-18T13:07:13Z</time>
</trkpt>
<trkpt lat="49.3078769557178" lon="8.115574987605214">
<ele>241</ele>
<time>2023-05-18T13:07:14Z</time>
</trkpt>
<trkpt lat="49.307842925190926" lon="8.115582950413227">
<ele>241</ele>
<time>2023-05-18T13:07:15Z</time>
</trkpt>
<trkpt lat="49.30781199596822" lon="8.11559191904962">
<ele>241</ele>
<time>2023-05-18T13:07:16Z</time>
</trkpt>
<trkpt lat="49.30778198875487" lon="8.115602983161807">
<ele>241</ele>
<time>2023-05-18T13:07:17Z</time>
</trkpt>
<trkpt lat="49.307754999026656" lon="8.115616980940104">
<ele>241</ele>
<time>2023-05-18T13:07:18Z</time>
</trkpt>
<trkpt lat="49.30772993713617" lon="8.11563198454678">
<ele>240.79999999999995</ele>
<time>2023-05-18T13:07:19Z</time>
</trkpt>
<trkpt lat="49.307707976549864" lon="8.115649921819568">
<ele>240.79999999999995</ele>
<time>2023-05-18T13:07:20Z</time>
</trkpt>
<trkpt lat="49.30769297294319" lon="8.115679929032922">
<ele>240.79999999999995</ele>
<time>2023-05-18T13:07:21Z</time>
</trkpt>
<trkpt lat="49.30768492631614" lon="8.115721922367811">
<ele>240.79999999999995</ele>
<time>2023-05-18T13:07:22Z</time>
</trkpt>
<trkpt lat="49.30768492631614" lon="8.115769950672984">
<ele>240.79999999999995</ele>
<time>2023-05-18T13:07:23Z</time>
</trkpt>
<trkpt lat="49.307689955458045" lon="8.115822924301028">
<ele>240.79999999999995</ele>
<time>2023-05-18T13:07:24Z</time>
</trkpt>
<trkpt lat="49.30769699625671" lon="8.115877993404865">
<ele>240.79999999999995</ele>
<time>2023-05-18T13:07:25Z</time>
</trkpt>
<trkpt lat="49.30770495906472" lon="8.115936918184161">
<ele>240.79999999999995</ele>
<time>2023-05-18T13:07:26Z</time>
</trkpt>
<trkpt lat="49.307712921872735" lon="8.115999950096011">
<ele>240.60000000000002</ele>
<time>2023-05-18T13:07:27Z</time>
</trkpt>
<trkpt lat="49.30772197432816" lon="8.116064993664622">
<ele>240.60000000000002</ele>
<time>2023-05-18T13:07:28Z</time>
</trkpt>
<trkpt lat="49.30772993713617" lon="8.116131965070963">
<ele>240.60000000000002</ele>
<time>2023-05-18T13:07:29Z</time>
</trkpt>
<trkpt lat="49.30773798376322" lon="8.116197930648923">
<ele>240.39999999999998</ele>
<time>2023-05-18T13:07:30Z</time>
</trkpt>
<trkpt lat="49.30774695239961" lon="8.116267919540405">
<ele>240.39999999999998</ele>
<time>2023-05-18T13:07:31Z</time>
</trkpt>
<trkpt lat="49.307754999026656" lon="8.116339920088649">
<ele>240.39999999999998</ele>
<time>2023-05-18T13:07:32Z</time>
</trkpt>
<trkpt lat="49.30776296183467" lon="8.116414938122034">
<ele>240.20000000000005</ele>
<time>2023-05-18T13:07:33Z</time>
</trkpt>
<trkpt lat="49.30777193047106" lon="8.11648995615542">
<ele>240.20000000000005</ele>
<time>2023-05-18T13:07:34Z</time>
</trkpt>
<trkpt lat="49.307777965441346" lon="8.116564974188805">
<ele>240</ele>
<time>2023-05-18T13:07:35Z</time>
</trkpt>
<trkpt lat="49.30778693407774" lon="8.11663999222219">
<ele>239.79999999999995</ele>
<time>2023-05-18T13:07:36Z</time>
</trkpt>
<trkpt lat="49.30779296904802" lon="8.116711992770433">
<ele>239.60000000000002</ele>
<time>2023-05-18T13:07:37Z</time>
</trkpt>
<trkpt lat="49.30780193768442" lon="8.116784999147058">
<ele>239.39999999999998</ele>
<time>2023-05-18T13:07:38Z</time>
</trkpt>
<trkpt lat="49.30781199596822" lon="8.116859933361411">
<ele>239.39999999999998</ele>
<time>2023-05-18T13:07:39Z</time>
</trkpt>
<trkpt lat="49.307819958776236" lon="8.116936963051558">
<ele>239.20000000000005</ele>
<time>2023-05-18T13:07:40Z</time>
</trkpt>
<trkpt lat="49.30782498791814" lon="8.117014998570085">
<ele>239</ele>
<time>2023-05-18T13:07:41Z</time>
</trkpt>
<trkpt lat="49.30783295072615" lon="8.117089932784438">
<ele>238.79999999999995</ele>
<time>2023-05-18T13:07:42Z</time>
</trkpt>
<trkpt lat="49.307841919362545" lon="8.117161933332682">
<ele>238.60000000000002</ele>
<time>2023-05-18T13:07:43Z</time>
</trkpt>
<trkpt lat="49.30784795433283" lon="8.117237957194448">
<ele>238.39999999999998</ele>
<time>2023-05-18T13:07:44Z</time>
</trkpt>
<trkpt lat="49.30785692296922" lon="8.117317920550704">
<ele>238.20000000000005</ele>
<time>2023-05-18T13:07:45Z</time>
</trkpt>
<trkpt lat="49.307862957939506" lon="8.117399979382753">
<ele>237.79999999999995</ele>
<time>2023-05-18T13:07:46Z</time>
</trkpt>
<trkpt lat="49.30786999873817" lon="8.117482960224152">
<ele>237.60000000000002</ele>
<time>2023-05-18T13:07:47Z</time>
</trkpt>
<trkpt lat="49.307879973202944" lon="8.117567952722311">
<ele>237.39999999999998</ele>
<time>2023-05-18T13:07:48Z</time>
</trkpt>
<trkpt lat="49.307886930182576" lon="8.11765294522047">
<ele>237.20000000000005</ele>
<time>2023-05-18T13:07:49Z</time>
</trkpt>
<trkpt lat="49.30789296515286" lon="8.117734920233488">
<ele>237</ele>
<time>2023-05-18T13:07:50Z</time>
</trkpt>
<trkpt lat="49.30789992213249" lon="8.117817984893918">
<ele>236.79999999999995</ele>
<time>2023-05-18T13:07:51Z</time>
</trkpt>
<trkpt lat="49.30790796875954" lon="8.117899959906936">
<ele>236.60000000000002</ele>
<time>2023-05-18T13:07:52Z</time>
</trkpt>
<trkpt lat="49.30791794322431" lon="8.117981934919953">
<ele>236.39999999999998</ele>
<time>2023-05-18T13:07:53Z</time>
</trkpt>
<trkpt lat="49.307926995679736" lon="8.118061982095242">
<ele>236.20000000000005</ele>
<time>2023-05-18T13:07:54Z</time>
</trkpt>
<trkpt lat="49.30793495848775" lon="8.118136916309595">
<ele>236</ele>
<time>2023-05-18T13:07:55Z</time>
</trkpt>
<trkpt lat="49.30794292129576" lon="8.118212940171361">
<ele>235.79999999999995</ele>
<time>2023-05-18T13:07:56Z</time>
</trkpt>
<trkpt lat="49.30795197375119" lon="8.118287958204746">
<ele>235.39999999999998</ele>
<time>2023-05-18T13:07:57Z</time>
</trkpt>
<trkpt lat="49.3079599365592" lon="8.118364987894893">
<ele>235.20000000000005</ele>
<time>2023-05-18T13:07:58Z</time>
</trkpt>
<trkpt lat="49.307966977357864" lon="8.118441933766007">
<ele>235</ele>
<time>2023-05-18T13:07:59Z</time>
</trkpt>
<trkpt lat="49.307972928509116" lon="8.118521980941296">
<ele>234.79999999999995</ele>
<time>2023-05-18T13:08:00Z</time>
</trkpt>
<trkpt lat="49.30797996930778" lon="8.118596998974681">
<ele>234.60000000000002</ele>
<time>2023-05-18T13:08:01Z</time>
</trkpt>
<trkpt lat="49.30798692628741" lon="8.118671933189034">
<ele>234.39999999999998</ele>
<time>2023-05-18T13:08:02Z</time>
</trkpt>
<trkpt lat="49.30799497291446" lon="8.118744939565659">
<ele>234.20000000000005</ele>
<time>2023-05-18T13:08:03Z</time>
</trkpt>
<trkpt lat="49.30800192989409" lon="8.118816940113902">
<ele>234</ele>
<time>2023-05-18T13:08:04Z</time>
</trkpt>
<trkpt lat="49.30800695903599" lon="8.118884917348623">
<ele>233.79999999999995</ele>
<time>2023-05-18T13:08:05Z</time>
</trkpt>
<trkpt lat="49.30800796486437" lon="8.118951972573996">
<ele>233.60000000000002</ele>
<time>2023-05-18T13:08:06Z</time>
</trkpt>
<trkpt lat="49.30800796486437" lon="8.119016932323575">
<ele>233.39999999999998</ele>
<time>2023-05-18T13:08:07Z</time>
</trkpt>
<trkpt lat="49.308011988177896" lon="8.119081975892186">
<ele>233.20000000000005</ele>
<time>2023-05-18T13:08:08Z</time>
</trkpt>
<trkpt lat="49.30801693350077" lon="8.119146935641766">
<ele>233</ele>
<time>2023-05-18T13:08:09Z</time>
</trkpt>
<trkpt lat="49.30802196264267" lon="8.119212985038757">
<ele>232.79999999999995</ele>
<time>2023-05-18T13:08:10Z</time>
</trkpt>
<trkpt lat="49.30802799761295" lon="8.119281968101859">
<ele>232.79999999999995</ele>
<time>2023-05-18T13:08:11Z</time>
</trkpt>
<trkpt lat="49.308034954592586" lon="8.119351956993341">
<ele>232.60000000000002</ele>
<time>2023-05-18T13:08:12Z</time>
</trkpt>
<trkpt lat="49.30803998373449" lon="8.119421945884824">
<ele>232.39999999999998</ele>
<time>2023-05-18T13:08:13Z</time>
</trkpt>
<trkpt lat="49.30804199539125" lon="8.119494952261448">
<ele>232.39999999999998</ele>
<time>2023-05-18T13:08:14Z</time>
</trkpt>
<trkpt lat="49.30804492905736" lon="8.119566952809691">
<ele>232.20000000000005</ele>
<time>2023-05-18T13:08:15Z</time>
</trkpt>
<trkpt lat="49.3080479465425" lon="8.119641970843077">
<ele>232</ele>
<time>2023-05-18T13:08:16Z</time>
</trkpt>
<trkpt lat="49.308054987341166" lon="8.119719922542572">
<ele>231.79999999999995</ele>
<time>2023-05-18T13:08:17Z</time>
</trkpt>
<trkpt lat="49.3080619443208" lon="8.11979996971786">
<ele>231.60000000000002</ele>
<time>2023-05-18T13:08:18Z</time>
</trkpt>
<trkpt lat="49.3080669734627" lon="8.119881944730878">
<ele>231.39999999999998</ele>
<time>2023-05-18T13:08:19Z</time>
</trkpt>
<trkpt lat="49.30807292461395" lon="8.119962997734547">
<ele>231.20000000000005</ele>
<time>2023-05-18T13:08:20Z</time>
</trkpt>
<trkpt lat="49.30807996541262" lon="8.120042961090803">
<ele>231</ele>
<time>2023-05-18T13:08:21Z</time>
</trkpt>
<trkpt lat="49.30808792822063" lon="8.12012493610382">
<ele>230.79999999999995</ele>
<time>2023-05-18T13:08:22Z</time>
</trkpt>
<trkpt lat="49.30809295736253" lon="8.12020699493587">
<ele>230.60000000000002</ele>
<time>2023-05-18T13:08:23Z</time>
</trkpt>
<trkpt lat="49.308097986504436" lon="8.12029198743403">
<ele>230.39999999999998</ele>
<time>2023-05-18T13:08:24Z</time>
</trkpt>
<trkpt lat="49.30810695514083" lon="8.120376979932189">
<ele>230.20000000000005</ele>
<time>2023-05-18T13:08:25Z</time>
</trkpt>
<trkpt lat="49.3081169296056" lon="8.120462978258729">
<ele>230</ele>
<time>2023-05-18T13:08:26Z</time>
</trkpt>
<trkpt lat="49.30812799371779" lon="8.12054998241365">
<ele>229.79999999999995</ele>
<time>2023-05-18T13:08:27Z</time>
</trkpt>
<trkpt lat="49.308137968182564" lon="8.12063698656857">
<ele>229.60000000000002</ele>
<time>2023-05-18T13:08:28Z</time>
</trkpt>
<trkpt lat="49.30814693681896" lon="8.12072298489511">
<ele>229.20000000000005</ele>
<time>2023-05-18T13:08:29Z</time>
</trkpt>
<trkpt lat="49.30815196596086" lon="8.120802948251367">
<ele>229</ele>
<time>2023-05-18T13:08:30Z</time>
</trkpt>
<trkpt lat="49.30815791711211" lon="8.120884923264384">
<ele>228.60000000000002</ele>
<time>2023-05-18T13:08:31Z</time>
</trkpt>
<trkpt lat="49.30816696956754" lon="8.120962958782911">
<ele>228.39999999999998</ele>
<time>2023-05-18T13:08:32Z</time>
</trkpt>
<trkpt lat="49.30817493237555" lon="8.121039988473058">
<ele>228</ele>
<time>2023-05-18T13:08:33Z</time>
</trkpt>
<trkpt lat="49.308181973174214" lon="8.121116934344172">
<ele>227.79999999999995</ele>
<time>2023-05-18T13:08:34Z</time>
</trkpt>
<trkpt lat="49.308187924325466" lon="8.121192958205938">
<ele>227.60000000000002</ele>
<time>2023-05-18T13:08:35Z</time>
</trkpt>
<trkpt lat="49.30819496512413" lon="8.121269987896085">
<ele>227.39999999999998</ele>
<time>2023-05-18T13:08:36Z</time>
</trkpt>
<trkpt lat="49.30819798260927" lon="8.121344922110438">
<ele>227.39999999999998</ele>
<time>2023-05-18T13:08:37Z</time>
</trkpt>
<trkpt lat="49.30820192210376" lon="8.121417928487062">
<ele>227.20000000000005</ele>
<time>2023-05-18T13:08:38Z</time>
</trkpt>
<trkpt lat="49.308206951245666" lon="8.121494958177209">
<ele>227.20000000000005</ele>
<time>2023-05-18T13:08:39Z</time>
</trkpt>
<trkpt lat="49.30821198038757" lon="8.121572993695736">
<ele>227</ele>
<time>2023-05-18T13:08:40Z</time>
</trkpt>
<trkpt lat="49.30821692571044" lon="8.12164499424398">
<ele>226.79999999999995</ele>
<time>2023-05-18T13:08:41Z</time>
</trkpt>
<trkpt lat="49.30821793153882" lon="8.121706936508417">
<ele>226.79999999999995</ele>
<time>2023-05-18T13:08:42Z</time>
</trkpt>
<trkpt lat="49.30821692571044" lon="8.121761921793222">
<ele>226.60000000000002</ele>
<time>2023-05-18T13:08:43Z</time>
</trkpt>
<trkpt lat="49.30821692571044" lon="8.121814979240298">
<ele>226.39999999999998</ele>
<time>2023-05-18T13:08:44Z</time>
</trkpt>
<trkpt lat="49.30821298621595" lon="8.12186292372644">
<ele>226.20000000000005</ele>
<time>2023-05-18T13:08:45Z</time>
</trkpt>
<trkpt lat="49.308207957074046" lon="8.121901983395219">
<ele>226.20000000000005</ele>
<time>2023-05-18T13:08:46Z</time>
</trkpt>
<trkpt lat="49.308206951245666" lon="8.121932996436954">
<ele>226</ele>
<time>2023-05-18T13:08:47Z</time>
</trkpt>
<trkpt lat="49.308206951245666" lon="8.121961997821927">
<ele>225.79999999999995</ele>
<time>2023-05-18T13:08:48Z</time>
</trkpt>
<trkpt lat="49.308206951245666" lon="8.121981946751475">
<ele>225.79999999999995</ele>
<time>2023-05-18T13:08:49Z</time>
</trkpt>
<trkpt lat="49.308206951245666" lon="8.121986975893378">
<ele>225.60000000000002</ele>
<time>2023-05-18T13:08:50Z</time>
</trkpt>
<trkpt lat="49.308206951245666" lon="8.121984964236617">
<ele>225.60000000000002</ele>
<time>2023-05-18T13:08:51Z</time>
</trkpt>
<trkpt lat="49.30817493237555" lon="8.121994938701391">
<ele>225.20000000000005</ele>
<time>2023-05-18T13:08:51Z</time>
</trkpt>
<trkpt lat="49.308161940425634" lon="8.121994938701391">
<ele>225.20000000000005</ele>
<time>2023-05-18T13:08:52Z</time>
</trkpt>
<trkpt lat="49.30814794264734" lon="8.12198999337852">
<ele>225.20000000000005</ele>
<time>2023-05-18T13:08:53Z</time>
</trkpt>
<trkpt lat="49.30813696235418" lon="8.121981946751475">
<ele>225.39999999999998</ele>
<time>2023-05-18T13:08:54Z</time>
</trkpt>
<trkpt lat="49.30812698788941" lon="8.121972978115082">
<ele>225.39999999999998</ele>
<time>2023-05-18T13:08:55Z</time>
</trkpt>
<trkpt lat="49.30811299011111" lon="8.121964931488037">
<ele>225.39999999999998</ele>
<time>2023-05-18T13:08:56Z</time>
</trkpt>
<trkpt lat="49.308096980676055" lon="8.121957974508405">
<ele>225.39999999999998</ele>
<time>2023-05-18T13:08:57Z</time>
</trkpt>
<trkpt lat="49.308074936270714" lon="8.121951939538121">
<ele>225.39999999999998</ele>
<time>2023-05-18T13:08:58Z</time>
</trkpt>
<trkpt lat="49.308052975684404" lon="8.12194699421525">
<ele>225.60000000000002</ele>
<time>2023-05-18T13:08:59Z</time>
</trkpt>
<trkpt lat="49.30802799761295" lon="8.121937941759825">
<ele>225.60000000000002</ele>
<time>2023-05-18T13:09:00Z</time>
</trkpt>
<trkpt lat="49.30800293572247" lon="8.121931990608573">
<ele>225.79999999999995</ele>
<time>2023-05-18T13:09:01Z</time>
</trkpt>
<trkpt lat="49.30797795765102" lon="8.121924949809909">
<ele>225.79999999999995</ele>
<time>2023-05-18T13:09:02Z</time>
</trkpt>
<trkpt lat="49.307949962094426" lon="8.121919920668006">
<ele>226</ele>
<time>2023-05-18T13:09:03Z</time>
</trkpt>
<trkpt lat="49.30792196653783" lon="8.121917992830276">
<ele>226.20000000000005</ele>
<time>2023-05-18T13:09:04Z</time>
</trkpt>
<trkpt lat="49.30789497680962" lon="8.121909946203232">
<ele>226.20000000000005</ele>
<time>2023-05-18T13:09:05Z</time>
</trkpt>
<trkpt lat="49.30786698125303" lon="8.12190692871809">
<ele>226.39999999999998</ele>
<time>2023-05-18T13:09:06Z</time>
</trkpt>
<trkpt lat="49.307836974039674" lon="8.121901983395219">
<ele>226.60000000000002</ele>
<time>2023-05-18T13:09:07Z</time>
</trkpt>
<trkpt lat="49.3078079726547" lon="8.121892930939794">
<ele>226.79999999999995</ele>
<time>2023-05-18T13:09:08Z</time>
</trkpt>
<trkpt lat="49.30778198875487" lon="8.12188295647502">
<ele>227</ele>
<time>2023-05-18T13:09:09Z</time>
</trkpt>
<trkpt lat="49.307754999026656" lon="8.121877927333117">
<ele>227.20000000000005</ele>
<time>2023-05-18T13:09:10Z</time>
</trkpt>
<trkpt lat="49.30772792547941" lon="8.121876921504736">
<ele>227.39999999999998</ele>
<time>2023-05-18T13:09:11Z</time>
</trkpt>
<trkpt lat="49.30770194157958" lon="8.121874993667006">
<ele>227.79999999999995</ele>
<time>2023-05-18T13:09:12Z</time>
</trkpt>
<trkpt lat="49.30767495185137" lon="8.121871976181865">
<ele>228</ele>
<time>2023-05-18T13:09:13Z</time>
</trkpt>
<trkpt lat="49.307646956294775" lon="8.121866947039962">
<ele>228.20000000000005</ele>
<time>2023-05-18T13:09:14Z</time>
</trkpt>
<trkpt lat="49.30761996656656" lon="8.12186292372644">
<ele>228.39999999999998</ele>
<time>2023-05-18T13:09:15Z</time>
</trkpt>
<trkpt lat="49.30759197100997" lon="8.121861917898059">
<ele>228.60000000000002</ele>
<time>2023-05-18T13:09:16Z</time>
</trkpt>
<trkpt lat="49.30756498128176" lon="8.121856972575188">
<ele>229</ele>
<time>2023-05-18T13:09:17Z</time>
</trkpt>
<trkpt lat="49.307536985725164" lon="8.121854960918427">
<ele>229.20000000000005</ele>
<time>2023-05-18T13:09:18Z</time>
</trkpt>
<trkpt lat="49.30750697851181" lon="8.121851943433285">
<ele>229.39999999999998</ele>
<time>2023-05-18T13:09:19Z</time>
</trkpt>
<trkpt lat="49.307476971298456" lon="8.121851943433285">
<ele>229.60000000000002</ele>
<time>2023-05-18T13:09:20Z</time>
</trkpt>
<trkpt lat="49.30744495242834" lon="8.121844986453652">
<ele>229.79999999999995</ele>
<time>2023-05-18T13:09:21Z</time>
</trkpt>
<trkpt lat="49.30741494521499" lon="8.12183995731175">
<ele>230</ele>
<time>2023-05-18T13:09:22Z</time>
</trkpt>
<trkpt lat="49.30738493800163" lon="8.121836939826608">
<ele>230.20000000000005</ele>
<time>2023-05-18T13:09:23Z</time>
</trkpt>
<trkpt lat="49.30735493078828" lon="8.121834928169847">
<ele>230.39999999999998</ele>
<time>2023-05-18T13:09:24Z</time>
</trkpt>
<trkpt lat="49.307322995737195" lon="8.121831994503736">
<ele>230.60000000000002</ele>
<time>2023-05-18T13:09:25Z</time>
</trkpt>
<trkpt lat="49.3072899710387" lon="8.121826965361834">
<ele>230.79999999999995</ele>
<time>2023-05-18T13:09:26Z</time>
</trkpt>
<trkpt lat="49.30725493468344" lon="8.121822942048311">
<ele>231</ele>
<time>2023-05-18T13:09:27Z</time>
</trkpt>
<trkpt lat="49.30722299963236" lon="8.12181799672544">
<ele>231.20000000000005</ele>
<time>2023-05-18T13:09:28Z</time>
</trkpt>
<trkpt lat="49.30718695744872" lon="8.121811961755157">
<ele>231.39999999999998</ele>
<time>2023-05-18T13:09:29Z</time>
</trkpt>
<trkpt lat="49.307151921093464" lon="8.121807938441634">
<ele>231.39999999999998</ele>
<time>2023-05-18T13:09:30Z</time>
</trkpt>
<trkpt lat="49.30711797438562" lon="8.121804920956492">
<ele>231.60000000000002</ele>
<time>2023-05-18T13:09:31Z</time>
</trkpt>
<trkpt lat="49.30708293803036" lon="8.121799975633621">
<ele>231.79999999999995</ele>
<time>2023-05-18T13:09:32Z</time>
</trkpt>
<trkpt lat="49.3070499971509" lon="8.121794946491718">
<ele>232</ele>
<time>2023-05-18T13:09:33Z</time>
</trkpt>
<trkpt lat="49.3070169724524" lon="8.121787989512086">
<ele>232</ele>
<time>2023-05-18T13:09:34Z</time>
</trkpt>
<trkpt lat="49.306981936097145" lon="8.121782960370183">
<ele>232.20000000000005</ele>
<time>2023-05-18T13:09:35Z</time>
</trkpt>
<trkpt lat="49.30694698356092" lon="8.12177793122828">
<ele>232.39999999999998</ele>
<time>2023-05-18T13:09:36Z</time>
</trkpt>
<trkpt lat="49.30691295303404" lon="8.12177499756217">
<ele>232.39999999999998</ele>
<time>2023-05-18T13:09:37Z</time>
</trkpt>
<trkpt lat="49.30687992833555" lon="8.121769968420267">
<ele>232.60000000000002</ele>
<time>2023-05-18T13:09:38Z</time>
</trkpt>
<trkpt lat="49.30684698745608" lon="8.121759993955493">
<ele>232.79999999999995</ele>
<time>2023-05-18T13:09:39Z</time>
</trkpt>
<trkpt lat="49.30681698024273" lon="8.121751947328448">
<ele>232.79999999999995</ele>
<time>2023-05-18T13:09:40Z</time>
</trkpt>
<trkpt lat="49.306786973029375" lon="8.121746918186545">
<ele>233</ele>
<time>2023-05-18T13:09:41Z</time>
</trkpt>
<trkpt lat="49.30675193667412" lon="8.121742978692055">
<ele>233</ele>
<time>2023-05-18T13:09:42Z</time>
</trkpt>
<trkpt lat="49.30671698413789" lon="8.121737949550152">
<ele>233.20000000000005</ele>
<time>2023-05-18T13:09:43Z</time>
</trkpt>
<trkpt lat="49.306679936125875" lon="8.12173493206501">
<ele>233.20000000000005</ele>
<time>2023-05-18T13:09:44Z</time>
</trkpt>
<trkpt lat="49.30664196610451" lon="8.121727975085378">
<ele>233.39999999999998</ele>
<time>2023-05-18T13:09:45Z</time>
</trkpt>
<trkpt lat="49.30660491809249" lon="8.121722945943475">
<ele>233.39999999999998</ele>
<time>2023-05-18T13:09:46Z</time>
</trkpt>
<trkpt lat="49.3065679538995" lon="8.121717916801572">
<ele>233.60000000000002</ele>
<time>2023-05-18T13:09:47Z</time>
</trkpt>
<trkpt lat="49.3065319955349" lon="8.1217129714787">
<ele>233.60000000000002</ele>
<time>2023-05-18T13:09:48Z</time>
</trkpt>
<trkpt lat="49.30649494752288" lon="8.12171196565032">
<ele>233.60000000000002</ele>
<time>2023-05-18T13:09:49Z</time>
</trkpt>
<trkpt lat="49.30645798332989" lon="8.121706936508417">
<ele>233.60000000000002</ele>
<time>2023-05-18T13:09:50Z</time>
</trkpt>
<trkpt lat="49.30641699582338" lon="8.121702997013927">
<ele>233.60000000000002</ele>
<time>2023-05-18T13:09:51Z</time>
</trkpt>
<trkpt lat="49.30637693032622" lon="8.121697967872024">
<ele>233.60000000000002</ele>
<time>2023-05-18T13:09:52Z</time>
</trkpt>
<trkpt lat="49.306334936991334" lon="8.121696962043643">
<ele>233.60000000000002</ele>
<time>2023-05-18T13:09:53Z</time>
</trkpt>
<trkpt lat="49.306294955313206" lon="8.121694950386882">
<ele>233.60000000000002</ele>
<time>2023-05-18T13:09:54Z</time>
</trkpt>
<trkpt lat="49.306252961978316" lon="8.121694950386882">
<ele>233.60000000000002</ele>
<time>2023-05-18T13:09:55Z</time>
</trkpt>
<trkpt lat="49.306209962815046" lon="8.121694950386882">
<ele>233.60000000000002</ele>
<time>2023-05-18T13:09:56Z</time>
</trkpt>
<trkpt lat="49.306166963651776" lon="8.121694950386882">
<ele>233.60000000000002</ele>
<time>2023-05-18T13:09:57Z</time>
</trkpt>
<trkpt lat="49.306121952831745" lon="8.121696962043643">
<ele>233.60000000000002</ele>
<time>2023-05-18T13:09:58Z</time>
</trkpt>
<trkpt lat="49.306076942011714" lon="8.121697967872024">
<ele>233.39999999999998</ele>
<time>2023-05-18T13:09:59Z</time>
</trkpt>
<trkpt lat="49.30603293702006" lon="8.12169293873012">
<ele>233.39999999999998</ele>
<time>2023-05-18T13:10:00Z</time>
</trkpt>
<trkpt lat="49.30598692037165" lon="8.121689921244979">
<ele>233.20000000000005</ele>
<time>2023-05-18T13:10:01Z</time>
</trkpt>
<trkpt lat="49.30593998171389" lon="8.121689921244979">
<ele>233.20000000000005</ele>
<time>2023-05-18T13:10:02Z</time>
</trkpt>
<trkpt lat="49.30589195340872" lon="8.121689921244979">
<ele>233.20000000000005</ele>
<time>2023-05-18T13:10:03Z</time>
</trkpt>
<trkpt lat="49.305841997265816" lon="8.121686987578869">
<ele>233</ele>
<time>2023-05-18T13:10:04Z</time>
</trkpt>
<trkpt lat="49.30579195730388" lon="8.121684975922108">
<ele>233</ele>
<time>2023-05-18T13:10:05Z</time>
</trkpt>
<trkpt lat="49.30574191734195" lon="8.121681958436966">
<ele>233</ele>
<time>2023-05-18T13:10:06Z</time>
</trkpt>
<trkpt lat="49.305692967027426" lon="8.121672989800572">
<ele>232.79999999999995</ele>
<time>2023-05-18T13:10:07Z</time>
</trkpt>
<trkpt lat="49.305647956207395" lon="8.121661925688386">
<ele>232.79999999999995</ele>
<time>2023-05-18T13:10:08Z</time>
</trkpt>
<trkpt lat="49.30560294538736" lon="8.12164499424398">
<ele>232.79999999999995</ele>
<time>2023-05-18T13:10:09Z</time>
</trkpt>
<trkpt lat="49.30555994622409" lon="8.121632924303412">
<ele>232.60000000000002</ele>
<time>2023-05-18T13:10:10Z</time>
</trkpt>
<trkpt lat="49.305519964545965" lon="8.121621944010258">
<ele>232.60000000000002</ele>
<time>2023-05-18T13:10:11Z</time>
</trkpt>
<trkpt lat="49.3054819945246" lon="8.121612975373864">
<ele>232.39999999999998</ele>
<time>2023-05-18T13:10:12Z</time>
</trkpt>
<trkpt lat="49.30544695816934" lon="8.121602917090058">
<ele>232.39999999999998</ele>
<time>2023-05-18T13:10:13Z</time>
</trkpt>
<trkpt lat="49.305411921814084" lon="8.121592942625284">
<ele>232.20000000000005</ele>
<time>2023-05-18T13:10:14Z</time>
</trkpt>
<trkpt lat="49.305379986763" lon="8.121584979817271">
<ele>232.20000000000005</ele>
<time>2023-05-18T13:10:15Z</time>
</trkpt>
<trkpt lat="49.305349979549646" lon="8.121576933190227">
<ele>232</ele>
<time>2023-05-18T13:10:16Z</time>
</trkpt>
<trkpt lat="49.305322989821434" lon="8.121571987867355">
<ele>232</ele>
<time>2023-05-18T13:10:17Z</time>
</trkpt>
<trkpt lat="49.30530195124447" lon="8.121569976210594">
<ele>231.79999999999995</ele>
<time>2023-05-18T13:10:18Z</time>
</trkpt>
<trkpt lat="49.305284935981035" lon="8.121569976210594">
<ele>231.79999999999995</ele>
<time>2023-05-18T13:10:19Z</time>
</trkpt>
<trkpt lat="49.30527496151626" lon="8.121576933190227">
<ele>231.60000000000002</ele>
<time>2023-05-18T13:10:20Z</time>
</trkpt>
<trkpt lat="49.30527194403112" lon="8.121584979817271">
<ele>231.60000000000002</ele>
<time>2023-05-18T13:10:21Z</time>
</trkpt>
<trkpt lat="49.30526993237436" lon="8.121586991474032">
<ele>231.20000000000005</ele>
<time>2023-05-18T13:10:23Z</time>
</trkpt>
<trkpt lat="49.30525694042444" lon="8.121637953445315">
<ele>231</ele>
<time>2023-05-18T13:10:23Z</time>
</trkpt>
<trkpt lat="49.305261969566345" lon="8.121679946780205">
<ele>230.79999999999995</ele>
<time>2023-05-18T13:10:24Z</time>
</trkpt>
<trkpt lat="49.30527496151626" lon="8.121724957600236">
<ele>230.60000000000002</ele>
<time>2023-05-18T13:10:25Z</time>
</trkpt>
<trkpt lat="49.30528996512294" lon="8.1217769253999">
<ele>230.39999999999998</ele>
<time>2023-05-18T13:10:26Z</time>
</trkpt>
<trkpt lat="49.305306980386376" lon="8.121832916513085">
<ele>230.20000000000005</ele>
<time>2023-05-18T13:10:27Z</time>
</trkpt>
<trkpt lat="49.30532198399305" lon="8.121891925111413">
<ele>230</ele>
<time>2023-05-18T13:10:28Z</time>
</trkpt>
<trkpt lat="49.30533195845783" lon="8.121951939538121">
<ele>229.79999999999995</ele>
<time>2023-05-18T13:10:29Z</time>
</trkpt>
<trkpt lat="49.30533799342811" lon="8.122014971449971">
<ele>229.39999999999998</ele>
<time>2023-05-18T13:10:30Z</time>
</trkpt>
<trkpt lat="49.3053419329226" lon="8.12207791954279">
<ele>229.20000000000005</ele>
<time>2023-05-18T13:10:31Z</time>
</trkpt>
<trkpt lat="49.30533992126584" lon="8.122137933969498">
<ele>229.20000000000005</ele>
<time>2023-05-18T13:10:32Z</time>
</trkpt>
<trkpt lat="49.30533992126584" lon="8.122194930911064">
<ele>229</ele>
<time>2023-05-18T13:10:33Z</time>
</trkpt>
<trkpt lat="49.3053419329226" lon="8.12224798835814">
<ele>228.79999999999995</ele>
<time>2023-05-18T13:10:34Z</time>
</trkpt>
<trkpt lat="49.3053419329226" lon="8.1222949270159">
<ele>228.60000000000002</ele>
<time>2023-05-18T13:10:35Z</time>
</trkpt>
<trkpt lat="49.30533497594297" lon="8.12233692035079">
<ele>228.60000000000002</ele>
<time>2023-05-18T13:10:36Z</time>
</trkpt>
<trkpt lat="49.305326929315925" lon="8.122371956706047">
<ele>228.39999999999998</ele>
<time>2023-05-18T13:10:37Z</time>
</trkpt>
<trkpt lat="49.30531293153763" lon="8.122404981404543">
<ele>228.39999999999998</ele>
<time>2023-05-18T13:10:38Z</time>
</trkpt>
<trkpt lat="49.30529499426484" lon="8.122436916455626">
<ele>228.20000000000005</ele>
<time>2023-05-18T13:10:39Z</time>
</trkpt>
<trkpt lat="49.3052729498595" lon="8.122457955032587">
<ele>228</ele>
<time>2023-05-18T13:10:40Z</time>
</trkpt>
<trkpt lat="49.30524797178805" lon="8.122471952810884">
<ele>228</ele>
<time>2023-05-18T13:10:41Z</time>
</trkpt>
<trkpt lat="49.30522198788822" lon="8.122482933104038">
<ele>227.79999999999995</ele>
<time>2023-05-18T13:10:42Z</time>
</trkpt>
<trkpt lat="49.30519298650324" lon="8.122492991387844">
<ele>227.79999999999995</ele>
<time>2023-05-18T13:10:43Z</time>
</trkpt>
<trkpt lat="49.30516691878438" lon="8.122501960024238">
<ele>227.60000000000002</ele>
<time>2023-05-18T13:10:44Z</time>
</trkpt>
<trkpt lat="49.305137917399406" lon="8.12250698916614">
<ele>227.60000000000002</ele>
<time>2023-05-18T13:10:45Z</time>
</trkpt>
<trkpt lat="49.305111933499575" lon="8.122514951974154">
<ele>227.60000000000002</ele>
<time>2023-05-18T13:10:46Z</time>
</trkpt>
<trkpt lat="49.30508192628622" lon="8.12252794392407">
<ele>227.60000000000002</ele>
<time>2023-05-18T13:10:47Z</time>
</trkpt>
<trkpt lat="49.305046973749995" lon="8.122542947530746">
<ele>227.39999999999998</ele>
<time>2023-05-18T13:10:48Z</time>
</trkpt>
<trkpt lat="49.30501193739474" lon="8.122559962794185">
<ele>227.39999999999998</ele>
<time>2023-05-18T13:10:49Z</time>
</trkpt>
<trkpt lat="49.30497497320175" lon="8.122577983886003">
<ele>227.39999999999998</ele>
<time>2023-05-18T13:10:50Z</time>
</trkpt>
<trkpt lat="49.30493792518973" lon="8.122596926987171">
<ele>227.39999999999998</ele>
<time>2023-05-18T13:10:51Z</time>
</trkpt>
<trkpt lat="49.304896937683225" lon="8.12261494807899">
<ele>227.39999999999998</ele>
<time>2023-05-18T13:10:52Z</time>
</trkpt>
<trkpt lat="49.304854944348335" lon="8.122632969170809">
<ele>227.39999999999998</ele>
<time>2023-05-18T13:10:53Z</time>
</trkpt>
<trkpt lat="49.304811945185065" lon="8.122651996091008">
<ele>227.39999999999998</ele>
<time>2023-05-18T13:10:54Z</time>
</trkpt>
<trkpt lat="49.304767940193415" lon="8.122671945020556">
<ele>227.39999999999998</ele>
<time>2023-05-18T13:10:55Z</time>
</trkpt>
<trkpt lat="49.304724941030145" lon="8.122694995254278">
<ele>227.60000000000002</ele>
<time>2023-05-18T13:10:56Z</time>
</trkpt>
<trkpt lat="49.30467993021011" lon="8.122717961668968">
<ele>227.60000000000002</ele>
<time>2023-05-18T13:10:57Z</time>
</trkpt>
<trkpt lat="49.30463299155235" lon="8.122734976932406">
<ele>227.60000000000002</ele>
<time>2023-05-18T13:10:58Z</time>
</trkpt>
<trkpt lat="49.30458496324718" lon="8.122747968882322">
<ele>227.60000000000002</ele>
<time>2023-05-18T13:10:59Z</time>
</trkpt>
<trkpt lat="49.304534923285246" lon="8.122762972489">
<ele>227.60000000000002</ele>
<time>2023-05-18T13:11:00Z</time>
</trkpt>
<trkpt lat="49.30448295548558" lon="8.122774958610535">
<ele>227.60000000000002</ele>
<time>2023-05-18T13:11:01Z</time>
</trkpt>
<trkpt lat="49.3044319935143" lon="8.122781999409199">
<ele>227.60000000000002</ele>
<time>2023-05-18T13:11:02Z</time>
</trkpt>
<trkpt lat="49.304381953552365" lon="8.12278795056045">
<ele>227.60000000000002</ele>
<time>2023-05-18T13:11:03Z</time>
</trkpt>
<trkpt lat="49.30433199740946" lon="8.122791973873973">
<ele>227.60000000000002</ele>
<time>2023-05-18T13:11:04Z</time>
</trkpt>
<trkpt lat="49.30427994579077" lon="8.122794991359115">
<ele>227.60000000000002</ele>
<time>2023-05-18T13:11:05Z</time>
</trkpt>
<trkpt lat="49.30422697216272" lon="8.122801948338747">
<ele>227.60000000000002</ele>
<time>2023-05-18T13:11:06Z</time>
</trkpt>
<trkpt lat="49.3041729927063" lon="8.12280697748065">
<ele>227.60000000000002</ele>
<time>2023-05-18T13:11:07Z</time>
</trkpt>
<trkpt lat="49.30411993525922" lon="8.122811922803521">
<ele>227.60000000000002</ele>
<time>2023-05-18T13:11:08Z</time>
</trkpt>
<trkpt lat="49.30406494997442" lon="8.122819969430566">
<ele>227.60000000000002</ele>
<time>2023-05-18T13:11:09Z</time>
</trkpt>
<trkpt lat="49.30400795303285" lon="8.122824998572469">
<ele>227.60000000000002</ele>
<time>2023-05-18T13:11:10Z</time>
</trkpt>
<trkpt lat="49.303949950262904" lon="8.122831955552101">
<ele>227.60000000000002</ele>
<time>2023-05-18T13:11:11Z</time>
</trkpt>
<trkpt lat="49.303889935836196" lon="8.122839918360114">
<ele>227.39999999999998</ele>
<time>2023-05-18T13:11:12Z</time>
</trkpt>
<trkpt lat="49.30382992140949" lon="8.122846959158778">
<ele>227.39999999999998</ele>
<time>2023-05-18T13:11:13Z</time>
</trkpt>
<trkpt lat="49.30376697331667" lon="8.122854921966791">
<ele>227.39999999999998</ele>
<time>2023-05-18T13:11:14Z</time>
</trkpt>
<trkpt lat="49.30370293557644" lon="8.122862968593836">
<ele>227.20000000000005</ele>
<time>2023-05-18T13:11:15Z</time>
</trkpt>
<trkpt lat="49.30363797582686" lon="8.122867997735739">
<ele>227</ele>
<time>2023-05-18T13:11:16Z</time>
</trkpt>
<trkpt lat="49.30356999859214" lon="8.122876966372132">
<ele>226.79999999999995</ele>
<time>2023-05-18T13:11:17Z</time>
</trkpt>
<trkpt lat="49.303499925881624" lon="8.122886940836906">
<ele>226.60000000000002</ele>
<time>2023-05-18T13:11:18Z</time>
</trkpt>
<trkpt lat="49.3034319486469" lon="8.122896999120712">
<ele>226.20000000000005</ele>
<time>2023-05-18T13:11:19Z</time>
</trkpt>
<trkpt lat="49.30336195975542" lon="8.122907979413867">
<ele>226</ele>
<time>2023-05-18T13:11:20Z</time>
</trkpt>
<trkpt lat="49.303287947550416" lon="8.122917953878641">
<ele>225.79999999999995</ele>
<time>2023-05-18T13:11:21Z</time>
</trkpt>
<trkpt lat="49.30321292951703" lon="8.122927928343415">
<ele>225.60000000000002</ele>
<time>2023-05-18T13:11:22Z</time>
</trkpt>
<trkpt lat="49.30313799530268" lon="8.12293698079884">
<ele>225.20000000000005</ele>
<time>2023-05-18T13:11:23Z</time>
</trkpt>
<trkpt lat="49.30306197144091" lon="8.122942931950092">
<ele>224.79999999999995</ele>
<time>2023-05-18T13:11:24Z</time>
</trkpt>
<trkpt lat="49.302982930094004" lon="8.122949972748756">
<ele>224.60000000000002</ele>
<time>2023-05-18T13:11:25Z</time>
</trkpt>
<trkpt lat="49.30290497839451" lon="8.122951984405518">
<ele>224.39999999999998</ele>
<time>2023-05-18T13:11:26Z</time>
</trkpt>
<trkpt lat="49.30282694287598" lon="8.122954918071628">
<ele>224</ele>
<time>2023-05-18T13:11:27Z</time>
</trkpt>
<trkpt lat="49.302747985348105" lon="8.122947961091995">
<ele>223.79999999999995</ele>
<time>2023-05-18T13:11:28Z</time>
</trkpt>
<trkpt lat="49.30267196148634" lon="8.122922983020544">
<ele>223.60000000000002</ele>
<time>2023-05-18T13:11:29Z</time>
</trkpt>
<trkpt lat="49.302599960938096" lon="8.122896999120712">
<ele>223.39999999999998</ele>
<time>2023-05-18T13:11:30Z</time>
</trkpt>
<trkpt lat="49.302531983703375" lon="8.122876966372132">
<ele>223.20000000000005</ele>
<time>2023-05-18T13:11:31Z</time>
</trkpt>
<trkpt lat="49.302466940134764" lon="8.122861962765455">
<ele>223</ele>
<time>2023-05-18T13:11:32Z</time>
</trkpt>
<trkpt lat="49.302404997870326" lon="8.122846959158778">
<ele>222.79999999999995</ele>
<time>2023-05-18T13:11:33Z</time>
</trkpt>
<trkpt lat="49.30234699510038" lon="8.122836984694004">
<ele>222.60000000000002</ele>
<time>2023-05-18T13:11:34Z</time>
</trkpt>
<trkpt lat="49.30229192599654" lon="8.12282994389534">
<ele>222.39999999999998</ele>
<time>2023-05-18T13:11:35Z</time>
</trkpt>
<trkpt lat="49.30223794654012" lon="8.122824998572469">
<ele>222.20000000000005</ele>
<time>2023-05-18T13:11:36Z</time>
</trkpt>
<trkpt lat="49.302187990397215" lon="8.122817957773805">
<ele>222</ele>
<time>2023-05-18T13:11:37Z</time>
</trkpt>
<trkpt lat="49.30213996209204" lon="8.122809994965792">
<ele>222</ele>
<time>2023-05-18T13:11:38Z</time>
</trkpt>
<trkpt lat="49.30209293961525" lon="8.122804965823889">
<ele>221.79999999999995</ele>
<time>2023-05-18T13:11:39Z</time>
</trkpt>
<trkpt lat="49.30205496959388" lon="8.122801948338747">
<ele>221.60000000000002</ele>
<time>2023-05-18T13:11:40Z</time>
</trkpt>
<trkpt lat="49.302019933238626" lon="8.122799936681986">
<ele>221.60000000000002</ele>
<time>2023-05-18T13:11:41Z</time>
</trkpt>
<trkpt lat="49.30198799818754" lon="8.122799936681986">
<ele>221.39999999999998</ele>
<time>2023-05-18T13:11:42Z</time>
</trkpt>
<trkpt lat="49.30195799097419" lon="8.122799936681986">
<ele>221.39999999999998</ele>
<time>2023-05-18T13:11:43Z</time>
</trkpt>
<trkpt lat="49.301931923255324" lon="8.122802954167128">
<ele>221.20000000000005</ele>
<time>2023-05-18T13:11:44Z</time>
</trkpt>
<trkpt lat="49.30190694518387" lon="8.122809994965792">
<ele>221.20000000000005</ele>
<time>2023-05-18T13:11:45Z</time>
</trkpt>
<trkpt lat="49.301887918263674" lon="8.122817957773805">
<ele>221</ele>
<time>2023-05-18T13:11:46Z</time>
</trkpt>
<trkpt lat="49.3018779437989" lon="8.122824998572469">
<ele>221</ele>
<time>2023-05-18T13:11:47Z</time>
</trkpt>
<trkpt lat="49.30187693797052" lon="8.122826926410198">
<ele>220.79999999999995</ele>
<time>2023-05-18T13:11:48Z</time>
</trkpt>
<trkpt lat="49.30187693797052" lon="8.122824998572469">
<ele>220.79999999999995</ele>
<time>2023-05-18T13:11:50Z</time>
</trkpt>
<trkpt lat="49.30183695629239" lon="8.122881995514035">
<ele>220.39999999999998</ele>
<time>2023-05-18T13:11:50Z</time>
</trkpt>
<trkpt lat="49.301827987656" lon="8.122906973585486">
<ele>220.39999999999998</ele>
<time>2023-05-18T13:11:51Z</time>
</trkpt>
<trkpt lat="49.301821952685714" lon="8.122922983020544">
<ele>220.20000000000005</ele>
<time>2023-05-18T13:11:52Z</time>
</trkpt>
<trkpt lat="49.30181499570608" lon="8.122927928343415">
<ele>220.20000000000005</ele>
<time>2023-05-18T13:11:53Z</time>
</trkpt>
<trkpt lat="49.30181197822094" lon="8.122929940000176">
<ele>220.20000000000005</ele>
<time>2023-05-18T13:11:54Z</time>
</trkpt>
<trkpt lat="49.30181197822094" lon="8.122931951656938">
<ele>220</ele>
<time>2023-05-18T13:11:55Z</time>
</trkpt>
<trkpt lat="49.301737966015935" lon="8.122922983020544">
<ele>219.60000000000002</ele>
<time>2023-05-18T13:11:55Z</time>
</trkpt>
<trkpt lat="49.301714999601245" lon="8.12293698079884">
<ele>219.60000000000002</ele>
<time>2023-05-18T13:11:56Z</time>
</trkpt>
<trkpt lat="49.301692955195904" lon="8.122956929728389">
<ele>219.60000000000002</ele>
<time>2023-05-18T13:11:57Z</time>
</trkpt>
<trkpt lat="49.30167191661894" lon="8.122984925284982">
<ele>219.60000000000002</ele>
<time>2023-05-18T13:11:58Z</time>
</trkpt>
<trkpt lat="49.301649956032634" lon="8.123016944155097">
<ele>219.60000000000002</ele>
<time>2023-05-18T13:11:59Z</time>
</trkpt>
<trkpt lat="49.30162296630442" lon="8.123046951368451">
<ele>219.39999999999998</ele>
<time>2023-05-18T13:12:00Z</time>
</trkpt>
<trkpt lat="49.301589941605926" lon="8.123062960803509">
<ele>219.39999999999998</ele>
<time>2023-05-18T13:12:01Z</time>
</trkpt>
<trkpt lat="49.30155691690743" lon="8.123067989945412">
<ele>219.20000000000005</ele>
<time>2023-05-18T13:12:02Z</time>
</trkpt>
<trkpt lat="49.301524981856346" lon="8.123066984117031">
<ele>219.20000000000005</ele>
<time>2023-05-18T13:12:03Z</time>
</trkpt>
<trkpt lat="49.30149497464299" lon="8.12306497246027">
<ele>219</ele>
<time>2023-05-18T13:12:04Z</time>
</trkpt>
<trkpt lat="49.30146496742964" lon="8.123062960803509">
<ele>218.79999999999995</ele>
<time>2023-05-18T13:12:05Z</time>
</trkpt>
<trkpt lat="49.301434960216284" lon="8.123062960803509">
<ele>218.79999999999995</ele>
<time>2023-05-18T13:12:06Z</time>
</trkpt>
<trkpt lat="49.30140495300293" lon="8.12306497246027">
<ele>218.60000000000002</ele>
<time>2023-05-18T13:12:07Z</time>
</trkpt>
<trkpt lat="49.301372934132814" lon="8.12306497246027">
<ele>218.39999999999998</ele>
<time>2023-05-18T13:12:08Z</time>
</trkpt>
<trkpt lat="49.30133999325335" lon="8.123062960803509">
<ele>218.39999999999998</ele>
<time>2023-05-18T13:12:09Z</time>
</trkpt>
<trkpt lat="49.30130294524133" lon="8.123061954975128">
<ele>218.20000000000005</ele>
<time>2023-05-18T13:12:10Z</time>
</trkpt>
<trkpt lat="49.301262963563204" lon="8.123061954975128">
<ele>218.20000000000005</ele>
<time>2023-05-18T13:12:11Z</time>
</trkpt>
<trkpt lat="49.301222981885076" lon="8.123062960803509">
<ele>218</ele>
<time>2023-05-18T13:12:12Z</time>
</trkpt>
<trkpt lat="49.301179982721806" lon="8.123066984117031">
<ele>218</ele>
<time>2023-05-18T13:12:13Z</time>
</trkpt>
<trkpt lat="49.301137989386916" lon="8.123067989945412">
<ele>217.79999999999995</ele>
<time>2023-05-18T13:12:14Z</time>
</trkpt>
<trkpt lat="49.301094990223646" lon="8.123067989945412">
<ele>217.79999999999995</ele>
<time>2023-05-18T13:12:15Z</time>
</trkpt>
<trkpt lat="49.301049979403615" lon="8.123066984117031">
<ele>217.60000000000002</ele>
<time>2023-05-18T13:12:16Z</time>
</trkpt>
<trkpt lat="49.301006980240345" lon="8.12306497246027">
<ele>217.60000000000002</ele>
<time>2023-05-18T13:12:17Z</time>
</trkpt>
<trkpt lat="49.30096699856222" lon="8.123059943318367">
<ele>217.39999999999998</ele>
<time>2023-05-18T13:12:18Z</time>
</trkpt>
<trkpt lat="49.30093296803534" lon="8.123054997995496">
<ele>217.20000000000005</ele>
<time>2023-05-18T13:12:19Z</time>
</trkpt>
<trkpt lat="49.30090497247875" lon="8.123047957196832">
<ele>217</ele>
<time>2023-05-18T13:12:20Z</time>
</trkpt>
<trkpt lat="49.30089198052883" lon="8.123039994388819">
<ele>216.79999999999995</ele>
<time>2023-05-18T13:12:21Z</time>
</trkpt>
<trkpt lat="49.30088695138693" lon="8.123036976903677">
<ele>216.79999999999995</ele>
<time>2023-05-18T13:12:22Z</time>
</trkpt>
<trkpt lat="49.30088795721531" lon="8.123034965246916">
<ele>216.39999999999998</ele>
<time>2023-05-18T13:12:24Z</time>
</trkpt>
<trkpt lat="49.300832971930504" lon="8.123046951368451">
<ele>216.20000000000005</ele>
<time>2023-05-18T13:12:24Z</time>
</trkpt>
<trkpt lat="49.30081193335354" lon="8.123046951368451">
<ele>216.20000000000005</ele>
<time>2023-05-18T13:12:25Z</time>
</trkpt>
<trkpt lat="49.30078796111047" lon="8.123042928054929">
<ele>216.20000000000005</ele>
<time>2023-05-18T13:12:26Z</time>
</trkpt>
<trkpt lat="49.30076197721064" lon="8.123034965246916">
<ele>216.20000000000005</ele>
<time>2023-05-18T13:12:27Z</time>
</trkpt>
<trkpt lat="49.30073297582567" lon="8.123024990782142">
<ele>216.20000000000005</ele>
<time>2023-05-18T13:12:28Z</time>
</trkpt>
<trkpt lat="49.30070296861231" lon="8.123012920841575">
<ele>216.20000000000005</ele>
<time>2023-05-18T13:12:29Z</time>
</trkpt>
<trkpt lat="49.30066994391382" lon="8.122999928891659">
<ele>216.20000000000005</ele>
<time>2023-05-18T13:12:30Z</time>
</trkpt>
<trkpt lat="49.30063499137759" lon="8.122986936941743">
<ele>216.20000000000005</ele>
<time>2023-05-18T13:12:31Z</time>
</trkpt>
<trkpt lat="49.30059693753719" lon="8.122974950820208">
<ele>216.20000000000005</ele>
<time>2023-05-18T13:12:32Z</time>
</trkpt>
<trkpt lat="49.300554944202304" lon="8.122964976355433">
<ele>216.20000000000005</ele>
<time>2023-05-18T13:12:33Z</time>
</trkpt>
<trkpt lat="49.30050993338227" lon="8.12295793555677">
<ele>216</ele>
<time>2023-05-18T13:12:34Z</time>
</trkpt>
<trkpt lat="49.30046299472451" lon="8.122949972748756">
<ele>216</ele>
<time>2023-05-18T13:12:35Z</time>
</trkpt>
<trkpt lat="49.3004119489342" lon="8.122944943606853">
<ele>216</ele>
<time>2023-05-18T13:12:36Z</time>
</trkpt>
<trkpt lat="49.30035796947777" lon="8.122944943606853">
<ele>215.79999999999995</ele>
<time>2023-05-18T13:12:37Z</time>
</trkpt>
<trkpt lat="49.30030197836459" lon="8.122952990233898">
<ele>215.60000000000002</ele>
<time>2023-05-18T13:12:38Z</time>
</trkpt>
<trkpt lat="49.30024296976626" lon="8.122964976355433">
<ele>215.39999999999998</ele>
<time>2023-05-18T13:12:39Z</time>
</trkpt>
<trkpt lat="49.30017792619765" lon="8.12297796830535">
<ele>215.20000000000005</ele>
<time>2023-05-18T13:12:40Z</time>
</trkpt>
<trkpt lat="49.30011196061969" lon="8.122992971912026">
<ele>214.79999999999995</ele>
<time>2023-05-18T13:12:41Z</time>
</trkpt>
<trkpt lat="49.300041971728206" lon="8.123006969690323">
<ele>214.39999999999998</ele>
<time>2023-05-18T13:12:42Z</time>
</trkpt>
<trkpt lat="49.29996997117996" lon="8.123021973297">
<ele>214</ele>
<time>2023-05-18T13:12:43Z</time>
</trkpt>
<trkpt lat="49.29989797063172" lon="8.123037982732058">
<ele>213.60000000000002</ele>
<time>2023-05-18T13:12:44Z</time>
</trkpt>
<trkpt lat="49.299827981740236" lon="8.123056925833225">
<ele>213.20000000000005</ele>
<time>2023-05-18T13:12:45Z</time>
</trkpt>
<trkpt lat="49.29975698702037" lon="8.123072935268283">
<ele>212.60000000000002</ele>
<time>2023-05-18T13:12:46Z</time>
</trkpt>
<trkpt lat="49.29968498647213" lon="8.123092968016863">
<ele>212.20000000000005</ele>
<time>2023-05-18T13:12:47Z</time>
</trkpt>
<trkpt lat="49.299612985923886" lon="8.123112916946411">
<ele>211.79999999999995</ele>
<time>2023-05-18T13:12:48Z</time>
</trkpt>
<trkpt lat="49.299542997032404" lon="8.12312993220985">
<ele>211.20000000000005</ele>
<time>2023-05-18T13:12:49Z</time>
</trkpt>
<trkpt lat="49.29947191849351" lon="8.123144935816526">
<ele>210.79999999999995</ele>
<time>2023-05-18T13:12:50Z</time>
</trkpt>
<trkpt lat="49.299399917945266" lon="8.123161951079965">
<ele>210.39999999999998</ele>
<time>2023-05-18T13:12:51Z</time>
</trkpt>
<trkpt lat="49.29932699538767" lon="8.123177960515022">
<ele>209.79999999999995</ele>
<time>2023-05-18T13:12:52Z</time>
</trkpt>
<trkpt lat="49.29925692267716" lon="8.1231929641217">
<ele>209.39999999999998</ele>
<time>2023-05-18T13:12:53Z</time>
</trkpt>
<trkpt lat="49.299184922128916" lon="8.123209979385138">
<ele>208.79999999999995</ele>
<time>2023-05-18T13:12:54Z</time>
</trkpt>
<trkpt lat="49.299117950722575" lon="8.123224982991815">
<ele>208.39999999999998</ele>
<time>2023-05-18T13:12:55Z</time>
</trkpt>
<trkpt lat="49.299051985144615" lon="8.123239986598492">
<ele>207.79999999999995</ele>
<time>2023-05-18T13:12:56Z</time>
</trkpt>
<trkpt lat="49.298986941576004" lon="8.123262953013182">
<ele>207.20000000000005</ele>
<time>2023-05-18T13:12:57Z</time>
</trkpt>
<trkpt lat="49.298921981826425" lon="8.123294971883297">
<ele>206.79999999999995</ele>
<time>2023-05-18T13:12:58Z</time>
</trkpt>
<trkpt lat="49.298857944086194" lon="8.123331936076283">
<ele>206.20000000000005</ele>
<time>2023-05-18T13:12:59Z</time>
</trkpt>
<trkpt lat="49.298794995993376" lon="8.123361943289638">
<ele>205.60000000000002</ele>
<time>2023-05-18T13:13:00Z</time>
</trkpt>
<trkpt lat="49.298731964081526" lon="8.12338499352336">
<ele>205.20000000000005</ele>
<time>2023-05-18T13:13:01Z</time>
</trkpt>
<trkpt lat="49.29867496713996" lon="8.123402930796146">
<ele>205</ele>
<time>2023-05-18T13:13:02Z</time>
</trkpt>
<trkpt lat="49.298622999340296" lon="8.123422963544726">
<ele>204.79999999999995</ele>
<time>2023-05-18T13:13:03Z</time>
</trkpt>
<trkpt lat="49.29857295937836" lon="8.123442996293306">
<ele>204.79999999999995</ele>
<time>2023-05-18T13:13:04Z</time>
</trkpt>
<trkpt lat="49.29852493107319" lon="8.123457999899983">
<ele>204.79999999999995</ele>
<time>2023-05-18T13:13:05Z</time>
</trkpt>
<trkpt lat="49.29847799241543" lon="8.123467974364758">
<ele>204.79999999999995</ele>
<time>2023-05-18T13:13:06Z</time>
</trkpt>
<trkpt lat="49.2984329815954" lon="8.123477948829532">
<ele>204.79999999999995</ele>
<time>2023-05-18T13:13:07Z</time>
</trkpt>
<trkpt lat="49.298386964946985" lon="8.123489934951067">
<ele>204.79999999999995</ele>
<time>2023-05-18T13:13:08Z</time>
</trkpt>
<trkpt lat="49.29833994247019" lon="8.123496975749731">
<ele>205</ele>
<time>2023-05-18T13:13:09Z</time>
</trkpt>
<trkpt lat="49.2982929199934" lon="8.123502926900983">
<ele>205</ele>
<time>2023-05-18T13:13:10Z</time>
</trkpt>
<trkpt lat="49.2982479929924" lon="8.123512985184789">
<ele>205.20000000000005</ele>
<time>2023-05-18T13:13:11Z</time>
</trkpt>
<trkpt lat="49.29820298217237" lon="8.123522959649563">
<ele>205.20000000000005</ele>
<time>2023-05-18T13:13:12Z</time>
</trkpt>
<trkpt lat="49.2981599830091" lon="8.123531928285956">
<ele>205.39999999999998</ele>
<time>2023-05-18T13:13:13Z</time>
</trkpt>
<trkpt lat="49.29811296053231" lon="8.12353796325624">
<ele>205.79999999999995</ele>
<time>2023-05-18T13:13:14Z</time>
</trkpt>
<trkpt lat="49.29806794971228" lon="8.123546931892633">
<ele>206</ele>
<time>2023-05-18T13:13:15Z</time>
</trkpt>
<trkpt lat="49.29802495054901" lon="8.12356193549931">
<ele>206.39999999999998</ele>
<time>2023-05-18T13:13:16Z</time>
</trkpt>
<trkpt lat="49.29798496887088" lon="8.123582974076271">
<ele>206.79999999999995</ele>
<time>2023-05-18T13:13:17Z</time>
</trkpt>
<trkpt lat="49.29794699884951" lon="8.123611975461245">
<ele>207.20000000000005</ele>
<time>2023-05-18T13:13:18Z</time>
</trkpt>
<trkpt lat="49.297911962494254" lon="8.12364298850298">
<ele>207.60000000000002</ele>
<time>2023-05-18T13:13:19Z</time>
</trkpt>
<trkpt lat="49.297876926139" lon="8.123672995716333">
<ele>208</ele>
<time>2023-05-18T13:13:20Z</time>
</trkpt>
<trkpt lat="49.29783996194601" lon="8.123696967959404">
<ele>208.20000000000005</ele>
<time>2023-05-18T13:13:21Z</time>
</trkpt>
<trkpt lat="49.29779998026788" lon="8.123711971566081">
<ele>208.60000000000002</ele>
<time>2023-05-18T13:13:22Z</time>
</trkpt>
<trkpt lat="49.297759998589754" lon="8.123717922717333">
<ele>209</ele>
<time>2023-05-18T13:13:23Z</time>
</trkpt>
<trkpt lat="49.29771792143583" lon="8.123721946030855">
<ele>209.20000000000005</ele>
<time>2023-05-18T13:13:24Z</time>
</trkpt>
<trkpt lat="49.297676933929324" lon="8.123721946030855">
<ele>209.39999999999998</ele>
<time>2023-05-18T13:13:25Z</time>
</trkpt>
<trkpt lat="49.297634940594435" lon="8.123721946030855">
<ele>209.79999999999995</ele>
<time>2023-05-18T13:13:26Z</time>
</trkpt>
<trkpt lat="49.297592947259545" lon="8.123722951859236">
<ele>210</ele>
<time>2023-05-18T13:13:27Z</time>
</trkpt>
<trkpt lat="49.29755195975304" lon="8.123722951859236">
<ele>210.20000000000005</ele>
<time>2023-05-18T13:13:28Z</time>
</trkpt>
<trkpt lat="49.29750996641815" lon="8.123722951859236">
<ele>210.39999999999998</ele>
<time>2023-05-18T13:13:29Z</time>
</trkpt>
<trkpt lat="49.29746797308326" lon="8.123721946030855">
<ele>210.60000000000002</ele>
<time>2023-05-18T13:13:30Z</time>
</trkpt>
<trkpt lat="49.29742799140513" lon="8.123719934374094">
<ele>211</ele>
<time>2023-05-18T13:13:31Z</time>
</trkpt>
<trkpt lat="49.29738692007959" lon="8.123714989051223">
<ele>211.20000000000005</ele>
<time>2023-05-18T13:13:32Z</time>
</trkpt>
<trkpt lat="49.2973499558866" lon="8.12370995990932">
<ele>211.39999999999998</ele>
<time>2023-05-18T13:13:33Z</time>
</trkpt>
<trkpt lat="49.297311985865235" lon="8.123704930767417">
<ele>211.60000000000002</ele>
<time>2023-05-18T13:13:34Z</time>
</trkpt>
<trkpt lat="49.297272926196456" lon="8.123697973787785">
<ele>211.79999999999995</ele>
<time>2023-05-18T13:13:35Z</time>
</trkpt>
<trkpt lat="49.29723495617509" lon="8.123691938817501">
<ele>212.20000000000005</ele>
<time>2023-05-18T13:13:36Z</time>
</trkpt>
<trkpt lat="49.29719698615372" lon="8.123682970181108">
<ele>212.39999999999998</ele>
<time>2023-05-18T13:13:37Z</time>
</trkpt>
<trkpt lat="49.297159938141704" lon="8.123674923554063">
<ele>212.60000000000002</ele>
<time>2023-05-18T13:13:38Z</time>
</trkpt>
<trkpt lat="49.29712297394872" lon="8.123662937432528">
<ele>212.79999999999995</ele>
<time>2023-05-18T13:13:39Z</time>
</trkpt>
<trkpt lat="49.29708793759346" lon="8.123651957139373">
<ele>213</ele>
<time>2023-05-18T13:13:40Z</time>
</trkpt>
<trkpt lat="49.297052985057235" lon="8.123641982674599">
<ele>213.20000000000005</ele>
<time>2023-05-18T13:13:41Z</time>
</trkpt>
<trkpt lat="49.29701794870198" lon="8.123632930219173">
<ele>213.39999999999998</ele>
<time>2023-05-18T13:13:42Z</time>
</trkpt>
<trkpt lat="49.29698299616575" lon="8.123632930219173">
<ele>213.60000000000002</ele>
<time>2023-05-18T13:13:43Z</time>
</trkpt>
<trkpt lat="49.29694997146726" lon="8.123637959361076">
<ele>214</ele>
<time>2023-05-18T13:13:44Z</time>
</trkpt>
<trkpt lat="49.29691694676876" lon="8.12364793382585">
<ele>214.20000000000005</ele>
<time>2023-05-18T13:13:45Z</time>
</trkpt>
<trkpt lat="49.296884927898645" lon="8.123652962967753">
<ele>214.39999999999998</ele>
<time>2023-05-18T13:13:46Z</time>
</trkpt>
<trkpt lat="49.29685492068529" lon="8.123657992109656">
<ele>214.60000000000002</ele>
<time>2023-05-18T13:13:47Z</time>
</trkpt>
<trkpt lat="49.29682499729097" lon="8.123661931604147">
<ele>214.79999999999995</ele>
<time>2023-05-18T13:13:48Z</time>
</trkpt>
<trkpt lat="49.296792978420854" lon="8.123661931604147">
<ele>215</ele>
<time>2023-05-18T13:13:49Z</time>
</trkpt>
<trkpt lat="49.2967629712075" lon="8.123664949089289">
<ele>215</ele>
<time>2023-05-18T13:13:50Z</time>
</trkpt>
<trkpt lat="49.296729946509004" lon="8.123664949089289">
<ele>215.20000000000005</ele>
<time>2023-05-18T13:13:51Z</time>
</trkpt>
<trkpt lat="49.29669792763889" lon="8.123662937432528">
<ele>215.39999999999998</ele>
<time>2023-05-18T13:13:52Z</time>
</trkpt>
<trkpt lat="49.296664986759424" lon="8.123664949089289">
<ele>215.60000000000002</ele>
<time>2023-05-18T13:13:53Z</time>
</trkpt>
<trkpt lat="49.29662995040417" lon="8.12366696074605">
<ele>215.79999999999995</ele>
<time>2023-05-18T13:13:54Z</time>
</trkpt>
<trkpt lat="49.29659499786794" lon="8.12366696074605">
<ele>216</ele>
<time>2023-05-18T13:13:55Z</time>
</trkpt>
<trkpt lat="49.296557949855924" lon="8.123669978231192">
<ele>216.20000000000005</ele>
<time>2023-05-18T13:13:56Z</time>
</trkpt>
<trkpt lat="49.29652199149132" lon="8.123676935210824">
<ele>216.39999999999998</ele>
<time>2023-05-18T13:13:57Z</time>
</trkpt>
<trkpt lat="49.2964849434793" lon="8.123677941039205">
<ele>216.60000000000002</ele>
<time>2023-05-18T13:13:58Z</time>
</trkpt>
<trkpt lat="49.29644697345793" lon="8.123674923554063">
<ele>216.60000000000002</ele>
<time>2023-05-18T13:13:59Z</time>
</trkpt>
<trkpt lat="49.296411937102675" lon="8.123671989887953">
<ele>216.79999999999995</ele>
<time>2023-05-18T13:14:00Z</time>
</trkpt>
<trkpt lat="49.29637296125293" lon="8.123672995716333">
<ele>216.79999999999995</ele>
<time>2023-05-18T13:14:01Z</time>
</trkpt>
<trkpt lat="49.29633691906929" lon="8.123676935210824">
<ele>217</ele>
<time>2023-05-18T13:14:02Z</time>
</trkpt>
<trkpt lat="49.296299954876304" lon="8.123679952695966">
<ele>217.20000000000005</ele>
<time>2023-05-18T13:14:03Z</time>
</trkpt>
<trkpt lat="49.29626299068332" lon="8.123679952695966">
<ele>217.20000000000005</ele>
<time>2023-05-18T13:14:04Z</time>
</trkpt>
<trkpt lat="49.29622493684292" lon="8.123681964352727">
<ele>217.39999999999998</ele>
<time>2023-05-18T13:14:05Z</time>
</trkpt>
<trkpt lat="49.29618797264993" lon="8.123684981837869">
<ele>217.39999999999998</ele>
<time>2023-05-18T13:14:06Z</time>
</trkpt>
<trkpt lat="49.29614991880953" lon="8.12368799932301">
<ele>217.60000000000002</ele>
<time>2023-05-18T13:14:07Z</time>
</trkpt>
<trkpt lat="49.29611295461655" lon="8.12368799932301">
<ele>217.79999999999995</ele>
<time>2023-05-18T13:14:08Z</time>
</trkpt>
<trkpt lat="49.29607498459518" lon="8.12368992716074">
<ele>217.79999999999995</ele>
<time>2023-05-18T13:14:09Z</time>
</trkpt>
<trkpt lat="49.29603793658316" lon="8.12368992716074">
<ele>218</ele>
<time>2023-05-18T13:14:10Z</time>
</trkpt>
<trkpt lat="49.296001978218555" lon="8.12368992716074">
<ele>218</ele>
<time>2023-05-18T13:14:11Z</time>
</trkpt>
<trkpt lat="49.2959669418633" lon="8.123696967959404">
<ele>218.20000000000005</ele>
<time>2023-05-18T13:14:12Z</time>
</trkpt>
<trkpt lat="49.295932995155454" lon="8.123711971566081">
<ele>218.39999999999998</ele>
<time>2023-05-18T13:14:13Z</time>
</trkpt>
<trkpt lat="49.29590499959886" lon="8.123737955465913">
<ele>218.39999999999998</ele>
<time>2023-05-18T13:14:14Z</time>
</trkpt>
<trkpt lat="49.29588496685028" lon="8.12377693131566">
<ele>218.60000000000002</ele>
<time>2023-05-18T13:14:15Z</time>
</trkpt>
<trkpt lat="49.29587499238551" lon="8.123829988762736">
<ele>218.60000000000002</ele>
<time>2023-05-18T13:14:16Z</time>
</trkpt>
<trkpt lat="49.295872980728745" lon="8.123892936855555">
<ele>218.79999999999995</ele>
<time>2023-05-18T13:14:17Z</time>
</trkpt>
<trkpt lat="49.295872980728745" lon="8.123957980424166">
<ele>218.79999999999995</ele>
<time>2023-05-18T13:14:18Z</time>
</trkpt>
<trkpt lat="49.295871974900365" lon="8.124024951830506">
<ele>218.79999999999995</ele>
<time>2023-05-18T13:14:19Z</time>
</trkpt>
<trkpt lat="49.295869963243604" lon="8.124094940721989">
<ele>218.79999999999995</ele>
<time>2023-05-18T13:14:20Z</time>
</trkpt>
<trkpt lat="49.295869963243604" lon="8.124164929613471">
<ele>218.79999999999995</ele>
<time>2023-05-18T13:14:21Z</time>
</trkpt>
<trkpt lat="49.295871974900365" lon="8.124237935990095">
<ele>218.79999999999995</ele>
<time>2023-05-18T13:14:22Z</time>
</trkpt>
<trkpt lat="49.295869963243604" lon="8.1243119481951">
<ele>218.60000000000002</ele>
<time>2023-05-18T13:14:23Z</time>
</trkpt>
<trkpt lat="49.29586795158684" lon="8.124386966228485">
<ele>218.60000000000002</ele>
<time>2023-05-18T13:14:24Z</time>
</trkpt>
<trkpt lat="49.2958649341017" lon="8.12445997260511">
<ele>218.60000000000002</ele>
<time>2023-05-18T13:14:25Z</time>
</trkpt>
<trkpt lat="49.29586191661656" lon="8.124532978981733">
<ele>218.60000000000002</ele>
<time>2023-05-18T13:14:26Z</time>
</trkpt>
<trkpt lat="49.29585797712207" lon="8.124609924852848">
<ele>218.60000000000002</ele>
<time>2023-05-18T13:14:27Z</time>
</trkpt>
<trkpt lat="49.29585495963693" lon="8.124684942886233">
<ele>218.39999999999998</ele>
<time>2023-05-18T13:14:28Z</time>
</trkpt>
<trkpt lat="49.295852947980165" lon="8.124759960919619">
<ele>218.39999999999998</ele>
<time>2023-05-18T13:14:29Z</time>
</trkpt>
<trkpt lat="49.295852947980165" lon="8.124834978953004">
<ele>218.20000000000005</ele>
<time>2023-05-18T13:14:30Z</time>
</trkpt>
<trkpt lat="49.295851942151785" lon="8.124911924824119">
<ele>218.20000000000005</ele>
<time>2023-05-18T13:14:31Z</time>
</trkpt>
<trkpt lat="49.295849930495024" lon="8.124987948685884">
<ele>218</ele>
<time>2023-05-18T13:14:32Z</time>
</trkpt>
<trkpt lat="49.295849930495024" lon="8.125066990032792">
<ele>218</ele>
<time>2023-05-18T13:14:33Z</time>
</trkpt>
<trkpt lat="49.295846996828914" lon="8.125142930075526">
<ele>217.79999999999995</ele>
<time>2023-05-18T13:14:34Z</time>
</trkpt>
<trkpt lat="49.29584297351539" lon="8.125221971422434">
<ele>217.60000000000002</ele>
<time>2023-05-18T13:14:35Z</time>
</trkpt>
<trkpt lat="49.29584196768701" lon="8.1252979952842">
<ele>217.60000000000002</ele>
<time>2023-05-18T13:14:36Z</time>
</trkpt>
<trkpt lat="49.29583995603025" lon="8.125372929498553">
<ele>217.60000000000002</ele>
<time>2023-05-18T13:14:37Z</time>
</trkpt>
<trkpt lat="49.29583693854511" lon="8.125446941703558">
<ele>217.39999999999998</ele>
<time>2023-05-18T13:14:38Z</time>
</trkpt>
<trkpt lat="49.29583299905062" lon="8.125519948080182">
<ele>217.39999999999998</ele>
<time>2023-05-18T13:14:39Z</time>
</trkpt>
<trkpt lat="49.295829981565475" lon="8.125592954456806">
<ele>217.20000000000005</ele>
<time>2023-05-18T13:14:40Z</time>
</trkpt>
<trkpt lat="49.295826964080334" lon="8.12566696666181">
<ele>217</ele>
<time>2023-05-18T13:14:41Z</time>
</trkpt>
<trkpt lat="49.29582294076681" lon="8.125737961381674">
<ele>217</ele>
<time>2023-05-18T13:14:42Z</time>
</trkpt>
<trkpt lat="49.29581992328167" lon="8.125804932788014">
<ele>216.79999999999995</ele>
<time>2023-05-18T13:14:43Z</time>
</trkpt>
<trkpt lat="49.29581799544394" lon="8.125866958871484">
<ele>216.79999999999995</ele>
<time>2023-05-18T13:14:44Z</time>
</trkpt>
<trkpt lat="49.29581799544394" lon="8.125921944156289">
<ele>216.79999999999995</ele>
<time>2023-05-18T13:14:45Z</time>
</trkpt>
<trkpt lat="49.29582193493843" lon="8.1259679608047">
<ele>216.60000000000002</ele>
<time>2023-05-18T13:14:46Z</time>
</trkpt>
<trkpt lat="49.295826964080334" lon="8.126011965796351">
<ele>216.60000000000002</ele>
<time>2023-05-18T13:14:47Z</time>
</trkpt>
<trkpt lat="49.295829981565475" lon="8.126054964959621">
<ele>216.60000000000002</ele>
<time>2023-05-18T13:14:48Z</time>
</trkpt>
<trkpt lat="49.29583299905062" lon="8.126102993264794">
<ele>216.60000000000002</ele>
<time>2023-05-18T13:14:49Z</time>
</trkpt>
<trkpt lat="49.29583794437349" lon="8.1261579785496">
<ele>216.60000000000002</ele>
<time>2023-05-18T13:14:50Z</time>
</trkpt>
<trkpt lat="49.29584196768701" lon="8.126211958006024">
<ele>216.60000000000002</ele>
<time>2023-05-18T13:14:51Z</time>
</trkpt>
<trkpt lat="49.295846996828914" lon="8.126264931634068">
<ele>216.60000000000002</ele>
<time>2023-05-18T13:14:52Z</time>
</trkpt>
<trkpt lat="49.295846996828914" lon="8.12631195411086">
<ele>216.60000000000002</ele>
<time>2023-05-18T13:14:53Z</time>
</trkpt>
<trkpt lat="49.295846996828914" lon="8.126362999901175">
<ele>216.60000000000002</ele>
<time>2023-05-18T13:14:54Z</time>
</trkpt>
<trkpt lat="49.29584498517215" lon="8.1264169793576">
<ele>216.60000000000002</ele>
<time>2023-05-18T13:14:55Z</time>
</trkpt>
<trkpt lat="49.295846996828914" lon="8.126469952985644">
<ele>216.60000000000002</ele>
<time>2023-05-18T13:14:56Z</time>
</trkpt>
<trkpt lat="49.295849930495024" lon="8.126522926613688">
<ele>216.60000000000002</ele>
<time>2023-05-18T13:14:57Z</time>
</trkpt>
<trkpt lat="49.29585697129369" lon="8.126574978232384">
<ele>216.60000000000002</ele>
<time>2023-05-18T13:14:58Z</time>
</trkpt>
<trkpt lat="49.29586191661656" lon="8.126627951860428">
<ele>216.39999999999998</ele>
<time>2023-05-18T13:14:59Z</time>
</trkpt>
<trkpt lat="49.29586191661656" lon="8.126682937145233">
<ele>216.39999999999998</ele>
<time>2023-05-18T13:15:00Z</time>
</trkpt>
<trkpt lat="49.29585495963693" lon="8.126737922430038">
<ele>216.20000000000005</ele>
<time>2023-05-18T13:15:01Z</time>
</trkpt>
<trkpt lat="49.29583794437349" lon="8.126794919371605">
<ele>216.20000000000005</ele>
<time>2023-05-18T13:15:02Z</time>
</trkpt>
<trkpt lat="49.29581698961556" lon="8.126842947676778">
<ele>216</ele>
<time>2023-05-18T13:15:03Z</time>
</trkpt>
<trkpt lat="49.29579293355346" lon="8.12688997015357">
<ele>215.79999999999995</ele>
<time>2023-05-18T13:15:04Z</time>
</trkpt>
<trkpt lat="49.29577197879553" lon="8.126939926296473">
<ele>215.60000000000002</ele>
<time>2023-05-18T13:15:05Z</time>
</trkpt>
<trkpt lat="49.29575697518885" lon="8.12699499540031">
<ele>215.39999999999998</ele>
<time>2023-05-18T13:15:06Z</time>
</trkpt>
<trkpt lat="49.295744989067316" lon="8.127049980685115">
<ele>215.20000000000005</ele>
<time>2023-05-18T13:15:07Z</time>
</trkpt>
<trkpt lat="49.29573694244027" lon="8.127106977626681">
<ele>215</ele>
<time>2023-05-18T13:15:08Z</time>
</trkpt>
<trkpt lat="49.29572797380388" lon="8.127164980396628">
<ele>214.79999999999995</ele>
<time>2023-05-18T13:15:09Z</time>
</trkpt>
<trkpt lat="49.29571699351072" lon="8.127222983166575">
<ele>214.60000000000002</ele>
<time>2023-05-18T13:15:10Z</time>
</trkpt>
<trkpt lat="49.295699978247285" lon="8.12727796845138">
<ele>214.39999999999998</ele>
<time>2023-05-18T13:15:11Z</time>
</trkpt>
<trkpt lat="49.29567692801356" lon="8.127331947907805">
<ele>214.20000000000005</ele>
<time>2023-05-18T13:15:12Z</time>
</trkpt>
<trkpt lat="49.29564993828535" lon="8.12738492153585">
<ele>214.20000000000005</ele>
<time>2023-05-18T13:15:13Z</time>
</trkpt>
<trkpt lat="49.29562294855714" lon="8.127439990639687">
<ele>214</ele>
<time>2023-05-18T13:15:14Z</time>
</trkpt>
<trkpt lat="49.29559696465731" lon="8.12749296426773">
<ele>214</ele>
<time>2023-05-18T13:15:15Z</time>
</trkpt>
<trkpt lat="49.29556494578719" lon="8.127546943724155">
<ele>213.79999999999995</ele>
<time>2023-05-18T13:15:16Z</time>
</trkpt>
<trkpt lat="49.295526975765824" lon="8.127589942887425">
<ele>213.79999999999995</ele>
<time>2023-05-18T13:15:17Z</time>
</trkpt>
<trkpt lat="49.29548196494579" lon="8.127622967585921">
<ele>213.60000000000002</ele>
<time>2023-05-18T13:15:18Z</time>
</trkpt>
<trkpt lat="49.29543293081224" lon="8.127649957314134">
<ele>213.60000000000002</ele>
<time>2023-05-18T13:15:19Z</time>
</trkpt>
<trkpt lat="49.29538699798286" lon="8.127667978405952">
<ele>213.39999999999998</ele>
<time>2023-05-18T13:15:20Z</time>
</trkpt>
<trkpt lat="49.29534198716283" lon="8.127677952870727">
<ele>213.39999999999998</ele>
<time>2023-05-18T13:15:21Z</time>
</trkpt>
<trkpt lat="49.29529798217118" lon="8.127689938992262">
<ele>213.39999999999998</ele>
<time>2023-05-18T13:15:22Z</time>
</trkpt>
<trkpt lat="49.29525498300791" lon="8.127702930942178">
<ele>213.39999999999998</ele>
<time>2023-05-18T13:15:23Z</time>
</trkpt>
<trkpt lat="49.29521298967302" lon="8.127721957862377">
<ele>213.39999999999998</ele>
<time>2023-05-18T13:15:24Z</time>
</trkpt>
<trkpt lat="49.29517191834748" lon="8.127737967297435">
<ele>213.39999999999998</ele>
<time>2023-05-18T13:15:25Z</time>
</trkpt>
<trkpt lat="49.29512799717486" lon="8.127754982560873">
<ele>213.39999999999998</ele>
<time>2023-05-18T13:15:26Z</time>
</trkpt>
<trkpt lat="49.29508692584932" lon="8.127771997824311">
<ele>213.60000000000002</ele>
<time>2023-05-18T13:15:27Z</time>
</trkpt>
<trkpt lat="49.29504493251443" lon="8.127786917611957">
<ele>213.60000000000002</ele>
<time>2023-05-18T13:15:28Z</time>
</trkpt>
<trkpt lat="49.2950049508363" lon="8.127801921218634">
<ele>213.60000000000002</ele>
<time>2023-05-18T13:15:29Z</time>
</trkpt>
<trkpt lat="49.29496496915817" lon="8.127814996987581">
<ele>213.60000000000002</ele>
<time>2023-05-18T13:15:30Z</time>
</trkpt>
<trkpt lat="49.294924987480044" lon="8.127824971452355">
<ele>213.60000000000002</ele>
<time>2023-05-18T13:15:31Z</time>
</trkpt>
<trkpt lat="49.294886933639646" lon="8.12783494591713">
<ele>213.60000000000002</ele>
<time>2023-05-18T13:15:32Z</time>
</trkpt>
<trkpt lat="49.294844940304756" lon="8.127844920381904">
<ele>213.60000000000002</ele>
<time>2023-05-18T13:15:33Z</time>
</trkpt>
<trkpt lat="49.29480697028339" lon="8.12785992398858">
<ele>213.60000000000002</ele>
<time>2023-05-18T13:15:34Z</time>
</trkpt>
<trkpt lat="49.29476799443364" lon="8.1278779450804">
<ele>213.60000000000002</ele>
<time>2023-05-18T13:15:35Z</time>
</trkpt>
<trkpt lat="49.29472994059324" lon="8.12789797782898">
<ele>213.60000000000002</ele>
<time>2023-05-18T13:15:36Z</time>
</trkpt>
<trkpt lat="49.294691970571876" lon="8.127916920930147">
<ele>213.79999999999995</ele>
<time>2023-05-18T13:15:37Z</time>
</trkpt>
<trkpt lat="49.29465299472213" lon="8.127934942021966">
<ele>213.79999999999995</ele>
<time>2023-05-18T13:15:38Z</time>
</trkpt>
<trkpt lat="49.29461292922497" lon="8.127952963113785">
<ele>213.79999999999995</ele>
<time>2023-05-18T13:15:39Z</time>
</trkpt>
<trkpt lat="49.29457294754684" lon="8.127972995862365">
<ele>214</ele>
<time>2023-05-18T13:15:40Z</time>
</trkpt>
<trkpt lat="49.29453296586871" lon="8.127999985590577">
<ele>214</ele>
<time>2023-05-18T13:15:41Z</time>
</trkpt>
<trkpt lat="49.29449298419058" lon="8.128029992803931">
<ele>214</ele>
<time>2023-05-18T13:15:42Z</time>
</trkpt>
<trkpt lat="49.294454930350184" lon="8.128061927855015">
<ele>214</ele>
<time>2023-05-18T13:15:43Z</time>
</trkpt>
<trkpt lat="49.2944179661572" lon="8.12809495255351">
<ele>214.20000000000005</ele>
<time>2023-05-18T13:15:44Z</time>
</trkpt>
<trkpt lat="49.2943849414587" lon="8.128134934231639">
<ele>214.20000000000005</ele>
<time>2023-05-18T13:15:45Z</time>
</trkpt>
<trkpt lat="49.29434998892248" lon="8.128177933394909">
<ele>214.20000000000005</ele>
<time>2023-05-18T13:15:46Z</time>
</trkpt>
<trkpt lat="49.29431495256722" lon="8.12822294421494">
<ele>214.20000000000005</ele>
<time>2023-05-18T13:15:47Z</time>
</trkpt>
<trkpt lat="49.29427798837423" lon="8.128269966691732">
<ele>214.20000000000005</ele>
<time>2023-05-18T13:15:48Z</time>
</trkpt>
<trkpt lat="49.294241946190596" lon="8.128316989168525">
<ele>214.20000000000005</ele>
<time>2023-05-18T13:15:49Z</time>
</trkpt>
<trkpt lat="49.29420297034085" lon="8.128364933654666">
<ele>214.20000000000005</ele>
<time>2023-05-18T13:15:50Z</time>
</trkpt>
<trkpt lat="49.29416692815721" lon="8.1284149736166">
<ele>214.20000000000005</ele>
<time>2023-05-18T13:15:51Z</time>
</trkpt>
<trkpt lat="49.29412795230746" lon="8.128464929759502">
<ele>214</ele>
<time>2023-05-18T13:15:52Z</time>
</trkpt>
<trkpt lat="49.294087970629334" lon="8.128516981378198">
<ele>214</ele>
<time>2023-05-18T13:15:53Z</time>
</trkpt>
<trkpt lat="49.294049916788936" lon="8.1285669375211">
<ele>214</ele>
<time>2023-05-18T13:15:54Z</time>
</trkpt>
<trkpt lat="49.294007923454046" lon="8.128611948341131">
<ele>214</ele>
<time>2023-05-18T13:15:55Z</time>
</trkpt>
<trkpt lat="49.293964924290776" lon="8.128649918362498">
<ele>214</ele>
<time>2023-05-18T13:15:56Z</time>
</trkpt>
<trkpt lat="49.293921925127506" lon="8.128679925575852">
<ele>214</ele>
<time>2023-05-18T13:15:57Z</time>
</trkpt>
<trkpt lat="49.293872974812984" lon="8.128701969981194">
<ele>214</ele>
<time>2023-05-18T13:15:58Z</time>
</trkpt>
<trkpt lat="49.29382293485105" lon="8.128717979416251">
<ele>214</ele>
<time>2023-05-18T13:15:59Z</time>
</trkpt>
<trkpt lat="49.293769961223006" lon="8.128729965537786">
<ele>213.79999999999995</ele>
<time>2023-05-18T13:16:00Z</time>
</trkpt>
<trkpt lat="49.2937149759382" lon="8.128741951659322">
<ele>213.79999999999995</ele>
<time>2023-05-18T13:16:01Z</time>
</trkpt>
<trkpt lat="49.293656973168254" lon="8.128751926124096">
<ele>213.79999999999995</ele>
<time>2023-05-18T13:16:02Z</time>
</trkpt>
<trkpt lat="49.293597964569926" lon="8.128761984407902">
<ele>213.79999999999995</ele>
<time>2023-05-18T13:16:03Z</time>
</trkpt>
<trkpt lat="49.29353996179998" lon="8.128767935559154">
<ele>213.79999999999995</ele>
<time>2023-05-18T13:16:04Z</time>
</trkpt>
<trkpt lat="49.29348195903003" lon="8.128776988014579">
<ele>213.79999999999995</ele>
<time>2023-05-18T13:16:05Z</time>
</trkpt>
<trkpt lat="49.293421944603324" lon="8.128784950822592">
<ele>213.79999999999995</ele>
<time>2023-05-18T13:16:06Z</time>
</trkpt>
<trkpt lat="49.293361930176616" lon="8.128794925287366">
<ele>213.79999999999995</ele>
<time>2023-05-18T13:16:07Z</time>
</trkpt>
<trkpt lat="49.29330199956894" lon="8.12880196608603">
<ele>213.79999999999995</ele>
<time>2023-05-18T13:16:08Z</time>
</trkpt>
<trkpt lat="49.29324299097061" lon="8.128807917237282">
<ele>213.79999999999995</ele>
<time>2023-05-18T13:16:09Z</time>
</trkpt>
<trkpt lat="49.2931829765439" lon="8.128816969692707">
<ele>214</ele>
<time>2023-05-18T13:16:10Z</time>
</trkpt>
<trkpt lat="49.293122962117195" lon="8.12882199883461">
<ele>214</ele>
<time>2023-05-18T13:16:11Z</time>
</trkpt>
<trkpt lat="49.293061941862106" lon="8.128829961642623">
<ele>214</ele>
<time>2023-05-18T13:16:12Z</time>
</trkpt>
<trkpt lat="49.29299999959767" lon="8.128836918622255">
<ele>214.20000000000005</ele>
<time>2023-05-18T13:16:13Z</time>
</trkpt>
<trkpt lat="49.2929379735142" lon="8.128842953592539">
<ele>214.20000000000005</ele>
<time>2023-05-18T13:16:14Z</time>
</trkpt>
<trkpt lat="49.29287494160235" lon="8.128847982734442">
<ele>214.39999999999998</ele>
<time>2023-05-18T13:16:15Z</time>
</trkpt>
<trkpt lat="49.29280998185277" lon="8.128852928057313">
<ele>214.60000000000002</ele>
<time>2023-05-18T13:16:16Z</time>
</trkpt>
<trkpt lat="49.2927429266274" lon="8.128856951370835">
<ele>214.60000000000002</ele>
<time>2023-05-18T13:16:17Z</time>
</trkpt>
<trkpt lat="49.292674949392676" lon="8.128859968855977">
<ele>214.79999999999995</ele>
<time>2023-05-18T13:16:18Z</time>
</trkpt>
<trkpt lat="49.292606972157955" lon="8.128861980512738">
<ele>214.79999999999995</ele>
<time>2023-05-18T13:16:19Z</time>
</trkpt>
<trkpt lat="49.29253497160971" lon="8.128861980512738">
<ele>214.79999999999995</ele>
<time>2023-05-18T13:16:20Z</time>
</trkpt>
<trkpt lat="49.29246297106147" lon="8.128854939714074">
<ele>214.79999999999995</ele>
<time>2023-05-18T13:16:21Z</time>
</trkpt>
<trkpt lat="49.292392982169986" lon="8.1288449652493">
<ele>214.79999999999995</ele>
<time>2023-05-18T13:16:22Z</time>
</trkpt>
<trkpt lat="49.2923229932785" lon="8.128827949985862">
<ele>214.79999999999995</ele>
<time>2023-05-18T13:16:23Z</time>
</trkpt>
<trkpt lat="49.29225292056799" lon="8.128809928894043">
<ele>214.79999999999995</ele>
<time>2023-05-18T13:16:24Z</time>
</trkpt>
<trkpt lat="49.29218293167651" lon="8.128791991621256">
<ele>214.79999999999995</ele>
<time>2023-05-18T13:16:25Z</time>
</trkpt>
<trkpt lat="49.292114954441786" lon="8.128772964701056">
<ele>214.79999999999995</ele>
<time>2023-05-18T13:16:26Z</time>
</trkpt>
<trkpt lat="49.292046977207065" lon="8.128752931952477">
<ele>214.79999999999995</ele>
<time>2023-05-18T13:16:27Z</time>
</trkpt>
<trkpt lat="49.29197992198169" lon="8.128732983022928">
<ele>214.79999999999995</ele>
<time>2023-05-18T13:16:28Z</time>
</trkpt>
<trkpt lat="49.29191295057535" lon="8.12871496193111">
<ele>214.60000000000002</ele>
<time>2023-05-18T13:16:29Z</time>
</trkpt>
<trkpt lat="49.29184799082577" lon="8.128697946667671">
<ele>214.60000000000002</ele>
<time>2023-05-18T13:16:30Z</time>
</trkpt>
<trkpt lat="49.29178294725716" lon="8.128677997738123">
<ele>214.60000000000002</ele>
<time>2023-05-18T13:16:31Z</time>
</trkpt>
<trkpt lat="49.29171999916434" lon="8.128656959161162">
<ele>214.60000000000002</ele>
<time>2023-05-18T13:16:32Z</time>
</trkpt>
<trkpt lat="49.29165495559573" lon="8.128636926412582">
<ele>214.39999999999998</ele>
<time>2023-05-18T13:16:33Z</time>
</trkpt>
<trkpt lat="49.29158999584615" lon="8.128617983311415">
<ele>214.39999999999998</ele>
<time>2023-05-18T13:16:34Z</time>
</trkpt>
<trkpt lat="49.2915269639343" lon="8.128599962219596">
<ele>214.20000000000005</ele>
<time>2023-05-18T13:16:35Z</time>
</trkpt>
<trkpt lat="49.29146292619407" lon="8.128581941127777">
<ele>214</ele>
<time>2023-05-18T13:16:36Z</time>
</trkpt>
<trkpt lat="49.291401989758015" lon="8.128559980541468">
<ele>214</ele>
<time>2023-05-18T13:16:37Z</time>
</trkpt>
<trkpt lat="49.291337952017784" lon="8.128537936136127">
<ele>213.79999999999995</ele>
<time>2023-05-18T13:16:38Z</time>
</trkpt>
<trkpt lat="49.291277937591076" lon="8.128516981378198">
<ele>213.79999999999995</ele>
<time>2023-05-18T13:16:39Z</time>
</trkpt>
<trkpt lat="49.29121498949826" lon="8.128496948629618">
<ele>213.60000000000002</ele>
<time>2023-05-18T13:16:40Z</time>
</trkpt>
<trkpt lat="49.29115296341479" lon="8.12847699970007">
<ele>213.60000000000002</ele>
<time>2023-05-18T13:16:41Z</time>
</trkpt>
<trkpt lat="49.29109294898808" lon="8.128454955294728">
<ele>213.60000000000002</ele>
<time>2023-05-18T13:16:42Z</time>
</trkpt>
<trkpt lat="49.29103192873299" lon="8.12843693420291">
<ele>213.39999999999998</ele>
<time>2023-05-18T13:16:43Z</time>
</trkpt>
<trkpt lat="49.290971998125315" lon="8.128417991101742">
<ele>213.39999999999998</ele>
<time>2023-05-18T13:16:44Z</time>
</trkpt>
<trkpt lat="49.29091198369861" lon="8.128397958353162">
<ele>213.39999999999998</ele>
<time>2023-05-18T13:16:45Z</time>
</trkpt>
<trkpt lat="49.2908519692719" lon="8.128376919776201">
<ele>213.20000000000005</ele>
<time>2023-05-18T13:16:46Z</time>
</trkpt>
<trkpt lat="49.29079296067357" lon="8.12835294753313">
<ele>213.20000000000005</ele>
<time>2023-05-18T13:16:47Z</time>
</trkpt>
<trkpt lat="49.29073294624686" lon="8.12832998111844">
<ele>213.20000000000005</ele>
<time>2023-05-18T13:16:48Z</time>
</trkpt>
<trkpt lat="49.290672931820154" lon="8.128306930884719">
<ele>213</ele>
<time>2023-05-18T13:16:49Z</time>
</trkpt>
<trkpt lat="49.290612917393446" lon="8.128282958641648">
<ele>213</ele>
<time>2023-05-18T13:16:50Z</time>
</trkpt>
<trkpt lat="49.29055298678577" lon="8.128259992226958">
<ele>212.79999999999995</ele>
<time>2023-05-18T13:16:51Z</time>
</trkpt>
<trkpt lat="49.29049297235906" lon="8.128239959478378">
<ele>212.79999999999995</ele>
<time>2023-05-18T13:16:52Z</time>
</trkpt>
<trkpt lat="49.290434969589114" lon="8.12822294421494">
<ele>212.79999999999995</ele>
<time>2023-05-18T13:16:53Z</time>
</trkpt>
<trkpt lat="49.290374955162406" lon="8.128211963921785">
<ele>212.60000000000002</ele>
<time>2023-05-18T13:16:54Z</time>
</trkpt>
<trkpt lat="49.29031292907894" lon="8.128201989457011">
<ele>212.60000000000002</ele>
<time>2023-05-18T13:16:55Z</time>
</trkpt>
<trkpt lat="49.29025299847126" lon="8.128189919516444">
<ele>212.60000000000002</ele>
<time>2023-05-18T13:16:56Z</time>
</trkpt>
<trkpt lat="49.29019197821617" lon="8.12817994505167">
<ele>212.39999999999998</ele>
<time>2023-05-18T13:16:57Z</time>
</trkpt>
<trkpt lat="49.290132969617844" lon="8.128172988072038">
<ele>212.39999999999998</ele>
<time>2023-05-18T13:16:58Z</time>
</trkpt>
<trkpt lat="49.29007697850466" lon="8.128172988072038">
<ele>212.39999999999998</ele>
<time>2023-05-18T13:16:59Z</time>
</trkpt>
<trkpt lat="49.29002199321985" lon="8.128182962536812">
<ele>212.20000000000005</ele>
<time>2023-05-18T13:17:00Z</time>
</trkpt>
<trkpt lat="49.289966924116015" lon="8.128197966143489">
<ele>212.20000000000005</ele>
<time>2023-05-18T13:17:01Z</time>
</trkpt>
<trkpt lat="49.28990992717445" lon="8.128212969750166">
<ele>212.20000000000005</ele>
<time>2023-05-18T13:17:02Z</time>
</trkpt>
<trkpt lat="49.28985293023288" lon="8.128231996670365">
<ele>212.20000000000005</ele>
<time>2023-05-18T13:17:03Z</time>
</trkpt>
<trkpt lat="49.2897969391197" lon="8.128252951428294">
<ele>212</ele>
<time>2023-05-18T13:17:04Z</time>
</trkpt>
<trkpt lat="49.28973793052137" lon="8.128276923671365">
<ele>211.79999999999995</ele>
<time>2023-05-18T13:17:05Z</time>
</trkpt>
<trkpt lat="49.28968193940818" lon="8.128301985561848">
<ele>211.79999999999995</ele>
<time>2023-05-18T13:17:06Z</time>
</trkpt>
<trkpt lat="49.289622930809855" lon="8.128331992775202">
<ele>211.60000000000002</ele>
<time>2023-05-18T13:17:07Z</time>
</trkpt>
<trkpt lat="49.28956794552505" lon="8.128364933654666">
<ele>211.39999999999998</ele>
<time>2023-05-18T13:17:08Z</time>
</trkpt>
<trkpt lat="49.28951798938215" lon="8.12839494086802">
<ele>211.20000000000005</ele>
<time>2023-05-18T13:17:09Z</time>
</trkpt>
<trkpt lat="49.289467949420214" lon="8.128426959738135">
<ele>211.20000000000005</ele>
<time>2023-05-18T13:17:10Z</time>
</trkpt>
<trkpt lat="49.28941992111504" lon="8.128454955294728">
<ele>211</ele>
<time>2023-05-18T13:17:11Z</time>
</trkpt>
<trkpt lat="49.28937499411404" lon="8.128477921709418">
<ele>210.79999999999995</ele>
<time>2023-05-18T13:17:12Z</time>
</trkpt>
<trkpt lat="49.28933492861688" lon="8.12849996611476">
<ele>210.60000000000002</ele>
<time>2023-05-18T13:17:13Z</time>
</trkpt>
<trkpt lat="49.289299976080656" lon="8.128516981378198">
<ele>210.60000000000002</ele>
<time>2023-05-18T13:17:14Z</time>
</trkpt>
<trkpt lat="49.28926695138216" lon="8.128527961671352">
<ele>210.39999999999998</ele>
<time>2023-05-18T13:17:15Z</time>
</trkpt>
<trkpt lat="49.28923794999719" lon="8.128534918650985">
<ele>210.20000000000005</ele>
<time>2023-05-18T13:17:16Z</time>
</trkpt>
<trkpt lat="49.289212971925735" lon="8.128541959449649">
<ele>210</ele>
<time>2023-05-18T13:17:17Z</time>
</trkpt>
<trkpt lat="49.28919696249068" lon="8.128546988591552">
<ele>210</ele>
<time>2023-05-18T13:17:18Z</time>
</trkpt>
<trkpt lat="49.289191933348775" lon="8.128547994419932">
<ele>210</ele>
<time>2023-05-18T13:17:19Z</time>
</trkpt>
<trkpt lat="49.28915698081255" lon="8.128521926701069">
<ele>209.20000000000005</ele>
<time>2023-05-18T13:17:21Z</time>
</trkpt>
<trkpt lat="49.28913493640721" lon="8.128511952236295">
<ele>209.20000000000005</ele>
<time>2023-05-18T13:17:22Z</time>
</trkpt>
<trkpt lat="49.289107946678996" lon="8.128506923094392">
<ele>209.20000000000005</ele>
<time>2023-05-18T13:17:23Z</time>
</trkpt>
<trkpt lat="49.28907793946564" lon="8.12850197777152">
<ele>209.20000000000005</ele>
<time>2023-05-18T13:17:24Z</time>
</trkpt>
<trkpt lat="49.28904499858618" lon="8.128492925316095">
<ele>209</ele>
<time>2023-05-18T13:17:25Z</time>
</trkpt>
<trkpt lat="49.28900795057416" lon="8.128477921709418">
<ele>209</ele>
<time>2023-05-18T13:17:26Z</time>
</trkpt>
<trkpt lat="49.28896495141089" lon="8.128459984436631">
<ele>209</ele>
<time>2023-05-18T13:17:27Z</time>
</trkpt>
<trkpt lat="49.28891994059086" lon="8.128432994708419">
<ele>208.79999999999995</ele>
<time>2023-05-18T13:17:28Z</time>
</trkpt>
<trkpt lat="49.288872918114066" lon="8.128404999151826">
<ele>208.79999999999995</ele>
<time>2023-05-18T13:17:29Z</time>
</trkpt>
<trkpt lat="49.288826985284686" lon="8.128374991938472">
<ele>208.60000000000002</ele>
<time>2023-05-18T13:17:30Z</time>
</trkpt>
<trkpt lat="49.28877795115113" lon="8.128347918391228">
<ele>208.39999999999998</ele>
<time>2023-05-18T13:17:31Z</time>
</trkpt>
<trkpt lat="49.28872799500823" lon="8.128316989168525">
<ele>208.39999999999998</ele>
<time>2023-05-18T13:17:32Z</time>
</trkpt>
<trkpt lat="49.288676949217916" lon="8.128282958641648">
<ele>208.20000000000005</ele>
<time>2023-05-18T13:17:33Z</time>
</trkpt>
<trkpt lat="49.28862699307501" lon="8.128249933943152">
<ele>208</ele>
<time>2023-05-18T13:17:34Z</time>
</trkpt>
<trkpt lat="49.28857795894146" lon="8.128211963921785">
<ele>208</ele>
<time>2023-05-18T13:17:35Z</time>
</trkpt>
<trkpt lat="49.28853194229305" lon="8.128169970586896">
<ele>207.79999999999995</ele>
<time>2023-05-18T13:17:36Z</time>
</trkpt>
<trkpt lat="49.288481986150146" lon="8.128131916746497">
<ele>207.60000000000002</ele>
<time>2023-05-18T13:17:37Z</time>
</trkpt>
<trkpt lat="49.28843295201659" lon="8.128096964210272">
<ele>207.39999999999998</ele>
<time>2023-05-18T13:17:38Z</time>
</trkpt>
<trkpt lat="49.28838199004531" lon="8.128059916198254">
<ele>207.39999999999998</ele>
<time>2023-05-18T13:17:39Z</time>
</trkpt>
<trkpt lat="49.288332955911756" lon="8.128022952005267">
<ele>207.20000000000005</ele>
<time>2023-05-18T13:17:40Z</time>
</trkpt>
<trkpt lat="49.28828492760658" lon="8.1279849819839">
<ele>207</ele>
<time>2023-05-18T13:17:41Z</time>
</trkpt>
<trkpt lat="49.28823497146368" lon="8.12794491648674">
<ele>206.79999999999995</ele>
<time>2023-05-18T13:17:42Z</time>
</trkpt>
<trkpt lat="49.28818694315851" lon="8.127909963950515">
<ele>206.79999999999995</ele>
<time>2023-05-18T13:17:43Z</time>
</trkpt>
<trkpt lat="49.288139920681715" lon="8.127871993929148">
<ele>206.60000000000002</ele>
<time>2023-05-18T13:17:44Z</time>
</trkpt>
<trkpt lat="49.288092982023954" lon="8.12783494591713">
<ele>206.39999999999998</ele>
<time>2023-05-18T13:17:45Z</time>
</trkpt>
<trkpt lat="49.28804495371878" lon="8.127796975895762">
<ele>206.20000000000005</ele>
<time>2023-05-18T13:17:46Z</time>
</trkpt>
<trkpt lat="49.28799692541361" lon="8.127759927883744">
<ele>206.20000000000005</ele>
<time>2023-05-18T13:17:47Z</time>
</trkpt>
<trkpt lat="49.28794797509909" lon="8.12772698700428">
<ele>206</ele>
<time>2023-05-18T13:17:48Z</time>
</trkpt>
<trkpt lat="49.287899946793914" lon="8.127694968134165">
<ele>205.79999999999995</ele>
<time>2023-05-18T13:17:49Z</time>
</trkpt>
<trkpt lat="49.28785191848874" lon="8.127661943435669">
<ele>205.60000000000002</ele>
<time>2023-05-18T13:17:50Z</time>
</trkpt>
<trkpt lat="49.28780196234584" lon="8.127626990899444">
<ele>205.39999999999998</ele>
<time>2023-05-18T13:17:51Z</time>
</trkpt>
<trkpt lat="49.287751922383904" lon="8.127592960372567">
<ele>205.39999999999998</ele>
<time>2023-05-18T13:17:52Z</time>
</trkpt>
<trkpt lat="49.28769995458424" lon="8.127559935674071">
<ele>205.20000000000005</ele>
<time>2023-05-18T13:17:53Z</time>
</trkpt>
<trkpt lat="49.28764999844134" lon="8.127526994794607">
<ele>205</ele>
<time>2023-05-18T13:17:54Z</time>
</trkpt>
<trkpt lat="49.287602975964546" lon="8.127494975924492">
<ele>204.79999999999995</ele>
<time>2023-05-18T13:17:55Z</time>
</trkpt>
<trkpt lat="49.287556959316134" lon="8.127459939569235">
<ele>204.79999999999995</ele>
<time>2023-05-18T13:17:56Z</time>
</trkpt>
<trkpt lat="49.28750993683934" lon="8.12742993235588">
<ele>204.60000000000002</ele>
<time>2023-05-18T13:17:57Z</time>
</trkpt>
<trkpt lat="49.2874619923532" lon="8.127401936799288">
<ele>204.39999999999998</ele>
<time>2023-05-18T13:17:58Z</time>
</trkpt>
<trkpt lat="49.28741295821965" lon="8.127372935414314">
<ele>204.20000000000005</ele>
<time>2023-05-18T13:17:59Z</time>
</trkpt>
<trkpt lat="49.28736291825771" lon="8.12734292820096">
<ele>204</ele>
<time>2023-05-18T13:18:00Z</time>
</trkpt>
<trkpt lat="49.28730994462967" lon="8.127321973443031">
<ele>203.79999999999995</ele>
<time>2023-05-18T13:18:01Z</time>
</trkpt>
<trkpt lat="49.287256971001625" lon="8.127302946522832">
<ele>203.60000000000002</ele>
<time>2023-05-18T13:18:02Z</time>
</trkpt>
<trkpt lat="49.28720491938293" lon="8.127282997593284">
<ele>203.39999999999998</ele>
<time>2023-05-18T13:18:03Z</time>
</trkpt>
<trkpt lat="49.287151945754886" lon="8.127262964844704">
<ele>203.20000000000005</ele>
<time>2023-05-18T13:18:04Z</time>
</trkpt>
<trkpt lat="49.28709796629846" lon="8.127246955409646">
<ele>203</ele>
<time>2023-05-18T13:18:05Z</time>
</trkpt>
<trkpt lat="49.28704792633653" lon="8.127231951802969">
<ele>202.60000000000002</ele>
<time>2023-05-18T13:18:06Z</time>
</trkpt>
<trkpt lat="49.28700299933553" lon="8.127216948196292">
<ele>202.39999999999998</ele>
<time>2023-05-18T13:18:07Z</time>
</trkpt>
<trkpt lat="49.286959916353226" lon="8.127202950417995">
<ele>202.20000000000005</ele>
<time>2023-05-18T13:18:08Z</time>
</trkpt>
<trkpt lat="49.286914989352226" lon="8.127192975953221">
<ele>202</ele>
<time>2023-05-18T13:18:09Z</time>
</trkpt>
<trkpt lat="49.28687299601734" lon="8.127184929326177">
<ele>201.79999999999995</ele>
<time>2023-05-18T13:18:10Z</time>
</trkpt>
<trkpt lat="49.28682999685407" lon="8.127177972346544">
<ele>201.60000000000002</ele>
<time>2023-05-18T13:18:11Z</time>
</trkpt>
<trkpt lat="49.28679194301367" lon="8.12717193737626">
<ele>201.20000000000005</ele>
<time>2023-05-18T13:18:12Z</time>
</trkpt>
<trkpt lat="49.28675497882068" lon="8.12716699205339">
<ele>201</ele>
<time>2023-05-18T13:18:13Z</time>
</trkpt>
<trkpt lat="49.286721954122186" lon="8.127162968739867">
<ele>200.79999999999995</ele>
<time>2023-05-18T13:18:14Z</time>
</trkpt>
<trkpt lat="49.28668297827244" lon="8.127161962911487">
<ele>200.39999999999998</ele>
<time>2023-05-18T13:18:15Z</time>
</trkpt>
<trkpt lat="49.28663796745241" lon="8.127156933769584">
<ele>200.20000000000005</ele>
<time>2023-05-18T13:18:16Z</time>
</trkpt>
<trkpt lat="49.28659496828914" lon="8.12714695930481">
<ele>200</ele>
<time>2023-05-18T13:18:17Z</time>
</trkpt>
<trkpt lat="49.286549957469106" lon="8.127136984840035">
<ele>199.79999999999995</ele>
<time>2023-05-18T13:18:18Z</time>
</trkpt>
<trkpt lat="49.286504946649075" lon="8.12712692655623">
<ele>199.60000000000002</ele>
<time>2023-05-18T13:18:19Z</time>
</trkpt>
<trkpt lat="49.28645792417228" lon="8.127119969576597">
<ele>199.20000000000005</ele>
<time>2023-05-18T13:18:20Z</time>
</trkpt>
<trkpt lat="49.28641299717128" lon="8.127121981233358">
<ele>199</ele>
<time>2023-05-18T13:18:21Z</time>
</trkpt>
<trkpt lat="49.28636999800801" lon="8.127131955698133">
<ele>198.79999999999995</ele>
<time>2023-05-18T13:18:22Z</time>
</trkpt>
<trkpt lat="49.28632699884474" lon="8.12714695930481">
<ele>198.39999999999998</ele>
<time>2023-05-18T13:18:23Z</time>
</trkpt>
<trkpt lat="49.28628299385309" lon="8.127159951254725">
<ele>198.20000000000005</ele>
<time>2023-05-18T13:18:24Z</time>
</trkpt>
<trkpt lat="49.28623798303306" lon="8.12717193737626">
<ele>198</ele>
<time>2023-05-18T13:18:25Z</time>
</trkpt>
<trkpt lat="49.28618995472789" lon="8.127179984003305">
<ele>197.79999999999995</ele>
<time>2023-05-18T13:18:26Z</time>
</trkpt>
<trkpt lat="49.286142932251096" lon="8.127184929326177">
<ele>197.39999999999998</ele>
<time>2023-05-18T13:18:27Z</time>
</trkpt>
<trkpt lat="49.286094987764955" lon="8.12718995846808">
<ele>197.20000000000005</ele>
<time>2023-05-18T13:18:28Z</time>
</trkpt>
<trkpt lat="49.28604293614626" lon="8.127192975953221">
<ele>197</ele>
<time>2023-05-18T13:18:29Z</time>
</trkpt>
<trkpt lat="49.28599499166012" lon="8.127197921276093">
<ele>196.79999999999995</ele>
<time>2023-05-18T13:18:30Z</time>
</trkpt>
<trkpt lat="49.285947969183326" lon="8.127204962074757">
<ele>196.60000000000002</ele>
<time>2023-05-18T13:18:31Z</time>
</trkpt>
<trkpt lat="49.285904970020056" lon="8.127206973731518">
<ele>196.39999999999998</ele>
<time>2023-05-18T13:18:32Z</time>
</trkpt>
<trkpt lat="49.2858699336648" lon="8.127207979559898">
<ele>196.20000000000005</ele>
<time>2023-05-18T13:18:33Z</time>
</trkpt>
<trkpt lat="49.28583498112857" lon="8.12720999121666">
<ele>196</ele>
<time>2023-05-18T13:18:34Z</time>
</trkpt>
<trkpt lat="49.285794999450445" lon="8.127207979559898">
<ele>195.79999999999995</ele>
<time>2023-05-18T13:18:35Z</time>
</trkpt>
<trkpt lat="49.28574797697365" lon="8.127206973731518">
<ele>195.60000000000002</ele>
<time>2023-05-18T13:18:36Z</time>
</trkpt>
<trkpt lat="49.28569994866848" lon="8.127201944589615">
<ele>195.39999999999998</ele>
<time>2023-05-18T13:18:37Z</time>
</trkpt>
<trkpt lat="49.28565292619169" lon="8.127199932932854">
<ele>195.20000000000005</ele>
<time>2023-05-18T13:18:38Z</time>
</trkpt>
<trkpt lat="49.28561294451356" lon="8.127206973731518">
<ele>195</ele>
<time>2023-05-18T13:18:39Z</time>
</trkpt>
<trkpt lat="49.285584948956966" lon="8.127211919054389">
<ele>194.79999999999995</ele>
<time>2023-05-18T13:18:40Z</time>
</trkpt>
<trkpt lat="49.28556298837066" lon="8.127216948196292">
<ele>194.60000000000002</ele>
<time>2023-05-18T13:18:41Z</time>
</trkpt>
<trkpt lat="49.285537926480174" lon="8.127219965681434">
<ele>194.39999999999998</ele>
<time>2023-05-18T13:18:42Z</time>
</trkpt>
<trkpt lat="49.285514960065484" lon="8.127224994823337">
<ele>194.20000000000005</ele>
<time>2023-05-18T13:18:43Z</time>
</trkpt>
<trkpt lat="49.28548696450889" lon="8.127222983166575">
<ele>194</ele>
<time>2023-05-18T13:18:44Z</time>
</trkpt>
<trkpt lat="49.28545695729554" lon="8.127211919054389">
<ele>194</ele>
<time>2023-05-18T13:18:45Z</time>
</trkpt>
<trkpt lat="49.28542192094028" lon="8.127194987609982">
<ele>193.79999999999995</ele>
<time>2023-05-18T13:18:46Z</time>
</trkpt>
<trkpt lat="49.28538294509053" lon="8.127179984003305">
<ele>193.60000000000002</ele>
<time>2023-05-18T13:18:47Z</time>
</trkpt>
<trkpt lat="49.28533994592726" lon="8.12716699205339">
<ele>193.39999999999998</ele>
<time>2023-05-18T13:18:48Z</time>
</trkpt>
<trkpt lat="49.28529694676399" lon="8.127151988446712">
<ele>193.39999999999998</ele>
<time>2023-05-18T13:18:49Z</time>
</trkpt>
<trkpt lat="49.28525193594396" lon="8.127132961526513">
<ele>193.20000000000005</ele>
<time>2023-05-18T13:18:50Z</time>
</trkpt>
<trkpt lat="49.2852049972862" lon="8.1271249987185">
<ele>193.20000000000005</ele>
<time>2023-05-18T13:18:51Z</time>
</trkpt>
<trkpt lat="49.285154957324266" lon="8.127119969576597">
<ele>193</ele>
<time>2023-05-18T13:18:52Z</time>
</trkpt>
<trkpt lat="49.28510491736233" lon="8.127119969576597">
<ele>193</ele>
<time>2023-05-18T13:18:53Z</time>
</trkpt>
<trkpt lat="49.28505294956267" lon="8.127121981233358">
<ele>193</ele>
<time>2023-05-18T13:18:54Z</time>
</trkpt>
<trkpt lat="49.285002993419766" lon="8.127122987061739">
<ele>192.79999999999995</ele>
<time>2023-05-18T13:18:55Z</time>
</trkpt>
<trkpt lat="49.28495194762945" lon="8.127131955698133">
<ele>192.79999999999995</ele>
<time>2023-05-18T13:18:56Z</time>
</trkpt>
<trkpt lat="49.28489997982979" lon="8.127137990668416">
<ele>192.79999999999995</ele>
<time>2023-05-18T13:18:57Z</time>
</trkpt>
<trkpt lat="49.28484792821109" lon="8.12714796513319">
<ele>192.79999999999995</ele>
<time>2023-05-18T13:18:58Z</time>
</trkpt>
<trkpt lat="49.28479797206819" lon="8.127154922112823">
<ele>192.79999999999995</ele>
<time>2023-05-18T13:18:59Z</time>
</trkpt>
<trkpt lat="49.28475296124816" lon="8.127159951254725">
<ele>192.79999999999995</ele>
<time>2023-05-18T13:19:00Z</time>
</trkpt>
<trkpt lat="49.28471197374165" lon="8.12716699205339">
<ele>192.79999999999995</ele>
<time>2023-05-18T13:19:01Z</time>
</trkpt>
<trkpt lat="49.28466998040676" lon="8.12717193737626">
<ele>192.79999999999995</ele>
<time>2023-05-18T13:19:02Z</time>
</trkpt>
<trkpt lat="49.28462496958673" lon="8.127176966518164">
<ele>192.79999999999995</ele>
<time>2023-05-18T13:19:03Z</time>
</trkpt>
<trkpt lat="49.2845799587667" lon="8.127176966518164">
<ele>192.79999999999995</ele>
<time>2023-05-18T13:19:04Z</time>
</trkpt>
<trkpt lat="49.284531930461526" lon="8.127174954861403">
<ele>192.79999999999995</ele>
<time>2023-05-18T13:19:05Z</time>
</trkpt>
<trkpt lat="49.284482980147004" lon="8.127177972346544">
<ele>192.79999999999995</ele>
<time>2023-05-18T13:19:06Z</time>
</trkpt>
<trkpt lat="49.284439980983734" lon="8.12719197012484">
<ele>192.79999999999995</ele>
<time>2023-05-18T13:19:07Z</time>
</trkpt>
<trkpt lat="49.28439195267856" lon="8.127199932932854">
<ele>192.79999999999995</ele>
<time>2023-05-18T13:19:08Z</time>
</trkpt>
<trkpt lat="49.28434291854501" lon="8.127199932932854">
<ele>192.79999999999995</ele>
<time>2023-05-18T13:19:09Z</time>
</trkpt>
<trkpt lat="49.2842879332602" lon="8.127196999266744">
<ele>193</ele>
<time>2023-05-18T13:19:10Z</time>
</trkpt>
<trkpt lat="49.284229930490255" lon="8.127197921276093">
<ele>193</ele>
<time>2023-05-18T13:19:11Z</time>
</trkpt>
<trkpt lat="49.28417796269059" lon="8.127199932932854">
<ele>193.20000000000005</ele>
<time>2023-05-18T13:19:12Z</time>
</trkpt>
<trkpt lat="49.28412792272866" lon="8.127199932932854">
<ele>193.20000000000005</ele>
<time>2023-05-18T13:19:13Z</time>
</trkpt>
<trkpt lat="49.284076960757375" lon="8.127201944589615">
<ele>193.20000000000005</ele>
<time>2023-05-18T13:19:14Z</time>
</trkpt>
<trkpt lat="49.28402792662382" lon="8.127206973731518">
<ele>193.20000000000005</ele>
<time>2023-05-18T13:19:15Z</time>
</trkpt>
<trkpt lat="49.28397797048092" lon="8.127211919054389">
<ele>193.39999999999998</ele>
<time>2023-05-18T13:19:16Z</time>
</trkpt>
<trkpt lat="49.28393195383251" lon="8.12721493653953">
<ele>193.39999999999998</ele>
<time>2023-05-18T13:19:17Z</time>
</trkpt>
<trkpt lat="49.283886943012476" lon="8.127222983166575">
<ele>193.39999999999998</ele>
<time>2023-05-18T13:19:18Z</time>
</trkpt>
<trkpt lat="49.28384494967759" lon="8.127229940146208">
<ele>193.39999999999998</ele>
<time>2023-05-18T13:19:19Z</time>
</trkpt>
<trkpt lat="49.2838029563427" lon="8.127237986773252">
<ele>193.60000000000002</ele>
<time>2023-05-18T13:19:20Z</time>
</trkpt>
<trkpt lat="49.28375995717943" lon="8.127244943752885">
<ele>193.60000000000002</ele>
<time>2023-05-18T13:19:21Z</time>
</trkpt>
<trkpt lat="49.28372793830931" lon="8.12725299037993">
<ele>193.79999999999995</ele>
<time>2023-05-18T13:19:22Z</time>
</trkpt>
<trkpt lat="49.28368493914604" lon="8.127259947359562">
<ele>193.79999999999995</ele>
<time>2023-05-18T13:19:23Z</time>
</trkpt>
<trkpt lat="49.283644957467914" lon="8.127264976501465">
<ele>193.79999999999995</ele>
<time>2023-05-18T13:19:24Z</time>
</trkpt>
<trkpt lat="49.283602964133024" lon="8.127269921824336">
<ele>194</ele>
<time>2023-05-18T13:19:25Z</time>
</trkpt>
<trkpt lat="49.28356792777777" lon="8.127272939309478">
<ele>194</ele>
<time>2023-05-18T13:19:26Z</time>
</trkpt>
<trkpt lat="49.2835349868983" lon="8.127276962623">
<ele>194</ele>
<time>2023-05-18T13:19:27Z</time>
</trkpt>
<trkpt lat="49.28351193666458" lon="8.127282997593284">
<ele>194.20000000000005</ele>
<time>2023-05-18T13:19:28Z</time>
</trkpt>
<trkpt lat="49.28348997607827" lon="8.127282997593284">
<ele>194.20000000000005</ele>
<time>2023-05-18T13:19:29Z</time>
</trkpt>
<trkpt lat="49.28346793167293" lon="8.127287942916155">
<ele>194.20000000000005</ele>
<time>2023-05-18T13:19:30Z</time>
</trkpt>
<trkpt lat="49.28344295360148" lon="8.127287942916155">
<ele>194.20000000000005</ele>
<time>2023-05-18T13:19:31Z</time>
</trkpt>
<trkpt lat="49.28341797553003" lon="8.127291966229677">
<ele>194.39999999999998</ele>
<time>2023-05-18T13:19:32Z</time>
</trkpt>
<trkpt lat="49.28339995443821" lon="8.12729699537158">
<ele>194.39999999999998</ele>
<time>2023-05-18T13:19:33Z</time>
</trkpt>
<trkpt lat="49.2833779938519" lon="8.127302946522832">
<ele>194.60000000000002</ele>
<time>2023-05-18T13:19:34Z</time>
</trkpt>
<trkpt lat="49.28335494361818" lon="8.127307975664735">
<ele>194.60000000000002</ele>
<time>2023-05-18T13:19:35Z</time>
</trkpt>
<trkpt lat="49.28334195166826" lon="8.127311998978257">
<ele>194.60000000000002</ele>
<time>2023-05-18T13:19:36Z</time>
</trkpt>
<trkpt lat="49.28332996554673" lon="8.127314932644367">
<ele>194.60000000000002</ele>
<time>2023-05-18T13:19:37Z</time>
</trkpt>
<trkpt lat="49.28330699913204" lon="8.127316944301128">
<ele>194.79999999999995</ele>
<time>2023-05-18T13:19:38Z</time>
</trkpt>
<trkpt lat="49.28327296860516" lon="8.127321973443031">
<ele>194.79999999999995</ele>
<time>2023-05-18T13:19:39Z</time>
</trkpt>
<trkpt lat="49.28323198109865" lon="8.127326918765903">
<ele>194.79999999999995</ele>
<time>2023-05-18T13:19:40Z</time>
</trkpt>
<trkpt lat="49.283191999420524" lon="8.127334965392947">
<ele>194.79999999999995</ele>
<time>2023-05-18T13:19:41Z</time>
</trkpt>
<trkpt lat="49.28314296528697" lon="8.12734292820096">
<ele>194.79999999999995</ele>
<time>2023-05-18T13:19:42Z</time>
</trkpt>
<trkpt lat="49.283092925325036" lon="8.127351980656385">
<ele>195</ele>
<time>2023-05-18T13:19:43Z</time>
</trkpt>
<trkpt lat="49.28305294364691" lon="8.127354998141527">
<ele>195</ele>
<time>2023-05-18T13:19:44Z</time>
</trkpt>
<trkpt lat="49.28300793282688" lon="8.127364972606301">
<ele>195</ele>
<time>2023-05-18T13:19:45Z</time>
</trkpt>
<trkpt lat="49.28296694532037" lon="8.127367990091443">
<ele>195</ele>
<time>2023-05-18T13:19:46Z</time>
</trkpt>
<trkpt lat="49.28292998112738" lon="8.127369917929173">
<ele>195</ele>
<time>2023-05-18T13:19:47Z</time>
</trkpt>
<trkpt lat="49.28289997391403" lon="8.127367990091443">
<ele>195</ele>
<time>2023-05-18T13:19:48Z</time>
</trkpt>
<trkpt lat="49.28286996670067" lon="8.127364972606301">
<ele>195.20000000000005</ele>
<time>2023-05-18T13:19:49Z</time>
</trkpt>
<trkpt lat="49.282831996679306" lon="8.127364972606301">
<ele>195.20000000000005</ele>
<time>2023-05-18T13:19:50Z</time>
</trkpt>
<trkpt lat="49.28279796615243" lon="8.127357931807637">
<ele>195.20000000000005</ele>
<time>2023-05-18T13:19:51Z</time>
</trkpt>
<trkpt lat="49.282766953110695" lon="8.127346951514482">
<ele>195.39999999999998</ele>
<time>2023-05-18T13:19:52Z</time>
</trkpt>
<trkpt lat="49.28273292258382" lon="8.127329936251044">
<ele>195.39999999999998</ele>
<time>2023-05-18T13:19:53Z</time>
</trkpt>
<trkpt lat="49.28269797004759" lon="8.127312920987606">
<ele>195.60000000000002</ele>
<time>2023-05-18T13:19:54Z</time>
</trkpt>
<trkpt lat="49.2826649453491" lon="8.127297917380929">
<ele>195.60000000000002</ele>
<time>2023-05-18T13:19:55Z</time>
</trkpt>
<trkpt lat="49.28262999281287" lon="8.127286937087774">
<ele>195.79999999999995</ele>
<time>2023-05-18T13:19:56Z</time>
</trkpt>
<trkpt lat="49.28259797394276" lon="8.127267993986607">
<ele>195.79999999999995</ele>
<time>2023-05-18T13:19:57Z</time>
</trkpt>
<trkpt lat="49.2825679667294" lon="8.127247961238027">
<ele>196</ele>
<time>2023-05-18T13:19:58Z</time>
</trkpt>
<trkpt lat="49.28253494203091" lon="8.12723295763135">
<ele>196</ele>
<time>2023-05-18T13:19:59Z</time>
</trkpt>
<trkpt lat="49.28250191733241" lon="8.127222983166575">
<ele>196.20000000000005</ele>
<time>2023-05-18T13:20:00Z</time>
</trkpt>
<trkpt lat="49.28247199393809" lon="8.12721493653953">
<ele>196.20000000000005</ele>
<time>2023-05-18T13:20:01Z</time>
</trkpt>
<trkpt lat="49.282441986724734" lon="8.127211919054389">
<ele>196.39999999999998</ele>
<time>2023-05-18T13:20:02Z</time>
</trkpt>
<trkpt lat="49.28240695036948" lon="8.12721493653953">
<ele>196.39999999999998</ele>
<time>2023-05-18T13:20:03Z</time>
</trkpt>
<trkpt lat="49.2823729198426" lon="8.127221977338195">
<ele>196.39999999999998</ele>
<time>2023-05-18T13:20:04Z</time>
</trkpt>
<trkpt lat="49.2823419906199" lon="8.127224994823337">
<ele>196.60000000000002</ele>
<time>2023-05-18T13:20:05Z</time>
</trkpt>
<trkpt lat="49.28230997174978" lon="8.127226922661066">
<ele>196.60000000000002</ele>
<time>2023-05-18T13:20:06Z</time>
</trkpt>
<trkpt lat="49.28227795287967" lon="8.127231951802969">
<ele>196.79999999999995</ele>
<time>2023-05-18T13:20:07Z</time>
</trkpt>
<trkpt lat="49.282249957323074" lon="8.127237986773252">
<ele>196.79999999999995</ele>
<time>2023-05-18T13:20:08Z</time>
</trkpt>
<trkpt lat="49.28222196176648" lon="8.127239998430014">
<ele>196.79999999999995</ele>
<time>2023-05-18T13:20:09Z</time>
</trkpt>
<trkpt lat="49.282189942896366" lon="8.127247961238027">
<ele>196.79999999999995</ele>
<time>2023-05-18T13:20:10Z</time>
</trkpt>
<trkpt lat="49.28215993568301" lon="8.127254918217659">
<ele>197</ele>
<time>2023-05-18T13:20:11Z</time>
</trkpt>
<trkpt lat="49.2821279168129" lon="8.127251984551549">
<ele>197</ele>
<time>2023-05-18T13:20:12Z</time>
</trkpt>
<trkpt lat="49.28209497593343" lon="8.12725299037993">
<ele>197</ele>
<time>2023-05-18T13:20:13Z</time>
</trkpt>
<trkpt lat="49.282057927921414" lon="8.127254918217659">
<ele>197</ele>
<time>2023-05-18T13:20:14Z</time>
</trkpt>
<trkpt lat="49.28202297538519" lon="8.1272579357028">
<ele>197.20000000000005</ele>
<time>2023-05-18T13:20:15Z</time>
</trkpt>
<trkpt lat="49.28198995068669" lon="8.127261959016323">
<ele>197.20000000000005</ele>
<time>2023-05-18T13:20:16Z</time>
</trkpt>
<trkpt lat="49.28195994347334" lon="8.1272579357028">
<ele>197.20000000000005</ele>
<time>2023-05-18T13:20:17Z</time>
</trkpt>
<trkpt lat="49.28193295374513" lon="8.127241926267743">
<ele>197.20000000000005</ele>
<time>2023-05-18T13:20:18Z</time>
</trkpt>
<trkpt lat="49.28189992904663" lon="8.12723295763135">
<ele>197.20000000000005</ele>
<time>2023-05-18T13:20:19Z</time>
</trkpt>
<trkpt lat="49.281862964853644" lon="8.127231951802969">
<ele>197.20000000000005</ele>
<time>2023-05-18T13:20:20Z</time>
</trkpt>
<trkpt lat="49.28182994015515" lon="8.127227928489447">
<ele>197</ele>
<time>2023-05-18T13:20:21Z</time>
</trkpt>
<trkpt lat="49.281799932941794" lon="8.127227928489447">
<ele>197</ele>
<time>2023-05-18T13:20:22Z</time>
</trkpt>
<trkpt lat="49.28176992572844" lon="8.127222983166575">
<ele>197</ele>
<time>2023-05-18T13:20:23Z</time>
</trkpt>
<trkpt lat="49.28172994405031" lon="8.12721493653953">
<ele>197</ele>
<time>2023-05-18T13:20:24Z</time>
</trkpt>
<trkpt lat="49.28170496597886" lon="8.127211919054389">
<ele>196.79999999999995</ele>
<time>2023-05-18T13:20:25Z</time>
</trkpt>
<trkpt lat="49.28167998790741" lon="8.127211919054389">
<ele>196.79999999999995</ele>
<time>2023-05-18T13:20:26Z</time>
</trkpt>
<trkpt lat="49.2816529981792" lon="8.127206973731518">
<ele>196.79999999999995</ele>
<time>2023-05-18T13:20:27Z</time>
</trkpt>
<trkpt lat="49.28161695599556" lon="8.127216948196292">
<ele>196.60000000000002</ele>
<time>2023-05-18T13:20:28Z</time>
</trkpt>
<trkpt lat="49.28158996626735" lon="8.12721493653953">
<ele>196.60000000000002</ele>
<time>2023-05-18T13:20:29Z</time>
</trkpt>
<trkpt lat="49.28156993351877" lon="8.127211919054389">
<ele>196.39999999999998</ele>
<time>2023-05-18T13:20:30Z</time>
</trkpt>
<trkpt lat="49.281542943790555" lon="8.127207979559898">
<ele>196.20000000000005</ele>
<time>2023-05-18T13:20:31Z</time>
</trkpt>
<trkpt lat="49.28151193074882" lon="8.127204962074757">
<ele>196</ele>
<time>2023-05-18T13:20:32Z</time>
</trkpt>
<trkpt lat="49.28148494102061" lon="8.12718995846808">
<ele>195.79999999999995</ele>
<time>2023-05-18T13:20:33Z</time>
</trkpt>
<trkpt lat="49.28146993741393" lon="8.127161962911487">
<ele>195.60000000000002</ele>
<time>2023-05-18T13:20:34Z</time>
</trkpt>
<trkpt lat="49.2814629804343" lon="8.127074958756566">
<ele>195.39999999999998</ele>
<time>2023-05-18T13:20:35Z</time>
</trkpt>
<trkpt lat="49.28146499209106" lon="8.126984937116504">
<ele>195.20000000000005</ele>
<time>2023-05-18T13:20:36Z</time>
</trkpt>
<trkpt lat="49.28146499209106" lon="8.126927940174937">
<ele>195.20000000000005</ele>
<time>2023-05-18T13:20:37Z</time>
</trkpt>
<trkpt lat="49.28145996294916" lon="8.126872954890132">
<ele>195</ele>
<time>2023-05-18T13:20:38Z</time>
</trkpt>
<trkpt lat="49.28146197460592" lon="8.126819981262088">
<ele>195</ele>
<time>2023-05-18T13:20:39Z</time>
</trkpt>
<trkpt lat="49.28146499209106" lon="8.126757955178618">
<ele>195</ele>
<time>2023-05-18T13:20:40Z</time>
</trkpt>
<trkpt lat="49.28146197460592" lon="8.126694923266768">
<ele>195</ele>
<time>2023-05-18T13:20:41Z</time>
</trkpt>
<trkpt lat="49.28146792575717" lon="8.126637926325202">
<ele>195.20000000000005</ele>
<time>2023-05-18T13:20:42Z</time>
</trkpt>
<trkpt lat="49.28147194907069" lon="8.126582941040397">
<ele>195.20000000000005</ele>
<time>2023-05-18T13:20:43Z</time>
</trkpt>
<trkpt lat="49.28147194907069" lon="8.12652694992721">
<ele>195.20000000000005</ele>
<time>2023-05-18T13:20:44Z</time>
</trkpt>
<trkpt lat="49.281474966555834" lon="8.126474982127547">
<ele>195.20000000000005</ele>
<time>2023-05-18T13:20:45Z</time>
</trkpt>
<trkpt lat="49.28147295489907" lon="8.126424942165613">
<ele>195.20000000000005</ele>
<time>2023-05-18T13:20:46Z</time>
</trkpt>
<trkpt lat="49.28146792575717" lon="8.12637498602271">
<ele>195.20000000000005</ele>
<time>2023-05-18T13:20:47Z</time>
</trkpt>
<trkpt lat="49.2814629804343" lon="8.126317989081144">
<ele>195.20000000000005</ele>
<time>2023-05-18T13:20:48Z</time>
</trkpt>
<trkpt lat="49.2814629804343" lon="8.126262919977307">
<ele>195.20000000000005</ele>
<time>2023-05-18T13:20:49Z</time>
</trkpt>
<trkpt lat="49.28145996294916" lon="8.126209946349263">
<ele>195.20000000000005</ele>
<time>2023-05-18T13:20:50Z</time>
</trkpt>
<trkpt lat="49.28146691992879" lon="8.1261579785496">
<ele>195.20000000000005</ele>
<time>2023-05-18T13:20:51Z</time>
</trkpt>
<trkpt lat="49.28146792575717" lon="8.126109950244427">
<ele>195.20000000000005</ele>
<time>2023-05-18T13:20:52Z</time>
</trkpt>
<trkpt lat="49.28146792575717" lon="8.126064939424396">
<ele>195.20000000000005</ele>
<time>2023-05-18T13:20:53Z</time>
</trkpt>
<trkpt lat="49.281474966555834" lon="8.126021940261126">
<ele>195.20000000000005</ele>
<time>2023-05-18T13:20:54Z</time>
</trkpt>
<trkpt lat="49.28148292936385" lon="8.125982964411378">
<ele>195.20000000000005</ele>
<time>2023-05-18T13:20:55Z</time>
</trkpt>
<trkpt lat="49.281476978212595" lon="8.125927979126573">
<ele>195.20000000000005</ele>
<time>2023-05-18T13:20:56Z</time>
</trkpt>
<trkpt lat="49.2814629804343" lon="8.125891936942935">
<ele>195.20000000000005</ele>
<time>2023-05-18T13:20:57Z</time>
</trkpt>
<trkpt lat="49.28144998848438" lon="8.125864947214723">
<ele>195.20000000000005</ele>
<time>2023-05-18T13:20:58Z</time>
</trkpt>
<trkpt lat="49.281431967392564" lon="8.125844998285174">
<ele>195.20000000000005</ele>
<time>2023-05-18T13:20:59Z</time>
</trkpt>
<trkpt lat="49.28140497766435" lon="8.125834940001369">
<ele>195.20000000000005</ele>
<time>2023-05-18T13:21:00Z</time>
</trkpt>
<trkpt lat="49.281374970451" lon="8.125832928344607">
<ele>195.20000000000005</ele>
<time>2023-05-18T13:21:01Z</time>
</trkpt>
<trkpt lat="49.2813419457525" lon="8.125834940001369">
<ele>195</ele>
<time>2023-05-18T13:21:02Z</time>
</trkpt>
<trkpt lat="49.28131193853915" lon="8.125834940001369">
<ele>195</ele>
<time>2023-05-18T13:21:03Z</time>
</trkpt>
<trkpt lat="49.281284948810935" lon="8.125832928344607">
<ele>194.79999999999995</ele>
<time>2023-05-18T13:21:04Z</time>
</trkpt>
<trkpt lat="49.281259970739484" lon="8.125832928344607">
<ele>194.60000000000002</ele>
<time>2023-05-18T13:21:05Z</time>
</trkpt>
<trkpt lat="49.28122694604099" lon="8.125827983021736">
<ele>194.60000000000002</ele>
<time>2023-05-18T13:21:06Z</time>
</trkpt>
<trkpt lat="49.281196938827634" lon="8.125819936394691">
<ele>194.20000000000005</ele>
<time>2023-05-18T13:21:07Z</time>
</trkpt>
<trkpt lat="49.28116994909942" lon="8.125806944444776">
<ele>194</ele>
<time>2023-05-18T13:21:08Z</time>
</trkpt>
<trkpt lat="49.28114497102797" lon="8.125786995515227">
<ele>193.79999999999995</ele>
<time>2023-05-18T13:21:09Z</time>
</trkpt>
<trkpt lat="49.28111999295652" lon="8.125761933624744">
<ele>193.60000000000002</ele>
<time>2023-05-18T13:21:10Z</time>
</trkpt>
<trkpt lat="49.28109996020794" lon="8.1257279869169">
<ele>193.39999999999998</ele>
<time>2023-05-18T13:21:11Z</time>
</trkpt>
<trkpt lat="49.28108495660126" lon="8.125692950561643">
<ele>193.20000000000005</ele>
<time>2023-05-18T13:21:12Z</time>
</trkpt>
<trkpt lat="49.28107297047973" lon="8.125676941126585">
<ele>193</ele>
<time>2023-05-18T13:21:13Z</time>
</trkpt>
<trkpt lat="49.28106299601495" lon="8.125656992197037">
<ele>192.79999999999995</ele>
<time>2023-05-18T13:21:14Z</time>
</trkpt>
<trkpt lat="49.28105696104467" lon="8.125632936134934">
<ele>192.60000000000002</ele>
<time>2023-05-18T13:21:15Z</time>
</trkpt>
<trkpt lat="49.281049920246005" lon="8.125614998862147">
<ele>192.39999999999998</ele>
<time>2023-05-18T13:21:16Z</time>
</trkpt>
<trkpt lat="49.28103491663933" lon="8.125594966113567">
<ele>192.39999999999998</ele>
<time>2023-05-18T13:21:17Z</time>
</trkpt>
<trkpt lat="49.281026953831315" lon="8.125584991648793">
<ele>192.20000000000005</ele>
<time>2023-05-18T13:21:18Z</time>
</trkpt>
<trkpt lat="49.28102293051779" lon="8.125582979992032">
<ele>192</ele>
<time>2023-05-18T13:21:19Z</time>
</trkpt>
<trkpt lat="49.28102192468941" lon="8.125584991648793">
<ele>192</ele>
<time>2023-05-18T13:21:20Z</time>
</trkpt>
<trkpt lat="49.28102192468941" lon="8.125582979992032">
<ele>191.79999999999995</ele>
<time>2023-05-18T13:21:21Z</time>
</trkpt>
<trkpt lat="49.28102192468941" lon="8.125581974163651">
<ele>191.79999999999995</ele>
<time>2023-05-18T13:21:22Z</time>
</trkpt>
<trkpt lat="49.28101999685168" lon="8.125581974163651">
<ele>191.60000000000002</ele>
<time>2023-05-18T13:21:23Z</time>
</trkpt>
<trkpt lat="49.28093793801963" lon="8.125539980828762">
<ele>191.20000000000005</ele>
<time>2023-05-18T13:21:23Z</time>
</trkpt>
<trkpt lat="49.28090994246304" lon="8.12553696334362">
<ele>191.20000000000005</ele>
<time>2023-05-18T13:21:24Z</time>
</trkpt>
<trkpt lat="49.280876917764544" lon="8.12553495168686">
<ele>191</ele>
<time>2023-05-18T13:21:25Z</time>
</trkpt>
<trkpt lat="49.28084498271346" lon="8.125532940030098">
<ele>190.79999999999995</ele>
<time>2023-05-18T13:21:26Z</time>
</trkpt>
<trkpt lat="49.280811958014965" lon="8.125537969172">
<ele>190.79999999999995</ele>
<time>2023-05-18T13:21:27Z</time>
</trkpt>
<trkpt lat="49.28078195080161" lon="8.125527994707227">
<ele>190.60000000000002</ele>
<time>2023-05-18T13:21:28Z</time>
</trkpt>
<trkpt lat="49.28075194358826" lon="8.125519948080182">
<ele>190.39999999999998</ele>
<time>2023-05-18T13:21:29Z</time>
</trkpt>
<trkpt lat="49.280726965516806" lon="8.125517936423421">
<ele>190</ele>
<time>2023-05-18T13:21:30Z</time>
</trkpt>
<trkpt lat="49.28070995025337" lon="8.125522965565324">
<ele>189.79999999999995</ele>
<time>2023-05-18T13:21:31Z</time>
</trkpt>
<trkpt lat="49.280707938596606" lon="8.125522965565324">
<ele>189.60000000000002</ele>
<time>2023-05-18T13:21:32Z</time>
</trkpt>
<trkpt lat="49.280707938596606" lon="8.125521959736943">
<ele>189.20000000000005</ele>
<time>2023-05-18T13:21:35Z</time>
</trkpt>
<trkpt lat="49.28067793138325" lon="8.12555992975831">
<ele>188.60000000000002</ele>
<time>2023-05-18T13:21:36Z</time>
</trkpt>
<trkpt lat="49.28066996857524" lon="8.125567976385355">
<ele>188.60000000000002</ele>
<time>2023-05-18T13:21:37Z</time>
</trkpt>
<trkpt lat="49.2806669510901" lon="8.125574933364987">
<ele>188.60000000000002</ele>
<time>2023-05-18T13:21:38Z</time>
</trkpt>
<trkpt lat="49.280662927776575" lon="8.125589936971664">
<ele>188.60000000000002</ele>
<time>2023-05-18T13:21:39Z</time>
</trkpt>
<trkpt lat="49.280659994110465" lon="8.125607958063483">
<ele>188.39999999999998</ele>
<time>2023-05-18T13:21:40Z</time>
</trkpt>
<trkpt lat="49.28065496496856" lon="8.125624973326921">
<ele>188.39999999999998</ele>
<time>2023-05-18T13:21:41Z</time>
</trkpt>
<trkpt lat="49.28065194748342" lon="8.12564198859036">
<ele>188.39999999999998</ele>
<time>2023-05-18T13:21:42Z</time>
</trkpt>
<trkpt lat="49.28064993582666" lon="8.125661937519908">
<ele>188.20000000000005</ele>
<time>2023-05-18T13:21:43Z</time>
</trkpt>
<trkpt lat="49.28065194748342" lon="8.125679958611727">
<ele>188.20000000000005</ele>
<time>2023-05-18T13:21:44Z</time>
</trkpt>
<trkpt lat="49.28065194748342" lon="8.125694962218404">
<ele>188.20000000000005</ele>
<time>2023-05-18T13:21:45Z</time>
</trkpt>
<trkpt lat="49.2806529533118" lon="8.12570795416832">
<ele>188.20000000000005</ele>
<time>2023-05-18T13:21:46Z</time>
</trkpt>
<trkpt lat="49.28065697662532" lon="8.125726981088519">
<ele>188.20000000000005</ele>
<time>2023-05-18T13:21:48Z</time>
</trkpt>
<trkpt lat="49.28065697662532" lon="8.125747935846448">
<ele>188</ele>
<time>2023-05-18T13:21:49Z</time>
</trkpt>
<trkpt lat="49.2806529533118" lon="8.12577299773693">
<ele>188</ele>
<time>2023-05-18T13:21:50Z</time>
</trkpt>
<trkpt lat="49.28064993582666" lon="8.125796969980001">
<ele>188</ele>
<time>2023-05-18T13:21:51Z</time>
</trkpt>
<trkpt lat="49.2806479241699" lon="8.125824965536594">
<ele>188</ele>
<time>2023-05-18T13:21:52Z</time>
</trkpt>
<trkpt lat="49.28064691834152" lon="8.125854972749949">
<ele>188</ele>
<time>2023-05-18T13:21:53Z</time>
</trkpt>
<trkpt lat="49.28064499050379" lon="8.125884979963303">
<ele>187.79999999999995</ele>
<time>2023-05-18T13:21:54Z</time>
</trkpt>
<trkpt lat="49.28064499050379" lon="8.125909958034754">
<ele>187.79999999999995</ele>
<time>2023-05-18T13:21:55Z</time>
</trkpt>
<trkpt lat="49.280641973018646" lon="8.125934936106205">
<ele>187.79999999999995</ele>
<time>2023-05-18T13:21:56Z</time>
</trkpt>
<trkpt lat="49.280637949705124" lon="8.125959997996688">
<ele>187.79999999999995</ele>
<time>2023-05-18T13:21:57Z</time>
</trkpt>
<trkpt lat="49.28063292056322" lon="8.1259869877249">
<ele>187.60000000000002</ele>
<time>2023-05-18T13:21:58Z</time>
</trkpt>
<trkpt lat="49.28063199855387" lon="8.126011965796351">
<ele>187.60000000000002</ele>
<time>2023-05-18T13:21:59Z</time>
</trkpt>
<trkpt lat="49.28062797524035" lon="8.126036943867803">
<ele>187.60000000000002</ele>
<time>2023-05-18T13:22:00Z</time>
</trkpt>
<trkpt lat="49.280619928613305" lon="8.126054964959621">
<ele>187.39999999999998</ele>
<time>2023-05-18T13:22:01Z</time>
</trkpt>
<trkpt lat="49.28060693666339" lon="8.126066951081157">
<ele>187.39999999999998</ele>
<time>2023-05-18T13:22:02Z</time>
</trkpt>
<trkpt lat="49.28058992139995" lon="8.12607298605144">
<ele>187.39999999999998</ele>
<time>2023-05-18T13:22:03Z</time>
</trkpt>
<trkpt lat="49.28056796081364" lon="8.126074997708201">
<ele>187.20000000000005</ele>
<time>2023-05-18T13:22:04Z</time>
</trkpt>
<trkpt lat="49.28054692223668" lon="8.126074997708201">
<ele>187.20000000000005</ele>
<time>2023-05-18T13:22:05Z</time>
</trkpt>
<trkpt lat="49.28052496165037" lon="8.126074997708201">
<ele>187.20000000000005</ele>
<time>2023-05-18T13:22:06Z</time>
</trkpt>
<trkpt lat="49.28050199523568" lon="8.12607298605144">
<ele>187</ele>
<time>2023-05-18T13:22:07Z</time>
</trkpt>
<trkpt lat="49.2804769333452" lon="8.126064939424396">
<ele>187</ele>
<time>2023-05-18T13:22:08Z</time>
</trkpt>
<trkpt lat="49.28045195527375" lon="8.126054964959621">
<ele>186.79999999999995</ele>
<time>2023-05-18T13:22:09Z</time>
</trkpt>
<trkpt lat="49.280426977202296" lon="8.126049935817719">
<ele>186.79999999999995</ele>
<time>2023-05-18T13:22:10Z</time>
</trkpt>
<trkpt lat="49.280399987474084" lon="8.126047924160957">
<ele>186.79999999999995</ele>
<time>2023-05-18T13:22:11Z</time>
</trkpt>
<trkpt lat="49.28037794306874" lon="8.126046918332577">
<ele>186.60000000000002</ele>
<time>2023-05-18T13:22:12Z</time>
</trkpt>
<trkpt lat="49.280361933633685" lon="8.126049935817719">
<ele>186.60000000000002</ele>
<time>2023-05-18T13:22:13Z</time>
</trkpt>
<trkpt lat="49.28035195916891" lon="8.126066951081157">
<ele>186.39999999999998</ele>
<time>2023-05-18T13:22:14Z</time>
</trkpt>
<trkpt lat="49.28034491837025" lon="8.126091929152608">
<ele>186.39999999999998</ele>
<time>2023-05-18T13:22:15Z</time>
</trkpt>
<trkpt lat="49.28034299053252" lon="8.126126965507865">
<ele>186.39999999999998</ele>
<time>2023-05-18T13:22:16Z</time>
</trkpt>
<trkpt lat="49.28033494390547" lon="8.12616292387247">
<ele>186.39999999999998</ele>
<time>2023-05-18T13:22:17Z</time>
</trkpt>
<trkpt lat="49.2803249694407" lon="8.126197960227728">
<ele>186.20000000000005</ele>
<time>2023-05-18T13:22:18Z</time>
</trkpt>
<trkpt lat="49.280316922813654" lon="8.126232996582985">
<ele>186.20000000000005</ele>
<time>2023-05-18T13:22:19Z</time>
</trkpt>
<trkpt lat="49.28030694834888" lon="8.12626794911921">
<ele>186.20000000000005</ele>
<time>2023-05-18T13:22:20Z</time>
</trkpt>
<trkpt lat="49.280297979712486" lon="8.126301979646087">
<ele>186.20000000000005</ele>
<time>2023-05-18T13:22:21Z</time>
</trkpt>
<trkpt lat="49.28028297610581" lon="8.126336932182312">
<ele>186.20000000000005</ele>
<time>2023-05-18T13:22:22Z</time>
</trkpt>
<trkpt lat="49.280271995812654" lon="8.126382948830724">
<ele>186</ele>
<time>2023-05-18T13:22:23Z</time>
</trkpt>
<trkpt lat="49.280271995812654" lon="8.126432988792658">
<ele>186</ele>
<time>2023-05-18T13:22:24Z</time>
</trkpt>
<trkpt lat="49.280272917822" lon="8.126484956592321">
<ele>186</ele>
<time>2023-05-18T13:22:25Z</time>
</trkpt>
<trkpt lat="49.280274929478765" lon="8.126539941877127">
<ele>185.79999999999995</ele>
<time>2023-05-18T13:22:26Z</time>
</trkpt>
<trkpt lat="49.28027995862067" lon="8.126591993495822">
<ele>185.79999999999995</ele>
<time>2023-05-18T13:22:27Z</time>
</trkpt>
<trkpt lat="49.28028297610581" lon="8.126639937981963">
<ele>185.79999999999995</ele>
<time>2023-05-18T13:22:28Z</time>
</trkpt>
<trkpt lat="49.28028297610581" lon="8.126682937145233">
<ele>185.79999999999995</ele>
<time>2023-05-18T13:22:29Z</time>
</trkpt>
<trkpt lat="49.28027995862067" lon="8.126721996814013">
<ele>185.79999999999995</ele>
<time>2023-05-18T13:22:30Z</time>
</trkpt>
<trkpt lat="49.28028197027743" lon="8.126756949350238">
<ele>185.79999999999995</ele>
<time>2023-05-18T13:22:31Z</time>
</trkpt>
<trkpt lat="49.280274929478765" lon="8.126787962391973">
<ele>185.79999999999995</ele>
<time>2023-05-18T13:22:32Z</time>
</trkpt>
<trkpt lat="49.28026696667075" lon="8.12682299874723">
<ele>185.79999999999995</ele>
<time>2023-05-18T13:22:33Z</time>
</trkpt>
<trkpt lat="49.28025699220598" lon="8.126854933798313">
<ele>185.60000000000002</ele>
<time>2023-05-18T13:22:34Z</time>
</trkpt>
<trkpt lat="49.28024793975055" lon="8.126877984032035">
<ele>185.60000000000002</ele>
<time>2023-05-18T13:22:35Z</time>
</trkpt>
<trkpt lat="49.2802419885993" lon="8.126894999295473">
<ele>185.60000000000002</ele>
<time>2023-05-18T13:22:36Z</time>
</trkpt>
<trkpt lat="49.2802419885993" lon="8.126896927133203">
<ele>185.60000000000002</ele>
<time>2023-05-18T13:22:37Z</time>
</trkpt>
<trkpt lat="49.2802419885993" lon="8.126897932961583">
<ele>185.39999999999998</ele>
<time>2023-05-18T13:22:38Z</time>
</trkpt>
<trkpt lat="49.28024793975055" lon="8.12688997015357">
<ele>185.39999999999998</ele>
<time>2023-05-18T13:22:38Z</time>
</trkpt>
<trkpt lat="49.28024793975055" lon="8.126891981810331">
<ele>185.39999999999998</ele>
<time>2023-05-18T13:22:39Z</time>
</trkpt>
<trkpt lat="49.28024299442768" lon="8.12682693824172">
<ele>185.39999999999998</ele>
<time>2023-05-18T13:22:40Z</time>
</trkpt>
<trkpt lat="49.28024693392217" lon="8.12680497765541">
<ele>185.39999999999998</ele>
<time>2023-05-18T13:22:41Z</time>
</trkpt>
<trkpt lat="49.28024793975055" lon="8.126776982098818">
<ele>185.39999999999998</ele>
<time>2023-05-18T13:22:42Z</time>
</trkpt>
<trkpt lat="49.28024995140731" lon="8.12674194574356">
<ele>185.39999999999998</ele>
<time>2023-05-18T13:22:43Z</time>
</trkpt>
<trkpt lat="49.28024995140731" lon="8.126702969893813">
<ele>185.39999999999998</ele>
<time>2023-05-18T13:22:44Z</time>
</trkpt>
<trkpt lat="49.28024793975055" lon="8.126659970730543">
<ele>185.39999999999998</ele>
<time>2023-05-18T13:22:45Z</time>
</trkpt>
<trkpt lat="49.28024693392217" lon="8.12661294825375">
<ele>185.39999999999998</ele>
<time>2023-05-18T13:22:46Z</time>
</trkpt>
<trkpt lat="49.28024693392217" lon="8.12656793743372">
<ele>185.39999999999998</ele>
<time>2023-05-18T13:22:47Z</time>
</trkpt>
<trkpt lat="49.28024693392217" lon="8.126521920785308">
<ele>185.39999999999998</ele>
<time>2023-05-18T13:22:48Z</time>
</trkpt>
<trkpt lat="49.28024693392217" lon="8.126476993784308">
<ele>185.39999999999998</ele>
<time>2023-05-18T13:22:49Z</time>
</trkpt>
<trkpt lat="49.28024492226541" lon="8.126432988792658">
<ele>185.39999999999998</ele>
<time>2023-05-18T13:22:50Z</time>
</trkpt>
<trkpt lat="49.28024492226541" lon="8.126394934952259">
<ele>185.60000000000002</ele>
<time>2023-05-18T13:22:51Z</time>
</trkpt>
<trkpt lat="49.28024492226541" lon="8.126357970759273">
<ele>185.60000000000002</ele>
<time>2023-05-18T13:22:52Z</time>
</trkpt>
<trkpt lat="49.28024793975055" lon="8.126322934404016">
<ele>185.60000000000002</ele>
<time>2023-05-18T13:22:53Z</time>
</trkpt>
<trkpt lat="49.280252968892455" lon="8.126289993524551">
<ele>185.79999999999995</ele>
<time>2023-05-18T13:22:54Z</time>
</trkpt>
<trkpt lat="49.28026294335723" lon="8.126259986311197">
<ele>185.79999999999995</ele>
<time>2023-05-18T13:22:55Z</time>
</trkpt>
<trkpt lat="49.280271995812654" lon="8.126229979097843">
<ele>186</ele>
<time>2023-05-18T13:22:56Z</time>
</trkpt>
<trkpt lat="49.280277946963906" lon="8.12620198354125">
<ele>186</ele>
<time>2023-05-18T13:22:57Z</time>
</trkpt>
<trkpt lat="49.28028197027743" lon="8.126171976327896">
<ele>186.20000000000005</ele>
<time>2023-05-18T13:22:58Z</time>
</trkpt>
<trkpt lat="49.28028792142868" lon="8.126142974942923">
<ele>186.20000000000005</ele>
<time>2023-05-18T13:22:59Z</time>
</trkpt>
<trkpt lat="49.28029295057058" lon="8.12611699104309">
<ele>186.39999999999998</ele>
<time>2023-05-18T13:23:00Z</time>
</trkpt>
<trkpt lat="49.280297979712486" lon="8.126092934980989">
<ele>186.39999999999998</ele>
<time>2023-05-18T13:23:01Z</time>
</trkpt>
<trkpt lat="49.28030694834888" lon="8.126069968566298">
<ele>186.60000000000002</ele>
<time>2023-05-18T13:23:02Z</time>
</trkpt>
<trkpt lat="49.280319940298796" lon="8.126054964959621">
<ele>186.60000000000002</ele>
<time>2023-05-18T13:23:03Z</time>
</trkpt>
<trkpt lat="49.28033494390547" lon="8.126044990494847">
<ele>186.60000000000002</ele>
<time>2023-05-18T13:23:04Z</time>
</trkpt>
<trkpt lat="49.28034793585539" lon="8.126041973009706">
<ele>186.79999999999995</ele>
<time>2023-05-18T13:23:05Z</time>
</trkpt>
<trkpt lat="49.280361933633685" lon="8.126042978838086">
<ele>186.79999999999995</ele>
<time>2023-05-18T13:23:06Z</time>
</trkpt>
<trkpt lat="49.28037299774587" lon="8.126042978838086">
<ele>187</ele>
<time>2023-05-18T13:23:07Z</time>
</trkpt>
<trkpt lat="49.280381966382265" lon="8.126042978838086">
<ele>187</ele>
<time>2023-05-18T13:23:08Z</time>
</trkpt>
<trkpt lat="49.280381966382265" lon="8.126041973009706">
<ele>187</ele>
<time>2023-05-18T13:23:09Z</time>
</trkpt>
<trkpt lat="49.280382972210646" lon="8.126042978838086">
<ele>187.20000000000005</ele>
<time>2023-05-18T13:23:10Z</time>
</trkpt>
<trkpt lat="49.28039194084704" lon="8.126042978838086">
<ele>187.20000000000005</ele>
<time>2023-05-18T13:23:11Z</time>
</trkpt>
<trkpt lat="49.280402921140194" lon="8.126041973009706">
<ele>187.20000000000005</ele>
<time>2023-05-18T13:23:12Z</time>
</trkpt>
<trkpt lat="49.28041691891849" lon="8.126044990494847">
<ele>187.20000000000005</ele>
<time>2023-05-18T13:23:13Z</time>
</trkpt>
<trkpt lat="49.28043192252517" lon="8.126049935817719">
<ele>187.20000000000005</ele>
<time>2023-05-18T13:23:14Z</time>
</trkpt>
<trkpt lat="49.280446926131845" lon="8.126054964959621">
<ele>187.20000000000005</ele>
<time>2023-05-18T13:23:15Z</time>
</trkpt>
<trkpt lat="49.28045799024403" lon="8.126056976616383">
<ele>187.20000000000005</ele>
<time>2023-05-18T13:23:16Z</time>
</trkpt>
<trkpt lat="49.28047299385071" lon="8.126059994101524">
<ele>187.20000000000005</ele>
<time>2023-05-18T13:23:17Z</time>
</trkpt>
<trkpt lat="49.280489925295115" lon="8.126059994101524">
<ele>187.20000000000005</ele>
<time>2023-05-18T13:23:18Z</time>
</trkpt>
<trkpt lat="49.28050694055855" lon="8.126062927767634">
<ele>187.20000000000005</ele>
<time>2023-05-18T13:23:19Z</time>
</trkpt>
<trkpt lat="49.28052697330713" lon="8.126066951081157">
<ele>187.20000000000005</ele>
<time>2023-05-18T13:23:20Z</time>
</trkpt>
<trkpt lat="49.28054499439895" lon="8.126061921939254">
<ele>187.20000000000005</ele>
<time>2023-05-18T13:23:21Z</time>
</trkpt>
<trkpt lat="49.28056192584336" lon="8.12605295330286">
<ele>187.20000000000005</ele>
<time>2023-05-18T13:23:22Z</time>
</trkpt>
<trkpt lat="49.28058497607708" lon="8.126047924160957">
<ele>187.20000000000005</ele>
<time>2023-05-18T13:23:23Z</time>
</trkpt>
<trkpt lat="49.28060199134052" lon="8.12603292055428">
<ele>187.20000000000005</ele>
<time>2023-05-18T13:23:24Z</time>
</trkpt>
<trkpt lat="49.28061297163367" lon="8.126012971624732">
<ele>187.20000000000005</ele>
<time>2023-05-18T13:23:25Z</time>
</trkpt>
<trkpt lat="49.280619928613305" lon="8.125994950532913">
<ele>187.20000000000005</ele>
<time>2023-05-18T13:23:26Z</time>
</trkpt>
<trkpt lat="49.28062294609845" lon="8.125977935269475">
<ele>187.20000000000005</ele>
<time>2023-05-18T13:23:27Z</time>
</trkpt>
<trkpt lat="49.28062495775521" lon="8.125959997996688">
<ele>187.20000000000005</ele>
<time>2023-05-18T13:23:28Z</time>
</trkpt>
<trkpt lat="49.28062998689711" lon="8.12594499439001">
<ele>187.39999999999998</ele>
<time>2023-05-18T13:23:29Z</time>
</trkpt>
<trkpt lat="49.28063292056322" lon="8.125936947762966">
<ele>187.39999999999998</ele>
<time>2023-05-18T13:23:30Z</time>
</trkpt>
<trkpt lat="49.28063292056322" lon="8.125934936106205">
<ele>187.39999999999998</ele>
<time>2023-05-18T13:23:31Z</time>
</trkpt>
<trkpt lat="49.28063493221998" lon="8.125932924449444">
<ele>187.39999999999998</ele>
<time>2023-05-18T13:23:32Z</time>
</trkpt>
<trkpt lat="49.280641973018646" lon="8.125894954428077">
<ele>188</ele>
<time>2023-05-18T13:23:32Z</time>
</trkpt>
<trkpt lat="49.280641973018646" lon="8.125887997448444">
<ele>188</ele>
<time>2023-05-18T13:23:33Z</time>
</trkpt>
<trkpt lat="49.280641973018646" lon="8.125886991620064">
<ele>188</ele>
<time>2023-05-18T13:23:34Z</time>
</trkpt>
<trkpt lat="49.280641973018646" lon="8.125886991620064">
<ele>188</ele>
</trkpt>
</trkseg>
</trk>
</gpx>